<?xml version="1.0" encoding="UTF-8" standalone="no" ?>
<gpx xmlns="http://www.topografix.com/GPX/1/1" xmlns:xsi="http://www.w3.org/2001/XMLSchema-instance" xsi:schemaLocation="http://www.topografix.com/GPX/1/1 http://www.topografix.com/GPX/1/1/gpx.xsd" version="1.1" creator="VisuGPX - https://www.visugpx.com">
  <metadata>
    <name>La Rosette 2016</name>
  </metadata>
  <trk>
    <name><![CDATA[La Rosette]]></name>
    <trkseg>
      <trkpt lat="45.60887" lon="4.84699">
        <ele>219.2</ele>
        <time>2016-03-20T07:15:26Z</time>
      </trkpt>
      <trkpt lat="45.60881" lon="4.84702">
        <ele>219.2</ele>
        <time>2016-03-20T07:15:28Z</time>
      </trkpt>
      <trkpt lat="45.60664" lon="4.84824">
        <ele>217.5</ele>
        <time>2016-03-20T07:15:30Z</time>
      </trkpt>
      <trkpt lat="45.60663" lon="4.8483">
        <ele>218</ele>
        <time>2016-03-20T07:15:32Z</time>
      </trkpt>
      <trkpt lat="45.60662" lon="4.84837">
        <ele>218.7</ele>
        <time>2016-03-20T07:15:34Z</time>
      </trkpt>
      <trkpt lat="45.60658" lon="4.84842">
        <ele>219.2</ele>
        <time>2016-03-20T07:15:36Z</time>
      </trkpt>
      <trkpt lat="45.60653" lon="4.84844">
        <ele>219.5</ele>
        <time>2016-03-20T07:15:38Z</time>
      </trkpt>
      <trkpt lat="45.60647" lon="4.84845">
        <ele>219.7</ele>
        <time>2016-03-20T07:15:40Z</time>
      </trkpt>
      <trkpt lat="45.60641" lon="4.84845">
        <ele>219.9</ele>
        <time>2016-03-20T07:15:42Z</time>
      </trkpt>
      <trkpt lat="45.60635" lon="4.84846">
        <ele>220.1</ele>
        <time>2016-03-20T07:15:44Z</time>
      </trkpt>
      <trkpt lat="45.60629" lon="4.84846">
        <ele>220.3</ele>
        <time>2016-03-20T07:15:46Z</time>
      </trkpt>
      <trkpt lat="45.60622" lon="4.84845">
        <ele>220.7</ele>
        <time>2016-03-20T07:15:48Z</time>
      </trkpt>
      <trkpt lat="45.60616" lon="4.84844">
        <ele>221.1</ele>
        <time>2016-03-20T07:15:50Z</time>
      </trkpt>
      <trkpt lat="45.6061" lon="4.84844">
        <ele>221.6</ele>
        <time>2016-03-20T07:15:52Z</time>
      </trkpt>
      <trkpt lat="45.60604" lon="4.84845">
        <ele>221.6</ele>
        <time>2016-03-20T07:15:54Z</time>
      </trkpt>
      <trkpt lat="45.60598" lon="4.84846">
        <ele>221.6</ele>
        <time>2016-03-20T07:15:56Z</time>
      </trkpt>
      <trkpt lat="45.60593" lon="4.84849">
        <ele>221.7</ele>
        <time>2016-03-20T07:15:58Z</time>
      </trkpt>
      <trkpt lat="45.60589" lon="4.84855">
        <ele>221.7</ele>
        <time>2016-03-20T07:16:00Z</time>
      </trkpt>
      <trkpt lat="45.60585" lon="4.84864">
        <ele>221.8</ele>
        <time>2016-03-20T07:16:02Z</time>
      </trkpt>
      <trkpt lat="45.60584" lon="4.84875">
        <ele>221.7</ele>
        <time>2016-03-20T07:16:04Z</time>
      </trkpt>
      <trkpt lat="45.60583" lon="4.84886">
        <ele>221.3</ele>
        <time>2016-03-20T07:16:06Z</time>
      </trkpt>
      <trkpt lat="45.60582" lon="4.84898">
        <ele>220.8</ele>
        <time>2016-03-20T07:16:08Z</time>
      </trkpt>
      <trkpt lat="45.6058" lon="4.84909">
        <ele>220.3</ele>
        <time>2016-03-20T07:16:10Z</time>
      </trkpt>
      <trkpt lat="45.6058" lon="4.84921">
        <ele>219.3</ele>
        <time>2016-03-20T07:16:12Z</time>
      </trkpt>
      <trkpt lat="45.60579" lon="4.84934">
        <ele>218.3</ele>
        <time>2016-03-20T07:16:14Z</time>
      </trkpt>
      <trkpt lat="45.60578" lon="4.84946">
        <ele>217.2</ele>
        <time>2016-03-20T07:16:16Z</time>
      </trkpt>
      <trkpt lat="45.60578" lon="4.84959">
        <ele>216.3</ele>
        <time>2016-03-20T07:16:18Z</time>
      </trkpt>
      <trkpt lat="45.60577" lon="4.84971">
        <ele>215.6</ele>
        <time>2016-03-20T07:16:20Z</time>
      </trkpt>
      <trkpt lat="45.60577" lon="4.84984">
        <ele>215.1</ele>
        <time>2016-03-20T07:16:22Z</time>
      </trkpt>
      <trkpt lat="45.60577" lon="4.84997">
        <ele>214.9</ele>
        <time>2016-03-20T07:16:24Z</time>
      </trkpt>
      <trkpt lat="45.60578" lon="4.85009">
        <ele>214.7</ele>
        <time>2016-03-20T07:16:26Z</time>
      </trkpt>
      <trkpt lat="45.60579" lon="4.85022">
        <ele>214.5</ele>
        <time>2016-03-20T07:16:28Z</time>
      </trkpt>
      <trkpt lat="45.6058" lon="4.85035">
        <ele>214.3</ele>
        <time>2016-03-20T07:16:30Z</time>
      </trkpt>
      <trkpt lat="45.6058" lon="4.85047">
        <ele>214.3</ele>
        <time>2016-03-20T07:16:32Z</time>
      </trkpt>
      <trkpt lat="45.60581" lon="4.8506">
        <ele>214.2</ele>
        <time>2016-03-20T07:16:34Z</time>
      </trkpt>
      <trkpt lat="45.60582" lon="4.85073">
        <ele>214.2</ele>
        <time>2016-03-20T07:16:36Z</time>
      </trkpt>
      <trkpt lat="45.60583" lon="4.85088">
        <ele>214.2</ele>
        <time>2016-03-20T07:16:38Z</time>
      </trkpt>
      <trkpt lat="45.60584" lon="4.85103">
        <ele>214.2</ele>
        <time>2016-03-20T07:16:40Z</time>
      </trkpt>
      <trkpt lat="45.60585" lon="4.85118">
        <ele>214.3</ele>
        <time>2016-03-20T07:16:42Z</time>
      </trkpt>
      <trkpt lat="45.60586" lon="4.85133">
        <ele>214.6</ele>
        <time>2016-03-20T07:16:44Z</time>
      </trkpt>
      <trkpt lat="45.60587" lon="4.85149">
        <ele>214.9</ele>
        <time>2016-03-20T07:16:46Z</time>
      </trkpt>
      <trkpt lat="45.60588" lon="4.85165">
        <ele>215</ele>
        <time>2016-03-20T07:16:48Z</time>
      </trkpt>
      <trkpt lat="45.60589" lon="4.85181">
        <ele>215.1</ele>
        <time>2016-03-20T07:16:50Z</time>
      </trkpt>
      <trkpt lat="45.60589" lon="4.85196">
        <ele>215.2</ele>
        <time>2016-03-20T07:16:52Z</time>
      </trkpt>
      <trkpt lat="45.60587" lon="4.85211">
        <ele>215.3</ele>
        <time>2016-03-20T07:16:54Z</time>
      </trkpt>
      <trkpt lat="45.60584" lon="4.85225">
        <ele>215.4</ele>
        <time>2016-03-20T07:16:56Z</time>
      </trkpt>
      <trkpt lat="45.6058" lon="4.85239">
        <ele>215.6</ele>
        <time>2016-03-20T07:16:58Z</time>
      </trkpt>
      <trkpt lat="45.60577" lon="4.85253">
        <ele>215.9</ele>
        <time>2016-03-20T07:17:00Z</time>
      </trkpt>
      <trkpt lat="45.60574" lon="4.85267">
        <ele>216</ele>
        <time>2016-03-20T07:17:02Z</time>
      </trkpt>
      <trkpt lat="45.60571" lon="4.8528">
        <ele>216</ele>
        <time>2016-03-20T07:17:04Z</time>
      </trkpt>
      <trkpt lat="45.6057" lon="4.85292">
        <ele>216</ele>
        <time>2016-03-20T07:17:06Z</time>
      </trkpt>
      <trkpt lat="45.60567" lon="4.85304">
        <ele>216</ele>
        <time>2016-03-20T07:17:08Z</time>
      </trkpt>
      <trkpt lat="45.6056" lon="4.85313">
        <ele>216</ele>
        <time>2016-03-20T07:17:10Z</time>
      </trkpt>
      <trkpt lat="45.60555" lon="4.85325">
        <ele>216.4</ele>
        <time>2016-03-20T07:17:12Z</time>
      </trkpt>
      <trkpt lat="45.60553" lon="4.85338">
        <ele>217.8</ele>
        <time>2016-03-20T07:17:14Z</time>
      </trkpt>
      <trkpt lat="45.60555" lon="4.85353">
        <ele>218</ele>
        <time>2016-03-20T07:17:16Z</time>
      </trkpt>
      <trkpt lat="45.6056" lon="4.85364">
        <ele>218</ele>
        <time>2016-03-20T07:17:18Z</time>
      </trkpt>
      <trkpt lat="45.60569" lon="4.85371">
        <ele>218</ele>
        <time>2016-03-20T07:17:20Z</time>
      </trkpt>
      <trkpt lat="45.60579" lon="4.85376">
        <ele>218</ele>
        <time>2016-03-20T07:17:22Z</time>
      </trkpt>
      <trkpt lat="45.60587" lon="4.85386">
        <ele>217.7</ele>
        <time>2016-03-20T07:17:24Z</time>
      </trkpt>
      <trkpt lat="45.60593" lon="4.85399">
        <ele>217.4</ele>
        <time>2016-03-20T07:17:26Z</time>
      </trkpt>
      <trkpt lat="45.60601" lon="4.85413">
        <ele>217.1</ele>
        <time>2016-03-20T07:17:28Z</time>
      </trkpt>
      <trkpt lat="45.60607" lon="4.85429">
        <ele>216.9</ele>
        <time>2016-03-20T07:17:30Z</time>
      </trkpt>
      <trkpt lat="45.60611" lon="4.85447">
        <ele>216.8</ele>
        <time>2016-03-20T07:17:32Z</time>
      </trkpt>
      <trkpt lat="45.60615" lon="4.85465">
        <ele>216.6</ele>
        <time>2016-03-20T07:17:34Z</time>
      </trkpt>
      <trkpt lat="45.60618" lon="4.85483">
        <ele>216.6</ele>
        <time>2016-03-20T07:17:36Z</time>
      </trkpt>
      <trkpt lat="45.60621" lon="4.855">
        <ele>216.6</ele>
        <time>2016-03-20T07:17:38Z</time>
      </trkpt>
      <trkpt lat="45.60625" lon="4.85518">
        <ele>216.7</ele>
        <time>2016-03-20T07:17:40Z</time>
      </trkpt>
      <trkpt lat="45.60628" lon="4.85534">
        <ele>216.8</ele>
        <time>2016-03-20T07:17:42Z</time>
      </trkpt>
      <trkpt lat="45.6063" lon="4.85552">
        <ele>216.8</ele>
        <time>2016-03-20T07:17:44Z</time>
      </trkpt>
      <trkpt lat="45.60633" lon="4.85568">
        <ele>216.9</ele>
        <time>2016-03-20T07:17:46Z</time>
      </trkpt>
      <trkpt lat="45.60635" lon="4.85583">
        <ele>217</ele>
        <time>2016-03-20T07:17:48Z</time>
      </trkpt>
      <trkpt lat="45.60637" lon="4.85599">
        <ele>217.1</ele>
        <time>2016-03-20T07:17:50Z</time>
      </trkpt>
      <trkpt lat="45.60639" lon="4.85614">
        <ele>217.2</ele>
        <time>2016-03-20T07:17:52Z</time>
      </trkpt>
      <trkpt lat="45.60642" lon="4.85629">
        <ele>217.3</ele>
        <time>2016-03-20T07:17:54Z</time>
      </trkpt>
      <trkpt lat="45.60644" lon="4.85645">
        <ele>217.4</ele>
        <time>2016-03-20T07:17:56Z</time>
      </trkpt>
      <trkpt lat="45.60647" lon="4.85662">
        <ele>217.5</ele>
        <time>2016-03-20T07:17:58Z</time>
      </trkpt>
      <trkpt lat="45.6065" lon="4.85678">
        <ele>217.5</ele>
        <time>2016-03-20T07:18:00Z</time>
      </trkpt>
      <trkpt lat="45.60652" lon="4.85695">
        <ele>217.6</ele>
        <time>2016-03-20T07:18:02Z</time>
      </trkpt>
      <trkpt lat="45.60654" lon="4.85711">
        <ele>217.7</ele>
        <time>2016-03-20T07:18:04Z</time>
      </trkpt>
      <trkpt lat="45.60656" lon="4.85727">
        <ele>217.8</ele>
        <time>2016-03-20T07:18:06Z</time>
      </trkpt>
      <trkpt lat="45.60659" lon="4.85742">
        <ele>217.8</ele>
        <time>2016-03-20T07:18:08Z</time>
      </trkpt>
      <trkpt lat="45.60661" lon="4.85758">
        <ele>217.9</ele>
        <time>2016-03-20T07:18:10Z</time>
      </trkpt>
      <trkpt lat="45.6066" lon="4.85772">
        <ele>218</ele>
        <time>2016-03-20T07:18:12Z</time>
      </trkpt>
      <trkpt lat="45.60651" lon="4.85776">
        <ele>218</ele>
        <time>2016-03-20T07:18:14Z</time>
      </trkpt>
      <trkpt lat="45.60642" lon="4.85775">
        <ele>218</ele>
        <time>2016-03-20T07:18:16Z</time>
      </trkpt>
      <trkpt lat="45.60631" lon="4.85774">
        <ele>218</ele>
        <time>2016-03-20T07:18:18Z</time>
      </trkpt>
      <trkpt lat="45.60621" lon="4.85774">
        <ele>218.1</ele>
        <time>2016-03-20T07:18:20Z</time>
      </trkpt>
      <trkpt lat="45.6061" lon="4.85773">
        <ele>218.3</ele>
        <time>2016-03-20T07:18:22Z</time>
      </trkpt>
      <trkpt lat="45.606" lon="4.85772">
        <ele>218.4</ele>
        <time>2016-03-20T07:18:24Z</time>
      </trkpt>
      <trkpt lat="45.60589" lon="4.85771">
        <ele>218.4</ele>
        <time>2016-03-20T07:18:26Z</time>
      </trkpt>
      <trkpt lat="45.60578" lon="4.85769">
        <ele>218.5</ele>
        <time>2016-03-20T07:18:28Z</time>
      </trkpt>
      <trkpt lat="45.60568" lon="4.85766">
        <ele>218.5</ele>
        <time>2016-03-20T07:18:30Z</time>
      </trkpt>
      <trkpt lat="45.60557" lon="4.85764">
        <ele>218.6</ele>
        <time>2016-03-20T07:18:32Z</time>
      </trkpt>
      <trkpt lat="45.60547" lon="4.85762">
        <ele>218.7</ele>
        <time>2016-03-20T07:18:34Z</time>
      </trkpt>
      <trkpt lat="45.60538" lon="4.8576">
        <ele>218.8</ele>
        <time>2016-03-20T07:18:36Z</time>
      </trkpt>
      <trkpt lat="45.60529" lon="4.85759">
        <ele>218.8</ele>
        <time>2016-03-20T07:18:38Z</time>
      </trkpt>
      <trkpt lat="45.60521" lon="4.85763">
        <ele>218.9</ele>
        <time>2016-03-20T07:18:40Z</time>
      </trkpt>
      <trkpt lat="45.60517" lon="4.85771">
        <ele>219.2</ele>
        <time>2016-03-20T07:18:42Z</time>
      </trkpt>
      <trkpt lat="45.60516" lon="4.85783">
        <ele>219.6</ele>
        <time>2016-03-20T07:18:44Z</time>
      </trkpt>
      <trkpt lat="45.60518" lon="4.85795">
        <ele>219.6</ele>
        <time>2016-03-20T07:18:46Z</time>
      </trkpt>
      <trkpt lat="45.60519" lon="4.85808">
        <ele>219.5</ele>
        <time>2016-03-20T07:18:48Z</time>
      </trkpt>
      <trkpt lat="45.60521" lon="4.85821">
        <ele>219.6</ele>
        <time>2016-03-20T07:18:50Z</time>
      </trkpt>
      <trkpt lat="45.60523" lon="4.85834">
        <ele>219.8</ele>
        <time>2016-03-20T07:18:52Z</time>
      </trkpt>
      <trkpt lat="45.60524" lon="4.85847">
        <ele>219.9</ele>
        <time>2016-03-20T07:18:54Z</time>
      </trkpt>
      <trkpt lat="45.60524" lon="4.8586">
        <ele>220</ele>
        <time>2016-03-20T07:18:56Z</time>
      </trkpt>
      <trkpt lat="45.60526" lon="4.85873">
        <ele>220.9</ele>
        <time>2016-03-20T07:18:58Z</time>
      </trkpt>
      <trkpt lat="45.60527" lon="4.85887">
        <ele>221.8</ele>
        <time>2016-03-20T07:19:00Z</time>
      </trkpt>
      <trkpt lat="45.60529" lon="4.859">
        <ele>222.7</ele>
        <time>2016-03-20T07:19:02Z</time>
      </trkpt>
      <trkpt lat="45.60529" lon="4.85914">
        <ele>223.1</ele>
        <time>2016-03-20T07:19:04Z</time>
      </trkpt>
      <trkpt lat="45.60529" lon="4.85926">
        <ele>223.6</ele>
        <time>2016-03-20T07:19:06Z</time>
      </trkpt>
      <trkpt lat="45.60523" lon="4.85967">
        <ele>224</ele>
        <time>2016-03-20T07:19:17Z</time>
      </trkpt>
      <trkpt lat="45.60517" lon="4.85975">
        <ele>224</ele>
        <time>2016-03-20T07:19:19Z</time>
      </trkpt>
      <trkpt lat="45.60499" lon="4.85998">
        <ele>225.6</ele>
        <time>2016-03-20T07:19:21Z</time>
      </trkpt>
      <trkpt lat="45.60502" lon="4.86003">
        <ele>225.8</ele>
        <time>2016-03-20T07:19:23Z</time>
      </trkpt>
      <trkpt lat="45.60506" lon="4.86007">
        <ele>226</ele>
        <time>2016-03-20T07:19:25Z</time>
      </trkpt>
      <trkpt lat="45.60513" lon="4.86011">
        <ele>226.3</ele>
        <time>2016-03-20T07:19:27Z</time>
      </trkpt>
      <trkpt lat="45.60519" lon="4.86016">
        <ele>226.5</ele>
        <time>2016-03-20T07:19:29Z</time>
      </trkpt>
      <trkpt lat="45.60527" lon="4.86021">
        <ele>226.8</ele>
        <time>2016-03-20T07:19:31Z</time>
      </trkpt>
      <trkpt lat="45.60534" lon="4.86026">
        <ele>227</ele>
        <time>2016-03-20T07:19:33Z</time>
      </trkpt>
      <trkpt lat="45.6054" lon="4.86031">
        <ele>227.1</ele>
        <time>2016-03-20T07:19:35Z</time>
      </trkpt>
      <trkpt lat="45.60547" lon="4.86036">
        <ele>227.3</ele>
        <time>2016-03-20T07:19:37Z</time>
      </trkpt>
      <trkpt lat="45.60553" lon="4.86041">
        <ele>227.6</ele>
        <time>2016-03-20T07:19:39Z</time>
      </trkpt>
      <trkpt lat="45.60559" lon="4.86046">
        <ele>227.7</ele>
        <time>2016-03-20T07:19:41Z</time>
      </trkpt>
      <trkpt lat="45.60564" lon="4.86051">
        <ele>227.8</ele>
        <time>2016-03-20T07:19:43Z</time>
      </trkpt>
      <trkpt lat="45.6057" lon="4.86055">
        <ele>227.9</ele>
        <time>2016-03-20T07:19:45Z</time>
      </trkpt>
      <trkpt lat="45.60576" lon="4.8606">
        <ele>227.9</ele>
        <time>2016-03-20T07:19:47Z</time>
      </trkpt>
      <trkpt lat="45.60583" lon="4.86065">
        <ele>227.8</ele>
        <time>2016-03-20T07:19:49Z</time>
      </trkpt>
      <trkpt lat="45.60589" lon="4.86072">
        <ele>227.7</ele>
        <time>2016-03-20T07:19:51Z</time>
      </trkpt>
      <trkpt lat="45.60597" lon="4.86078">
        <ele>227.5</ele>
        <time>2016-03-20T07:19:53Z</time>
      </trkpt>
      <trkpt lat="45.60604" lon="4.86085">
        <ele>227.1</ele>
        <time>2016-03-20T07:19:55Z</time>
      </trkpt>
      <trkpt lat="45.60611" lon="4.86091">
        <ele>226.6</ele>
        <time>2016-03-20T07:19:57Z</time>
      </trkpt>
      <trkpt lat="45.60619" lon="4.86098">
        <ele>226.4</ele>
        <time>2016-03-20T07:19:59Z</time>
      </trkpt>
      <trkpt lat="45.60627" lon="4.86106">
        <ele>226.6</ele>
        <time>2016-03-20T07:20:01Z</time>
      </trkpt>
      <trkpt lat="45.60635" lon="4.86113">
        <ele>226.7</ele>
        <time>2016-03-20T07:20:03Z</time>
      </trkpt>
      <trkpt lat="45.60643" lon="4.86121">
        <ele>226.7</ele>
        <time>2016-03-20T07:20:05Z</time>
      </trkpt>
      <trkpt lat="45.60651" lon="4.86129">
        <ele>226.5</ele>
        <time>2016-03-20T07:20:07Z</time>
      </trkpt>
      <trkpt lat="45.60658" lon="4.86138">
        <ele>226.5</ele>
        <time>2016-03-20T07:20:09Z</time>
      </trkpt>
      <trkpt lat="45.60667" lon="4.86145">
        <ele>226.7</ele>
        <time>2016-03-20T07:20:11Z</time>
      </trkpt>
      <trkpt lat="45.60675" lon="4.86154">
        <ele>226.6</ele>
        <time>2016-03-20T07:20:13Z</time>
      </trkpt>
      <trkpt lat="45.60683" lon="4.86162">
        <ele>225.8</ele>
        <time>2016-03-20T07:20:15Z</time>
      </trkpt>
      <trkpt lat="45.60692" lon="4.86171">
        <ele>224.6</ele>
        <time>2016-03-20T07:20:17Z</time>
      </trkpt>
      <trkpt lat="45.60701" lon="4.8618">
        <ele>223.7</ele>
        <time>2016-03-20T07:20:19Z</time>
      </trkpt>
      <trkpt lat="45.60709" lon="4.8619">
        <ele>222.6</ele>
        <time>2016-03-20T07:20:21Z</time>
      </trkpt>
      <trkpt lat="45.60719" lon="4.86201">
        <ele>221.9</ele>
        <time>2016-03-20T07:20:23Z</time>
      </trkpt>
      <trkpt lat="45.60729" lon="4.86211">
        <ele>221.9</ele>
        <time>2016-03-20T07:20:25Z</time>
      </trkpt>
      <trkpt lat="45.60738" lon="4.86222">
        <ele>222.5</ele>
        <time>2016-03-20T07:20:27Z</time>
      </trkpt>
      <trkpt lat="45.60746" lon="4.86233">
        <ele>223.5</ele>
        <time>2016-03-20T07:20:29Z</time>
      </trkpt>
      <trkpt lat="45.60755" lon="4.86245">
        <ele>224.6</ele>
        <time>2016-03-20T07:20:31Z</time>
      </trkpt>
      <trkpt lat="45.60762" lon="4.86256">
        <ele>225</ele>
        <time>2016-03-20T07:20:33Z</time>
      </trkpt>
      <trkpt lat="45.60766" lon="4.86269">
        <ele>225</ele>
        <time>2016-03-20T07:20:35Z</time>
      </trkpt>
      <trkpt lat="45.60761" lon="4.86276">
        <ele>226.2</ele>
        <time>2016-03-20T07:20:37Z</time>
      </trkpt>
      <trkpt lat="45.60754" lon="4.86279">
        <ele>226.7</ele>
        <time>2016-03-20T07:20:39Z</time>
      </trkpt>
      <trkpt lat="45.60746" lon="4.86282">
        <ele>227.1</ele>
        <time>2016-03-20T07:20:41Z</time>
      </trkpt>
      <trkpt lat="45.60738" lon="4.86284">
        <ele>227.3</ele>
        <time>2016-03-20T07:20:43Z</time>
      </trkpt>
      <trkpt lat="45.6073" lon="4.86287">
        <ele>227.6</ele>
        <time>2016-03-20T07:20:45Z</time>
      </trkpt>
      <trkpt lat="45.60722" lon="4.8629">
        <ele>227.9</ele>
        <time>2016-03-20T07:20:47Z</time>
      </trkpt>
      <trkpt lat="45.60714" lon="4.86294">
        <ele>228.3</ele>
        <time>2016-03-20T07:20:49Z</time>
      </trkpt>
      <trkpt lat="45.60706" lon="4.86297">
        <ele>228.9</ele>
        <time>2016-03-20T07:20:51Z</time>
      </trkpt>
      <trkpt lat="45.60698" lon="4.86301">
        <ele>229.5</ele>
        <time>2016-03-20T07:20:53Z</time>
      </trkpt>
      <trkpt lat="45.6069" lon="4.86304">
        <ele>230.4</ele>
        <time>2016-03-20T07:20:55Z</time>
      </trkpt>
      <trkpt lat="45.60682" lon="4.86307">
        <ele>231.4</ele>
        <time>2016-03-20T07:20:57Z</time>
      </trkpt>
      <trkpt lat="45.60674" lon="4.86309">
        <ele>232.2</ele>
        <time>2016-03-20T07:20:59Z</time>
      </trkpt>
      <trkpt lat="45.60666" lon="4.8631">
        <ele>232.7</ele>
        <time>2016-03-20T07:21:01Z</time>
      </trkpt>
      <trkpt lat="45.60658" lon="4.86309">
        <ele>233</ele>
        <time>2016-03-20T07:21:03Z</time>
      </trkpt>
      <trkpt lat="45.60649" lon="4.86308">
        <ele>233.1</ele>
        <time>2016-03-20T07:21:05Z</time>
      </trkpt>
      <trkpt lat="45.6064" lon="4.86308">
        <ele>233.1</ele>
        <time>2016-03-20T07:21:07Z</time>
      </trkpt>
      <trkpt lat="45.60632" lon="4.86308">
        <ele>233.5</ele>
        <time>2016-03-20T07:21:09Z</time>
      </trkpt>
      <trkpt lat="45.60624" lon="4.86309">
        <ele>233.7</ele>
        <time>2016-03-20T07:21:11Z</time>
      </trkpt>
      <trkpt lat="45.60616" lon="4.8631">
        <ele>233.8</ele>
        <time>2016-03-20T07:21:13Z</time>
      </trkpt>
      <trkpt lat="45.60608" lon="4.86311">
        <ele>233.9</ele>
        <time>2016-03-20T07:21:15Z</time>
      </trkpt>
      <trkpt lat="45.60599" lon="4.86313">
        <ele>234.2</ele>
        <time>2016-03-20T07:21:17Z</time>
      </trkpt>
      <trkpt lat="45.60592" lon="4.86316">
        <ele>234.3</ele>
        <time>2016-03-20T07:21:19Z</time>
      </trkpt>
      <trkpt lat="45.60584" lon="4.8632">
        <ele>234.6</ele>
        <time>2016-03-20T07:21:21Z</time>
      </trkpt>
      <trkpt lat="45.60577" lon="4.86324">
        <ele>234.9</ele>
        <time>2016-03-20T07:21:23Z</time>
      </trkpt>
      <trkpt lat="45.60569" lon="4.86327">
        <ele>235.2</ele>
        <time>2016-03-20T07:21:25Z</time>
      </trkpt>
      <trkpt lat="45.60562" lon="4.8633">
        <ele>235.5</ele>
        <time>2016-03-20T07:21:27Z</time>
      </trkpt>
      <trkpt lat="45.60554" lon="4.86334">
        <ele>235.9</ele>
        <time>2016-03-20T07:21:29Z</time>
      </trkpt>
      <trkpt lat="45.60547" lon="4.86338">
        <ele>236.6</ele>
        <time>2016-03-20T07:21:31Z</time>
      </trkpt>
      <trkpt lat="45.6054" lon="4.86344">
        <ele>237.3</ele>
        <time>2016-03-20T07:21:33Z</time>
      </trkpt>
      <trkpt lat="45.60534" lon="4.8635">
        <ele>237.9</ele>
        <time>2016-03-20T07:21:35Z</time>
      </trkpt>
      <trkpt lat="45.60528" lon="4.86356">
        <ele>238.4</ele>
        <time>2016-03-20T07:21:37Z</time>
      </trkpt>
      <trkpt lat="45.60521" lon="4.86362">
        <ele>238.8</ele>
        <time>2016-03-20T07:21:39Z</time>
      </trkpt>
      <trkpt lat="45.60514" lon="4.86367">
        <ele>239.2</ele>
        <time>2016-03-20T07:21:41Z</time>
      </trkpt>
      <trkpt lat="45.60506" lon="4.86369">
        <ele>239.8</ele>
        <time>2016-03-20T07:21:43Z</time>
      </trkpt>
      <trkpt lat="45.60498" lon="4.86369">
        <ele>240.3</ele>
        <time>2016-03-20T07:21:45Z</time>
      </trkpt>
      <trkpt lat="45.6049" lon="4.86369">
        <ele>241</ele>
        <time>2016-03-20T07:21:47Z</time>
      </trkpt>
      <trkpt lat="45.60482" lon="4.8637">
        <ele>241.9</ele>
        <time>2016-03-20T07:21:49Z</time>
      </trkpt>
      <trkpt lat="45.60473" lon="4.86372">
        <ele>242.7</ele>
        <time>2016-03-20T07:21:51Z</time>
      </trkpt>
      <trkpt lat="45.60464" lon="4.86376">
        <ele>243.6</ele>
        <time>2016-03-20T07:21:53Z</time>
      </trkpt>
      <trkpt lat="45.60456" lon="4.8638">
        <ele>244.3</ele>
        <time>2016-03-20T07:21:55Z</time>
      </trkpt>
      <trkpt lat="45.60448" lon="4.86383">
        <ele>244.9</ele>
        <time>2016-03-20T07:21:57Z</time>
      </trkpt>
      <trkpt lat="45.60441" lon="4.86386">
        <ele>245.4</ele>
        <time>2016-03-20T07:21:59Z</time>
      </trkpt>
      <trkpt lat="45.60434" lon="4.86388">
        <ele>246</ele>
        <time>2016-03-20T07:22:01Z</time>
      </trkpt>
      <trkpt lat="45.60426" lon="4.86389">
        <ele>246.7</ele>
        <time>2016-03-20T07:22:03Z</time>
      </trkpt>
      <trkpt lat="45.6042" lon="4.86389">
        <ele>247.4</ele>
        <time>2016-03-20T07:22:05Z</time>
      </trkpt>
      <trkpt lat="45.60412" lon="4.8639">
        <ele>248</ele>
        <time>2016-03-20T07:22:07Z</time>
      </trkpt>
      <trkpt lat="45.60405" lon="4.86391">
        <ele>248.7</ele>
        <time>2016-03-20T07:22:09Z</time>
      </trkpt>
      <trkpt lat="45.60399" lon="4.86392">
        <ele>249.5</ele>
        <time>2016-03-20T07:22:11Z</time>
      </trkpt>
      <trkpt lat="45.60392" lon="4.86392">
        <ele>250.2</ele>
        <time>2016-03-20T07:22:13Z</time>
      </trkpt>
      <trkpt lat="45.60386" lon="4.86392">
        <ele>250.6</ele>
        <time>2016-03-20T07:22:15Z</time>
      </trkpt>
      <trkpt lat="45.60379" lon="4.86392">
        <ele>251.2</ele>
        <time>2016-03-20T07:22:17Z</time>
      </trkpt>
      <trkpt lat="45.60374" lon="4.86391">
        <ele>251.7</ele>
        <time>2016-03-20T07:22:19Z</time>
      </trkpt>
      <trkpt lat="45.60368" lon="4.86391">
        <ele>252.3</ele>
        <time>2016-03-20T07:22:21Z</time>
      </trkpt>
      <trkpt lat="45.60362" lon="4.86391">
        <ele>252.6</ele>
        <time>2016-03-20T07:22:23Z</time>
      </trkpt>
      <trkpt lat="45.60357" lon="4.86391">
        <ele>252.9</ele>
        <time>2016-03-20T07:22:25Z</time>
      </trkpt>
      <trkpt lat="45.6035" lon="4.86391">
        <ele>253.2</ele>
        <time>2016-03-20T07:22:27Z</time>
      </trkpt>
      <trkpt lat="45.60344" lon="4.86391">
        <ele>253.5</ele>
        <time>2016-03-20T07:22:29Z</time>
      </trkpt>
      <trkpt lat="45.60339" lon="4.86391">
        <ele>253.8</ele>
        <time>2016-03-20T07:22:31Z</time>
      </trkpt>
      <trkpt lat="45.60333" lon="4.86391">
        <ele>254.3</ele>
        <time>2016-03-20T07:22:33Z</time>
      </trkpt>
      <trkpt lat="45.60327" lon="4.86391">
        <ele>254.8</ele>
        <time>2016-03-20T07:22:35Z</time>
      </trkpt>
      <trkpt lat="45.60321" lon="4.86391">
        <ele>255.5</ele>
        <time>2016-03-20T07:22:37Z</time>
      </trkpt>
      <trkpt lat="45.60316" lon="4.86391">
        <ele>256.3</ele>
        <time>2016-03-20T07:22:39Z</time>
      </trkpt>
      <trkpt lat="45.6031" lon="4.86391">
        <ele>257.1</ele>
        <time>2016-03-20T07:22:41Z</time>
      </trkpt>
      <trkpt lat="45.60305" lon="4.86391">
        <ele>258</ele>
        <time>2016-03-20T07:22:43Z</time>
      </trkpt>
      <trkpt lat="45.603" lon="4.86391">
        <ele>258.7</ele>
        <time>2016-03-20T07:22:45Z</time>
      </trkpt>
      <trkpt lat="45.60295" lon="4.86391">
        <ele>259.4</ele>
        <time>2016-03-20T07:22:47Z</time>
      </trkpt>
      <trkpt lat="45.6029" lon="4.86391">
        <ele>260.1</ele>
        <time>2016-03-20T07:22:49Z</time>
      </trkpt>
      <trkpt lat="45.60285" lon="4.86392">
        <ele>260.9</ele>
        <time>2016-03-20T07:22:51Z</time>
      </trkpt>
      <trkpt lat="45.60281" lon="4.86392">
        <ele>261.6</ele>
        <time>2016-03-20T07:22:53Z</time>
      </trkpt>
      <trkpt lat="45.60277" lon="4.86392">
        <ele>262.1</ele>
        <time>2016-03-20T07:22:55Z</time>
      </trkpt>
      <trkpt lat="45.60273" lon="4.86393">
        <ele>262.7</ele>
        <time>2016-03-20T07:22:57Z</time>
      </trkpt>
      <trkpt lat="45.6027" lon="4.86394">
        <ele>263.3</ele>
        <time>2016-03-20T07:22:59Z</time>
      </trkpt>
      <trkpt lat="45.60266" lon="4.86395">
        <ele>263.9</ele>
        <time>2016-03-20T07:23:01Z</time>
      </trkpt>
      <trkpt lat="45.60262" lon="4.86395">
        <ele>264.5</ele>
        <time>2016-03-20T07:23:03Z</time>
      </trkpt>
      <trkpt lat="45.60259" lon="4.86395">
        <ele>265</ele>
        <time>2016-03-20T07:23:05Z</time>
      </trkpt>
      <trkpt lat="45.60256" lon="4.86396">
        <ele>265.4</ele>
        <time>2016-03-20T07:23:07Z</time>
      </trkpt>
      <trkpt lat="45.60254" lon="4.86397">
        <ele>265.8</ele>
        <time>2016-03-20T07:23:09Z</time>
      </trkpt>
      <trkpt lat="45.60251" lon="4.86397">
        <ele>266.1</ele>
        <time>2016-03-20T07:23:11Z</time>
      </trkpt>
      <trkpt lat="45.60248" lon="4.86397">
        <ele>266.6</ele>
        <time>2016-03-20T07:23:13Z</time>
      </trkpt>
      <trkpt lat="45.60245" lon="4.86398">
        <ele>267.5</ele>
        <time>2016-03-20T07:23:15Z</time>
      </trkpt>
      <trkpt lat="45.60243" lon="4.86397">
        <ele>268.1</ele>
        <time>2016-03-20T07:23:17Z</time>
      </trkpt>
      <trkpt lat="45.6024" lon="4.86397">
        <ele>268.9</ele>
        <time>2016-03-20T07:23:19Z</time>
      </trkpt>
      <trkpt lat="45.60238" lon="4.86397">
        <ele>269.5</ele>
        <time>2016-03-20T07:23:21Z</time>
      </trkpt>
      <trkpt lat="45.60235" lon="4.86397">
        <ele>270</ele>
        <time>2016-03-20T07:23:23Z</time>
      </trkpt>
      <trkpt lat="45.60233" lon="4.86397">
        <ele>270.5</ele>
        <time>2016-03-20T07:23:25Z</time>
      </trkpt>
      <trkpt lat="45.60231" lon="4.86396">
        <ele>271.1</ele>
        <time>2016-03-20T07:23:27Z</time>
      </trkpt>
      <trkpt lat="45.60229" lon="4.86396">
        <ele>271.5</ele>
        <time>2016-03-20T07:23:29Z</time>
      </trkpt>
      <trkpt lat="45.60227" lon="4.86395">
        <ele>272</ele>
        <time>2016-03-20T07:23:31Z</time>
      </trkpt>
      <trkpt lat="45.60225" lon="4.86393">
        <ele>272.6</ele>
        <time>2016-03-20T07:23:33Z</time>
      </trkpt>
      <trkpt lat="45.60223" lon="4.86391">
        <ele>273.2</ele>
        <time>2016-03-20T07:23:35Z</time>
      </trkpt>
      <trkpt lat="45.60221" lon="4.8639">
        <ele>273.7</ele>
        <time>2016-03-20T07:23:37Z</time>
      </trkpt>
      <trkpt lat="45.60218" lon="4.86389">
        <ele>274.4</ele>
        <time>2016-03-20T07:23:39Z</time>
      </trkpt>
      <trkpt lat="45.60216" lon="4.86388">
        <ele>275</ele>
        <time>2016-03-20T07:23:41Z</time>
      </trkpt>
      <trkpt lat="45.60214" lon="4.86388">
        <ele>275.5</ele>
        <time>2016-03-20T07:23:43Z</time>
      </trkpt>
      <trkpt lat="45.60211" lon="4.86386">
        <ele>276.1</ele>
        <time>2016-03-20T07:23:45Z</time>
      </trkpt>
      <trkpt lat="45.60209" lon="4.86385">
        <ele>276.6</ele>
        <time>2016-03-20T07:23:47Z</time>
      </trkpt>
      <trkpt lat="45.60206" lon="4.86384">
        <ele>277.1</ele>
        <time>2016-03-20T07:23:49Z</time>
      </trkpt>
      <trkpt lat="45.60203" lon="4.86383">
        <ele>277.7</ele>
        <time>2016-03-20T07:23:51Z</time>
      </trkpt>
      <trkpt lat="45.60201" lon="4.86382">
        <ele>278.4</ele>
        <time>2016-03-20T07:23:53Z</time>
      </trkpt>
      <trkpt lat="45.60197" lon="4.8638">
        <ele>279.1</ele>
        <time>2016-03-20T07:23:55Z</time>
      </trkpt>
      <trkpt lat="45.60194" lon="4.86379">
        <ele>279.6</ele>
        <time>2016-03-20T07:23:57Z</time>
      </trkpt>
      <trkpt lat="45.60189" lon="4.86378">
        <ele>280.2</ele>
        <time>2016-03-20T07:23:59Z</time>
      </trkpt>
      <trkpt lat="45.60185" lon="4.86377">
        <ele>281.1</ele>
        <time>2016-03-20T07:24:01Z</time>
      </trkpt>
      <trkpt lat="45.60181" lon="4.86377">
        <ele>281.9</ele>
        <time>2016-03-20T07:24:03Z</time>
      </trkpt>
      <trkpt lat="45.60177" lon="4.86377">
        <ele>282.4</ele>
        <time>2016-03-20T07:24:05Z</time>
      </trkpt>
      <trkpt lat="45.60173" lon="4.86377">
        <ele>282.9</ele>
        <time>2016-03-20T07:24:07Z</time>
      </trkpt>
      <trkpt lat="45.60169" lon="4.86378">
        <ele>283.3</ele>
        <time>2016-03-20T07:24:09Z</time>
      </trkpt>
      <trkpt lat="45.60165" lon="4.86379">
        <ele>283.7</ele>
        <time>2016-03-20T07:24:11Z</time>
      </trkpt>
      <trkpt lat="45.60161" lon="4.86381">
        <ele>284.2</ele>
        <time>2016-03-20T07:24:13Z</time>
      </trkpt>
      <trkpt lat="45.60158" lon="4.86383">
        <ele>284.6</ele>
        <time>2016-03-20T07:24:15Z</time>
      </trkpt>
      <trkpt lat="45.60154" lon="4.86385">
        <ele>285.1</ele>
        <time>2016-03-20T07:24:17Z</time>
      </trkpt>
      <trkpt lat="45.6015" lon="4.86387">
        <ele>285.6</ele>
        <time>2016-03-20T07:24:19Z</time>
      </trkpt>
      <trkpt lat="45.60146" lon="4.86389">
        <ele>285.9</ele>
        <time>2016-03-20T07:24:21Z</time>
      </trkpt>
      <trkpt lat="45.60143" lon="4.86391">
        <ele>286.4</ele>
        <time>2016-03-20T07:24:23Z</time>
      </trkpt>
      <trkpt lat="45.60139" lon="4.86394">
        <ele>287</ele>
        <time>2016-03-20T07:24:25Z</time>
      </trkpt>
      <trkpt lat="45.60136" lon="4.86397">
        <ele>287.6</ele>
        <time>2016-03-20T07:24:27Z</time>
      </trkpt>
      <trkpt lat="45.60132" lon="4.86399">
        <ele>288.2</ele>
        <time>2016-03-20T07:24:29Z</time>
      </trkpt>
      <trkpt lat="45.60129" lon="4.86401">
        <ele>288.7</ele>
        <time>2016-03-20T07:24:31Z</time>
      </trkpt>
      <trkpt lat="45.60125" lon="4.86402">
        <ele>289.6</ele>
        <time>2016-03-20T07:24:33Z</time>
      </trkpt>
      <trkpt lat="45.60122" lon="4.86405">
        <ele>290.5</ele>
        <time>2016-03-20T07:24:35Z</time>
      </trkpt>
      <trkpt lat="45.60119" lon="4.86407">
        <ele>291.1</ele>
        <time>2016-03-20T07:24:37Z</time>
      </trkpt>
      <trkpt lat="45.60115" lon="4.86408">
        <ele>291.7</ele>
        <time>2016-03-20T07:24:39Z</time>
      </trkpt>
      <trkpt lat="45.60112" lon="4.8641">
        <ele>292.1</ele>
        <time>2016-03-20T07:24:41Z</time>
      </trkpt>
      <trkpt lat="45.60108" lon="4.86412">
        <ele>292.4</ele>
        <time>2016-03-20T07:24:43Z</time>
      </trkpt>
      <trkpt lat="45.60105" lon="4.86414">
        <ele>292.7</ele>
        <time>2016-03-20T07:24:45Z</time>
      </trkpt>
      <trkpt lat="45.60101" lon="4.86416">
        <ele>293.3</ele>
        <time>2016-03-20T07:24:47Z</time>
      </trkpt>
      <trkpt lat="45.60098" lon="4.86418">
        <ele>293.7</ele>
        <time>2016-03-20T07:24:49Z</time>
      </trkpt>
      <trkpt lat="45.60095" lon="4.8642">
        <ele>294.2</ele>
        <time>2016-03-20T07:24:51Z</time>
      </trkpt>
      <trkpt lat="45.60092" lon="4.86422">
        <ele>294.5</ele>
        <time>2016-03-20T07:24:53Z</time>
      </trkpt>
      <trkpt lat="45.60088" lon="4.86424">
        <ele>294.9</ele>
        <time>2016-03-20T07:24:55Z</time>
      </trkpt>
      <trkpt lat="45.60086" lon="4.86427">
        <ele>295.2</ele>
        <time>2016-03-20T07:24:57Z</time>
      </trkpt>
      <trkpt lat="45.60082" lon="4.86429">
        <ele>295.6</ele>
        <time>2016-03-20T07:24:59Z</time>
      </trkpt>
      <trkpt lat="45.6008" lon="4.86431">
        <ele>296.2</ele>
        <time>2016-03-20T07:25:01Z</time>
      </trkpt>
      <trkpt lat="45.60077" lon="4.86434">
        <ele>296.8</ele>
        <time>2016-03-20T07:25:03Z</time>
      </trkpt>
      <trkpt lat="45.60075" lon="4.86438">
        <ele>297</ele>
        <time>2016-03-20T07:25:05Z</time>
      </trkpt>
      <trkpt lat="45.60074" lon="4.86442">
        <ele>297</ele>
        <time>2016-03-20T07:25:07Z</time>
      </trkpt>
      <trkpt lat="45.60074" lon="4.86447">
        <ele>297</ele>
        <time>2016-03-20T07:25:09Z</time>
      </trkpt>
      <trkpt lat="45.60073" lon="4.86451">
        <ele>297</ele>
        <time>2016-03-20T07:25:11Z</time>
      </trkpt>
      <trkpt lat="45.60072" lon="4.86456">
        <ele>297.2</ele>
        <time>2016-03-20T07:25:13Z</time>
      </trkpt>
      <trkpt lat="45.60072" lon="4.86461">
        <ele>297.5</ele>
        <time>2016-03-20T07:25:15Z</time>
      </trkpt>
      <trkpt lat="45.60072" lon="4.86467">
        <ele>297.6</ele>
        <time>2016-03-20T07:25:17Z</time>
      </trkpt>
      <trkpt lat="45.60072" lon="4.86473">
        <ele>297.6</ele>
        <time>2016-03-20T07:25:19Z</time>
      </trkpt>
      <trkpt lat="45.60072" lon="4.86479">
        <ele>297.6</ele>
        <time>2016-03-20T07:25:21Z</time>
      </trkpt>
      <trkpt lat="45.60071" lon="4.86485">
        <ele>297.6</ele>
        <time>2016-03-20T07:25:23Z</time>
      </trkpt>
      <trkpt lat="45.60071" lon="4.8649">
        <ele>297.5</ele>
        <time>2016-03-20T07:25:25Z</time>
      </trkpt>
      <trkpt lat="45.6007" lon="4.86496">
        <ele>297.5</ele>
        <time>2016-03-20T07:25:27Z</time>
      </trkpt>
      <trkpt lat="45.6007" lon="4.86502">
        <ele>297.4</ele>
        <time>2016-03-20T07:25:29Z</time>
      </trkpt>
      <trkpt lat="45.60069" lon="4.86508">
        <ele>297.3</ele>
        <time>2016-03-20T07:25:31Z</time>
      </trkpt>
      <trkpt lat="45.60069" lon="4.86515">
        <ele>297.1</ele>
        <time>2016-03-20T07:25:33Z</time>
      </trkpt>
      <trkpt lat="45.60068" lon="4.86522">
        <ele>297.2</ele>
        <time>2016-03-20T07:25:35Z</time>
      </trkpt>
      <trkpt lat="45.60067" lon="4.86529">
        <ele>297.2</ele>
        <time>2016-03-20T07:25:37Z</time>
      </trkpt>
      <trkpt lat="45.60067" lon="4.86535">
        <ele>297.1</ele>
        <time>2016-03-20T07:25:39Z</time>
      </trkpt>
      <trkpt lat="45.60067" lon="4.86542">
        <ele>297.2</ele>
        <time>2016-03-20T07:25:41Z</time>
      </trkpt>
      <trkpt lat="45.60066" lon="4.86549">
        <ele>297.3</ele>
        <time>2016-03-20T07:25:43Z</time>
      </trkpt>
      <trkpt lat="45.60066" lon="4.86555">
        <ele>297.7</ele>
        <time>2016-03-20T07:25:45Z</time>
      </trkpt>
      <trkpt lat="45.60065" lon="4.86563">
        <ele>298.3</ele>
        <time>2016-03-20T07:25:47Z</time>
      </trkpt>
      <trkpt lat="45.60064" lon="4.86571">
        <ele>298.6</ele>
        <time>2016-03-20T07:25:49Z</time>
      </trkpt>
      <trkpt lat="45.60063" lon="4.86579">
        <ele>298.9</ele>
        <time>2016-03-20T07:25:51Z</time>
      </trkpt>
      <trkpt lat="45.60063" lon="4.86589">
        <ele>299.3</ele>
        <time>2016-03-20T07:25:53Z</time>
      </trkpt>
      <trkpt lat="45.60063" lon="4.86597">
        <ele>299.4</ele>
        <time>2016-03-20T07:25:55Z</time>
      </trkpt>
      <trkpt lat="45.60064" lon="4.86606">
        <ele>299.7</ele>
        <time>2016-03-20T07:25:57Z</time>
      </trkpt>
      <trkpt lat="45.60063" lon="4.86614">
        <ele>300.1</ele>
        <time>2016-03-20T07:25:59Z</time>
      </trkpt>
      <trkpt lat="45.60062" lon="4.86624">
        <ele>300.3</ele>
        <time>2016-03-20T07:26:01Z</time>
      </trkpt>
      <trkpt lat="45.60062" lon="4.86636">
        <ele>300.5</ele>
        <time>2016-03-20T07:26:03Z</time>
      </trkpt>
      <trkpt lat="45.60062" lon="4.86649">
        <ele>299.8</ele>
        <time>2016-03-20T07:26:05Z</time>
      </trkpt>
      <trkpt lat="45.60061" lon="4.86663">
        <ele>299.6</ele>
        <time>2016-03-20T07:26:07Z</time>
      </trkpt>
      <trkpt lat="45.60059" lon="4.86675">
        <ele>299.4</ele>
        <time>2016-03-20T07:26:09Z</time>
      </trkpt>
      <trkpt lat="45.60055" lon="4.86684">
        <ele>299.6</ele>
        <time>2016-03-20T07:26:11Z</time>
      </trkpt>
      <trkpt lat="45.60051" lon="4.86694">
        <ele>299.6</ele>
        <time>2016-03-20T07:26:13Z</time>
      </trkpt>
      <trkpt lat="45.60047" lon="4.86704">
        <ele>300.4</ele>
        <time>2016-03-20T07:26:15Z</time>
      </trkpt>
      <trkpt lat="45.60043" lon="4.86714">
        <ele>301.6</ele>
        <time>2016-03-20T07:26:17Z</time>
      </trkpt>
      <trkpt lat="45.60041" lon="4.8672">
        <ele>302</ele>
        <time>2016-03-20T07:26:19Z</time>
      </trkpt>
      <trkpt lat="45.60038" lon="4.86724">
        <ele>302.4</ele>
        <time>2016-03-20T07:26:21Z</time>
      </trkpt>
      <trkpt lat="45.60035" lon="4.86727">
        <ele>302.7</ele>
        <time>2016-03-20T07:26:23Z</time>
      </trkpt>
      <trkpt lat="45.60032" lon="4.86729">
        <ele>303.1</ele>
        <time>2016-03-20T07:26:25Z</time>
      </trkpt>
      <trkpt lat="45.60031" lon="4.86733">
        <ele>303.6</ele>
        <time>2016-03-20T07:26:27Z</time>
      </trkpt>
      <trkpt lat="45.6003" lon="4.86738">
        <ele>304.2</ele>
        <time>2016-03-20T07:26:29Z</time>
      </trkpt>
      <trkpt lat="45.6003" lon="4.86746">
        <ele>304.2</ele>
        <time>2016-03-20T07:26:31Z</time>
      </trkpt>
      <trkpt lat="45.60027" lon="4.86753">
        <ele>304.3</ele>
        <time>2016-03-20T07:26:33Z</time>
      </trkpt>
      <trkpt lat="45.60026" lon="4.8676">
        <ele>304.4</ele>
        <time>2016-03-20T07:26:35Z</time>
      </trkpt>
      <trkpt lat="45.60028" lon="4.86767">
        <ele>304.1</ele>
        <time>2016-03-20T07:26:37Z</time>
      </trkpt>
      <trkpt lat="45.6003" lon="4.86774">
        <ele>303.5</ele>
        <time>2016-03-20T07:26:39Z</time>
      </trkpt>
      <trkpt lat="45.60033" lon="4.86782">
        <ele>302.5</ele>
        <time>2016-03-20T07:26:41Z</time>
      </trkpt>
      <trkpt lat="45.60033" lon="4.8679">
        <ele>301.7</ele>
        <time>2016-03-20T07:26:43Z</time>
      </trkpt>
      <trkpt lat="45.60033" lon="4.86797">
        <ele>301</ele>
        <time>2016-03-20T07:26:45Z</time>
      </trkpt>
      <trkpt lat="45.60034" lon="4.86805">
        <ele>300</ele>
        <time>2016-03-20T07:26:47Z</time>
      </trkpt>
      <trkpt lat="45.60035" lon="4.86815">
        <ele>299.3</ele>
        <time>2016-03-20T07:26:49Z</time>
      </trkpt>
      <trkpt lat="45.60035" lon="4.86824">
        <ele>299.4</ele>
        <time>2016-03-20T07:26:51Z</time>
      </trkpt>
      <trkpt lat="45.60036" lon="4.86834">
        <ele>299.4</ele>
        <time>2016-03-20T07:26:53Z</time>
      </trkpt>
      <trkpt lat="45.60041" lon="4.86841">
        <ele>298.5</ele>
        <time>2016-03-20T07:26:55Z</time>
      </trkpt>
      <trkpt lat="45.60048" lon="4.86842">
        <ele>298.2</ele>
        <time>2016-03-20T07:26:57Z</time>
      </trkpt>
      <trkpt lat="45.60056" lon="4.86846">
        <ele>297.3</ele>
        <time>2016-03-20T07:26:59Z</time>
      </trkpt>
      <trkpt lat="45.60059" lon="4.86861">
        <ele>295</ele>
        <time>2016-03-20T07:27:01Z</time>
      </trkpt>
      <trkpt lat="45.60062" lon="4.86877">
        <ele>291.7</ele>
        <time>2016-03-20T07:27:03Z</time>
      </trkpt>
      <trkpt lat="45.60067" lon="4.8689">
        <ele>288.1</ele>
        <time>2016-03-20T07:27:05Z</time>
      </trkpt>
      <trkpt lat="45.60076" lon="4.86904">
        <ele>283.9</ele>
        <time>2016-03-20T07:27:07Z</time>
      </trkpt>
      <trkpt lat="45.60084" lon="4.86921">
        <ele>279.9</ele>
        <time>2016-03-20T07:27:09Z</time>
      </trkpt>
      <trkpt lat="45.6009" lon="4.86936">
        <ele>279</ele>
        <time>2016-03-20T07:27:11Z</time>
      </trkpt>
      <trkpt lat="45.60091" lon="4.86947">
        <ele>279.4</ele>
        <time>2016-03-20T07:27:13Z</time>
      </trkpt>
      <trkpt lat="45.60093" lon="4.86956">
        <ele>280.3</ele>
        <time>2016-03-20T07:27:15Z</time>
      </trkpt>
      <trkpt lat="45.60095" lon="4.86964">
        <ele>281.1</ele>
        <time>2016-03-20T07:27:17Z</time>
      </trkpt>
      <trkpt lat="45.60097" lon="4.86972">
        <ele>281.6</ele>
        <time>2016-03-20T07:27:19Z</time>
      </trkpt>
      <trkpt lat="45.60098" lon="4.8698">
        <ele>282.4</ele>
        <time>2016-03-20T07:27:21Z</time>
      </trkpt>
      <trkpt lat="45.60099" lon="4.86987">
        <ele>283.1</ele>
        <time>2016-03-20T07:27:23Z</time>
      </trkpt>
      <trkpt lat="45.601" lon="4.86993">
        <ele>283.5</ele>
        <time>2016-03-20T07:27:25Z</time>
      </trkpt>
      <trkpt lat="45.60102" lon="4.87">
        <ele>283.9</ele>
        <time>2016-03-20T07:27:27Z</time>
      </trkpt>
      <trkpt lat="45.60103" lon="4.87008">
        <ele>284.4</ele>
        <time>2016-03-20T07:27:29Z</time>
      </trkpt>
      <trkpt lat="45.60103" lon="4.87015">
        <ele>284.8</ele>
        <time>2016-03-20T07:27:31Z</time>
      </trkpt>
      <trkpt lat="45.60103" lon="4.87022">
        <ele>285</ele>
        <time>2016-03-20T07:27:33Z</time>
      </trkpt>
      <trkpt lat="45.60103" lon="4.87027">
        <ele>285</ele>
        <time>2016-03-20T07:27:35Z</time>
      </trkpt>
      <trkpt lat="45.60102" lon="4.87032">
        <ele>285</ele>
        <time>2016-03-20T07:27:37Z</time>
      </trkpt>
      <trkpt lat="45.60101" lon="4.87035">
        <ele>285</ele>
        <time>2016-03-20T07:27:39Z</time>
      </trkpt>
      <trkpt lat="45.60099" lon="4.87038">
        <ele>285</ele>
        <time>2016-03-20T07:27:41Z</time>
      </trkpt>
      <trkpt lat="45.60098" lon="4.87042">
        <ele>284.8</ele>
        <time>2016-03-20T07:27:43Z</time>
      </trkpt>
      <trkpt lat="45.60099" lon="4.87046">
        <ele>284.6</ele>
        <time>2016-03-20T07:27:45Z</time>
      </trkpt>
      <trkpt lat="45.60099" lon="4.87051">
        <ele>284.3</ele>
        <time>2016-03-20T07:27:47Z</time>
      </trkpt>
      <trkpt lat="45.60099" lon="4.87057">
        <ele>284</ele>
        <time>2016-03-20T07:27:49Z</time>
      </trkpt>
      <trkpt lat="45.60099" lon="4.87064">
        <ele>284</ele>
        <time>2016-03-20T07:27:51Z</time>
      </trkpt>
      <trkpt lat="45.60101" lon="4.87073">
        <ele>284.6</ele>
        <time>2016-03-20T07:27:53Z</time>
      </trkpt>
      <trkpt lat="45.60102" lon="4.87081">
        <ele>285.2</ele>
        <time>2016-03-20T07:27:55Z</time>
      </trkpt>
      <trkpt lat="45.60104" lon="4.87089">
        <ele>286.1</ele>
        <time>2016-03-20T07:27:57Z</time>
      </trkpt>
      <trkpt lat="45.60107" lon="4.87098">
        <ele>287.5</ele>
        <time>2016-03-20T07:27:59Z</time>
      </trkpt>
      <trkpt lat="45.6011" lon="4.87105">
        <ele>287.6</ele>
        <time>2016-03-20T07:28:01Z</time>
      </trkpt>
      <trkpt lat="45.60114" lon="4.87113">
        <ele>287.1</ele>
        <time>2016-03-20T07:28:03Z</time>
      </trkpt>
      <trkpt lat="45.60119" lon="4.8712">
        <ele>286.8</ele>
        <time>2016-03-20T07:28:05Z</time>
      </trkpt>
      <trkpt lat="45.60123" lon="4.87128">
        <ele>286.5</ele>
        <time>2016-03-20T07:28:07Z</time>
      </trkpt>
      <trkpt lat="45.60127" lon="4.87138">
        <ele>286</ele>
        <time>2016-03-20T07:28:09Z</time>
      </trkpt>
      <trkpt lat="45.60131" lon="4.87148">
        <ele>287.1</ele>
        <time>2016-03-20T07:28:11Z</time>
      </trkpt>
      <trkpt lat="45.60135" lon="4.87158">
        <ele>288.4</ele>
        <time>2016-03-20T07:28:13Z</time>
      </trkpt>
      <trkpt lat="45.60138" lon="4.87167">
        <ele>289.9</ele>
        <time>2016-03-20T07:28:15Z</time>
      </trkpt>
      <trkpt lat="45.6014" lon="4.87177">
        <ele>291.6</ele>
        <time>2016-03-20T07:28:17Z</time>
      </trkpt>
      <trkpt lat="45.60141" lon="4.87188">
        <ele>292.9</ele>
        <time>2016-03-20T07:28:19Z</time>
      </trkpt>
      <trkpt lat="45.60141" lon="4.87196">
        <ele>294.3</ele>
        <time>2016-03-20T07:28:21Z</time>
      </trkpt>
      <trkpt lat="45.60141" lon="4.87204">
        <ele>295.9</ele>
        <time>2016-03-20T07:28:23Z</time>
      </trkpt>
      <trkpt lat="45.60141" lon="4.87212">
        <ele>296.7</ele>
        <time>2016-03-20T07:28:25Z</time>
      </trkpt>
      <trkpt lat="45.60141" lon="4.8722">
        <ele>298.2</ele>
        <time>2016-03-20T07:28:27Z</time>
      </trkpt>
      <trkpt lat="45.60141" lon="4.87227">
        <ele>299.3</ele>
        <time>2016-03-20T07:28:29Z</time>
      </trkpt>
      <trkpt lat="45.60142" lon="4.87234">
        <ele>300</ele>
        <time>2016-03-20T07:28:31Z</time>
      </trkpt>
      <trkpt lat="45.60143" lon="4.87241">
        <ele>300.5</ele>
        <time>2016-03-20T07:28:33Z</time>
      </trkpt>
      <trkpt lat="45.60143" lon="4.87248">
        <ele>300.9</ele>
        <time>2016-03-20T07:28:35Z</time>
      </trkpt>
      <trkpt lat="45.60143" lon="4.87255">
        <ele>301.7</ele>
        <time>2016-03-20T07:28:37Z</time>
      </trkpt>
      <trkpt lat="45.60143" lon="4.87261">
        <ele>302.5</ele>
        <time>2016-03-20T07:28:39Z</time>
      </trkpt>
      <trkpt lat="45.60144" lon="4.87267">
        <ele>303.4</ele>
        <time>2016-03-20T07:28:41Z</time>
      </trkpt>
      <trkpt lat="45.60144" lon="4.87273">
        <ele>304.3</ele>
        <time>2016-03-20T07:28:43Z</time>
      </trkpt>
      <trkpt lat="45.60145" lon="4.8728">
        <ele>305.3</ele>
        <time>2016-03-20T07:28:45Z</time>
      </trkpt>
      <trkpt lat="45.60144" lon="4.87286">
        <ele>306.3</ele>
        <time>2016-03-20T07:28:47Z</time>
      </trkpt>
      <trkpt lat="45.60143" lon="4.87293">
        <ele>307.3</ele>
        <time>2016-03-20T07:28:49Z</time>
      </trkpt>
      <trkpt lat="45.60141" lon="4.87299">
        <ele>308.1</ele>
        <time>2016-03-20T07:28:51Z</time>
      </trkpt>
      <trkpt lat="45.6014" lon="4.87305">
        <ele>308.8</ele>
        <time>2016-03-20T07:28:53Z</time>
      </trkpt>
      <trkpt lat="45.60138" lon="4.87311">
        <ele>309.5</ele>
        <time>2016-03-20T07:28:55Z</time>
      </trkpt>
      <trkpt lat="45.60137" lon="4.87317">
        <ele>310.2</ele>
        <time>2016-03-20T07:28:57Z</time>
      </trkpt>
      <trkpt lat="45.60136" lon="4.87322">
        <ele>310.4</ele>
        <time>2016-03-20T07:28:59Z</time>
      </trkpt>
      <trkpt lat="45.60135" lon="4.87325">
        <ele>310.4</ele>
        <time>2016-03-20T07:29:01Z</time>
      </trkpt>
      <trkpt lat="45.60136" lon="4.8733">
        <ele>310.5</ele>
        <time>2016-03-20T07:29:03Z</time>
      </trkpt>
      <trkpt lat="45.60135" lon="4.87337">
        <ele>310.9</ele>
        <time>2016-03-20T07:29:05Z</time>
      </trkpt>
      <trkpt lat="45.60134" lon="4.87341">
        <ele>311.2</ele>
        <time>2016-03-20T07:29:07Z</time>
      </trkpt>
      <trkpt lat="45.60133" lon="4.87348">
        <ele>311.5</ele>
        <time>2016-03-20T07:29:09Z</time>
      </trkpt>
      <trkpt lat="45.60133" lon="4.87354">
        <ele>311.7</ele>
        <time>2016-03-20T07:29:11Z</time>
      </trkpt>
      <trkpt lat="45.60132" lon="4.8736">
        <ele>312.1</ele>
        <time>2016-03-20T07:29:13Z</time>
      </trkpt>
      <trkpt lat="45.60131" lon="4.87365">
        <ele>312.4</ele>
        <time>2016-03-20T07:29:15Z</time>
      </trkpt>
      <trkpt lat="45.60129" lon="4.8737">
        <ele>313</ele>
        <time>2016-03-20T07:29:17Z</time>
      </trkpt>
      <trkpt lat="45.60128" lon="4.87375">
        <ele>313.7</ele>
        <time>2016-03-20T07:29:19Z</time>
      </trkpt>
      <trkpt lat="45.60128" lon="4.87379">
        <ele>314.1</ele>
        <time>2016-03-20T07:29:21Z</time>
      </trkpt>
      <trkpt lat="45.60127" lon="4.87385">
        <ele>314.8</ele>
        <time>2016-03-20T07:29:23Z</time>
      </trkpt>
      <trkpt lat="45.60126" lon="4.87391">
        <ele>315.5</ele>
        <time>2016-03-20T07:29:25Z</time>
      </trkpt>
      <trkpt lat="45.60125" lon="4.87398">
        <ele>315.6</ele>
        <time>2016-03-20T07:29:27Z</time>
      </trkpt>
      <trkpt lat="45.60123" lon="4.87404">
        <ele>315.7</ele>
        <time>2016-03-20T07:29:29Z</time>
      </trkpt>
      <trkpt lat="45.60122" lon="4.8741">
        <ele>316.2</ele>
        <time>2016-03-20T07:29:31Z</time>
      </trkpt>
      <trkpt lat="45.60121" lon="4.87417">
        <ele>316.8</ele>
        <time>2016-03-20T07:29:33Z</time>
      </trkpt>
      <trkpt lat="45.60121" lon="4.87424">
        <ele>317.2</ele>
        <time>2016-03-20T07:29:35Z</time>
      </trkpt>
      <trkpt lat="45.6012" lon="4.87428">
        <ele>317.5</ele>
        <time>2016-03-20T07:29:37Z</time>
      </trkpt>
      <trkpt lat="45.60119" lon="4.87433">
        <ele>318.1</ele>
        <time>2016-03-20T07:29:39Z</time>
      </trkpt>
      <trkpt lat="45.60118" lon="4.87436">
        <ele>318.5</ele>
        <time>2016-03-20T07:29:41Z</time>
      </trkpt>
      <trkpt lat="45.60117" lon="4.87439">
        <ele>318.8</ele>
        <time>2016-03-20T07:29:43Z</time>
      </trkpt>
      <trkpt lat="45.60114" lon="4.87443">
        <ele>319.7</ele>
        <time>2016-03-20T07:29:45Z</time>
      </trkpt>
      <trkpt lat="45.60111" lon="4.87447">
        <ele>320.6</ele>
        <time>2016-03-20T07:29:47Z</time>
      </trkpt>
      <trkpt lat="45.60109" lon="4.87449">
        <ele>321.4</ele>
        <time>2016-03-20T07:29:49Z</time>
      </trkpt>
      <trkpt lat="45.60107" lon="4.87451">
        <ele>322</ele>
        <time>2016-03-20T07:29:51Z</time>
      </trkpt>
      <trkpt lat="45.60105" lon="4.87453">
        <ele>322.6</ele>
        <time>2016-03-20T07:29:53Z</time>
      </trkpt>
      <trkpt lat="45.60104" lon="4.87455">
        <ele>323.1</ele>
        <time>2016-03-20T07:29:55Z</time>
      </trkpt>
      <trkpt lat="45.60103" lon="4.87457">
        <ele>323.3</ele>
        <time>2016-03-20T07:29:57Z</time>
      </trkpt>
      <trkpt lat="45.60101" lon="4.87459">
        <ele>323.7</ele>
        <time>2016-03-20T07:29:59Z</time>
      </trkpt>
      <trkpt lat="45.60099" lon="4.8746">
        <ele>324.1</ele>
        <time>2016-03-20T07:30:01Z</time>
      </trkpt>
      <trkpt lat="45.60096" lon="4.87461">
        <ele>324.5</ele>
        <time>2016-03-20T07:30:03Z</time>
      </trkpt>
      <trkpt lat="45.60093" lon="4.87464">
        <ele>325.7</ele>
        <time>2016-03-20T07:30:07Z</time>
      </trkpt>
      <trkpt lat="45.60091" lon="4.87465">
        <ele>326.3</ele>
        <time>2016-03-20T07:30:09Z</time>
      </trkpt>
      <trkpt lat="45.60088" lon="4.87466">
        <ele>327.1</ele>
        <time>2016-03-20T07:30:13Z</time>
      </trkpt>
      <trkpt lat="45.60086" lon="4.87466">
        <ele>327.4</ele>
        <time>2016-03-20T07:30:15Z</time>
      </trkpt>
      <trkpt lat="45.60083" lon="4.87467">
        <ele>327.9</ele>
        <time>2016-03-20T07:30:19Z</time>
      </trkpt>
      <trkpt lat="45.60081" lon="4.87468">
        <ele>328.3</ele>
        <time>2016-03-20T07:30:21Z</time>
      </trkpt>
      <trkpt lat="45.60079" lon="4.8747">
        <ele>328.6</ele>
        <time>2016-03-20T07:30:23Z</time>
      </trkpt>
      <trkpt lat="45.60077" lon="4.87472">
        <ele>328.7</ele>
        <time>2016-03-20T07:30:27Z</time>
      </trkpt>
      <trkpt lat="45.60076" lon="4.87476">
        <ele>328.9</ele>
        <time>2016-03-20T07:30:29Z</time>
      </trkpt>
      <trkpt lat="45.60074" lon="4.87481">
        <ele>328.9</ele>
        <time>2016-03-20T07:30:31Z</time>
      </trkpt>
      <trkpt lat="45.60072" lon="4.87485">
        <ele>329</ele>
        <time>2016-03-20T07:30:33Z</time>
      </trkpt>
      <trkpt lat="45.6007" lon="4.87487">
        <ele>329</ele>
        <time>2016-03-20T07:30:35Z</time>
      </trkpt>
      <trkpt lat="45.60069" lon="4.87489">
        <ele>329</ele>
        <time>2016-03-20T07:30:37Z</time>
      </trkpt>
      <trkpt lat="45.60068" lon="4.87493">
        <ele>328.9</ele>
        <time>2016-03-20T07:30:39Z</time>
      </trkpt>
      <trkpt lat="45.60066" lon="4.87497">
        <ele>328.8</ele>
        <time>2016-03-20T07:30:41Z</time>
      </trkpt>
      <trkpt lat="45.60064" lon="4.875">
        <ele>328.6</ele>
        <time>2016-03-20T07:30:43Z</time>
      </trkpt>
      <trkpt lat="45.60062" lon="4.87503">
        <ele>328.2</ele>
        <time>2016-03-20T07:30:45Z</time>
      </trkpt>
      <trkpt lat="45.6006" lon="4.87507">
        <ele>328</ele>
        <time>2016-03-20T07:30:47Z</time>
      </trkpt>
      <trkpt lat="45.6006" lon="4.87511">
        <ele>328</ele>
        <time>2016-03-20T07:30:49Z</time>
      </trkpt>
      <trkpt lat="45.6006" lon="4.87515">
        <ele>328</ele>
        <time>2016-03-20T07:30:51Z</time>
      </trkpt>
      <trkpt lat="45.60057" lon="4.87524">
        <ele>327.7</ele>
        <time>2016-03-20T07:31:09Z</time>
      </trkpt>
      <trkpt lat="45.60053" lon="4.8753">
        <ele>327.6</ele>
        <time>2016-03-20T07:31:11Z</time>
      </trkpt>
      <trkpt lat="45.60048" lon="4.87534">
        <ele>327.6</ele>
        <time>2016-03-20T07:31:13Z</time>
      </trkpt>
      <trkpt lat="45.60046" lon="4.87538">
        <ele>327.7</ele>
        <time>2016-03-20T07:31:15Z</time>
      </trkpt>
      <trkpt lat="45.60049" lon="4.87544">
        <ele>328.3</ele>
        <time>2016-03-20T07:31:17Z</time>
      </trkpt>
      <trkpt lat="45.60052" lon="4.87547">
        <ele>328.8</ele>
        <time>2016-03-20T07:31:19Z</time>
      </trkpt>
      <trkpt lat="45.60056" lon="4.8755">
        <ele>329.4</ele>
        <time>2016-03-20T07:31:21Z</time>
      </trkpt>
      <trkpt lat="45.60062" lon="4.87551">
        <ele>329.7</ele>
        <time>2016-03-20T07:31:23Z</time>
      </trkpt>
      <trkpt lat="45.6007" lon="4.87554">
        <ele>329.3</ele>
        <time>2016-03-20T07:31:25Z</time>
      </trkpt>
      <trkpt lat="45.60077" lon="4.87556">
        <ele>328.2</ele>
        <time>2016-03-20T07:31:27Z</time>
      </trkpt>
      <trkpt lat="45.60083" lon="4.8756">
        <ele>327.5</ele>
        <time>2016-03-20T07:31:29Z</time>
      </trkpt>
      <trkpt lat="45.60088" lon="4.87561">
        <ele>326.8</ele>
        <time>2016-03-20T07:31:31Z</time>
      </trkpt>
      <trkpt lat="45.60094" lon="4.87563">
        <ele>326.1</ele>
        <time>2016-03-20T07:31:33Z</time>
      </trkpt>
      <trkpt lat="45.60098" lon="4.87566">
        <ele>325.5</ele>
        <time>2016-03-20T07:31:35Z</time>
      </trkpt>
      <trkpt lat="45.60103" lon="4.87567">
        <ele>325</ele>
        <time>2016-03-20T07:31:37Z</time>
      </trkpt>
      <trkpt lat="45.60107" lon="4.87568">
        <ele>324.7</ele>
        <time>2016-03-20T07:31:39Z</time>
      </trkpt>
      <trkpt lat="45.60112" lon="4.87568">
        <ele>324.4</ele>
        <time>2016-03-20T07:31:41Z</time>
      </trkpt>
      <trkpt lat="45.60116" lon="4.87568">
        <ele>324.2</ele>
        <time>2016-03-20T07:31:43Z</time>
      </trkpt>
      <trkpt lat="45.60122" lon="4.87567">
        <ele>323.9</ele>
        <time>2016-03-20T07:31:45Z</time>
      </trkpt>
      <trkpt lat="45.60129" lon="4.87566">
        <ele>323.6</ele>
        <time>2016-03-20T07:31:47Z</time>
      </trkpt>
      <trkpt lat="45.60138" lon="4.87566">
        <ele>323.2</ele>
        <time>2016-03-20T07:31:49Z</time>
      </trkpt>
      <trkpt lat="45.60148" lon="4.87567">
        <ele>322.1</ele>
        <time>2016-03-20T07:31:51Z</time>
      </trkpt>
      <trkpt lat="45.60157" lon="4.87575">
        <ele>320.7</ele>
        <time>2016-03-20T07:31:53Z</time>
      </trkpt>
      <trkpt lat="45.60161" lon="4.87585">
        <ele>319.2</ele>
        <time>2016-03-20T07:31:55Z</time>
      </trkpt>
      <trkpt lat="45.60162" lon="4.87596">
        <ele>319.2</ele>
        <time>2016-03-20T07:31:57Z</time>
      </trkpt>
      <trkpt lat="45.60162" lon="4.87605">
        <ele>318.3</ele>
        <time>2016-03-20T07:31:59Z</time>
      </trkpt>
      <trkpt lat="45.60162" lon="4.87612">
        <ele>318.5</ele>
        <time>2016-03-20T07:32:01Z</time>
      </trkpt>
      <trkpt lat="45.60162" lon="4.87619">
        <ele>318.9</ele>
        <time>2016-03-20T07:32:03Z</time>
      </trkpt>
      <trkpt lat="45.60162" lon="4.87625">
        <ele>319.3</ele>
        <time>2016-03-20T07:32:05Z</time>
      </trkpt>
      <trkpt lat="45.60162" lon="4.87633">
        <ele>319.8</ele>
        <time>2016-03-20T07:32:07Z</time>
      </trkpt>
      <trkpt lat="45.60161" lon="4.8764">
        <ele>320.2</ele>
        <time>2016-03-20T07:32:09Z</time>
      </trkpt>
      <trkpt lat="45.60158" lon="4.87647">
        <ele>320.7</ele>
        <time>2016-03-20T07:32:11Z</time>
      </trkpt>
      <trkpt lat="45.60156" lon="4.87656">
        <ele>320.6</ele>
        <time>2016-03-20T07:32:14Z</time>
      </trkpt>
      <trkpt lat="45.60156" lon="4.87662">
        <ele>320.3</ele>
        <time>2016-03-20T07:32:16Z</time>
      </trkpt>
      <trkpt lat="45.60155" lon="4.87668">
        <ele>319.8</ele>
        <time>2016-03-20T07:32:18Z</time>
      </trkpt>
      <trkpt lat="45.60154" lon="4.87673">
        <ele>319.4</ele>
        <time>2016-03-20T07:32:20Z</time>
      </trkpt>
      <trkpt lat="45.60151" lon="4.87687">
        <ele>317.3</ele>
        <time>2016-03-20T07:32:38Z</time>
      </trkpt>
      <trkpt lat="45.6015" lon="4.87696">
        <ele>316</ele>
        <time>2016-03-20T07:32:40Z</time>
      </trkpt>
      <trkpt lat="45.60151" lon="4.87712">
        <ele>314.3</ele>
        <time>2016-03-20T07:32:42Z</time>
      </trkpt>
      <trkpt lat="45.60153" lon="4.87731">
        <ele>312.6</ele>
        <time>2016-03-20T07:32:44Z</time>
      </trkpt>
      <trkpt lat="45.60157" lon="4.87745">
        <ele>311.1</ele>
        <time>2016-03-20T07:32:46Z</time>
      </trkpt>
      <trkpt lat="45.60163" lon="4.87754">
        <ele>310</ele>
        <time>2016-03-20T07:32:48Z</time>
      </trkpt>
      <trkpt lat="45.6017" lon="4.87757">
        <ele>309.5</ele>
        <time>2016-03-20T07:32:50Z</time>
      </trkpt>
      <trkpt lat="45.60177" lon="4.87756">
        <ele>309.2</ele>
        <time>2016-03-20T07:32:52Z</time>
      </trkpt>
      <trkpt lat="45.60182" lon="4.87754">
        <ele>308.8</ele>
        <time>2016-03-20T07:32:54Z</time>
      </trkpt>
      <trkpt lat="45.60188" lon="4.87748">
        <ele>308.1</ele>
        <time>2016-03-20T07:32:56Z</time>
      </trkpt>
      <trkpt lat="45.60193" lon="4.87743">
        <ele>307.4</ele>
        <time>2016-03-20T07:32:58Z</time>
      </trkpt>
      <trkpt lat="45.60198" lon="4.87738">
        <ele>306.8</ele>
        <time>2016-03-20T07:33:00Z</time>
      </trkpt>
      <trkpt lat="45.60204" lon="4.87733">
        <ele>305.7</ele>
        <time>2016-03-20T07:33:02Z</time>
      </trkpt>
      <trkpt lat="45.60209" lon="4.87725">
        <ele>305.1</ele>
        <time>2016-03-20T07:33:04Z</time>
      </trkpt>
      <trkpt lat="45.60215" lon="4.87719">
        <ele>304.5</ele>
        <time>2016-03-20T07:33:06Z</time>
      </trkpt>
      <trkpt lat="45.6022" lon="4.87711">
        <ele>303.7</ele>
        <time>2016-03-20T07:33:08Z</time>
      </trkpt>
      <trkpt lat="45.60225" lon="4.87705">
        <ele>303.2</ele>
        <time>2016-03-20T07:33:10Z</time>
      </trkpt>
      <trkpt lat="45.60229" lon="4.87698">
        <ele>302.6</ele>
        <time>2016-03-20T07:33:12Z</time>
      </trkpt>
      <trkpt lat="45.60233" lon="4.87694">
        <ele>302.9</ele>
        <time>2016-03-20T07:33:14Z</time>
      </trkpt>
      <trkpt lat="45.60237" lon="4.87691">
        <ele>303.3</ele>
        <time>2016-03-20T07:33:16Z</time>
      </trkpt>
      <trkpt lat="45.60241" lon="4.87686">
        <ele>303.6</ele>
        <time>2016-03-20T07:33:18Z</time>
      </trkpt>
      <trkpt lat="45.60244" lon="4.87682">
        <ele>304.1</ele>
        <time>2016-03-20T07:33:20Z</time>
      </trkpt>
      <trkpt lat="45.60247" lon="4.87678">
        <ele>304.5</ele>
        <time>2016-03-20T07:33:22Z</time>
      </trkpt>
      <trkpt lat="45.60249" lon="4.87674">
        <ele>304.8</ele>
        <time>2016-03-20T07:33:24Z</time>
      </trkpt>
      <trkpt lat="45.60251" lon="4.87672">
        <ele>305</ele>
        <time>2016-03-20T07:33:26Z</time>
      </trkpt>
      <trkpt lat="45.60255" lon="4.87669">
        <ele>305.3</ele>
        <time>2016-03-20T07:33:28Z</time>
      </trkpt>
      <trkpt lat="45.60259" lon="4.87667">
        <ele>305.5</ele>
        <time>2016-03-20T07:33:30Z</time>
      </trkpt>
      <trkpt lat="45.60262" lon="4.87664">
        <ele>305.7</ele>
        <time>2016-03-20T07:33:32Z</time>
      </trkpt>
      <trkpt lat="45.60265" lon="4.87663">
        <ele>305.7</ele>
        <time>2016-03-20T07:33:34Z</time>
      </trkpt>
      <trkpt lat="45.60269" lon="4.87662">
        <ele>305.8</ele>
        <time>2016-03-20T07:33:36Z</time>
      </trkpt>
      <trkpt lat="45.60272" lon="4.87661">
        <ele>305.7</ele>
        <time>2016-03-20T07:33:38Z</time>
      </trkpt>
      <trkpt lat="45.60276" lon="4.87662">
        <ele>305.7</ele>
        <time>2016-03-20T07:33:40Z</time>
      </trkpt>
      <trkpt lat="45.60279" lon="4.87663">
        <ele>305.6</ele>
        <time>2016-03-20T07:33:42Z</time>
      </trkpt>
      <trkpt lat="45.60282" lon="4.87667">
        <ele>305.3</ele>
        <time>2016-03-20T07:33:44Z</time>
      </trkpt>
      <trkpt lat="45.60284" lon="4.8767">
        <ele>307.7</ele>
        <time>2016-03-20T07:33:46Z</time>
      </trkpt>
      <trkpt lat="45.60283" lon="4.87674">
        <ele>308.2</ele>
        <time>2016-03-20T07:33:48Z</time>
      </trkpt>
      <trkpt lat="45.60283" lon="4.87678">
        <ele>308.7</ele>
        <time>2016-03-20T07:33:50Z</time>
      </trkpt>
      <trkpt lat="45.60282" lon="4.87682">
        <ele>309.3</ele>
        <time>2016-03-20T07:33:52Z</time>
      </trkpt>
      <trkpt lat="45.60283" lon="4.87686">
        <ele>309.9</ele>
        <time>2016-03-20T07:33:54Z</time>
      </trkpt>
      <trkpt lat="45.60282" lon="4.87689">
        <ele>310.1</ele>
        <time>2016-03-20T07:33:56Z</time>
      </trkpt>
      <trkpt lat="45.60282" lon="4.87693">
        <ele>310.3</ele>
        <time>2016-03-20T07:33:58Z</time>
      </trkpt>
      <trkpt lat="45.60281" lon="4.87697">
        <ele>310.5</ele>
        <time>2016-03-20T07:34:00Z</time>
      </trkpt>
      <trkpt lat="45.60281" lon="4.87702">
        <ele>310.7</ele>
        <time>2016-03-20T07:34:02Z</time>
      </trkpt>
      <trkpt lat="45.6028" lon="4.87706">
        <ele>311.1</ele>
        <time>2016-03-20T07:34:04Z</time>
      </trkpt>
      <trkpt lat="45.60279" lon="4.87711">
        <ele>311.5</ele>
        <time>2016-03-20T07:34:06Z</time>
      </trkpt>
      <trkpt lat="45.60278" lon="4.87715">
        <ele>311.9</ele>
        <time>2016-03-20T07:34:08Z</time>
      </trkpt>
      <trkpt lat="45.60278" lon="4.87719">
        <ele>312.2</ele>
        <time>2016-03-20T07:34:10Z</time>
      </trkpt>
      <trkpt lat="45.60277" lon="4.87722">
        <ele>312.4</ele>
        <time>2016-03-20T07:34:12Z</time>
      </trkpt>
      <trkpt lat="45.60276" lon="4.87726">
        <ele>312.6</ele>
        <time>2016-03-20T07:34:14Z</time>
      </trkpt>
      <trkpt lat="45.60275" lon="4.87731">
        <ele>313.1</ele>
        <time>2016-03-20T07:34:16Z</time>
      </trkpt>
      <trkpt lat="45.60274" lon="4.87735">
        <ele>313.6</ele>
        <time>2016-03-20T07:34:18Z</time>
      </trkpt>
      <trkpt lat="45.60273" lon="4.8774">
        <ele>314.2</ele>
        <time>2016-03-20T07:34:20Z</time>
      </trkpt>
      <trkpt lat="45.60272" lon="4.87745">
        <ele>314.6</ele>
        <time>2016-03-20T07:34:22Z</time>
      </trkpt>
      <trkpt lat="45.6027" lon="4.8775">
        <ele>315</ele>
        <time>2016-03-20T07:34:24Z</time>
      </trkpt>
      <trkpt lat="45.60268" lon="4.87754">
        <ele>315.6</ele>
        <time>2016-03-20T07:34:26Z</time>
      </trkpt>
      <trkpt lat="45.60267" lon="4.87757">
        <ele>316.1</ele>
        <time>2016-03-20T07:34:28Z</time>
      </trkpt>
      <trkpt lat="45.60265" lon="4.87761">
        <ele>316.7</ele>
        <time>2016-03-20T07:34:30Z</time>
      </trkpt>
      <trkpt lat="45.60263" lon="4.87765">
        <ele>317.1</ele>
        <time>2016-03-20T07:34:32Z</time>
      </trkpt>
      <trkpt lat="45.60262" lon="4.87769">
        <ele>317.7</ele>
        <time>2016-03-20T07:34:34Z</time>
      </trkpt>
      <trkpt lat="45.60261" lon="4.87774">
        <ele>318.4</ele>
        <time>2016-03-20T07:34:36Z</time>
      </trkpt>
      <trkpt lat="45.6026" lon="4.87778">
        <ele>318.8</ele>
        <time>2016-03-20T07:34:38Z</time>
      </trkpt>
      <trkpt lat="45.60259" lon="4.87783">
        <ele>319.3</ele>
        <time>2016-03-20T07:34:40Z</time>
      </trkpt>
      <trkpt lat="45.60258" lon="4.87787">
        <ele>319.9</ele>
        <time>2016-03-20T07:34:42Z</time>
      </trkpt>
      <trkpt lat="45.60257" lon="4.87792">
        <ele>320.5</ele>
        <time>2016-03-20T07:34:44Z</time>
      </trkpt>
      <trkpt lat="45.60257" lon="4.87796">
        <ele>321</ele>
        <time>2016-03-20T07:34:46Z</time>
      </trkpt>
      <trkpt lat="45.60258" lon="4.878">
        <ele>321.3</ele>
        <time>2016-03-20T07:34:48Z</time>
      </trkpt>
      <trkpt lat="45.60258" lon="4.87804">
        <ele>321.7</ele>
        <time>2016-03-20T07:34:50Z</time>
      </trkpt>
      <trkpt lat="45.60258" lon="4.87807">
        <ele>322.1</ele>
        <time>2016-03-20T07:34:52Z</time>
      </trkpt>
      <trkpt lat="45.60259" lon="4.87811">
        <ele>322.6</ele>
        <time>2016-03-20T07:34:54Z</time>
      </trkpt>
      <trkpt lat="45.60259" lon="4.87814">
        <ele>323.1</ele>
        <time>2016-03-20T07:34:56Z</time>
      </trkpt>
      <trkpt lat="45.60259" lon="4.87818">
        <ele>323.5</ele>
        <time>2016-03-20T07:34:58Z</time>
      </trkpt>
      <trkpt lat="45.60259" lon="4.87822">
        <ele>323.9</ele>
        <time>2016-03-20T07:35:00Z</time>
      </trkpt>
      <trkpt lat="45.60259" lon="4.87825">
        <ele>324.4</ele>
        <time>2016-03-20T07:35:02Z</time>
      </trkpt>
      <trkpt lat="45.6026" lon="4.87829">
        <ele>324.9</ele>
        <time>2016-03-20T07:35:04Z</time>
      </trkpt>
      <trkpt lat="45.6026" lon="4.87833">
        <ele>325.3</ele>
        <time>2016-03-20T07:35:06Z</time>
      </trkpt>
      <trkpt lat="45.6026" lon="4.87837">
        <ele>325.7</ele>
        <time>2016-03-20T07:35:08Z</time>
      </trkpt>
      <trkpt lat="45.6026" lon="4.87842">
        <ele>326.1</ele>
        <time>2016-03-20T07:35:10Z</time>
      </trkpt>
      <trkpt lat="45.6026" lon="4.87846">
        <ele>326.6</ele>
        <time>2016-03-20T07:35:12Z</time>
      </trkpt>
      <trkpt lat="45.60259" lon="4.87851">
        <ele>327.1</ele>
        <time>2016-03-20T07:35:14Z</time>
      </trkpt>
      <trkpt lat="45.60259" lon="4.87855">
        <ele>327.6</ele>
        <time>2016-03-20T07:35:16Z</time>
      </trkpt>
      <trkpt lat="45.60258" lon="4.87859">
        <ele>328</ele>
        <time>2016-03-20T07:35:18Z</time>
      </trkpt>
      <trkpt lat="45.60257" lon="4.87863">
        <ele>328.5</ele>
        <time>2016-03-20T07:35:20Z</time>
      </trkpt>
      <trkpt lat="45.60255" lon="4.87868">
        <ele>329.1</ele>
        <time>2016-03-20T07:35:22Z</time>
      </trkpt>
      <trkpt lat="45.60254" lon="4.87871">
        <ele>329.7</ele>
        <time>2016-03-20T07:35:24Z</time>
      </trkpt>
      <trkpt lat="45.60252" lon="4.87875">
        <ele>330.1</ele>
        <time>2016-03-20T07:35:26Z</time>
      </trkpt>
      <trkpt lat="45.6025" lon="4.87879">
        <ele>330.4</ele>
        <time>2016-03-20T07:35:28Z</time>
      </trkpt>
      <trkpt lat="45.60249" lon="4.87883">
        <ele>330.8</ele>
        <time>2016-03-20T07:35:30Z</time>
      </trkpt>
      <trkpt lat="45.60247" lon="4.87887">
        <ele>331.3</ele>
        <time>2016-03-20T07:35:32Z</time>
      </trkpt>
      <trkpt lat="45.60246" lon="4.8789">
        <ele>331.8</ele>
        <time>2016-03-20T07:35:34Z</time>
      </trkpt>
      <trkpt lat="45.60245" lon="4.87893">
        <ele>332.3</ele>
        <time>2016-03-20T07:35:36Z</time>
      </trkpt>
      <trkpt lat="45.60243" lon="4.87897">
        <ele>332.6</ele>
        <time>2016-03-20T07:35:38Z</time>
      </trkpt>
      <trkpt lat="45.60242" lon="4.87901">
        <ele>333.1</ele>
        <time>2016-03-20T07:35:40Z</time>
      </trkpt>
      <trkpt lat="45.60241" lon="4.87905">
        <ele>333.6</ele>
        <time>2016-03-20T07:35:42Z</time>
      </trkpt>
      <trkpt lat="45.60239" lon="4.87909">
        <ele>334.1</ele>
        <time>2016-03-20T07:35:44Z</time>
      </trkpt>
      <trkpt lat="45.60238" lon="4.87913">
        <ele>334.5</ele>
        <time>2016-03-20T07:35:46Z</time>
      </trkpt>
      <trkpt lat="45.60237" lon="4.87917">
        <ele>334.8</ele>
        <time>2016-03-20T07:35:48Z</time>
      </trkpt>
      <trkpt lat="45.60236" lon="4.87921">
        <ele>335.3</ele>
        <time>2016-03-20T07:35:50Z</time>
      </trkpt>
      <trkpt lat="45.60235" lon="4.87925">
        <ele>335.8</ele>
        <time>2016-03-20T07:35:52Z</time>
      </trkpt>
      <trkpt lat="45.60234" lon="4.87929">
        <ele>336.3</ele>
        <time>2016-03-20T07:35:54Z</time>
      </trkpt>
      <trkpt lat="45.60232" lon="4.87933">
        <ele>336.7</ele>
        <time>2016-03-20T07:35:56Z</time>
      </trkpt>
      <trkpt lat="45.60231" lon="4.87937">
        <ele>337</ele>
        <time>2016-03-20T07:35:58Z</time>
      </trkpt>
      <trkpt lat="45.6023" lon="4.8794">
        <ele>337.2</ele>
        <time>2016-03-20T07:36:00Z</time>
      </trkpt>
      <trkpt lat="45.60229" lon="4.87943">
        <ele>337.6</ele>
        <time>2016-03-20T07:36:02Z</time>
      </trkpt>
      <trkpt lat="45.60229" lon="4.87947">
        <ele>338</ele>
        <time>2016-03-20T07:36:04Z</time>
      </trkpt>
      <trkpt lat="45.60229" lon="4.87952">
        <ele>338.5</ele>
        <time>2016-03-20T07:36:06Z</time>
      </trkpt>
      <trkpt lat="45.60228" lon="4.87956">
        <ele>338.8</ele>
        <time>2016-03-20T07:36:08Z</time>
      </trkpt>
      <trkpt lat="45.60228" lon="4.8796">
        <ele>339</ele>
        <time>2016-03-20T07:36:10Z</time>
      </trkpt>
      <trkpt lat="45.60228" lon="4.87964">
        <ele>339.2</ele>
        <time>2016-03-20T07:36:12Z</time>
      </trkpt>
      <trkpt lat="45.60228" lon="4.87969">
        <ele>339.5</ele>
        <time>2016-03-20T07:36:14Z</time>
      </trkpt>
      <trkpt lat="45.60227" lon="4.87975">
        <ele>340</ele>
        <time>2016-03-20T07:36:16Z</time>
      </trkpt>
      <trkpt lat="45.60227" lon="4.87982">
        <ele>340.4</ele>
        <time>2016-03-20T07:36:18Z</time>
      </trkpt>
      <trkpt lat="45.60226" lon="4.87988">
        <ele>340.7</ele>
        <time>2016-03-20T07:36:20Z</time>
      </trkpt>
      <trkpt lat="45.60226" lon="4.87996">
        <ele>340.9</ele>
        <time>2016-03-20T07:36:22Z</time>
      </trkpt>
      <trkpt lat="45.60225" lon="4.88003">
        <ele>341</ele>
        <time>2016-03-20T07:36:24Z</time>
      </trkpt>
      <trkpt lat="45.60223" lon="4.8801">
        <ele>341.1</ele>
        <time>2016-03-20T07:36:26Z</time>
      </trkpt>
      <trkpt lat="45.60223" lon="4.88018">
        <ele>341.2</ele>
        <time>2016-03-20T07:36:28Z</time>
      </trkpt>
      <trkpt lat="45.60222" lon="4.88025">
        <ele>341.3</ele>
        <time>2016-03-20T07:36:30Z</time>
      </trkpt>
      <trkpt lat="45.6022" lon="4.88032">
        <ele>341.5</ele>
        <time>2016-03-20T07:36:32Z</time>
      </trkpt>
      <trkpt lat="45.60219" lon="4.88039">
        <ele>341.7</ele>
        <time>2016-03-20T07:36:34Z</time>
      </trkpt>
      <trkpt lat="45.60218" lon="4.88046">
        <ele>341.9</ele>
        <time>2016-03-20T07:36:36Z</time>
      </trkpt>
      <trkpt lat="45.60217" lon="4.88052">
        <ele>342.2</ele>
        <time>2016-03-20T07:36:38Z</time>
      </trkpt>
      <trkpt lat="45.60215" lon="4.88058">
        <ele>342.4</ele>
        <time>2016-03-20T07:36:40Z</time>
      </trkpt>
      <trkpt lat="45.60215" lon="4.88064">
        <ele>342.6</ele>
        <time>2016-03-20T07:36:42Z</time>
      </trkpt>
      <trkpt lat="45.60215" lon="4.88069">
        <ele>342.7</ele>
        <time>2016-03-20T07:36:44Z</time>
      </trkpt>
      <trkpt lat="45.60214" lon="4.88075">
        <ele>342.7</ele>
        <time>2016-03-20T07:36:46Z</time>
      </trkpt>
      <trkpt lat="45.60213" lon="4.88082">
        <ele>342.8</ele>
        <time>2016-03-20T07:36:48Z</time>
      </trkpt>
      <trkpt lat="45.60212" lon="4.88089">
        <ele>342.8</ele>
        <time>2016-03-20T07:36:50Z</time>
      </trkpt>
      <trkpt lat="45.6021" lon="4.88098">
        <ele>342.9</ele>
        <time>2016-03-20T07:36:52Z</time>
      </trkpt>
      <trkpt lat="45.60209" lon="4.88108">
        <ele>343</ele>
        <time>2016-03-20T07:36:54Z</time>
      </trkpt>
      <trkpt lat="45.60207" lon="4.88119">
        <ele>343</ele>
        <time>2016-03-20T07:36:56Z</time>
      </trkpt>
      <trkpt lat="45.60204" lon="4.88131">
        <ele>343</ele>
        <time>2016-03-20T07:36:58Z</time>
      </trkpt>
      <trkpt lat="45.60201" lon="4.88146">
        <ele>342.9</ele>
        <time>2016-03-20T07:37:00Z</time>
      </trkpt>
      <trkpt lat="45.60198" lon="4.88162">
        <ele>342.8</ele>
        <time>2016-03-20T07:37:02Z</time>
      </trkpt>
      <trkpt lat="45.60194" lon="4.88179">
        <ele>342.6</ele>
        <time>2016-03-20T07:37:04Z</time>
      </trkpt>
      <trkpt lat="45.60191" lon="4.88197">
        <ele>342.3</ele>
        <time>2016-03-20T07:37:06Z</time>
      </trkpt>
      <trkpt lat="45.60189" lon="4.88213">
        <ele>341.8</ele>
        <time>2016-03-20T07:37:08Z</time>
      </trkpt>
      <trkpt lat="45.60189" lon="4.88226">
        <ele>341.1</ele>
        <time>2016-03-20T07:37:10Z</time>
      </trkpt>
      <trkpt lat="45.60196" lon="4.88233">
        <ele>340</ele>
        <time>2016-03-20T07:37:12Z</time>
      </trkpt>
      <trkpt lat="45.60206" lon="4.88236">
        <ele>338.9</ele>
        <time>2016-03-20T07:37:14Z</time>
      </trkpt>
      <trkpt lat="45.6022" lon="4.88237">
        <ele>337.5</ele>
        <time>2016-03-20T07:37:16Z</time>
      </trkpt>
      <trkpt lat="45.60237" lon="4.8824">
        <ele>335.9</ele>
        <time>2016-03-20T07:37:18Z</time>
      </trkpt>
      <trkpt lat="45.60256" lon="4.8824">
        <ele>334.2</ele>
        <time>2016-03-20T07:37:20Z</time>
      </trkpt>
      <trkpt lat="45.60276" lon="4.88232">
        <ele>332</ele>
        <time>2016-03-20T07:37:22Z</time>
      </trkpt>
      <trkpt lat="45.60297" lon="4.88217">
        <ele>329.6</ele>
        <time>2016-03-20T07:37:24Z</time>
      </trkpt>
      <trkpt lat="45.6032" lon="4.882">
        <ele>327.7</ele>
        <time>2016-03-20T07:37:26Z</time>
      </trkpt>
      <trkpt lat="45.60343" lon="4.88181">
        <ele>325.8</ele>
        <time>2016-03-20T07:37:28Z</time>
      </trkpt>
      <trkpt lat="45.60368" lon="4.88162">
        <ele>323.7</ele>
        <time>2016-03-20T07:37:30Z</time>
      </trkpt>
      <trkpt lat="45.60389" lon="4.88141">
        <ele>321.9</ele>
        <time>2016-03-20T07:37:32Z</time>
      </trkpt>
      <trkpt lat="45.60407" lon="4.88121">
        <ele>320.6</ele>
        <time>2016-03-20T07:37:34Z</time>
      </trkpt>
      <trkpt lat="45.60421" lon="4.88104">
        <ele>319.8</ele>
        <time>2016-03-20T07:37:36Z</time>
      </trkpt>
      <trkpt lat="45.60431" lon="4.88097">
        <ele>319.3</ele>
        <time>2016-03-20T07:37:38Z</time>
      </trkpt>
      <trkpt lat="45.60437" lon="4.88101">
        <ele>319.5</ele>
        <time>2016-03-20T07:37:40Z</time>
      </trkpt>
      <trkpt lat="45.60436" lon="4.88109">
        <ele>319.8</ele>
        <time>2016-03-20T07:37:42Z</time>
      </trkpt>
      <trkpt lat="45.60435" lon="4.88118">
        <ele>320</ele>
        <time>2016-03-20T07:37:44Z</time>
      </trkpt>
      <trkpt lat="45.60434" lon="4.88127">
        <ele>320.2</ele>
        <time>2016-03-20T07:37:46Z</time>
      </trkpt>
      <trkpt lat="45.60432" lon="4.88136">
        <ele>320.2</ele>
        <time>2016-03-20T07:37:48Z</time>
      </trkpt>
      <trkpt lat="45.60431" lon="4.88147">
        <ele>320.2</ele>
        <time>2016-03-20T07:37:50Z</time>
      </trkpt>
      <trkpt lat="45.6043" lon="4.88158">
        <ele>320.1</ele>
        <time>2016-03-20T07:37:52Z</time>
      </trkpt>
      <trkpt lat="45.60429" lon="4.8817">
        <ele>320.1</ele>
        <time>2016-03-20T07:37:54Z</time>
      </trkpt>
      <trkpt lat="45.60428" lon="4.88181">
        <ele>320</ele>
        <time>2016-03-20T07:37:56Z</time>
      </trkpt>
      <trkpt lat="45.60426" lon="4.88193">
        <ele>319.9</ele>
        <time>2016-03-20T07:37:58Z</time>
      </trkpt>
      <trkpt lat="45.60424" lon="4.88204">
        <ele>319.8</ele>
        <time>2016-03-20T07:38:00Z</time>
      </trkpt>
      <trkpt lat="45.60423" lon="4.88215">
        <ele>319.7</ele>
        <time>2016-03-20T07:38:02Z</time>
      </trkpt>
      <trkpt lat="45.60421" lon="4.88226">
        <ele>319.5</ele>
        <time>2016-03-20T07:38:04Z</time>
      </trkpt>
      <trkpt lat="45.60421" lon="4.88237">
        <ele>319.2</ele>
        <time>2016-03-20T07:38:06Z</time>
      </trkpt>
      <trkpt lat="45.60421" lon="4.88248">
        <ele>318.8</ele>
        <time>2016-03-20T07:38:08Z</time>
      </trkpt>
      <trkpt lat="45.60421" lon="4.88259">
        <ele>318.4</ele>
        <time>2016-03-20T07:38:10Z</time>
      </trkpt>
      <trkpt lat="45.60421" lon="4.8827">
        <ele>318</ele>
        <time>2016-03-20T07:38:12Z</time>
      </trkpt>
      <trkpt lat="45.60421" lon="4.88282">
        <ele>317.7</ele>
        <time>2016-03-20T07:38:14Z</time>
      </trkpt>
      <trkpt lat="45.60422" lon="4.88295">
        <ele>317.4</ele>
        <time>2016-03-20T07:38:16Z</time>
      </trkpt>
      <trkpt lat="45.60422" lon="4.88307">
        <ele>317.3</ele>
        <time>2016-03-20T07:38:18Z</time>
      </trkpt>
      <trkpt lat="45.60422" lon="4.8832">
        <ele>317.2</ele>
        <time>2016-03-20T07:38:20Z</time>
      </trkpt>
      <trkpt lat="45.60423" lon="4.88333">
        <ele>317.1</ele>
        <time>2016-03-20T07:38:22Z</time>
      </trkpt>
      <trkpt lat="45.60423" lon="4.88347">
        <ele>317.1</ele>
        <time>2016-03-20T07:38:24Z</time>
      </trkpt>
      <trkpt lat="45.60423" lon="4.8836">
        <ele>317</ele>
        <time>2016-03-20T07:38:26Z</time>
      </trkpt>
      <trkpt lat="45.60424" lon="4.88373">
        <ele>317</ele>
        <time>2016-03-20T07:38:28Z</time>
      </trkpt>
      <trkpt lat="45.60424" lon="4.88385">
        <ele>316.9</ele>
        <time>2016-03-20T07:38:30Z</time>
      </trkpt>
      <trkpt lat="45.60425" lon="4.88396">
        <ele>316.9</ele>
        <time>2016-03-20T07:38:32Z</time>
      </trkpt>
      <trkpt lat="45.60426" lon="4.88406">
        <ele>316.8</ele>
        <time>2016-03-20T07:38:34Z</time>
      </trkpt>
      <trkpt lat="45.60426" lon="4.88416">
        <ele>316.8</ele>
        <time>2016-03-20T07:38:36Z</time>
      </trkpt>
      <trkpt lat="45.60428" lon="4.88425">
        <ele>316.8</ele>
        <time>2016-03-20T07:38:38Z</time>
      </trkpt>
      <trkpt lat="45.60428" lon="4.88434">
        <ele>316.7</ele>
        <time>2016-03-20T07:38:40Z</time>
      </trkpt>
      <trkpt lat="45.60429" lon="4.88443">
        <ele>316.7</ele>
        <time>2016-03-20T07:38:42Z</time>
      </trkpt>
      <trkpt lat="45.6043" lon="4.88452">
        <ele>316.8</ele>
        <time>2016-03-20T07:38:44Z</time>
      </trkpt>
      <trkpt lat="45.60431" lon="4.88461">
        <ele>316.9</ele>
        <time>2016-03-20T07:38:46Z</time>
      </trkpt>
      <trkpt lat="45.60432" lon="4.8847">
        <ele>317.1</ele>
        <time>2016-03-20T07:38:48Z</time>
      </trkpt>
      <trkpt lat="45.60433" lon="4.88479">
        <ele>317.4</ele>
        <time>2016-03-20T07:38:50Z</time>
      </trkpt>
      <trkpt lat="45.60435" lon="4.88488">
        <ele>317.6</ele>
        <time>2016-03-20T07:38:52Z</time>
      </trkpt>
      <trkpt lat="45.60436" lon="4.88497">
        <ele>317.9</ele>
        <time>2016-03-20T07:38:54Z</time>
      </trkpt>
      <trkpt lat="45.60438" lon="4.88505">
        <ele>318</ele>
        <time>2016-03-20T07:38:56Z</time>
      </trkpt>
      <trkpt lat="45.6044" lon="4.88513">
        <ele>318.1</ele>
        <time>2016-03-20T07:38:58Z</time>
      </trkpt>
      <trkpt lat="45.60442" lon="4.88519">
        <ele>318.2</ele>
        <time>2016-03-20T07:39:00Z</time>
      </trkpt>
      <trkpt lat="45.60444" lon="4.88524">
        <ele>318.2</ele>
        <time>2016-03-20T07:39:02Z</time>
      </trkpt>
      <trkpt lat="45.60445" lon="4.88528">
        <ele>318.2</ele>
        <time>2016-03-20T07:39:04Z</time>
      </trkpt>
      <trkpt lat="45.60447" lon="4.88532">
        <ele>318.2</ele>
        <time>2016-03-20T07:39:06Z</time>
      </trkpt>
      <trkpt lat="45.60449" lon="4.88537">
        <ele>318.2</ele>
        <time>2016-03-20T07:39:08Z</time>
      </trkpt>
      <trkpt lat="45.6045" lon="4.88543">
        <ele>318.2</ele>
        <time>2016-03-20T07:39:10Z</time>
      </trkpt>
      <trkpt lat="45.60452" lon="4.88547">
        <ele>318.2</ele>
        <time>2016-03-20T07:39:12Z</time>
      </trkpt>
      <trkpt lat="45.60454" lon="4.88552">
        <ele>318.2</ele>
        <time>2016-03-20T07:39:14Z</time>
      </trkpt>
      <trkpt lat="45.60455" lon="4.88556">
        <ele>318.3</ele>
        <time>2016-03-20T07:39:16Z</time>
      </trkpt>
      <trkpt lat="45.60457" lon="4.88561">
        <ele>318.3</ele>
        <time>2016-03-20T07:39:18Z</time>
      </trkpt>
      <trkpt lat="45.60458" lon="4.88566">
        <ele>318.4</ele>
        <time>2016-03-20T07:39:20Z</time>
      </trkpt>
      <trkpt lat="45.6046" lon="4.88571">
        <ele>318.6</ele>
        <time>2016-03-20T07:39:22Z</time>
      </trkpt>
      <trkpt lat="45.60461" lon="4.88577">
        <ele>318.8</ele>
        <time>2016-03-20T07:39:24Z</time>
      </trkpt>
      <trkpt lat="45.60462" lon="4.88583">
        <ele>319</ele>
        <time>2016-03-20T07:39:26Z</time>
      </trkpt>
      <trkpt lat="45.60464" lon="4.8859">
        <ele>319.3</ele>
        <time>2016-03-20T07:39:28Z</time>
      </trkpt>
      <trkpt lat="45.60465" lon="4.88596">
        <ele>319.5</ele>
        <time>2016-03-20T07:39:30Z</time>
      </trkpt>
      <trkpt lat="45.60465" lon="4.88603">
        <ele>319.7</ele>
        <time>2016-03-20T07:39:32Z</time>
      </trkpt>
      <trkpt lat="45.60466" lon="4.88611">
        <ele>319.9</ele>
        <time>2016-03-20T07:39:34Z</time>
      </trkpt>
      <trkpt lat="45.60468" lon="4.88618">
        <ele>320.1</ele>
        <time>2016-03-20T07:39:36Z</time>
      </trkpt>
      <trkpt lat="45.60469" lon="4.88625">
        <ele>320.3</ele>
        <time>2016-03-20T07:39:38Z</time>
      </trkpt>
      <trkpt lat="45.60469" lon="4.88631">
        <ele>320.5</ele>
        <time>2016-03-20T07:39:40Z</time>
      </trkpt>
      <trkpt lat="45.6047" lon="4.88636">
        <ele>320.6</ele>
        <time>2016-03-20T07:39:42Z</time>
      </trkpt>
      <trkpt lat="45.6047" lon="4.88642">
        <ele>320.9</ele>
        <time>2016-03-20T07:39:44Z</time>
      </trkpt>
      <trkpt lat="45.60471" lon="4.88648">
        <ele>321.2</ele>
        <time>2016-03-20T07:39:46Z</time>
      </trkpt>
      <trkpt lat="45.60471" lon="4.88654">
        <ele>321.6</ele>
        <time>2016-03-20T07:39:48Z</time>
      </trkpt>
      <trkpt lat="45.60471" lon="4.88661">
        <ele>322</ele>
        <time>2016-03-20T07:39:50Z</time>
      </trkpt>
      <trkpt lat="45.6047" lon="4.88667">
        <ele>322.4</ele>
        <time>2016-03-20T07:39:52Z</time>
      </trkpt>
      <trkpt lat="45.6047" lon="4.88674">
        <ele>322.8</ele>
        <time>2016-03-20T07:39:54Z</time>
      </trkpt>
      <trkpt lat="45.6047" lon="4.8868">
        <ele>323.3</ele>
        <time>2016-03-20T07:39:56Z</time>
      </trkpt>
      <trkpt lat="45.60468" lon="4.88686">
        <ele>323.8</ele>
        <time>2016-03-20T07:39:58Z</time>
      </trkpt>
      <trkpt lat="45.60465" lon="4.8869">
        <ele>324.3</ele>
        <time>2016-03-20T07:40:00Z</time>
      </trkpt>
      <trkpt lat="45.60462" lon="4.88692">
        <ele>324.7</ele>
        <time>2016-03-20T07:40:02Z</time>
      </trkpt>
      <trkpt lat="45.60458" lon="4.88694">
        <ele>325</ele>
        <time>2016-03-20T07:40:04Z</time>
      </trkpt>
      <trkpt lat="45.60455" lon="4.88697">
        <ele>325.3</ele>
        <time>2016-03-20T07:40:06Z</time>
      </trkpt>
      <trkpt lat="45.60452" lon="4.88702">
        <ele>325.7</ele>
        <time>2016-03-20T07:40:08Z</time>
      </trkpt>
      <trkpt lat="45.60449" lon="4.88707">
        <ele>325.9</ele>
        <time>2016-03-20T07:40:10Z</time>
      </trkpt>
      <trkpt lat="45.60446" lon="4.88713">
        <ele>326</ele>
        <time>2016-03-20T07:40:12Z</time>
      </trkpt>
      <trkpt lat="45.60443" lon="4.88718">
        <ele>326.1</ele>
        <time>2016-03-20T07:40:14Z</time>
      </trkpt>
      <trkpt lat="45.6044" lon="4.88724">
        <ele>326.2</ele>
        <time>2016-03-20T07:40:16Z</time>
      </trkpt>
      <trkpt lat="45.60437" lon="4.8873">
        <ele>326.4</ele>
        <time>2016-03-20T07:40:18Z</time>
      </trkpt>
      <trkpt lat="45.60434" lon="4.88736">
        <ele>326.4</ele>
        <time>2016-03-20T07:40:20Z</time>
      </trkpt>
      <trkpt lat="45.60431" lon="4.88742">
        <ele>326.2</ele>
        <time>2016-03-20T07:40:22Z</time>
      </trkpt>
      <trkpt lat="45.60428" lon="4.88748">
        <ele>326.3</ele>
        <time>2016-03-20T07:40:24Z</time>
      </trkpt>
      <trkpt lat="45.60425" lon="4.88753">
        <ele>326.4</ele>
        <time>2016-03-20T07:40:26Z</time>
      </trkpt>
      <trkpt lat="45.60422" lon="4.8876">
        <ele>326.6</ele>
        <time>2016-03-20T07:40:28Z</time>
      </trkpt>
      <trkpt lat="45.60418" lon="4.88767">
        <ele>327</ele>
        <time>2016-03-20T07:40:30Z</time>
      </trkpt>
      <trkpt lat="45.60413" lon="4.88776">
        <ele>327.4</ele>
        <time>2016-03-20T07:40:32Z</time>
      </trkpt>
      <trkpt lat="45.60408" lon="4.88786">
        <ele>328.2</ele>
        <time>2016-03-20T07:40:34Z</time>
      </trkpt>
      <trkpt lat="45.60403" lon="4.88796">
        <ele>329.4</ele>
        <time>2016-03-20T07:40:36Z</time>
      </trkpt>
      <trkpt lat="45.60397" lon="4.88805">
        <ele>330.4</ele>
        <time>2016-03-20T07:40:38Z</time>
      </trkpt>
      <trkpt lat="45.60392" lon="4.88815">
        <ele>331</ele>
        <time>2016-03-20T07:40:40Z</time>
      </trkpt>
      <trkpt lat="45.60387" lon="4.88825">
        <ele>331.2</ele>
        <time>2016-03-20T07:40:42Z</time>
      </trkpt>
      <trkpt lat="45.60381" lon="4.88835">
        <ele>331.2</ele>
        <time>2016-03-20T07:40:44Z</time>
      </trkpt>
      <trkpt lat="45.60373" lon="4.88845">
        <ele>331.3</ele>
        <time>2016-03-20T07:40:46Z</time>
      </trkpt>
      <trkpt lat="45.60366" lon="4.88854">
        <ele>330.9</ele>
        <time>2016-03-20T07:40:48Z</time>
      </trkpt>
      <trkpt lat="45.6036" lon="4.88861">
        <ele>331.1</ele>
        <time>2016-03-20T07:40:50Z</time>
      </trkpt>
      <trkpt lat="45.60357" lon="4.88867">
        <ele>331.7</ele>
        <time>2016-03-20T07:40:52Z</time>
      </trkpt>
      <trkpt lat="45.60354" lon="4.88875">
        <ele>332.3</ele>
        <time>2016-03-20T07:40:54Z</time>
      </trkpt>
      <trkpt lat="45.60352" lon="4.88882">
        <ele>332.7</ele>
        <time>2016-03-20T07:40:56Z</time>
      </trkpt>
      <trkpt lat="45.60352" lon="4.8889">
        <ele>332.6</ele>
        <time>2016-03-20T07:40:58Z</time>
      </trkpt>
      <trkpt lat="45.60352" lon="4.88896">
        <ele>333.3</ele>
        <time>2016-03-20T07:41:00Z</time>
      </trkpt>
      <trkpt lat="45.60354" lon="4.88901">
        <ele>334</ele>
        <time>2016-03-20T07:41:02Z</time>
      </trkpt>
      <trkpt lat="45.60354" lon="4.88905">
        <ele>334.2</ele>
        <time>2016-03-20T07:41:04Z</time>
      </trkpt>
      <trkpt lat="45.60354" lon="4.8891">
        <ele>334.5</ele>
        <time>2016-03-20T07:41:06Z</time>
      </trkpt>
      <trkpt lat="45.60353" lon="4.88915">
        <ele>334.2</ele>
        <time>2016-03-20T07:41:08Z</time>
      </trkpt>
      <trkpt lat="45.60352" lon="4.8892">
        <ele>333.8</ele>
        <time>2016-03-20T07:41:10Z</time>
      </trkpt>
      <trkpt lat="45.60351" lon="4.88924">
        <ele>333.7</ele>
        <time>2016-03-20T07:41:12Z</time>
      </trkpt>
      <trkpt lat="45.60351" lon="4.88929">
        <ele>334.1</ele>
        <time>2016-03-20T07:41:14Z</time>
      </trkpt>
      <trkpt lat="45.60352" lon="4.88936">
        <ele>334.5</ele>
        <time>2016-03-20T07:41:16Z</time>
      </trkpt>
      <trkpt lat="45.60353" lon="4.88945">
        <ele>334.2</ele>
        <time>2016-03-20T07:41:18Z</time>
      </trkpt>
      <trkpt lat="45.60354" lon="4.88955">
        <ele>333.6</ele>
        <time>2016-03-20T07:41:20Z</time>
      </trkpt>
      <trkpt lat="45.60357" lon="4.88962">
        <ele>333.3</ele>
        <time>2016-03-20T07:41:22Z</time>
      </trkpt>
      <trkpt lat="45.6036" lon="4.88967">
        <ele>333.2</ele>
        <time>2016-03-20T07:41:24Z</time>
      </trkpt>
      <trkpt lat="45.60364" lon="4.88972">
        <ele>333.1</ele>
        <time>2016-03-20T07:41:26Z</time>
      </trkpt>
      <trkpt lat="45.60368" lon="4.88977">
        <ele>333.1</ele>
        <time>2016-03-20T07:41:28Z</time>
      </trkpt>
      <trkpt lat="45.60371" lon="4.88982">
        <ele>333.1</ele>
        <time>2016-03-20T07:41:30Z</time>
      </trkpt>
      <trkpt lat="45.60375" lon="4.88985">
        <ele>332.8</ele>
        <time>2016-03-20T07:41:32Z</time>
      </trkpt>
      <trkpt lat="45.60379" lon="4.88989">
        <ele>332.4</ele>
        <time>2016-03-20T07:41:34Z</time>
      </trkpt>
      <trkpt lat="45.60384" lon="4.88993">
        <ele>331.6</ele>
        <time>2016-03-20T07:41:36Z</time>
      </trkpt>
      <trkpt lat="45.6039" lon="4.88997">
        <ele>330.7</ele>
        <time>2016-03-20T07:41:38Z</time>
      </trkpt>
      <trkpt lat="45.60395" lon="4.89">
        <ele>330.1</ele>
        <time>2016-03-20T07:41:40Z</time>
      </trkpt>
      <trkpt lat="45.604" lon="4.89004">
        <ele>329.6</ele>
        <time>2016-03-20T07:41:42Z</time>
      </trkpt>
      <trkpt lat="45.60406" lon="4.89008">
        <ele>328.9</ele>
        <time>2016-03-20T07:41:44Z</time>
      </trkpt>
      <trkpt lat="45.60413" lon="4.8901">
        <ele>328.3</ele>
        <time>2016-03-20T07:41:46Z</time>
      </trkpt>
      <trkpt lat="45.60421" lon="4.89012">
        <ele>327.2</ele>
        <time>2016-03-20T07:41:48Z</time>
      </trkpt>
      <trkpt lat="45.60429" lon="4.89013">
        <ele>326.3</ele>
        <time>2016-03-20T07:41:50Z</time>
      </trkpt>
      <trkpt lat="45.60439" lon="4.89012">
        <ele>325.6</ele>
        <time>2016-03-20T07:41:52Z</time>
      </trkpt>
      <trkpt lat="45.60452" lon="4.8901">
        <ele>325.6</ele>
        <time>2016-03-20T07:41:54Z</time>
      </trkpt>
      <trkpt lat="45.60463" lon="4.89009">
        <ele>325.7</ele>
        <time>2016-03-20T07:41:56Z</time>
      </trkpt>
      <trkpt lat="45.60477" lon="4.89009">
        <ele>325.6</ele>
        <time>2016-03-20T07:41:58Z</time>
      </trkpt>
      <trkpt lat="45.6049" lon="4.89009">
        <ele>325.2</ele>
        <time>2016-03-20T07:42:00Z</time>
      </trkpt>
      <trkpt lat="45.60503" lon="4.8901">
        <ele>325.7</ele>
        <time>2016-03-20T07:42:02Z</time>
      </trkpt>
      <trkpt lat="45.60515" lon="4.89013">
        <ele>325.1</ele>
        <time>2016-03-20T07:42:04Z</time>
      </trkpt>
      <trkpt lat="45.60528" lon="4.89017">
        <ele>325.1</ele>
        <time>2016-03-20T07:42:06Z</time>
      </trkpt>
      <trkpt lat="45.6054" lon="4.89016">
        <ele>325.2</ele>
        <time>2016-03-20T07:42:08Z</time>
      </trkpt>
      <trkpt lat="45.60555" lon="4.89013">
        <ele>325</ele>
        <time>2016-03-20T07:42:10Z</time>
      </trkpt>
      <trkpt lat="45.60569" lon="4.89011">
        <ele>324.2</ele>
        <time>2016-03-20T07:42:12Z</time>
      </trkpt>
      <trkpt lat="45.60583" lon="4.89006">
        <ele>323.1</ele>
        <time>2016-03-20T07:42:14Z</time>
      </trkpt>
      <trkpt lat="45.60597" lon="4.89002">
        <ele>320.2</ele>
        <time>2016-03-20T07:42:16Z</time>
      </trkpt>
      <trkpt lat="45.60605" lon="4.89002">
        <ele>320.4</ele>
        <time>2016-03-20T07:42:18Z</time>
      </trkpt>
      <trkpt lat="45.6061" lon="4.89007">
        <ele>321.4</ele>
        <time>2016-03-20T07:42:20Z</time>
      </trkpt>
      <trkpt lat="45.60616" lon="4.89013">
        <ele>322.3</ele>
        <time>2016-03-20T07:42:22Z</time>
      </trkpt>
      <trkpt lat="45.60621" lon="4.89023">
        <ele>322.3</ele>
        <time>2016-03-20T07:42:24Z</time>
      </trkpt>
      <trkpt lat="45.60625" lon="4.89035">
        <ele>322.1</ele>
        <time>2016-03-20T07:42:26Z</time>
      </trkpt>
      <trkpt lat="45.60629" lon="4.89046">
        <ele>322.5</ele>
        <time>2016-03-20T07:42:28Z</time>
      </trkpt>
      <trkpt lat="45.60632" lon="4.89054">
        <ele>322.9</ele>
        <time>2016-03-20T07:42:30Z</time>
      </trkpt>
      <trkpt lat="45.60635" lon="4.8906">
        <ele>323.1</ele>
        <time>2016-03-20T07:42:32Z</time>
      </trkpt>
      <trkpt lat="45.60637" lon="4.89069">
        <ele>322.9</ele>
        <time>2016-03-20T07:42:34Z</time>
      </trkpt>
      <trkpt lat="45.60639" lon="4.89083">
        <ele>322</ele>
        <time>2016-03-20T07:42:36Z</time>
      </trkpt>
      <trkpt lat="45.60641" lon="4.89098">
        <ele>320.1</ele>
        <time>2016-03-20T07:42:38Z</time>
      </trkpt>
      <trkpt lat="45.60646" lon="4.89113">
        <ele>318.2</ele>
        <time>2016-03-20T07:42:40Z</time>
      </trkpt>
      <trkpt lat="45.6065" lon="4.89126">
        <ele>317.2</ele>
        <time>2016-03-20T07:42:42Z</time>
      </trkpt>
      <trkpt lat="45.60651" lon="4.89139">
        <ele>316.3</ele>
        <time>2016-03-20T07:42:44Z</time>
      </trkpt>
      <trkpt lat="45.60654" lon="4.89152">
        <ele>315.2</ele>
        <time>2016-03-20T07:42:46Z</time>
      </trkpt>
      <trkpt lat="45.60658" lon="4.89166">
        <ele>314.2</ele>
        <time>2016-03-20T07:42:48Z</time>
      </trkpt>
      <trkpt lat="45.60661" lon="4.89179">
        <ele>313.4</ele>
        <time>2016-03-20T07:42:50Z</time>
      </trkpt>
      <trkpt lat="45.60665" lon="4.89191">
        <ele>312.9</ele>
        <time>2016-03-20T07:42:52Z</time>
      </trkpt>
      <trkpt lat="45.60668" lon="4.89203">
        <ele>312.3</ele>
        <time>2016-03-20T07:42:54Z</time>
      </trkpt>
      <trkpt lat="45.60672" lon="4.89214">
        <ele>312</ele>
        <time>2016-03-20T07:42:56Z</time>
      </trkpt>
      <trkpt lat="45.60676" lon="4.89223">
        <ele>312</ele>
        <time>2016-03-20T07:42:58Z</time>
      </trkpt>
      <trkpt lat="45.60679" lon="4.89232">
        <ele>312.2</ele>
        <time>2016-03-20T07:43:00Z</time>
      </trkpt>
      <trkpt lat="45.60679" lon="4.8924">
        <ele>312.3</ele>
        <time>2016-03-20T07:43:02Z</time>
      </trkpt>
      <trkpt lat="45.60678" lon="4.89246">
        <ele>312.3</ele>
        <time>2016-03-20T07:43:04Z</time>
      </trkpt>
      <trkpt lat="45.60677" lon="4.89252">
        <ele>312.6</ele>
        <time>2016-03-20T07:43:06Z</time>
      </trkpt>
      <trkpt lat="45.60677" lon="4.89257">
        <ele>313</ele>
        <time>2016-03-20T07:43:08Z</time>
      </trkpt>
      <trkpt lat="45.60676" lon="4.89261">
        <ele>313.3</ele>
        <time>2016-03-20T07:43:10Z</time>
      </trkpt>
      <trkpt lat="45.60675" lon="4.89267">
        <ele>313.6</ele>
        <time>2016-03-20T07:43:12Z</time>
      </trkpt>
      <trkpt lat="45.60674" lon="4.89272">
        <ele>314.2</ele>
        <time>2016-03-20T07:43:14Z</time>
      </trkpt>
      <trkpt lat="45.60675" lon="4.89276">
        <ele>314.7</ele>
        <time>2016-03-20T07:43:16Z</time>
      </trkpt>
      <trkpt lat="45.60676" lon="4.8928">
        <ele>315</ele>
        <time>2016-03-20T07:43:18Z</time>
      </trkpt>
      <trkpt lat="45.60677" lon="4.89285">
        <ele>315</ele>
        <time>2016-03-20T07:43:20Z</time>
      </trkpt>
      <trkpt lat="45.60677" lon="4.89288">
        <ele>315.1</ele>
        <time>2016-03-20T07:43:22Z</time>
      </trkpt>
      <trkpt lat="45.60677" lon="4.89292">
        <ele>315.5</ele>
        <time>2016-03-20T07:43:24Z</time>
      </trkpt>
      <trkpt lat="45.60677" lon="4.89296">
        <ele>315.9</ele>
        <time>2016-03-20T07:43:26Z</time>
      </trkpt>
      <trkpt lat="45.60677" lon="4.89301">
        <ele>317</ele>
        <time>2016-03-20T07:43:28Z</time>
      </trkpt>
      <trkpt lat="45.60677" lon="4.89307">
        <ele>318.4</ele>
        <time>2016-03-20T07:43:30Z</time>
      </trkpt>
      <trkpt lat="45.60675" lon="4.89312">
        <ele>319.4</ele>
        <time>2016-03-20T07:43:32Z</time>
      </trkpt>
      <trkpt lat="45.60672" lon="4.89315">
        <ele>320.4</ele>
        <time>2016-03-20T07:43:34Z</time>
      </trkpt>
      <trkpt lat="45.60667" lon="4.89317">
        <ele>322.2</ele>
        <time>2016-03-20T07:43:36Z</time>
      </trkpt>
      <trkpt lat="45.60663" lon="4.8932">
        <ele>323.3</ele>
        <time>2016-03-20T07:43:38Z</time>
      </trkpt>
      <trkpt lat="45.60658" lon="4.89322">
        <ele>323.7</ele>
        <time>2016-03-20T07:43:40Z</time>
      </trkpt>
      <trkpt lat="45.60653" lon="4.89324">
        <ele>325.1</ele>
        <time>2016-03-20T07:43:42Z</time>
      </trkpt>
      <trkpt lat="45.60648" lon="4.89325">
        <ele>326.6</ele>
        <time>2016-03-20T07:43:44Z</time>
      </trkpt>
      <trkpt lat="45.60643" lon="4.89326">
        <ele>328.5</ele>
        <time>2016-03-20T07:43:46Z</time>
      </trkpt>
      <trkpt lat="45.60638" lon="4.89328">
        <ele>329.8</ele>
        <time>2016-03-20T07:43:48Z</time>
      </trkpt>
      <trkpt lat="45.60632" lon="4.8933">
        <ele>331.2</ele>
        <time>2016-03-20T07:43:50Z</time>
      </trkpt>
      <trkpt lat="45.60624" lon="4.89332">
        <ele>332.2</ele>
        <time>2016-03-20T07:43:52Z</time>
      </trkpt>
      <trkpt lat="45.60617" lon="4.89334">
        <ele>332.1</ele>
        <time>2016-03-20T07:43:54Z</time>
      </trkpt>
      <trkpt lat="45.6061" lon="4.89336">
        <ele>333</ele>
        <time>2016-03-20T07:43:56Z</time>
      </trkpt>
      <trkpt lat="45.60603" lon="4.89338">
        <ele>332.3</ele>
        <time>2016-03-20T07:43:58Z</time>
      </trkpt>
      <trkpt lat="45.60595" lon="4.8934">
        <ele>332.6</ele>
        <time>2016-03-20T07:44:00Z</time>
      </trkpt>
      <trkpt lat="45.60588" lon="4.89343">
        <ele>332.3</ele>
        <time>2016-03-20T07:44:02Z</time>
      </trkpt>
      <trkpt lat="45.60581" lon="4.89345">
        <ele>332.8</ele>
        <time>2016-03-20T07:44:04Z</time>
      </trkpt>
      <trkpt lat="45.60574" lon="4.89348">
        <ele>333</ele>
        <time>2016-03-20T07:44:06Z</time>
      </trkpt>
      <trkpt lat="45.60568" lon="4.89351">
        <ele>333.1</ele>
        <time>2016-03-20T07:44:08Z</time>
      </trkpt>
      <trkpt lat="45.60561" lon="4.89354">
        <ele>333.5</ele>
        <time>2016-03-20T07:44:10Z</time>
      </trkpt>
      <trkpt lat="45.60554" lon="4.89356">
        <ele>334.4</ele>
        <time>2016-03-20T07:44:12Z</time>
      </trkpt>
      <trkpt lat="45.60548" lon="4.89357">
        <ele>335</ele>
        <time>2016-03-20T07:44:14Z</time>
      </trkpt>
      <trkpt lat="45.60543" lon="4.89355">
        <ele>335.7</ele>
        <time>2016-03-20T07:44:16Z</time>
      </trkpt>
      <trkpt lat="45.6054" lon="4.89351">
        <ele>336.7</ele>
        <time>2016-03-20T07:44:18Z</time>
      </trkpt>
      <trkpt lat="45.60538" lon="4.8935">
        <ele>337.4</ele>
        <time>2016-03-20T07:44:20Z</time>
      </trkpt>
      <trkpt lat="45.60536" lon="4.89348">
        <ele>338.3</ele>
        <time>2016-03-20T07:44:22Z</time>
      </trkpt>
      <trkpt lat="45.60534" lon="4.89347">
        <ele>339.1</ele>
        <time>2016-03-20T07:44:24Z</time>
      </trkpt>
      <trkpt lat="45.60532" lon="4.89345">
        <ele>340</ele>
        <time>2016-03-20T07:44:26Z</time>
      </trkpt>
      <trkpt lat="45.6053" lon="4.89345">
        <ele>340.9</ele>
        <time>2016-03-20T07:44:28Z</time>
      </trkpt>
      <trkpt lat="45.60527" lon="4.89344">
        <ele>342</ele>
        <time>2016-03-20T07:44:30Z</time>
      </trkpt>
      <trkpt lat="45.60525" lon="4.89342">
        <ele>343.1</ele>
        <time>2016-03-20T07:44:32Z</time>
      </trkpt>
      <trkpt lat="45.60523" lon="4.8934">
        <ele>343.6</ele>
        <time>2016-03-20T07:44:34Z</time>
      </trkpt>
      <trkpt lat="45.60522" lon="4.89338">
        <ele>344.1</ele>
        <time>2016-03-20T07:44:36Z</time>
      </trkpt>
      <trkpt lat="45.60521" lon="4.89336">
        <ele>344.6</ele>
        <time>2016-03-20T07:44:38Z</time>
      </trkpt>
      <trkpt lat="45.60519" lon="4.89335">
        <ele>345.3</ele>
        <time>2016-03-20T07:44:40Z</time>
      </trkpt>
      <trkpt lat="45.60517" lon="4.89333">
        <ele>346</ele>
        <time>2016-03-20T07:44:42Z</time>
      </trkpt>
      <trkpt lat="45.60515" lon="4.89331">
        <ele>346.7</ele>
        <time>2016-03-20T07:44:44Z</time>
      </trkpt>
      <trkpt lat="45.60513" lon="4.89329">
        <ele>347.2</ele>
        <time>2016-03-20T07:44:46Z</time>
      </trkpt>
      <trkpt lat="45.60512" lon="4.89327">
        <ele>347.7</ele>
        <time>2016-03-20T07:44:48Z</time>
      </trkpt>
      <trkpt lat="45.60511" lon="4.89325">
        <ele>348.2</ele>
        <time>2016-03-20T07:44:50Z</time>
      </trkpt>
      <trkpt lat="45.6051" lon="4.89323">
        <ele>348.6</ele>
        <time>2016-03-20T07:44:52Z</time>
      </trkpt>
      <trkpt lat="45.60506" lon="4.89321">
        <ele>349.2</ele>
        <time>2016-03-20T07:44:56Z</time>
      </trkpt>
      <trkpt lat="45.60504" lon="4.8932">
        <ele>349.8</ele>
        <time>2016-03-20T07:44:58Z</time>
      </trkpt>
      <trkpt lat="45.60499" lon="4.8932">
        <ele>350.6</ele>
        <time>2016-03-20T07:45:00Z</time>
      </trkpt>
      <trkpt lat="45.60495" lon="4.89319">
        <ele>351.3</ele>
        <time>2016-03-20T07:45:02Z</time>
      </trkpt>
      <trkpt lat="45.60491" lon="4.89317">
        <ele>351.7</ele>
        <time>2016-03-20T07:45:04Z</time>
      </trkpt>
      <trkpt lat="45.6049" lon="4.89315">
        <ele>351.9</ele>
        <time>2016-03-20T07:45:06Z</time>
      </trkpt>
      <trkpt lat="45.60488" lon="4.89313">
        <ele>352.2</ele>
        <time>2016-03-20T07:45:08Z</time>
      </trkpt>
      <trkpt lat="45.60484" lon="4.89312">
        <ele>352.4</ele>
        <time>2016-03-20T07:45:10Z</time>
      </trkpt>
      <trkpt lat="45.6048" lon="4.89312">
        <ele>352.7</ele>
        <time>2016-03-20T07:45:12Z</time>
      </trkpt>
      <trkpt lat="45.60476" lon="4.89312">
        <ele>353</ele>
        <time>2016-03-20T07:45:14Z</time>
      </trkpt>
      <trkpt lat="45.60472" lon="4.89313">
        <ele>353.3</ele>
        <time>2016-03-20T07:45:16Z</time>
      </trkpt>
      <trkpt lat="45.60469" lon="4.89314">
        <ele>353.6</ele>
        <time>2016-03-20T07:45:18Z</time>
      </trkpt>
      <trkpt lat="45.60467" lon="4.89317">
        <ele>353.8</ele>
        <time>2016-03-20T07:45:20Z</time>
      </trkpt>
      <trkpt lat="45.60467" lon="4.89321">
        <ele>353.9</ele>
        <time>2016-03-20T07:45:22Z</time>
      </trkpt>
      <trkpt lat="45.6047" lon="4.89324">
        <ele>353.9</ele>
        <time>2016-03-20T07:45:24Z</time>
      </trkpt>
      <trkpt lat="45.60475" lon="4.89331">
        <ele>353.8</ele>
        <time>2016-03-20T07:45:26Z</time>
      </trkpt>
      <trkpt lat="45.6048" lon="4.8934">
        <ele>353.2</ele>
        <time>2016-03-20T07:45:28Z</time>
      </trkpt>
      <trkpt lat="45.60485" lon="4.89352">
        <ele>352.5</ele>
        <time>2016-03-20T07:45:30Z</time>
      </trkpt>
      <trkpt lat="45.60492" lon="4.8936">
        <ele>351.5</ele>
        <time>2016-03-20T07:45:32Z</time>
      </trkpt>
      <trkpt lat="45.60498" lon="4.89372">
        <ele>349.2</ele>
        <time>2016-03-20T07:45:34Z</time>
      </trkpt>
      <trkpt lat="45.60502" lon="4.89385">
        <ele>346.7</ele>
        <time>2016-03-20T07:45:36Z</time>
      </trkpt>
      <trkpt lat="45.60507" lon="4.89399">
        <ele>343.6</ele>
        <time>2016-03-20T07:45:38Z</time>
      </trkpt>
      <trkpt lat="45.60509" lon="4.89414">
        <ele>341.3</ele>
        <time>2016-03-20T07:45:40Z</time>
      </trkpt>
      <trkpt lat="45.60511" lon="4.8943">
        <ele>338.9</ele>
        <time>2016-03-20T07:45:42Z</time>
      </trkpt>
      <trkpt lat="45.60518" lon="4.89446">
        <ele>337.3</ele>
        <time>2016-03-20T07:45:44Z</time>
      </trkpt>
      <trkpt lat="45.60526" lon="4.89465">
        <ele>336.2</ele>
        <time>2016-03-20T07:45:46Z</time>
      </trkpt>
      <trkpt lat="45.60532" lon="4.89486">
        <ele>334.9</ele>
        <time>2016-03-20T07:45:48Z</time>
      </trkpt>
      <trkpt lat="45.6054" lon="4.89505">
        <ele>333.3</ele>
        <time>2016-03-20T07:45:50Z</time>
      </trkpt>
      <trkpt lat="45.60547" lon="4.89518">
        <ele>332</ele>
        <time>2016-03-20T07:45:52Z</time>
      </trkpt>
      <trkpt lat="45.60556" lon="4.89529">
        <ele>329.3</ele>
        <time>2016-03-20T07:45:54Z</time>
      </trkpt>
      <trkpt lat="45.60563" lon="4.8954">
        <ele>327</ele>
        <time>2016-03-20T07:45:56Z</time>
      </trkpt>
      <trkpt lat="45.6057" lon="4.89548">
        <ele>326</ele>
        <time>2016-03-20T07:45:58Z</time>
      </trkpt>
      <trkpt lat="45.60577" lon="4.89556">
        <ele>325.4</ele>
        <time>2016-03-20T07:46:00Z</time>
      </trkpt>
      <trkpt lat="45.60582" lon="4.89565">
        <ele>325.4</ele>
        <time>2016-03-20T07:46:02Z</time>
      </trkpt>
      <trkpt lat="45.60585" lon="4.89573">
        <ele>325.3</ele>
        <time>2016-03-20T07:46:04Z</time>
      </trkpt>
      <trkpt lat="45.60588" lon="4.89582">
        <ele>325.3</ele>
        <time>2016-03-20T07:46:06Z</time>
      </trkpt>
      <trkpt lat="45.60589" lon="4.89591">
        <ele>325.7</ele>
        <time>2016-03-20T07:46:08Z</time>
      </trkpt>
      <trkpt lat="45.6059" lon="4.89601">
        <ele>326.3</ele>
        <time>2016-03-20T07:46:10Z</time>
      </trkpt>
      <trkpt lat="45.60592" lon="4.89608">
        <ele>327</ele>
        <time>2016-03-20T07:46:12Z</time>
      </trkpt>
      <trkpt lat="45.60594" lon="4.89616">
        <ele>327.3</ele>
        <time>2016-03-20T07:46:14Z</time>
      </trkpt>
      <trkpt lat="45.60598" lon="4.89625">
        <ele>327.5</ele>
        <time>2016-03-20T07:46:16Z</time>
      </trkpt>
      <trkpt lat="45.60602" lon="4.89632">
        <ele>327.5</ele>
        <time>2016-03-20T07:46:18Z</time>
      </trkpt>
      <trkpt lat="45.60608" lon="4.8964">
        <ele>327.4</ele>
        <time>2016-03-20T07:46:20Z</time>
      </trkpt>
      <trkpt lat="45.60614" lon="4.89649">
        <ele>328.2</ele>
        <time>2016-03-20T07:46:22Z</time>
      </trkpt>
      <trkpt lat="45.60619" lon="4.89661">
        <ele>329</ele>
        <time>2016-03-20T07:46:24Z</time>
      </trkpt>
      <trkpt lat="45.60622" lon="4.89671">
        <ele>329.2</ele>
        <time>2016-03-20T07:46:26Z</time>
      </trkpt>
      <trkpt lat="45.60624" lon="4.89679">
        <ele>330</ele>
        <time>2016-03-20T07:46:28Z</time>
      </trkpt>
      <trkpt lat="45.60626" lon="4.89688">
        <ele>330.5</ele>
        <time>2016-03-20T07:46:30Z</time>
      </trkpt>
      <trkpt lat="45.60626" lon="4.89695">
        <ele>330.8</ele>
        <time>2016-03-20T07:46:32Z</time>
      </trkpt>
      <trkpt lat="45.60626" lon="4.89701">
        <ele>331.5</ele>
        <time>2016-03-20T07:46:34Z</time>
      </trkpt>
      <trkpt lat="45.60625" lon="4.89706">
        <ele>332</ele>
        <time>2016-03-20T07:46:36Z</time>
      </trkpt>
      <trkpt lat="45.60623" lon="4.89711">
        <ele>332.7</ele>
        <time>2016-03-20T07:46:38Z</time>
      </trkpt>
      <trkpt lat="45.60622" lon="4.89715">
        <ele>333.5</ele>
        <time>2016-03-20T07:46:40Z</time>
      </trkpt>
      <trkpt lat="45.60621" lon="4.89719">
        <ele>334</ele>
        <time>2016-03-20T07:46:42Z</time>
      </trkpt>
      <trkpt lat="45.6062" lon="4.89723">
        <ele>334.4</ele>
        <time>2016-03-20T07:46:44Z</time>
      </trkpt>
      <trkpt lat="45.60619" lon="4.89726">
        <ele>334.7</ele>
        <time>2016-03-20T07:46:46Z</time>
      </trkpt>
      <trkpt lat="45.60618" lon="4.8973">
        <ele>335.1</ele>
        <time>2016-03-20T07:46:48Z</time>
      </trkpt>
      <trkpt lat="45.60617" lon="4.89734">
        <ele>335.4</ele>
        <time>2016-03-20T07:46:50Z</time>
      </trkpt>
      <trkpt lat="45.60617" lon="4.89738">
        <ele>335.8</ele>
        <time>2016-03-20T07:46:52Z</time>
      </trkpt>
      <trkpt lat="45.60617" lon="4.89742">
        <ele>336.1</ele>
        <time>2016-03-20T07:46:54Z</time>
      </trkpt>
      <trkpt lat="45.60615" lon="4.89746">
        <ele>336.5</ele>
        <time>2016-03-20T07:46:56Z</time>
      </trkpt>
      <trkpt lat="45.60614" lon="4.8975">
        <ele>336.7</ele>
        <time>2016-03-20T07:46:58Z</time>
      </trkpt>
      <trkpt lat="45.60614" lon="4.89756">
        <ele>337</ele>
        <time>2016-03-20T07:47:04Z</time>
      </trkpt>
      <trkpt lat="45.60613" lon="4.89759">
        <ele>337</ele>
        <time>2016-03-20T07:47:06Z</time>
      </trkpt>
      <trkpt lat="45.60612" lon="4.89764">
        <ele>337.1</ele>
        <time>2016-03-20T07:47:08Z</time>
      </trkpt>
      <trkpt lat="45.60611" lon="4.89768">
        <ele>337.2</ele>
        <time>2016-03-20T07:47:10Z</time>
      </trkpt>
      <trkpt lat="45.6061" lon="4.89772">
        <ele>337.1</ele>
        <time>2016-03-20T07:47:12Z</time>
      </trkpt>
      <trkpt lat="45.60609" lon="4.89777">
        <ele>337.1</ele>
        <time>2016-03-20T07:47:14Z</time>
      </trkpt>
      <trkpt lat="45.60608" lon="4.89781">
        <ele>337.2</ele>
        <time>2016-03-20T07:47:16Z</time>
      </trkpt>
      <trkpt lat="45.60606" lon="4.89787">
        <ele>337.3</ele>
        <time>2016-03-20T07:47:18Z</time>
      </trkpt>
      <trkpt lat="45.60605" lon="4.89791">
        <ele>337.3</ele>
        <time>2016-03-20T07:47:20Z</time>
      </trkpt>
      <trkpt lat="45.60604" lon="4.89795">
        <ele>337.2</ele>
        <time>2016-03-20T07:47:22Z</time>
      </trkpt>
      <trkpt lat="45.60603" lon="4.898">
        <ele>337.1</ele>
        <time>2016-03-20T07:47:24Z</time>
      </trkpt>
      <trkpt lat="45.606" lon="4.89806">
        <ele>337</ele>
        <time>2016-03-20T07:47:26Z</time>
      </trkpt>
      <trkpt lat="45.60597" lon="4.89812">
        <ele>336.9</ele>
        <time>2016-03-20T07:47:28Z</time>
      </trkpt>
      <trkpt lat="45.60593" lon="4.89818">
        <ele>336.8</ele>
        <time>2016-03-20T07:47:30Z</time>
      </trkpt>
      <trkpt lat="45.60589" lon="4.89824">
        <ele>336.7</ele>
        <time>2016-03-20T07:47:32Z</time>
      </trkpt>
      <trkpt lat="45.60584" lon="4.8983">
        <ele>336.8</ele>
        <time>2016-03-20T07:47:34Z</time>
      </trkpt>
      <trkpt lat="45.60579" lon="4.89837">
        <ele>336.6</ele>
        <time>2016-03-20T07:47:36Z</time>
      </trkpt>
      <trkpt lat="45.60574" lon="4.89844">
        <ele>336.4</ele>
        <time>2016-03-20T07:47:38Z</time>
      </trkpt>
      <trkpt lat="45.60569" lon="4.89851">
        <ele>336.2</ele>
        <time>2016-03-20T07:47:40Z</time>
      </trkpt>
      <trkpt lat="45.60565" lon="4.89859">
        <ele>336.2</ele>
        <time>2016-03-20T07:47:42Z</time>
      </trkpt>
      <trkpt lat="45.6056" lon="4.89867">
        <ele>336.3</ele>
        <time>2016-03-20T07:47:44Z</time>
      </trkpt>
      <trkpt lat="45.60555" lon="4.89877">
        <ele>336.1</ele>
        <time>2016-03-20T07:47:46Z</time>
      </trkpt>
      <trkpt lat="45.60551" lon="4.89887">
        <ele>335.7</ele>
        <time>2016-03-20T07:47:48Z</time>
      </trkpt>
      <trkpt lat="45.60547" lon="4.89897">
        <ele>335.3</ele>
        <time>2016-03-20T07:47:50Z</time>
      </trkpt>
      <trkpt lat="45.60545" lon="4.89905">
        <ele>335.1</ele>
        <time>2016-03-20T07:47:52Z</time>
      </trkpt>
      <trkpt lat="45.60545" lon="4.89914">
        <ele>335</ele>
        <time>2016-03-20T07:47:54Z</time>
      </trkpt>
      <trkpt lat="45.60548" lon="4.89924">
        <ele>334.2</ele>
        <time>2016-03-20T07:47:56Z</time>
      </trkpt>
      <trkpt lat="45.60554" lon="4.89937">
        <ele>333.5</ele>
        <time>2016-03-20T07:47:58Z</time>
      </trkpt>
      <trkpt lat="45.60561" lon="4.89951">
        <ele>332.7</ele>
        <time>2016-03-20T07:48:00Z</time>
      </trkpt>
      <trkpt lat="45.60569" lon="4.89966">
        <ele>331.9</ele>
        <time>2016-03-20T07:48:02Z</time>
      </trkpt>
      <trkpt lat="45.60577" lon="4.89982">
        <ele>331.1</ele>
        <time>2016-03-20T07:48:04Z</time>
      </trkpt>
      <trkpt lat="45.60584" lon="4.89998">
        <ele>330.3</ele>
        <time>2016-03-20T07:48:06Z</time>
      </trkpt>
      <trkpt lat="45.60592" lon="4.90014">
        <ele>329.5</ele>
        <time>2016-03-20T07:48:08Z</time>
      </trkpt>
      <trkpt lat="45.60598" lon="4.90028">
        <ele>328.9</ele>
        <time>2016-03-20T07:48:10Z</time>
      </trkpt>
      <trkpt lat="45.60605" lon="4.9004">
        <ele>328.5</ele>
        <time>2016-03-20T07:48:12Z</time>
      </trkpt>
      <trkpt lat="45.6061" lon="4.90051">
        <ele>328.2</ele>
        <time>2016-03-20T07:48:14Z</time>
      </trkpt>
      <trkpt lat="45.60614" lon="4.90061">
        <ele>328.1</ele>
        <time>2016-03-20T07:48:16Z</time>
      </trkpt>
      <trkpt lat="45.60617" lon="4.9007">
        <ele>328</ele>
        <time>2016-03-20T07:48:18Z</time>
      </trkpt>
      <trkpt lat="45.60621" lon="4.90078">
        <ele>328</ele>
        <time>2016-03-20T07:48:20Z</time>
      </trkpt>
      <trkpt lat="45.60624" lon="4.90086">
        <ele>328.1</ele>
        <time>2016-03-20T07:48:22Z</time>
      </trkpt>
      <trkpt lat="45.60627" lon="4.90095">
        <ele>328.1</ele>
        <time>2016-03-20T07:48:24Z</time>
      </trkpt>
      <trkpt lat="45.60628" lon="4.90104">
        <ele>328.2</ele>
        <time>2016-03-20T07:48:26Z</time>
      </trkpt>
      <trkpt lat="45.6063" lon="4.90112">
        <ele>328.3</ele>
        <time>2016-03-20T07:48:28Z</time>
      </trkpt>
      <trkpt lat="45.60631" lon="4.90121">
        <ele>328.5</ele>
        <time>2016-03-20T07:48:30Z</time>
      </trkpt>
      <trkpt lat="45.60632" lon="4.90129">
        <ele>328.6</ele>
        <time>2016-03-20T07:48:32Z</time>
      </trkpt>
      <trkpt lat="45.60633" lon="4.90137">
        <ele>328.7</ele>
        <time>2016-03-20T07:48:34Z</time>
      </trkpt>
      <trkpt lat="45.60634" lon="4.90145">
        <ele>328.9</ele>
        <time>2016-03-20T07:48:36Z</time>
      </trkpt>
      <trkpt lat="45.60634" lon="4.90154">
        <ele>329.1</ele>
        <time>2016-03-20T07:48:38Z</time>
      </trkpt>
      <trkpt lat="45.60633" lon="4.90162">
        <ele>329.5</ele>
        <time>2016-03-20T07:48:40Z</time>
      </trkpt>
      <trkpt lat="45.60632" lon="4.9017">
        <ele>329.9</ele>
        <time>2016-03-20T07:48:42Z</time>
      </trkpt>
      <trkpt lat="45.6063" lon="4.90178">
        <ele>330.4</ele>
        <time>2016-03-20T07:48:44Z</time>
      </trkpt>
      <trkpt lat="45.60629" lon="4.90187">
        <ele>330.8</ele>
        <time>2016-03-20T07:48:46Z</time>
      </trkpt>
      <trkpt lat="45.60627" lon="4.90195">
        <ele>331.3</ele>
        <time>2016-03-20T07:48:48Z</time>
      </trkpt>
      <trkpt lat="45.60626" lon="4.90203">
        <ele>331.5</ele>
        <time>2016-03-20T07:48:50Z</time>
      </trkpt>
      <trkpt lat="45.60624" lon="4.90211">
        <ele>331.7</ele>
        <time>2016-03-20T07:48:52Z</time>
      </trkpt>
      <trkpt lat="45.60622" lon="4.90221">
        <ele>331.8</ele>
        <time>2016-03-20T07:48:54Z</time>
      </trkpt>
      <trkpt lat="45.60621" lon="4.90233">
        <ele>332</ele>
        <time>2016-03-20T07:48:56Z</time>
      </trkpt>
      <trkpt lat="45.60619" lon="4.90246">
        <ele>332.1</ele>
        <time>2016-03-20T07:48:58Z</time>
      </trkpt>
      <trkpt lat="45.60617" lon="4.90259">
        <ele>332.2</ele>
        <time>2016-03-20T07:49:00Z</time>
      </trkpt>
      <trkpt lat="45.60616" lon="4.90275">
        <ele>332.3</ele>
        <time>2016-03-20T07:49:02Z</time>
      </trkpt>
      <trkpt lat="45.60616" lon="4.90291">
        <ele>332.3</ele>
        <time>2016-03-20T07:49:04Z</time>
      </trkpt>
      <trkpt lat="45.60617" lon="4.90308">
        <ele>332.3</ele>
        <time>2016-03-20T07:49:06Z</time>
      </trkpt>
      <trkpt lat="45.60618" lon="4.90325">
        <ele>332.3</ele>
        <time>2016-03-20T07:49:08Z</time>
      </trkpt>
      <trkpt lat="45.60618" lon="4.90339">
        <ele>332.1</ele>
        <time>2016-03-20T07:49:10Z</time>
      </trkpt>
      <trkpt lat="45.6062" lon="4.90347">
        <ele>332</ele>
        <time>2016-03-20T07:49:12Z</time>
      </trkpt>
      <trkpt lat="45.60624" lon="4.90348">
        <ele>331.7</ele>
        <time>2016-03-20T07:49:14Z</time>
      </trkpt>
      <trkpt lat="45.6063" lon="4.90348">
        <ele>331.3</ele>
        <time>2016-03-20T07:49:16Z</time>
      </trkpt>
      <trkpt lat="45.6064" lon="4.90347">
        <ele>331</ele>
        <time>2016-03-20T07:49:18Z</time>
      </trkpt>
      <trkpt lat="45.60651" lon="4.90347">
        <ele>330.6</ele>
        <time>2016-03-20T07:49:20Z</time>
      </trkpt>
      <trkpt lat="45.60663" lon="4.90346">
        <ele>330.7</ele>
        <time>2016-03-20T07:49:22Z</time>
      </trkpt>
      <trkpt lat="45.60675" lon="4.90345">
        <ele>331.4</ele>
        <time>2016-03-20T07:49:24Z</time>
      </trkpt>
      <trkpt lat="45.60688" lon="4.90343">
        <ele>331</ele>
        <time>2016-03-20T07:49:26Z</time>
      </trkpt>
      <trkpt lat="45.60699" lon="4.90343">
        <ele>330</ele>
        <time>2016-03-20T07:49:28Z</time>
      </trkpt>
      <trkpt lat="45.60706" lon="4.90351">
        <ele>328.1</ele>
        <time>2016-03-20T07:49:30Z</time>
      </trkpt>
      <trkpt lat="45.6071" lon="4.90368">
        <ele>324.7</ele>
        <time>2016-03-20T07:49:32Z</time>
      </trkpt>
      <trkpt lat="45.60717" lon="4.90381">
        <ele>321.4</ele>
        <time>2016-03-20T07:49:34Z</time>
      </trkpt>
      <trkpt lat="45.60728" lon="4.90383">
        <ele>319.7</ele>
        <time>2016-03-20T07:49:36Z</time>
      </trkpt>
      <trkpt lat="45.60738" lon="4.90377">
        <ele>320</ele>
        <time>2016-03-20T07:49:38Z</time>
      </trkpt>
      <trkpt lat="45.60749" lon="4.90366">
        <ele>319.3</ele>
        <time>2016-03-20T07:49:40Z</time>
      </trkpt>
      <trkpt lat="45.60762" lon="4.90358">
        <ele>316.6</ele>
        <time>2016-03-20T07:49:42Z</time>
      </trkpt>
      <trkpt lat="45.60775" lon="4.90347">
        <ele>313.8</ele>
        <time>2016-03-20T07:49:44Z</time>
      </trkpt>
      <trkpt lat="45.60787" lon="4.90331">
        <ele>312</ele>
        <time>2016-03-20T07:49:46Z</time>
      </trkpt>
      <trkpt lat="45.60801" lon="4.90316">
        <ele>308.5</ele>
        <time>2016-03-20T07:49:48Z</time>
      </trkpt>
      <trkpt lat="45.60813" lon="4.90299">
        <ele>305.1</ele>
        <time>2016-03-20T07:49:50Z</time>
      </trkpt>
      <trkpt lat="45.60823" lon="4.90277">
        <ele>303.7</ele>
        <time>2016-03-20T07:49:52Z</time>
      </trkpt>
      <trkpt lat="45.60829" lon="4.90254">
        <ele>304.9</ele>
        <time>2016-03-20T07:49:54Z</time>
      </trkpt>
      <trkpt lat="45.60833" lon="4.90233">
        <ele>307</ele>
        <time>2016-03-20T07:49:56Z</time>
      </trkpt>
      <trkpt lat="45.60839" lon="4.90216">
        <ele>307</ele>
        <time>2016-03-20T07:49:58Z</time>
      </trkpt>
      <trkpt lat="45.6085" lon="4.90207">
        <ele>307.6</ele>
        <time>2016-03-20T07:50:00Z</time>
      </trkpt>
      <trkpt lat="45.60864" lon="4.90197">
        <ele>304.4</ele>
        <time>2016-03-20T07:50:02Z</time>
      </trkpt>
      <trkpt lat="45.60877" lon="4.90186">
        <ele>304.8</ele>
        <time>2016-03-20T07:50:04Z</time>
      </trkpt>
      <trkpt lat="45.60888" lon="4.90184">
        <ele>307</ele>
        <time>2016-03-20T07:50:06Z</time>
      </trkpt>
      <trkpt lat="45.60894" lon="4.90196">
        <ele>306.6</ele>
        <time>2016-03-20T07:50:08Z</time>
      </trkpt>
      <trkpt lat="45.60898" lon="4.90212">
        <ele>301.9</ele>
        <time>2016-03-20T07:50:10Z</time>
      </trkpt>
      <trkpt lat="45.60902" lon="4.90231">
        <ele>298.4</ele>
        <time>2016-03-20T07:50:12Z</time>
      </trkpt>
      <trkpt lat="45.60904" lon="4.90252">
        <ele>297.1</ele>
        <time>2016-03-20T07:50:14Z</time>
      </trkpt>
      <trkpt lat="45.60902" lon="4.90274">
        <ele>297</ele>
        <time>2016-03-20T07:50:16Z</time>
      </trkpt>
      <trkpt lat="45.60906" lon="4.90292">
        <ele>296.1</ele>
        <time>2016-03-20T07:50:18Z</time>
      </trkpt>
      <trkpt lat="45.60916" lon="4.90301">
        <ele>293.5</ele>
        <time>2016-03-20T07:50:20Z</time>
      </trkpt>
      <trkpt lat="45.60924" lon="4.90303">
        <ele>290.3</ele>
        <time>2016-03-20T07:50:22Z</time>
      </trkpt>
      <trkpt lat="45.60933" lon="4.90304">
        <ele>286.9</ele>
        <time>2016-03-20T07:50:24Z</time>
      </trkpt>
      <trkpt lat="45.60942" lon="4.90305">
        <ele>283.8</ele>
        <time>2016-03-20T07:50:26Z</time>
      </trkpt>
      <trkpt lat="45.60951" lon="4.90304">
        <ele>281.5</ele>
        <time>2016-03-20T07:50:28Z</time>
      </trkpt>
      <trkpt lat="45.6096" lon="4.90303">
        <ele>280.2</ele>
        <time>2016-03-20T07:50:30Z</time>
      </trkpt>
      <trkpt lat="45.6097" lon="4.90302">
        <ele>279.7</ele>
        <time>2016-03-20T07:50:32Z</time>
      </trkpt>
      <trkpt lat="45.6098" lon="4.90303">
        <ele>279</ele>
        <time>2016-03-20T07:50:34Z</time>
      </trkpt>
      <trkpt lat="45.6099" lon="4.90303">
        <ele>279</ele>
        <time>2016-03-20T07:50:36Z</time>
      </trkpt>
      <trkpt lat="45.61001" lon="4.90303">
        <ele>279.7</ele>
        <time>2016-03-20T07:50:38Z</time>
      </trkpt>
      <trkpt lat="45.61012" lon="4.90301">
        <ele>281.6</ele>
        <time>2016-03-20T07:50:40Z</time>
      </trkpt>
      <trkpt lat="45.61022" lon="4.903">
        <ele>281.3</ele>
        <time>2016-03-20T07:50:42Z</time>
      </trkpt>
      <trkpt lat="45.61032" lon="4.90298">
        <ele>280.7</ele>
        <time>2016-03-20T07:50:44Z</time>
      </trkpt>
      <trkpt lat="45.61042" lon="4.90297">
        <ele>279.2</ele>
        <time>2016-03-20T07:50:46Z</time>
      </trkpt>
      <trkpt lat="45.61053" lon="4.90297">
        <ele>278.9</ele>
        <time>2016-03-20T07:50:48Z</time>
      </trkpt>
      <trkpt lat="45.61063" lon="4.90298">
        <ele>279</ele>
        <time>2016-03-20T07:50:50Z</time>
      </trkpt>
      <trkpt lat="45.61073" lon="4.90299">
        <ele>280.6</ele>
        <time>2016-03-20T07:50:52Z</time>
      </trkpt>
      <trkpt lat="45.61083" lon="4.90298">
        <ele>281.7</ele>
        <time>2016-03-20T07:50:54Z</time>
      </trkpt>
      <trkpt lat="45.61092" lon="4.90297">
        <ele>282.4</ele>
        <time>2016-03-20T07:50:56Z</time>
      </trkpt>
      <trkpt lat="45.611" lon="4.90297">
        <ele>283.9</ele>
        <time>2016-03-20T07:50:58Z</time>
      </trkpt>
      <trkpt lat="45.61109" lon="4.90295">
        <ele>284.6</ele>
        <time>2016-03-20T07:51:00Z</time>
      </trkpt>
      <trkpt lat="45.61118" lon="4.90293">
        <ele>284</ele>
        <time>2016-03-20T07:51:02Z</time>
      </trkpt>
      <trkpt lat="45.61126" lon="4.90292">
        <ele>284.1</ele>
        <time>2016-03-20T07:51:04Z</time>
      </trkpt>
      <trkpt lat="45.61134" lon="4.90291">
        <ele>283.9</ele>
        <time>2016-03-20T07:51:06Z</time>
      </trkpt>
      <trkpt lat="45.61142" lon="4.90289">
        <ele>283.6</ele>
        <time>2016-03-20T07:51:08Z</time>
      </trkpt>
      <trkpt lat="45.61151" lon="4.90288">
        <ele>284</ele>
        <time>2016-03-20T07:51:10Z</time>
      </trkpt>
      <trkpt lat="45.6116" lon="4.90287">
        <ele>284.6</ele>
        <time>2016-03-20T07:51:12Z</time>
      </trkpt>
      <trkpt lat="45.6117" lon="4.90287">
        <ele>285.4</ele>
        <time>2016-03-20T07:51:14Z</time>
      </trkpt>
      <trkpt lat="45.61181" lon="4.90286">
        <ele>286</ele>
        <time>2016-03-20T07:51:16Z</time>
      </trkpt>
      <trkpt lat="45.61191" lon="4.90288">
        <ele>286.1</ele>
        <time>2016-03-20T07:51:18Z</time>
      </trkpt>
      <trkpt lat="45.61198" lon="4.90292">
        <ele>286.2</ele>
        <time>2016-03-20T07:51:20Z</time>
      </trkpt>
      <trkpt lat="45.61208" lon="4.90297">
        <ele>285.9</ele>
        <time>2016-03-20T07:51:22Z</time>
      </trkpt>
      <trkpt lat="45.61219" lon="4.90304">
        <ele>285.1</ele>
        <time>2016-03-20T07:51:24Z</time>
      </trkpt>
      <trkpt lat="45.6123" lon="4.90313">
        <ele>285.5</ele>
        <time>2016-03-20T07:51:26Z</time>
      </trkpt>
      <trkpt lat="45.61239" lon="4.90324">
        <ele>286</ele>
        <time>2016-03-20T07:51:28Z</time>
      </trkpt>
      <trkpt lat="45.61245" lon="4.90339">
        <ele>285.4</ele>
        <time>2016-03-20T07:51:30Z</time>
      </trkpt>
      <trkpt lat="45.61251" lon="4.90354">
        <ele>284.8</ele>
        <time>2016-03-20T07:51:32Z</time>
      </trkpt>
      <trkpt lat="45.61255" lon="4.90367">
        <ele>284</ele>
        <time>2016-03-20T07:51:34Z</time>
      </trkpt>
      <trkpt lat="45.6126" lon="4.90378">
        <ele>283</ele>
        <time>2016-03-20T07:51:36Z</time>
      </trkpt>
      <trkpt lat="45.61268" lon="4.90384">
        <ele>282.4</ele>
        <time>2016-03-20T07:51:38Z</time>
      </trkpt>
      <trkpt lat="45.6128" lon="4.90384">
        <ele>282.1</ele>
        <time>2016-03-20T07:51:40Z</time>
      </trkpt>
      <trkpt lat="45.61293" lon="4.90384">
        <ele>281.2</ele>
        <time>2016-03-20T07:51:42Z</time>
      </trkpt>
      <trkpt lat="45.61306" lon="4.90384">
        <ele>279.9</ele>
        <time>2016-03-20T07:51:44Z</time>
      </trkpt>
      <trkpt lat="45.61319" lon="4.90386">
        <ele>277.7</ele>
        <time>2016-03-20T07:51:46Z</time>
      </trkpt>
      <trkpt lat="45.61329" lon="4.90397">
        <ele>275</ele>
        <time>2016-03-20T07:51:48Z</time>
      </trkpt>
      <trkpt lat="45.61333" lon="4.90415">
        <ele>274.6</ele>
        <time>2016-03-20T07:51:50Z</time>
      </trkpt>
      <trkpt lat="45.61337" lon="4.90434">
        <ele>273</ele>
        <time>2016-03-20T07:51:52Z</time>
      </trkpt>
      <trkpt lat="45.61343" lon="4.90452">
        <ele>271.4</ele>
        <time>2016-03-20T07:51:54Z</time>
      </trkpt>
      <trkpt lat="45.61352" lon="4.90466">
        <ele>271.6</ele>
        <time>2016-03-20T07:51:56Z</time>
      </trkpt>
      <trkpt lat="45.61362" lon="4.90479">
        <ele>271.1</ele>
        <time>2016-03-20T07:51:58Z</time>
      </trkpt>
      <trkpt lat="45.61371" lon="4.90493">
        <ele>271.3</ele>
        <time>2016-03-20T07:52:00Z</time>
      </trkpt>
      <trkpt lat="45.61377" lon="4.90509">
        <ele>272.2</ele>
        <time>2016-03-20T07:52:02Z</time>
      </trkpt>
      <trkpt lat="45.61387" lon="4.9052">
        <ele>273</ele>
        <time>2016-03-20T07:52:04Z</time>
      </trkpt>
      <trkpt lat="45.61404" lon="4.90525">
        <ele>272.3</ele>
        <time>2016-03-20T07:52:06Z</time>
      </trkpt>
      <trkpt lat="45.61426" lon="4.90526">
        <ele>267.4</ele>
        <time>2016-03-20T07:52:08Z</time>
      </trkpt>
      <trkpt lat="45.61451" lon="4.90529">
        <ele>263.1</ele>
        <time>2016-03-20T07:52:10Z</time>
      </trkpt>
      <trkpt lat="45.61473" lon="4.90536">
        <ele>259.7</ele>
        <time>2016-03-20T07:52:12Z</time>
      </trkpt>
      <trkpt lat="45.61495" lon="4.90547">
        <ele>256</ele>
        <time>2016-03-20T07:52:14Z</time>
      </trkpt>
      <trkpt lat="45.61514" lon="4.90562">
        <ele>253.3</ele>
        <time>2016-03-20T07:52:16Z</time>
      </trkpt>
      <trkpt lat="45.6153" lon="4.90583">
        <ele>251</ele>
        <time>2016-03-20T07:52:18Z</time>
      </trkpt>
      <trkpt lat="45.6154" lon="4.90608">
        <ele>249.2</ele>
        <time>2016-03-20T07:52:20Z</time>
      </trkpt>
      <trkpt lat="45.61548" lon="4.90631">
        <ele>246.6</ele>
        <time>2016-03-20T07:52:22Z</time>
      </trkpt>
      <trkpt lat="45.61561" lon="4.90645">
        <ele>244.9</ele>
        <time>2016-03-20T07:52:24Z</time>
      </trkpt>
      <trkpt lat="45.61578" lon="4.90653">
        <ele>243</ele>
        <time>2016-03-20T07:52:26Z</time>
      </trkpt>
      <trkpt lat="45.61597" lon="4.90661">
        <ele>241.6</ele>
        <time>2016-03-20T07:52:28Z</time>
      </trkpt>
      <trkpt lat="45.61614" lon="4.90671">
        <ele>240.2</ele>
        <time>2016-03-20T07:52:30Z</time>
      </trkpt>
      <trkpt lat="45.6163" lon="4.90685">
        <ele>238.7</ele>
        <time>2016-03-20T07:52:32Z</time>
      </trkpt>
      <trkpt lat="45.61639" lon="4.907">
        <ele>237.4</ele>
        <time>2016-03-20T07:52:34Z</time>
      </trkpt>
      <trkpt lat="45.61639" lon="4.90715">
        <ele>237.2</ele>
        <time>2016-03-20T07:52:36Z</time>
      </trkpt>
      <trkpt lat="45.61637" lon="4.90729">
        <ele>237.3</ele>
        <time>2016-03-20T07:52:38Z</time>
      </trkpt>
      <trkpt lat="45.61634" lon="4.90741">
        <ele>236.9</ele>
        <time>2016-03-20T07:52:40Z</time>
      </trkpt>
      <trkpt lat="45.61631" lon="4.90753">
        <ele>236.5</ele>
        <time>2016-03-20T07:52:42Z</time>
      </trkpt>
      <trkpt lat="45.61627" lon="4.90765">
        <ele>235.3</ele>
        <time>2016-03-20T07:52:44Z</time>
      </trkpt>
      <trkpt lat="45.61623" lon="4.90778">
        <ele>234.1</ele>
        <time>2016-03-20T07:52:46Z</time>
      </trkpt>
      <trkpt lat="45.61618" lon="4.90792">
        <ele>232.3</ele>
        <time>2016-03-20T07:52:48Z</time>
      </trkpt>
      <trkpt lat="45.61614" lon="4.90805">
        <ele>230.7</ele>
        <time>2016-03-20T07:52:50Z</time>
      </trkpt>
      <trkpt lat="45.6161" lon="4.90818">
        <ele>229.8</ele>
        <time>2016-03-20T07:52:52Z</time>
      </trkpt>
      <trkpt lat="45.61604" lon="4.90829">
        <ele>229.4</ele>
        <time>2016-03-20T07:52:54Z</time>
      </trkpt>
      <trkpt lat="45.61596" lon="4.90836">
        <ele>229</ele>
        <time>2016-03-20T07:52:56Z</time>
      </trkpt>
      <trkpt lat="45.61587" lon="4.90843">
        <ele>229</ele>
        <time>2016-03-20T07:52:58Z</time>
      </trkpt>
      <trkpt lat="45.6158" lon="4.90853">
        <ele>229.7</ele>
        <time>2016-03-20T07:53:00Z</time>
      </trkpt>
      <trkpt lat="45.61573" lon="4.90863">
        <ele>230.3</ele>
        <time>2016-03-20T07:53:02Z</time>
      </trkpt>
      <trkpt lat="45.61569" lon="4.90876">
        <ele>230.7</ele>
        <time>2016-03-20T07:53:04Z</time>
      </trkpt>
      <trkpt lat="45.61565" lon="4.90888">
        <ele>231.4</ele>
        <time>2016-03-20T07:53:06Z</time>
      </trkpt>
      <trkpt lat="45.61559" lon="4.909">
        <ele>232.8</ele>
        <time>2016-03-20T07:53:08Z</time>
      </trkpt>
      <trkpt lat="45.61553" lon="4.9091">
        <ele>234.7</ele>
        <time>2016-03-20T07:53:10Z</time>
      </trkpt>
      <trkpt lat="45.61547" lon="4.9092">
        <ele>236.2</ele>
        <time>2016-03-20T07:53:12Z</time>
      </trkpt>
      <trkpt lat="45.61541" lon="4.9093">
        <ele>237.1</ele>
        <time>2016-03-20T07:53:14Z</time>
      </trkpt>
      <trkpt lat="45.61536" lon="4.9094">
        <ele>237.9</ele>
        <time>2016-03-20T07:53:16Z</time>
      </trkpt>
      <trkpt lat="45.6153" lon="4.90951">
        <ele>238.5</ele>
        <time>2016-03-20T07:53:18Z</time>
      </trkpt>
      <trkpt lat="45.61524" lon="4.90961">
        <ele>238.8</ele>
        <time>2016-03-20T07:53:20Z</time>
      </trkpt>
      <trkpt lat="45.61519" lon="4.90971">
        <ele>239.6</ele>
        <time>2016-03-20T07:53:22Z</time>
      </trkpt>
      <trkpt lat="45.61513" lon="4.90981">
        <ele>240.8</ele>
        <time>2016-03-20T07:53:24Z</time>
      </trkpt>
      <trkpt lat="45.61507" lon="4.90991">
        <ele>242.3</ele>
        <time>2016-03-20T07:53:26Z</time>
      </trkpt>
      <trkpt lat="45.61502" lon="4.91001">
        <ele>242.8</ele>
        <time>2016-03-20T07:53:28Z</time>
      </trkpt>
      <trkpt lat="45.61497" lon="4.9101">
        <ele>243.4</ele>
        <time>2016-03-20T07:53:30Z</time>
      </trkpt>
      <trkpt lat="45.61491" lon="4.91018">
        <ele>243.8</ele>
        <time>2016-03-20T07:53:32Z</time>
      </trkpt>
      <trkpt lat="45.61486" lon="4.91024">
        <ele>244</ele>
        <time>2016-03-20T07:53:34Z</time>
      </trkpt>
      <trkpt lat="45.61482" lon="4.91031">
        <ele>243.8</ele>
        <time>2016-03-20T07:53:36Z</time>
      </trkpt>
      <trkpt lat="45.61478" lon="4.91037">
        <ele>243.6</ele>
        <time>2016-03-20T07:53:38Z</time>
      </trkpt>
      <trkpt lat="45.61474" lon="4.91043">
        <ele>243.8</ele>
        <time>2016-03-20T07:53:40Z</time>
      </trkpt>
      <trkpt lat="45.6147" lon="4.91048">
        <ele>244</ele>
        <time>2016-03-20T07:53:42Z</time>
      </trkpt>
      <trkpt lat="45.61466" lon="4.91053">
        <ele>244.3</ele>
        <time>2016-03-20T07:53:44Z</time>
      </trkpt>
      <trkpt lat="45.61462" lon="4.91057">
        <ele>245</ele>
        <time>2016-03-20T07:53:46Z</time>
      </trkpt>
      <trkpt lat="45.61459" lon="4.9106">
        <ele>245.7</ele>
        <time>2016-03-20T07:53:48Z</time>
      </trkpt>
      <trkpt lat="45.61455" lon="4.91063">
        <ele>246.8</ele>
        <time>2016-03-20T07:53:50Z</time>
      </trkpt>
      <trkpt lat="45.61451" lon="4.91067">
        <ele>247.9</ele>
        <time>2016-03-20T07:53:52Z</time>
      </trkpt>
      <trkpt lat="45.61447" lon="4.91071">
        <ele>249</ele>
        <time>2016-03-20T07:53:54Z</time>
      </trkpt>
      <trkpt lat="45.61443" lon="4.91075">
        <ele>250.1</ele>
        <time>2016-03-20T07:53:56Z</time>
      </trkpt>
      <trkpt lat="45.6144" lon="4.9108">
        <ele>251</ele>
        <time>2016-03-20T07:53:58Z</time>
      </trkpt>
      <trkpt lat="45.61437" lon="4.91085">
        <ele>251.5</ele>
        <time>2016-03-20T07:54:00Z</time>
      </trkpt>
      <trkpt lat="45.61433" lon="4.9109">
        <ele>251.8</ele>
        <time>2016-03-20T07:54:02Z</time>
      </trkpt>
      <trkpt lat="45.61429" lon="4.91094">
        <ele>252</ele>
        <time>2016-03-20T07:54:04Z</time>
      </trkpt>
      <trkpt lat="45.61424" lon="4.91098">
        <ele>252.2</ele>
        <time>2016-03-20T07:54:06Z</time>
      </trkpt>
      <trkpt lat="45.61417" lon="4.91101">
        <ele>253.1</ele>
        <time>2016-03-20T07:54:08Z</time>
      </trkpt>
      <trkpt lat="45.61411" lon="4.91103">
        <ele>254.3</ele>
        <time>2016-03-20T07:54:10Z</time>
      </trkpt>
      <trkpt lat="45.61404" lon="4.91104">
        <ele>255.6</ele>
        <time>2016-03-20T07:54:12Z</time>
      </trkpt>
      <trkpt lat="45.61398" lon="4.91107">
        <ele>256.8</ele>
        <time>2016-03-20T07:54:14Z</time>
      </trkpt>
      <trkpt lat="45.61392" lon="4.91109">
        <ele>258</ele>
        <time>2016-03-20T07:54:16Z</time>
      </trkpt>
      <trkpt lat="45.61388" lon="4.91115">
        <ele>258.7</ele>
        <time>2016-03-20T07:54:18Z</time>
      </trkpt>
      <trkpt lat="45.61388" lon="4.9112">
        <ele>259.2</ele>
        <time>2016-03-20T07:54:20Z</time>
      </trkpt>
      <trkpt lat="45.61389" lon="4.91124">
        <ele>259.6</ele>
        <time>2016-03-20T07:54:22Z</time>
      </trkpt>
      <trkpt lat="45.6139" lon="4.91127">
        <ele>259.3</ele>
        <time>2016-03-20T07:54:24Z</time>
      </trkpt>
      <trkpt lat="45.61392" lon="4.9113">
        <ele>259</ele>
        <time>2016-03-20T07:54:26Z</time>
      </trkpt>
      <trkpt lat="45.61393" lon="4.91132">
        <ele>258.7</ele>
        <time>2016-03-20T07:54:28Z</time>
      </trkpt>
      <trkpt lat="45.61394" lon="4.91134">
        <ele>258.5</ele>
        <time>2016-03-20T07:54:30Z</time>
      </trkpt>
      <trkpt lat="45.61397" lon="4.91136">
        <ele>257.9</ele>
        <time>2016-03-20T07:54:34Z</time>
      </trkpt>
      <trkpt lat="45.61399" lon="4.91138">
        <ele>257.5</ele>
        <time>2016-03-20T07:54:36Z</time>
      </trkpt>
      <trkpt lat="45.61401" lon="4.9114">
        <ele>257.2</ele>
        <time>2016-03-20T07:54:38Z</time>
      </trkpt>
      <trkpt lat="45.61403" lon="4.91141">
        <ele>257</ele>
        <time>2016-03-20T07:54:40Z</time>
      </trkpt>
      <trkpt lat="45.61406" lon="4.91142">
        <ele>256.8</ele>
        <time>2016-03-20T07:54:42Z</time>
      </trkpt>
      <trkpt lat="45.61408" lon="4.91144">
        <ele>256.6</ele>
        <time>2016-03-20T07:54:44Z</time>
      </trkpt>
      <trkpt lat="45.61411" lon="4.91146">
        <ele>256.2</ele>
        <time>2016-03-20T07:54:46Z</time>
      </trkpt>
      <trkpt lat="45.61414" lon="4.91148">
        <ele>255.7</ele>
        <time>2016-03-20T07:54:48Z</time>
      </trkpt>
      <trkpt lat="45.61416" lon="4.91151">
        <ele>255.2</ele>
        <time>2016-03-20T07:54:50Z</time>
      </trkpt>
      <trkpt lat="45.61419" lon="4.91155">
        <ele>254.5</ele>
        <time>2016-03-20T07:54:52Z</time>
      </trkpt>
      <trkpt lat="45.61422" lon="4.91159">
        <ele>253.9</ele>
        <time>2016-03-20T07:54:54Z</time>
      </trkpt>
      <trkpt lat="45.61424" lon="4.91165">
        <ele>253.4</ele>
        <time>2016-03-20T07:54:56Z</time>
      </trkpt>
      <trkpt lat="45.61426" lon="4.9117">
        <ele>253.1</ele>
        <time>2016-03-20T07:54:58Z</time>
      </trkpt>
      <trkpt lat="45.61428" lon="4.91175">
        <ele>253.1</ele>
        <time>2016-03-20T07:55:00Z</time>
      </trkpt>
      <trkpt lat="45.61429" lon="4.91179">
        <ele>253</ele>
        <time>2016-03-20T07:55:02Z</time>
      </trkpt>
      <trkpt lat="45.61429" lon="4.91182">
        <ele>253</ele>
        <time>2016-03-20T07:55:04Z</time>
      </trkpt>
      <trkpt lat="45.61429" lon="4.91185">
        <ele>253.2</ele>
        <time>2016-03-20T07:55:06Z</time>
      </trkpt>
      <trkpt lat="45.61429" lon="4.91187">
        <ele>253.3</ele>
        <time>2016-03-20T07:55:08Z</time>
      </trkpt>
      <trkpt lat="45.61428" lon="4.9119">
        <ele>253.4</ele>
        <time>2016-03-20T07:55:10Z</time>
      </trkpt>
      <trkpt lat="45.61427" lon="4.91193">
        <ele>253.8</ele>
        <time>2016-03-20T07:55:12Z</time>
      </trkpt>
      <trkpt lat="45.61426" lon="4.91194">
        <ele>254</ele>
        <time>2016-03-20T07:55:14Z</time>
      </trkpt>
      <trkpt lat="45.61424" lon="4.91196">
        <ele>254.4</ele>
        <time>2016-03-20T07:55:16Z</time>
      </trkpt>
      <trkpt lat="45.61423" lon="4.91199">
        <ele>254.9</ele>
        <time>2016-03-20T07:55:18Z</time>
      </trkpt>
      <trkpt lat="45.61422" lon="4.91202">
        <ele>255.4</ele>
        <time>2016-03-20T07:55:20Z</time>
      </trkpt>
      <trkpt lat="45.6142" lon="4.91205">
        <ele>255.9</ele>
        <time>2016-03-20T07:55:22Z</time>
      </trkpt>
      <trkpt lat="45.61418" lon="4.91208">
        <ele>256.5</ele>
        <time>2016-03-20T07:55:24Z</time>
      </trkpt>
      <trkpt lat="45.61417" lon="4.91211">
        <ele>256.9</ele>
        <time>2016-03-20T07:55:26Z</time>
      </trkpt>
      <trkpt lat="45.61415" lon="4.91214">
        <ele>257.5</ele>
        <time>2016-03-20T07:55:28Z</time>
      </trkpt>
      <trkpt lat="45.61414" lon="4.91216">
        <ele>258</ele>
        <time>2016-03-20T07:55:30Z</time>
      </trkpt>
      <trkpt lat="45.61413" lon="4.9122">
        <ele>258.7</ele>
        <time>2016-03-20T07:55:32Z</time>
      </trkpt>
      <trkpt lat="45.61411" lon="4.91223">
        <ele>259.5</ele>
        <time>2016-03-20T07:55:34Z</time>
      </trkpt>
      <trkpt lat="45.61409" lon="4.91226">
        <ele>260.2</ele>
        <time>2016-03-20T07:55:36Z</time>
      </trkpt>
      <trkpt lat="45.61406" lon="4.91229">
        <ele>261</ele>
        <time>2016-03-20T07:55:38Z</time>
      </trkpt>
      <trkpt lat="45.61405" lon="4.91231">
        <ele>261.5</ele>
        <time>2016-03-20T07:55:40Z</time>
      </trkpt>
      <trkpt lat="45.61403" lon="4.91233">
        <ele>262</ele>
        <time>2016-03-20T07:55:42Z</time>
      </trkpt>
      <trkpt lat="45.61402" lon="4.91234">
        <ele>262.5</ele>
        <time>2016-03-20T07:55:44Z</time>
      </trkpt>
      <trkpt lat="45.614" lon="4.91237">
        <ele>263.4</ele>
        <time>2016-03-20T07:55:48Z</time>
      </trkpt>
      <trkpt lat="45.61398" lon="4.91239">
        <ele>264.1</ele>
        <time>2016-03-20T07:55:50Z</time>
      </trkpt>
      <trkpt lat="45.61395" lon="4.91243">
        <ele>265.1</ele>
        <time>2016-03-20T07:55:56Z</time>
      </trkpt>
      <trkpt lat="45.61393" lon="4.91245">
        <ele>265.7</ele>
        <time>2016-03-20T07:55:58Z</time>
      </trkpt>
      <trkpt lat="45.61392" lon="4.91247">
        <ele>266.3</ele>
        <time>2016-03-20T07:56:00Z</time>
      </trkpt>
      <trkpt lat="45.61391" lon="4.91249">
        <ele>266.8</ele>
        <time>2016-03-20T07:56:02Z</time>
      </trkpt>
      <trkpt lat="45.6139" lon="4.91249">
        <ele>267.2</ele>
        <time>2016-03-20T07:56:04Z</time>
      </trkpt>
      <trkpt lat="45.61388" lon="4.91251">
        <ele>268</ele>
        <time>2016-03-20T07:56:06Z</time>
      </trkpt>
      <trkpt lat="45.61385" lon="4.91255">
        <ele>269.2</ele>
        <time>2016-03-20T07:56:10Z</time>
      </trkpt>
      <trkpt lat="45.61384" lon="4.91257">
        <ele>269.9</ele>
        <time>2016-03-20T07:56:12Z</time>
      </trkpt>
      <trkpt lat="45.61382" lon="4.91259">
        <ele>270.5</ele>
        <time>2016-03-20T07:56:14Z</time>
      </trkpt>
      <trkpt lat="45.61381" lon="4.91262">
        <ele>271.1</ele>
        <time>2016-03-20T07:56:16Z</time>
      </trkpt>
      <trkpt lat="45.61376" lon="4.9127">
        <ele>273</ele>
        <time>2016-03-20T07:56:30Z</time>
      </trkpt>
      <trkpt lat="45.61374" lon="4.91272">
        <ele>273.5</ele>
        <time>2016-03-20T07:56:32Z</time>
      </trkpt>
      <trkpt lat="45.61371" lon="4.91276">
        <ele>274.5</ele>
        <time>2016-03-20T07:56:34Z</time>
      </trkpt>
      <trkpt lat="45.61369" lon="4.91278">
        <ele>275.2</ele>
        <time>2016-03-20T07:56:36Z</time>
      </trkpt>
      <trkpt lat="45.61367" lon="4.9128">
        <ele>275.7</ele>
        <time>2016-03-20T07:56:38Z</time>
      </trkpt>
      <trkpt lat="45.61364" lon="4.91282">
        <ele>276.3</ele>
        <time>2016-03-20T07:56:40Z</time>
      </trkpt>
      <trkpt lat="45.61362" lon="4.91284">
        <ele>276.9</ele>
        <time>2016-03-20T07:56:42Z</time>
      </trkpt>
      <trkpt lat="45.61359" lon="4.91286">
        <ele>277.6</ele>
        <time>2016-03-20T07:56:44Z</time>
      </trkpt>
      <trkpt lat="45.61357" lon="4.91289">
        <ele>278.2</ele>
        <time>2016-03-20T07:56:46Z</time>
      </trkpt>
      <trkpt lat="45.61356" lon="4.91291">
        <ele>278.5</ele>
        <time>2016-03-20T07:56:48Z</time>
      </trkpt>
      <trkpt lat="45.61354" lon="4.91293">
        <ele>278.9</ele>
        <time>2016-03-20T07:56:50Z</time>
      </trkpt>
      <trkpt lat="45.61353" lon="4.91295">
        <ele>279.2</ele>
        <time>2016-03-20T07:56:52Z</time>
      </trkpt>
      <trkpt lat="45.61351" lon="4.91296">
        <ele>279.4</ele>
        <time>2016-03-20T07:56:54Z</time>
      </trkpt>
      <trkpt lat="45.6135" lon="4.91298">
        <ele>279.6</ele>
        <time>2016-03-20T07:56:56Z</time>
      </trkpt>
      <trkpt lat="45.61348" lon="4.91302">
        <ele>280</ele>
        <time>2016-03-20T07:56:58Z</time>
      </trkpt>
      <trkpt lat="45.61344" lon="4.91305">
        <ele>280.4</ele>
        <time>2016-03-20T07:57:00Z</time>
      </trkpt>
      <trkpt lat="45.6134" lon="4.91306">
        <ele>280.8</ele>
        <time>2016-03-20T07:57:02Z</time>
      </trkpt>
      <trkpt lat="45.61337" lon="4.91306">
        <ele>281</ele>
        <time>2016-03-20T07:57:04Z</time>
      </trkpt>
      <trkpt lat="45.61334" lon="4.91307">
        <ele>281.2</ele>
        <time>2016-03-20T07:57:06Z</time>
      </trkpt>
      <trkpt lat="45.61331" lon="4.91306">
        <ele>281.4</ele>
        <time>2016-03-20T07:57:08Z</time>
      </trkpt>
      <trkpt lat="45.61329" lon="4.91305">
        <ele>281.7</ele>
        <time>2016-03-20T07:57:10Z</time>
      </trkpt>
      <trkpt lat="45.61326" lon="4.91305">
        <ele>282</ele>
        <time>2016-03-20T07:57:12Z</time>
      </trkpt>
      <trkpt lat="45.61323" lon="4.91305">
        <ele>282.3</ele>
        <time>2016-03-20T07:57:14Z</time>
      </trkpt>
      <trkpt lat="45.6132" lon="4.91305">
        <ele>282.7</ele>
        <time>2016-03-20T07:57:16Z</time>
      </trkpt>
      <trkpt lat="45.61317" lon="4.91306">
        <ele>283.2</ele>
        <time>2016-03-20T07:57:18Z</time>
      </trkpt>
      <trkpt lat="45.61314" lon="4.91307">
        <ele>283.6</ele>
        <time>2016-03-20T07:57:20Z</time>
      </trkpt>
      <trkpt lat="45.61312" lon="4.91308">
        <ele>284.1</ele>
        <time>2016-03-20T07:57:22Z</time>
      </trkpt>
      <trkpt lat="45.61309" lon="4.91308">
        <ele>284.7</ele>
        <time>2016-03-20T07:57:24Z</time>
      </trkpt>
      <trkpt lat="45.61306" lon="4.91309">
        <ele>285.1</ele>
        <time>2016-03-20T07:57:26Z</time>
      </trkpt>
      <trkpt lat="45.61303" lon="4.91309">
        <ele>285.6</ele>
        <time>2016-03-20T07:57:28Z</time>
      </trkpt>
      <trkpt lat="45.61301" lon="4.91309">
        <ele>286.1</ele>
        <time>2016-03-20T07:57:30Z</time>
      </trkpt>
      <trkpt lat="45.61298" lon="4.9131">
        <ele>286.6</ele>
        <time>2016-03-20T07:57:32Z</time>
      </trkpt>
      <trkpt lat="45.61295" lon="4.91311">
        <ele>287.1</ele>
        <time>2016-03-20T07:57:34Z</time>
      </trkpt>
      <trkpt lat="45.61293" lon="4.91311">
        <ele>287.1</ele>
        <time>2016-03-20T07:57:36Z</time>
      </trkpt>
      <trkpt lat="45.6129" lon="4.91313">
        <ele>287.9</ele>
        <time>2016-03-20T07:57:38Z</time>
      </trkpt>
      <trkpt lat="45.61288" lon="4.91313">
        <ele>288.4</ele>
        <time>2016-03-20T07:57:40Z</time>
      </trkpt>
      <trkpt lat="45.61286" lon="4.91314">
        <ele>288.8</ele>
        <time>2016-03-20T07:57:42Z</time>
      </trkpt>
      <trkpt lat="45.61284" lon="4.91315">
        <ele>289.1</ele>
        <time>2016-03-20T07:57:44Z</time>
      </trkpt>
      <trkpt lat="45.61282" lon="4.91315">
        <ele>289.1</ele>
        <time>2016-03-20T07:57:46Z</time>
      </trkpt>
      <trkpt lat="45.6128" lon="4.91315">
        <ele>289.3</ele>
        <time>2016-03-20T07:57:48Z</time>
      </trkpt>
      <trkpt lat="45.61277" lon="4.91316">
        <ele>289.5</ele>
        <time>2016-03-20T07:57:50Z</time>
      </trkpt>
      <trkpt lat="45.61276" lon="4.91317">
        <ele>290</ele>
        <time>2016-03-20T07:57:52Z</time>
      </trkpt>
      <trkpt lat="45.61274" lon="4.91317">
        <ele>290.1</ele>
        <time>2016-03-20T07:57:54Z</time>
      </trkpt>
      <trkpt lat="45.61272" lon="4.91318">
        <ele>290.1</ele>
        <time>2016-03-20T07:57:56Z</time>
      </trkpt>
      <trkpt lat="45.61269" lon="4.91319">
        <ele>290.2</ele>
        <time>2016-03-20T07:57:58Z</time>
      </trkpt>
      <trkpt lat="45.61268" lon="4.9132">
        <ele>290.4</ele>
        <time>2016-03-20T07:58:00Z</time>
      </trkpt>
      <trkpt lat="45.61266" lon="4.91321">
        <ele>291.1</ele>
        <time>2016-03-20T07:58:02Z</time>
      </trkpt>
      <trkpt lat="45.61264" lon="4.91322">
        <ele>291</ele>
        <time>2016-03-20T07:58:04Z</time>
      </trkpt>
      <trkpt lat="45.61261" lon="4.91323">
        <ele>291.2</ele>
        <time>2016-03-20T07:58:06Z</time>
      </trkpt>
      <trkpt lat="45.61259" lon="4.91325">
        <ele>291.9</ele>
        <time>2016-03-20T07:58:10Z</time>
      </trkpt>
      <trkpt lat="45.61257" lon="4.91328">
        <ele>291.8</ele>
        <time>2016-03-20T07:58:12Z</time>
      </trkpt>
      <trkpt lat="45.61254" lon="4.91331">
        <ele>292.5</ele>
        <time>2016-03-20T07:58:16Z</time>
      </trkpt>
      <trkpt lat="45.61253" lon="4.91333">
        <ele>292.6</ele>
        <time>2016-03-20T07:58:18Z</time>
      </trkpt>
      <trkpt lat="45.61251" lon="4.91334">
        <ele>293.1</ele>
        <time>2016-03-20T07:58:20Z</time>
      </trkpt>
      <trkpt lat="45.61249" lon="4.91336">
        <ele>293.3</ele>
        <time>2016-03-20T07:58:22Z</time>
      </trkpt>
      <trkpt lat="45.61247" lon="4.91339">
        <ele>294</ele>
        <time>2016-03-20T07:58:24Z</time>
      </trkpt>
      <trkpt lat="45.61245" lon="4.9134">
        <ele>294</ele>
        <time>2016-03-20T07:58:26Z</time>
      </trkpt>
      <trkpt lat="45.61244" lon="4.91343">
        <ele>294.9</ele>
        <time>2016-03-20T07:58:28Z</time>
      </trkpt>
      <trkpt lat="45.61242" lon="4.91347">
        <ele>296</ele>
        <time>2016-03-20T07:58:32Z</time>
      </trkpt>
      <trkpt lat="45.6124" lon="4.91348">
        <ele>295.9</ele>
        <time>2016-03-20T07:58:34Z</time>
      </trkpt>
      <trkpt lat="45.61238" lon="4.9135">
        <ele>296.3</ele>
        <time>2016-03-20T07:58:36Z</time>
      </trkpt>
      <trkpt lat="45.61236" lon="4.91351">
        <ele>297</ele>
        <time>2016-03-20T07:58:38Z</time>
      </trkpt>
      <trkpt lat="45.61235" lon="4.91353">
        <ele>297.5</ele>
        <time>2016-03-20T07:58:40Z</time>
      </trkpt>
      <trkpt lat="45.61233" lon="4.91355">
        <ele>297.4</ele>
        <time>2016-03-20T07:58:42Z</time>
      </trkpt>
      <trkpt lat="45.61231" lon="4.91357">
        <ele>298.6</ele>
        <time>2016-03-20T07:58:44Z</time>
      </trkpt>
      <trkpt lat="45.61224" lon="4.91367">
        <ele>301.3</ele>
        <time>2016-03-20T07:59:10Z</time>
      </trkpt>
      <trkpt lat="45.61223" lon="4.91369">
        <ele>302.1</ele>
        <time>2016-03-20T07:59:12Z</time>
      </trkpt>
      <trkpt lat="45.61223" lon="4.91372">
        <ele>302.9</ele>
        <time>2016-03-20T07:59:14Z</time>
      </trkpt>
      <trkpt lat="45.61222" lon="4.91377">
        <ele>303.7</ele>
        <time>2016-03-20T07:59:18Z</time>
      </trkpt>
      <trkpt lat="45.61221" lon="4.9138">
        <ele>303.7</ele>
        <time>2016-03-20T07:59:20Z</time>
      </trkpt>
      <trkpt lat="45.61221" lon="4.91383">
        <ele>304.4</ele>
        <time>2016-03-20T07:59:22Z</time>
      </trkpt>
      <trkpt lat="45.61222" lon="4.91385">
        <ele>305</ele>
        <time>2016-03-20T07:59:24Z</time>
      </trkpt>
      <trkpt lat="45.61222" lon="4.91388">
        <ele>304.9</ele>
        <time>2016-03-20T07:59:26Z</time>
      </trkpt>
      <trkpt lat="45.61222" lon="4.91391">
        <ele>305.4</ele>
        <time>2016-03-20T07:59:28Z</time>
      </trkpt>
      <trkpt lat="45.61222" lon="4.91394">
        <ele>305.9</ele>
        <time>2016-03-20T07:59:30Z</time>
      </trkpt>
      <trkpt lat="45.61221" lon="4.91396">
        <ele>306.4</ele>
        <time>2016-03-20T07:59:32Z</time>
      </trkpt>
      <trkpt lat="45.61219" lon="4.91397">
        <ele>306.4</ele>
        <time>2016-03-20T07:59:34Z</time>
      </trkpt>
      <trkpt lat="45.61219" lon="4.914">
        <ele>306.8</ele>
        <time>2016-03-20T07:59:36Z</time>
      </trkpt>
      <trkpt lat="45.61219" lon="4.91402">
        <ele>306.8</ele>
        <time>2016-03-20T07:59:40Z</time>
      </trkpt>
      <trkpt lat="45.61218" lon="4.91405">
        <ele>307.2</ele>
        <time>2016-03-20T07:59:42Z</time>
      </trkpt>
      <trkpt lat="45.61218" lon="4.91408">
        <ele>308.3</ele>
        <time>2016-03-20T07:59:44Z</time>
      </trkpt>
      <trkpt lat="45.61216" lon="4.9141">
        <ele>308.3</ele>
        <time>2016-03-20T07:59:46Z</time>
      </trkpt>
      <trkpt lat="45.61215" lon="4.91412">
        <ele>308.7</ele>
        <time>2016-03-20T07:59:48Z</time>
      </trkpt>
      <trkpt lat="45.61214" lon="4.91415">
        <ele>309.4</ele>
        <time>2016-03-20T07:59:50Z</time>
      </trkpt>
      <trkpt lat="45.61213" lon="4.91417">
        <ele>309.7</ele>
        <time>2016-03-20T07:59:52Z</time>
      </trkpt>
      <trkpt lat="45.61211" lon="4.91418">
        <ele>310.4</ele>
        <time>2016-03-20T07:59:54Z</time>
      </trkpt>
      <trkpt lat="45.61208" lon="4.91422">
        <ele>311.4</ele>
        <time>2016-03-20T08:00:00Z</time>
      </trkpt>
      <trkpt lat="45.61206" lon="4.91427">
        <ele>311.8</ele>
        <time>2016-03-20T08:00:06Z</time>
      </trkpt>
      <trkpt lat="45.61205" lon="4.91429">
        <ele>312.8</ele>
        <time>2016-03-20T08:00:08Z</time>
      </trkpt>
      <trkpt lat="45.61203" lon="4.91433">
        <ele>313.7</ele>
        <time>2016-03-20T08:00:12Z</time>
      </trkpt>
      <trkpt lat="45.61201" lon="4.91435">
        <ele>313.7</ele>
        <time>2016-03-20T08:00:14Z</time>
      </trkpt>
      <trkpt lat="45.612" lon="4.91436">
        <ele>313.9</ele>
        <time>2016-03-20T08:00:16Z</time>
      </trkpt>
      <trkpt lat="45.61198" lon="4.91439">
        <ele>314.4</ele>
        <time>2016-03-20T08:00:20Z</time>
      </trkpt>
      <trkpt lat="45.61197" lon="4.91441">
        <ele>314.5</ele>
        <time>2016-03-20T08:00:22Z</time>
      </trkpt>
      <trkpt lat="45.61195" lon="4.91444">
        <ele>314.7</ele>
        <time>2016-03-20T08:00:26Z</time>
      </trkpt>
      <trkpt lat="45.61194" lon="4.91447">
        <ele>314.9</ele>
        <time>2016-03-20T08:00:28Z</time>
      </trkpt>
      <trkpt lat="45.61189" lon="4.91452">
        <ele>316.2</ele>
        <time>2016-03-20T08:00:34Z</time>
      </trkpt>
      <trkpt lat="45.61186" lon="4.91456">
        <ele>317.2</ele>
        <time>2016-03-20T08:00:40Z</time>
      </trkpt>
      <trkpt lat="45.61184" lon="4.91457">
        <ele>317.6</ele>
        <time>2016-03-20T08:00:42Z</time>
      </trkpt>
      <trkpt lat="45.61182" lon="4.91459">
        <ele>317.9</ele>
        <time>2016-03-20T08:00:44Z</time>
      </trkpt>
      <trkpt lat="45.61179" lon="4.91462">
        <ele>318.6</ele>
        <time>2016-03-20T08:00:50Z</time>
      </trkpt>
      <trkpt lat="45.61177" lon="4.91463">
        <ele>318.9</ele>
        <time>2016-03-20T08:00:52Z</time>
      </trkpt>
      <trkpt lat="45.61175" lon="4.91465">
        <ele>319.2</ele>
        <time>2016-03-20T08:00:54Z</time>
      </trkpt>
      <trkpt lat="45.61174" lon="4.91466">
        <ele>319.5</ele>
        <time>2016-03-20T08:00:56Z</time>
      </trkpt>
      <trkpt lat="45.61172" lon="4.91468">
        <ele>319.8</ele>
        <time>2016-03-20T08:00:58Z</time>
      </trkpt>
      <trkpt lat="45.61171" lon="4.91469">
        <ele>320.1</ele>
        <time>2016-03-20T08:01:00Z</time>
      </trkpt>
      <trkpt lat="45.61169" lon="4.91471">
        <ele>320.6</ele>
        <time>2016-03-20T08:01:02Z</time>
      </trkpt>
      <trkpt lat="45.61168" lon="4.91473">
        <ele>320.8</ele>
        <time>2016-03-20T08:01:04Z</time>
      </trkpt>
      <trkpt lat="45.61165" lon="4.91475">
        <ele>321.2</ele>
        <time>2016-03-20T08:01:06Z</time>
      </trkpt>
      <trkpt lat="45.6116" lon="4.91482">
        <ele>321.9</ele>
        <time>2016-03-20T08:01:08Z</time>
      </trkpt>
      <trkpt lat="45.61158" lon="4.91484">
        <ele>322.2</ele>
        <time>2016-03-20T08:01:10Z</time>
      </trkpt>
      <trkpt lat="45.61157" lon="4.91486">
        <ele>322.3</ele>
        <time>2016-03-20T08:01:12Z</time>
      </trkpt>
      <trkpt lat="45.61156" lon="4.9149">
        <ele>322.7</ele>
        <time>2016-03-20T08:01:16Z</time>
      </trkpt>
      <trkpt lat="45.61155" lon="4.91493">
        <ele>322.9</ele>
        <time>2016-03-20T08:01:18Z</time>
      </trkpt>
      <trkpt lat="45.61153" lon="4.91496">
        <ele>323.1</ele>
        <time>2016-03-20T08:01:20Z</time>
      </trkpt>
      <trkpt lat="45.61152" lon="4.91498">
        <ele>323.2</ele>
        <time>2016-03-20T08:01:22Z</time>
      </trkpt>
      <trkpt lat="45.61149" lon="4.91501">
        <ele>323.4</ele>
        <time>2016-03-20T08:01:26Z</time>
      </trkpt>
      <trkpt lat="45.61147" lon="4.91505">
        <ele>323.5</ele>
        <time>2016-03-20T08:01:28Z</time>
      </trkpt>
      <trkpt lat="45.61145" lon="4.91509">
        <ele>323.6</ele>
        <time>2016-03-20T08:01:32Z</time>
      </trkpt>
      <trkpt lat="45.61144" lon="4.91512">
        <ele>323.7</ele>
        <time>2016-03-20T08:01:34Z</time>
      </trkpt>
      <trkpt lat="45.61144" lon="4.91515">
        <ele>323.8</ele>
        <time>2016-03-20T08:01:36Z</time>
      </trkpt>
      <trkpt lat="45.61143" lon="4.91518">
        <ele>323.9</ele>
        <time>2016-03-20T08:01:38Z</time>
      </trkpt>
      <trkpt lat="45.61142" lon="4.9152">
        <ele>324</ele>
        <time>2016-03-20T08:01:40Z</time>
      </trkpt>
      <trkpt lat="45.61141" lon="4.91523">
        <ele>324.1</ele>
        <time>2016-03-20T08:01:46Z</time>
      </trkpt>
      <trkpt lat="45.61141" lon="4.91526">
        <ele>324.3</ele>
        <time>2016-03-20T08:01:48Z</time>
      </trkpt>
      <trkpt lat="45.61141" lon="4.9153">
        <ele>324.5</ele>
        <time>2016-03-20T08:01:50Z</time>
      </trkpt>
      <trkpt lat="45.61141" lon="4.91534">
        <ele>324.7</ele>
        <time>2016-03-20T08:01:52Z</time>
      </trkpt>
      <trkpt lat="45.61139" lon="4.91537">
        <ele>324.9</ele>
        <time>2016-03-20T08:01:54Z</time>
      </trkpt>
      <trkpt lat="45.61139" lon="4.91541">
        <ele>325.1</ele>
        <time>2016-03-20T08:01:56Z</time>
      </trkpt>
      <trkpt lat="45.61139" lon="4.91545">
        <ele>325.3</ele>
        <time>2016-03-20T08:01:58Z</time>
      </trkpt>
      <trkpt lat="45.61137" lon="4.91548">
        <ele>325.4</ele>
        <time>2016-03-20T08:02:00Z</time>
      </trkpt>
      <trkpt lat="45.61136" lon="4.91552">
        <ele>325.6</ele>
        <time>2016-03-20T08:02:02Z</time>
      </trkpt>
      <trkpt lat="45.61135" lon="4.91556">
        <ele>325.8</ele>
        <time>2016-03-20T08:02:04Z</time>
      </trkpt>
      <trkpt lat="45.61133" lon="4.91559">
        <ele>325.9</ele>
        <time>2016-03-20T08:02:06Z</time>
      </trkpt>
      <trkpt lat="45.6113" lon="4.91562">
        <ele>326.1</ele>
        <time>2016-03-20T08:02:08Z</time>
      </trkpt>
      <trkpt lat="45.61127" lon="4.91564">
        <ele>326.5</ele>
        <time>2016-03-20T08:02:10Z</time>
      </trkpt>
      <trkpt lat="45.61124" lon="4.91565">
        <ele>326.8</ele>
        <time>2016-03-20T08:02:12Z</time>
      </trkpt>
      <trkpt lat="45.61122" lon="4.91567">
        <ele>326.9</ele>
        <time>2016-03-20T08:02:14Z</time>
      </trkpt>
      <trkpt lat="45.6112" lon="4.91568">
        <ele>327</ele>
        <time>2016-03-20T08:02:16Z</time>
      </trkpt>
      <trkpt lat="45.61117" lon="4.91569">
        <ele>327.1</ele>
        <time>2016-03-20T08:02:18Z</time>
      </trkpt>
      <trkpt lat="45.61115" lon="4.9157">
        <ele>327.1</ele>
        <time>2016-03-20T08:02:20Z</time>
      </trkpt>
      <trkpt lat="45.61112" lon="4.91571">
        <ele>327</ele>
        <time>2016-03-20T08:02:22Z</time>
      </trkpt>
      <trkpt lat="45.6111" lon="4.91573">
        <ele>327</ele>
        <time>2016-03-20T08:02:24Z</time>
      </trkpt>
      <trkpt lat="45.61108" lon="4.91575">
        <ele>327</ele>
        <time>2016-03-20T08:02:26Z</time>
      </trkpt>
      <trkpt lat="45.61106" lon="4.91577">
        <ele>327</ele>
        <time>2016-03-20T08:02:28Z</time>
      </trkpt>
      <trkpt lat="45.61104" lon="4.91578">
        <ele>326.9</ele>
        <time>2016-03-20T08:02:30Z</time>
      </trkpt>
      <trkpt lat="45.61102" lon="4.9158">
        <ele>326.9</ele>
        <time>2016-03-20T08:02:32Z</time>
      </trkpt>
      <trkpt lat="45.611" lon="4.91584">
        <ele>326.8</ele>
        <time>2016-03-20T08:02:34Z</time>
      </trkpt>
      <trkpt lat="45.61099" lon="4.91586">
        <ele>326.7</ele>
        <time>2016-03-20T08:02:36Z</time>
      </trkpt>
      <trkpt lat="45.61097" lon="4.9159">
        <ele>326.6</ele>
        <time>2016-03-20T08:02:38Z</time>
      </trkpt>
      <trkpt lat="45.61096" lon="4.91594">
        <ele>326.5</ele>
        <time>2016-03-20T08:02:40Z</time>
      </trkpt>
      <trkpt lat="45.61096" lon="4.91597">
        <ele>326.5</ele>
        <time>2016-03-20T08:02:42Z</time>
      </trkpt>
      <trkpt lat="45.61095" lon="4.916">
        <ele>326.5</ele>
        <time>2016-03-20T08:02:44Z</time>
      </trkpt>
      <trkpt lat="45.61094" lon="4.91603">
        <ele>326.5</ele>
        <time>2016-03-20T08:02:46Z</time>
      </trkpt>
      <trkpt lat="45.61093" lon="4.91605">
        <ele>326.5</ele>
        <time>2016-03-20T08:02:48Z</time>
      </trkpt>
      <trkpt lat="45.61092" lon="4.91608">
        <ele>326.5</ele>
        <time>2016-03-20T08:02:50Z</time>
      </trkpt>
      <trkpt lat="45.61091" lon="4.91611">
        <ele>326.5</ele>
        <time>2016-03-20T08:02:52Z</time>
      </trkpt>
      <trkpt lat="45.6109" lon="4.91614">
        <ele>326.6</ele>
        <time>2016-03-20T08:02:54Z</time>
      </trkpt>
      <trkpt lat="45.61089" lon="4.91618">
        <ele>326.6</ele>
        <time>2016-03-20T08:02:56Z</time>
      </trkpt>
      <trkpt lat="45.61088" lon="4.91621">
        <ele>326.6</ele>
        <time>2016-03-20T08:02:58Z</time>
      </trkpt>
      <trkpt lat="45.61088" lon="4.91624">
        <ele>326.7</ele>
        <time>2016-03-20T08:03:00Z</time>
      </trkpt>
      <trkpt lat="45.61088" lon="4.91628">
        <ele>326.7</ele>
        <time>2016-03-20T08:03:02Z</time>
      </trkpt>
      <trkpt lat="45.61089" lon="4.91632">
        <ele>326.8</ele>
        <time>2016-03-20T08:03:04Z</time>
      </trkpt>
      <trkpt lat="45.6109" lon="4.91637">
        <ele>326.9</ele>
        <time>2016-03-20T08:03:06Z</time>
      </trkpt>
      <trkpt lat="45.61091" lon="4.91641">
        <ele>327</ele>
        <time>2016-03-20T08:03:08Z</time>
      </trkpt>
      <trkpt lat="45.61092" lon="4.91646">
        <ele>327</ele>
        <time>2016-03-20T08:03:10Z</time>
      </trkpt>
      <trkpt lat="45.61094" lon="4.9165">
        <ele>327.3</ele>
        <time>2016-03-20T08:03:12Z</time>
      </trkpt>
      <trkpt lat="45.61095" lon="4.91654">
        <ele>327.5</ele>
        <time>2016-03-20T08:03:14Z</time>
      </trkpt>
      <trkpt lat="45.61096" lon="4.91659">
        <ele>327.6</ele>
        <time>2016-03-20T08:03:16Z</time>
      </trkpt>
      <trkpt lat="45.61097" lon="4.91663">
        <ele>327.8</ele>
        <time>2016-03-20T08:03:18Z</time>
      </trkpt>
      <trkpt lat="45.61098" lon="4.91667">
        <ele>327.9</ele>
        <time>2016-03-20T08:03:20Z</time>
      </trkpt>
      <trkpt lat="45.61098" lon="4.91671">
        <ele>327.8</ele>
        <time>2016-03-20T08:03:22Z</time>
      </trkpt>
      <trkpt lat="45.61097" lon="4.91673">
        <ele>327.7</ele>
        <time>2016-03-20T08:03:26Z</time>
      </trkpt>
      <trkpt lat="45.61099" lon="4.91685">
        <ele>327.3</ele>
        <time>2016-03-20T08:03:52Z</time>
      </trkpt>
      <trkpt lat="45.61099" lon="4.91689">
        <ele>327.2</ele>
        <time>2016-03-20T08:03:54Z</time>
      </trkpt>
      <trkpt lat="45.61101" lon="4.91693">
        <ele>327.1</ele>
        <time>2016-03-20T08:03:56Z</time>
      </trkpt>
      <trkpt lat="45.61103" lon="4.91697">
        <ele>327.1</ele>
        <time>2016-03-20T08:03:58Z</time>
      </trkpt>
      <trkpt lat="45.61104" lon="4.91701">
        <ele>327</ele>
        <time>2016-03-20T08:04:00Z</time>
      </trkpt>
      <trkpt lat="45.61106" lon="4.91707">
        <ele>326.7</ele>
        <time>2016-03-20T08:04:02Z</time>
      </trkpt>
      <trkpt lat="45.61108" lon="4.91712">
        <ele>326.4</ele>
        <time>2016-03-20T08:04:04Z</time>
      </trkpt>
      <trkpt lat="45.61112" lon="4.91716">
        <ele>326.3</ele>
        <time>2016-03-20T08:04:06Z</time>
      </trkpt>
      <trkpt lat="45.61115" lon="4.91722">
        <ele>326.2</ele>
        <time>2016-03-20T08:04:08Z</time>
      </trkpt>
      <trkpt lat="45.61118" lon="4.9173">
        <ele>326.2</ele>
        <time>2016-03-20T08:04:10Z</time>
      </trkpt>
      <trkpt lat="45.61123" lon="4.91737">
        <ele>326.6</ele>
        <time>2016-03-20T08:04:12Z</time>
      </trkpt>
      <trkpt lat="45.61128" lon="4.91746">
        <ele>326.8</ele>
        <time>2016-03-20T08:04:14Z</time>
      </trkpt>
      <trkpt lat="45.61133" lon="4.91756">
        <ele>327.3</ele>
        <time>2016-03-20T08:04:16Z</time>
      </trkpt>
      <trkpt lat="45.6114" lon="4.91769">
        <ele>327.3</ele>
        <time>2016-03-20T08:04:18Z</time>
      </trkpt>
      <trkpt lat="45.61146" lon="4.91784">
        <ele>326.5</ele>
        <time>2016-03-20T08:04:20Z</time>
      </trkpt>
      <trkpt lat="45.61153" lon="4.918">
        <ele>324.6</ele>
        <time>2016-03-20T08:04:22Z</time>
      </trkpt>
      <trkpt lat="45.6116" lon="4.91815">
        <ele>323.8</ele>
        <time>2016-03-20T08:04:24Z</time>
      </trkpt>
      <trkpt lat="45.61163" lon="4.91823">
        <ele>323.8</ele>
        <time>2016-03-20T08:04:26Z</time>
      </trkpt>
      <trkpt lat="45.61165" lon="4.91828">
        <ele>323.8</ele>
        <time>2016-03-20T08:04:28Z</time>
      </trkpt>
      <trkpt lat="45.61166" lon="4.91832">
        <ele>323.9</ele>
        <time>2016-03-20T08:04:30Z</time>
      </trkpt>
      <trkpt lat="45.61167" lon="4.91837">
        <ele>324</ele>
        <time>2016-03-20T08:04:32Z</time>
      </trkpt>
      <trkpt lat="45.61167" lon="4.9184">
        <ele>324.3</ele>
        <time>2016-03-20T08:04:34Z</time>
      </trkpt>
      <trkpt lat="45.61167" lon="4.91845">
        <ele>324.7</ele>
        <time>2016-03-20T08:04:36Z</time>
      </trkpt>
      <trkpt lat="45.61167" lon="4.91852">
        <ele>325.3</ele>
        <time>2016-03-20T08:04:38Z</time>
      </trkpt>
      <trkpt lat="45.61168" lon="4.9186">
        <ele>325.7</ele>
        <time>2016-03-20T08:04:40Z</time>
      </trkpt>
      <trkpt lat="45.61168" lon="4.91869">
        <ele>326</ele>
        <time>2016-03-20T08:04:42Z</time>
      </trkpt>
      <trkpt lat="45.61167" lon="4.91878">
        <ele>326</ele>
        <time>2016-03-20T08:04:44Z</time>
      </trkpt>
      <trkpt lat="45.61165" lon="4.91888">
        <ele>325.5</ele>
        <time>2016-03-20T08:04:46Z</time>
      </trkpt>
      <trkpt lat="45.61161" lon="4.91897">
        <ele>325.1</ele>
        <time>2016-03-20T08:04:48Z</time>
      </trkpt>
      <trkpt lat="45.61158" lon="4.91906">
        <ele>325</ele>
        <time>2016-03-20T08:04:50Z</time>
      </trkpt>
      <trkpt lat="45.61153" lon="4.91916">
        <ele>324.9</ele>
        <time>2016-03-20T08:04:52Z</time>
      </trkpt>
      <trkpt lat="45.6115" lon="4.91926">
        <ele>324.7</ele>
        <time>2016-03-20T08:04:54Z</time>
      </trkpt>
      <trkpt lat="45.61147" lon="4.91937">
        <ele>324.1</ele>
        <time>2016-03-20T08:04:56Z</time>
      </trkpt>
      <trkpt lat="45.61145" lon="4.91948">
        <ele>323.7</ele>
        <time>2016-03-20T08:04:58Z</time>
      </trkpt>
      <trkpt lat="45.61144" lon="4.91959">
        <ele>323.6</ele>
        <time>2016-03-20T08:05:00Z</time>
      </trkpt>
      <trkpt lat="45.61142" lon="4.9197">
        <ele>323.5</ele>
        <time>2016-03-20T08:05:02Z</time>
      </trkpt>
      <trkpt lat="45.61141" lon="4.91981">
        <ele>323.6</ele>
        <time>2016-03-20T08:05:04Z</time>
      </trkpt>
      <trkpt lat="45.6114" lon="4.91993">
        <ele>323.6</ele>
        <time>2016-03-20T08:05:06Z</time>
      </trkpt>
      <trkpt lat="45.61139" lon="4.92004">
        <ele>323.7</ele>
        <time>2016-03-20T08:05:08Z</time>
      </trkpt>
      <trkpt lat="45.61139" lon="4.92015">
        <ele>323.8</ele>
        <time>2016-03-20T08:05:10Z</time>
      </trkpt>
      <trkpt lat="45.61138" lon="4.92025">
        <ele>323.9</ele>
        <time>2016-03-20T08:05:12Z</time>
      </trkpt>
      <trkpt lat="45.61137" lon="4.92035">
        <ele>324</ele>
        <time>2016-03-20T08:05:14Z</time>
      </trkpt>
      <trkpt lat="45.61136" lon="4.92042">
        <ele>324</ele>
        <time>2016-03-20T08:05:16Z</time>
      </trkpt>
      <trkpt lat="45.61132" lon="4.92047">
        <ele>324</ele>
        <time>2016-03-20T08:05:18Z</time>
      </trkpt>
      <trkpt lat="45.61126" lon="4.92049">
        <ele>324.2</ele>
        <time>2016-03-20T08:05:20Z</time>
      </trkpt>
      <trkpt lat="45.61119" lon="4.92048">
        <ele>324.3</ele>
        <time>2016-03-20T08:05:22Z</time>
      </trkpt>
      <trkpt lat="45.61112" lon="4.92048">
        <ele>324.3</ele>
        <time>2016-03-20T08:05:24Z</time>
      </trkpt>
      <trkpt lat="45.61105" lon="4.92047">
        <ele>324.2</ele>
        <time>2016-03-20T08:05:26Z</time>
      </trkpt>
      <trkpt lat="45.61099" lon="4.92047">
        <ele>323.9</ele>
        <time>2016-03-20T08:05:28Z</time>
      </trkpt>
      <trkpt lat="45.61091" lon="4.92046">
        <ele>323.6</ele>
        <time>2016-03-20T08:05:30Z</time>
      </trkpt>
      <trkpt lat="45.61084" lon="4.92045">
        <ele>323.5</ele>
        <time>2016-03-20T08:05:32Z</time>
      </trkpt>
      <trkpt lat="45.61077" lon="4.92045">
        <ele>323.3</ele>
        <time>2016-03-20T08:05:34Z</time>
      </trkpt>
      <trkpt lat="45.6107" lon="4.92044">
        <ele>323.2</ele>
        <time>2016-03-20T08:05:36Z</time>
      </trkpt>
      <trkpt lat="45.61063" lon="4.92043">
        <ele>323.4</ele>
        <time>2016-03-20T08:05:38Z</time>
      </trkpt>
      <trkpt lat="45.61056" lon="4.92042">
        <ele>323.8</ele>
        <time>2016-03-20T08:05:40Z</time>
      </trkpt>
      <trkpt lat="45.61049" lon="4.92041">
        <ele>324.2</ele>
        <time>2016-03-20T08:05:42Z</time>
      </trkpt>
      <trkpt lat="45.61041" lon="4.9204">
        <ele>324.8</ele>
        <time>2016-03-20T08:05:44Z</time>
      </trkpt>
      <trkpt lat="45.61034" lon="4.92039">
        <ele>325.6</ele>
        <time>2016-03-20T08:05:46Z</time>
      </trkpt>
      <trkpt lat="45.61026" lon="4.92038">
        <ele>326.3</ele>
        <time>2016-03-20T08:05:48Z</time>
      </trkpt>
      <trkpt lat="45.61018" lon="4.92036">
        <ele>326.7</ele>
        <time>2016-03-20T08:05:50Z</time>
      </trkpt>
      <trkpt lat="45.61009" lon="4.92034">
        <ele>327.1</ele>
        <time>2016-03-20T08:05:52Z</time>
      </trkpt>
      <trkpt lat="45.61001" lon="4.92032">
        <ele>327.2</ele>
        <time>2016-03-20T08:05:54Z</time>
      </trkpt>
      <trkpt lat="45.60992" lon="4.9203">
        <ele>327</ele>
        <time>2016-03-20T08:05:56Z</time>
      </trkpt>
      <trkpt lat="45.60982" lon="4.92027">
        <ele>326.8</ele>
        <time>2016-03-20T08:05:58Z</time>
      </trkpt>
      <trkpt lat="45.60972" lon="4.92024">
        <ele>326.6</ele>
        <time>2016-03-20T08:06:00Z</time>
      </trkpt>
      <trkpt lat="45.60962" lon="4.92021">
        <ele>326.9</ele>
        <time>2016-03-20T08:06:02Z</time>
      </trkpt>
      <trkpt lat="45.60951" lon="4.92018">
        <ele>327.2</ele>
        <time>2016-03-20T08:06:04Z</time>
      </trkpt>
      <trkpt lat="45.60941" lon="4.92014">
        <ele>327.5</ele>
        <time>2016-03-20T08:06:06Z</time>
      </trkpt>
      <trkpt lat="45.60931" lon="4.92011">
        <ele>327.9</ele>
        <time>2016-03-20T08:06:08Z</time>
      </trkpt>
      <trkpt lat="45.6092" lon="4.92008">
        <ele>328.1</ele>
        <time>2016-03-20T08:06:10Z</time>
      </trkpt>
      <trkpt lat="45.6091" lon="4.92005">
        <ele>327.9</ele>
        <time>2016-03-20T08:06:12Z</time>
      </trkpt>
      <trkpt lat="45.609" lon="4.92002">
        <ele>327.4</ele>
        <time>2016-03-20T08:06:14Z</time>
      </trkpt>
      <trkpt lat="45.60889" lon="4.92001">
        <ele>327</ele>
        <time>2016-03-20T08:06:16Z</time>
      </trkpt>
      <trkpt lat="45.60878" lon="4.92">
        <ele>327</ele>
        <time>2016-03-20T08:06:18Z</time>
      </trkpt>
      <trkpt lat="45.60868" lon="4.91999">
        <ele>327.5</ele>
        <time>2016-03-20T08:06:20Z</time>
      </trkpt>
      <trkpt lat="45.60857" lon="4.91997">
        <ele>327.8</ele>
        <time>2016-03-20T08:06:22Z</time>
      </trkpt>
      <trkpt lat="45.60847" lon="4.91996">
        <ele>328.4</ele>
        <time>2016-03-20T08:06:24Z</time>
      </trkpt>
      <trkpt lat="45.60836" lon="4.91994">
        <ele>328.4</ele>
        <time>2016-03-20T08:06:26Z</time>
      </trkpt>
      <trkpt lat="45.60826" lon="4.91993">
        <ele>328.4</ele>
        <time>2016-03-20T08:06:28Z</time>
      </trkpt>
      <trkpt lat="45.60816" lon="4.91991">
        <ele>328.6</ele>
        <time>2016-03-20T08:06:30Z</time>
      </trkpt>
      <trkpt lat="45.60806" lon="4.9199">
        <ele>329.1</ele>
        <time>2016-03-20T08:06:32Z</time>
      </trkpt>
      <trkpt lat="45.60798" lon="4.91989">
        <ele>329.6</ele>
        <time>2016-03-20T08:06:34Z</time>
      </trkpt>
      <trkpt lat="45.60788" lon="4.91987">
        <ele>330.3</ele>
        <time>2016-03-20T08:06:36Z</time>
      </trkpt>
      <trkpt lat="45.60778" lon="4.91985">
        <ele>331.1</ele>
        <time>2016-03-20T08:06:38Z</time>
      </trkpt>
      <trkpt lat="45.60767" lon="4.91983">
        <ele>331.5</ele>
        <time>2016-03-20T08:06:40Z</time>
      </trkpt>
      <trkpt lat="45.60756" lon="4.9198">
        <ele>331.6</ele>
        <time>2016-03-20T08:06:42Z</time>
      </trkpt>
      <trkpt lat="45.60745" lon="4.91978">
        <ele>331.8</ele>
        <time>2016-03-20T08:06:44Z</time>
      </trkpt>
      <trkpt lat="45.60733" lon="4.91976">
        <ele>332.6</ele>
        <time>2016-03-20T08:06:46Z</time>
      </trkpt>
      <trkpt lat="45.60722" lon="4.91974">
        <ele>333.3</ele>
        <time>2016-03-20T08:06:48Z</time>
      </trkpt>
      <trkpt lat="45.60712" lon="4.91974">
        <ele>334</ele>
        <time>2016-03-20T08:06:50Z</time>
      </trkpt>
      <trkpt lat="45.60704" lon="4.91974">
        <ele>334.8</ele>
        <time>2016-03-20T08:06:52Z</time>
      </trkpt>
      <trkpt lat="45.60698" lon="4.91977">
        <ele>335</ele>
        <time>2016-03-20T08:06:54Z</time>
      </trkpt>
      <trkpt lat="45.60692" lon="4.91981">
        <ele>335</ele>
        <time>2016-03-20T08:06:56Z</time>
      </trkpt>
      <trkpt lat="45.60685" lon="4.91986">
        <ele>335</ele>
        <time>2016-03-20T08:06:58Z</time>
      </trkpt>
      <trkpt lat="45.6068" lon="4.91993">
        <ele>334.9</ele>
        <time>2016-03-20T08:07:00Z</time>
      </trkpt>
      <trkpt lat="45.60674" lon="4.92001">
        <ele>334.1</ele>
        <time>2016-03-20T08:07:02Z</time>
      </trkpt>
      <trkpt lat="45.60668" lon="4.9201">
        <ele>333.3</ele>
        <time>2016-03-20T08:07:04Z</time>
      </trkpt>
      <trkpt lat="45.60662" lon="4.92019">
        <ele>332.6</ele>
        <time>2016-03-20T08:07:06Z</time>
      </trkpt>
      <trkpt lat="45.60654" lon="4.92029">
        <ele>331.9</ele>
        <time>2016-03-20T08:07:08Z</time>
      </trkpt>
      <trkpt lat="45.60648" lon="4.92039">
        <ele>331.3</ele>
        <time>2016-03-20T08:07:10Z</time>
      </trkpt>
      <trkpt lat="45.60644" lon="4.92051">
        <ele>330.8</ele>
        <time>2016-03-20T08:07:12Z</time>
      </trkpt>
      <trkpt lat="45.60641" lon="4.92064">
        <ele>331.2</ele>
        <time>2016-03-20T08:07:14Z</time>
      </trkpt>
      <trkpt lat="45.60638" lon="4.92076">
        <ele>331.6</ele>
        <time>2016-03-20T08:07:16Z</time>
      </trkpt>
      <trkpt lat="45.60635" lon="4.92086">
        <ele>332.8</ele>
        <time>2016-03-20T08:07:18Z</time>
      </trkpt>
      <trkpt lat="45.60632" lon="4.92098">
        <ele>334.2</ele>
        <time>2016-03-20T08:07:20Z</time>
      </trkpt>
      <trkpt lat="45.60629" lon="4.9211">
        <ele>334.8</ele>
        <time>2016-03-20T08:07:22Z</time>
      </trkpt>
      <trkpt lat="45.60625" lon="4.9212">
        <ele>335.9</ele>
        <time>2016-03-20T08:07:24Z</time>
      </trkpt>
      <trkpt lat="45.60622" lon="4.9213">
        <ele>336.7</ele>
        <time>2016-03-20T08:07:26Z</time>
      </trkpt>
      <trkpt lat="45.60621" lon="4.9214">
        <ele>337.6</ele>
        <time>2016-03-20T08:07:28Z</time>
      </trkpt>
      <trkpt lat="45.60619" lon="4.9215">
        <ele>337.5</ele>
        <time>2016-03-20T08:07:30Z</time>
      </trkpt>
      <trkpt lat="45.60618" lon="4.92159">
        <ele>337.5</ele>
        <time>2016-03-20T08:07:32Z</time>
      </trkpt>
      <trkpt lat="45.60617" lon="4.92171">
        <ele>337.5</ele>
        <time>2016-03-20T08:07:34Z</time>
      </trkpt>
      <trkpt lat="45.60617" lon="4.92182">
        <ele>337.4</ele>
        <time>2016-03-20T08:07:36Z</time>
      </trkpt>
      <trkpt lat="45.60616" lon="4.92194">
        <ele>337.1</ele>
        <time>2016-03-20T08:07:38Z</time>
      </trkpt>
      <trkpt lat="45.60615" lon="4.92206">
        <ele>336.6</ele>
        <time>2016-03-20T08:07:40Z</time>
      </trkpt>
      <trkpt lat="45.60614" lon="4.9222">
        <ele>335.6</ele>
        <time>2016-03-20T08:07:42Z</time>
      </trkpt>
      <trkpt lat="45.60614" lon="4.92233">
        <ele>334.5</ele>
        <time>2016-03-20T08:07:44Z</time>
      </trkpt>
      <trkpt lat="45.60613" lon="4.92246">
        <ele>334.2</ele>
        <time>2016-03-20T08:07:46Z</time>
      </trkpt>
      <trkpt lat="45.60613" lon="4.92259">
        <ele>333.9</ele>
        <time>2016-03-20T08:07:48Z</time>
      </trkpt>
      <trkpt lat="45.60613" lon="4.92271">
        <ele>333.1</ele>
        <time>2016-03-20T08:07:50Z</time>
      </trkpt>
      <trkpt lat="45.60613" lon="4.92284">
        <ele>332.5</ele>
        <time>2016-03-20T08:07:52Z</time>
      </trkpt>
      <trkpt lat="45.60614" lon="4.92294">
        <ele>332.1</ele>
        <time>2016-03-20T08:07:54Z</time>
      </trkpt>
      <trkpt lat="45.60615" lon="4.92306">
        <ele>331.8</ele>
        <time>2016-03-20T08:07:56Z</time>
      </trkpt>
      <trkpt lat="45.60615" lon="4.92318">
        <ele>331.8</ele>
        <time>2016-03-20T08:07:58Z</time>
      </trkpt>
      <trkpt lat="45.60615" lon="4.92331">
        <ele>332</ele>
        <time>2016-03-20T08:08:00Z</time>
      </trkpt>
      <trkpt lat="45.60616" lon="4.92344">
        <ele>332.3</ele>
        <time>2016-03-20T08:08:02Z</time>
      </trkpt>
      <trkpt lat="45.60618" lon="4.92357">
        <ele>332.9</ele>
        <time>2016-03-20T08:08:04Z</time>
      </trkpt>
      <trkpt lat="45.60618" lon="4.92372">
        <ele>333.6</ele>
        <time>2016-03-20T08:08:06Z</time>
      </trkpt>
      <trkpt lat="45.60618" lon="4.92387">
        <ele>334</ele>
        <time>2016-03-20T08:08:08Z</time>
      </trkpt>
      <trkpt lat="45.60617" lon="4.92401">
        <ele>333.6</ele>
        <time>2016-03-20T08:08:10Z</time>
      </trkpt>
      <trkpt lat="45.60615" lon="4.92415">
        <ele>332.7</ele>
        <time>2016-03-20T08:08:12Z</time>
      </trkpt>
      <trkpt lat="45.60614" lon="4.92429">
        <ele>331.8</ele>
        <time>2016-03-20T08:08:14Z</time>
      </trkpt>
      <trkpt lat="45.60614" lon="4.92445">
        <ele>331.1</ele>
        <time>2016-03-20T08:08:16Z</time>
      </trkpt>
      <trkpt lat="45.60614" lon="4.92457">
        <ele>330.3</ele>
        <time>2016-03-20T08:08:18Z</time>
      </trkpt>
      <trkpt lat="45.60614" lon="4.92464">
        <ele>329.7</ele>
        <time>2016-03-20T08:08:20Z</time>
      </trkpt>
      <trkpt lat="45.60611" lon="4.9247">
        <ele>329.4</ele>
        <time>2016-03-20T08:08:22Z</time>
      </trkpt>
      <trkpt lat="45.60607" lon="4.92473">
        <ele>329.2</ele>
        <time>2016-03-20T08:08:24Z</time>
      </trkpt>
      <trkpt lat="45.60605" lon="4.92477">
        <ele>329.1</ele>
        <time>2016-03-20T08:08:26Z</time>
      </trkpt>
      <trkpt lat="45.60603" lon="4.92482">
        <ele>329</ele>
        <time>2016-03-20T08:08:28Z</time>
      </trkpt>
      <trkpt lat="45.60599" lon="4.92484">
        <ele>329</ele>
        <time>2016-03-20T08:08:30Z</time>
      </trkpt>
      <trkpt lat="45.60594" lon="4.92488">
        <ele>329.3</ele>
        <time>2016-03-20T08:08:32Z</time>
      </trkpt>
      <trkpt lat="45.60589" lon="4.9249">
        <ele>329.5</ele>
        <time>2016-03-20T08:08:34Z</time>
      </trkpt>
      <trkpt lat="45.60584" lon="4.92493">
        <ele>329.6</ele>
        <time>2016-03-20T08:08:36Z</time>
      </trkpt>
      <trkpt lat="45.60581" lon="4.92494">
        <ele>329.5</ele>
        <time>2016-03-20T08:08:38Z</time>
      </trkpt>
      <trkpt lat="45.6058" lon="4.92495">
        <ele>329.4</ele>
        <time>2016-03-20T08:08:40Z</time>
      </trkpt>
      <trkpt lat="45.60577" lon="4.92498">
        <ele>329.2</ele>
        <time>2016-03-20T08:08:44Z</time>
      </trkpt>
      <trkpt lat="45.60576" lon="4.925">
        <ele>329.1</ele>
        <time>2016-03-20T08:08:46Z</time>
      </trkpt>
      <trkpt lat="45.60575" lon="4.92501">
        <ele>329.1</ele>
        <time>2016-03-20T08:08:48Z</time>
      </trkpt>
      <trkpt lat="45.60576" lon="4.92505">
        <ele>328.9</ele>
        <time>2016-03-20T08:08:50Z</time>
      </trkpt>
      <trkpt lat="45.60578" lon="4.92506">
        <ele>328.8</ele>
        <time>2016-03-20T08:08:52Z</time>
      </trkpt>
      <trkpt lat="45.60581" lon="4.92509">
        <ele>328.6</ele>
        <time>2016-03-20T08:08:54Z</time>
      </trkpt>
      <trkpt lat="45.60582" lon="4.92512">
        <ele>328.6</ele>
        <time>2016-03-20T08:08:56Z</time>
      </trkpt>
      <trkpt lat="45.60584" lon="4.92516">
        <ele>328.6</ele>
        <time>2016-03-20T08:08:58Z</time>
      </trkpt>
      <trkpt lat="45.60587" lon="4.92519">
        <ele>328.6</ele>
        <time>2016-03-20T08:09:00Z</time>
      </trkpt>
      <trkpt lat="45.60593" lon="4.92523">
        <ele>328.6</ele>
        <time>2016-03-20T08:09:02Z</time>
      </trkpt>
      <trkpt lat="45.60597" lon="4.92529">
        <ele>328.4</ele>
        <time>2016-03-20T08:09:04Z</time>
      </trkpt>
      <trkpt lat="45.60598" lon="4.92534">
        <ele>328.5</ele>
        <time>2016-03-20T08:09:08Z</time>
      </trkpt>
      <trkpt lat="45.606" lon="4.92537">
        <ele>328.4</ele>
        <time>2016-03-20T08:09:10Z</time>
      </trkpt>
      <trkpt lat="45.606" lon="4.92538">
        <ele>328.4</ele>
        <time>2016-03-20T08:09:12Z</time>
      </trkpt>
      <trkpt lat="45.60601" lon="4.9254">
        <ele>328.5</ele>
        <time>2016-03-20T08:09:14Z</time>
      </trkpt>
      <trkpt lat="45.60602" lon="4.92545">
        <ele>328.6</ele>
        <time>2016-03-20T08:09:18Z</time>
      </trkpt>
      <trkpt lat="45.60604" lon="4.92548">
        <ele>328.6</ele>
        <time>2016-03-20T08:09:20Z</time>
      </trkpt>
      <trkpt lat="45.60607" lon="4.92553">
        <ele>329</ele>
        <time>2016-03-20T08:09:22Z</time>
      </trkpt>
      <trkpt lat="45.60612" lon="4.92557">
        <ele>329.1</ele>
        <time>2016-03-20T08:09:24Z</time>
      </trkpt>
      <trkpt lat="45.60617" lon="4.9256">
        <ele>329.2</ele>
        <time>2016-03-20T08:09:26Z</time>
      </trkpt>
      <trkpt lat="45.60624" lon="4.92565">
        <ele>329.2</ele>
        <time>2016-03-20T08:09:28Z</time>
      </trkpt>
      <trkpt lat="45.60631" lon="4.92568">
        <ele>329.3</ele>
        <time>2016-03-20T08:09:30Z</time>
      </trkpt>
      <trkpt lat="45.60637" lon="4.92573">
        <ele>329.4</ele>
        <time>2016-03-20T08:09:32Z</time>
      </trkpt>
      <trkpt lat="45.60642" lon="4.9258">
        <ele>330</ele>
        <time>2016-03-20T08:09:34Z</time>
      </trkpt>
      <trkpt lat="45.60648" lon="4.92586">
        <ele>330.7</ele>
        <time>2016-03-20T08:09:36Z</time>
      </trkpt>
      <trkpt lat="45.60653" lon="4.92593">
        <ele>331.9</ele>
        <time>2016-03-20T08:09:38Z</time>
      </trkpt>
      <trkpt lat="45.60659" lon="4.926">
        <ele>333.1</ele>
        <time>2016-03-20T08:09:40Z</time>
      </trkpt>
      <trkpt lat="45.60668" lon="4.92606">
        <ele>333.7</ele>
        <time>2016-03-20T08:09:42Z</time>
      </trkpt>
      <trkpt lat="45.60677" lon="4.92611">
        <ele>333.6</ele>
        <time>2016-03-20T08:09:44Z</time>
      </trkpt>
      <trkpt lat="45.60686" lon="4.92616">
        <ele>332.8</ele>
        <time>2016-03-20T08:09:46Z</time>
      </trkpt>
      <trkpt lat="45.60695" lon="4.92618">
        <ele>331.9</ele>
        <time>2016-03-20T08:09:48Z</time>
      </trkpt>
      <trkpt lat="45.60705" lon="4.92622">
        <ele>330.7</ele>
        <time>2016-03-20T08:09:50Z</time>
      </trkpt>
      <trkpt lat="45.60715" lon="4.92627">
        <ele>329.5</ele>
        <time>2016-03-20T08:09:52Z</time>
      </trkpt>
      <trkpt lat="45.60725" lon="4.92635">
        <ele>327.7</ele>
        <time>2016-03-20T08:09:54Z</time>
      </trkpt>
      <trkpt lat="45.60736" lon="4.92643">
        <ele>326.3</ele>
        <time>2016-03-20T08:09:56Z</time>
      </trkpt>
      <trkpt lat="45.60747" lon="4.92652">
        <ele>324.9</ele>
        <time>2016-03-20T08:09:58Z</time>
      </trkpt>
      <trkpt lat="45.60756" lon="4.92658">
        <ele>324.3</ele>
        <time>2016-03-20T08:10:00Z</time>
      </trkpt>
      <trkpt lat="45.60764" lon="4.92662">
        <ele>324.1</ele>
        <time>2016-03-20T08:10:02Z</time>
      </trkpt>
      <trkpt lat="45.60774" lon="4.92664">
        <ele>323.3</ele>
        <time>2016-03-20T08:10:04Z</time>
      </trkpt>
      <trkpt lat="45.60786" lon="4.92663">
        <ele>322.8</ele>
        <time>2016-03-20T08:10:06Z</time>
      </trkpt>
      <trkpt lat="45.60799" lon="4.92662">
        <ele>321.9</ele>
        <time>2016-03-20T08:10:08Z</time>
      </trkpt>
      <trkpt lat="45.60809" lon="4.92663">
        <ele>321</ele>
        <time>2016-03-20T08:10:10Z</time>
      </trkpt>
      <trkpt lat="45.60819" lon="4.92664">
        <ele>319.7</ele>
        <time>2016-03-20T08:10:12Z</time>
      </trkpt>
      <trkpt lat="45.60827" lon="4.92666">
        <ele>318.7</ele>
        <time>2016-03-20T08:10:14Z</time>
      </trkpt>
      <trkpt lat="45.60836" lon="4.92665">
        <ele>317.7</ele>
        <time>2016-03-20T08:10:16Z</time>
      </trkpt>
      <trkpt lat="45.60848" lon="4.92669">
        <ele>317.2</ele>
        <time>2016-03-20T08:10:18Z</time>
      </trkpt>
      <trkpt lat="45.60856" lon="4.92675">
        <ele>316.9</ele>
        <time>2016-03-20T08:10:20Z</time>
      </trkpt>
      <trkpt lat="45.6086" lon="4.92679">
        <ele>316.8</ele>
        <time>2016-03-20T08:10:22Z</time>
      </trkpt>
      <trkpt lat="45.60863" lon="4.9268">
        <ele>316.8</ele>
        <time>2016-03-20T08:10:26Z</time>
      </trkpt>
      <trkpt lat="45.60866" lon="4.92683">
        <ele>316.8</ele>
        <time>2016-03-20T08:10:28Z</time>
      </trkpt>
      <trkpt lat="45.6087" lon="4.92686">
        <ele>315.9</ele>
        <time>2016-03-20T08:10:30Z</time>
      </trkpt>
      <trkpt lat="45.60875" lon="4.92692">
        <ele>315.3</ele>
        <time>2016-03-20T08:10:32Z</time>
      </trkpt>
      <trkpt lat="45.60877" lon="4.92699">
        <ele>314.7</ele>
        <time>2016-03-20T08:10:34Z</time>
      </trkpt>
      <trkpt lat="45.60882" lon="4.92707">
        <ele>313.5</ele>
        <time>2016-03-20T08:10:36Z</time>
      </trkpt>
      <trkpt lat="45.60886" lon="4.92716">
        <ele>313.3</ele>
        <time>2016-03-20T08:10:38Z</time>
      </trkpt>
      <trkpt lat="45.6089" lon="4.92727">
        <ele>313</ele>
        <time>2016-03-20T08:10:40Z</time>
      </trkpt>
      <trkpt lat="45.60894" lon="4.92736">
        <ele>312.3</ele>
        <time>2016-03-20T08:10:42Z</time>
      </trkpt>
      <trkpt lat="45.60899" lon="4.92747">
        <ele>312.7</ele>
        <time>2016-03-20T08:10:44Z</time>
      </trkpt>
      <trkpt lat="45.60904" lon="4.92755">
        <ele>312.4</ele>
        <time>2016-03-20T08:10:46Z</time>
      </trkpt>
      <trkpt lat="45.60909" lon="4.92765">
        <ele>312.6</ele>
        <time>2016-03-20T08:10:48Z</time>
      </trkpt>
      <trkpt lat="45.60912" lon="4.92774">
        <ele>313.6</ele>
        <time>2016-03-20T08:10:50Z</time>
      </trkpt>
      <trkpt lat="45.60915" lon="4.92779">
        <ele>313.9</ele>
        <time>2016-03-20T08:10:52Z</time>
      </trkpt>
      <trkpt lat="45.60915" lon="4.92783">
        <ele>314.5</ele>
        <time>2016-03-20T08:10:54Z</time>
      </trkpt>
      <trkpt lat="45.60915" lon="4.92788">
        <ele>315.2</ele>
        <time>2016-03-20T08:10:56Z</time>
      </trkpt>
      <trkpt lat="45.60916" lon="4.92793">
        <ele>316.6</ele>
        <time>2016-03-20T08:10:58Z</time>
      </trkpt>
      <trkpt lat="45.60916" lon="4.92796">
        <ele>316.6</ele>
        <time>2016-03-20T08:11:00Z</time>
      </trkpt>
      <trkpt lat="45.60915" lon="4.928">
        <ele>317.2</ele>
        <time>2016-03-20T08:11:02Z</time>
      </trkpt>
      <trkpt lat="45.60914" lon="4.92805">
        <ele>318</ele>
        <time>2016-03-20T08:11:04Z</time>
      </trkpt>
      <trkpt lat="45.60914" lon="4.92808">
        <ele>318.5</ele>
        <time>2016-03-20T08:11:06Z</time>
      </trkpt>
      <trkpt lat="45.60913" lon="4.92812">
        <ele>318.9</ele>
        <time>2016-03-20T08:11:08Z</time>
      </trkpt>
      <trkpt lat="45.60912" lon="4.92816">
        <ele>319.3</ele>
        <time>2016-03-20T08:11:10Z</time>
      </trkpt>
      <trkpt lat="45.60912" lon="4.9282">
        <ele>319.7</ele>
        <time>2016-03-20T08:11:12Z</time>
      </trkpt>
      <trkpt lat="45.60911" lon="4.92824">
        <ele>320.5</ele>
        <time>2016-03-20T08:11:14Z</time>
      </trkpt>
      <trkpt lat="45.60911" lon="4.92827">
        <ele>320.7</ele>
        <time>2016-03-20T08:11:16Z</time>
      </trkpt>
      <trkpt lat="45.6091" lon="4.92831">
        <ele>320.7</ele>
        <time>2016-03-20T08:11:18Z</time>
      </trkpt>
      <trkpt lat="45.6091" lon="4.92835">
        <ele>320.8</ele>
        <time>2016-03-20T08:11:20Z</time>
      </trkpt>
      <trkpt lat="45.6091" lon="4.92839">
        <ele>320.9</ele>
        <time>2016-03-20T08:11:22Z</time>
      </trkpt>
      <trkpt lat="45.6091" lon="4.92844">
        <ele>321</ele>
        <time>2016-03-20T08:11:24Z</time>
      </trkpt>
      <trkpt lat="45.6091" lon="4.92849">
        <ele>321.2</ele>
        <time>2016-03-20T08:11:26Z</time>
      </trkpt>
      <trkpt lat="45.60912" lon="4.92853">
        <ele>320.9</ele>
        <time>2016-03-20T08:11:28Z</time>
      </trkpt>
      <trkpt lat="45.60914" lon="4.92858">
        <ele>321.1</ele>
        <time>2016-03-20T08:11:30Z</time>
      </trkpt>
      <trkpt lat="45.60917" lon="4.92863">
        <ele>321</ele>
        <time>2016-03-20T08:11:32Z</time>
      </trkpt>
      <trkpt lat="45.6092" lon="4.92867">
        <ele>320.9</ele>
        <time>2016-03-20T08:11:34Z</time>
      </trkpt>
      <trkpt lat="45.60922" lon="4.92872">
        <ele>320.9</ele>
        <time>2016-03-20T08:11:36Z</time>
      </trkpt>
      <trkpt lat="45.60925" lon="4.92877">
        <ele>320.8</ele>
        <time>2016-03-20T08:11:38Z</time>
      </trkpt>
      <trkpt lat="45.60927" lon="4.92881">
        <ele>320.7</ele>
        <time>2016-03-20T08:11:40Z</time>
      </trkpt>
      <trkpt lat="45.6093" lon="4.92885">
        <ele>320.4</ele>
        <time>2016-03-20T08:11:42Z</time>
      </trkpt>
      <trkpt lat="45.60931" lon="4.92889">
        <ele>320.7</ele>
        <time>2016-03-20T08:11:44Z</time>
      </trkpt>
      <trkpt lat="45.60935" lon="4.92894">
        <ele>320.3</ele>
        <time>2016-03-20T08:12:00Z</time>
      </trkpt>
      <trkpt lat="45.6094" lon="4.92891">
        <ele>318.7</ele>
        <time>2016-03-20T08:12:02Z</time>
      </trkpt>
      <trkpt lat="45.60947" lon="4.92891">
        <ele>317.4</ele>
        <time>2016-03-20T08:12:04Z</time>
      </trkpt>
      <trkpt lat="45.60952" lon="4.92897">
        <ele>316.8</ele>
        <time>2016-03-20T08:12:06Z</time>
      </trkpt>
      <trkpt lat="45.60959" lon="4.92903">
        <ele>315.9</ele>
        <time>2016-03-20T08:12:08Z</time>
      </trkpt>
      <trkpt lat="45.60965" lon="4.92911">
        <ele>315.4</ele>
        <time>2016-03-20T08:12:10Z</time>
      </trkpt>
      <trkpt lat="45.6097" lon="4.92918">
        <ele>315.2</ele>
        <time>2016-03-20T08:12:12Z</time>
      </trkpt>
      <trkpt lat="45.60975" lon="4.92925">
        <ele>315.2</ele>
        <time>2016-03-20T08:12:14Z</time>
      </trkpt>
      <trkpt lat="45.6098" lon="4.9293">
        <ele>315.7</ele>
        <time>2016-03-20T08:12:16Z</time>
      </trkpt>
      <trkpt lat="45.60985" lon="4.92937">
        <ele>317.4</ele>
        <time>2016-03-20T08:12:18Z</time>
      </trkpt>
      <trkpt lat="45.60989" lon="4.92945">
        <ele>318.8</ele>
        <time>2016-03-20T08:12:20Z</time>
      </trkpt>
      <trkpt lat="45.60994" lon="4.92953">
        <ele>319.6</ele>
        <time>2016-03-20T08:12:22Z</time>
      </trkpt>
      <trkpt lat="45.60999" lon="4.92961">
        <ele>319.8</ele>
        <time>2016-03-20T08:12:24Z</time>
      </trkpt>
      <trkpt lat="45.61003" lon="4.92969">
        <ele>320.2</ele>
        <time>2016-03-20T08:12:26Z</time>
      </trkpt>
      <trkpt lat="45.61008" lon="4.92976">
        <ele>320</ele>
        <time>2016-03-20T08:12:28Z</time>
      </trkpt>
      <trkpt lat="45.61012" lon="4.92983">
        <ele>320.6</ele>
        <time>2016-03-20T08:12:30Z</time>
      </trkpt>
      <trkpt lat="45.61015" lon="4.92991">
        <ele>321</ele>
        <time>2016-03-20T08:12:32Z</time>
      </trkpt>
      <trkpt lat="45.61018" lon="4.93">
        <ele>320.9</ele>
        <time>2016-03-20T08:12:34Z</time>
      </trkpt>
      <trkpt lat="45.61019" lon="4.93009">
        <ele>321.3</ele>
        <time>2016-03-20T08:12:36Z</time>
      </trkpt>
      <trkpt lat="45.6102" lon="4.93018">
        <ele>320.9</ele>
        <time>2016-03-20T08:12:38Z</time>
      </trkpt>
      <trkpt lat="45.61021" lon="4.93028">
        <ele>320.8</ele>
        <time>2016-03-20T08:12:40Z</time>
      </trkpt>
      <trkpt lat="45.61021" lon="4.93036">
        <ele>320.6</ele>
        <time>2016-03-20T08:12:42Z</time>
      </trkpt>
      <trkpt lat="45.61023" lon="4.93045">
        <ele>319.7</ele>
        <time>2016-03-20T08:12:44Z</time>
      </trkpt>
      <trkpt lat="45.61024" lon="4.93054">
        <ele>319.3</ele>
        <time>2016-03-20T08:12:46Z</time>
      </trkpt>
      <trkpt lat="45.61025" lon="4.93062">
        <ele>319.2</ele>
        <time>2016-03-20T08:12:48Z</time>
      </trkpt>
      <trkpt lat="45.61026" lon="4.9307">
        <ele>318.8</ele>
        <time>2016-03-20T08:12:50Z</time>
      </trkpt>
      <trkpt lat="45.61027" lon="4.93078">
        <ele>318.8</ele>
        <time>2016-03-20T08:12:52Z</time>
      </trkpt>
      <trkpt lat="45.61028" lon="4.93085">
        <ele>318.7</ele>
        <time>2016-03-20T08:12:54Z</time>
      </trkpt>
      <trkpt lat="45.61031" lon="4.93094">
        <ele>317.8</ele>
        <time>2016-03-20T08:12:56Z</time>
      </trkpt>
      <trkpt lat="45.61032" lon="4.93102">
        <ele>317.3</ele>
        <time>2016-03-20T08:12:58Z</time>
      </trkpt>
      <trkpt lat="45.61033" lon="4.93109">
        <ele>316.9</ele>
        <time>2016-03-20T08:13:00Z</time>
      </trkpt>
      <trkpt lat="45.61034" lon="4.93117">
        <ele>316.6</ele>
        <time>2016-03-20T08:13:02Z</time>
      </trkpt>
      <trkpt lat="45.61034" lon="4.93125">
        <ele>316.4</ele>
        <time>2016-03-20T08:13:04Z</time>
      </trkpt>
      <trkpt lat="45.61034" lon="4.93132">
        <ele>316.2</ele>
        <time>2016-03-20T08:13:06Z</time>
      </trkpt>
      <trkpt lat="45.61037" lon="4.93139">
        <ele>316.1</ele>
        <time>2016-03-20T08:13:08Z</time>
      </trkpt>
      <trkpt lat="45.61042" lon="4.93143">
        <ele>315.9</ele>
        <time>2016-03-20T08:13:10Z</time>
      </trkpt>
      <trkpt lat="45.61046" lon="4.93148">
        <ele>315.9</ele>
        <time>2016-03-20T08:13:12Z</time>
      </trkpt>
      <trkpt lat="45.6105" lon="4.93154">
        <ele>316</ele>
        <time>2016-03-20T08:13:14Z</time>
      </trkpt>
      <trkpt lat="45.61055" lon="4.93161">
        <ele>316.3</ele>
        <time>2016-03-20T08:13:16Z</time>
      </trkpt>
      <trkpt lat="45.61061" lon="4.93168">
        <ele>316.3</ele>
        <time>2016-03-20T08:13:18Z</time>
      </trkpt>
      <trkpt lat="45.61067" lon="4.93176">
        <ele>316.2</ele>
        <time>2016-03-20T08:13:20Z</time>
      </trkpt>
      <trkpt lat="45.61072" lon="4.93183">
        <ele>315.9</ele>
        <time>2016-03-20T08:13:22Z</time>
      </trkpt>
      <trkpt lat="45.61077" lon="4.9319">
        <ele>315.6</ele>
        <time>2016-03-20T08:13:24Z</time>
      </trkpt>
      <trkpt lat="45.61081" lon="4.93196">
        <ele>315.5</ele>
        <time>2016-03-20T08:13:26Z</time>
      </trkpt>
      <trkpt lat="45.61086" lon="4.93201">
        <ele>315.6</ele>
        <time>2016-03-20T08:13:28Z</time>
      </trkpt>
      <trkpt lat="45.61091" lon="4.93206">
        <ele>315.8</ele>
        <time>2016-03-20T08:13:30Z</time>
      </trkpt>
      <trkpt lat="45.61095" lon="4.93212">
        <ele>316</ele>
        <time>2016-03-20T08:13:32Z</time>
      </trkpt>
      <trkpt lat="45.61101" lon="4.93218">
        <ele>316</ele>
        <time>2016-03-20T08:13:34Z</time>
      </trkpt>
      <trkpt lat="45.61107" lon="4.93222">
        <ele>316.1</ele>
        <time>2016-03-20T08:13:36Z</time>
      </trkpt>
      <trkpt lat="45.61112" lon="4.93227">
        <ele>316.1</ele>
        <time>2016-03-20T08:13:38Z</time>
      </trkpt>
      <trkpt lat="45.61117" lon="4.93231">
        <ele>316.1</ele>
        <time>2016-03-20T08:13:40Z</time>
      </trkpt>
      <trkpt lat="45.61123" lon="4.93235">
        <ele>316.2</ele>
        <time>2016-03-20T08:13:42Z</time>
      </trkpt>
      <trkpt lat="45.61129" lon="4.93239">
        <ele>316.2</ele>
        <time>2016-03-20T08:13:44Z</time>
      </trkpt>
      <trkpt lat="45.61136" lon="4.93243">
        <ele>316.3</ele>
        <time>2016-03-20T08:13:46Z</time>
      </trkpt>
      <trkpt lat="45.61141" lon="4.93245">
        <ele>316.3</ele>
        <time>2016-03-20T08:13:48Z</time>
      </trkpt>
      <trkpt lat="45.61147" lon="4.93248">
        <ele>316.3</ele>
        <time>2016-03-20T08:13:50Z</time>
      </trkpt>
      <trkpt lat="45.61152" lon="4.93249">
        <ele>316.4</ele>
        <time>2016-03-20T08:13:52Z</time>
      </trkpt>
      <trkpt lat="45.61157" lon="4.9325">
        <ele>316.4</ele>
        <time>2016-03-20T08:13:54Z</time>
      </trkpt>
      <trkpt lat="45.61162" lon="4.93252">
        <ele>316.4</ele>
        <time>2016-03-20T08:13:56Z</time>
      </trkpt>
      <trkpt lat="45.61166" lon="4.93254">
        <ele>316.4</ele>
        <time>2016-03-20T08:13:58Z</time>
      </trkpt>
      <trkpt lat="45.61171" lon="4.93255">
        <ele>316.3</ele>
        <time>2016-03-20T08:14:00Z</time>
      </trkpt>
      <trkpt lat="45.61177" lon="4.93255">
        <ele>316.3</ele>
        <time>2016-03-20T08:14:02Z</time>
      </trkpt>
      <trkpt lat="45.61182" lon="4.93255">
        <ele>316.3</ele>
        <time>2016-03-20T08:14:04Z</time>
      </trkpt>
      <trkpt lat="45.61188" lon="4.93253">
        <ele>316.3</ele>
        <time>2016-03-20T08:14:06Z</time>
      </trkpt>
      <trkpt lat="45.61193" lon="4.93253">
        <ele>316.2</ele>
        <time>2016-03-20T08:14:08Z</time>
      </trkpt>
      <trkpt lat="45.61198" lon="4.93253">
        <ele>316</ele>
        <time>2016-03-20T08:14:10Z</time>
      </trkpt>
      <trkpt lat="45.61203" lon="4.93253">
        <ele>315.8</ele>
        <time>2016-03-20T08:14:12Z</time>
      </trkpt>
      <trkpt lat="45.61211" lon="4.93251">
        <ele>315.5</ele>
        <time>2016-03-20T08:14:14Z</time>
      </trkpt>
      <trkpt lat="45.61218" lon="4.9325">
        <ele>315.1</ele>
        <time>2016-03-20T08:14:16Z</time>
      </trkpt>
      <trkpt lat="45.61226" lon="4.93249">
        <ele>315</ele>
        <time>2016-03-20T08:14:18Z</time>
      </trkpt>
      <trkpt lat="45.61233" lon="4.93247">
        <ele>314.9</ele>
        <time>2016-03-20T08:14:20Z</time>
      </trkpt>
      <trkpt lat="45.61241" lon="4.93246">
        <ele>314.9</ele>
        <time>2016-03-20T08:14:22Z</time>
      </trkpt>
      <trkpt lat="45.61249" lon="4.93243">
        <ele>314.9</ele>
        <time>2016-03-20T08:14:24Z</time>
      </trkpt>
      <trkpt lat="45.61257" lon="4.93241">
        <ele>314.9</ele>
        <time>2016-03-20T08:14:26Z</time>
      </trkpt>
      <trkpt lat="45.61266" lon="4.93239">
        <ele>314.9</ele>
        <time>2016-03-20T08:14:28Z</time>
      </trkpt>
      <trkpt lat="45.61274" lon="4.93236">
        <ele>314.9</ele>
        <time>2016-03-20T08:14:30Z</time>
      </trkpt>
      <trkpt lat="45.61284" lon="4.93234">
        <ele>314.9</ele>
        <time>2016-03-20T08:14:32Z</time>
      </trkpt>
      <trkpt lat="45.61292" lon="4.93231">
        <ele>315</ele>
        <time>2016-03-20T08:14:34Z</time>
      </trkpt>
      <trkpt lat="45.61301" lon="4.9323">
        <ele>315</ele>
        <time>2016-03-20T08:14:36Z</time>
      </trkpt>
      <trkpt lat="45.61311" lon="4.93228">
        <ele>315</ele>
        <time>2016-03-20T08:14:38Z</time>
      </trkpt>
      <trkpt lat="45.61321" lon="4.93228">
        <ele>315</ele>
        <time>2016-03-20T08:14:40Z</time>
      </trkpt>
      <trkpt lat="45.6133" lon="4.93228">
        <ele>314.9</ele>
        <time>2016-03-20T08:14:42Z</time>
      </trkpt>
      <trkpt lat="45.6134" lon="4.93229">
        <ele>314.9</ele>
        <time>2016-03-20T08:14:44Z</time>
      </trkpt>
      <trkpt lat="45.61351" lon="4.9323">
        <ele>314.7</ele>
        <time>2016-03-20T08:14:46Z</time>
      </trkpt>
      <trkpt lat="45.61361" lon="4.93231">
        <ele>314.3</ele>
        <time>2016-03-20T08:14:48Z</time>
      </trkpt>
      <trkpt lat="45.61373" lon="4.93232">
        <ele>313.8</ele>
        <time>2016-03-20T08:14:50Z</time>
      </trkpt>
      <trkpt lat="45.61385" lon="4.93233">
        <ele>313.6</ele>
        <time>2016-03-20T08:14:52Z</time>
      </trkpt>
      <trkpt lat="45.61397" lon="4.93234">
        <ele>313.5</ele>
        <time>2016-03-20T08:14:54Z</time>
      </trkpt>
      <trkpt lat="45.61409" lon="4.93233">
        <ele>313.4</ele>
        <time>2016-03-20T08:14:56Z</time>
      </trkpt>
      <trkpt lat="45.61421" lon="4.93231">
        <ele>313.2</ele>
        <time>2016-03-20T08:14:58Z</time>
      </trkpt>
      <trkpt lat="45.61432" lon="4.93227">
        <ele>313</ele>
        <time>2016-03-20T08:15:00Z</time>
      </trkpt>
      <trkpt lat="45.61443" lon="4.93221">
        <ele>312.4</ele>
        <time>2016-03-20T08:15:02Z</time>
      </trkpt>
      <trkpt lat="45.61455" lon="4.93213">
        <ele>312.1</ele>
        <time>2016-03-20T08:15:04Z</time>
      </trkpt>
      <trkpt lat="45.61467" lon="4.93206">
        <ele>311.8</ele>
        <time>2016-03-20T08:15:06Z</time>
      </trkpt>
      <trkpt lat="45.6148" lon="4.93199">
        <ele>311.6</ele>
        <time>2016-03-20T08:15:08Z</time>
      </trkpt>
      <trkpt lat="45.61493" lon="4.93192">
        <ele>311.2</ele>
        <time>2016-03-20T08:15:10Z</time>
      </trkpt>
      <trkpt lat="45.61507" lon="4.93187">
        <ele>310.5</ele>
        <time>2016-03-20T08:15:12Z</time>
      </trkpt>
      <trkpt lat="45.61522" lon="4.93183">
        <ele>310.2</ele>
        <time>2016-03-20T08:15:14Z</time>
      </trkpt>
      <trkpt lat="45.61537" lon="4.93181">
        <ele>310</ele>
        <time>2016-03-20T08:15:16Z</time>
      </trkpt>
      <trkpt lat="45.61552" lon="4.93181">
        <ele>309.9</ele>
        <time>2016-03-20T08:15:18Z</time>
      </trkpt>
      <trkpt lat="45.61567" lon="4.93183">
        <ele>309.9</ele>
        <time>2016-03-20T08:15:20Z</time>
      </trkpt>
      <trkpt lat="45.61581" lon="4.93184">
        <ele>309.8</ele>
        <time>2016-03-20T08:15:22Z</time>
      </trkpt>
      <trkpt lat="45.61596" lon="4.93186">
        <ele>309.8</ele>
        <time>2016-03-20T08:15:24Z</time>
      </trkpt>
      <trkpt lat="45.6161" lon="4.93187">
        <ele>309.7</ele>
        <time>2016-03-20T08:15:26Z</time>
      </trkpt>
      <trkpt lat="45.61624" lon="4.93189">
        <ele>309.1</ele>
        <time>2016-03-20T08:15:28Z</time>
      </trkpt>
      <trkpt lat="45.61638" lon="4.9319">
        <ele>308.6</ele>
        <time>2016-03-20T08:15:30Z</time>
      </trkpt>
      <trkpt lat="45.61652" lon="4.93192">
        <ele>308.4</ele>
        <time>2016-03-20T08:15:32Z</time>
      </trkpt>
      <trkpt lat="45.61665" lon="4.93194">
        <ele>308.3</ele>
        <time>2016-03-20T08:15:34Z</time>
      </trkpt>
      <trkpt lat="45.61679" lon="4.93202">
        <ele>308.3</ele>
        <time>2016-03-20T08:15:36Z</time>
      </trkpt>
      <trkpt lat="45.6169" lon="4.93215">
        <ele>308.3</ele>
        <time>2016-03-20T08:15:38Z</time>
      </trkpt>
      <trkpt lat="45.61699" lon="4.9323">
        <ele>308.3</ele>
        <time>2016-03-20T08:15:40Z</time>
      </trkpt>
      <trkpt lat="45.61706" lon="4.93245">
        <ele>308.2</ele>
        <time>2016-03-20T08:15:42Z</time>
      </trkpt>
      <trkpt lat="45.61714" lon="4.93259">
        <ele>308.1</ele>
        <time>2016-03-20T08:15:44Z</time>
      </trkpt>
      <trkpt lat="45.61721" lon="4.93271">
        <ele>307.9</ele>
        <time>2016-03-20T08:15:46Z</time>
      </trkpt>
      <trkpt lat="45.61726" lon="4.93278">
        <ele>307.6</ele>
        <time>2016-03-20T08:15:48Z</time>
      </trkpt>
      <trkpt lat="45.61725" lon="4.93282">
        <ele>307.4</ele>
        <time>2016-03-20T08:15:50Z</time>
      </trkpt>
      <trkpt lat="45.6172" lon="4.93284">
        <ele>307</ele>
        <time>2016-03-20T08:15:52Z</time>
      </trkpt>
      <trkpt lat="45.61714" lon="4.93286">
        <ele>307.2</ele>
        <time>2016-03-20T08:15:54Z</time>
      </trkpt>
      <trkpt lat="45.61708" lon="4.93289">
        <ele>307.4</ele>
        <time>2016-03-20T08:15:56Z</time>
      </trkpt>
      <trkpt lat="45.617" lon="4.93292">
        <ele>307.8</ele>
        <time>2016-03-20T08:15:58Z</time>
      </trkpt>
      <trkpt lat="45.61692" lon="4.93296">
        <ele>308.1</ele>
        <time>2016-03-20T08:16:00Z</time>
      </trkpt>
      <trkpt lat="45.61684" lon="4.93299">
        <ele>308.6</ele>
        <time>2016-03-20T08:16:02Z</time>
      </trkpt>
      <trkpt lat="45.61676" lon="4.93302">
        <ele>309</ele>
        <time>2016-03-20T08:16:04Z</time>
      </trkpt>
      <trkpt lat="45.61668" lon="4.93306">
        <ele>309.1</ele>
        <time>2016-03-20T08:16:06Z</time>
      </trkpt>
      <trkpt lat="45.61659" lon="4.93309">
        <ele>309.2</ele>
        <time>2016-03-20T08:16:08Z</time>
      </trkpt>
      <trkpt lat="45.61651" lon="4.93312">
        <ele>309.4</ele>
        <time>2016-03-20T08:16:10Z</time>
      </trkpt>
      <trkpt lat="45.61642" lon="4.93314">
        <ele>309.6</ele>
        <time>2016-03-20T08:16:12Z</time>
      </trkpt>
      <trkpt lat="45.61633" lon="4.93316">
        <ele>309.6</ele>
        <time>2016-03-20T08:16:14Z</time>
      </trkpt>
      <trkpt lat="45.61624" lon="4.93317">
        <ele>309.4</ele>
        <time>2016-03-20T08:16:16Z</time>
      </trkpt>
      <trkpt lat="45.61615" lon="4.93319">
        <ele>309.2</ele>
        <time>2016-03-20T08:16:18Z</time>
      </trkpt>
      <trkpt lat="45.61605" lon="4.9332">
        <ele>309.2</ele>
        <time>2016-03-20T08:16:20Z</time>
      </trkpt>
      <trkpt lat="45.61596" lon="4.93322">
        <ele>309.7</ele>
        <time>2016-03-20T08:16:22Z</time>
      </trkpt>
      <trkpt lat="45.61587" lon="4.93325">
        <ele>310.5</ele>
        <time>2016-03-20T08:16:24Z</time>
      </trkpt>
      <trkpt lat="45.61578" lon="4.93327">
        <ele>311.3</ele>
        <time>2016-03-20T08:16:26Z</time>
      </trkpt>
      <trkpt lat="45.61569" lon="4.9333">
        <ele>312.1</ele>
        <time>2016-03-20T08:16:28Z</time>
      </trkpt>
      <trkpt lat="45.6156" lon="4.93334">
        <ele>312.5</ele>
        <time>2016-03-20T08:16:30Z</time>
      </trkpt>
      <trkpt lat="45.61551" lon="4.93337">
        <ele>313.1</ele>
        <time>2016-03-20T08:16:32Z</time>
      </trkpt>
      <trkpt lat="45.61543" lon="4.93339">
        <ele>313.5</ele>
        <time>2016-03-20T08:16:34Z</time>
      </trkpt>
      <trkpt lat="45.61533" lon="4.93342">
        <ele>313.6</ele>
        <time>2016-03-20T08:16:36Z</time>
      </trkpt>
      <trkpt lat="45.61525" lon="4.93344">
        <ele>313.7</ele>
        <time>2016-03-20T08:16:38Z</time>
      </trkpt>
      <trkpt lat="45.61516" lon="4.93346">
        <ele>313.7</ele>
        <time>2016-03-20T08:16:40Z</time>
      </trkpt>
      <trkpt lat="45.61507" lon="4.93349">
        <ele>313.8</ele>
        <time>2016-03-20T08:16:42Z</time>
      </trkpt>
      <trkpt lat="45.61494" lon="4.93354">
        <ele>313.9</ele>
        <time>2016-03-20T08:16:45Z</time>
      </trkpt>
      <trkpt lat="45.61486" lon="4.93359">
        <ele>313.9</ele>
        <time>2016-03-20T08:16:47Z</time>
      </trkpt>
      <trkpt lat="45.61478" lon="4.93366">
        <ele>313.9</ele>
        <time>2016-03-20T08:16:49Z</time>
      </trkpt>
      <trkpt lat="45.61471" lon="4.93372">
        <ele>313.9</ele>
        <time>2016-03-20T08:16:51Z</time>
      </trkpt>
      <trkpt lat="45.61463" lon="4.93378">
        <ele>314</ele>
        <time>2016-03-20T08:16:53Z</time>
      </trkpt>
      <trkpt lat="45.61456" lon="4.93384">
        <ele>314</ele>
        <time>2016-03-20T08:16:55Z</time>
      </trkpt>
      <trkpt lat="45.61449" lon="4.93389">
        <ele>314</ele>
        <time>2016-03-20T08:16:57Z</time>
      </trkpt>
      <trkpt lat="45.61442" lon="4.93395">
        <ele>313.9</ele>
        <time>2016-03-20T08:16:59Z</time>
      </trkpt>
      <trkpt lat="45.61435" lon="4.93401">
        <ele>313.9</ele>
        <time>2016-03-20T08:17:01Z</time>
      </trkpt>
      <trkpt lat="45.61428" lon="4.93406">
        <ele>314</ele>
        <time>2016-03-20T08:17:03Z</time>
      </trkpt>
      <trkpt lat="45.6142" lon="4.93412">
        <ele>314</ele>
        <time>2016-03-20T08:17:05Z</time>
      </trkpt>
      <trkpt lat="45.61413" lon="4.93417">
        <ele>313.9</ele>
        <time>2016-03-20T08:17:07Z</time>
      </trkpt>
      <trkpt lat="45.61405" lon="4.93423">
        <ele>313.8</ele>
        <time>2016-03-20T08:17:09Z</time>
      </trkpt>
      <trkpt lat="45.61398" lon="4.93429">
        <ele>314.1</ele>
        <time>2016-03-20T08:17:11Z</time>
      </trkpt>
      <trkpt lat="45.6139" lon="4.93435">
        <ele>314.6</ele>
        <time>2016-03-20T08:17:13Z</time>
      </trkpt>
      <trkpt lat="45.61383" lon="4.9344">
        <ele>315.2</ele>
        <time>2016-03-20T08:17:15Z</time>
      </trkpt>
      <trkpt lat="45.61375" lon="4.93446">
        <ele>315.8</ele>
        <time>2016-03-20T08:17:17Z</time>
      </trkpt>
      <trkpt lat="45.61367" lon="4.93451">
        <ele>316.3</ele>
        <time>2016-03-20T08:17:19Z</time>
      </trkpt>
      <trkpt lat="45.61359" lon="4.93456">
        <ele>316.7</ele>
        <time>2016-03-20T08:17:21Z</time>
      </trkpt>
      <trkpt lat="45.61351" lon="4.93461">
        <ele>317</ele>
        <time>2016-03-20T08:17:23Z</time>
      </trkpt>
      <trkpt lat="45.61343" lon="4.93465">
        <ele>317.2</ele>
        <time>2016-03-20T08:17:25Z</time>
      </trkpt>
      <trkpt lat="45.61335" lon="4.93469">
        <ele>317.4</ele>
        <time>2016-03-20T08:17:27Z</time>
      </trkpt>
      <trkpt lat="45.61327" lon="4.93471">
        <ele>317.7</ele>
        <time>2016-03-20T08:17:29Z</time>
      </trkpt>
      <trkpt lat="45.61318" lon="4.93474">
        <ele>317.9</ele>
        <time>2016-03-20T08:17:31Z</time>
      </trkpt>
      <trkpt lat="45.6131" lon="4.93476">
        <ele>318.2</ele>
        <time>2016-03-20T08:17:33Z</time>
      </trkpt>
      <trkpt lat="45.61301" lon="4.93478">
        <ele>318.4</ele>
        <time>2016-03-20T08:17:35Z</time>
      </trkpt>
      <trkpt lat="45.61293" lon="4.93479">
        <ele>318.7</ele>
        <time>2016-03-20T08:17:37Z</time>
      </trkpt>
      <trkpt lat="45.61285" lon="4.9348">
        <ele>319</ele>
        <time>2016-03-20T08:17:39Z</time>
      </trkpt>
      <trkpt lat="45.61276" lon="4.93481">
        <ele>319.2</ele>
        <time>2016-03-20T08:17:41Z</time>
      </trkpt>
      <trkpt lat="45.61267" lon="4.93482">
        <ele>319.4</ele>
        <time>2016-03-20T08:17:43Z</time>
      </trkpt>
      <trkpt lat="45.61258" lon="4.93483">
        <ele>319.7</ele>
        <time>2016-03-20T08:17:45Z</time>
      </trkpt>
      <trkpt lat="45.6125" lon="4.93485">
        <ele>320</ele>
        <time>2016-03-20T08:17:47Z</time>
      </trkpt>
      <trkpt lat="45.61241" lon="4.93486">
        <ele>320.2</ele>
        <time>2016-03-20T08:17:49Z</time>
      </trkpt>
      <trkpt lat="45.61232" lon="4.93487">
        <ele>320.4</ele>
        <time>2016-03-20T08:17:51Z</time>
      </trkpt>
      <trkpt lat="45.61223" lon="4.93488">
        <ele>320.5</ele>
        <time>2016-03-20T08:17:53Z</time>
      </trkpt>
      <trkpt lat="45.61214" lon="4.93489">
        <ele>320.4</ele>
        <time>2016-03-20T08:17:55Z</time>
      </trkpt>
      <trkpt lat="45.61206" lon="4.9349">
        <ele>320.4</ele>
        <time>2016-03-20T08:17:57Z</time>
      </trkpt>
      <trkpt lat="45.61197" lon="4.93491">
        <ele>320.3</ele>
        <time>2016-03-20T08:17:59Z</time>
      </trkpt>
      <trkpt lat="45.61189" lon="4.93492">
        <ele>320</ele>
        <time>2016-03-20T08:18:01Z</time>
      </trkpt>
      <trkpt lat="45.6118" lon="4.93493">
        <ele>319.7</ele>
        <time>2016-03-20T08:18:03Z</time>
      </trkpt>
      <trkpt lat="45.61171" lon="4.93493">
        <ele>319.5</ele>
        <time>2016-03-20T08:18:05Z</time>
      </trkpt>
      <trkpt lat="45.61163" lon="4.93494">
        <ele>319.4</ele>
        <time>2016-03-20T08:18:07Z</time>
      </trkpt>
      <trkpt lat="45.61154" lon="4.93496">
        <ele>319.3</ele>
        <time>2016-03-20T08:18:09Z</time>
      </trkpt>
      <trkpt lat="45.61145" lon="4.93497">
        <ele>319.5</ele>
        <time>2016-03-20T08:18:11Z</time>
      </trkpt>
      <trkpt lat="45.61136" lon="4.93499">
        <ele>319.5</ele>
        <time>2016-03-20T08:18:13Z</time>
      </trkpt>
      <trkpt lat="45.61126" lon="4.93502">
        <ele>319.9</ele>
        <time>2016-03-20T08:18:15Z</time>
      </trkpt>
      <trkpt lat="45.61116" lon="4.93504">
        <ele>320.2</ele>
        <time>2016-03-20T08:18:17Z</time>
      </trkpt>
      <trkpt lat="45.61107" lon="4.93507">
        <ele>320.6</ele>
        <time>2016-03-20T08:18:19Z</time>
      </trkpt>
      <trkpt lat="45.61099" lon="4.9351">
        <ele>320.9</ele>
        <time>2016-03-20T08:18:21Z</time>
      </trkpt>
      <trkpt lat="45.61091" lon="4.93511">
        <ele>321</ele>
        <time>2016-03-20T08:18:23Z</time>
      </trkpt>
      <trkpt lat="45.61087" lon="4.93504">
        <ele>321</ele>
        <time>2016-03-20T08:18:25Z</time>
      </trkpt>
      <trkpt lat="45.61088" lon="4.93496">
        <ele>320.8</ele>
        <time>2016-03-20T08:18:27Z</time>
      </trkpt>
      <trkpt lat="45.61089" lon="4.93486">
        <ele>320.4</ele>
        <time>2016-03-20T08:18:29Z</time>
      </trkpt>
      <trkpt lat="45.6109" lon="4.93476">
        <ele>320</ele>
        <time>2016-03-20T08:18:31Z</time>
      </trkpt>
      <trkpt lat="45.61089" lon="4.93465">
        <ele>319.7</ele>
        <time>2016-03-20T08:18:33Z</time>
      </trkpt>
      <trkpt lat="45.61089" lon="4.93455">
        <ele>319.7</ele>
        <time>2016-03-20T08:18:35Z</time>
      </trkpt>
      <trkpt lat="45.61088" lon="4.93445">
        <ele>319.7</ele>
        <time>2016-03-20T08:18:37Z</time>
      </trkpt>
      <trkpt lat="45.61087" lon="4.93434">
        <ele>319.7</ele>
        <time>2016-03-20T08:18:39Z</time>
      </trkpt>
      <trkpt lat="45.61087" lon="4.93422">
        <ele>319.6</ele>
        <time>2016-03-20T08:18:41Z</time>
      </trkpt>
      <trkpt lat="45.61086" lon="4.9341">
        <ele>319.6</ele>
        <time>2016-03-20T08:18:43Z</time>
      </trkpt>
      <trkpt lat="45.61086" lon="4.93397">
        <ele>319.5</ele>
        <time>2016-03-20T08:18:45Z</time>
      </trkpt>
      <trkpt lat="45.61087" lon="4.93384">
        <ele>319.4</ele>
        <time>2016-03-20T08:18:47Z</time>
      </trkpt>
      <trkpt lat="45.61087" lon="4.93372">
        <ele>319.4</ele>
        <time>2016-03-20T08:18:49Z</time>
      </trkpt>
      <trkpt lat="45.61089" lon="4.9336">
        <ele>319.3</ele>
        <time>2016-03-20T08:18:51Z</time>
      </trkpt>
      <trkpt lat="45.61088" lon="4.93347">
        <ele>319.3</ele>
        <time>2016-03-20T08:18:53Z</time>
      </trkpt>
      <trkpt lat="45.61089" lon="4.93334">
        <ele>319.2</ele>
        <time>2016-03-20T08:18:55Z</time>
      </trkpt>
      <trkpt lat="45.61089" lon="4.93321">
        <ele>319.1</ele>
        <time>2016-03-20T08:18:57Z</time>
      </trkpt>
      <trkpt lat="45.61091" lon="4.93308">
        <ele>319.1</ele>
        <time>2016-03-20T08:18:59Z</time>
      </trkpt>
      <trkpt lat="45.61092" lon="4.93294">
        <ele>318.9</ele>
        <time>2016-03-20T08:19:01Z</time>
      </trkpt>
      <trkpt lat="45.61093" lon="4.93281">
        <ele>318.3</ele>
        <time>2016-03-20T08:19:03Z</time>
      </trkpt>
      <trkpt lat="45.61092" lon="4.9327">
        <ele>318</ele>
        <time>2016-03-20T08:19:05Z</time>
      </trkpt>
      <trkpt lat="45.61087" lon="4.93265">
        <ele>318</ele>
        <time>2016-03-20T08:19:07Z</time>
      </trkpt>
      <trkpt lat="45.61081" lon="4.93261">
        <ele>318.1</ele>
        <time>2016-03-20T08:19:09Z</time>
      </trkpt>
      <trkpt lat="45.61074" lon="4.93257">
        <ele>318.1</ele>
        <time>2016-03-20T08:19:11Z</time>
      </trkpt>
      <trkpt lat="45.61066" lon="4.93253">
        <ele>318</ele>
        <time>2016-03-20T08:19:13Z</time>
      </trkpt>
      <trkpt lat="45.61058" lon="4.93248">
        <ele>317.9</ele>
        <time>2016-03-20T08:19:15Z</time>
      </trkpt>
      <trkpt lat="45.61049" lon="4.93241">
        <ele>317.7</ele>
        <time>2016-03-20T08:19:17Z</time>
      </trkpt>
      <trkpt lat="45.61039" lon="4.93234">
        <ele>317.2</ele>
        <time>2016-03-20T08:19:19Z</time>
      </trkpt>
      <trkpt lat="45.61029" lon="4.93227">
        <ele>316.8</ele>
        <time>2016-03-20T08:19:21Z</time>
      </trkpt>
      <trkpt lat="45.6102" lon="4.93218">
        <ele>316.5</ele>
        <time>2016-03-20T08:19:23Z</time>
      </trkpt>
      <trkpt lat="45.61009" lon="4.93209">
        <ele>316.2</ele>
        <time>2016-03-20T08:19:25Z</time>
      </trkpt>
      <trkpt lat="45.60998" lon="4.932">
        <ele>315.7</ele>
        <time>2016-03-20T08:19:27Z</time>
      </trkpt>
      <trkpt lat="45.60988" lon="4.93191">
        <ele>315.3</ele>
        <time>2016-03-20T08:19:29Z</time>
      </trkpt>
      <trkpt lat="45.60977" lon="4.93182">
        <ele>314.9</ele>
        <time>2016-03-20T08:19:31Z</time>
      </trkpt>
      <trkpt lat="45.60966" lon="4.93175">
        <ele>314.5</ele>
        <time>2016-03-20T08:19:33Z</time>
      </trkpt>
      <trkpt lat="45.60955" lon="4.93171">
        <ele>314.2</ele>
        <time>2016-03-20T08:19:35Z</time>
      </trkpt>
      <trkpt lat="45.60943" lon="4.9317">
        <ele>314</ele>
        <time>2016-03-20T08:19:37Z</time>
      </trkpt>
      <trkpt lat="45.6093" lon="4.93169">
        <ele>313.7</ele>
        <time>2016-03-20T08:19:39Z</time>
      </trkpt>
      <trkpt lat="45.60917" lon="4.93168">
        <ele>313.1</ele>
        <time>2016-03-20T08:19:41Z</time>
      </trkpt>
      <trkpt lat="45.60904" lon="4.93166">
        <ele>312.4</ele>
        <time>2016-03-20T08:19:43Z</time>
      </trkpt>
      <trkpt lat="45.60889" lon="4.93165">
        <ele>311.7</ele>
        <time>2016-03-20T08:19:45Z</time>
      </trkpt>
      <trkpt lat="45.60875" lon="4.93162">
        <ele>311.1</ele>
        <time>2016-03-20T08:19:47Z</time>
      </trkpt>
      <trkpt lat="45.6086" lon="4.9316">
        <ele>310.7</ele>
        <time>2016-03-20T08:19:49Z</time>
      </trkpt>
      <trkpt lat="45.60846" lon="4.93156">
        <ele>310.5</ele>
        <time>2016-03-20T08:19:51Z</time>
      </trkpt>
      <trkpt lat="45.60832" lon="4.93152">
        <ele>310</ele>
        <time>2016-03-20T08:19:53Z</time>
      </trkpt>
      <trkpt lat="45.60819" lon="4.93145">
        <ele>309.8</ele>
        <time>2016-03-20T08:19:55Z</time>
      </trkpt>
      <trkpt lat="45.60807" lon="4.93138">
        <ele>309.8</ele>
        <time>2016-03-20T08:19:57Z</time>
      </trkpt>
      <trkpt lat="45.60796" lon="4.93132">
        <ele>309.8</ele>
        <time>2016-03-20T08:19:59Z</time>
      </trkpt>
      <trkpt lat="45.60784" lon="4.93127">
        <ele>309.9</ele>
        <time>2016-03-20T08:20:01Z</time>
      </trkpt>
      <trkpt lat="45.60771" lon="4.93124">
        <ele>310</ele>
        <time>2016-03-20T08:20:03Z</time>
      </trkpt>
      <trkpt lat="45.60759" lon="4.93124">
        <ele>310.1</ele>
        <time>2016-03-20T08:20:05Z</time>
      </trkpt>
      <trkpt lat="45.60747" lon="4.93123">
        <ele>310.2</ele>
        <time>2016-03-20T08:20:07Z</time>
      </trkpt>
      <trkpt lat="45.60736" lon="4.93119">
        <ele>310.3</ele>
        <time>2016-03-20T08:20:09Z</time>
      </trkpt>
      <trkpt lat="45.60725" lon="4.93116">
        <ele>310.5</ele>
        <time>2016-03-20T08:20:11Z</time>
      </trkpt>
      <trkpt lat="45.60714" lon="4.93113">
        <ele>310.6</ele>
        <time>2016-03-20T08:20:13Z</time>
      </trkpt>
      <trkpt lat="45.60703" lon="4.9311">
        <ele>310.7</ele>
        <time>2016-03-20T08:20:15Z</time>
      </trkpt>
      <trkpt lat="45.60691" lon="4.93109">
        <ele>310.8</ele>
        <time>2016-03-20T08:20:17Z</time>
      </trkpt>
      <trkpt lat="45.60678" lon="4.93108">
        <ele>310.8</ele>
        <time>2016-03-20T08:20:19Z</time>
      </trkpt>
      <trkpt lat="45.60666" lon="4.9311">
        <ele>310.8</ele>
        <time>2016-03-20T08:20:21Z</time>
      </trkpt>
      <trkpt lat="45.60653" lon="4.93112">
        <ele>310.6</ele>
        <time>2016-03-20T08:20:23Z</time>
      </trkpt>
      <trkpt lat="45.60641" lon="4.93115">
        <ele>310.2</ele>
        <time>2016-03-20T08:20:25Z</time>
      </trkpt>
      <trkpt lat="45.6063" lon="4.93121">
        <ele>310</ele>
        <time>2016-03-20T08:20:27Z</time>
      </trkpt>
      <trkpt lat="45.60619" lon="4.93127">
        <ele>309.9</ele>
        <time>2016-03-20T08:20:29Z</time>
      </trkpt>
      <trkpt lat="45.60607" lon="4.93133">
        <ele>309.8</ele>
        <time>2016-03-20T08:20:31Z</time>
      </trkpt>
      <trkpt lat="45.60596" lon="4.9314">
        <ele>309.7</ele>
        <time>2016-03-20T08:20:33Z</time>
      </trkpt>
      <trkpt lat="45.60585" lon="4.93147">
        <ele>309.4</ele>
        <time>2016-03-20T08:20:35Z</time>
      </trkpt>
      <trkpt lat="45.60574" lon="4.93156">
        <ele>308.9</ele>
        <time>2016-03-20T08:20:37Z</time>
      </trkpt>
      <trkpt lat="45.60564" lon="4.93165">
        <ele>308.7</ele>
        <time>2016-03-20T08:20:39Z</time>
      </trkpt>
      <trkpt lat="45.60553" lon="4.93173">
        <ele>308.5</ele>
        <time>2016-03-20T08:20:41Z</time>
      </trkpt>
      <trkpt lat="45.60542" lon="4.93179">
        <ele>308.2</ele>
        <time>2016-03-20T08:20:43Z</time>
      </trkpt>
      <trkpt lat="45.60531" lon="4.93185">
        <ele>307.8</ele>
        <time>2016-03-20T08:20:45Z</time>
      </trkpt>
      <trkpt lat="45.60519" lon="4.93192">
        <ele>307.4</ele>
        <time>2016-03-20T08:20:47Z</time>
      </trkpt>
      <trkpt lat="45.60512" lon="4.93201">
        <ele>307.2</ele>
        <time>2016-03-20T08:20:49Z</time>
      </trkpt>
      <trkpt lat="45.60508" lon="4.93211">
        <ele>306.9</ele>
        <time>2016-03-20T08:20:51Z</time>
      </trkpt>
      <trkpt lat="45.60502" lon="4.93222">
        <ele>306.3</ele>
        <time>2016-03-20T08:20:53Z</time>
      </trkpt>
      <trkpt lat="45.60495" lon="4.93233">
        <ele>305.3</ele>
        <time>2016-03-20T08:20:55Z</time>
      </trkpt>
      <trkpt lat="45.60487" lon="4.93242">
        <ele>303.9</ele>
        <time>2016-03-20T08:20:57Z</time>
      </trkpt>
      <trkpt lat="45.60478" lon="4.93247">
        <ele>302</ele>
        <time>2016-03-20T08:20:59Z</time>
      </trkpt>
      <trkpt lat="45.60471" lon="4.9325">
        <ele>300.4</ele>
        <time>2016-03-20T08:21:01Z</time>
      </trkpt>
      <trkpt lat="45.60462" lon="4.93252">
        <ele>298.7</ele>
        <time>2016-03-20T08:21:03Z</time>
      </trkpt>
      <trkpt lat="45.60453" lon="4.93255">
        <ele>296.9</ele>
        <time>2016-03-20T08:21:05Z</time>
      </trkpt>
      <trkpt lat="45.60447" lon="4.93256">
        <ele>295.5</ele>
        <time>2016-03-20T08:21:07Z</time>
      </trkpt>
      <trkpt lat="45.60439" lon="4.93257">
        <ele>294.3</ele>
        <time>2016-03-20T08:21:09Z</time>
      </trkpt>
      <trkpt lat="45.6043" lon="4.93257">
        <ele>292.9</ele>
        <time>2016-03-20T08:21:11Z</time>
      </trkpt>
      <trkpt lat="45.6042" lon="4.93255">
        <ele>291.2</ele>
        <time>2016-03-20T08:21:13Z</time>
      </trkpt>
      <trkpt lat="45.6041" lon="4.93255">
        <ele>289.7</ele>
        <time>2016-03-20T08:21:15Z</time>
      </trkpt>
      <trkpt lat="45.60397" lon="4.93254">
        <ele>288.3</ele>
        <time>2016-03-20T08:21:17Z</time>
      </trkpt>
      <trkpt lat="45.60385" lon="4.93253">
        <ele>286.7</ele>
        <time>2016-03-20T08:21:19Z</time>
      </trkpt>
      <trkpt lat="45.60373" lon="4.93251">
        <ele>286</ele>
        <time>2016-03-20T08:21:21Z</time>
      </trkpt>
      <trkpt lat="45.60359" lon="4.93251">
        <ele>285.3</ele>
        <time>2016-03-20T08:21:23Z</time>
      </trkpt>
      <trkpt lat="45.60346" lon="4.93249">
        <ele>284.4</ele>
        <time>2016-03-20T08:21:25Z</time>
      </trkpt>
      <trkpt lat="45.60333" lon="4.93247">
        <ele>283.5</ele>
        <time>2016-03-20T08:21:27Z</time>
      </trkpt>
      <trkpt lat="45.6032" lon="4.93241">
        <ele>282.7</ele>
        <time>2016-03-20T08:21:29Z</time>
      </trkpt>
      <trkpt lat="45.60307" lon="4.93235">
        <ele>281.9</ele>
        <time>2016-03-20T08:21:31Z</time>
      </trkpt>
      <trkpt lat="45.60296" lon="4.93225">
        <ele>282</ele>
        <time>2016-03-20T08:21:33Z</time>
      </trkpt>
      <trkpt lat="45.60287" lon="4.93215">
        <ele>282.1</ele>
        <time>2016-03-20T08:21:35Z</time>
      </trkpt>
      <trkpt lat="45.60279" lon="4.93207">
        <ele>281.6</ele>
        <time>2016-03-20T08:21:37Z</time>
      </trkpt>
      <trkpt lat="45.60274" lon="4.932">
        <ele>281.4</ele>
        <time>2016-03-20T08:21:39Z</time>
      </trkpt>
      <trkpt lat="45.60272" lon="4.93194">
        <ele>281.3</ele>
        <time>2016-03-20T08:21:41Z</time>
      </trkpt>
      <trkpt lat="45.6027" lon="4.93187">
        <ele>281.1</ele>
        <time>2016-03-20T08:21:43Z</time>
      </trkpt>
      <trkpt lat="45.60271" lon="4.93177">
        <ele>280.7</ele>
        <time>2016-03-20T08:21:45Z</time>
      </trkpt>
      <trkpt lat="45.60272" lon="4.93165">
        <ele>280.5</ele>
        <time>2016-03-20T08:21:47Z</time>
      </trkpt>
      <trkpt lat="45.60273" lon="4.93151">
        <ele>280.5</ele>
        <time>2016-03-20T08:21:49Z</time>
      </trkpt>
      <trkpt lat="45.60275" lon="4.93138">
        <ele>280.7</ele>
        <time>2016-03-20T08:21:51Z</time>
      </trkpt>
      <trkpt lat="45.60275" lon="4.93123">
        <ele>281.2</ele>
        <time>2016-03-20T08:21:53Z</time>
      </trkpt>
      <trkpt lat="45.60278" lon="4.93109">
        <ele>281.6</ele>
        <time>2016-03-20T08:21:55Z</time>
      </trkpt>
      <trkpt lat="45.6028" lon="4.93097">
        <ele>281.9</ele>
        <time>2016-03-20T08:21:57Z</time>
      </trkpt>
      <trkpt lat="45.60283" lon="4.93086">
        <ele>282.2</ele>
        <time>2016-03-20T08:21:59Z</time>
      </trkpt>
      <trkpt lat="45.60285" lon="4.93075">
        <ele>282.5</ele>
        <time>2016-03-20T08:22:01Z</time>
      </trkpt>
      <trkpt lat="45.60288" lon="4.93065">
        <ele>282.6</ele>
        <time>2016-03-20T08:22:03Z</time>
      </trkpt>
      <trkpt lat="45.60289" lon="4.93056">
        <ele>282.7</ele>
        <time>2016-03-20T08:22:05Z</time>
      </trkpt>
      <trkpt lat="45.60289" lon="4.93047">
        <ele>282.7</ele>
        <time>2016-03-20T08:22:07Z</time>
      </trkpt>
      <trkpt lat="45.60291" lon="4.93038">
        <ele>282.8</ele>
        <time>2016-03-20T08:22:09Z</time>
      </trkpt>
      <trkpt lat="45.60292" lon="4.9303">
        <ele>282.9</ele>
        <time>2016-03-20T08:22:11Z</time>
      </trkpt>
      <trkpt lat="45.60294" lon="4.9302">
        <ele>283</ele>
        <time>2016-03-20T08:22:13Z</time>
      </trkpt>
      <trkpt lat="45.60295" lon="4.9301">
        <ele>283.1</ele>
        <time>2016-03-20T08:22:15Z</time>
      </trkpt>
      <trkpt lat="45.60296" lon="4.93">
        <ele>283.3</ele>
        <time>2016-03-20T08:22:17Z</time>
      </trkpt>
      <trkpt lat="45.60296" lon="4.92991">
        <ele>283.5</ele>
        <time>2016-03-20T08:22:19Z</time>
      </trkpt>
      <trkpt lat="45.60296" lon="4.92982">
        <ele>283.6</ele>
        <time>2016-03-20T08:22:21Z</time>
      </trkpt>
      <trkpt lat="45.60296" lon="4.92973">
        <ele>283.8</ele>
        <time>2016-03-20T08:22:23Z</time>
      </trkpt>
      <trkpt lat="45.60297" lon="4.92966">
        <ele>284</ele>
        <time>2016-03-20T08:22:25Z</time>
      </trkpt>
      <trkpt lat="45.60297" lon="4.92959">
        <ele>284.2</ele>
        <time>2016-03-20T08:22:27Z</time>
      </trkpt>
      <trkpt lat="45.60297" lon="4.92953">
        <ele>284.7</ele>
        <time>2016-03-20T08:22:29Z</time>
      </trkpt>
      <trkpt lat="45.60298" lon="4.92948">
        <ele>285.1</ele>
        <time>2016-03-20T08:22:31Z</time>
      </trkpt>
      <trkpt lat="45.60299" lon="4.92943">
        <ele>285.6</ele>
        <time>2016-03-20T08:22:33Z</time>
      </trkpt>
      <trkpt lat="45.60299" lon="4.92937">
        <ele>286.1</ele>
        <time>2016-03-20T08:22:35Z</time>
      </trkpt>
      <trkpt lat="45.603" lon="4.92933">
        <ele>286.5</ele>
        <time>2016-03-20T08:22:37Z</time>
      </trkpt>
      <trkpt lat="45.603" lon="4.92929">
        <ele>286.7</ele>
        <time>2016-03-20T08:22:39Z</time>
      </trkpt>
      <trkpt lat="45.60299" lon="4.92922">
        <ele>287.2</ele>
        <time>2016-03-20T08:22:45Z</time>
      </trkpt>
      <trkpt lat="45.60296" lon="4.92916">
        <ele>287.8</ele>
        <time>2016-03-20T08:22:51Z</time>
      </trkpt>
      <trkpt lat="45.60296" lon="4.92915">
        <ele>287.9</ele>
        <time>2016-03-20T08:22:53Z</time>
      </trkpt>
      <trkpt lat="45.60294" lon="4.92912">
        <ele>288.3</ele>
        <time>2016-03-20T08:22:55Z</time>
      </trkpt>
      <trkpt lat="45.60292" lon="4.92909">
        <ele>289.5</ele>
        <time>2016-03-20T08:22:57Z</time>
      </trkpt>
      <trkpt lat="45.6029" lon="4.92909">
        <ele>289.7</ele>
        <time>2016-03-20T08:22:59Z</time>
      </trkpt>
      <trkpt lat="45.60288" lon="4.92908">
        <ele>289.9</ele>
        <time>2016-03-20T08:23:01Z</time>
      </trkpt>
      <trkpt lat="45.60286" lon="4.92908">
        <ele>290.1</ele>
        <time>2016-03-20T08:23:03Z</time>
      </trkpt>
      <trkpt lat="45.60284" lon="4.92907">
        <ele>290.3</ele>
        <time>2016-03-20T08:23:05Z</time>
      </trkpt>
      <trkpt lat="45.60283" lon="4.92907">
        <ele>290.9</ele>
        <time>2016-03-20T08:23:07Z</time>
      </trkpt>
      <trkpt lat="45.60281" lon="4.92909">
        <ele>291.5</ele>
        <time>2016-03-20T08:23:13Z</time>
      </trkpt>
      <trkpt lat="45.60279" lon="4.9291">
        <ele>292</ele>
        <time>2016-03-20T08:23:15Z</time>
      </trkpt>
      <trkpt lat="45.60276" lon="4.92911">
        <ele>293</ele>
        <time>2016-03-20T08:23:17Z</time>
      </trkpt>
      <trkpt lat="45.60275" lon="4.92913">
        <ele>293.7</ele>
        <time>2016-03-20T08:23:19Z</time>
      </trkpt>
      <trkpt lat="45.60273" lon="4.92914">
        <ele>294.1</ele>
        <time>2016-03-20T08:23:21Z</time>
      </trkpt>
      <trkpt lat="45.60271" lon="4.92916">
        <ele>294.4</ele>
        <time>2016-03-20T08:23:23Z</time>
      </trkpt>
      <trkpt lat="45.60269" lon="4.92916">
        <ele>294.6</ele>
        <time>2016-03-20T08:23:25Z</time>
      </trkpt>
      <trkpt lat="45.60268" lon="4.92918">
        <ele>294.8</ele>
        <time>2016-03-20T08:23:27Z</time>
      </trkpt>
      <trkpt lat="45.60265" lon="4.92919">
        <ele>295.1</ele>
        <time>2016-03-20T08:23:29Z</time>
      </trkpt>
      <trkpt lat="45.60263" lon="4.92921">
        <ele>295.5</ele>
        <time>2016-03-20T08:23:31Z</time>
      </trkpt>
      <trkpt lat="45.60261" lon="4.92922">
        <ele>295.9</ele>
        <time>2016-03-20T08:23:33Z</time>
      </trkpt>
      <trkpt lat="45.6026" lon="4.92923">
        <ele>296.2</ele>
        <time>2016-03-20T08:23:35Z</time>
      </trkpt>
      <trkpt lat="45.60257" lon="4.92926">
        <ele>296.8</ele>
        <time>2016-03-20T08:23:41Z</time>
      </trkpt>
      <trkpt lat="45.60255" lon="4.92927">
        <ele>297</ele>
        <time>2016-03-20T08:23:43Z</time>
      </trkpt>
      <trkpt lat="45.60254" lon="4.92927">
        <ele>297.3</ele>
        <time>2016-03-20T08:23:45Z</time>
      </trkpt>
      <trkpt lat="45.60252" lon="4.92927">
        <ele>297.5</ele>
        <time>2016-03-20T08:23:47Z</time>
      </trkpt>
      <trkpt lat="45.60249" lon="4.92927">
        <ele>298</ele>
        <time>2016-03-20T08:23:49Z</time>
      </trkpt>
      <trkpt lat="45.60247" lon="4.92927">
        <ele>298.5</ele>
        <time>2016-03-20T08:23:51Z</time>
      </trkpt>
      <trkpt lat="45.60244" lon="4.92927">
        <ele>299.1</ele>
        <time>2016-03-20T08:23:53Z</time>
      </trkpt>
      <trkpt lat="45.60241" lon="4.92927">
        <ele>299.8</ele>
        <time>2016-03-20T08:23:55Z</time>
      </trkpt>
      <trkpt lat="45.60238" lon="4.92927">
        <ele>300.3</ele>
        <time>2016-03-20T08:23:57Z</time>
      </trkpt>
      <trkpt lat="45.60236" lon="4.92928">
        <ele>300.7</ele>
        <time>2016-03-20T08:23:59Z</time>
      </trkpt>
      <trkpt lat="45.60233" lon="4.92928">
        <ele>301</ele>
        <time>2016-03-20T08:24:01Z</time>
      </trkpt>
      <trkpt lat="45.6023" lon="4.92927">
        <ele>301.2</ele>
        <time>2016-03-20T08:24:03Z</time>
      </trkpt>
      <trkpt lat="45.60228" lon="4.92925">
        <ele>301.3</ele>
        <time>2016-03-20T08:24:05Z</time>
      </trkpt>
      <trkpt lat="45.60226" lon="4.92924">
        <ele>301.4</ele>
        <time>2016-03-20T08:24:07Z</time>
      </trkpt>
      <trkpt lat="45.60223" lon="4.92924">
        <ele>301.5</ele>
        <time>2016-03-20T08:24:09Z</time>
      </trkpt>
      <trkpt lat="45.6022" lon="4.92924">
        <ele>301.5</ele>
        <time>2016-03-20T08:24:11Z</time>
      </trkpt>
      <trkpt lat="45.60217" lon="4.92924">
        <ele>301.5</ele>
        <time>2016-03-20T08:24:13Z</time>
      </trkpt>
      <trkpt lat="45.60215" lon="4.92923">
        <ele>301.6</ele>
        <time>2016-03-20T08:24:15Z</time>
      </trkpt>
      <trkpt lat="45.60212" lon="4.92923">
        <ele>301.7</ele>
        <time>2016-03-20T08:24:17Z</time>
      </trkpt>
      <trkpt lat="45.6021" lon="4.92923">
        <ele>301.8</ele>
        <time>2016-03-20T08:24:19Z</time>
      </trkpt>
      <trkpt lat="45.60207" lon="4.92923">
        <ele>301.7</ele>
        <time>2016-03-20T08:24:21Z</time>
      </trkpt>
      <trkpt lat="45.60205" lon="4.92922">
        <ele>301.3</ele>
        <time>2016-03-20T08:24:23Z</time>
      </trkpt>
      <trkpt lat="45.60202" lon="4.92922">
        <ele>300.9</ele>
        <time>2016-03-20T08:24:25Z</time>
      </trkpt>
      <trkpt lat="45.602" lon="4.92921">
        <ele>300.6</ele>
        <time>2016-03-20T08:24:27Z</time>
      </trkpt>
      <trkpt lat="45.60197" lon="4.9292">
        <ele>300.4</ele>
        <time>2016-03-20T08:24:29Z</time>
      </trkpt>
      <trkpt lat="45.60195" lon="4.92919">
        <ele>300.2</ele>
        <time>2016-03-20T08:24:31Z</time>
      </trkpt>
      <trkpt lat="45.60193" lon="4.92919">
        <ele>300</ele>
        <time>2016-03-20T08:24:33Z</time>
      </trkpt>
      <trkpt lat="45.60191" lon="4.92919">
        <ele>300.7</ele>
        <time>2016-03-20T08:24:35Z</time>
      </trkpt>
      <trkpt lat="45.60189" lon="4.92918">
        <ele>300.9</ele>
        <time>2016-03-20T08:24:37Z</time>
      </trkpt>
      <trkpt lat="45.60188" lon="4.92916">
        <ele>301.1</ele>
        <time>2016-03-20T08:24:39Z</time>
      </trkpt>
      <trkpt lat="45.60187" lon="4.92914">
        <ele>301.3</ele>
        <time>2016-03-20T08:24:41Z</time>
      </trkpt>
      <trkpt lat="45.60186" lon="4.92912">
        <ele>301.5</ele>
        <time>2016-03-20T08:24:43Z</time>
      </trkpt>
      <trkpt lat="45.60186" lon="4.92909">
        <ele>301.7</ele>
        <time>2016-03-20T08:24:45Z</time>
      </trkpt>
      <trkpt lat="45.60186" lon="4.92907">
        <ele>301.9</ele>
        <time>2016-03-20T08:24:47Z</time>
      </trkpt>
      <trkpt lat="45.60185" lon="4.92905">
        <ele>302.1</ele>
        <time>2016-03-20T08:24:49Z</time>
      </trkpt>
      <trkpt lat="45.60186" lon="4.92903">
        <ele>302.3</ele>
        <time>2016-03-20T08:24:51Z</time>
      </trkpt>
      <trkpt lat="45.60186" lon="4.92899">
        <ele>302.6</ele>
        <time>2016-03-20T08:24:53Z</time>
      </trkpt>
      <trkpt lat="45.60188" lon="4.92896">
        <ele>302.9</ele>
        <time>2016-03-20T08:24:55Z</time>
      </trkpt>
      <trkpt lat="45.60189" lon="4.92892">
        <ele>303.2</ele>
        <time>2016-03-20T08:24:57Z</time>
      </trkpt>
      <trkpt lat="45.6019" lon="4.92888">
        <ele>303.5</ele>
        <time>2016-03-20T08:24:59Z</time>
      </trkpt>
      <trkpt lat="45.60191" lon="4.92885">
        <ele>303.8</ele>
        <time>2016-03-20T08:25:01Z</time>
      </trkpt>
      <trkpt lat="45.60192" lon="4.92881">
        <ele>304.2</ele>
        <time>2016-03-20T08:25:03Z</time>
      </trkpt>
      <trkpt lat="45.60194" lon="4.92877">
        <ele>304.7</ele>
        <time>2016-03-20T08:25:05Z</time>
      </trkpt>
      <trkpt lat="45.60195" lon="4.92873">
        <ele>305.1</ele>
        <time>2016-03-20T08:25:07Z</time>
      </trkpt>
      <trkpt lat="45.60196" lon="4.92869">
        <ele>305.5</ele>
        <time>2016-03-20T08:25:09Z</time>
      </trkpt>
      <trkpt lat="45.60197" lon="4.92865">
        <ele>306.1</ele>
        <time>2016-03-20T08:25:11Z</time>
      </trkpt>
      <trkpt lat="45.60199" lon="4.92861">
        <ele>306.5</ele>
        <time>2016-03-20T08:25:13Z</time>
      </trkpt>
      <trkpt lat="45.60201" lon="4.92856">
        <ele>307.1</ele>
        <time>2016-03-20T08:25:15Z</time>
      </trkpt>
      <trkpt lat="45.60202" lon="4.92852">
        <ele>307.5</ele>
        <time>2016-03-20T08:25:17Z</time>
      </trkpt>
      <trkpt lat="45.60203" lon="4.92849">
        <ele>307.9</ele>
        <time>2016-03-20T08:25:19Z</time>
      </trkpt>
      <trkpt lat="45.60206" lon="4.92845">
        <ele>308.4</ele>
        <time>2016-03-20T08:25:21Z</time>
      </trkpt>
      <trkpt lat="45.60207" lon="4.92842">
        <ele>308.8</ele>
        <time>2016-03-20T08:25:23Z</time>
      </trkpt>
      <trkpt lat="45.6021" lon="4.9284">
        <ele>309.1</ele>
        <time>2016-03-20T08:25:25Z</time>
      </trkpt>
      <trkpt lat="45.60212" lon="4.92839">
        <ele>309.5</ele>
        <time>2016-03-20T08:25:27Z</time>
      </trkpt>
      <trkpt lat="45.60215" lon="4.92839">
        <ele>309.9</ele>
        <time>2016-03-20T08:25:29Z</time>
      </trkpt>
      <trkpt lat="45.6022" lon="4.92838">
        <ele>310.2</ele>
        <time>2016-03-20T08:25:31Z</time>
      </trkpt>
      <trkpt lat="45.60223" lon="4.92837">
        <ele>310.5</ele>
        <time>2016-03-20T08:25:33Z</time>
      </trkpt>
      <trkpt lat="45.60228" lon="4.92834">
        <ele>311.6</ele>
        <time>2016-03-20T08:25:35Z</time>
      </trkpt>
      <trkpt lat="45.60233" lon="4.92831">
        <ele>312.2</ele>
        <time>2016-03-20T08:25:37Z</time>
      </trkpt>
      <trkpt lat="45.60237" lon="4.92828">
        <ele>312.7</ele>
        <time>2016-03-20T08:25:39Z</time>
      </trkpt>
      <trkpt lat="45.60241" lon="4.92824">
        <ele>313.1</ele>
        <time>2016-03-20T08:25:41Z</time>
      </trkpt>
      <trkpt lat="45.60245" lon="4.9282">
        <ele>313.3</ele>
        <time>2016-03-20T08:25:43Z</time>
      </trkpt>
      <trkpt lat="45.60248" lon="4.92815">
        <ele>313.4</ele>
        <time>2016-03-20T08:25:45Z</time>
      </trkpt>
      <trkpt lat="45.60249" lon="4.9281">
        <ele>313.2</ele>
        <time>2016-03-20T08:25:47Z</time>
      </trkpt>
      <trkpt lat="45.60252" lon="4.92806">
        <ele>313.5</ele>
        <time>2016-03-20T08:25:49Z</time>
      </trkpt>
      <trkpt lat="45.60255" lon="4.92802">
        <ele>313.7</ele>
        <time>2016-03-20T08:25:51Z</time>
      </trkpt>
      <trkpt lat="45.60257" lon="4.92797">
        <ele>313.9</ele>
        <time>2016-03-20T08:25:53Z</time>
      </trkpt>
      <trkpt lat="45.60259" lon="4.92792">
        <ele>314</ele>
        <time>2016-03-20T08:25:55Z</time>
      </trkpt>
      <trkpt lat="45.6026" lon="4.92786">
        <ele>314.2</ele>
        <time>2016-03-20T08:25:57Z</time>
      </trkpt>
      <trkpt lat="45.60263" lon="4.9278">
        <ele>314.4</ele>
        <time>2016-03-20T08:25:59Z</time>
      </trkpt>
      <trkpt lat="45.60266" lon="4.92775">
        <ele>314.8</ele>
        <time>2016-03-20T08:26:01Z</time>
      </trkpt>
      <trkpt lat="45.60269" lon="4.9277">
        <ele>315.1</ele>
        <time>2016-03-20T08:26:03Z</time>
      </trkpt>
      <trkpt lat="45.60271" lon="4.92764">
        <ele>315.3</ele>
        <time>2016-03-20T08:26:05Z</time>
      </trkpt>
      <trkpt lat="45.60273" lon="4.92759">
        <ele>315.6</ele>
        <time>2016-03-20T08:26:07Z</time>
      </trkpt>
      <trkpt lat="45.60275" lon="4.92753">
        <ele>315.8</ele>
        <time>2016-03-20T08:26:09Z</time>
      </trkpt>
      <trkpt lat="45.60278" lon="4.92746">
        <ele>316.1</ele>
        <time>2016-03-20T08:26:11Z</time>
      </trkpt>
      <trkpt lat="45.6028" lon="4.92739">
        <ele>316.3</ele>
        <time>2016-03-20T08:26:13Z</time>
      </trkpt>
      <trkpt lat="45.60283" lon="4.92732">
        <ele>316.6</ele>
        <time>2016-03-20T08:26:15Z</time>
      </trkpt>
      <trkpt lat="45.60287" lon="4.92725">
        <ele>317</ele>
        <time>2016-03-20T08:26:17Z</time>
      </trkpt>
      <trkpt lat="45.60291" lon="4.92717">
        <ele>317.3</ele>
        <time>2016-03-20T08:26:19Z</time>
      </trkpt>
      <trkpt lat="45.60293" lon="4.92709">
        <ele>317.7</ele>
        <time>2016-03-20T08:26:21Z</time>
      </trkpt>
      <trkpt lat="45.60295" lon="4.92702">
        <ele>317.7</ele>
        <time>2016-03-20T08:26:23Z</time>
      </trkpt>
      <trkpt lat="45.60297" lon="4.92696">
        <ele>317.7</ele>
        <time>2016-03-20T08:26:25Z</time>
      </trkpt>
      <trkpt lat="45.60297" lon="4.92689">
        <ele>317.7</ele>
        <time>2016-03-20T08:26:27Z</time>
      </trkpt>
      <trkpt lat="45.60296" lon="4.92683">
        <ele>318</ele>
        <time>2016-03-20T08:26:29Z</time>
      </trkpt>
      <trkpt lat="45.60296" lon="4.92677">
        <ele>318.4</ele>
        <time>2016-03-20T08:26:31Z</time>
      </trkpt>
      <trkpt lat="45.60296" lon="4.92672">
        <ele>318.9</ele>
        <time>2016-03-20T08:26:33Z</time>
      </trkpt>
      <trkpt lat="45.60294" lon="4.92668">
        <ele>319.3</ele>
        <time>2016-03-20T08:26:35Z</time>
      </trkpt>
      <trkpt lat="45.60292" lon="4.92663">
        <ele>319.8</ele>
        <time>2016-03-20T08:26:37Z</time>
      </trkpt>
      <trkpt lat="45.60289" lon="4.92659">
        <ele>320.2</ele>
        <time>2016-03-20T08:26:39Z</time>
      </trkpt>
      <trkpt lat="45.60288" lon="4.92655">
        <ele>320.6</ele>
        <time>2016-03-20T08:26:41Z</time>
      </trkpt>
      <trkpt lat="45.60288" lon="4.9265">
        <ele>321.1</ele>
        <time>2016-03-20T08:26:43Z</time>
      </trkpt>
      <trkpt lat="45.60289" lon="4.92645">
        <ele>321.4</ele>
        <time>2016-03-20T08:26:45Z</time>
      </trkpt>
      <trkpt lat="45.6029" lon="4.92639">
        <ele>321.8</ele>
        <time>2016-03-20T08:26:47Z</time>
      </trkpt>
      <trkpt lat="45.60289" lon="4.92634">
        <ele>322.1</ele>
        <time>2016-03-20T08:26:49Z</time>
      </trkpt>
      <trkpt lat="45.60287" lon="4.9263">
        <ele>322.4</ele>
        <time>2016-03-20T08:26:51Z</time>
      </trkpt>
      <trkpt lat="45.60284" lon="4.92628">
        <ele>322.7</ele>
        <time>2016-03-20T08:26:53Z</time>
      </trkpt>
      <trkpt lat="45.60283" lon="4.92625">
        <ele>323</ele>
        <time>2016-03-20T08:26:55Z</time>
      </trkpt>
      <trkpt lat="45.6028" lon="4.92624">
        <ele>323.3</ele>
        <time>2016-03-20T08:26:57Z</time>
      </trkpt>
      <trkpt lat="45.60277" lon="4.92622">
        <ele>323.7</ele>
        <time>2016-03-20T08:26:59Z</time>
      </trkpt>
      <trkpt lat="45.60276" lon="4.9262">
        <ele>323.9</ele>
        <time>2016-03-20T08:27:01Z</time>
      </trkpt>
      <trkpt lat="45.60275" lon="4.92617">
        <ele>324.2</ele>
        <time>2016-03-20T08:27:03Z</time>
      </trkpt>
      <trkpt lat="45.60274" lon="4.92613">
        <ele>324.5</ele>
        <time>2016-03-20T08:27:05Z</time>
      </trkpt>
      <trkpt lat="45.60274" lon="4.9261">
        <ele>324.8</ele>
        <time>2016-03-20T08:27:07Z</time>
      </trkpt>
      <trkpt lat="45.60274" lon="4.92606">
        <ele>325.3</ele>
        <time>2016-03-20T08:27:09Z</time>
      </trkpt>
      <trkpt lat="45.60275" lon="4.92602">
        <ele>325.7</ele>
        <time>2016-03-20T08:27:11Z</time>
      </trkpt>
      <trkpt lat="45.60275" lon="4.92597">
        <ele>326.1</ele>
        <time>2016-03-20T08:27:13Z</time>
      </trkpt>
      <trkpt lat="45.60276" lon="4.92593">
        <ele>326.6</ele>
        <time>2016-03-20T08:27:15Z</time>
      </trkpt>
      <trkpt lat="45.60275" lon="4.92589">
        <ele>326.8</ele>
        <time>2016-03-20T08:27:17Z</time>
      </trkpt>
      <trkpt lat="45.60273" lon="4.92586">
        <ele>327</ele>
        <time>2016-03-20T08:27:19Z</time>
      </trkpt>
      <trkpt lat="45.60273" lon="4.92582">
        <ele>327.2</ele>
        <time>2016-03-20T08:27:21Z</time>
      </trkpt>
      <trkpt lat="45.60272" lon="4.92578">
        <ele>327.5</ele>
        <time>2016-03-20T08:27:23Z</time>
      </trkpt>
      <trkpt lat="45.60272" lon="4.92574">
        <ele>327.7</ele>
        <time>2016-03-20T08:27:25Z</time>
      </trkpt>
      <trkpt lat="45.6027" lon="4.9257">
        <ele>328</ele>
        <time>2016-03-20T08:27:27Z</time>
      </trkpt>
      <trkpt lat="45.60268" lon="4.92567">
        <ele>328.2</ele>
        <time>2016-03-20T08:27:29Z</time>
      </trkpt>
      <trkpt lat="45.60267" lon="4.92564">
        <ele>328.4</ele>
        <time>2016-03-20T08:27:31Z</time>
      </trkpt>
      <trkpt lat="45.60265" lon="4.9256">
        <ele>328.6</ele>
        <time>2016-03-20T08:27:33Z</time>
      </trkpt>
      <trkpt lat="45.60264" lon="4.92557">
        <ele>328.7</ele>
        <time>2016-03-20T08:27:35Z</time>
      </trkpt>
      <trkpt lat="45.60262" lon="4.92555">
        <ele>328.6</ele>
        <time>2016-03-20T08:27:37Z</time>
      </trkpt>
      <trkpt lat="45.6026" lon="4.92552">
        <ele>328.6</ele>
        <time>2016-03-20T08:27:39Z</time>
      </trkpt>
      <trkpt lat="45.60259" lon="4.9255">
        <ele>328.6</ele>
        <time>2016-03-20T08:27:41Z</time>
      </trkpt>
      <trkpt lat="45.60258" lon="4.92547">
        <ele>328.5</ele>
        <time>2016-03-20T08:27:43Z</time>
      </trkpt>
      <trkpt lat="45.60257" lon="4.92544">
        <ele>328.4</ele>
        <time>2016-03-20T08:27:45Z</time>
      </trkpt>
      <trkpt lat="45.60257" lon="4.92541">
        <ele>328.3</ele>
        <time>2016-03-20T08:27:47Z</time>
      </trkpt>
      <trkpt lat="45.60256" lon="4.92537">
        <ele>328.2</ele>
        <time>2016-03-20T08:27:49Z</time>
      </trkpt>
      <trkpt lat="45.60255" lon="4.92534">
        <ele>328</ele>
        <time>2016-03-20T08:27:51Z</time>
      </trkpt>
      <trkpt lat="45.60253" lon="4.92531">
        <ele>327.9</ele>
        <time>2016-03-20T08:27:53Z</time>
      </trkpt>
      <trkpt lat="45.60251" lon="4.92526">
        <ele>327.8</ele>
        <time>2016-03-20T08:27:57Z</time>
      </trkpt>
      <trkpt lat="45.60249" lon="4.92522">
        <ele>328</ele>
        <time>2016-03-20T08:27:59Z</time>
      </trkpt>
      <trkpt lat="45.60248" lon="4.92519">
        <ele>328.1</ele>
        <time>2016-03-20T08:28:01Z</time>
      </trkpt>
      <trkpt lat="45.60247" lon="4.92515">
        <ele>328.4</ele>
        <time>2016-03-20T08:28:03Z</time>
      </trkpt>
      <trkpt lat="45.60246" lon="4.92511">
        <ele>328.6</ele>
        <time>2016-03-20T08:28:05Z</time>
      </trkpt>
      <trkpt lat="45.60244" lon="4.92506">
        <ele>328.8</ele>
        <time>2016-03-20T08:28:07Z</time>
      </trkpt>
      <trkpt lat="45.60242" lon="4.92503">
        <ele>328.9</ele>
        <time>2016-03-20T08:28:09Z</time>
      </trkpt>
      <trkpt lat="45.6024" lon="4.92498">
        <ele>329</ele>
        <time>2016-03-20T08:28:11Z</time>
      </trkpt>
      <trkpt lat="45.60238" lon="4.92494">
        <ele>329.1</ele>
        <time>2016-03-20T08:28:13Z</time>
      </trkpt>
      <trkpt lat="45.60236" lon="4.92491">
        <ele>329</ele>
        <time>2016-03-20T08:28:15Z</time>
      </trkpt>
      <trkpt lat="45.60232" lon="4.92489">
        <ele>328.8</ele>
        <time>2016-03-20T08:28:17Z</time>
      </trkpt>
      <trkpt lat="45.60229" lon="4.92488">
        <ele>328.7</ele>
        <time>2016-03-20T08:28:19Z</time>
      </trkpt>
      <trkpt lat="45.60226" lon="4.92486">
        <ele>328.6</ele>
        <time>2016-03-20T08:28:21Z</time>
      </trkpt>
      <trkpt lat="45.60224" lon="4.92482">
        <ele>328.7</ele>
        <time>2016-03-20T08:28:23Z</time>
      </trkpt>
      <trkpt lat="45.60223" lon="4.92479">
        <ele>328.8</ele>
        <time>2016-03-20T08:28:25Z</time>
      </trkpt>
      <trkpt lat="45.6022" lon="4.92474">
        <ele>328.9</ele>
        <time>2016-03-20T08:28:27Z</time>
      </trkpt>
      <trkpt lat="45.60219" lon="4.9247">
        <ele>329</ele>
        <time>2016-03-20T08:28:29Z</time>
      </trkpt>
      <trkpt lat="45.60217" lon="4.92466">
        <ele>329</ele>
        <time>2016-03-20T08:28:31Z</time>
      </trkpt>
      <trkpt lat="45.60215" lon="4.92462">
        <ele>329</ele>
        <time>2016-03-20T08:28:33Z</time>
      </trkpt>
      <trkpt lat="45.60214" lon="4.92459">
        <ele>329</ele>
        <time>2016-03-20T08:28:35Z</time>
      </trkpt>
      <trkpt lat="45.60212" lon="4.92456">
        <ele>329</ele>
        <time>2016-03-20T08:28:37Z</time>
      </trkpt>
      <trkpt lat="45.60212" lon="4.92452">
        <ele>329</ele>
        <time>2016-03-20T08:28:39Z</time>
      </trkpt>
      <trkpt lat="45.6021" lon="4.92448">
        <ele>329</ele>
        <time>2016-03-20T08:28:41Z</time>
      </trkpt>
      <trkpt lat="45.60209" lon="4.92444">
        <ele>329</ele>
        <time>2016-03-20T08:28:43Z</time>
      </trkpt>
      <trkpt lat="45.60208" lon="4.9244">
        <ele>329</ele>
        <time>2016-03-20T08:28:45Z</time>
      </trkpt>
      <trkpt lat="45.60207" lon="4.92436">
        <ele>329</ele>
        <time>2016-03-20T08:28:47Z</time>
      </trkpt>
      <trkpt lat="45.60206" lon="4.92432">
        <ele>329</ele>
        <time>2016-03-20T08:28:49Z</time>
      </trkpt>
      <trkpt lat="45.60205" lon="4.92429">
        <ele>329</ele>
        <time>2016-03-20T08:28:51Z</time>
      </trkpt>
      <trkpt lat="45.60206" lon="4.92425">
        <ele>329</ele>
        <time>2016-03-20T08:28:53Z</time>
      </trkpt>
      <trkpt lat="45.60206" lon="4.9242">
        <ele>329</ele>
        <time>2016-03-20T08:28:55Z</time>
      </trkpt>
      <trkpt lat="45.60206" lon="4.92416">
        <ele>329.2</ele>
        <time>2016-03-20T08:28:57Z</time>
      </trkpt>
      <trkpt lat="45.60207" lon="4.92412">
        <ele>329.3</ele>
        <time>2016-03-20T08:28:59Z</time>
      </trkpt>
      <trkpt lat="45.60207" lon="4.92408">
        <ele>329.4</ele>
        <time>2016-03-20T08:29:01Z</time>
      </trkpt>
      <trkpt lat="45.60208" lon="4.92404">
        <ele>329.4</ele>
        <time>2016-03-20T08:29:03Z</time>
      </trkpt>
      <trkpt lat="45.60209" lon="4.92399">
        <ele>329.5</ele>
        <time>2016-03-20T08:29:05Z</time>
      </trkpt>
      <trkpt lat="45.60209" lon="4.92394">
        <ele>329.5</ele>
        <time>2016-03-20T08:29:07Z</time>
      </trkpt>
      <trkpt lat="45.60211" lon="4.92389">
        <ele>329.5</ele>
        <time>2016-03-20T08:29:09Z</time>
      </trkpt>
      <trkpt lat="45.60213" lon="4.92385">
        <ele>329.5</ele>
        <time>2016-03-20T08:29:11Z</time>
      </trkpt>
      <trkpt lat="45.60214" lon="4.9238">
        <ele>329.5</ele>
        <time>2016-03-20T08:29:13Z</time>
      </trkpt>
      <trkpt lat="45.60216" lon="4.92374">
        <ele>329.5</ele>
        <time>2016-03-20T08:29:15Z</time>
      </trkpt>
      <trkpt lat="45.60218" lon="4.92369">
        <ele>329.5</ele>
        <time>2016-03-20T08:29:17Z</time>
      </trkpt>
      <trkpt lat="45.6022" lon="4.92364">
        <ele>329.4</ele>
        <time>2016-03-20T08:29:19Z</time>
      </trkpt>
      <trkpt lat="45.60222" lon="4.92358">
        <ele>329.4</ele>
        <time>2016-03-20T08:29:21Z</time>
      </trkpt>
      <trkpt lat="45.60225" lon="4.92353">
        <ele>329.4</ele>
        <time>2016-03-20T08:29:23Z</time>
      </trkpt>
      <trkpt lat="45.60229" lon="4.92348">
        <ele>329.3</ele>
        <time>2016-03-20T08:29:25Z</time>
      </trkpt>
      <trkpt lat="45.60233" lon="4.92343">
        <ele>329.3</ele>
        <time>2016-03-20T08:29:27Z</time>
      </trkpt>
      <trkpt lat="45.60238" lon="4.92338">
        <ele>329.3</ele>
        <time>2016-03-20T08:29:29Z</time>
      </trkpt>
      <trkpt lat="45.60242" lon="4.92334">
        <ele>329.2</ele>
        <time>2016-03-20T08:29:31Z</time>
      </trkpt>
      <trkpt lat="45.60247" lon="4.92331">
        <ele>329.2</ele>
        <time>2016-03-20T08:29:33Z</time>
      </trkpt>
      <trkpt lat="45.60252" lon="4.92327">
        <ele>329.2</ele>
        <time>2016-03-20T08:29:35Z</time>
      </trkpt>
      <trkpt lat="45.60258" lon="4.92324">
        <ele>329.3</ele>
        <time>2016-03-20T08:29:37Z</time>
      </trkpt>
      <trkpt lat="45.60263" lon="4.9232">
        <ele>329.3</ele>
        <time>2016-03-20T08:29:39Z</time>
      </trkpt>
      <trkpt lat="45.60269" lon="4.92317">
        <ele>329.4</ele>
        <time>2016-03-20T08:29:41Z</time>
      </trkpt>
      <trkpt lat="45.60274" lon="4.92314">
        <ele>329.5</ele>
        <time>2016-03-20T08:29:43Z</time>
      </trkpt>
      <trkpt lat="45.6028" lon="4.92311">
        <ele>329.5</ele>
        <time>2016-03-20T08:29:45Z</time>
      </trkpt>
      <trkpt lat="45.60286" lon="4.92308">
        <ele>329.5</ele>
        <time>2016-03-20T08:29:47Z</time>
      </trkpt>
      <trkpt lat="45.60292" lon="4.92305">
        <ele>329.4</ele>
        <time>2016-03-20T08:29:49Z</time>
      </trkpt>
      <trkpt lat="45.60299" lon="4.92301">
        <ele>329.4</ele>
        <time>2016-03-20T08:29:51Z</time>
      </trkpt>
      <trkpt lat="45.60305" lon="4.92298">
        <ele>329.4</ele>
        <time>2016-03-20T08:29:53Z</time>
      </trkpt>
      <trkpt lat="45.60311" lon="4.92296">
        <ele>329.4</ele>
        <time>2016-03-20T08:29:55Z</time>
      </trkpt>
      <trkpt lat="45.60317" lon="4.92293">
        <ele>329.4</ele>
        <time>2016-03-20T08:29:57Z</time>
      </trkpt>
      <trkpt lat="45.60323" lon="4.9229">
        <ele>329.3</ele>
        <time>2016-03-20T08:29:59Z</time>
      </trkpt>
      <trkpt lat="45.60329" lon="4.92287">
        <ele>329.3</ele>
        <time>2016-03-20T08:30:01Z</time>
      </trkpt>
      <trkpt lat="45.60336" lon="4.92284">
        <ele>329.2</ele>
        <time>2016-03-20T08:30:03Z</time>
      </trkpt>
      <trkpt lat="45.60342" lon="4.92281">
        <ele>329.2</ele>
        <time>2016-03-20T08:30:05Z</time>
      </trkpt>
      <trkpt lat="45.60348" lon="4.92277">
        <ele>329.1</ele>
        <time>2016-03-20T08:30:07Z</time>
      </trkpt>
      <trkpt lat="45.60352" lon="4.9227">
        <ele>329</ele>
        <time>2016-03-20T08:30:09Z</time>
      </trkpt>
      <trkpt lat="45.60354" lon="4.92263">
        <ele>329</ele>
        <time>2016-03-20T08:30:11Z</time>
      </trkpt>
      <trkpt lat="45.60354" lon="4.92254">
        <ele>328.9</ele>
        <time>2016-03-20T08:30:13Z</time>
      </trkpt>
      <trkpt lat="45.60354" lon="4.92245">
        <ele>328.9</ele>
        <time>2016-03-20T08:30:15Z</time>
      </trkpt>
      <trkpt lat="45.60352" lon="4.92236">
        <ele>328.9</ele>
        <time>2016-03-20T08:30:17Z</time>
      </trkpt>
      <trkpt lat="45.60351" lon="4.92227">
        <ele>328.9</ele>
        <time>2016-03-20T08:30:19Z</time>
      </trkpt>
      <trkpt lat="45.6035" lon="4.92217">
        <ele>328.8</ele>
        <time>2016-03-20T08:30:21Z</time>
      </trkpt>
      <trkpt lat="45.60349" lon="4.92208">
        <ele>328.8</ele>
        <time>2016-03-20T08:30:23Z</time>
      </trkpt>
      <trkpt lat="45.60347" lon="4.92199">
        <ele>328.9</ele>
        <time>2016-03-20T08:30:25Z</time>
      </trkpt>
      <trkpt lat="45.60346" lon="4.92189">
        <ele>328.9</ele>
        <time>2016-03-20T08:30:27Z</time>
      </trkpt>
      <trkpt lat="45.60344" lon="4.9218">
        <ele>329</ele>
        <time>2016-03-20T08:30:29Z</time>
      </trkpt>
      <trkpt lat="45.60344" lon="4.92171">
        <ele>329.1</ele>
        <time>2016-03-20T08:30:31Z</time>
      </trkpt>
      <trkpt lat="45.60344" lon="4.92163">
        <ele>329</ele>
        <time>2016-03-20T08:30:33Z</time>
      </trkpt>
      <trkpt lat="45.6035" lon="4.92158">
        <ele>329.4</ele>
        <time>2016-03-20T08:30:35Z</time>
      </trkpt>
      <trkpt lat="45.60356" lon="4.92157">
        <ele>329.7</ele>
        <time>2016-03-20T08:30:37Z</time>
      </trkpt>
      <trkpt lat="45.60362" lon="4.92155">
        <ele>330.1</ele>
        <time>2016-03-20T08:30:39Z</time>
      </trkpt>
      <trkpt lat="45.60368" lon="4.92154">
        <ele>330.8</ele>
        <time>2016-03-20T08:30:41Z</time>
      </trkpt>
      <trkpt lat="45.60374" lon="4.92153">
        <ele>331.4</ele>
        <time>2016-03-20T08:30:43Z</time>
      </trkpt>
      <trkpt lat="45.60381" lon="4.92152">
        <ele>331.8</ele>
        <time>2016-03-20T08:30:45Z</time>
      </trkpt>
      <trkpt lat="45.60387" lon="4.9215">
        <ele>332.1</ele>
        <time>2016-03-20T08:30:47Z</time>
      </trkpt>
      <trkpt lat="45.60392" lon="4.92148">
        <ele>332.3</ele>
        <time>2016-03-20T08:30:49Z</time>
      </trkpt>
      <trkpt lat="45.60399" lon="4.92146">
        <ele>332.5</ele>
        <time>2016-03-20T08:30:51Z</time>
      </trkpt>
      <trkpt lat="45.60405" lon="4.92145">
        <ele>332.8</ele>
        <time>2016-03-20T08:30:53Z</time>
      </trkpt>
      <trkpt lat="45.60411" lon="4.92144">
        <ele>333</ele>
        <time>2016-03-20T08:30:55Z</time>
      </trkpt>
      <trkpt lat="45.60416" lon="4.92142">
        <ele>333.3</ele>
        <time>2016-03-20T08:30:57Z</time>
      </trkpt>
      <trkpt lat="45.60422" lon="4.92141">
        <ele>333.8</ele>
        <time>2016-03-20T08:30:59Z</time>
      </trkpt>
      <trkpt lat="45.60428" lon="4.92139">
        <ele>334.3</ele>
        <time>2016-03-20T08:31:01Z</time>
      </trkpt>
      <trkpt lat="45.60434" lon="4.92138">
        <ele>334.7</ele>
        <time>2016-03-20T08:31:03Z</time>
      </trkpt>
      <trkpt lat="45.60439" lon="4.92136">
        <ele>335</ele>
        <time>2016-03-20T08:31:05Z</time>
      </trkpt>
      <trkpt lat="45.60445" lon="4.92135">
        <ele>335.1</ele>
        <time>2016-03-20T08:31:07Z</time>
      </trkpt>
      <trkpt lat="45.60451" lon="4.92133">
        <ele>335.3</ele>
        <time>2016-03-20T08:31:09Z</time>
      </trkpt>
      <trkpt lat="45.60457" lon="4.92131">
        <ele>335.4</ele>
        <time>2016-03-20T08:31:11Z</time>
      </trkpt>
      <trkpt lat="45.60463" lon="4.92129">
        <ele>335.5</ele>
        <time>2016-03-20T08:31:13Z</time>
      </trkpt>
      <trkpt lat="45.60469" lon="4.92127">
        <ele>335.6</ele>
        <time>2016-03-20T08:31:15Z</time>
      </trkpt>
      <trkpt lat="45.60476" lon="4.92124">
        <ele>335.7</ele>
        <time>2016-03-20T08:31:17Z</time>
      </trkpt>
      <trkpt lat="45.60482" lon="4.92122">
        <ele>335.8</ele>
        <time>2016-03-20T08:31:19Z</time>
      </trkpt>
      <trkpt lat="45.60489" lon="4.92119">
        <ele>335.9</ele>
        <time>2016-03-20T08:31:21Z</time>
      </trkpt>
      <trkpt lat="45.60496" lon="4.92115">
        <ele>336</ele>
        <time>2016-03-20T08:31:23Z</time>
      </trkpt>
      <trkpt lat="45.60504" lon="4.9211">
        <ele>336</ele>
        <time>2016-03-20T08:31:25Z</time>
      </trkpt>
      <trkpt lat="45.60513" lon="4.92104">
        <ele>336</ele>
        <time>2016-03-20T08:31:27Z</time>
      </trkpt>
      <trkpt lat="45.60521" lon="4.92096">
        <ele>336</ele>
        <time>2016-03-20T08:31:29Z</time>
      </trkpt>
      <trkpt lat="45.60531" lon="4.92088">
        <ele>336</ele>
        <time>2016-03-20T08:31:31Z</time>
      </trkpt>
      <trkpt lat="45.60541" lon="4.92078">
        <ele>335.9</ele>
        <time>2016-03-20T08:31:33Z</time>
      </trkpt>
      <trkpt lat="45.60552" lon="4.92068">
        <ele>335.8</ele>
        <time>2016-03-20T08:31:35Z</time>
      </trkpt>
      <trkpt lat="45.60564" lon="4.92057">
        <ele>335.7</ele>
        <time>2016-03-20T08:31:37Z</time>
      </trkpt>
      <trkpt lat="45.60576" lon="4.92045">
        <ele>335.5</ele>
        <time>2016-03-20T08:31:39Z</time>
      </trkpt>
      <trkpt lat="45.60589" lon="4.92033">
        <ele>335.4</ele>
        <time>2016-03-20T08:31:41Z</time>
      </trkpt>
      <trkpt lat="45.60601" lon="4.92021">
        <ele>335.4</ele>
        <time>2016-03-20T08:31:43Z</time>
      </trkpt>
      <trkpt lat="45.60614" lon="4.92008">
        <ele>335.4</ele>
        <time>2016-03-20T08:31:45Z</time>
      </trkpt>
      <trkpt lat="45.6063" lon="4.91998">
        <ele>335.4</ele>
        <time>2016-03-20T08:31:47Z</time>
      </trkpt>
      <trkpt lat="45.60647" lon="4.91992">
        <ele>335.4</ele>
        <time>2016-03-20T08:31:49Z</time>
      </trkpt>
      <trkpt lat="45.60664" lon="4.91991">
        <ele>335.2</ele>
        <time>2016-03-20T08:31:51Z</time>
      </trkpt>
      <trkpt lat="45.60676" lon="4.9199">
        <ele>335</ele>
        <time>2016-03-20T08:31:53Z</time>
      </trkpt>
      <trkpt lat="45.60687" lon="4.91981">
        <ele>335</ele>
        <time>2016-03-20T08:31:55Z</time>
      </trkpt>
      <trkpt lat="45.6069" lon="4.91968">
        <ele>335</ele>
        <time>2016-03-20T08:31:57Z</time>
      </trkpt>
      <trkpt lat="45.6069" lon="4.91958">
        <ele>335.4</ele>
        <time>2016-03-20T08:31:59Z</time>
      </trkpt>
      <trkpt lat="45.6069" lon="4.91953">
        <ele>335.7</ele>
        <time>2016-03-20T08:32:01Z</time>
      </trkpt>
      <trkpt lat="45.60688" lon="4.91946">
        <ele>336.1</ele>
        <time>2016-03-20T08:32:03Z</time>
      </trkpt>
      <trkpt lat="45.60687" lon="4.91939">
        <ele>336.6</ele>
        <time>2016-03-20T08:32:05Z</time>
      </trkpt>
      <trkpt lat="45.60685" lon="4.91932">
        <ele>337.3</ele>
        <time>2016-03-20T08:32:07Z</time>
      </trkpt>
      <trkpt lat="45.60685" lon="4.91926">
        <ele>337.8</ele>
        <time>2016-03-20T08:32:09Z</time>
      </trkpt>
      <trkpt lat="45.60684" lon="4.9192">
        <ele>338.2</ele>
        <time>2016-03-20T08:32:11Z</time>
      </trkpt>
      <trkpt lat="45.60683" lon="4.91915">
        <ele>338.6</ele>
        <time>2016-03-20T08:32:13Z</time>
      </trkpt>
      <trkpt lat="45.60682" lon="4.91909">
        <ele>339</ele>
        <time>2016-03-20T08:32:15Z</time>
      </trkpt>
      <trkpt lat="45.6068" lon="4.91904">
        <ele>339.4</ele>
        <time>2016-03-20T08:32:17Z</time>
      </trkpt>
      <trkpt lat="45.60679" lon="4.91898">
        <ele>339.8</ele>
        <time>2016-03-20T08:32:19Z</time>
      </trkpt>
      <trkpt lat="45.60678" lon="4.91894">
        <ele>340.1</ele>
        <time>2016-03-20T08:32:21Z</time>
      </trkpt>
      <trkpt lat="45.60677" lon="4.91891">
        <ele>340.3</ele>
        <time>2016-03-20T08:32:23Z</time>
      </trkpt>
      <trkpt lat="45.60677" lon="4.91889">
        <ele>340.6</ele>
        <time>2016-03-20T08:32:25Z</time>
      </trkpt>
      <trkpt lat="45.60676" lon="4.91877">
        <ele>341.9</ele>
        <time>2016-03-20T08:32:41Z</time>
      </trkpt>
      <trkpt lat="45.60675" lon="4.91874">
        <ele>342.3</ele>
        <time>2016-03-20T08:32:43Z</time>
      </trkpt>
      <trkpt lat="45.60675" lon="4.91872">
        <ele>342.6</ele>
        <time>2016-03-20T08:32:45Z</time>
      </trkpt>
      <trkpt lat="45.60674" lon="4.91869">
        <ele>343.1</ele>
        <time>2016-03-20T08:32:47Z</time>
      </trkpt>
      <trkpt lat="45.60674" lon="4.91864">
        <ele>343.6</ele>
        <time>2016-03-20T08:32:49Z</time>
      </trkpt>
      <trkpt lat="45.60673" lon="4.91859">
        <ele>344</ele>
        <time>2016-03-20T08:32:51Z</time>
      </trkpt>
      <trkpt lat="45.60674" lon="4.91853">
        <ele>344.6</ele>
        <time>2016-03-20T08:32:53Z</time>
      </trkpt>
      <trkpt lat="45.60676" lon="4.91847">
        <ele>344.8</ele>
        <time>2016-03-20T08:32:55Z</time>
      </trkpt>
      <trkpt lat="45.60677" lon="4.91842">
        <ele>345.1</ele>
        <time>2016-03-20T08:32:57Z</time>
      </trkpt>
      <trkpt lat="45.60679" lon="4.91837">
        <ele>345.9</ele>
        <time>2016-03-20T08:32:59Z</time>
      </trkpt>
      <trkpt lat="45.6068" lon="4.91832">
        <ele>346.7</ele>
        <time>2016-03-20T08:33:01Z</time>
      </trkpt>
      <trkpt lat="45.60682" lon="4.91828">
        <ele>347.1</ele>
        <time>2016-03-20T08:33:03Z</time>
      </trkpt>
      <trkpt lat="45.60684" lon="4.91824">
        <ele>347.4</ele>
        <time>2016-03-20T08:33:05Z</time>
      </trkpt>
      <trkpt lat="45.60686" lon="4.9182">
        <ele>347.8</ele>
        <time>2016-03-20T08:33:07Z</time>
      </trkpt>
      <trkpt lat="45.60688" lon="4.91816">
        <ele>348.3</ele>
        <time>2016-03-20T08:33:09Z</time>
      </trkpt>
      <trkpt lat="45.60689" lon="4.91812">
        <ele>348.8</ele>
        <time>2016-03-20T08:33:11Z</time>
      </trkpt>
      <trkpt lat="45.60692" lon="4.91808">
        <ele>348.8</ele>
        <time>2016-03-20T08:33:13Z</time>
      </trkpt>
      <trkpt lat="45.60694" lon="4.91803">
        <ele>348.9</ele>
        <time>2016-03-20T08:33:15Z</time>
      </trkpt>
      <trkpt lat="45.60696" lon="4.91799">
        <ele>348.9</ele>
        <time>2016-03-20T08:33:17Z</time>
      </trkpt>
      <trkpt lat="45.60697" lon="4.91795">
        <ele>348.8</ele>
        <time>2016-03-20T08:33:19Z</time>
      </trkpt>
      <trkpt lat="45.607" lon="4.9179">
        <ele>348.8</ele>
        <time>2016-03-20T08:33:21Z</time>
      </trkpt>
      <trkpt lat="45.60702" lon="4.91784">
        <ele>348.9</ele>
        <time>2016-03-20T08:33:23Z</time>
      </trkpt>
      <trkpt lat="45.60704" lon="4.91779">
        <ele>349.1</ele>
        <time>2016-03-20T08:33:25Z</time>
      </trkpt>
      <trkpt lat="45.60705" lon="4.91774">
        <ele>349.3</ele>
        <time>2016-03-20T08:33:27Z</time>
      </trkpt>
      <trkpt lat="45.60707" lon="4.91768">
        <ele>349.5</ele>
        <time>2016-03-20T08:33:29Z</time>
      </trkpt>
      <trkpt lat="45.60708" lon="4.91763">
        <ele>349.6</ele>
        <time>2016-03-20T08:33:31Z</time>
      </trkpt>
      <trkpt lat="45.60709" lon="4.91757">
        <ele>349.8</ele>
        <time>2016-03-20T08:33:33Z</time>
      </trkpt>
      <trkpt lat="45.60711" lon="4.91752">
        <ele>350</ele>
        <time>2016-03-20T08:33:35Z</time>
      </trkpt>
      <trkpt lat="45.60712" lon="4.91746">
        <ele>350.1</ele>
        <time>2016-03-20T08:33:37Z</time>
      </trkpt>
      <trkpt lat="45.60712" lon="4.91741">
        <ele>350.3</ele>
        <time>2016-03-20T08:33:39Z</time>
      </trkpt>
      <trkpt lat="45.60714" lon="4.91736">
        <ele>350.5</ele>
        <time>2016-03-20T08:33:41Z</time>
      </trkpt>
      <trkpt lat="45.60716" lon="4.91731">
        <ele>350.7</ele>
        <time>2016-03-20T08:33:43Z</time>
      </trkpt>
      <trkpt lat="45.60717" lon="4.91725">
        <ele>350.8</ele>
        <time>2016-03-20T08:33:45Z</time>
      </trkpt>
      <trkpt lat="45.60718" lon="4.91718">
        <ele>351</ele>
        <time>2016-03-20T08:33:47Z</time>
      </trkpt>
      <trkpt lat="45.6072" lon="4.91712">
        <ele>351.2</ele>
        <time>2016-03-20T08:33:49Z</time>
      </trkpt>
      <trkpt lat="45.6072" lon="4.91705">
        <ele>351.1</ele>
        <time>2016-03-20T08:33:51Z</time>
      </trkpt>
      <trkpt lat="45.60721" lon="4.91698">
        <ele>351.1</ele>
        <time>2016-03-20T08:33:53Z</time>
      </trkpt>
      <trkpt lat="45.60722" lon="4.91689">
        <ele>350.9</ele>
        <time>2016-03-20T08:33:55Z</time>
      </trkpt>
      <trkpt lat="45.60724" lon="4.91678">
        <ele>350.6</ele>
        <time>2016-03-20T08:33:57Z</time>
      </trkpt>
      <trkpt lat="45.60725" lon="4.91668">
        <ele>350.5</ele>
        <time>2016-03-20T08:33:59Z</time>
      </trkpt>
      <trkpt lat="45.60727" lon="4.91656">
        <ele>350.2</ele>
        <time>2016-03-20T08:34:01Z</time>
      </trkpt>
      <trkpt lat="45.60724" lon="4.91643">
        <ele>349.8</ele>
        <time>2016-03-20T08:34:03Z</time>
      </trkpt>
      <trkpt lat="45.60721" lon="4.91628">
        <ele>348.7</ele>
        <time>2016-03-20T08:34:05Z</time>
      </trkpt>
      <trkpt lat="45.60723" lon="4.91611">
        <ele>346.4</ele>
        <time>2016-03-20T08:34:07Z</time>
      </trkpt>
      <trkpt lat="45.60722" lon="4.91592">
        <ele>344.4</ele>
        <time>2016-03-20T08:34:09Z</time>
      </trkpt>
      <trkpt lat="45.60719" lon="4.91571">
        <ele>341.7</ele>
        <time>2016-03-20T08:34:11Z</time>
      </trkpt>
      <trkpt lat="45.60714" lon="4.9155">
        <ele>339.7</ele>
        <time>2016-03-20T08:34:13Z</time>
      </trkpt>
      <trkpt lat="45.60706" lon="4.91531">
        <ele>338.3</ele>
        <time>2016-03-20T08:34:15Z</time>
      </trkpt>
      <trkpt lat="45.60702" lon="4.91512">
        <ele>338</ele>
        <time>2016-03-20T08:34:17Z</time>
      </trkpt>
      <trkpt lat="45.60702" lon="4.91491">
        <ele>337.6</ele>
        <time>2016-03-20T08:34:19Z</time>
      </trkpt>
      <trkpt lat="45.60703" lon="4.91471">
        <ele>337</ele>
        <time>2016-03-20T08:34:21Z</time>
      </trkpt>
      <trkpt lat="45.60704" lon="4.91451">
        <ele>336.4</ele>
        <time>2016-03-20T08:34:23Z</time>
      </trkpt>
      <trkpt lat="45.60705" lon="4.91432">
        <ele>336</ele>
        <time>2016-03-20T08:34:25Z</time>
      </trkpt>
      <trkpt lat="45.60706" lon="4.91413">
        <ele>335.7</ele>
        <time>2016-03-20T08:34:27Z</time>
      </trkpt>
      <trkpt lat="45.60706" lon="4.91395">
        <ele>335.4</ele>
        <time>2016-03-20T08:34:29Z</time>
      </trkpt>
      <trkpt lat="45.60708" lon="4.91376">
        <ele>335.1</ele>
        <time>2016-03-20T08:34:31Z</time>
      </trkpt>
      <trkpt lat="45.60708" lon="4.91354">
        <ele>334.7</ele>
        <time>2016-03-20T08:34:33Z</time>
      </trkpt>
      <trkpt lat="45.60708" lon="4.91331">
        <ele>334.2</ele>
        <time>2016-03-20T08:34:35Z</time>
      </trkpt>
      <trkpt lat="45.60708" lon="4.91307">
        <ele>333.6</ele>
        <time>2016-03-20T08:34:37Z</time>
      </trkpt>
      <trkpt lat="45.60708" lon="4.9128">
        <ele>332.8</ele>
        <time>2016-03-20T08:34:39Z</time>
      </trkpt>
      <trkpt lat="45.60708" lon="4.91253">
        <ele>330.7</ele>
        <time>2016-03-20T08:34:41Z</time>
      </trkpt>
      <trkpt lat="45.60709" lon="4.91223">
        <ele>328</ele>
        <time>2016-03-20T08:34:43Z</time>
      </trkpt>
      <trkpt lat="45.60712" lon="4.91192">
        <ele>326.3</ele>
        <time>2016-03-20T08:34:45Z</time>
      </trkpt>
      <trkpt lat="45.60713" lon="4.91162">
        <ele>325.3</ele>
        <time>2016-03-20T08:34:47Z</time>
      </trkpt>
      <trkpt lat="45.60712" lon="4.91135">
        <ele>324.5</ele>
        <time>2016-03-20T08:34:49Z</time>
      </trkpt>
      <trkpt lat="45.60709" lon="4.91108">
        <ele>324</ele>
        <time>2016-03-20T08:34:51Z</time>
      </trkpt>
      <trkpt lat="45.60705" lon="4.91083">
        <ele>323.7</ele>
        <time>2016-03-20T08:34:53Z</time>
      </trkpt>
      <trkpt lat="45.60703" lon="4.91058">
        <ele>323.6</ele>
        <time>2016-03-20T08:34:55Z</time>
      </trkpt>
      <trkpt lat="45.607" lon="4.91034">
        <ele>323.8</ele>
        <time>2016-03-20T08:34:57Z</time>
      </trkpt>
      <trkpt lat="45.60698" lon="4.9101">
        <ele>324.1</ele>
        <time>2016-03-20T08:34:59Z</time>
      </trkpt>
      <trkpt lat="45.60696" lon="4.90985">
        <ele>324.9</ele>
        <time>2016-03-20T08:35:01Z</time>
      </trkpt>
      <trkpt lat="45.60694" lon="4.90959">
        <ele>326.1</ele>
        <time>2016-03-20T08:35:03Z</time>
      </trkpt>
      <trkpt lat="45.60693" lon="4.90934">
        <ele>326.8</ele>
        <time>2016-03-20T08:35:05Z</time>
      </trkpt>
      <trkpt lat="45.60691" lon="4.90909">
        <ele>327.1</ele>
        <time>2016-03-20T08:35:07Z</time>
      </trkpt>
      <trkpt lat="45.60688" lon="4.90884">
        <ele>327.2</ele>
        <time>2016-03-20T08:35:09Z</time>
      </trkpt>
      <trkpt lat="45.60684" lon="4.90861">
        <ele>327.4</ele>
        <time>2016-03-20T08:35:11Z</time>
      </trkpt>
      <trkpt lat="45.60681" lon="4.90838">
        <ele>327.3</ele>
        <time>2016-03-20T08:35:13Z</time>
      </trkpt>
      <trkpt lat="45.60678" lon="4.90817">
        <ele>327.2</ele>
        <time>2016-03-20T08:35:15Z</time>
      </trkpt>
      <trkpt lat="45.60676" lon="4.90795">
        <ele>327.1</ele>
        <time>2016-03-20T08:35:17Z</time>
      </trkpt>
      <trkpt lat="45.60674" lon="4.90772">
        <ele>327.1</ele>
        <time>2016-03-20T08:35:19Z</time>
      </trkpt>
      <trkpt lat="45.60673" lon="4.90751">
        <ele>327</ele>
        <time>2016-03-20T08:35:21Z</time>
      </trkpt>
      <trkpt lat="45.60672" lon="4.90731">
        <ele>326.8</ele>
        <time>2016-03-20T08:35:23Z</time>
      </trkpt>
      <trkpt lat="45.60672" lon="4.9071">
        <ele>326.8</ele>
        <time>2016-03-20T08:35:25Z</time>
      </trkpt>
      <trkpt lat="45.60672" lon="4.90691">
        <ele>326.9</ele>
        <time>2016-03-20T08:35:27Z</time>
      </trkpt>
      <trkpt lat="45.60671" lon="4.90672">
        <ele>327.3</ele>
        <time>2016-03-20T08:35:29Z</time>
      </trkpt>
      <trkpt lat="45.60671" lon="4.90652">
        <ele>327.9</ele>
        <time>2016-03-20T08:35:31Z</time>
      </trkpt>
      <trkpt lat="45.6067" lon="4.90632">
        <ele>328.3</ele>
        <time>2016-03-20T08:35:33Z</time>
      </trkpt>
      <trkpt lat="45.60669" lon="4.90613">
        <ele>328.4</ele>
        <time>2016-03-20T08:35:35Z</time>
      </trkpt>
      <trkpt lat="45.60668" lon="4.90593">
        <ele>328.5</ele>
        <time>2016-03-20T08:35:37Z</time>
      </trkpt>
      <trkpt lat="45.60667" lon="4.90573">
        <ele>328.5</ele>
        <time>2016-03-20T08:35:39Z</time>
      </trkpt>
      <trkpt lat="45.60665" lon="4.90553">
        <ele>328.6</ele>
        <time>2016-03-20T08:35:41Z</time>
      </trkpt>
      <trkpt lat="45.60663" lon="4.90533">
        <ele>328.7</ele>
        <time>2016-03-20T08:35:43Z</time>
      </trkpt>
      <trkpt lat="45.60659" lon="4.90514">
        <ele>328.8</ele>
        <time>2016-03-20T08:35:45Z</time>
      </trkpt>
      <trkpt lat="45.60655" lon="4.90496">
        <ele>328.9</ele>
        <time>2016-03-20T08:35:47Z</time>
      </trkpt>
      <trkpt lat="45.60649" lon="4.90479">
        <ele>329.4</ele>
        <time>2016-03-20T08:35:49Z</time>
      </trkpt>
      <trkpt lat="45.60643" lon="4.90463">
        <ele>330</ele>
        <time>2016-03-20T08:35:51Z</time>
      </trkpt>
      <trkpt lat="45.60637" lon="4.90448">
        <ele>330.8</ele>
        <time>2016-03-20T08:35:53Z</time>
      </trkpt>
      <trkpt lat="45.60631" lon="4.90431">
        <ele>331.7</ele>
        <time>2016-03-20T08:35:55Z</time>
      </trkpt>
      <trkpt lat="45.60627" lon="4.90415">
        <ele>332.3</ele>
        <time>2016-03-20T08:35:57Z</time>
      </trkpt>
      <trkpt lat="45.60624" lon="4.90398">
        <ele>332.5</ele>
        <time>2016-03-20T08:35:59Z</time>
      </trkpt>
      <trkpt lat="45.60622" lon="4.90381">
        <ele>332.2</ele>
        <time>2016-03-20T08:36:01Z</time>
      </trkpt>
      <trkpt lat="45.60621" lon="4.90365">
        <ele>332</ele>
        <time>2016-03-20T08:36:03Z</time>
      </trkpt>
      <trkpt lat="45.6062" lon="4.9035">
        <ele>332</ele>
        <time>2016-03-20T08:36:05Z</time>
      </trkpt>
      <trkpt lat="45.60619" lon="4.90335">
        <ele>332.1</ele>
        <time>2016-03-20T08:36:07Z</time>
      </trkpt>
      <trkpt lat="45.60618" lon="4.90322">
        <ele>332.3</ele>
        <time>2016-03-20T08:36:09Z</time>
      </trkpt>
      <trkpt lat="45.60617" lon="4.90309">
        <ele>332.3</ele>
        <time>2016-03-20T08:36:11Z</time>
      </trkpt>
      <trkpt lat="45.60616" lon="4.90296">
        <ele>332.3</ele>
        <time>2016-03-20T08:36:13Z</time>
      </trkpt>
      <trkpt lat="45.60616" lon="4.90284">
        <ele>332.3</ele>
        <time>2016-03-20T08:36:15Z</time>
      </trkpt>
      <trkpt lat="45.60616" lon="4.90272">
        <ele>332.3</ele>
        <time>2016-03-20T08:36:17Z</time>
      </trkpt>
      <trkpt lat="45.60617" lon="4.9026">
        <ele>332.2</ele>
        <time>2016-03-20T08:36:19Z</time>
      </trkpt>
      <trkpt lat="45.60619" lon="4.90249">
        <ele>332.1</ele>
        <time>2016-03-20T08:36:21Z</time>
      </trkpt>
      <trkpt lat="45.60621" lon="4.90237">
        <ele>332</ele>
        <time>2016-03-20T08:36:23Z</time>
      </trkpt>
      <trkpt lat="45.60623" lon="4.90225">
        <ele>331.9</ele>
        <time>2016-03-20T08:36:25Z</time>
      </trkpt>
      <trkpt lat="45.60625" lon="4.90214">
        <ele>331.7</ele>
        <time>2016-03-20T08:36:27Z</time>
      </trkpt>
      <trkpt lat="45.60627" lon="4.90202">
        <ele>331.4</ele>
        <time>2016-03-20T08:36:29Z</time>
      </trkpt>
      <trkpt lat="45.6063" lon="4.9019">
        <ele>331</ele>
        <time>2016-03-20T08:36:31Z</time>
      </trkpt>
      <trkpt lat="45.60632" lon="4.90178">
        <ele>330.3</ele>
        <time>2016-03-20T08:36:33Z</time>
      </trkpt>
      <trkpt lat="45.60634" lon="4.90164">
        <ele>329.5</ele>
        <time>2016-03-20T08:36:35Z</time>
      </trkpt>
      <trkpt lat="45.60634" lon="4.9015">
        <ele>329</ele>
        <time>2016-03-20T08:36:37Z</time>
      </trkpt>
      <trkpt lat="45.60632" lon="4.90135">
        <ele>328.7</ele>
        <time>2016-03-20T08:36:39Z</time>
      </trkpt>
      <trkpt lat="45.6063" lon="4.90119">
        <ele>328.4</ele>
        <time>2016-03-20T08:36:41Z</time>
      </trkpt>
      <trkpt lat="45.60626" lon="4.90101">
        <ele>328.2</ele>
        <time>2016-03-20T08:36:43Z</time>
      </trkpt>
      <trkpt lat="45.6062" lon="4.90083">
        <ele>328</ele>
        <time>2016-03-20T08:36:45Z</time>
      </trkpt>
      <trkpt lat="45.60611" lon="4.90065">
        <ele>328.1</ele>
        <time>2016-03-20T08:36:47Z</time>
      </trkpt>
      <trkpt lat="45.60602" lon="4.90047">
        <ele>328.4</ele>
        <time>2016-03-20T08:36:49Z</time>
      </trkpt>
      <trkpt lat="45.60593" lon="4.90031">
        <ele>329</ele>
        <time>2016-03-20T08:36:51Z</time>
      </trkpt>
      <trkpt lat="45.60584" lon="4.90015">
        <ele>329.7</ele>
        <time>2016-03-20T08:36:53Z</time>
      </trkpt>
      <trkpt lat="45.60576" lon="4.89999">
        <ele>330.5</ele>
        <time>2016-03-20T08:36:55Z</time>
      </trkpt>
      <trkpt lat="45.60568" lon="4.89986">
        <ele>331.2</ele>
        <time>2016-03-20T08:36:57Z</time>
      </trkpt>
      <trkpt lat="45.60562" lon="4.89974">
        <ele>331.9</ele>
        <time>2016-03-20T08:36:59Z</time>
      </trkpt>
      <trkpt lat="45.60556" lon="4.89963">
        <ele>332.5</ele>
        <time>2016-03-20T08:37:01Z</time>
      </trkpt>
      <trkpt lat="45.60551" lon="4.89952">
        <ele>333.1</ele>
        <time>2016-03-20T08:37:03Z</time>
      </trkpt>
      <trkpt lat="45.60546" lon="4.89943">
        <ele>333.6</ele>
        <time>2016-03-20T08:37:05Z</time>
      </trkpt>
      <trkpt lat="45.60542" lon="4.89935">
        <ele>334</ele>
        <time>2016-03-20T08:37:07Z</time>
      </trkpt>
      <trkpt lat="45.60538" lon="4.89928">
        <ele>334.4</ele>
        <time>2016-03-20T08:37:09Z</time>
      </trkpt>
      <trkpt lat="45.60534" lon="4.89922">
        <ele>334.8</ele>
        <time>2016-03-20T08:37:11Z</time>
      </trkpt>
      <trkpt lat="45.60529" lon="4.89916">
        <ele>335.4</ele>
        <time>2016-03-20T08:37:13Z</time>
      </trkpt>
      <trkpt lat="45.60526" lon="4.89911">
        <ele>335.9</ele>
        <time>2016-03-20T08:37:15Z</time>
      </trkpt>
      <trkpt lat="45.60522" lon="4.89906">
        <ele>336.4</ele>
        <time>2016-03-20T08:37:17Z</time>
      </trkpt>
      <trkpt lat="45.60518" lon="4.89902">
        <ele>336.8</ele>
        <time>2016-03-20T08:37:19Z</time>
      </trkpt>
      <trkpt lat="45.60514" lon="4.89898">
        <ele>337.3</ele>
        <time>2016-03-20T08:37:21Z</time>
      </trkpt>
      <trkpt lat="45.6051" lon="4.89894">
        <ele>337.8</ele>
        <time>2016-03-20T08:37:23Z</time>
      </trkpt>
      <trkpt lat="45.60506" lon="4.89889">
        <ele>338.3</ele>
        <time>2016-03-20T08:37:25Z</time>
      </trkpt>
      <trkpt lat="45.60502" lon="4.89883">
        <ele>338.8</ele>
        <time>2016-03-20T08:37:27Z</time>
      </trkpt>
      <trkpt lat="45.60498" lon="4.89879">
        <ele>339.3</ele>
        <time>2016-03-20T08:37:29Z</time>
      </trkpt>
      <trkpt lat="45.60495" lon="4.89875">
        <ele>339.8</ele>
        <time>2016-03-20T08:37:31Z</time>
      </trkpt>
      <trkpt lat="45.60491" lon="4.89869">
        <ele>340.3</ele>
        <time>2016-03-20T08:37:33Z</time>
      </trkpt>
      <trkpt lat="45.60487" lon="4.89864">
        <ele>340.7</ele>
        <time>2016-03-20T08:37:35Z</time>
      </trkpt>
      <trkpt lat="45.60484" lon="4.89859">
        <ele>341.2</ele>
        <time>2016-03-20T08:37:37Z</time>
      </trkpt>
      <trkpt lat="45.60481" lon="4.89853">
        <ele>341.5</ele>
        <time>2016-03-20T08:37:39Z</time>
      </trkpt>
      <trkpt lat="45.60477" lon="4.89847">
        <ele>341.9</ele>
        <time>2016-03-20T08:37:41Z</time>
      </trkpt>
      <trkpt lat="45.60474" lon="4.89842">
        <ele>342.2</ele>
        <time>2016-03-20T08:37:43Z</time>
      </trkpt>
      <trkpt lat="45.60471" lon="4.89836">
        <ele>342.5</ele>
        <time>2016-03-20T08:37:45Z</time>
      </trkpt>
      <trkpt lat="45.60467" lon="4.8983">
        <ele>342.8</ele>
        <time>2016-03-20T08:37:47Z</time>
      </trkpt>
      <trkpt lat="45.60464" lon="4.89824">
        <ele>343</ele>
        <time>2016-03-20T08:37:49Z</time>
      </trkpt>
      <trkpt lat="45.60461" lon="4.89817">
        <ele>343.1</ele>
        <time>2016-03-20T08:37:51Z</time>
      </trkpt>
      <trkpt lat="45.60459" lon="4.89812">
        <ele>343.2</ele>
        <time>2016-03-20T08:37:53Z</time>
      </trkpt>
      <trkpt lat="45.60455" lon="4.89807">
        <ele>343.3</ele>
        <time>2016-03-20T08:37:55Z</time>
      </trkpt>
      <trkpt lat="45.60453" lon="4.89802">
        <ele>343.4</ele>
        <time>2016-03-20T08:37:57Z</time>
      </trkpt>
      <trkpt lat="45.6045" lon="4.89797">
        <ele>343.5</ele>
        <time>2016-03-20T08:37:59Z</time>
      </trkpt>
      <trkpt lat="45.60447" lon="4.89793">
        <ele>343.7</ele>
        <time>2016-03-20T08:38:01Z</time>
      </trkpt>
      <trkpt lat="45.60444" lon="4.89789">
        <ele>343.8</ele>
        <time>2016-03-20T08:38:03Z</time>
      </trkpt>
      <trkpt lat="45.60441" lon="4.89784">
        <ele>344.1</ele>
        <time>2016-03-20T08:38:05Z</time>
      </trkpt>
      <trkpt lat="45.60438" lon="4.89779">
        <ele>344.3</ele>
        <time>2016-03-20T08:38:07Z</time>
      </trkpt>
      <trkpt lat="45.60435" lon="4.89775">
        <ele>344.5</ele>
        <time>2016-03-20T08:38:09Z</time>
      </trkpt>
      <trkpt lat="45.60432" lon="4.89772">
        <ele>344.7</ele>
        <time>2016-03-20T08:38:11Z</time>
      </trkpt>
      <trkpt lat="45.60429" lon="4.89769">
        <ele>344.9</ele>
        <time>2016-03-20T08:38:13Z</time>
      </trkpt>
      <trkpt lat="45.60428" lon="4.89766">
        <ele>345.1</ele>
        <time>2016-03-20T08:38:15Z</time>
      </trkpt>
      <trkpt lat="45.60427" lon="4.89764">
        <ele>345.2</ele>
        <time>2016-03-20T08:38:17Z</time>
      </trkpt>
      <trkpt lat="45.60426" lon="4.89762">
        <ele>345.2</ele>
        <time>2016-03-20T08:38:21Z</time>
      </trkpt>
      <trkpt lat="45.60421" lon="4.89756">
        <ele>345.6</ele>
        <time>2016-03-20T08:43:28Z</time>
      </trkpt>
      <trkpt lat="45.60415" lon="4.8975">
        <ele>346.1</ele>
        <time>2016-03-20T08:43:30Z</time>
      </trkpt>
      <trkpt lat="45.60412" lon="4.89747">
        <ele>346.3</ele>
        <time>2016-03-20T08:43:32Z</time>
      </trkpt>
      <trkpt lat="45.60409" lon="4.89743">
        <ele>346.6</ele>
        <time>2016-03-20T08:43:34Z</time>
      </trkpt>
      <trkpt lat="45.60406" lon="4.8974">
        <ele>346.8</ele>
        <time>2016-03-20T08:43:36Z</time>
      </trkpt>
      <trkpt lat="45.60402" lon="4.89736">
        <ele>347.1</ele>
        <time>2016-03-20T08:43:38Z</time>
      </trkpt>
      <trkpt lat="45.60399" lon="4.89733">
        <ele>347.3</ele>
        <time>2016-03-20T08:43:40Z</time>
      </trkpt>
      <trkpt lat="45.60396" lon="4.89729">
        <ele>347.6</ele>
        <time>2016-03-20T08:43:42Z</time>
      </trkpt>
      <trkpt lat="45.60392" lon="4.89725">
        <ele>347.8</ele>
        <time>2016-03-20T08:43:44Z</time>
      </trkpt>
      <trkpt lat="45.60388" lon="4.8972">
        <ele>347.9</ele>
        <time>2016-03-20T08:43:46Z</time>
      </trkpt>
      <trkpt lat="45.60384" lon="4.89715">
        <ele>348</ele>
        <time>2016-03-20T08:43:48Z</time>
      </trkpt>
      <trkpt lat="45.6038" lon="4.8971">
        <ele>348.1</ele>
        <time>2016-03-20T08:43:50Z</time>
      </trkpt>
      <trkpt lat="45.60376" lon="4.89705">
        <ele>348.2</ele>
        <time>2016-03-20T08:43:52Z</time>
      </trkpt>
      <trkpt lat="45.60372" lon="4.897">
        <ele>348.3</ele>
        <time>2016-03-20T08:43:54Z</time>
      </trkpt>
      <trkpt lat="45.60367" lon="4.89695">
        <ele>348.3</ele>
        <time>2016-03-20T08:43:56Z</time>
      </trkpt>
      <trkpt lat="45.60362" lon="4.8969">
        <ele>348.4</ele>
        <time>2016-03-20T08:43:58Z</time>
      </trkpt>
      <trkpt lat="45.60356" lon="4.89685">
        <ele>348.5</ele>
        <time>2016-03-20T08:44:00Z</time>
      </trkpt>
      <trkpt lat="45.6035" lon="4.8968">
        <ele>348.6</ele>
        <time>2016-03-20T08:44:02Z</time>
      </trkpt>
      <trkpt lat="45.60343" lon="4.89674">
        <ele>348.7</ele>
        <time>2016-03-20T08:44:04Z</time>
      </trkpt>
      <trkpt lat="45.60337" lon="4.89668">
        <ele>348.8</ele>
        <time>2016-03-20T08:44:06Z</time>
      </trkpt>
      <trkpt lat="45.6033" lon="4.89661">
        <ele>348.8</ele>
        <time>2016-03-20T08:44:08Z</time>
      </trkpt>
      <trkpt lat="45.60324" lon="4.89654">
        <ele>348.9</ele>
        <time>2016-03-20T08:44:10Z</time>
      </trkpt>
      <trkpt lat="45.60318" lon="4.89647">
        <ele>349</ele>
        <time>2016-03-20T08:44:12Z</time>
      </trkpt>
      <trkpt lat="45.60314" lon="4.8964">
        <ele>349.2</ele>
        <time>2016-03-20T08:44:14Z</time>
      </trkpt>
      <trkpt lat="45.60309" lon="4.89632">
        <ele>349.5</ele>
        <time>2016-03-20T08:44:16Z</time>
      </trkpt>
      <trkpt lat="45.60304" lon="4.89624">
        <ele>349.8</ele>
        <time>2016-03-20T08:44:18Z</time>
      </trkpt>
      <trkpt lat="45.603" lon="4.89615">
        <ele>350.5</ele>
        <time>2016-03-20T08:44:20Z</time>
      </trkpt>
      <trkpt lat="45.60296" lon="4.89605">
        <ele>350.6</ele>
        <time>2016-03-20T08:44:22Z</time>
      </trkpt>
      <trkpt lat="45.60292" lon="4.89596">
        <ele>350.8</ele>
        <time>2016-03-20T08:44:24Z</time>
      </trkpt>
      <trkpt lat="45.60289" lon="4.89587">
        <ele>351</ele>
        <time>2016-03-20T08:44:26Z</time>
      </trkpt>
      <trkpt lat="45.60286" lon="4.89579">
        <ele>351.1</ele>
        <time>2016-03-20T08:44:28Z</time>
      </trkpt>
      <trkpt lat="45.60283" lon="4.8957">
        <ele>351.2</ele>
        <time>2016-03-20T08:44:30Z</time>
      </trkpt>
      <trkpt lat="45.6028" lon="4.89561">
        <ele>351.3</ele>
        <time>2016-03-20T08:44:32Z</time>
      </trkpt>
      <trkpt lat="45.60276" lon="4.89553">
        <ele>351.5</ele>
        <time>2016-03-20T08:44:34Z</time>
      </trkpt>
      <trkpt lat="45.60273" lon="4.89544">
        <ele>351.6</ele>
        <time>2016-03-20T08:44:36Z</time>
      </trkpt>
      <trkpt lat="45.6027" lon="4.89536">
        <ele>351.8</ele>
        <time>2016-03-20T08:44:38Z</time>
      </trkpt>
      <trkpt lat="45.60269" lon="4.89526">
        <ele>352.1</ele>
        <time>2016-03-20T08:44:40Z</time>
      </trkpt>
      <trkpt lat="45.60268" lon="4.89517">
        <ele>352.3</ele>
        <time>2016-03-20T08:44:42Z</time>
      </trkpt>
      <trkpt lat="45.60268" lon="4.89508">
        <ele>352.4</ele>
        <time>2016-03-20T08:44:44Z</time>
      </trkpt>
      <trkpt lat="45.60267" lon="4.89499">
        <ele>352.5</ele>
        <time>2016-03-20T08:44:46Z</time>
      </trkpt>
      <trkpt lat="45.60267" lon="4.8949">
        <ele>352.7</ele>
        <time>2016-03-20T08:44:48Z</time>
      </trkpt>
      <trkpt lat="45.60267" lon="4.89481">
        <ele>352.9</ele>
        <time>2016-03-20T08:44:50Z</time>
      </trkpt>
      <trkpt lat="45.60266" lon="4.89471">
        <ele>353.2</ele>
        <time>2016-03-20T08:44:52Z</time>
      </trkpt>
      <trkpt lat="45.60265" lon="4.89462">
        <ele>353.5</ele>
        <time>2016-03-20T08:44:54Z</time>
      </trkpt>
      <trkpt lat="45.60264" lon="4.89453">
        <ele>353.8</ele>
        <time>2016-03-20T08:44:56Z</time>
      </trkpt>
      <trkpt lat="45.60263" lon="4.89444">
        <ele>353.9</ele>
        <time>2016-03-20T08:44:58Z</time>
      </trkpt>
      <trkpt lat="45.60261" lon="4.89435">
        <ele>354.1</ele>
        <time>2016-03-20T08:45:00Z</time>
      </trkpt>
      <trkpt lat="45.60259" lon="4.89426">
        <ele>354.3</ele>
        <time>2016-03-20T08:45:02Z</time>
      </trkpt>
      <trkpt lat="45.60256" lon="4.89417">
        <ele>354.4</ele>
        <time>2016-03-20T08:45:04Z</time>
      </trkpt>
      <trkpt lat="45.60252" lon="4.89409">
        <ele>354.6</ele>
        <time>2016-03-20T08:45:06Z</time>
      </trkpt>
      <trkpt lat="45.60248" lon="4.89402">
        <ele>354.9</ele>
        <time>2016-03-20T08:45:08Z</time>
      </trkpt>
      <trkpt lat="45.60242" lon="4.89395">
        <ele>355.2</ele>
        <time>2016-03-20T08:45:10Z</time>
      </trkpt>
      <trkpt lat="45.60236" lon="4.89388">
        <ele>355.6</ele>
        <time>2016-03-20T08:45:12Z</time>
      </trkpt>
      <trkpt lat="45.6023" lon="4.89382">
        <ele>355.9</ele>
        <time>2016-03-20T08:45:14Z</time>
      </trkpt>
      <trkpt lat="45.60224" lon="4.89376">
        <ele>356.1</ele>
        <time>2016-03-20T08:45:16Z</time>
      </trkpt>
      <trkpt lat="45.60218" lon="4.8937">
        <ele>356.3</ele>
        <time>2016-03-20T08:45:18Z</time>
      </trkpt>
      <trkpt lat="45.60212" lon="4.89363">
        <ele>356.5</ele>
        <time>2016-03-20T08:45:20Z</time>
      </trkpt>
      <trkpt lat="45.60207" lon="4.89355">
        <ele>356.6</ele>
        <time>2016-03-20T08:45:22Z</time>
      </trkpt>
      <trkpt lat="45.60203" lon="4.89347">
        <ele>356.7</ele>
        <time>2016-03-20T08:45:24Z</time>
      </trkpt>
      <trkpt lat="45.60199" lon="4.89338">
        <ele>356.7</ele>
        <time>2016-03-20T08:45:26Z</time>
      </trkpt>
      <trkpt lat="45.60196" lon="4.89328">
        <ele>356.7</ele>
        <time>2016-03-20T08:45:28Z</time>
      </trkpt>
      <trkpt lat="45.60194" lon="4.89319">
        <ele>356.7</ele>
        <time>2016-03-20T08:45:30Z</time>
      </trkpt>
      <trkpt lat="45.60191" lon="4.89309">
        <ele>356.7</ele>
        <time>2016-03-20T08:45:32Z</time>
      </trkpt>
      <trkpt lat="45.60189" lon="4.893">
        <ele>356.6</ele>
        <time>2016-03-20T08:45:34Z</time>
      </trkpt>
      <trkpt lat="45.60186" lon="4.8929">
        <ele>356.6</ele>
        <time>2016-03-20T08:45:36Z</time>
      </trkpt>
      <trkpt lat="45.60184" lon="4.89281">
        <ele>356.5</ele>
        <time>2016-03-20T08:45:38Z</time>
      </trkpt>
      <trkpt lat="45.60182" lon="4.89271">
        <ele>356.4</ele>
        <time>2016-03-20T08:45:40Z</time>
      </trkpt>
      <trkpt lat="45.60179" lon="4.89262">
        <ele>356.1</ele>
        <time>2016-03-20T08:45:42Z</time>
      </trkpt>
      <trkpt lat="45.60176" lon="4.89251">
        <ele>355.7</ele>
        <time>2016-03-20T08:45:44Z</time>
      </trkpt>
      <trkpt lat="45.60172" lon="4.8924">
        <ele>355.2</ele>
        <time>2016-03-20T08:45:46Z</time>
      </trkpt>
      <trkpt lat="45.60169" lon="4.89228">
        <ele>354.8</ele>
        <time>2016-03-20T08:45:48Z</time>
      </trkpt>
      <trkpt lat="45.60166" lon="4.89215">
        <ele>354.5</ele>
        <time>2016-03-20T08:45:50Z</time>
      </trkpt>
      <trkpt lat="45.60163" lon="4.89202">
        <ele>354</ele>
        <time>2016-03-20T08:45:52Z</time>
      </trkpt>
      <trkpt lat="45.6016" lon="4.89187">
        <ele>353.3</ele>
        <time>2016-03-20T08:45:54Z</time>
      </trkpt>
      <trkpt lat="45.60158" lon="4.89171">
        <ele>353</ele>
        <time>2016-03-20T08:45:56Z</time>
      </trkpt>
      <trkpt lat="45.60156" lon="4.89154">
        <ele>352.8</ele>
        <time>2016-03-20T08:45:58Z</time>
      </trkpt>
      <trkpt lat="45.60154" lon="4.89136">
        <ele>352.4</ele>
        <time>2016-03-20T08:46:00Z</time>
      </trkpt>
      <trkpt lat="45.60152" lon="4.89116">
        <ele>352</ele>
        <time>2016-03-20T08:46:02Z</time>
      </trkpt>
      <trkpt lat="45.60152" lon="4.89097">
        <ele>351.3</ele>
        <time>2016-03-20T08:46:04Z</time>
      </trkpt>
      <trkpt lat="45.60151" lon="4.89078">
        <ele>350.9</ele>
        <time>2016-03-20T08:46:06Z</time>
      </trkpt>
      <trkpt lat="45.60152" lon="4.89059">
        <ele>350.7</ele>
        <time>2016-03-20T08:46:08Z</time>
      </trkpt>
      <trkpt lat="45.60153" lon="4.89038">
        <ele>350.3</ele>
        <time>2016-03-20T08:46:10Z</time>
      </trkpt>
      <trkpt lat="45.60155" lon="4.89018">
        <ele>349.7</ele>
        <time>2016-03-20T08:46:12Z</time>
      </trkpt>
      <trkpt lat="45.60157" lon="4.88998">
        <ele>349</ele>
        <time>2016-03-20T08:46:14Z</time>
      </trkpt>
      <trkpt lat="45.6016" lon="4.88978">
        <ele>348.6</ele>
        <time>2016-03-20T08:46:16Z</time>
      </trkpt>
      <trkpt lat="45.60161" lon="4.88957">
        <ele>348</ele>
        <time>2016-03-20T08:46:18Z</time>
      </trkpt>
      <trkpt lat="45.6016" lon="4.88935">
        <ele>347</ele>
        <time>2016-03-20T08:46:20Z</time>
      </trkpt>
      <trkpt lat="45.60158" lon="4.88913">
        <ele>346.3</ele>
        <time>2016-03-20T08:46:22Z</time>
      </trkpt>
      <trkpt lat="45.60156" lon="4.88891">
        <ele>345.7</ele>
        <time>2016-03-20T08:46:24Z</time>
      </trkpt>
      <trkpt lat="45.60154" lon="4.88867">
        <ele>344.7</ele>
        <time>2016-03-20T08:46:26Z</time>
      </trkpt>
      <trkpt lat="45.60152" lon="4.88843">
        <ele>344.5</ele>
        <time>2016-03-20T08:46:28Z</time>
      </trkpt>
      <trkpt lat="45.6015" lon="4.88818">
        <ele>344.5</ele>
        <time>2016-03-20T08:46:30Z</time>
      </trkpt>
      <trkpt lat="45.60151" lon="4.88791">
        <ele>345.6</ele>
        <time>2016-03-20T08:46:32Z</time>
      </trkpt>
      <trkpt lat="45.60156" lon="4.88765">
        <ele>347.5</ele>
        <time>2016-03-20T08:46:34Z</time>
      </trkpt>
      <trkpt lat="45.60162" lon="4.8874">
        <ele>348.7</ele>
        <time>2016-03-20T08:46:36Z</time>
      </trkpt>
      <trkpt lat="45.60169" lon="4.88719">
        <ele>349.9</ele>
        <time>2016-03-20T08:46:38Z</time>
      </trkpt>
      <trkpt lat="45.60175" lon="4.88701">
        <ele>350.9</ele>
        <time>2016-03-20T08:46:40Z</time>
      </trkpt>
      <trkpt lat="45.6018" lon="4.88684">
        <ele>351.6</ele>
        <time>2016-03-20T08:46:42Z</time>
      </trkpt>
      <trkpt lat="45.60177" lon="4.88671">
        <ele>352.1</ele>
        <time>2016-03-20T08:46:44Z</time>
      </trkpt>
      <trkpt lat="45.60169" lon="4.88669">
        <ele>352.2</ele>
        <time>2016-03-20T08:46:46Z</time>
      </trkpt>
      <trkpt lat="45.60162" lon="4.88667">
        <ele>352.2</ele>
        <time>2016-03-20T08:46:48Z</time>
      </trkpt>
      <trkpt lat="45.60156" lon="4.88665">
        <ele>352.1</ele>
        <time>2016-03-20T08:46:50Z</time>
      </trkpt>
      <trkpt lat="45.6015" lon="4.88663">
        <ele>352.3</ele>
        <time>2016-03-20T08:46:52Z</time>
      </trkpt>
      <trkpt lat="45.60143" lon="4.88661">
        <ele>352.2</ele>
        <time>2016-03-20T08:46:54Z</time>
      </trkpt>
      <trkpt lat="45.60137" lon="4.88658">
        <ele>352.2</ele>
        <time>2016-03-20T08:46:56Z</time>
      </trkpt>
      <trkpt lat="45.6013" lon="4.88655">
        <ele>352.2</ele>
        <time>2016-03-20T08:46:58Z</time>
      </trkpt>
      <trkpt lat="45.60121" lon="4.88652">
        <ele>351.7</ele>
        <time>2016-03-20T08:47:00Z</time>
      </trkpt>
      <trkpt lat="45.60111" lon="4.88648">
        <ele>351.5</ele>
        <time>2016-03-20T08:47:02Z</time>
      </trkpt>
      <trkpt lat="45.601" lon="4.88646">
        <ele>351.2</ele>
        <time>2016-03-20T08:47:04Z</time>
      </trkpt>
      <trkpt lat="45.60089" lon="4.88644">
        <ele>351.1</ele>
        <time>2016-03-20T08:47:06Z</time>
      </trkpt>
      <trkpt lat="45.6008" lon="4.88639">
        <ele>351.8</ele>
        <time>2016-03-20T08:47:08Z</time>
      </trkpt>
      <trkpt lat="45.60074" lon="4.88628">
        <ele>352.2</ele>
        <time>2016-03-20T08:47:10Z</time>
      </trkpt>
      <trkpt lat="45.60064" lon="4.88617">
        <ele>352.2</ele>
        <time>2016-03-20T08:47:12Z</time>
      </trkpt>
      <trkpt lat="45.60053" lon="4.88605">
        <ele>351.8</ele>
        <time>2016-03-20T08:47:14Z</time>
      </trkpt>
      <trkpt lat="45.60041" lon="4.88594">
        <ele>350.7</ele>
        <time>2016-03-20T08:47:16Z</time>
      </trkpt>
      <trkpt lat="45.60029" lon="4.88592">
        <ele>350.2</ele>
        <time>2016-03-20T08:47:18Z</time>
      </trkpt>
      <trkpt lat="45.60017" lon="4.88589">
        <ele>350</ele>
        <time>2016-03-20T08:47:20Z</time>
      </trkpt>
      <trkpt lat="45.60005" lon="4.88584">
        <ele>349.5</ele>
        <time>2016-03-20T08:47:22Z</time>
      </trkpt>
      <trkpt lat="45.59995" lon="4.8858">
        <ele>348.3</ele>
        <time>2016-03-20T08:47:24Z</time>
      </trkpt>
      <trkpt lat="45.59986" lon="4.88577">
        <ele>346.9</ele>
        <time>2016-03-20T08:47:26Z</time>
      </trkpt>
      <trkpt lat="45.59978" lon="4.88575">
        <ele>345.3</ele>
        <time>2016-03-20T08:47:28Z</time>
      </trkpt>
      <trkpt lat="45.59972" lon="4.88577">
        <ele>344.1</ele>
        <time>2016-03-20T08:47:30Z</time>
      </trkpt>
      <trkpt lat="45.59966" lon="4.88577">
        <ele>342.7</ele>
        <time>2016-03-20T08:47:32Z</time>
      </trkpt>
      <trkpt lat="45.59958" lon="4.88571">
        <ele>340.4</ele>
        <time>2016-03-20T08:47:34Z</time>
      </trkpt>
      <trkpt lat="45.59949" lon="4.8856">
        <ele>340.1</ele>
        <time>2016-03-20T08:47:36Z</time>
      </trkpt>
      <trkpt lat="45.59939" lon="4.88552">
        <ele>341</ele>
        <time>2016-03-20T08:47:38Z</time>
      </trkpt>
      <trkpt lat="45.59931" lon="4.88543">
        <ele>341.4</ele>
        <time>2016-03-20T08:47:40Z</time>
      </trkpt>
      <trkpt lat="45.59926" lon="4.8853">
        <ele>341.1</ele>
        <time>2016-03-20T08:47:42Z</time>
      </trkpt>
      <trkpt lat="45.59924" lon="4.88518">
        <ele>341.2</ele>
        <time>2016-03-20T08:47:44Z</time>
      </trkpt>
      <trkpt lat="45.59926" lon="4.88506">
        <ele>341.3</ele>
        <time>2016-03-20T08:47:46Z</time>
      </trkpt>
      <trkpt lat="45.59929" lon="4.88495">
        <ele>341.1</ele>
        <time>2016-03-20T08:47:48Z</time>
      </trkpt>
      <trkpt lat="45.59931" lon="4.88484">
        <ele>340.7</ele>
        <time>2016-03-20T08:47:50Z</time>
      </trkpt>
      <trkpt lat="45.59934" lon="4.88474">
        <ele>339.9</ele>
        <time>2016-03-20T08:47:52Z</time>
      </trkpt>
      <trkpt lat="45.59935" lon="4.88465">
        <ele>339.3</ele>
        <time>2016-03-20T08:47:54Z</time>
      </trkpt>
      <trkpt lat="45.59935" lon="4.88456">
        <ele>339.1</ele>
        <time>2016-03-20T08:47:56Z</time>
      </trkpt>
      <trkpt lat="45.59933" lon="4.88447">
        <ele>339.2</ele>
        <time>2016-03-20T08:47:58Z</time>
      </trkpt>
      <trkpt lat="45.59932" lon="4.88437">
        <ele>339.4</ele>
        <time>2016-03-20T08:48:00Z</time>
      </trkpt>
      <trkpt lat="45.59931" lon="4.88426">
        <ele>339.8</ele>
        <time>2016-03-20T08:48:02Z</time>
      </trkpt>
      <trkpt lat="45.5993" lon="4.88415">
        <ele>340</ele>
        <time>2016-03-20T08:48:04Z</time>
      </trkpt>
      <trkpt lat="45.59929" lon="4.88402">
        <ele>340.4</ele>
        <time>2016-03-20T08:48:06Z</time>
      </trkpt>
      <trkpt lat="45.59927" lon="4.8839">
        <ele>339.9</ele>
        <time>2016-03-20T08:48:08Z</time>
      </trkpt>
      <trkpt lat="45.59926" lon="4.88378">
        <ele>340</ele>
        <time>2016-03-20T08:48:10Z</time>
      </trkpt>
      <trkpt lat="45.59924" lon="4.88367">
        <ele>339.8</ele>
        <time>2016-03-20T08:48:12Z</time>
      </trkpt>
      <trkpt lat="45.59924" lon="4.88356">
        <ele>339.7</ele>
        <time>2016-03-20T08:48:14Z</time>
      </trkpt>
      <trkpt lat="45.59924" lon="4.88344">
        <ele>339.7</ele>
        <time>2016-03-20T08:48:16Z</time>
      </trkpt>
      <trkpt lat="45.59923" lon="4.88333">
        <ele>339</ele>
        <time>2016-03-20T08:48:18Z</time>
      </trkpt>
      <trkpt lat="45.59922" lon="4.88323">
        <ele>337.9</ele>
        <time>2016-03-20T08:48:20Z</time>
      </trkpt>
      <trkpt lat="45.59921" lon="4.88314">
        <ele>337.1</ele>
        <time>2016-03-20T08:48:22Z</time>
      </trkpt>
      <trkpt lat="45.59918" lon="4.88304">
        <ele>336.5</ele>
        <time>2016-03-20T08:48:24Z</time>
      </trkpt>
      <trkpt lat="45.59915" lon="4.88294">
        <ele>336</ele>
        <time>2016-03-20T08:48:26Z</time>
      </trkpt>
      <trkpt lat="45.59912" lon="4.88283">
        <ele>335.7</ele>
        <time>2016-03-20T08:48:28Z</time>
      </trkpt>
      <trkpt lat="45.59909" lon="4.88271">
        <ele>335.4</ele>
        <time>2016-03-20T08:48:30Z</time>
      </trkpt>
      <trkpt lat="45.59906" lon="4.8826">
        <ele>334.9</ele>
        <time>2016-03-20T08:48:32Z</time>
      </trkpt>
      <trkpt lat="45.59903" lon="4.88248">
        <ele>334.6</ele>
        <time>2016-03-20T08:48:34Z</time>
      </trkpt>
      <trkpt lat="45.599" lon="4.88235">
        <ele>334.6</ele>
        <time>2016-03-20T08:48:36Z</time>
      </trkpt>
      <trkpt lat="45.59896" lon="4.88222">
        <ele>334.7</ele>
        <time>2016-03-20T08:48:38Z</time>
      </trkpt>
      <trkpt lat="45.59893" lon="4.88209">
        <ele>334.6</ele>
        <time>2016-03-20T08:48:40Z</time>
      </trkpt>
      <trkpt lat="45.59889" lon="4.88196">
        <ele>334.1</ele>
        <time>2016-03-20T08:48:42Z</time>
      </trkpt>
      <trkpt lat="45.59885" lon="4.88182">
        <ele>333.6</ele>
        <time>2016-03-20T08:48:44Z</time>
      </trkpt>
      <trkpt lat="45.59882" lon="4.88168">
        <ele>333.1</ele>
        <time>2016-03-20T08:48:46Z</time>
      </trkpt>
      <trkpt lat="45.59877" lon="4.88153">
        <ele>332.8</ele>
        <time>2016-03-20T08:48:48Z</time>
      </trkpt>
      <trkpt lat="45.59874" lon="4.88138">
        <ele>332.5</ele>
        <time>2016-03-20T08:48:50Z</time>
      </trkpt>
      <trkpt lat="45.59867" lon="4.88126">
        <ele>332</ele>
        <time>2016-03-20T08:48:52Z</time>
      </trkpt>
      <trkpt lat="45.59857" lon="4.88119">
        <ele>332</ele>
        <time>2016-03-20T08:48:54Z</time>
      </trkpt>
      <trkpt lat="45.59847" lon="4.88113">
        <ele>332</ele>
        <time>2016-03-20T08:48:56Z</time>
      </trkpt>
      <trkpt lat="45.59837" lon="4.88106">
        <ele>331.9</ele>
        <time>2016-03-20T08:48:58Z</time>
      </trkpt>
      <trkpt lat="45.59827" lon="4.88099">
        <ele>331.9</ele>
        <time>2016-03-20T08:49:00Z</time>
      </trkpt>
      <trkpt lat="45.59816" lon="4.88092">
        <ele>331.8</ele>
        <time>2016-03-20T08:49:02Z</time>
      </trkpt>
      <trkpt lat="45.59806" lon="4.88085">
        <ele>331.7</ele>
        <time>2016-03-20T08:49:04Z</time>
      </trkpt>
      <trkpt lat="45.59794" lon="4.88077">
        <ele>331.3</ele>
        <time>2016-03-20T08:49:06Z</time>
      </trkpt>
      <trkpt lat="45.59783" lon="4.88069">
        <ele>331</ele>
        <time>2016-03-20T08:49:08Z</time>
      </trkpt>
      <trkpt lat="45.59771" lon="4.88062">
        <ele>330.7</ele>
        <time>2016-03-20T08:49:10Z</time>
      </trkpt>
      <trkpt lat="45.5976" lon="4.88056">
        <ele>330.6</ele>
        <time>2016-03-20T08:49:12Z</time>
      </trkpt>
      <trkpt lat="45.59749" lon="4.88049">
        <ele>330.5</ele>
        <time>2016-03-20T08:49:14Z</time>
      </trkpt>
      <trkpt lat="45.59739" lon="4.88043">
        <ele>330.5</ele>
        <time>2016-03-20T08:49:16Z</time>
      </trkpt>
      <trkpt lat="45.59728" lon="4.88038">
        <ele>330.5</ele>
        <time>2016-03-20T08:49:18Z</time>
      </trkpt>
      <trkpt lat="45.59718" lon="4.88032">
        <ele>330.5</ele>
        <time>2016-03-20T08:49:20Z</time>
      </trkpt>
      <trkpt lat="45.59709" lon="4.88026">
        <ele>330.6</ele>
        <time>2016-03-20T08:49:22Z</time>
      </trkpt>
      <trkpt lat="45.597" lon="4.8802">
        <ele>330.7</ele>
        <time>2016-03-20T08:49:24Z</time>
      </trkpt>
      <trkpt lat="45.59693" lon="4.88014">
        <ele>330.8</ele>
        <time>2016-03-20T08:49:26Z</time>
      </trkpt>
      <trkpt lat="45.59686" lon="4.88009">
        <ele>331</ele>
        <time>2016-03-20T08:49:28Z</time>
      </trkpt>
      <trkpt lat="45.59679" lon="4.88003">
        <ele>331.3</ele>
        <time>2016-03-20T08:49:30Z</time>
      </trkpt>
      <trkpt lat="45.59672" lon="4.87997">
        <ele>331.8</ele>
        <time>2016-03-20T08:49:32Z</time>
      </trkpt>
      <trkpt lat="45.59665" lon="4.87991">
        <ele>332.3</ele>
        <time>2016-03-20T08:49:34Z</time>
      </trkpt>
      <trkpt lat="45.59657" lon="4.87984">
        <ele>332.8</ele>
        <time>2016-03-20T08:49:36Z</time>
      </trkpt>
      <trkpt lat="45.59649" lon="4.87975">
        <ele>333</ele>
        <time>2016-03-20T08:49:38Z</time>
      </trkpt>
      <trkpt lat="45.59641" lon="4.87965">
        <ele>333.1</ele>
        <time>2016-03-20T08:49:40Z</time>
      </trkpt>
      <trkpt lat="45.59631" lon="4.87955">
        <ele>333.2</ele>
        <time>2016-03-20T08:49:42Z</time>
      </trkpt>
      <trkpt lat="45.59622" lon="4.87946">
        <ele>333.3</ele>
        <time>2016-03-20T08:49:44Z</time>
      </trkpt>
      <trkpt lat="45.59613" lon="4.87938">
        <ele>333.4</ele>
        <time>2016-03-20T08:49:46Z</time>
      </trkpt>
      <trkpt lat="45.59603" lon="4.87931">
        <ele>333.4</ele>
        <time>2016-03-20T08:49:48Z</time>
      </trkpt>
      <trkpt lat="45.59593" lon="4.87924">
        <ele>333.6</ele>
        <time>2016-03-20T08:49:50Z</time>
      </trkpt>
      <trkpt lat="45.59584" lon="4.87918">
        <ele>333.7</ele>
        <time>2016-03-20T08:49:52Z</time>
      </trkpt>
      <trkpt lat="45.59575" lon="4.87913">
        <ele>333.8</ele>
        <time>2016-03-20T08:49:54Z</time>
      </trkpt>
      <trkpt lat="45.59567" lon="4.87908">
        <ele>334</ele>
        <time>2016-03-20T08:49:56Z</time>
      </trkpt>
      <trkpt lat="45.59559" lon="4.87904">
        <ele>334.2</ele>
        <time>2016-03-20T08:49:58Z</time>
      </trkpt>
      <trkpt lat="45.59549" lon="4.87902">
        <ele>334.7</ele>
        <time>2016-03-20T08:50:00Z</time>
      </trkpt>
      <trkpt lat="45.59541" lon="4.87902">
        <ele>335.2</ele>
        <time>2016-03-20T08:50:02Z</time>
      </trkpt>
      <trkpt lat="45.59533" lon="4.87905">
        <ele>335.4</ele>
        <time>2016-03-20T08:50:04Z</time>
      </trkpt>
      <trkpt lat="45.59525" lon="4.8791">
        <ele>335.6</ele>
        <time>2016-03-20T08:50:06Z</time>
      </trkpt>
      <trkpt lat="45.59516" lon="4.87916">
        <ele>335.7</ele>
        <time>2016-03-20T08:50:08Z</time>
      </trkpt>
      <trkpt lat="45.59506" lon="4.87921">
        <ele>335.8</ele>
        <time>2016-03-20T08:50:10Z</time>
      </trkpt>
      <trkpt lat="45.59495" lon="4.87922">
        <ele>335.8</ele>
        <time>2016-03-20T08:50:12Z</time>
      </trkpt>
      <trkpt lat="45.59483" lon="4.87918">
        <ele>335.9</ele>
        <time>2016-03-20T08:50:14Z</time>
      </trkpt>
      <trkpt lat="45.59472" lon="4.87912">
        <ele>335.9</ele>
        <time>2016-03-20T08:50:16Z</time>
      </trkpt>
      <trkpt lat="45.59462" lon="4.87906">
        <ele>335.9</ele>
        <time>2016-03-20T08:50:18Z</time>
      </trkpt>
      <trkpt lat="45.59451" lon="4.87897">
        <ele>336</ele>
        <time>2016-03-20T08:50:20Z</time>
      </trkpt>
      <trkpt lat="45.59441" lon="4.87885">
        <ele>336</ele>
        <time>2016-03-20T08:50:22Z</time>
      </trkpt>
      <trkpt lat="45.59435" lon="4.87873">
        <ele>336</ele>
        <time>2016-03-20T08:50:24Z</time>
      </trkpt>
      <trkpt lat="45.5943" lon="4.87861">
        <ele>336.4</ele>
        <time>2016-03-20T08:50:26Z</time>
      </trkpt>
      <trkpt lat="45.59428" lon="4.87848">
        <ele>336.4</ele>
        <time>2016-03-20T08:50:28Z</time>
      </trkpt>
      <trkpt lat="45.59429" lon="4.87834">
        <ele>336.8</ele>
        <time>2016-03-20T08:50:30Z</time>
      </trkpt>
      <trkpt lat="45.59428" lon="4.8782">
        <ele>338.2</ele>
        <time>2016-03-20T08:50:32Z</time>
      </trkpt>
      <trkpt lat="45.59429" lon="4.87807">
        <ele>338.8</ele>
        <time>2016-03-20T08:50:34Z</time>
      </trkpt>
      <trkpt lat="45.59432" lon="4.87794">
        <ele>339.3</ele>
        <time>2016-03-20T08:50:36Z</time>
      </trkpt>
      <trkpt lat="45.59436" lon="4.87783">
        <ele>339.8</ele>
        <time>2016-03-20T08:50:38Z</time>
      </trkpt>
      <trkpt lat="45.59442" lon="4.87772">
        <ele>340.8</ele>
        <time>2016-03-20T08:50:40Z</time>
      </trkpt>
      <trkpt lat="45.59449" lon="4.87763">
        <ele>341.6</ele>
        <time>2016-03-20T08:50:42Z</time>
      </trkpt>
      <trkpt lat="45.59456" lon="4.87755">
        <ele>342.2</ele>
        <time>2016-03-20T08:50:44Z</time>
      </trkpt>
      <trkpt lat="45.59464" lon="4.87749">
        <ele>342.5</ele>
        <time>2016-03-20T08:50:46Z</time>
      </trkpt>
      <trkpt lat="45.59472" lon="4.87742">
        <ele>342.3</ele>
        <time>2016-03-20T08:50:48Z</time>
      </trkpt>
      <trkpt lat="45.59478" lon="4.87734">
        <ele>342.3</ele>
        <time>2016-03-20T08:50:50Z</time>
      </trkpt>
      <trkpt lat="45.59483" lon="4.87725">
        <ele>342.8</ele>
        <time>2016-03-20T08:50:52Z</time>
      </trkpt>
      <trkpt lat="45.59488" lon="4.87714">
        <ele>343.8</ele>
        <time>2016-03-20T08:50:54Z</time>
      </trkpt>
      <trkpt lat="45.59493" lon="4.87704">
        <ele>344.8</ele>
        <time>2016-03-20T08:50:56Z</time>
      </trkpt>
      <trkpt lat="45.59498" lon="4.87695">
        <ele>345.4</ele>
        <time>2016-03-20T08:50:58Z</time>
      </trkpt>
      <trkpt lat="45.59503" lon="4.87686">
        <ele>345.7</ele>
        <time>2016-03-20T08:51:00Z</time>
      </trkpt>
      <trkpt lat="45.59507" lon="4.87676">
        <ele>346.7</ele>
        <time>2016-03-20T08:51:02Z</time>
      </trkpt>
      <trkpt lat="45.59512" lon="4.87667">
        <ele>347.4</ele>
        <time>2016-03-20T08:51:04Z</time>
      </trkpt>
      <trkpt lat="45.59515" lon="4.87659">
        <ele>347.7</ele>
        <time>2016-03-20T08:51:06Z</time>
      </trkpt>
      <trkpt lat="45.59517" lon="4.8765">
        <ele>347.7</ele>
        <time>2016-03-20T08:51:08Z</time>
      </trkpt>
      <trkpt lat="45.59515" lon="4.87641">
        <ele>347.6</ele>
        <time>2016-03-20T08:51:10Z</time>
      </trkpt>
      <trkpt lat="45.59511" lon="4.87636">
        <ele>347.6</ele>
        <time>2016-03-20T08:51:12Z</time>
      </trkpt>
      <trkpt lat="45.59506" lon="4.87631">
        <ele>347.5</ele>
        <time>2016-03-20T08:51:14Z</time>
      </trkpt>
      <trkpt lat="45.59499" lon="4.87628">
        <ele>347.2</ele>
        <time>2016-03-20T08:51:16Z</time>
      </trkpt>
      <trkpt lat="45.59492" lon="4.87625">
        <ele>347</ele>
        <time>2016-03-20T08:51:18Z</time>
      </trkpt>
      <trkpt lat="45.59485" lon="4.87624">
        <ele>346.8</ele>
        <time>2016-03-20T08:51:20Z</time>
      </trkpt>
      <trkpt lat="45.59477" lon="4.87622">
        <ele>346.3</ele>
        <time>2016-03-20T08:51:22Z</time>
      </trkpt>
      <trkpt lat="45.59468" lon="4.87622">
        <ele>345.8</ele>
        <time>2016-03-20T08:51:24Z</time>
      </trkpt>
      <trkpt lat="45.59459" lon="4.87624">
        <ele>345.2</ele>
        <time>2016-03-20T08:51:26Z</time>
      </trkpt>
      <trkpt lat="45.5945" lon="4.87625">
        <ele>344.8</ele>
        <time>2016-03-20T08:51:28Z</time>
      </trkpt>
      <trkpt lat="45.59442" lon="4.87627">
        <ele>344.8</ele>
        <time>2016-03-20T08:51:30Z</time>
      </trkpt>
      <trkpt lat="45.59433" lon="4.87626">
        <ele>345.1</ele>
        <time>2016-03-20T08:51:32Z</time>
      </trkpt>
      <trkpt lat="45.59424" lon="4.87625">
        <ele>345.6</ele>
        <time>2016-03-20T08:51:34Z</time>
      </trkpt>
      <trkpt lat="45.59416" lon="4.87622">
        <ele>345.9</ele>
        <time>2016-03-20T08:51:36Z</time>
      </trkpt>
      <trkpt lat="45.59407" lon="4.87618">
        <ele>345.9</ele>
        <time>2016-03-20T08:51:38Z</time>
      </trkpt>
      <trkpt lat="45.59401" lon="4.87613">
        <ele>345.7</ele>
        <time>2016-03-20T08:51:40Z</time>
      </trkpt>
      <trkpt lat="45.59395" lon="4.87605">
        <ele>345.5</ele>
        <time>2016-03-20T08:51:42Z</time>
      </trkpt>
      <trkpt lat="45.5939" lon="4.87597">
        <ele>345.7</ele>
        <time>2016-03-20T08:51:44Z</time>
      </trkpt>
      <trkpt lat="45.59386" lon="4.87589">
        <ele>346</ele>
        <time>2016-03-20T08:51:46Z</time>
      </trkpt>
      <trkpt lat="45.59383" lon="4.87578">
        <ele>346.5</ele>
        <time>2016-03-20T08:51:48Z</time>
      </trkpt>
      <trkpt lat="45.59379" lon="4.87565">
        <ele>347.1</ele>
        <time>2016-03-20T08:51:50Z</time>
      </trkpt>
      <trkpt lat="45.59375" lon="4.87551">
        <ele>347.2</ele>
        <time>2016-03-20T08:51:52Z</time>
      </trkpt>
      <trkpt lat="45.59371" lon="4.87537">
        <ele>347</ele>
        <time>2016-03-20T08:51:54Z</time>
      </trkpt>
      <trkpt lat="45.59367" lon="4.87524">
        <ele>347</ele>
        <time>2016-03-20T08:51:56Z</time>
      </trkpt>
      <trkpt lat="45.59365" lon="4.87511">
        <ele>347.4</ele>
        <time>2016-03-20T08:51:58Z</time>
      </trkpt>
      <trkpt lat="45.59363" lon="4.87498">
        <ele>347.9</ele>
        <time>2016-03-20T08:52:00Z</time>
      </trkpt>
      <trkpt lat="45.59363" lon="4.87485">
        <ele>348.5</ele>
        <time>2016-03-20T08:52:02Z</time>
      </trkpt>
      <trkpt lat="45.59365" lon="4.87471">
        <ele>348.8</ele>
        <time>2016-03-20T08:52:04Z</time>
      </trkpt>
      <trkpt lat="45.59367" lon="4.87457">
        <ele>349</ele>
        <time>2016-03-20T08:52:06Z</time>
      </trkpt>
      <trkpt lat="45.59369" lon="4.87444">
        <ele>349.1</ele>
        <time>2016-03-20T08:52:08Z</time>
      </trkpt>
      <trkpt lat="45.5937" lon="4.87432">
        <ele>349.5</ele>
        <time>2016-03-20T08:52:10Z</time>
      </trkpt>
      <trkpt lat="45.5937" lon="4.87421">
        <ele>349.7</ele>
        <time>2016-03-20T08:52:12Z</time>
      </trkpt>
      <trkpt lat="45.5937" lon="4.87412">
        <ele>350.5</ele>
        <time>2016-03-20T08:52:14Z</time>
      </trkpt>
      <trkpt lat="45.59368" lon="4.87403">
        <ele>351.2</ele>
        <time>2016-03-20T08:52:16Z</time>
      </trkpt>
      <trkpt lat="45.59364" lon="4.87395">
        <ele>352.2</ele>
        <time>2016-03-20T08:52:18Z</time>
      </trkpt>
      <trkpt lat="45.59357" lon="4.87387">
        <ele>353</ele>
        <time>2016-03-20T08:52:20Z</time>
      </trkpt>
      <trkpt lat="45.59349" lon="4.87379">
        <ele>353</ele>
        <time>2016-03-20T08:52:22Z</time>
      </trkpt>
      <trkpt lat="45.59342" lon="4.8737">
        <ele>352.4</ele>
        <time>2016-03-20T08:52:24Z</time>
      </trkpt>
      <trkpt lat="45.59335" lon="4.87359">
        <ele>352</ele>
        <time>2016-03-20T08:52:26Z</time>
      </trkpt>
      <trkpt lat="45.59329" lon="4.87345">
        <ele>352.2</ele>
        <time>2016-03-20T08:52:28Z</time>
      </trkpt>
      <trkpt lat="45.59324" lon="4.8733">
        <ele>352.5</ele>
        <time>2016-03-20T08:52:30Z</time>
      </trkpt>
      <trkpt lat="45.59319" lon="4.87316">
        <ele>352.9</ele>
        <time>2016-03-20T08:52:32Z</time>
      </trkpt>
      <trkpt lat="45.59315" lon="4.87303">
        <ele>353.3</ele>
        <time>2016-03-20T08:52:34Z</time>
      </trkpt>
      <trkpt lat="45.59311" lon="4.87291">
        <ele>353.5</ele>
        <time>2016-03-20T08:52:36Z</time>
      </trkpt>
      <trkpt lat="45.59306" lon="4.8728">
        <ele>353.4</ele>
        <time>2016-03-20T08:52:38Z</time>
      </trkpt>
      <trkpt lat="45.59301" lon="4.87271">
        <ele>353.2</ele>
        <time>2016-03-20T08:52:40Z</time>
      </trkpt>
      <trkpt lat="45.59295" lon="4.87262">
        <ele>352.6</ele>
        <time>2016-03-20T08:52:42Z</time>
      </trkpt>
      <trkpt lat="45.59288" lon="4.87254">
        <ele>352.3</ele>
        <time>2016-03-20T08:52:44Z</time>
      </trkpt>
      <trkpt lat="45.59283" lon="4.87244">
        <ele>352.2</ele>
        <time>2016-03-20T08:52:46Z</time>
      </trkpt>
      <trkpt lat="45.59278" lon="4.87234">
        <ele>352.4</ele>
        <time>2016-03-20T08:52:48Z</time>
      </trkpt>
      <trkpt lat="45.59275" lon="4.87224">
        <ele>352.5</ele>
        <time>2016-03-20T08:52:50Z</time>
      </trkpt>
      <trkpt lat="45.59272" lon="4.87214">
        <ele>352.3</ele>
        <time>2016-03-20T08:52:52Z</time>
      </trkpt>
      <trkpt lat="45.59269" lon="4.87204">
        <ele>352.3</ele>
        <time>2016-03-20T08:52:54Z</time>
      </trkpt>
      <trkpt lat="45.59268" lon="4.87195">
        <ele>352.3</ele>
        <time>2016-03-20T08:52:56Z</time>
      </trkpt>
      <trkpt lat="45.59272" lon="4.8719">
        <ele>352.2</ele>
        <time>2016-03-20T08:52:58Z</time>
      </trkpt>
      <trkpt lat="45.59276" lon="4.87186">
        <ele>352.5</ele>
        <time>2016-03-20T08:53:00Z</time>
      </trkpt>
      <trkpt lat="45.59281" lon="4.87185">
        <ele>352.8</ele>
        <time>2016-03-20T08:53:02Z</time>
      </trkpt>
      <trkpt lat="45.59287" lon="4.87184">
        <ele>353.3</ele>
        <time>2016-03-20T08:53:04Z</time>
      </trkpt>
      <trkpt lat="45.59292" lon="4.87183">
        <ele>353.8</ele>
        <time>2016-03-20T08:53:06Z</time>
      </trkpt>
      <trkpt lat="45.59297" lon="4.87183">
        <ele>354.2</ele>
        <time>2016-03-20T08:53:08Z</time>
      </trkpt>
      <trkpt lat="45.59303" lon="4.87182">
        <ele>354.7</ele>
        <time>2016-03-20T08:53:10Z</time>
      </trkpt>
      <trkpt lat="45.59309" lon="4.87179">
        <ele>355.1</ele>
        <time>2016-03-20T08:53:12Z</time>
      </trkpt>
      <trkpt lat="45.59313" lon="4.87174">
        <ele>355.3</ele>
        <time>2016-03-20T08:53:14Z</time>
      </trkpt>
      <trkpt lat="45.59316" lon="4.87168">
        <ele>355.3</ele>
        <time>2016-03-20T08:53:16Z</time>
      </trkpt>
      <trkpt lat="45.59318" lon="4.8716">
        <ele>355.3</ele>
        <time>2016-03-20T08:53:18Z</time>
      </trkpt>
      <trkpt lat="45.5932" lon="4.87153">
        <ele>355.2</ele>
        <time>2016-03-20T08:53:20Z</time>
      </trkpt>
      <trkpt lat="45.59322" lon="4.87145">
        <ele>354.9</ele>
        <time>2016-03-20T08:53:22Z</time>
      </trkpt>
      <trkpt lat="45.59325" lon="4.87138">
        <ele>354.7</ele>
        <time>2016-03-20T08:53:24Z</time>
      </trkpt>
      <trkpt lat="45.59327" lon="4.8713">
        <ele>354.3</ele>
        <time>2016-03-20T08:53:26Z</time>
      </trkpt>
      <trkpt lat="45.5933" lon="4.87123">
        <ele>353.8</ele>
        <time>2016-03-20T08:53:28Z</time>
      </trkpt>
      <trkpt lat="45.59332" lon="4.87116">
        <ele>353.4</ele>
        <time>2016-03-20T08:53:30Z</time>
      </trkpt>
      <trkpt lat="45.59334" lon="4.87108">
        <ele>353.1</ele>
        <time>2016-03-20T08:53:32Z</time>
      </trkpt>
      <trkpt lat="45.59336" lon="4.87099">
        <ele>352.7</ele>
        <time>2016-03-20T08:53:34Z</time>
      </trkpt>
      <trkpt lat="45.59338" lon="4.8709">
        <ele>352.2</ele>
        <time>2016-03-20T08:53:36Z</time>
      </trkpt>
      <trkpt lat="45.5934" lon="4.87078">
        <ele>351.9</ele>
        <time>2016-03-20T08:53:38Z</time>
      </trkpt>
      <trkpt lat="45.59342" lon="4.87064">
        <ele>351.3</ele>
        <time>2016-03-20T08:53:40Z</time>
      </trkpt>
      <trkpt lat="45.59345" lon="4.87047">
        <ele>351</ele>
        <time>2016-03-20T08:53:42Z</time>
      </trkpt>
      <trkpt lat="45.59347" lon="4.87027">
        <ele>350.8</ele>
        <time>2016-03-20T08:53:44Z</time>
      </trkpt>
      <trkpt lat="45.59349" lon="4.8701">
        <ele>350.6</ele>
        <time>2016-03-20T08:53:46Z</time>
      </trkpt>
      <trkpt lat="45.59355" lon="4.87001">
        <ele>350.7</ele>
        <time>2016-03-20T08:53:48Z</time>
      </trkpt>
      <trkpt lat="45.59364" lon="4.86996">
        <ele>350.8</ele>
        <time>2016-03-20T08:53:50Z</time>
      </trkpt>
      <trkpt lat="45.59376" lon="4.86992">
        <ele>350.4</ele>
        <time>2016-03-20T08:53:52Z</time>
      </trkpt>
      <trkpt lat="45.59386" lon="4.86988">
        <ele>349.3</ele>
        <time>2016-03-20T08:53:54Z</time>
      </trkpt>
      <trkpt lat="45.59395" lon="4.86982">
        <ele>348</ele>
        <time>2016-03-20T08:53:56Z</time>
      </trkpt>
      <trkpt lat="45.59406" lon="4.86973">
        <ele>346</ele>
        <time>2016-03-20T08:53:58Z</time>
      </trkpt>
      <trkpt lat="45.59417" lon="4.86967">
        <ele>343.9</ele>
        <time>2016-03-20T08:54:00Z</time>
      </trkpt>
      <trkpt lat="45.59424" lon="4.86964">
        <ele>343.1</ele>
        <time>2016-03-20T08:54:02Z</time>
      </trkpt>
      <trkpt lat="45.59432" lon="4.86963">
        <ele>342.3</ele>
        <time>2016-03-20T08:54:04Z</time>
      </trkpt>
      <trkpt lat="45.59441" lon="4.86962">
        <ele>341.7</ele>
        <time>2016-03-20T08:54:06Z</time>
      </trkpt>
      <trkpt lat="45.59451" lon="4.86962">
        <ele>341</ele>
        <time>2016-03-20T08:54:08Z</time>
      </trkpt>
      <trkpt lat="45.5946" lon="4.8696">
        <ele>339.7</ele>
        <time>2016-03-20T08:54:10Z</time>
      </trkpt>
      <trkpt lat="45.59469" lon="4.86952">
        <ele>338.2</ele>
        <time>2016-03-20T08:54:12Z</time>
      </trkpt>
      <trkpt lat="45.59478" lon="4.86943">
        <ele>336.7</ele>
        <time>2016-03-20T08:54:14Z</time>
      </trkpt>
      <trkpt lat="45.59486" lon="4.86935">
        <ele>336.6</ele>
        <time>2016-03-20T08:54:16Z</time>
      </trkpt>
      <trkpt lat="45.59493" lon="4.86926">
        <ele>335.4</ele>
        <time>2016-03-20T08:54:18Z</time>
      </trkpt>
      <trkpt lat="45.59502" lon="4.86913">
        <ele>332.5</ele>
        <time>2016-03-20T08:54:20Z</time>
      </trkpt>
      <trkpt lat="45.59507" lon="4.86901">
        <ele>331.6</ele>
        <time>2016-03-20T08:54:22Z</time>
      </trkpt>
      <trkpt lat="45.59512" lon="4.86885">
        <ele>329.9</ele>
        <time>2016-03-20T08:54:24Z</time>
      </trkpt>
      <trkpt lat="45.59513" lon="4.86871">
        <ele>326.8</ele>
        <time>2016-03-20T08:54:26Z</time>
      </trkpt>
      <trkpt lat="45.59513" lon="4.86863">
        <ele>325</ele>
        <time>2016-03-20T08:54:28Z</time>
      </trkpt>
      <trkpt lat="45.59517" lon="4.86865">
        <ele>324.6</ele>
        <time>2016-03-20T08:54:30Z</time>
      </trkpt>
      <trkpt lat="45.59522" lon="4.86872">
        <ele>323.9</ele>
        <time>2016-03-20T08:54:32Z</time>
      </trkpt>
      <trkpt lat="45.59531" lon="4.8688">
        <ele>323.3</ele>
        <time>2016-03-20T08:54:34Z</time>
      </trkpt>
      <trkpt lat="45.59545" lon="4.86886">
        <ele>323.1</ele>
        <time>2016-03-20T08:54:36Z</time>
      </trkpt>
      <trkpt lat="45.59555" lon="4.86888">
        <ele>324.5</ele>
        <time>2016-03-20T08:54:38Z</time>
      </trkpt>
      <trkpt lat="45.59562" lon="4.86883">
        <ele>325</ele>
        <time>2016-03-20T08:54:40Z</time>
      </trkpt>
      <trkpt lat="45.59563" lon="4.86874">
        <ele>324.8</ele>
        <time>2016-03-20T08:54:42Z</time>
      </trkpt>
      <trkpt lat="45.59561" lon="4.86863">
        <ele>324</ele>
        <time>2016-03-20T08:54:44Z</time>
      </trkpt>
      <trkpt lat="45.5956" lon="4.86849">
        <ele>322.9</ele>
        <time>2016-03-20T08:54:46Z</time>
      </trkpt>
      <trkpt lat="45.59557" lon="4.86833">
        <ele>322.1</ele>
        <time>2016-03-20T08:54:48Z</time>
      </trkpt>
      <trkpt lat="45.59555" lon="4.86818">
        <ele>321.5</ele>
        <time>2016-03-20T08:54:50Z</time>
      </trkpt>
      <trkpt lat="45.59552" lon="4.86801">
        <ele>321</ele>
        <time>2016-03-20T08:54:52Z</time>
      </trkpt>
      <trkpt lat="45.59549" lon="4.86787">
        <ele>320.7</ele>
        <time>2016-03-20T08:54:54Z</time>
      </trkpt>
      <trkpt lat="45.59547" lon="4.86773">
        <ele>320.2</ele>
        <time>2016-03-20T08:54:56Z</time>
      </trkpt>
      <trkpt lat="45.59544" lon="4.8676">
        <ele>319.7</ele>
        <time>2016-03-20T08:54:58Z</time>
      </trkpt>
      <trkpt lat="45.59544" lon="4.86746">
        <ele>318.9</ele>
        <time>2016-03-20T08:55:00Z</time>
      </trkpt>
      <trkpt lat="45.59543" lon="4.86731">
        <ele>317.3</ele>
        <time>2016-03-20T08:55:02Z</time>
      </trkpt>
      <trkpt lat="45.59539" lon="4.86716">
        <ele>315.4</ele>
        <time>2016-03-20T08:55:04Z</time>
      </trkpt>
      <trkpt lat="45.59536" lon="4.86706">
        <ele>313.8</ele>
        <time>2016-03-20T08:55:06Z</time>
      </trkpt>
      <trkpt lat="45.59534" lon="4.86695">
        <ele>312.9</ele>
        <time>2016-03-20T08:55:08Z</time>
      </trkpt>
      <trkpt lat="45.59532" lon="4.86684">
        <ele>312.2</ele>
        <time>2016-03-20T08:55:10Z</time>
      </trkpt>
      <trkpt lat="45.59531" lon="4.86675">
        <ele>312</ele>
        <time>2016-03-20T08:55:12Z</time>
      </trkpt>
      <trkpt lat="45.5953" lon="4.86667">
        <ele>312.3</ele>
        <time>2016-03-20T08:55:14Z</time>
      </trkpt>
      <trkpt lat="45.59529" lon="4.86659">
        <ele>312.6</ele>
        <time>2016-03-20T08:55:16Z</time>
      </trkpt>
      <trkpt lat="45.59528" lon="4.86651">
        <ele>312.3</ele>
        <time>2016-03-20T08:55:18Z</time>
      </trkpt>
      <trkpt lat="45.59526" lon="4.86643">
        <ele>312.2</ele>
        <time>2016-03-20T08:55:20Z</time>
      </trkpt>
      <trkpt lat="45.59522" lon="4.86635">
        <ele>311.8</ele>
        <time>2016-03-20T08:55:22Z</time>
      </trkpt>
      <trkpt lat="45.59518" lon="4.86626">
        <ele>311.6</ele>
        <time>2016-03-20T08:55:24Z</time>
      </trkpt>
      <trkpt lat="45.59514" lon="4.86616">
        <ele>311.6</ele>
        <time>2016-03-20T08:55:26Z</time>
      </trkpt>
      <trkpt lat="45.59511" lon="4.86604">
        <ele>311.1</ele>
        <time>2016-03-20T08:55:28Z</time>
      </trkpt>
      <trkpt lat="45.59504" lon="4.86592">
        <ele>311</ele>
        <time>2016-03-20T08:55:30Z</time>
      </trkpt>
      <trkpt lat="45.59497" lon="4.86577">
        <ele>310.8</ele>
        <time>2016-03-20T08:55:32Z</time>
      </trkpt>
      <trkpt lat="45.59489" lon="4.86563">
        <ele>309.4</ele>
        <time>2016-03-20T08:55:34Z</time>
      </trkpt>
      <trkpt lat="45.5948" lon="4.86552">
        <ele>308.5</ele>
        <time>2016-03-20T08:55:36Z</time>
      </trkpt>
      <trkpt lat="45.59472" lon="4.86541">
        <ele>307.5</ele>
        <time>2016-03-20T08:55:38Z</time>
      </trkpt>
      <trkpt lat="45.59462" lon="4.86532">
        <ele>307.3</ele>
        <time>2016-03-20T08:55:40Z</time>
      </trkpt>
      <trkpt lat="45.59449" lon="4.86524">
        <ele>306.4</ele>
        <time>2016-03-20T08:55:42Z</time>
      </trkpt>
      <trkpt lat="45.59436" lon="4.86514">
        <ele>304.2</ele>
        <time>2016-03-20T08:55:44Z</time>
      </trkpt>
      <trkpt lat="45.59426" lon="4.86501">
        <ele>301.3</ele>
        <time>2016-03-20T08:55:46Z</time>
      </trkpt>
      <trkpt lat="45.59417" lon="4.86494">
        <ele>298.6</ele>
        <time>2016-03-20T08:55:48Z</time>
      </trkpt>
      <trkpt lat="45.59414" lon="4.86488">
        <ele>297.4</ele>
        <time>2016-03-20T08:55:50Z</time>
      </trkpt>
      <trkpt lat="45.59411" lon="4.86481">
        <ele>296.3</ele>
        <time>2016-03-20T08:55:52Z</time>
      </trkpt>
      <trkpt lat="45.59405" lon="4.86474">
        <ele>294.8</ele>
        <time>2016-03-20T08:55:54Z</time>
      </trkpt>
      <trkpt lat="45.594" lon="4.86466">
        <ele>292.9</ele>
        <time>2016-03-20T08:55:56Z</time>
      </trkpt>
      <trkpt lat="45.594" lon="4.86459">
        <ele>292.3</ele>
        <time>2016-03-20T08:55:58Z</time>
      </trkpt>
      <trkpt lat="45.59401" lon="4.86453">
        <ele>292.5</ele>
        <time>2016-03-20T08:56:00Z</time>
      </trkpt>
      <trkpt lat="45.59404" lon="4.86449">
        <ele>292.7</ele>
        <time>2016-03-20T08:56:02Z</time>
      </trkpt>
      <trkpt lat="45.59406" lon="4.86447">
        <ele>292.8</ele>
        <time>2016-03-20T08:56:04Z</time>
      </trkpt>
      <trkpt lat="45.59408" lon="4.86445">
        <ele>293</ele>
        <time>2016-03-20T08:56:06Z</time>
      </trkpt>
      <trkpt lat="45.5941" lon="4.86442">
        <ele>293.5</ele>
        <time>2016-03-20T08:56:08Z</time>
      </trkpt>
      <trkpt lat="45.59411" lon="4.8644">
        <ele>293.8</ele>
        <time>2016-03-20T08:56:10Z</time>
      </trkpt>
      <trkpt lat="45.59412" lon="4.8644">
        <ele>294</ele>
        <time>2016-03-20T08:56:12Z</time>
      </trkpt>
      <trkpt lat="45.59412" lon="4.86437">
        <ele>294.4</ele>
        <time>2016-03-20T08:56:20Z</time>
      </trkpt>
      <trkpt lat="45.59412" lon="4.86435">
        <ele>294.7</ele>
        <time>2016-03-20T08:56:22Z</time>
      </trkpt>
      <trkpt lat="45.59414" lon="4.86433">
        <ele>295.2</ele>
        <time>2016-03-20T08:56:24Z</time>
      </trkpt>
      <trkpt lat="45.59415" lon="4.86432">
        <ele>295.7</ele>
        <time>2016-03-20T08:56:26Z</time>
      </trkpt>
      <trkpt lat="45.59416" lon="4.86431">
        <ele>296</ele>
        <time>2016-03-20T08:56:28Z</time>
      </trkpt>
      <trkpt lat="45.59417" lon="4.86431">
        <ele>296.4</ele>
        <time>2016-03-20T08:56:30Z</time>
      </trkpt>
      <trkpt lat="45.59419" lon="4.8643">
        <ele>296.7</ele>
        <time>2016-03-20T08:56:32Z</time>
      </trkpt>
      <trkpt lat="45.5942" lon="4.8643">
        <ele>297.2</ele>
        <time>2016-03-20T08:56:34Z</time>
      </trkpt>
      <trkpt lat="45.59421" lon="4.86429">
        <ele>297.7</ele>
        <time>2016-03-20T08:56:36Z</time>
      </trkpt>
      <trkpt lat="45.59423" lon="4.86428">
        <ele>298.3</ele>
        <time>2016-03-20T08:56:38Z</time>
      </trkpt>
      <trkpt lat="45.59424" lon="4.86428">
        <ele>298.8</ele>
        <time>2016-03-20T08:56:40Z</time>
      </trkpt>
      <trkpt lat="45.59426" lon="4.86426">
        <ele>299.7</ele>
        <time>2016-03-20T08:56:42Z</time>
      </trkpt>
      <trkpt lat="45.59429" lon="4.86425">
        <ele>300.6</ele>
        <time>2016-03-20T08:56:50Z</time>
      </trkpt>
      <trkpt lat="45.59431" lon="4.86425">
        <ele>301.3</ele>
        <time>2016-03-20T08:56:52Z</time>
      </trkpt>
      <trkpt lat="45.59433" lon="4.86424">
        <ele>301.9</ele>
        <time>2016-03-20T08:56:54Z</time>
      </trkpt>
      <trkpt lat="45.59435" lon="4.86423">
        <ele>302.3</ele>
        <time>2016-03-20T08:56:56Z</time>
      </trkpt>
      <trkpt lat="45.59436" lon="4.86423">
        <ele>302.7</ele>
        <time>2016-03-20T08:56:58Z</time>
      </trkpt>
      <trkpt lat="45.59438" lon="4.86422">
        <ele>303.3</ele>
        <time>2016-03-20T08:57:02Z</time>
      </trkpt>
      <trkpt lat="45.59441" lon="4.86421">
        <ele>304.2</ele>
        <time>2016-03-20T08:57:06Z</time>
      </trkpt>
      <trkpt lat="45.59443" lon="4.86421">
        <ele>304.7</ele>
        <time>2016-03-20T08:57:08Z</time>
      </trkpt>
      <trkpt lat="45.59444" lon="4.8642">
        <ele>305.4</ele>
        <time>2016-03-20T08:57:10Z</time>
      </trkpt>
      <trkpt lat="45.59446" lon="4.86419">
        <ele>306.1</ele>
        <time>2016-03-20T08:57:12Z</time>
      </trkpt>
      <trkpt lat="45.59449" lon="4.86418">
        <ele>306.8</ele>
        <time>2016-03-20T08:57:14Z</time>
      </trkpt>
      <trkpt lat="45.59453" lon="4.86419">
        <ele>308.2</ele>
        <time>2016-03-20T08:57:20Z</time>
      </trkpt>
      <trkpt lat="45.59454" lon="4.86419">
        <ele>308.3</ele>
        <time>2016-03-20T08:57:22Z</time>
      </trkpt>
      <trkpt lat="45.59456" lon="4.86419">
        <ele>308.9</ele>
        <time>2016-03-20T08:57:24Z</time>
      </trkpt>
      <trkpt lat="45.59458" lon="4.8642">
        <ele>309.2</ele>
        <time>2016-03-20T08:57:26Z</time>
      </trkpt>
      <trkpt lat="45.59459" lon="4.86423">
        <ele>309.6</ele>
        <time>2016-03-20T08:57:28Z</time>
      </trkpt>
      <trkpt lat="45.59461" lon="4.86426">
        <ele>310.4</ele>
        <time>2016-03-20T08:57:30Z</time>
      </trkpt>
      <trkpt lat="45.59463" lon="4.86428">
        <ele>310.9</ele>
        <time>2016-03-20T08:57:32Z</time>
      </trkpt>
      <trkpt lat="45.59465" lon="4.86431">
        <ele>311.6</ele>
        <time>2016-03-20T08:57:34Z</time>
      </trkpt>
      <trkpt lat="45.59468" lon="4.86432">
        <ele>312.1</ele>
        <time>2016-03-20T08:57:36Z</time>
      </trkpt>
      <trkpt lat="45.59472" lon="4.86434">
        <ele>312.7</ele>
        <time>2016-03-20T08:57:38Z</time>
      </trkpt>
      <trkpt lat="45.59475" lon="4.86437">
        <ele>313</ele>
        <time>2016-03-20T08:57:40Z</time>
      </trkpt>
      <trkpt lat="45.59478" lon="4.86441">
        <ele>313.4</ele>
        <time>2016-03-20T08:57:42Z</time>
      </trkpt>
      <trkpt lat="45.59482" lon="4.86447">
        <ele>313.9</ele>
        <time>2016-03-20T08:57:44Z</time>
      </trkpt>
      <trkpt lat="45.59488" lon="4.86453">
        <ele>314.7</ele>
        <time>2016-03-20T08:57:46Z</time>
      </trkpt>
      <trkpt lat="45.59492" lon="4.86457">
        <ele>315.1</ele>
        <time>2016-03-20T08:57:48Z</time>
      </trkpt>
      <trkpt lat="45.59497" lon="4.86461">
        <ele>315.6</ele>
        <time>2016-03-20T08:57:50Z</time>
      </trkpt>
      <trkpt lat="45.59501" lon="4.86464">
        <ele>315.9</ele>
        <time>2016-03-20T08:57:52Z</time>
      </trkpt>
      <trkpt lat="45.59504" lon="4.86466">
        <ele>316.1</ele>
        <time>2016-03-20T08:57:54Z</time>
      </trkpt>
      <trkpt lat="45.59507" lon="4.86467">
        <ele>316.3</ele>
        <time>2016-03-20T08:57:56Z</time>
      </trkpt>
      <trkpt lat="45.5951" lon="4.86469">
        <ele>316.4</ele>
        <time>2016-03-20T08:57:58Z</time>
      </trkpt>
      <trkpt lat="45.59514" lon="4.86472">
        <ele>316.6</ele>
        <time>2016-03-20T08:58:00Z</time>
      </trkpt>
      <trkpt lat="45.59517" lon="4.86476">
        <ele>316.8</ele>
        <time>2016-03-20T08:58:02Z</time>
      </trkpt>
      <trkpt lat="45.59521" lon="4.86481">
        <ele>316.8</ele>
        <time>2016-03-20T08:58:04Z</time>
      </trkpt>
      <trkpt lat="45.59523" lon="4.86487">
        <ele>316.8</ele>
        <time>2016-03-20T08:58:06Z</time>
      </trkpt>
      <trkpt lat="45.59527" lon="4.86493">
        <ele>316.9</ele>
        <time>2016-03-20T08:58:08Z</time>
      </trkpt>
      <trkpt lat="45.59531" lon="4.86499">
        <ele>317.2</ele>
        <time>2016-03-20T08:58:10Z</time>
      </trkpt>
      <trkpt lat="45.59535" lon="4.86505">
        <ele>317.2</ele>
        <time>2016-03-20T08:58:12Z</time>
      </trkpt>
      <trkpt lat="45.59541" lon="4.86512">
        <ele>316.3</ele>
        <time>2016-03-20T08:58:14Z</time>
      </trkpt>
      <trkpt lat="45.59546" lon="4.86521">
        <ele>315.3</ele>
        <time>2016-03-20T08:58:16Z</time>
      </trkpt>
      <trkpt lat="45.59551" lon="4.8653">
        <ele>314.3</ele>
        <time>2016-03-20T08:58:18Z</time>
      </trkpt>
      <trkpt lat="45.59554" lon="4.86538">
        <ele>314.6</ele>
        <time>2016-03-20T08:58:20Z</time>
      </trkpt>
      <trkpt lat="45.59558" lon="4.86546">
        <ele>314.2</ele>
        <time>2016-03-20T08:58:22Z</time>
      </trkpt>
      <trkpt lat="45.59561" lon="4.86553">
        <ele>313.8</ele>
        <time>2016-03-20T08:58:24Z</time>
      </trkpt>
      <trkpt lat="45.59565" lon="4.86562">
        <ele>314.3</ele>
        <time>2016-03-20T08:58:26Z</time>
      </trkpt>
      <trkpt lat="45.59568" lon="4.86568">
        <ele>315</ele>
        <time>2016-03-20T08:58:28Z</time>
      </trkpt>
      <trkpt lat="45.59572" lon="4.86574">
        <ele>315.5</ele>
        <time>2016-03-20T08:58:30Z</time>
      </trkpt>
      <trkpt lat="45.59576" lon="4.86581">
        <ele>315.7</ele>
        <time>2016-03-20T08:58:32Z</time>
      </trkpt>
      <trkpt lat="45.5958" lon="4.86588">
        <ele>316.4</ele>
        <time>2016-03-20T08:58:34Z</time>
      </trkpt>
      <trkpt lat="45.59583" lon="4.86596">
        <ele>316.6</ele>
        <time>2016-03-20T08:58:36Z</time>
      </trkpt>
      <trkpt lat="45.59588" lon="4.86601">
        <ele>316.9</ele>
        <time>2016-03-20T08:58:38Z</time>
      </trkpt>
      <trkpt lat="45.5959" lon="4.86603">
        <ele>317.1</ele>
        <time>2016-03-20T08:58:40Z</time>
      </trkpt>
      <trkpt lat="45.59592" lon="4.86604">
        <ele>317.2</ele>
        <time>2016-03-20T08:58:42Z</time>
      </trkpt>
      <trkpt lat="45.59594" lon="4.86603">
        <ele>317.3</ele>
        <time>2016-03-20T08:58:44Z</time>
      </trkpt>
      <trkpt lat="45.59596" lon="4.86603">
        <ele>317.4</ele>
        <time>2016-03-20T08:58:46Z</time>
      </trkpt>
      <trkpt lat="45.59597" lon="4.86604">
        <ele>317.5</ele>
        <time>2016-03-20T08:58:48Z</time>
      </trkpt>
      <trkpt lat="45.59599" lon="4.86604">
        <ele>317.5</ele>
        <time>2016-03-20T08:58:50Z</time>
      </trkpt>
      <trkpt lat="45.596" lon="4.86604">
        <ele>317.5</ele>
        <time>2016-03-20T08:58:52Z</time>
      </trkpt>
      <trkpt lat="45.59603" lon="4.86606">
        <ele>317.6</ele>
        <time>2016-03-20T08:58:56Z</time>
      </trkpt>
      <trkpt lat="45.59604" lon="4.86606">
        <ele>317.8</ele>
        <time>2016-03-20T08:58:58Z</time>
      </trkpt>
      <trkpt lat="45.59607" lon="4.86604">
        <ele>318.3</ele>
        <time>2016-03-20T08:59:04Z</time>
      </trkpt>
      <trkpt lat="45.59609" lon="4.86603">
        <ele>318.7</ele>
        <time>2016-03-20T08:59:06Z</time>
      </trkpt>
      <trkpt lat="45.5961" lon="4.86601">
        <ele>319.1</ele>
        <time>2016-03-20T08:59:10Z</time>
      </trkpt>
      <trkpt lat="45.59613" lon="4.86601">
        <ele>319.6</ele>
        <time>2016-03-20T08:59:14Z</time>
      </trkpt>
      <trkpt lat="45.59614" lon="4.86601">
        <ele>319.9</ele>
        <time>2016-03-20T08:59:16Z</time>
      </trkpt>
      <trkpt lat="45.59615" lon="4.86601">
        <ele>320.2</ele>
        <time>2016-03-20T08:59:18Z</time>
      </trkpt>
      <trkpt lat="45.59618" lon="4.86603">
        <ele>320.7</ele>
        <time>2016-03-20T08:59:24Z</time>
      </trkpt>
      <trkpt lat="45.59623" lon="4.86606">
        <ele>321.3</ele>
        <time>2016-03-20T08:59:30Z</time>
      </trkpt>
      <trkpt lat="45.59625" lon="4.86606">
        <ele>321.6</ele>
        <time>2016-03-20T08:59:32Z</time>
      </trkpt>
      <trkpt lat="45.59626" lon="4.86607">
        <ele>322.1</ele>
        <time>2016-03-20T08:59:34Z</time>
      </trkpt>
      <trkpt lat="45.59628" lon="4.86609">
        <ele>322.6</ele>
        <time>2016-03-20T08:59:36Z</time>
      </trkpt>
      <trkpt lat="45.59631" lon="4.86611">
        <ele>323.2</ele>
        <time>2016-03-20T08:59:38Z</time>
      </trkpt>
      <trkpt lat="45.59634" lon="4.86616">
        <ele>322.6</ele>
        <time>2016-03-20T08:59:40Z</time>
      </trkpt>
      <trkpt lat="45.59637" lon="4.86624">
        <ele>321.7</ele>
        <time>2016-03-20T08:59:42Z</time>
      </trkpt>
      <trkpt lat="45.59641" lon="4.86637">
        <ele>322</ele>
        <time>2016-03-20T08:59:44Z</time>
      </trkpt>
      <trkpt lat="45.59641" lon="4.86651">
        <ele>321.8</ele>
        <time>2016-03-20T08:59:46Z</time>
      </trkpt>
      <trkpt lat="45.59641" lon="4.8666">
        <ele>321.5</ele>
        <time>2016-03-20T08:59:48Z</time>
      </trkpt>
      <trkpt lat="45.59641" lon="4.86668">
        <ele>321.7</ele>
        <time>2016-03-20T08:59:50Z</time>
      </trkpt>
      <trkpt lat="45.59641" lon="4.86674">
        <ele>321.6</ele>
        <time>2016-03-20T08:59:52Z</time>
      </trkpt>
      <trkpt lat="45.59641" lon="4.86679">
        <ele>321.4</ele>
        <time>2016-03-20T08:59:54Z</time>
      </trkpt>
      <trkpt lat="45.59641" lon="4.86686">
        <ele>321.3</ele>
        <time>2016-03-20T08:59:56Z</time>
      </trkpt>
      <trkpt lat="45.59641" lon="4.86691">
        <ele>321.2</ele>
        <time>2016-03-20T08:59:58Z</time>
      </trkpt>
      <trkpt lat="45.59641" lon="4.86695">
        <ele>321.1</ele>
        <time>2016-03-20T09:00:00Z</time>
      </trkpt>
      <trkpt lat="45.5964" lon="4.86699">
        <ele>321.2</ele>
        <time>2016-03-20T09:00:02Z</time>
      </trkpt>
      <trkpt lat="45.59639" lon="4.86705">
        <ele>321.2</ele>
        <time>2016-03-20T09:00:04Z</time>
      </trkpt>
      <trkpt lat="45.59639" lon="4.86709">
        <ele>321.3</ele>
        <time>2016-03-20T09:00:06Z</time>
      </trkpt>
      <trkpt lat="45.59637" lon="4.86717">
        <ele>321.5</ele>
        <time>2016-03-20T09:00:08Z</time>
      </trkpt>
      <trkpt lat="45.59636" lon="4.86724">
        <ele>321.5</ele>
        <time>2016-03-20T09:00:10Z</time>
      </trkpt>
      <trkpt lat="45.59635" lon="4.86729">
        <ele>321.6</ele>
        <time>2016-03-20T09:00:12Z</time>
      </trkpt>
      <trkpt lat="45.59634" lon="4.86734">
        <ele>321.6</ele>
        <time>2016-03-20T09:00:14Z</time>
      </trkpt>
      <trkpt lat="45.59634" lon="4.86738">
        <ele>321.7</ele>
        <time>2016-03-20T09:00:16Z</time>
      </trkpt>
      <trkpt lat="45.59634" lon="4.86743">
        <ele>321.8</ele>
        <time>2016-03-20T09:00:18Z</time>
      </trkpt>
      <trkpt lat="45.59634" lon="4.86747">
        <ele>321.9</ele>
        <time>2016-03-20T09:00:20Z</time>
      </trkpt>
      <trkpt lat="45.59634" lon="4.86751">
        <ele>322.1</ele>
        <time>2016-03-20T09:00:22Z</time>
      </trkpt>
      <trkpt lat="45.59634" lon="4.86755">
        <ele>322.3</ele>
        <time>2016-03-20T09:00:24Z</time>
      </trkpt>
      <trkpt lat="45.59635" lon="4.86759">
        <ele>322.6</ele>
        <time>2016-03-20T09:00:26Z</time>
      </trkpt>
      <trkpt lat="45.59636" lon="4.86763">
        <ele>323.1</ele>
        <time>2016-03-20T09:00:28Z</time>
      </trkpt>
      <trkpt lat="45.59637" lon="4.86768">
        <ele>323.6</ele>
        <time>2016-03-20T09:00:30Z</time>
      </trkpt>
      <trkpt lat="45.59638" lon="4.86772">
        <ele>324</ele>
        <time>2016-03-20T09:00:32Z</time>
      </trkpt>
      <trkpt lat="45.59639" lon="4.86777">
        <ele>324.4</ele>
        <time>2016-03-20T09:00:34Z</time>
      </trkpt>
      <trkpt lat="45.5964" lon="4.86783">
        <ele>324.9</ele>
        <time>2016-03-20T09:00:36Z</time>
      </trkpt>
      <trkpt lat="45.59641" lon="4.86788">
        <ele>325.2</ele>
        <time>2016-03-20T09:00:38Z</time>
      </trkpt>
      <trkpt lat="45.59641" lon="4.86794">
        <ele>325.6</ele>
        <time>2016-03-20T09:00:40Z</time>
      </trkpt>
      <trkpt lat="45.59641" lon="4.86799">
        <ele>325.8</ele>
        <time>2016-03-20T09:00:42Z</time>
      </trkpt>
      <trkpt lat="45.59643" lon="4.86805">
        <ele>325.9</ele>
        <time>2016-03-20T09:00:44Z</time>
      </trkpt>
      <trkpt lat="45.59644" lon="4.8681">
        <ele>326.1</ele>
        <time>2016-03-20T09:00:46Z</time>
      </trkpt>
      <trkpt lat="45.59646" lon="4.86815">
        <ele>326.2</ele>
        <time>2016-03-20T09:00:48Z</time>
      </trkpt>
      <trkpt lat="45.59646" lon="4.86821">
        <ele>326.4</ele>
        <time>2016-03-20T09:00:50Z</time>
      </trkpt>
      <trkpt lat="45.59646" lon="4.86827">
        <ele>327</ele>
        <time>2016-03-20T09:00:52Z</time>
      </trkpt>
      <trkpt lat="45.59646" lon="4.86834">
        <ele>327.6</ele>
        <time>2016-03-20T09:00:54Z</time>
      </trkpt>
      <trkpt lat="45.59648" lon="4.8684">
        <ele>327.5</ele>
        <time>2016-03-20T09:00:56Z</time>
      </trkpt>
      <trkpt lat="45.5965" lon="4.86847">
        <ele>327.4</ele>
        <time>2016-03-20T09:00:58Z</time>
      </trkpt>
      <trkpt lat="45.59651" lon="4.86857">
        <ele>327.1</ele>
        <time>2016-03-20T09:01:00Z</time>
      </trkpt>
      <trkpt lat="45.59651" lon="4.8687">
        <ele>326.4</ele>
        <time>2016-03-20T09:01:02Z</time>
      </trkpt>
      <trkpt lat="45.59651" lon="4.86884">
        <ele>325.6</ele>
        <time>2016-03-20T09:01:04Z</time>
      </trkpt>
      <trkpt lat="45.59652" lon="4.86897">
        <ele>324.9</ele>
        <time>2016-03-20T09:01:06Z</time>
      </trkpt>
      <trkpt lat="45.59652" lon="4.86909">
        <ele>324.2</ele>
        <time>2016-03-20T09:01:08Z</time>
      </trkpt>
      <trkpt lat="45.59651" lon="4.8692">
        <ele>323.2</ele>
        <time>2016-03-20T09:01:10Z</time>
      </trkpt>
      <trkpt lat="45.59652" lon="4.86927">
        <ele>322.5</ele>
        <time>2016-03-20T09:01:12Z</time>
      </trkpt>
      <trkpt lat="45.59654" lon="4.86932">
        <ele>322</ele>
        <time>2016-03-20T09:01:14Z</time>
      </trkpt>
      <trkpt lat="45.59656" lon="4.86936">
        <ele>321.4</ele>
        <time>2016-03-20T09:01:16Z</time>
      </trkpt>
      <trkpt lat="45.59657" lon="4.8694">
        <ele>320.9</ele>
        <time>2016-03-20T09:01:18Z</time>
      </trkpt>
      <trkpt lat="45.59659" lon="4.86944">
        <ele>322.8</ele>
        <time>2016-03-20T09:01:20Z</time>
      </trkpt>
      <trkpt lat="45.59662" lon="4.86947">
        <ele>323.5</ele>
        <time>2016-03-20T09:01:22Z</time>
      </trkpt>
      <trkpt lat="45.59664" lon="4.8695">
        <ele>324</ele>
        <time>2016-03-20T09:01:24Z</time>
      </trkpt>
      <trkpt lat="45.59666" lon="4.86953">
        <ele>324.6</ele>
        <time>2016-03-20T09:01:26Z</time>
      </trkpt>
      <trkpt lat="45.59668" lon="4.86957">
        <ele>325.2</ele>
        <time>2016-03-20T09:01:28Z</time>
      </trkpt>
      <trkpt lat="45.59669" lon="4.86962">
        <ele>325.8</ele>
        <time>2016-03-20T09:01:30Z</time>
      </trkpt>
      <trkpt lat="45.59671" lon="4.86966">
        <ele>326.4</ele>
        <time>2016-03-20T09:01:32Z</time>
      </trkpt>
      <trkpt lat="45.59672" lon="4.86969">
        <ele>327</ele>
        <time>2016-03-20T09:01:34Z</time>
      </trkpt>
      <trkpt lat="45.59673" lon="4.86972">
        <ele>327.5</ele>
        <time>2016-03-20T09:01:36Z</time>
      </trkpt>
      <trkpt lat="45.59675" lon="4.86976">
        <ele>328.1</ele>
        <time>2016-03-20T09:01:38Z</time>
      </trkpt>
      <trkpt lat="45.59676" lon="4.8698">
        <ele>328.7</ele>
        <time>2016-03-20T09:01:40Z</time>
      </trkpt>
      <trkpt lat="45.59678" lon="4.86983">
        <ele>329.3</ele>
        <time>2016-03-20T09:01:42Z</time>
      </trkpt>
      <trkpt lat="45.59681" lon="4.86986">
        <ele>329.9</ele>
        <time>2016-03-20T09:01:44Z</time>
      </trkpt>
      <trkpt lat="45.59683" lon="4.86989">
        <ele>330.6</ele>
        <time>2016-03-20T09:01:46Z</time>
      </trkpt>
      <trkpt lat="45.59685" lon="4.86991">
        <ele>331.2</ele>
        <time>2016-03-20T09:01:48Z</time>
      </trkpt>
      <trkpt lat="45.59686" lon="4.86994">
        <ele>331.7</ele>
        <time>2016-03-20T09:01:50Z</time>
      </trkpt>
      <trkpt lat="45.59687" lon="4.86997">
        <ele>332.3</ele>
        <time>2016-03-20T09:01:52Z</time>
      </trkpt>
      <trkpt lat="45.5969" lon="4.87">
        <ele>332.8</ele>
        <time>2016-03-20T09:01:54Z</time>
      </trkpt>
      <trkpt lat="45.59692" lon="4.87002">
        <ele>333.4</ele>
        <time>2016-03-20T09:01:56Z</time>
      </trkpt>
      <trkpt lat="45.59693" lon="4.87005">
        <ele>334</ele>
        <time>2016-03-20T09:01:58Z</time>
      </trkpt>
      <trkpt lat="45.59695" lon="4.87008">
        <ele>334.8</ele>
        <time>2016-03-20T09:02:00Z</time>
      </trkpt>
      <trkpt lat="45.59697" lon="4.8701">
        <ele>335.4</ele>
        <time>2016-03-20T09:02:02Z</time>
      </trkpt>
      <trkpt lat="45.597" lon="4.87012">
        <ele>336.2</ele>
        <time>2016-03-20T09:02:04Z</time>
      </trkpt>
      <trkpt lat="45.59701" lon="4.87015">
        <ele>336.7</ele>
        <time>2016-03-20T09:02:06Z</time>
      </trkpt>
      <trkpt lat="45.59703" lon="4.87018">
        <ele>337.4</ele>
        <time>2016-03-20T09:02:08Z</time>
      </trkpt>
      <trkpt lat="45.59706" lon="4.87021">
        <ele>338</ele>
        <time>2016-03-20T09:02:10Z</time>
      </trkpt>
      <trkpt lat="45.59708" lon="4.87023">
        <ele>338.4</ele>
        <time>2016-03-20T09:02:12Z</time>
      </trkpt>
      <trkpt lat="45.5971" lon="4.87025">
        <ele>338.9</ele>
        <time>2016-03-20T09:02:14Z</time>
      </trkpt>
      <trkpt lat="45.59713" lon="4.87028">
        <ele>339.3</ele>
        <time>2016-03-20T09:02:16Z</time>
      </trkpt>
      <trkpt lat="45.59715" lon="4.8703">
        <ele>339.9</ele>
        <time>2016-03-20T09:02:18Z</time>
      </trkpt>
      <trkpt lat="45.59717" lon="4.87032">
        <ele>340.4</ele>
        <time>2016-03-20T09:02:20Z</time>
      </trkpt>
      <trkpt lat="45.5972" lon="4.87034">
        <ele>341.1</ele>
        <time>2016-03-20T09:02:22Z</time>
      </trkpt>
      <trkpt lat="45.59723" lon="4.87036">
        <ele>341.5</ele>
        <time>2016-03-20T09:02:24Z</time>
      </trkpt>
      <trkpt lat="45.59725" lon="4.87038">
        <ele>341.7</ele>
        <time>2016-03-20T09:02:26Z</time>
      </trkpt>
      <trkpt lat="45.59728" lon="4.8704">
        <ele>342.2</ele>
        <time>2016-03-20T09:02:28Z</time>
      </trkpt>
      <trkpt lat="45.59732" lon="4.87042">
        <ele>342.6</ele>
        <time>2016-03-20T09:02:30Z</time>
      </trkpt>
      <trkpt lat="45.59734" lon="4.87043">
        <ele>342.9</ele>
        <time>2016-03-20T09:02:32Z</time>
      </trkpt>
      <trkpt lat="45.59738" lon="4.87044">
        <ele>343.4</ele>
        <time>2016-03-20T09:02:34Z</time>
      </trkpt>
      <trkpt lat="45.5974" lon="4.87044">
        <ele>343.9</ele>
        <time>2016-03-20T09:02:36Z</time>
      </trkpt>
      <trkpt lat="45.59744" lon="4.87045">
        <ele>344.6</ele>
        <time>2016-03-20T09:02:38Z</time>
      </trkpt>
      <trkpt lat="45.59746" lon="4.87046">
        <ele>345</ele>
        <time>2016-03-20T09:02:40Z</time>
      </trkpt>
      <trkpt lat="45.59749" lon="4.87046">
        <ele>345.3</ele>
        <time>2016-03-20T09:02:42Z</time>
      </trkpt>
      <trkpt lat="45.59752" lon="4.87048">
        <ele>345.7</ele>
        <time>2016-03-20T09:02:44Z</time>
      </trkpt>
      <trkpt lat="45.59755" lon="4.87049">
        <ele>346</ele>
        <time>2016-03-20T09:02:46Z</time>
      </trkpt>
      <trkpt lat="45.59757" lon="4.87049">
        <ele>346.3</ele>
        <time>2016-03-20T09:02:48Z</time>
      </trkpt>
      <trkpt lat="45.59759" lon="4.8705">
        <ele>346.5</ele>
        <time>2016-03-20T09:02:50Z</time>
      </trkpt>
      <trkpt lat="45.59762" lon="4.8705">
        <ele>346.7</ele>
        <time>2016-03-20T09:02:52Z</time>
      </trkpt>
      <trkpt lat="45.59764" lon="4.87049">
        <ele>347</ele>
        <time>2016-03-20T09:02:54Z</time>
      </trkpt>
      <trkpt lat="45.59768" lon="4.87049">
        <ele>347.3</ele>
        <time>2016-03-20T09:02:56Z</time>
      </trkpt>
      <trkpt lat="45.59771" lon="4.8705">
        <ele>347.6</ele>
        <time>2016-03-20T09:02:58Z</time>
      </trkpt>
      <trkpt lat="45.59775" lon="4.8705">
        <ele>348.1</ele>
        <time>2016-03-20T09:03:00Z</time>
      </trkpt>
      <trkpt lat="45.59778" lon="4.8705">
        <ele>348.5</ele>
        <time>2016-03-20T09:03:02Z</time>
      </trkpt>
      <trkpt lat="45.59781" lon="4.8705">
        <ele>349</ele>
        <time>2016-03-20T09:03:04Z</time>
      </trkpt>
      <trkpt lat="45.59788" lon="4.87049">
        <ele>349.9</ele>
        <time>2016-03-20T09:03:06Z</time>
      </trkpt>
      <trkpt lat="45.59791" lon="4.87047">
        <ele>350</ele>
        <time>2016-03-20T09:03:08Z</time>
      </trkpt>
      <trkpt lat="45.59794" lon="4.87046">
        <ele>350</ele>
        <time>2016-03-20T09:03:10Z</time>
      </trkpt>
      <trkpt lat="45.59797" lon="4.87044">
        <ele>350</ele>
        <time>2016-03-20T09:03:12Z</time>
      </trkpt>
      <trkpt lat="45.59799" lon="4.87041">
        <ele>350</ele>
        <time>2016-03-20T09:03:14Z</time>
      </trkpt>
      <trkpt lat="45.59801" lon="4.87038">
        <ele>350</ele>
        <time>2016-03-20T09:03:16Z</time>
      </trkpt>
      <trkpt lat="45.59802" lon="4.87035">
        <ele>350</ele>
        <time>2016-03-20T09:03:18Z</time>
      </trkpt>
      <trkpt lat="45.59802" lon="4.87033">
        <ele>350.1</ele>
        <time>2016-03-20T09:03:20Z</time>
      </trkpt>
      <trkpt lat="45.59802" lon="4.87029">
        <ele>350.2</ele>
        <time>2016-03-20T09:03:22Z</time>
      </trkpt>
      <trkpt lat="45.59803" lon="4.87025">
        <ele>350.2</ele>
        <time>2016-03-20T09:03:24Z</time>
      </trkpt>
      <trkpt lat="45.59803" lon="4.87022">
        <ele>350.4</ele>
        <time>2016-03-20T09:03:26Z</time>
      </trkpt>
      <trkpt lat="45.59803" lon="4.87019">
        <ele>350.5</ele>
        <time>2016-03-20T09:03:28Z</time>
      </trkpt>
      <trkpt lat="45.59803" lon="4.87015">
        <ele>350.7</ele>
        <time>2016-03-20T09:03:30Z</time>
      </trkpt>
      <trkpt lat="45.59804" lon="4.87012">
        <ele>350.9</ele>
        <time>2016-03-20T09:03:32Z</time>
      </trkpt>
      <trkpt lat="45.59804" lon="4.87009">
        <ele>351.2</ele>
        <time>2016-03-20T09:03:34Z</time>
      </trkpt>
      <trkpt lat="45.59803" lon="4.87006">
        <ele>351.5</ele>
        <time>2016-03-20T09:03:36Z</time>
      </trkpt>
      <trkpt lat="45.59803" lon="4.87002">
        <ele>351.9</ele>
        <time>2016-03-20T09:03:38Z</time>
      </trkpt>
      <trkpt lat="45.59803" lon="4.86998">
        <ele>352.1</ele>
        <time>2016-03-20T09:03:40Z</time>
      </trkpt>
      <trkpt lat="45.59803" lon="4.86994">
        <ele>352.4</ele>
        <time>2016-03-20T09:03:42Z</time>
      </trkpt>
      <trkpt lat="45.59802" lon="4.86991">
        <ele>352.7</ele>
        <time>2016-03-20T09:03:44Z</time>
      </trkpt>
      <trkpt lat="45.598" lon="4.86987">
        <ele>353</ele>
        <time>2016-03-20T09:03:46Z</time>
      </trkpt>
      <trkpt lat="45.59799" lon="4.86984">
        <ele>353.4</ele>
        <time>2016-03-20T09:03:48Z</time>
      </trkpt>
      <trkpt lat="45.59798" lon="4.86982">
        <ele>353.7</ele>
        <time>2016-03-20T09:03:50Z</time>
      </trkpt>
      <trkpt lat="45.59797" lon="4.86979">
        <ele>354</ele>
        <time>2016-03-20T09:03:52Z</time>
      </trkpt>
      <trkpt lat="45.59794" lon="4.86975">
        <ele>354.6</ele>
        <time>2016-03-20T09:03:54Z</time>
      </trkpt>
      <trkpt lat="45.59793" lon="4.86971">
        <ele>355.2</ele>
        <time>2016-03-20T09:03:56Z</time>
      </trkpt>
      <trkpt lat="45.59791" lon="4.86967">
        <ele>355.7</ele>
        <time>2016-03-20T09:03:58Z</time>
      </trkpt>
      <trkpt lat="45.5979" lon="4.86963">
        <ele>356.2</ele>
        <time>2016-03-20T09:04:00Z</time>
      </trkpt>
      <trkpt lat="45.59788" lon="4.86959">
        <ele>356.7</ele>
        <time>2016-03-20T09:04:02Z</time>
      </trkpt>
      <trkpt lat="45.59787" lon="4.86955">
        <ele>357.2</ele>
        <time>2016-03-20T09:04:04Z</time>
      </trkpt>
      <trkpt lat="45.59786" lon="4.8695">
        <ele>357.7</ele>
        <time>2016-03-20T09:04:06Z</time>
      </trkpt>
      <trkpt lat="45.59784" lon="4.86945">
        <ele>358.6</ele>
        <time>2016-03-20T09:04:08Z</time>
      </trkpt>
      <trkpt lat="45.59782" lon="4.8694">
        <ele>359.5</ele>
        <time>2016-03-20T09:04:10Z</time>
      </trkpt>
      <trkpt lat="45.59782" lon="4.86936">
        <ele>360</ele>
        <time>2016-03-20T09:04:12Z</time>
      </trkpt>
      <trkpt lat="45.59781" lon="4.86931">
        <ele>360.6</ele>
        <time>2016-03-20T09:04:14Z</time>
      </trkpt>
      <trkpt lat="45.5978" lon="4.86926">
        <ele>361.2</ele>
        <time>2016-03-20T09:04:16Z</time>
      </trkpt>
      <trkpt lat="45.59779" lon="4.86921">
        <ele>361.8</ele>
        <time>2016-03-20T09:04:18Z</time>
      </trkpt>
      <trkpt lat="45.59779" lon="4.86915">
        <ele>362.4</ele>
        <time>2016-03-20T09:04:20Z</time>
      </trkpt>
      <trkpt lat="45.59778" lon="4.86908">
        <ele>363.1</ele>
        <time>2016-03-20T09:04:22Z</time>
      </trkpt>
      <trkpt lat="45.59777" lon="4.86902">
        <ele>363.7</ele>
        <time>2016-03-20T09:04:24Z</time>
      </trkpt>
      <trkpt lat="45.59776" lon="4.86894">
        <ele>364.4</ele>
        <time>2016-03-20T09:04:26Z</time>
      </trkpt>
      <trkpt lat="45.59775" lon="4.86887">
        <ele>365.1</ele>
        <time>2016-03-20T09:04:28Z</time>
      </trkpt>
      <trkpt lat="45.59774" lon="4.8688">
        <ele>365.4</ele>
        <time>2016-03-20T09:04:30Z</time>
      </trkpt>
      <trkpt lat="45.59774" lon="4.86872">
        <ele>365.8</ele>
        <time>2016-03-20T09:04:32Z</time>
      </trkpt>
      <trkpt lat="45.59775" lon="4.86865">
        <ele>366.1</ele>
        <time>2016-03-20T09:04:34Z</time>
      </trkpt>
      <trkpt lat="45.59776" lon="4.86858">
        <ele>366.3</ele>
        <time>2016-03-20T09:04:36Z</time>
      </trkpt>
      <trkpt lat="45.59778" lon="4.86852">
        <ele>366.2</ele>
        <time>2016-03-20T09:04:38Z</time>
      </trkpt>
      <trkpt lat="45.59779" lon="4.86847">
        <ele>366.1</ele>
        <time>2016-03-20T09:04:40Z</time>
      </trkpt>
      <trkpt lat="45.59781" lon="4.86843">
        <ele>365.9</ele>
        <time>2016-03-20T09:04:42Z</time>
      </trkpt>
      <trkpt lat="45.59782" lon="4.86839">
        <ele>365.6</ele>
        <time>2016-03-20T09:04:44Z</time>
      </trkpt>
      <trkpt lat="45.59782" lon="4.86834">
        <ele>365.3</ele>
        <time>2016-03-20T09:04:46Z</time>
      </trkpt>
      <trkpt lat="45.59783" lon="4.8683">
        <ele>365</ele>
        <time>2016-03-20T09:04:48Z</time>
      </trkpt>
      <trkpt lat="45.59784" lon="4.86826">
        <ele>364.8</ele>
        <time>2016-03-20T09:04:50Z</time>
      </trkpt>
      <trkpt lat="45.59784" lon="4.86822">
        <ele>364.5</ele>
        <time>2016-03-20T09:04:52Z</time>
      </trkpt>
      <trkpt lat="45.59784" lon="4.8682">
        <ele>364.3</ele>
        <time>2016-03-20T09:04:54Z</time>
      </trkpt>
      <trkpt lat="45.59782" lon="4.86818">
        <ele>364.1</ele>
        <time>2016-03-20T09:04:56Z</time>
      </trkpt>
      <trkpt lat="45.5978" lon="4.86816">
        <ele>363.8</ele>
        <time>2016-03-20T09:05:02Z</time>
      </trkpt>
      <trkpt lat="45.59777" lon="4.86818">
        <ele>363.5</ele>
        <time>2016-03-20T09:05:06Z</time>
      </trkpt>
      <trkpt lat="45.59776" lon="4.86816">
        <ele>363.4</ele>
        <time>2016-03-20T09:05:20Z</time>
      </trkpt>
      <trkpt lat="45.59778" lon="4.86811">
        <ele>362.9</ele>
        <time>2016-03-20T09:05:22Z</time>
      </trkpt>
      <trkpt lat="45.59779" lon="4.86802">
        <ele>362.3</ele>
        <time>2016-03-20T09:05:24Z</time>
      </trkpt>
      <trkpt lat="45.59782" lon="4.86793">
        <ele>362</ele>
        <time>2016-03-20T09:05:26Z</time>
      </trkpt>
      <trkpt lat="45.59785" lon="4.86784">
        <ele>361.5</ele>
        <time>2016-03-20T09:05:28Z</time>
      </trkpt>
      <trkpt lat="45.59787" lon="4.86773">
        <ele>360.8</ele>
        <time>2016-03-20T09:05:30Z</time>
      </trkpt>
      <trkpt lat="45.59789" lon="4.86761">
        <ele>359.8</ele>
        <time>2016-03-20T09:05:32Z</time>
      </trkpt>
      <trkpt lat="45.59791" lon="4.86746">
        <ele>358.8</ele>
        <time>2016-03-20T09:05:34Z</time>
      </trkpt>
      <trkpt lat="45.59795" lon="4.86727">
        <ele>357.5</ele>
        <time>2016-03-20T09:05:36Z</time>
      </trkpt>
      <trkpt lat="45.598" lon="4.86708">
        <ele>355.9</ele>
        <time>2016-03-20T09:05:38Z</time>
      </trkpt>
      <trkpt lat="45.59806" lon="4.86687">
        <ele>354.7</ele>
        <time>2016-03-20T09:05:40Z</time>
      </trkpt>
      <trkpt lat="45.5981" lon="4.86666">
        <ele>354.1</ele>
        <time>2016-03-20T09:05:42Z</time>
      </trkpt>
      <trkpt lat="45.59812" lon="4.86645">
        <ele>353.4</ele>
        <time>2016-03-20T09:05:44Z</time>
      </trkpt>
      <trkpt lat="45.5981" lon="4.86627">
        <ele>353</ele>
        <time>2016-03-20T09:05:46Z</time>
      </trkpt>
      <trkpt lat="45.59803" lon="4.86617">
        <ele>353</ele>
        <time>2016-03-20T09:05:48Z</time>
      </trkpt>
      <trkpt lat="45.59795" lon="4.86613">
        <ele>353.6</ele>
        <time>2016-03-20T09:05:50Z</time>
      </trkpt>
      <trkpt lat="45.59785" lon="4.86608">
        <ele>355</ele>
        <time>2016-03-20T09:05:52Z</time>
      </trkpt>
      <trkpt lat="45.59774" lon="4.86601">
        <ele>356.4</ele>
        <time>2016-03-20T09:05:54Z</time>
      </trkpt>
      <trkpt lat="45.59764" lon="4.86594">
        <ele>358</ele>
        <time>2016-03-20T09:05:56Z</time>
      </trkpt>
      <trkpt lat="45.59753" lon="4.86586">
        <ele>359.7</ele>
        <time>2016-03-20T09:05:58Z</time>
      </trkpt>
      <trkpt lat="45.59744" lon="4.86579">
        <ele>360</ele>
        <time>2016-03-20T09:06:00Z</time>
      </trkpt>
      <trkpt lat="45.59736" lon="4.8657">
        <ele>359.6</ele>
        <time>2016-03-20T09:06:02Z</time>
      </trkpt>
      <trkpt lat="45.59728" lon="4.86564">
        <ele>359.6</ele>
        <time>2016-03-20T09:06:04Z</time>
      </trkpt>
      <trkpt lat="45.59718" lon="4.86558">
        <ele>359.3</ele>
        <time>2016-03-20T09:06:06Z</time>
      </trkpt>
      <trkpt lat="45.5971" lon="4.86552">
        <ele>359.2</ele>
        <time>2016-03-20T09:06:08Z</time>
      </trkpt>
      <trkpt lat="45.59701" lon="4.86545">
        <ele>359.3</ele>
        <time>2016-03-20T09:06:10Z</time>
      </trkpt>
      <trkpt lat="45.59693" lon="4.86537">
        <ele>359.2</ele>
        <time>2016-03-20T09:06:12Z</time>
      </trkpt>
      <trkpt lat="45.59684" lon="4.86526">
        <ele>358.8</ele>
        <time>2016-03-20T09:06:14Z</time>
      </trkpt>
      <trkpt lat="45.59675" lon="4.86513">
        <ele>357.3</ele>
        <time>2016-03-20T09:06:16Z</time>
      </trkpt>
      <trkpt lat="45.5967" lon="4.86498">
        <ele>355.3</ele>
        <time>2016-03-20T09:06:18Z</time>
      </trkpt>
      <trkpt lat="45.59667" lon="4.86484">
        <ele>353.7</ele>
        <time>2016-03-20T09:06:20Z</time>
      </trkpt>
      <trkpt lat="45.59664" lon="4.86471">
        <ele>352.1</ele>
        <time>2016-03-20T09:06:22Z</time>
      </trkpt>
      <trkpt lat="45.5966" lon="4.8646">
        <ele>351.1</ele>
        <time>2016-03-20T09:06:24Z</time>
      </trkpt>
      <trkpt lat="45.59654" lon="4.86449">
        <ele>350.7</ele>
        <time>2016-03-20T09:06:26Z</time>
      </trkpt>
      <trkpt lat="45.59647" lon="4.86439">
        <ele>350.1</ele>
        <time>2016-03-20T09:06:28Z</time>
      </trkpt>
      <trkpt lat="45.59639" lon="4.8643">
        <ele>349.9</ele>
        <time>2016-03-20T09:06:30Z</time>
      </trkpt>
      <trkpt lat="45.59632" lon="4.86419">
        <ele>349.2</ele>
        <time>2016-03-20T09:06:32Z</time>
      </trkpt>
      <trkpt lat="45.59625" lon="4.86407">
        <ele>348.6</ele>
        <time>2016-03-20T09:06:34Z</time>
      </trkpt>
      <trkpt lat="45.59615" lon="4.86398">
        <ele>348.3</ele>
        <time>2016-03-20T09:06:36Z</time>
      </trkpt>
      <trkpt lat="45.59603" lon="4.86388">
        <ele>346.9</ele>
        <time>2016-03-20T09:06:38Z</time>
      </trkpt>
      <trkpt lat="45.59592" lon="4.86379">
        <ele>346</ele>
        <time>2016-03-20T09:06:40Z</time>
      </trkpt>
      <trkpt lat="45.59583" lon="4.86365">
        <ele>344.2</ele>
        <time>2016-03-20T09:06:42Z</time>
      </trkpt>
      <trkpt lat="45.59574" lon="4.86351">
        <ele>343</ele>
        <time>2016-03-20T09:06:44Z</time>
      </trkpt>
      <trkpt lat="45.59563" lon="4.86336">
        <ele>343.4</ele>
        <time>2016-03-20T09:06:46Z</time>
      </trkpt>
      <trkpt lat="45.59552" lon="4.86322">
        <ele>342.4</ele>
        <time>2016-03-20T09:06:48Z</time>
      </trkpt>
      <trkpt lat="45.59543" lon="4.86309">
        <ele>342.4</ele>
        <time>2016-03-20T09:06:50Z</time>
      </trkpt>
      <trkpt lat="45.59538" lon="4.86298">
        <ele>342.1</ele>
        <time>2016-03-20T09:06:52Z</time>
      </trkpt>
      <trkpt lat="45.59533" lon="4.86288">
        <ele>342.1</ele>
        <time>2016-03-20T09:06:54Z</time>
      </trkpt>
      <trkpt lat="45.5953" lon="4.8628">
        <ele>342</ele>
        <time>2016-03-20T09:06:56Z</time>
      </trkpt>
      <trkpt lat="45.59527" lon="4.8627">
        <ele>341.2</ele>
        <time>2016-03-20T09:06:58Z</time>
      </trkpt>
      <trkpt lat="45.59527" lon="4.86258">
        <ele>340.1</ele>
        <time>2016-03-20T09:07:00Z</time>
      </trkpt>
      <trkpt lat="45.59527" lon="4.86246">
        <ele>339.6</ele>
        <time>2016-03-20T09:07:02Z</time>
      </trkpt>
      <trkpt lat="45.59527" lon="4.86232">
        <ele>338.4</ele>
        <time>2016-03-20T09:07:04Z</time>
      </trkpt>
      <trkpt lat="45.59527" lon="4.8622">
        <ele>337.1</ele>
        <time>2016-03-20T09:07:06Z</time>
      </trkpt>
      <trkpt lat="45.59528" lon="4.86208">
        <ele>336.2</ele>
        <time>2016-03-20T09:07:08Z</time>
      </trkpt>
      <trkpt lat="45.59529" lon="4.86196">
        <ele>335.9</ele>
        <time>2016-03-20T09:07:10Z</time>
      </trkpt>
      <trkpt lat="45.59532" lon="4.86185">
        <ele>335.4</ele>
        <time>2016-03-20T09:07:12Z</time>
      </trkpt>
      <trkpt lat="45.59536" lon="4.86176">
        <ele>334.9</ele>
        <time>2016-03-20T09:07:14Z</time>
      </trkpt>
      <trkpt lat="45.59539" lon="4.86165">
        <ele>334.5</ele>
        <time>2016-03-20T09:07:16Z</time>
      </trkpt>
      <trkpt lat="45.59543" lon="4.86156">
        <ele>334.2</ele>
        <time>2016-03-20T09:07:18Z</time>
      </trkpt>
      <trkpt lat="45.59546" lon="4.86148">
        <ele>333.9</ele>
        <time>2016-03-20T09:07:20Z</time>
      </trkpt>
      <trkpt lat="45.59549" lon="4.86138">
        <ele>334.3</ele>
        <time>2016-03-20T09:07:22Z</time>
      </trkpt>
      <trkpt lat="45.59552" lon="4.86128">
        <ele>334.4</ele>
        <time>2016-03-20T09:07:24Z</time>
      </trkpt>
      <trkpt lat="45.59556" lon="4.86119">
        <ele>334.8</ele>
        <time>2016-03-20T09:07:26Z</time>
      </trkpt>
      <trkpt lat="45.5956" lon="4.86107">
        <ele>334.8</ele>
        <time>2016-03-20T09:07:28Z</time>
      </trkpt>
      <trkpt lat="45.59565" lon="4.86094">
        <ele>333.7</ele>
        <time>2016-03-20T09:07:30Z</time>
      </trkpt>
      <trkpt lat="45.59571" lon="4.86079">
        <ele>332.9</ele>
        <time>2016-03-20T09:07:32Z</time>
      </trkpt>
      <trkpt lat="45.59575" lon="4.86066">
        <ele>332.2</ele>
        <time>2016-03-20T09:07:34Z</time>
      </trkpt>
      <trkpt lat="45.59583" lon="4.86054">
        <ele>331.3</ele>
        <time>2016-03-20T09:07:36Z</time>
      </trkpt>
      <trkpt lat="45.59589" lon="4.86044">
        <ele>330.5</ele>
        <time>2016-03-20T09:07:38Z</time>
      </trkpt>
      <trkpt lat="45.5959" lon="4.86032">
        <ele>330</ele>
        <time>2016-03-20T09:07:40Z</time>
      </trkpt>
      <trkpt lat="45.59587" lon="4.86022">
        <ele>330</ele>
        <time>2016-03-20T09:07:42Z</time>
      </trkpt>
      <trkpt lat="45.59584" lon="4.86013">
        <ele>329.9</ele>
        <time>2016-03-20T09:07:44Z</time>
      </trkpt>
      <trkpt lat="45.59583" lon="4.86003">
        <ele>329.8</ele>
        <time>2016-03-20T09:07:46Z</time>
      </trkpt>
      <trkpt lat="45.59581" lon="4.85992">
        <ele>329.8</ele>
        <time>2016-03-20T09:07:48Z</time>
      </trkpt>
      <trkpt lat="45.59576" lon="4.85979">
        <ele>328.8</ele>
        <time>2016-03-20T09:07:50Z</time>
      </trkpt>
      <trkpt lat="45.59571" lon="4.85968">
        <ele>326.5</ele>
        <time>2016-03-20T09:07:52Z</time>
      </trkpt>
      <trkpt lat="45.59565" lon="4.85956">
        <ele>324.4</ele>
        <time>2016-03-20T09:07:54Z</time>
      </trkpt>
      <trkpt lat="45.59561" lon="4.85943">
        <ele>322.2</ele>
        <time>2016-03-20T09:07:56Z</time>
      </trkpt>
      <trkpt lat="45.59564" lon="4.85932">
        <ele>319.8</ele>
        <time>2016-03-20T09:07:58Z</time>
      </trkpt>
      <trkpt lat="45.59567" lon="4.85924">
        <ele>317.8</ele>
        <time>2016-03-20T09:08:00Z</time>
      </trkpt>
      <trkpt lat="45.59567" lon="4.85917">
        <ele>316.7</ele>
        <time>2016-03-20T09:08:02Z</time>
      </trkpt>
      <trkpt lat="45.59569" lon="4.85912">
        <ele>315.7</ele>
        <time>2016-03-20T09:08:04Z</time>
      </trkpt>
      <trkpt lat="45.59574" lon="4.8591">
        <ele>314.6</ele>
        <time>2016-03-20T09:08:06Z</time>
      </trkpt>
      <trkpt lat="45.59586" lon="4.85892">
        <ele>311.1</ele>
        <time>2016-03-20T09:08:10Z</time>
      </trkpt>
      <trkpt lat="45.59587" lon="4.85879">
        <ele>307.7</ele>
        <time>2016-03-20T09:08:12Z</time>
      </trkpt>
      <trkpt lat="45.59588" lon="4.85865">
        <ele>303.9</ele>
        <time>2016-03-20T09:08:14Z</time>
      </trkpt>
      <trkpt lat="45.59588" lon="4.85849">
        <ele>301.4</ele>
        <time>2016-03-20T09:08:16Z</time>
      </trkpt>
      <trkpt lat="45.59587" lon="4.85837">
        <ele>298.9</ele>
        <time>2016-03-20T09:08:18Z</time>
      </trkpt>
      <trkpt lat="45.59588" lon="4.8583">
        <ele>297.5</ele>
        <time>2016-03-20T09:08:20Z</time>
      </trkpt>
      <trkpt lat="45.59593" lon="4.85827">
        <ele>295.8</ele>
        <time>2016-03-20T09:08:22Z</time>
      </trkpt>
      <trkpt lat="45.59598" lon="4.85827">
        <ele>294</ele>
        <time>2016-03-20T09:08:24Z</time>
      </trkpt>
      <trkpt lat="45.59607" lon="4.85826">
        <ele>291.8</ele>
        <time>2016-03-20T09:08:26Z</time>
      </trkpt>
      <trkpt lat="45.59616" lon="4.85831">
        <ele>291.6</ele>
        <time>2016-03-20T09:08:28Z</time>
      </trkpt>
      <trkpt lat="45.59625" lon="4.85837">
        <ele>291.4</ele>
        <time>2016-03-20T09:08:30Z</time>
      </trkpt>
      <trkpt lat="45.59632" lon="4.85846">
        <ele>291.6</ele>
        <time>2016-03-20T09:08:32Z</time>
      </trkpt>
      <trkpt lat="45.59641" lon="4.85851">
        <ele>292.2</ele>
        <time>2016-03-20T09:08:34Z</time>
      </trkpt>
      <trkpt lat="45.59652" lon="4.85853">
        <ele>292</ele>
        <time>2016-03-20T09:08:36Z</time>
      </trkpt>
      <trkpt lat="45.59665" lon="4.85858">
        <ele>290.7</ele>
        <time>2016-03-20T09:08:38Z</time>
      </trkpt>
      <trkpt lat="45.59678" lon="4.85867">
        <ele>290.5</ele>
        <time>2016-03-20T09:08:40Z</time>
      </trkpt>
      <trkpt lat="45.59692" lon="4.85876">
        <ele>288.4</ele>
        <time>2016-03-20T09:08:42Z</time>
      </trkpt>
      <trkpt lat="45.59706" lon="4.85888">
        <ele>286.1</ele>
        <time>2016-03-20T09:08:44Z</time>
      </trkpt>
      <trkpt lat="45.59719" lon="4.85899">
        <ele>285</ele>
        <time>2016-03-20T09:08:46Z</time>
      </trkpt>
      <trkpt lat="45.59732" lon="4.85908">
        <ele>285.6</ele>
        <time>2016-03-20T09:08:48Z</time>
      </trkpt>
      <trkpt lat="45.59744" lon="4.85913">
        <ele>292.6</ele>
        <time>2016-03-20T09:08:50Z</time>
      </trkpt>
      <trkpt lat="45.59753" lon="4.85914">
        <ele>295.2</ele>
        <time>2016-03-20T09:08:52Z</time>
      </trkpt>
      <trkpt lat="45.59756" lon="4.85916">
        <ele>296.2</ele>
        <time>2016-03-20T09:08:54Z</time>
      </trkpt>
      <trkpt lat="45.59758" lon="4.85918">
        <ele>296.9</ele>
        <time>2016-03-20T09:08:58Z</time>
      </trkpt>
      <trkpt lat="45.59758" lon="4.85921">
        <ele>297.6</ele>
        <time>2016-03-20T09:09:17Z</time>
      </trkpt>
      <trkpt lat="45.59758" lon="4.85923">
        <ele>298</ele>
        <time>2016-03-20T09:09:19Z</time>
      </trkpt>
      <trkpt lat="45.59757" lon="4.85925">
        <ele>298.6</ele>
        <time>2016-03-20T09:09:21Z</time>
      </trkpt>
      <trkpt lat="45.59758" lon="4.85928">
        <ele>299.3</ele>
        <time>2016-03-20T09:09:23Z</time>
      </trkpt>
      <trkpt lat="45.59758" lon="4.85933">
        <ele>300.5</ele>
        <time>2016-03-20T09:09:25Z</time>
      </trkpt>
      <trkpt lat="45.59759" lon="4.85938">
        <ele>301.7</ele>
        <time>2016-03-20T09:09:27Z</time>
      </trkpt>
      <trkpt lat="45.59759" lon="4.85944">
        <ele>303.2</ele>
        <time>2016-03-20T09:09:29Z</time>
      </trkpt>
      <trkpt lat="45.5976" lon="4.85949">
        <ele>304.5</ele>
        <time>2016-03-20T09:09:31Z</time>
      </trkpt>
      <trkpt lat="45.59761" lon="4.85954">
        <ele>305.9</ele>
        <time>2016-03-20T09:09:33Z</time>
      </trkpt>
      <trkpt lat="45.59762" lon="4.8596">
        <ele>307.7</ele>
        <time>2016-03-20T09:09:35Z</time>
      </trkpt>
      <trkpt lat="45.59763" lon="4.85966">
        <ele>309.2</ele>
        <time>2016-03-20T09:09:37Z</time>
      </trkpt>
      <trkpt lat="45.59764" lon="4.85971">
        <ele>301</ele>
        <time>2016-03-20T09:09:39Z</time>
      </trkpt>
      <trkpt lat="45.59765" lon="4.85974">
        <ele>301</ele>
        <time>2016-03-20T09:09:41Z</time>
      </trkpt>
      <trkpt lat="45.59767" lon="4.85977">
        <ele>301.1</ele>
        <time>2016-03-20T09:09:43Z</time>
      </trkpt>
      <trkpt lat="45.59769" lon="4.85979">
        <ele>301.2</ele>
        <time>2016-03-20T09:09:45Z</time>
      </trkpt>
      <trkpt lat="45.59772" lon="4.8598">
        <ele>301.3</ele>
        <time>2016-03-20T09:09:47Z</time>
      </trkpt>
      <trkpt lat="45.59774" lon="4.85981">
        <ele>301.5</ele>
        <time>2016-03-20T09:09:49Z</time>
      </trkpt>
      <trkpt lat="45.59776" lon="4.85982">
        <ele>301.9</ele>
        <time>2016-03-20T09:09:51Z</time>
      </trkpt>
      <trkpt lat="45.5978" lon="4.85984">
        <ele>302.8</ele>
        <time>2016-03-20T09:09:53Z</time>
      </trkpt>
      <trkpt lat="45.59783" lon="4.85987">
        <ele>303.3</ele>
        <time>2016-03-20T09:09:55Z</time>
      </trkpt>
      <trkpt lat="45.59787" lon="4.8599">
        <ele>303.9</ele>
        <time>2016-03-20T09:09:57Z</time>
      </trkpt>
      <trkpt lat="45.59792" lon="4.85993">
        <ele>304.3</ele>
        <time>2016-03-20T09:09:59Z</time>
      </trkpt>
      <trkpt lat="45.59798" lon="4.85997">
        <ele>304.6</ele>
        <time>2016-03-20T09:10:01Z</time>
      </trkpt>
      <trkpt lat="45.59804" lon="4.86001">
        <ele>304.6</ele>
        <time>2016-03-20T09:10:03Z</time>
      </trkpt>
      <trkpt lat="45.59811" lon="4.86003">
        <ele>304.2</ele>
        <time>2016-03-20T09:10:05Z</time>
      </trkpt>
      <trkpt lat="45.5982" lon="4.86005">
        <ele>303.5</ele>
        <time>2016-03-20T09:10:07Z</time>
      </trkpt>
      <trkpt lat="45.59831" lon="4.86008">
        <ele>303</ele>
        <time>2016-03-20T09:10:09Z</time>
      </trkpt>
      <trkpt lat="45.59843" lon="4.86014">
        <ele>303.6</ele>
        <time>2016-03-20T09:10:11Z</time>
      </trkpt>
      <trkpt lat="45.59856" lon="4.86023">
        <ele>304.5</ele>
        <time>2016-03-20T09:10:13Z</time>
      </trkpt>
      <trkpt lat="45.5987" lon="4.86033">
        <ele>306.4</ele>
        <time>2016-03-20T09:10:15Z</time>
      </trkpt>
      <trkpt lat="45.59885" lon="4.86044">
        <ele>307.3</ele>
        <time>2016-03-20T09:10:17Z</time>
      </trkpt>
      <trkpt lat="45.59897" lon="4.86056">
        <ele>305.6</ele>
        <time>2016-03-20T09:10:19Z</time>
      </trkpt>
      <trkpt lat="45.59913" lon="4.8606">
        <ele>302.8</ele>
        <time>2016-03-20T09:10:21Z</time>
      </trkpt>
      <trkpt lat="45.59929" lon="4.86057">
        <ele>299.7</ele>
        <time>2016-03-20T09:10:23Z</time>
      </trkpt>
      <trkpt lat="45.59944" lon="4.86051">
        <ele>297.4</ele>
        <time>2016-03-20T09:10:25Z</time>
      </trkpt>
      <trkpt lat="45.59958" lon="4.86046">
        <ele>296.7</ele>
        <time>2016-03-20T09:10:27Z</time>
      </trkpt>
      <trkpt lat="45.59969" lon="4.86041">
        <ele>297.1</ele>
        <time>2016-03-20T09:10:29Z</time>
      </trkpt>
      <trkpt lat="45.59974" lon="4.86037">
        <ele>297.2</ele>
        <time>2016-03-20T09:10:31Z</time>
      </trkpt>
      <trkpt lat="45.59973" lon="4.86032">
        <ele>300.1</ele>
        <time>2016-03-20T09:10:33Z</time>
      </trkpt>
      <trkpt lat="45.5997" lon="4.8603">
        <ele>300.5</ele>
        <time>2016-03-20T09:10:35Z</time>
      </trkpt>
      <trkpt lat="45.59966" lon="4.86028">
        <ele>301</ele>
        <time>2016-03-20T09:10:37Z</time>
      </trkpt>
      <trkpt lat="45.59961" lon="4.86027">
        <ele>301.6</ele>
        <time>2016-03-20T09:10:39Z</time>
      </trkpt>
      <trkpt lat="45.59958" lon="4.86024">
        <ele>302.2</ele>
        <time>2016-03-20T09:10:41Z</time>
      </trkpt>
      <trkpt lat="45.59956" lon="4.86018">
        <ele>302.6</ele>
        <time>2016-03-20T09:10:43Z</time>
      </trkpt>
      <trkpt lat="45.59955" lon="4.86011">
        <ele>303.1</ele>
        <time>2016-03-20T09:10:45Z</time>
      </trkpt>
      <trkpt lat="45.59952" lon="4.86006">
        <ele>303.2</ele>
        <time>2016-03-20T09:10:47Z</time>
      </trkpt>
      <trkpt lat="45.59954" lon="4.85999">
        <ele>303.1</ele>
        <time>2016-03-20T09:10:49Z</time>
      </trkpt>
      <trkpt lat="45.59954" lon="4.85989">
        <ele>302.5</ele>
        <time>2016-03-20T09:10:51Z</time>
      </trkpt>
      <trkpt lat="45.59953" lon="4.85978">
        <ele>302.7</ele>
        <time>2016-03-20T09:10:53Z</time>
      </trkpt>
      <trkpt lat="45.59953" lon="4.8597">
        <ele>302.8</ele>
        <time>2016-03-20T09:10:55Z</time>
      </trkpt>
      <trkpt lat="45.59955" lon="4.85962">
        <ele>302.9</ele>
        <time>2016-03-20T09:10:57Z</time>
      </trkpt>
      <trkpt lat="45.59954" lon="4.85954">
        <ele>302.9</ele>
        <time>2016-03-20T09:10:59Z</time>
      </trkpt>
      <trkpt lat="45.59957" lon="4.85946">
        <ele>302.7</ele>
        <time>2016-03-20T09:11:01Z</time>
      </trkpt>
      <trkpt lat="45.59957" lon="4.85936">
        <ele>302.1</ele>
        <time>2016-03-20T09:11:03Z</time>
      </trkpt>
      <trkpt lat="45.59954" lon="4.85926">
        <ele>301.3</ele>
        <time>2016-03-20T09:11:05Z</time>
      </trkpt>
      <trkpt lat="45.5995" lon="4.85915">
        <ele>301</ele>
        <time>2016-03-20T09:11:07Z</time>
      </trkpt>
      <trkpt lat="45.59944" lon="4.85908">
        <ele>300.4</ele>
        <time>2016-03-20T09:11:09Z</time>
      </trkpt>
      <trkpt lat="45.59937" lon="4.85904">
        <ele>299.6</ele>
        <time>2016-03-20T09:11:11Z</time>
      </trkpt>
      <trkpt lat="45.59929" lon="4.85901">
        <ele>298.6</ele>
        <time>2016-03-20T09:11:13Z</time>
      </trkpt>
      <trkpt lat="45.59922" lon="4.85899">
        <ele>297.7</ele>
        <time>2016-03-20T09:11:15Z</time>
      </trkpt>
      <trkpt lat="45.59916" lon="4.85895">
        <ele>297.1</ele>
        <time>2016-03-20T09:11:17Z</time>
      </trkpt>
      <trkpt lat="45.59911" lon="4.85887">
        <ele>296.6</ele>
        <time>2016-03-20T09:11:19Z</time>
      </trkpt>
      <trkpt lat="45.59907" lon="4.85877">
        <ele>296.5</ele>
        <time>2016-03-20T09:11:21Z</time>
      </trkpt>
      <trkpt lat="45.59903" lon="4.85866">
        <ele>296.9</ele>
        <time>2016-03-20T09:11:23Z</time>
      </trkpt>
      <trkpt lat="45.59898" lon="4.85853">
        <ele>296.9</ele>
        <time>2016-03-20T09:11:25Z</time>
      </trkpt>
      <trkpt lat="45.59892" lon="4.85839">
        <ele>296</ele>
        <time>2016-03-20T09:11:27Z</time>
      </trkpt>
      <trkpt lat="45.59885" lon="4.85824">
        <ele>293.7</ele>
        <time>2016-03-20T09:11:29Z</time>
      </trkpt>
      <trkpt lat="45.59877" lon="4.85809">
        <ele>292.3</ele>
        <time>2016-03-20T09:11:31Z</time>
      </trkpt>
      <trkpt lat="45.59866" lon="4.85797">
        <ele>290.1</ele>
        <time>2016-03-20T09:11:33Z</time>
      </trkpt>
      <trkpt lat="45.59856" lon="4.85784">
        <ele>288.1</ele>
        <time>2016-03-20T09:11:35Z</time>
      </trkpt>
      <trkpt lat="45.59847" lon="4.85769">
        <ele>285.8</ele>
        <time>2016-03-20T09:11:37Z</time>
      </trkpt>
      <trkpt lat="45.59839" lon="4.85756">
        <ele>282.6</ele>
        <time>2016-03-20T09:11:39Z</time>
      </trkpt>
      <trkpt lat="45.59832" lon="4.85747">
        <ele>280.2</ele>
        <time>2016-03-20T09:11:41Z</time>
      </trkpt>
      <trkpt lat="45.59827" lon="4.8574">
        <ele>278.7</ele>
        <time>2016-03-20T09:11:43Z</time>
      </trkpt>
      <trkpt lat="45.59827" lon="4.85729">
        <ele>277.2</ele>
        <time>2016-03-20T09:11:45Z</time>
      </trkpt>
      <trkpt lat="45.59829" lon="4.85716">
        <ele>276.2</ele>
        <time>2016-03-20T09:11:47Z</time>
      </trkpt>
      <trkpt lat="45.59831" lon="4.85699">
        <ele>275.1</ele>
        <time>2016-03-20T09:11:49Z</time>
      </trkpt>
      <trkpt lat="45.59833" lon="4.85682">
        <ele>274.6</ele>
        <time>2016-03-20T09:11:51Z</time>
      </trkpt>
      <trkpt lat="45.59835" lon="4.85663">
        <ele>273.3</ele>
        <time>2016-03-20T09:11:53Z</time>
      </trkpt>
      <trkpt lat="45.59837" lon="4.85645">
        <ele>271.5</ele>
        <time>2016-03-20T09:11:55Z</time>
      </trkpt>
      <trkpt lat="45.59839" lon="4.85626">
        <ele>268.4</ele>
        <time>2016-03-20T09:11:57Z</time>
      </trkpt>
      <trkpt lat="45.59843" lon="4.85606">
        <ele>265.2</ele>
        <time>2016-03-20T09:11:59Z</time>
      </trkpt>
      <trkpt lat="45.59848" lon="4.85586">
        <ele>263.4</ele>
        <time>2016-03-20T09:12:01Z</time>
      </trkpt>
      <trkpt lat="45.59851" lon="4.85565">
        <ele>261.8</ele>
        <time>2016-03-20T09:12:03Z</time>
      </trkpt>
      <trkpt lat="45.59854" lon="4.85546">
        <ele>260.4</ele>
        <time>2016-03-20T09:12:05Z</time>
      </trkpt>
      <trkpt lat="45.59852" lon="4.85526">
        <ele>258.4</ele>
        <time>2016-03-20T09:12:07Z</time>
      </trkpt>
      <trkpt lat="45.59843" lon="4.85506">
        <ele>256.3</ele>
        <time>2016-03-20T09:12:09Z</time>
      </trkpt>
      <trkpt lat="45.59834" lon="4.85485">
        <ele>253.5</ele>
        <time>2016-03-20T09:12:11Z</time>
      </trkpt>
      <trkpt lat="45.59826" lon="4.85462">
        <ele>250.1</ele>
        <time>2016-03-20T09:12:13Z</time>
      </trkpt>
      <trkpt lat="45.59819" lon="4.85439">
        <ele>246.6</ele>
        <time>2016-03-20T09:12:15Z</time>
      </trkpt>
      <trkpt lat="45.59813" lon="4.85416">
        <ele>243.8</ele>
        <time>2016-03-20T09:12:17Z</time>
      </trkpt>
      <trkpt lat="45.59808" lon="4.85394">
        <ele>241.1</ele>
        <time>2016-03-20T09:12:19Z</time>
      </trkpt>
      <trkpt lat="45.59802" lon="4.85371">
        <ele>238.1</ele>
        <time>2016-03-20T09:12:21Z</time>
      </trkpt>
      <trkpt lat="45.59793" lon="4.85354">
        <ele>236.9</ele>
        <time>2016-03-20T09:12:23Z</time>
      </trkpt>
      <trkpt lat="45.59782" lon="4.85346">
        <ele>237</ele>
        <time>2016-03-20T09:12:25Z</time>
      </trkpt>
      <trkpt lat="45.59771" lon="4.8534">
        <ele>237</ele>
        <time>2016-03-20T09:12:27Z</time>
      </trkpt>
      <trkpt lat="45.59759" lon="4.85337">
        <ele>237</ele>
        <time>2016-03-20T09:12:29Z</time>
      </trkpt>
      <trkpt lat="45.59747" lon="4.85336">
        <ele>236.5</ele>
        <time>2016-03-20T09:12:31Z</time>
      </trkpt>
      <trkpt lat="45.59735" lon="4.85333">
        <ele>235.7</ele>
        <time>2016-03-20T09:12:33Z</time>
      </trkpt>
      <trkpt lat="45.59723" lon="4.85331">
        <ele>235.4</ele>
        <time>2016-03-20T09:12:35Z</time>
      </trkpt>
      <trkpt lat="45.59712" lon="4.85329">
        <ele>235.4</ele>
        <time>2016-03-20T09:12:37Z</time>
      </trkpt>
      <trkpt lat="45.59702" lon="4.85327">
        <ele>235.9</ele>
        <time>2016-03-20T09:12:39Z</time>
      </trkpt>
      <trkpt lat="45.59692" lon="4.85326">
        <ele>236.5</ele>
        <time>2016-03-20T09:12:41Z</time>
      </trkpt>
      <trkpt lat="45.59681" lon="4.85325">
        <ele>237</ele>
        <time>2016-03-20T09:12:43Z</time>
      </trkpt>
      <trkpt lat="45.59672" lon="4.85324">
        <ele>237.8</ele>
        <time>2016-03-20T09:12:45Z</time>
      </trkpt>
      <trkpt lat="45.59663" lon="4.85323">
        <ele>238.4</ele>
        <time>2016-03-20T09:12:47Z</time>
      </trkpt>
      <trkpt lat="45.59654" lon="4.85324">
        <ele>238.5</ele>
        <time>2016-03-20T09:12:49Z</time>
      </trkpt>
      <trkpt lat="45.59645" lon="4.85325">
        <ele>238.7</ele>
        <time>2016-03-20T09:12:51Z</time>
      </trkpt>
      <trkpt lat="45.59636" lon="4.85325">
        <ele>238.6</ele>
        <time>2016-03-20T09:12:53Z</time>
      </trkpt>
      <trkpt lat="45.59628" lon="4.85325">
        <ele>238.9</ele>
        <time>2016-03-20T09:12:55Z</time>
      </trkpt>
      <trkpt lat="45.59621" lon="4.85323">
        <ele>239</ele>
        <time>2016-03-20T09:12:57Z</time>
      </trkpt>
      <trkpt lat="45.59613" lon="4.85317">
        <ele>239</ele>
        <time>2016-03-20T09:12:59Z</time>
      </trkpt>
      <trkpt lat="45.59607" lon="4.85308">
        <ele>239</ele>
        <time>2016-03-20T09:13:01Z</time>
      </trkpt>
      <trkpt lat="45.59604" lon="4.85297">
        <ele>239</ele>
        <time>2016-03-20T09:13:03Z</time>
      </trkpt>
      <trkpt lat="45.59607" lon="4.85288">
        <ele>239</ele>
        <time>2016-03-20T09:13:05Z</time>
      </trkpt>
      <trkpt lat="45.59614" lon="4.85286">
        <ele>238.8</ele>
        <time>2016-03-20T09:13:07Z</time>
      </trkpt>
      <trkpt lat="45.59625" lon="4.85283">
        <ele>238.6</ele>
        <time>2016-03-20T09:13:09Z</time>
      </trkpt>
      <trkpt lat="45.59636" lon="4.85281">
        <ele>238.3</ele>
        <time>2016-03-20T09:13:11Z</time>
      </trkpt>
      <trkpt lat="45.59648" lon="4.85278">
        <ele>238</ele>
        <time>2016-03-20T09:13:13Z</time>
      </trkpt>
      <trkpt lat="45.59661" lon="4.85275">
        <ele>237.7</ele>
        <time>2016-03-20T09:13:15Z</time>
      </trkpt>
      <trkpt lat="45.59675" lon="4.85272">
        <ele>237.4</ele>
        <time>2016-03-20T09:13:17Z</time>
      </trkpt>
      <trkpt lat="45.59689" lon="4.85269">
        <ele>237.2</ele>
        <time>2016-03-20T09:13:19Z</time>
      </trkpt>
      <trkpt lat="45.59705" lon="4.85266">
        <ele>237</ele>
        <time>2016-03-20T09:13:21Z</time>
      </trkpt>
      <trkpt lat="45.59721" lon="4.85263">
        <ele>236.6</ele>
        <time>2016-03-20T09:13:23Z</time>
      </trkpt>
      <trkpt lat="45.59736" lon="4.85262">
        <ele>235.9</ele>
        <time>2016-03-20T09:13:25Z</time>
      </trkpt>
      <trkpt lat="45.59799" lon="4.85255">
        <ele>231.4</ele>
        <time>2016-03-20T09:13:31Z</time>
      </trkpt>
      <trkpt lat="45.59812" lon="4.85249">
        <ele>230.6</ele>
        <time>2016-03-20T09:13:33Z</time>
      </trkpt>
      <trkpt lat="45.59829" lon="4.85244">
        <ele>229.6</ele>
        <time>2016-03-20T09:13:35Z</time>
      </trkpt>
      <trkpt lat="45.59847" lon="4.85241">
        <ele>228.8</ele>
        <time>2016-03-20T09:13:37Z</time>
      </trkpt>
      <trkpt lat="45.59864" lon="4.8524">
        <ele>227.9</ele>
        <time>2016-03-20T09:13:39Z</time>
      </trkpt>
      <trkpt lat="45.59879" lon="4.85239">
        <ele>227.3</ele>
        <time>2016-03-20T09:13:41Z</time>
      </trkpt>
      <trkpt lat="45.59894" lon="4.85237">
        <ele>226.9</ele>
        <time>2016-03-20T09:13:43Z</time>
      </trkpt>
      <trkpt lat="45.59907" lon="4.85234">
        <ele>226.5</ele>
        <time>2016-03-20T09:13:45Z</time>
      </trkpt>
      <trkpt lat="45.59918" lon="4.85235">
        <ele>226.1</ele>
        <time>2016-03-20T09:13:47Z</time>
      </trkpt>
      <trkpt lat="45.59928" lon="4.85244">
        <ele>226</ele>
        <time>2016-03-20T09:13:49Z</time>
      </trkpt>
      <trkpt lat="45.59939" lon="4.8525">
        <ele>226</ele>
        <time>2016-03-20T09:13:51Z</time>
      </trkpt>
      <trkpt lat="45.59951" lon="4.85247">
        <ele>226</ele>
        <time>2016-03-20T09:13:53Z</time>
      </trkpt>
      <trkpt lat="45.5996" lon="4.85234">
        <ele>226</ele>
        <time>2016-03-20T09:13:55Z</time>
      </trkpt>
      <trkpt lat="45.59963" lon="4.85217">
        <ele>226</ele>
        <time>2016-03-20T09:13:57Z</time>
      </trkpt>
      <trkpt lat="45.59963" lon="4.85198">
        <ele>226</ele>
        <time>2016-03-20T09:13:59Z</time>
      </trkpt>
      <trkpt lat="45.59963" lon="4.8518">
        <ele>226.1</ele>
        <time>2016-03-20T09:14:01Z</time>
      </trkpt>
      <trkpt lat="45.59964" lon="4.8516">
        <ele>226.2</ele>
        <time>2016-03-20T09:14:03Z</time>
      </trkpt>
      <trkpt lat="45.59963" lon="4.85141">
        <ele>226.3</ele>
        <time>2016-03-20T09:14:05Z</time>
      </trkpt>
      <trkpt lat="45.59959" lon="4.85121">
        <ele>226.4</ele>
        <time>2016-03-20T09:14:07Z</time>
      </trkpt>
      <trkpt lat="45.59951" lon="4.85104">
        <ele>226.5</ele>
        <time>2016-03-20T09:14:09Z</time>
      </trkpt>
      <trkpt lat="45.5994" lon="4.8509">
        <ele>226.6</ele>
        <time>2016-03-20T09:14:11Z</time>
      </trkpt>
      <trkpt lat="45.59928" lon="4.85078">
        <ele>226.7</ele>
        <time>2016-03-20T09:14:13Z</time>
      </trkpt>
      <trkpt lat="45.59914" lon="4.8507">
        <ele>226.8</ele>
        <time>2016-03-20T09:14:15Z</time>
      </trkpt>
      <trkpt lat="45.59901" lon="4.85065">
        <ele>226.9</ele>
        <time>2016-03-20T09:14:17Z</time>
      </trkpt>
      <trkpt lat="45.59888" lon="4.8506">
        <ele>226.9</ele>
        <time>2016-03-20T09:14:19Z</time>
      </trkpt>
      <trkpt lat="45.59876" lon="4.85055">
        <ele>227</ele>
        <time>2016-03-20T09:14:21Z</time>
      </trkpt>
      <trkpt lat="45.59863" lon="4.8505">
        <ele>227.1</ele>
        <time>2016-03-20T09:14:23Z</time>
      </trkpt>
      <trkpt lat="45.59851" lon="4.85044">
        <ele>227.2</ele>
        <time>2016-03-20T09:14:25Z</time>
      </trkpt>
      <trkpt lat="45.59839" lon="4.85038">
        <ele>227.3</ele>
        <time>2016-03-20T09:14:27Z</time>
      </trkpt>
      <trkpt lat="45.59828" lon="4.8503">
        <ele>227.4</ele>
        <time>2016-03-20T09:14:29Z</time>
      </trkpt>
      <trkpt lat="45.59818" lon="4.8502">
        <ele>227.5</ele>
        <time>2016-03-20T09:14:31Z</time>
      </trkpt>
      <trkpt lat="45.59808" lon="4.8501">
        <ele>227.5</ele>
        <time>2016-03-20T09:14:33Z</time>
      </trkpt>
      <trkpt lat="45.598" lon="4.85">
        <ele>227.6</ele>
        <time>2016-03-20T09:14:35Z</time>
      </trkpt>
      <trkpt lat="45.59794" lon="4.84989">
        <ele>227.7</ele>
        <time>2016-03-20T09:14:37Z</time>
      </trkpt>
      <trkpt lat="45.59788" lon="4.84979">
        <ele>227.8</ele>
        <time>2016-03-20T09:14:39Z</time>
      </trkpt>
      <trkpt lat="45.59783" lon="4.84968">
        <ele>227.8</ele>
        <time>2016-03-20T09:14:41Z</time>
      </trkpt>
      <trkpt lat="45.59778" lon="4.84957">
        <ele>227.9</ele>
        <time>2016-03-20T09:14:43Z</time>
      </trkpt>
      <trkpt lat="45.59774" lon="4.84945">
        <ele>227.9</ele>
        <time>2016-03-20T09:14:45Z</time>
      </trkpt>
      <trkpt lat="45.59767" lon="4.84942">
        <ele>228.2</ele>
        <time>2016-03-20T09:14:47Z</time>
      </trkpt>
      <trkpt lat="45.59764" lon="4.84946">
        <ele>228.4</ele>
        <time>2016-03-20T09:14:49Z</time>
      </trkpt>
      <trkpt lat="45.59762" lon="4.8495">
        <ele>228.3</ele>
        <time>2016-03-20T09:14:51Z</time>
      </trkpt>
      <trkpt lat="45.59762" lon="4.84956">
        <ele>228.3</ele>
        <time>2016-03-20T09:14:53Z</time>
      </trkpt>
      <trkpt lat="45.59761" lon="4.84963">
        <ele>228</ele>
        <time>2016-03-20T09:14:55Z</time>
      </trkpt>
      <trkpt lat="45.59758" lon="4.84972">
        <ele>227.7</ele>
        <time>2016-03-20T09:14:57Z</time>
      </trkpt>
      <trkpt lat="45.59753" lon="4.8498">
        <ele>227.5</ele>
        <time>2016-03-20T09:14:59Z</time>
      </trkpt>
      <trkpt lat="45.59744" lon="4.84981">
        <ele>228</ele>
        <time>2016-03-20T09:15:01Z</time>
      </trkpt>
      <trkpt lat="45.59736" lon="4.84978">
        <ele>228.6</ele>
        <time>2016-03-20T09:15:03Z</time>
      </trkpt>
      <trkpt lat="45.59726" lon="4.84974">
        <ele>229.2</ele>
        <time>2016-03-20T09:15:05Z</time>
      </trkpt>
      <trkpt lat="45.59717" lon="4.84969">
        <ele>229.8</ele>
        <time>2016-03-20T09:15:07Z</time>
      </trkpt>
      <trkpt lat="45.59707" lon="4.84965">
        <ele>230.4</ele>
        <time>2016-03-20T09:15:09Z</time>
      </trkpt>
      <trkpt lat="45.59697" lon="4.8496">
        <ele>231.1</ele>
        <time>2016-03-20T09:15:11Z</time>
      </trkpt>
      <trkpt lat="45.59687" lon="4.84956">
        <ele>231.8</ele>
        <time>2016-03-20T09:15:13Z</time>
      </trkpt>
      <trkpt lat="45.59678" lon="4.84953">
        <ele>232.5</ele>
        <time>2016-03-20T09:15:15Z</time>
      </trkpt>
      <trkpt lat="45.59669" lon="4.84951">
        <ele>232.9</ele>
        <time>2016-03-20T09:15:17Z</time>
      </trkpt>
      <trkpt lat="45.5966" lon="4.84948">
        <ele>233.2</ele>
        <time>2016-03-20T09:15:19Z</time>
      </trkpt>
      <trkpt lat="45.59651" lon="4.84945">
        <ele>233.6</ele>
        <time>2016-03-20T09:15:21Z</time>
      </trkpt>
      <trkpt lat="45.59641" lon="4.84941">
        <ele>234.3</ele>
        <time>2016-03-20T09:15:23Z</time>
      </trkpt>
      <trkpt lat="45.59632" lon="4.84936">
        <ele>235.1</ele>
        <time>2016-03-20T09:15:25Z</time>
      </trkpt>
      <trkpt lat="45.59623" lon="4.84932">
        <ele>235.9</ele>
        <time>2016-03-20T09:15:27Z</time>
      </trkpt>
      <trkpt lat="45.59617" lon="4.8493">
        <ele>236.5</ele>
        <time>2016-03-20T09:15:29Z</time>
      </trkpt>
      <trkpt lat="45.59612" lon="4.84929">
        <ele>237.1</ele>
        <time>2016-03-20T09:15:31Z</time>
      </trkpt>
      <trkpt lat="45.59604" lon="4.84925">
        <ele>237.9</ele>
        <time>2016-03-20T09:15:33Z</time>
      </trkpt>
      <trkpt lat="45.59596" lon="4.8492">
        <ele>238.9</ele>
        <time>2016-03-20T09:15:35Z</time>
      </trkpt>
      <trkpt lat="45.59589" lon="4.84916">
        <ele>239.5</ele>
        <time>2016-03-20T09:15:37Z</time>
      </trkpt>
      <trkpt lat="45.59583" lon="4.84914">
        <ele>239.9</ele>
        <time>2016-03-20T09:15:39Z</time>
      </trkpt>
      <trkpt lat="45.59578" lon="4.84911">
        <ele>240.2</ele>
        <time>2016-03-20T09:15:41Z</time>
      </trkpt>
      <trkpt lat="45.59572" lon="4.84908">
        <ele>240.5</ele>
        <time>2016-03-20T09:15:43Z</time>
      </trkpt>
      <trkpt lat="45.59568" lon="4.84902">
        <ele>240.8</ele>
        <time>2016-03-20T09:15:45Z</time>
      </trkpt>
      <trkpt lat="45.59565" lon="4.84895">
        <ele>240.9</ele>
        <time>2016-03-20T09:15:47Z</time>
      </trkpt>
      <trkpt lat="45.59561" lon="4.84889">
        <ele>241</ele>
        <time>2016-03-20T09:15:49Z</time>
      </trkpt>
      <trkpt lat="45.59557" lon="4.84881">
        <ele>241</ele>
        <time>2016-03-20T09:15:51Z</time>
      </trkpt>
      <trkpt lat="45.59554" lon="4.84874">
        <ele>240.9</ele>
        <time>2016-03-20T09:15:53Z</time>
      </trkpt>
      <trkpt lat="45.5955" lon="4.84865">
        <ele>240.9</ele>
        <time>2016-03-20T09:15:55Z</time>
      </trkpt>
      <trkpt lat="45.59547" lon="4.84856">
        <ele>241</ele>
        <time>2016-03-20T09:15:57Z</time>
      </trkpt>
      <trkpt lat="45.59546" lon="4.84847">
        <ele>241.1</ele>
        <time>2016-03-20T09:15:59Z</time>
      </trkpt>
      <trkpt lat="45.59546" lon="4.8484">
        <ele>241</ele>
        <time>2016-03-20T09:16:01Z</time>
      </trkpt>
      <trkpt lat="45.59547" lon="4.84835">
        <ele>241</ele>
        <time>2016-03-20T09:16:03Z</time>
      </trkpt>
      <trkpt lat="45.59548" lon="4.84829">
        <ele>241</ele>
        <time>2016-03-20T09:16:05Z</time>
      </trkpt>
      <trkpt lat="45.59549" lon="4.84821">
        <ele>241.1</ele>
        <time>2016-03-20T09:16:07Z</time>
      </trkpt>
      <trkpt lat="45.59549" lon="4.84815">
        <ele>241.3</ele>
        <time>2016-03-20T09:16:09Z</time>
      </trkpt>
      <trkpt lat="45.59549" lon="4.84808">
        <ele>241.5</ele>
        <time>2016-03-20T09:16:11Z</time>
      </trkpt>
      <trkpt lat="45.59549" lon="4.84802">
        <ele>241.8</ele>
        <time>2016-03-20T09:16:13Z</time>
      </trkpt>
      <trkpt lat="45.59549" lon="4.84794">
        <ele>242.1</ele>
        <time>2016-03-20T09:16:15Z</time>
      </trkpt>
      <trkpt lat="45.59549" lon="4.84786">
        <ele>242.4</ele>
        <time>2016-03-20T09:16:17Z</time>
      </trkpt>
      <trkpt lat="45.59548" lon="4.84778">
        <ele>242.8</ele>
        <time>2016-03-20T09:16:19Z</time>
      </trkpt>
      <trkpt lat="45.59547" lon="4.84771">
        <ele>243.1</ele>
        <time>2016-03-20T09:16:21Z</time>
      </trkpt>
      <trkpt lat="45.59546" lon="4.84764">
        <ele>243.4</ele>
        <time>2016-03-20T09:16:23Z</time>
      </trkpt>
      <trkpt lat="45.59544" lon="4.84757">
        <ele>243.6</ele>
        <time>2016-03-20T09:16:25Z</time>
      </trkpt>
      <trkpt lat="45.59541" lon="4.8475">
        <ele>243.8</ele>
        <time>2016-03-20T09:16:27Z</time>
      </trkpt>
      <trkpt lat="45.59539" lon="4.84743">
        <ele>243.9</ele>
        <time>2016-03-20T09:16:29Z</time>
      </trkpt>
      <trkpt lat="45.59538" lon="4.84735">
        <ele>244.1</ele>
        <time>2016-03-20T09:16:31Z</time>
      </trkpt>
      <trkpt lat="45.59536" lon="4.84728">
        <ele>244.4</ele>
        <time>2016-03-20T09:16:33Z</time>
      </trkpt>
      <trkpt lat="45.59535" lon="4.8472">
        <ele>244.9</ele>
        <time>2016-03-20T09:16:35Z</time>
      </trkpt>
      <trkpt lat="45.59533" lon="4.84713">
        <ele>245.6</ele>
        <time>2016-03-20T09:16:37Z</time>
      </trkpt>
      <trkpt lat="45.59532" lon="4.84706">
        <ele>246.3</ele>
        <time>2016-03-20T09:16:39Z</time>
      </trkpt>
      <trkpt lat="45.5953" lon="4.84699">
        <ele>247.2</ele>
        <time>2016-03-20T09:16:41Z</time>
      </trkpt>
      <trkpt lat="45.59527" lon="4.84692">
        <ele>247.7</ele>
        <time>2016-03-20T09:16:43Z</time>
      </trkpt>
      <trkpt lat="45.59525" lon="4.84686">
        <ele>248.1</ele>
        <time>2016-03-20T09:16:45Z</time>
      </trkpt>
      <trkpt lat="45.59523" lon="4.8468">
        <ele>248.4</ele>
        <time>2016-03-20T09:16:47Z</time>
      </trkpt>
      <trkpt lat="45.59521" lon="4.84675">
        <ele>248.7</ele>
        <time>2016-03-20T09:16:49Z</time>
      </trkpt>
      <trkpt lat="45.59519" lon="4.8467">
        <ele>249.1</ele>
        <time>2016-03-20T09:16:51Z</time>
      </trkpt>
      <trkpt lat="45.59518" lon="4.84666">
        <ele>249.7</ele>
        <time>2016-03-20T09:16:53Z</time>
      </trkpt>
      <trkpt lat="45.5952" lon="4.84662">
        <ele>250</ele>
        <time>2016-03-20T09:16:55Z</time>
      </trkpt>
      <trkpt lat="45.59522" lon="4.84658">
        <ele>250</ele>
        <time>2016-03-20T09:16:57Z</time>
      </trkpt>
      <trkpt lat="45.59522" lon="4.84655">
        <ele>250.3</ele>
        <time>2016-03-20T09:16:59Z</time>
      </trkpt>
      <trkpt lat="45.59524" lon="4.84651">
        <ele>251.1</ele>
        <time>2016-03-20T09:17:01Z</time>
      </trkpt>
      <trkpt lat="45.59525" lon="4.84648">
        <ele>251.8</ele>
        <time>2016-03-20T09:17:03Z</time>
      </trkpt>
      <trkpt lat="45.59526" lon="4.84644">
        <ele>252.2</ele>
        <time>2016-03-20T09:17:05Z</time>
      </trkpt>
      <trkpt lat="45.59526" lon="4.84642">
        <ele>252.4</ele>
        <time>2016-03-20T09:17:07Z</time>
      </trkpt>
      <trkpt lat="45.59527" lon="4.84641">
        <ele>252.6</ele>
        <time>2016-03-20T09:17:09Z</time>
      </trkpt>
      <trkpt lat="45.59529" lon="4.84639">
        <ele>252.9</ele>
        <time>2016-03-20T09:17:11Z</time>
      </trkpt>
      <trkpt lat="45.5953" lon="4.84638">
        <ele>253</ele>
        <time>2016-03-20T09:17:13Z</time>
      </trkpt>
      <trkpt lat="45.59536" lon="4.84633">
        <ele>253.4</ele>
        <time>2016-03-20T09:17:27Z</time>
      </trkpt>
      <trkpt lat="45.59539" lon="4.84632">
        <ele>253.4</ele>
        <time>2016-03-20T09:17:29Z</time>
      </trkpt>
      <trkpt lat="45.59541" lon="4.84631">
        <ele>253.4</ele>
        <time>2016-03-20T09:17:31Z</time>
      </trkpt>
      <trkpt lat="45.59544" lon="4.84629">
        <ele>253.5</ele>
        <time>2016-03-20T09:17:33Z</time>
      </trkpt>
      <trkpt lat="45.59546" lon="4.84628">
        <ele>253.9</ele>
        <time>2016-03-20T09:17:35Z</time>
      </trkpt>
      <trkpt lat="45.59549" lon="4.84626">
        <ele>254.4</ele>
        <time>2016-03-20T09:17:39Z</time>
      </trkpt>
      <trkpt lat="45.59551" lon="4.84625">
        <ele>254.8</ele>
        <time>2016-03-20T09:17:41Z</time>
      </trkpt>
      <trkpt lat="45.59555" lon="4.84624">
        <ele>255.2</ele>
        <time>2016-03-20T09:17:51Z</time>
      </trkpt>
      <trkpt lat="45.59557" lon="4.84624">
        <ele>255.4</ele>
        <time>2016-03-20T09:17:53Z</time>
      </trkpt>
      <trkpt lat="45.59559" lon="4.84625">
        <ele>255.4</ele>
        <time>2016-03-20T09:17:55Z</time>
      </trkpt>
      <trkpt lat="45.59562" lon="4.84624">
        <ele>255.4</ele>
        <time>2016-03-20T09:17:57Z</time>
      </trkpt>
      <trkpt lat="45.59565" lon="4.84622">
        <ele>256.3</ele>
        <time>2016-03-20T09:17:59Z</time>
      </trkpt>
      <trkpt lat="45.59567" lon="4.8462">
        <ele>257.4</ele>
        <time>2016-03-20T09:18:01Z</time>
      </trkpt>
      <trkpt lat="45.5957" lon="4.84618">
        <ele>258.6</ele>
        <time>2016-03-20T09:18:03Z</time>
      </trkpt>
      <trkpt lat="45.59572" lon="4.84615">
        <ele>258.9</ele>
        <time>2016-03-20T09:18:05Z</time>
      </trkpt>
      <trkpt lat="45.59574" lon="4.84612">
        <ele>258.9</ele>
        <time>2016-03-20T09:18:07Z</time>
      </trkpt>
      <trkpt lat="45.59575" lon="4.84608">
        <ele>259.1</ele>
        <time>2016-03-20T09:18:09Z</time>
      </trkpt>
      <trkpt lat="45.59576" lon="4.84605">
        <ele>259.8</ele>
        <time>2016-03-20T09:18:11Z</time>
      </trkpt>
      <trkpt lat="45.59578" lon="4.84601">
        <ele>260.6</ele>
        <time>2016-03-20T09:18:13Z</time>
      </trkpt>
      <trkpt lat="45.59578" lon="4.84599">
        <ele>261.1</ele>
        <time>2016-03-20T09:18:15Z</time>
      </trkpt>
      <trkpt lat="45.59577" lon="4.84598">
        <ele>261.3</ele>
        <time>2016-03-20T09:18:17Z</time>
      </trkpt>
      <trkpt lat="45.59578" lon="4.84596">
        <ele>261.6</ele>
        <time>2016-03-20T09:18:19Z</time>
      </trkpt>
      <trkpt lat="45.59577" lon="4.84593">
        <ele>261.9</ele>
        <time>2016-03-20T09:18:21Z</time>
      </trkpt>
      <trkpt lat="45.59577" lon="4.84591">
        <ele>262.1</ele>
        <time>2016-03-20T09:18:23Z</time>
      </trkpt>
      <trkpt lat="45.59577" lon="4.84589">
        <ele>262.6</ele>
        <time>2016-03-20T09:18:25Z</time>
      </trkpt>
      <trkpt lat="45.59577" lon="4.84584">
        <ele>263.7</ele>
        <time>2016-03-20T09:18:29Z</time>
      </trkpt>
      <trkpt lat="45.59577" lon="4.84581">
        <ele>264.4</ele>
        <time>2016-03-20T09:18:31Z</time>
      </trkpt>
      <trkpt lat="45.59577" lon="4.84579">
        <ele>265</ele>
        <time>2016-03-20T09:18:33Z</time>
      </trkpt>
      <trkpt lat="45.59577" lon="4.84576">
        <ele>265.2</ele>
        <time>2016-03-20T09:18:35Z</time>
      </trkpt>
      <trkpt lat="45.59576" lon="4.84573">
        <ele>265.5</ele>
        <time>2016-03-20T09:18:37Z</time>
      </trkpt>
      <trkpt lat="45.59576" lon="4.84571">
        <ele>265.8</ele>
        <time>2016-03-20T09:18:39Z</time>
      </trkpt>
      <trkpt lat="45.59575" lon="4.84568">
        <ele>266</ele>
        <time>2016-03-20T09:18:41Z</time>
      </trkpt>
      <trkpt lat="45.59576" lon="4.84565">
        <ele>266.4</ele>
        <time>2016-03-20T09:18:43Z</time>
      </trkpt>
      <trkpt lat="45.59575" lon="4.84561">
        <ele>266.7</ele>
        <time>2016-03-20T09:18:45Z</time>
      </trkpt>
      <trkpt lat="45.59575" lon="4.84558">
        <ele>267</ele>
        <time>2016-03-20T09:18:47Z</time>
      </trkpt>
      <trkpt lat="45.59575" lon="4.84555">
        <ele>267.3</ele>
        <time>2016-03-20T09:18:49Z</time>
      </trkpt>
      <trkpt lat="45.59574" lon="4.84553">
        <ele>267.5</ele>
        <time>2016-03-20T09:18:51Z</time>
      </trkpt>
      <trkpt lat="45.59574" lon="4.84547">
        <ele>267.9</ele>
        <time>2016-03-20T09:18:55Z</time>
      </trkpt>
      <trkpt lat="45.59574" lon="4.84543">
        <ele>268.1</ele>
        <time>2016-03-20T09:18:57Z</time>
      </trkpt>
      <trkpt lat="45.59573" lon="4.8454">
        <ele>268.3</ele>
        <time>2016-03-20T09:18:59Z</time>
      </trkpt>
      <trkpt lat="45.59573" lon="4.84536">
        <ele>268.5</ele>
        <time>2016-03-20T09:19:01Z</time>
      </trkpt>
      <trkpt lat="45.59573" lon="4.84533">
        <ele>268.8</ele>
        <time>2016-03-20T09:19:03Z</time>
      </trkpt>
      <trkpt lat="45.59572" lon="4.8453">
        <ele>269.1</ele>
        <time>2016-03-20T09:19:05Z</time>
      </trkpt>
      <trkpt lat="45.59572" lon="4.84527">
        <ele>269.2</ele>
        <time>2016-03-20T09:19:07Z</time>
      </trkpt>
      <trkpt lat="45.59571" lon="4.84524">
        <ele>269.3</ele>
        <time>2016-03-20T09:19:09Z</time>
      </trkpt>
      <trkpt lat="45.5957" lon="4.8452">
        <ele>269.3</ele>
        <time>2016-03-20T09:19:11Z</time>
      </trkpt>
      <trkpt lat="45.59569" lon="4.84517">
        <ele>269.4</ele>
        <time>2016-03-20T09:19:13Z</time>
      </trkpt>
      <trkpt lat="45.59568" lon="4.84513">
        <ele>269.3</ele>
        <time>2016-03-20T09:19:15Z</time>
      </trkpt>
      <trkpt lat="45.59567" lon="4.8451">
        <ele>269.3</ele>
        <time>2016-03-20T09:19:17Z</time>
      </trkpt>
      <trkpt lat="45.59566" lon="4.84505">
        <ele>269.2</ele>
        <time>2016-03-20T09:19:19Z</time>
      </trkpt>
      <trkpt lat="45.59565" lon="4.84501">
        <ele>269</ele>
        <time>2016-03-20T09:19:21Z</time>
      </trkpt>
      <trkpt lat="45.59564" lon="4.84496">
        <ele>268.8</ele>
        <time>2016-03-20T09:19:23Z</time>
      </trkpt>
      <trkpt lat="45.59563" lon="4.84493">
        <ele>268.6</ele>
        <time>2016-03-20T09:19:25Z</time>
      </trkpt>
      <trkpt lat="45.59563" lon="4.84489">
        <ele>268.4</ele>
        <time>2016-03-20T09:19:27Z</time>
      </trkpt>
      <trkpt lat="45.59562" lon="4.84485">
        <ele>268.2</ele>
        <time>2016-03-20T09:19:29Z</time>
      </trkpt>
      <trkpt lat="45.59561" lon="4.84481">
        <ele>268</ele>
        <time>2016-03-20T09:19:31Z</time>
      </trkpt>
      <trkpt lat="45.59561" lon="4.84476">
        <ele>267.8</ele>
        <time>2016-03-20T09:19:33Z</time>
      </trkpt>
      <trkpt lat="45.59561" lon="4.84471">
        <ele>267.6</ele>
        <time>2016-03-20T09:19:35Z</time>
      </trkpt>
      <trkpt lat="45.5956" lon="4.84466">
        <ele>267.4</ele>
        <time>2016-03-20T09:19:37Z</time>
      </trkpt>
      <trkpt lat="45.5956" lon="4.84462">
        <ele>267.2</ele>
        <time>2016-03-20T09:19:39Z</time>
      </trkpt>
      <trkpt lat="45.5956" lon="4.84455">
        <ele>266.9</ele>
        <time>2016-03-20T09:19:41Z</time>
      </trkpt>
      <trkpt lat="45.5956" lon="4.84447">
        <ele>266.5</ele>
        <time>2016-03-20T09:19:43Z</time>
      </trkpt>
      <trkpt lat="45.5956" lon="4.8444">
        <ele>266.2</ele>
        <time>2016-03-20T09:19:45Z</time>
      </trkpt>
      <trkpt lat="45.59559" lon="4.84432">
        <ele>265.8</ele>
        <time>2016-03-20T09:19:47Z</time>
      </trkpt>
      <trkpt lat="45.59558" lon="4.84424">
        <ele>265.4</ele>
        <time>2016-03-20T09:19:49Z</time>
      </trkpt>
      <trkpt lat="45.59558" lon="4.84416">
        <ele>265.4</ele>
        <time>2016-03-20T09:19:51Z</time>
      </trkpt>
      <trkpt lat="45.59559" lon="4.84409">
        <ele>265.4</ele>
        <time>2016-03-20T09:19:53Z</time>
      </trkpt>
      <trkpt lat="45.59559" lon="4.84401">
        <ele>265.4</ele>
        <time>2016-03-20T09:19:55Z</time>
      </trkpt>
      <trkpt lat="45.5956" lon="4.84394">
        <ele>265.6</ele>
        <time>2016-03-20T09:19:57Z</time>
      </trkpt>
      <trkpt lat="45.59562" lon="4.84387">
        <ele>265.5</ele>
        <time>2016-03-20T09:19:59Z</time>
      </trkpt>
      <trkpt lat="45.59563" lon="4.84379">
        <ele>265.3</ele>
        <time>2016-03-20T09:20:01Z</time>
      </trkpt>
      <trkpt lat="45.59564" lon="4.84371">
        <ele>265.3</ele>
        <time>2016-03-20T09:20:03Z</time>
      </trkpt>
      <trkpt lat="45.59565" lon="4.84364">
        <ele>265.3</ele>
        <time>2016-03-20T09:20:05Z</time>
      </trkpt>
      <trkpt lat="45.59568" lon="4.84358">
        <ele>265.8</ele>
        <time>2016-03-20T09:20:07Z</time>
      </trkpt>
      <trkpt lat="45.5957" lon="4.8435">
        <ele>266.5</ele>
        <time>2016-03-20T09:20:09Z</time>
      </trkpt>
      <trkpt lat="45.59572" lon="4.84343">
        <ele>266.7</ele>
        <time>2016-03-20T09:20:11Z</time>
      </trkpt>
      <trkpt lat="45.59573" lon="4.84336">
        <ele>267.3</ele>
        <time>2016-03-20T09:20:13Z</time>
      </trkpt>
      <trkpt lat="45.59575" lon="4.84329">
        <ele>267.6</ele>
        <time>2016-03-20T09:20:15Z</time>
      </trkpt>
      <trkpt lat="45.59577" lon="4.84321">
        <ele>267.6</ele>
        <time>2016-03-20T09:20:17Z</time>
      </trkpt>
      <trkpt lat="45.59579" lon="4.84312">
        <ele>267.4</ele>
        <time>2016-03-20T09:20:19Z</time>
      </trkpt>
      <trkpt lat="45.5958" lon="4.84303">
        <ele>267.1</ele>
        <time>2016-03-20T09:20:21Z</time>
      </trkpt>
      <trkpt lat="45.59582" lon="4.84295">
        <ele>266.9</ele>
        <time>2016-03-20T09:20:23Z</time>
      </trkpt>
      <trkpt lat="45.59583" lon="4.84286">
        <ele>266.5</ele>
        <time>2016-03-20T09:20:25Z</time>
      </trkpt>
      <trkpt lat="45.59585" lon="4.84276">
        <ele>266.1</ele>
        <time>2016-03-20T09:20:27Z</time>
      </trkpt>
      <trkpt lat="45.59586" lon="4.84267">
        <ele>265.6</ele>
        <time>2016-03-20T09:20:29Z</time>
      </trkpt>
      <trkpt lat="45.59589" lon="4.84258">
        <ele>265.1</ele>
        <time>2016-03-20T09:20:31Z</time>
      </trkpt>
      <trkpt lat="45.59591" lon="4.84249">
        <ele>264.9</ele>
        <time>2016-03-20T09:20:33Z</time>
      </trkpt>
      <trkpt lat="45.59592" lon="4.84241">
        <ele>264.9</ele>
        <time>2016-03-20T09:20:35Z</time>
      </trkpt>
      <trkpt lat="45.59594" lon="4.84232">
        <ele>265.1</ele>
        <time>2016-03-20T09:20:37Z</time>
      </trkpt>
      <trkpt lat="45.59597" lon="4.84224">
        <ele>265.3</ele>
        <time>2016-03-20T09:20:39Z</time>
      </trkpt>
      <trkpt lat="45.596" lon="4.84217">
        <ele>265.2</ele>
        <time>2016-03-20T09:20:41Z</time>
      </trkpt>
      <trkpt lat="45.59603" lon="4.84209">
        <ele>264.8</ele>
        <time>2016-03-20T09:20:43Z</time>
      </trkpt>
      <trkpt lat="45.59606" lon="4.84202">
        <ele>264.6</ele>
        <time>2016-03-20T09:20:45Z</time>
      </trkpt>
      <trkpt lat="45.59609" lon="4.84195">
        <ele>264.5</ele>
        <time>2016-03-20T09:20:47Z</time>
      </trkpt>
      <trkpt lat="45.59611" lon="4.84189">
        <ele>264.4</ele>
        <time>2016-03-20T09:20:49Z</time>
      </trkpt>
      <trkpt lat="45.59613" lon="4.84183">
        <ele>264.9</ele>
        <time>2016-03-20T09:20:51Z</time>
      </trkpt>
      <trkpt lat="45.59615" lon="4.84176">
        <ele>265.2</ele>
        <time>2016-03-20T09:20:53Z</time>
      </trkpt>
      <trkpt lat="45.59619" lon="4.84168">
        <ele>265.6</ele>
        <time>2016-03-20T09:20:55Z</time>
      </trkpt>
      <trkpt lat="45.59623" lon="4.8416">
        <ele>265.7</ele>
        <time>2016-03-20T09:20:57Z</time>
      </trkpt>
      <trkpt lat="45.59627" lon="4.84151">
        <ele>265.7</ele>
        <time>2016-03-20T09:20:59Z</time>
      </trkpt>
      <trkpt lat="45.59631" lon="4.84143">
        <ele>265.5</ele>
        <time>2016-03-20T09:21:01Z</time>
      </trkpt>
      <trkpt lat="45.59634" lon="4.84134">
        <ele>265.2</ele>
        <time>2016-03-20T09:21:03Z</time>
      </trkpt>
      <trkpt lat="45.59636" lon="4.84124">
        <ele>264.7</ele>
        <time>2016-03-20T09:21:05Z</time>
      </trkpt>
      <trkpt lat="45.59638" lon="4.84112">
        <ele>264.2</ele>
        <time>2016-03-20T09:21:07Z</time>
      </trkpt>
      <trkpt lat="45.59638" lon="4.84099">
        <ele>263.2</ele>
        <time>2016-03-20T09:21:09Z</time>
      </trkpt>
      <trkpt lat="45.59639" lon="4.84084">
        <ele>261.8</ele>
        <time>2016-03-20T09:21:11Z</time>
      </trkpt>
      <trkpt lat="45.59639" lon="4.8407">
        <ele>261.1</ele>
        <time>2016-03-20T09:21:13Z</time>
      </trkpt>
      <trkpt lat="45.59641" lon="4.84058">
        <ele>260.7</ele>
        <time>2016-03-20T09:21:15Z</time>
      </trkpt>
      <trkpt lat="45.59641" lon="4.84047">
        <ele>260.6</ele>
        <time>2016-03-20T09:21:17Z</time>
      </trkpt>
      <trkpt lat="45.59641" lon="4.84038">
        <ele>260.5</ele>
        <time>2016-03-20T09:21:19Z</time>
      </trkpt>
      <trkpt lat="45.59641" lon="4.84029">
        <ele>260.5</ele>
        <time>2016-03-20T09:21:21Z</time>
      </trkpt>
      <trkpt lat="45.59641" lon="4.84021">
        <ele>260.5</ele>
        <time>2016-03-20T09:21:23Z</time>
      </trkpt>
      <trkpt lat="45.59639" lon="4.84013">
        <ele>260.5</ele>
        <time>2016-03-20T09:21:25Z</time>
      </trkpt>
      <trkpt lat="45.59637" lon="4.84005">
        <ele>260.5</ele>
        <time>2016-03-20T09:21:27Z</time>
      </trkpt>
      <trkpt lat="45.59634" lon="4.83997">
        <ele>260.5</ele>
        <time>2016-03-20T09:21:29Z</time>
      </trkpt>
      <trkpt lat="45.5963" lon="4.8399">
        <ele>260.4</ele>
        <time>2016-03-20T09:21:31Z</time>
      </trkpt>
      <trkpt lat="45.59627" lon="4.83983">
        <ele>260.3</ele>
        <time>2016-03-20T09:21:33Z</time>
      </trkpt>
      <trkpt lat="45.59624" lon="4.83975">
        <ele>259.8</ele>
        <time>2016-03-20T09:21:35Z</time>
      </trkpt>
      <trkpt lat="45.59621" lon="4.83967">
        <ele>259.2</ele>
        <time>2016-03-20T09:21:37Z</time>
      </trkpt>
      <trkpt lat="45.59618" lon="4.83957">
        <ele>258.5</ele>
        <time>2016-03-20T09:21:39Z</time>
      </trkpt>
      <trkpt lat="45.59615" lon="4.83947">
        <ele>258</ele>
        <time>2016-03-20T09:21:41Z</time>
      </trkpt>
      <trkpt lat="45.59611" lon="4.83937">
        <ele>257.7</ele>
        <time>2016-03-20T09:21:43Z</time>
      </trkpt>
      <trkpt lat="45.59608" lon="4.83926">
        <ele>257</ele>
        <time>2016-03-20T09:21:45Z</time>
      </trkpt>
      <trkpt lat="45.59604" lon="4.83915">
        <ele>256.4</ele>
        <time>2016-03-20T09:21:47Z</time>
      </trkpt>
      <trkpt lat="45.596" lon="4.83904">
        <ele>255.3</ele>
        <time>2016-03-20T09:21:49Z</time>
      </trkpt>
      <trkpt lat="45.59596" lon="4.83893">
        <ele>254.8</ele>
        <time>2016-03-20T09:21:51Z</time>
      </trkpt>
      <trkpt lat="45.59591" lon="4.83879">
        <ele>253.6</ele>
        <time>2016-03-20T09:21:53Z</time>
      </trkpt>
      <trkpt lat="45.59586" lon="4.83863">
        <ele>252.6</ele>
        <time>2016-03-20T09:21:55Z</time>
      </trkpt>
      <trkpt lat="45.5958" lon="4.83847">
        <ele>253.2</ele>
        <time>2016-03-20T09:21:57Z</time>
      </trkpt>
      <trkpt lat="45.59572" lon="4.83831">
        <ele>253.2</ele>
        <time>2016-03-20T09:21:59Z</time>
      </trkpt>
      <trkpt lat="45.59566" lon="4.83815">
        <ele>251</ele>
        <time>2016-03-20T09:22:01Z</time>
      </trkpt>
      <trkpt lat="45.59561" lon="4.83801">
        <ele>249.8</ele>
        <time>2016-03-20T09:22:03Z</time>
      </trkpt>
      <trkpt lat="45.59562" lon="4.83794">
        <ele>249.5</ele>
        <time>2016-03-20T09:22:05Z</time>
      </trkpt>
      <trkpt lat="45.59567" lon="4.8379">
        <ele>249</ele>
        <time>2016-03-20T09:22:07Z</time>
      </trkpt>
      <trkpt lat="45.59575" lon="4.83789">
        <ele>248.4</ele>
        <time>2016-03-20T09:22:09Z</time>
      </trkpt>
      <trkpt lat="45.59584" lon="4.83789">
        <ele>247.9</ele>
        <time>2016-03-20T09:22:11Z</time>
      </trkpt>
      <trkpt lat="45.59596" lon="4.83789">
        <ele>246.7</ele>
        <time>2016-03-20T09:22:13Z</time>
      </trkpt>
      <trkpt lat="45.5961" lon="4.83787">
        <ele>245.7</ele>
        <time>2016-03-20T09:22:15Z</time>
      </trkpt>
      <trkpt lat="45.59626" lon="4.83787">
        <ele>244.7</ele>
        <time>2016-03-20T09:22:17Z</time>
      </trkpt>
      <trkpt lat="45.59645" lon="4.83785">
        <ele>243.2</ele>
        <time>2016-03-20T09:22:19Z</time>
      </trkpt>
      <trkpt lat="45.59665" lon="4.83784">
        <ele>241.4</ele>
        <time>2016-03-20T09:22:21Z</time>
      </trkpt>
      <trkpt lat="45.59688" lon="4.83782">
        <ele>239.5</ele>
        <time>2016-03-20T09:22:23Z</time>
      </trkpt>
      <trkpt lat="45.59711" lon="4.8378">
        <ele>238.4</ele>
        <time>2016-03-20T09:22:25Z</time>
      </trkpt>
      <trkpt lat="45.59734" lon="4.83778">
        <ele>237.3</ele>
        <time>2016-03-20T09:22:27Z</time>
      </trkpt>
      <trkpt lat="45.59756" lon="4.83775">
        <ele>236.3</ele>
        <time>2016-03-20T09:22:29Z</time>
      </trkpt>
      <trkpt lat="45.59774" lon="4.83774">
        <ele>236</ele>
        <time>2016-03-20T09:22:31Z</time>
      </trkpt>
      <trkpt lat="45.59786" lon="4.83773">
        <ele>236</ele>
        <time>2016-03-20T09:22:33Z</time>
      </trkpt>
      <trkpt lat="45.59793" lon="4.83766">
        <ele>235.9</ele>
        <time>2016-03-20T09:22:35Z</time>
      </trkpt>
      <trkpt lat="45.59792" lon="4.83756">
        <ele>235.7</ele>
        <time>2016-03-20T09:22:37Z</time>
      </trkpt>
      <trkpt lat="45.59789" lon="4.83744">
        <ele>235.4</ele>
        <time>2016-03-20T09:22:39Z</time>
      </trkpt>
      <trkpt lat="45.59784" lon="4.83729">
        <ele>234.8</ele>
        <time>2016-03-20T09:22:41Z</time>
      </trkpt>
      <trkpt lat="45.59778" lon="4.8371">
        <ele>234</ele>
        <time>2016-03-20T09:22:43Z</time>
      </trkpt>
      <trkpt lat="45.59772" lon="4.83688">
        <ele>233.4</ele>
        <time>2016-03-20T09:22:45Z</time>
      </trkpt>
      <trkpt lat="45.59765" lon="4.83665">
        <ele>233.1</ele>
        <time>2016-03-20T09:22:47Z</time>
      </trkpt>
      <trkpt lat="45.59757" lon="4.83639">
        <ele>232.7</ele>
        <time>2016-03-20T09:22:49Z</time>
      </trkpt>
      <trkpt lat="45.59749" lon="4.83614">
        <ele>232.4</ele>
        <time>2016-03-20T09:22:51Z</time>
      </trkpt>
      <trkpt lat="45.59741" lon="4.8359">
        <ele>232.1</ele>
        <time>2016-03-20T09:22:53Z</time>
      </trkpt>
      <trkpt lat="45.59734" lon="4.83567">
        <ele>231.9</ele>
        <time>2016-03-20T09:22:55Z</time>
      </trkpt>
      <trkpt lat="45.59729" lon="4.83545">
        <ele>231.8</ele>
        <time>2016-03-20T09:22:57Z</time>
      </trkpt>
      <trkpt lat="45.59724" lon="4.83525">
        <ele>231.6</ele>
        <time>2016-03-20T09:22:59Z</time>
      </trkpt>
      <trkpt lat="45.59718" lon="4.83507">
        <ele>231.5</ele>
        <time>2016-03-20T09:23:01Z</time>
      </trkpt>
      <trkpt lat="45.59715" lon="4.83488">
        <ele>231.5</ele>
        <time>2016-03-20T09:23:03Z</time>
      </trkpt>
      <trkpt lat="45.59713" lon="4.8347">
        <ele>231.5</ele>
        <time>2016-03-20T09:23:05Z</time>
      </trkpt>
      <trkpt lat="45.59712" lon="4.83452">
        <ele>231.6</ele>
        <time>2016-03-20T09:23:07Z</time>
      </trkpt>
      <trkpt lat="45.59711" lon="4.83434">
        <ele>231.6</ele>
        <time>2016-03-20T09:23:09Z</time>
      </trkpt>
      <trkpt lat="45.59711" lon="4.83417">
        <ele>231.6</ele>
        <time>2016-03-20T09:23:11Z</time>
      </trkpt>
      <trkpt lat="45.59712" lon="4.834">
        <ele>231.7</ele>
        <time>2016-03-20T09:23:13Z</time>
      </trkpt>
      <trkpt lat="45.59713" lon="4.83384">
        <ele>231.7</ele>
        <time>2016-03-20T09:23:15Z</time>
      </trkpt>
      <trkpt lat="45.59713" lon="4.83368">
        <ele>231.7</ele>
        <time>2016-03-20T09:23:17Z</time>
      </trkpt>
      <trkpt lat="45.59713" lon="4.83352">
        <ele>231.7</ele>
        <time>2016-03-20T09:23:19Z</time>
      </trkpt>
      <trkpt lat="45.59713" lon="4.83337">
        <ele>231.7</ele>
        <time>2016-03-20T09:23:21Z</time>
      </trkpt>
      <trkpt lat="45.59713" lon="4.83322">
        <ele>231.8</ele>
        <time>2016-03-20T09:23:23Z</time>
      </trkpt>
      <trkpt lat="45.59713" lon="4.83308">
        <ele>231.8</ele>
        <time>2016-03-20T09:23:25Z</time>
      </trkpt>
      <trkpt lat="45.59714" lon="4.83293">
        <ele>231.8</ele>
        <time>2016-03-20T09:23:27Z</time>
      </trkpt>
      <trkpt lat="45.59715" lon="4.83279">
        <ele>231.9</ele>
        <time>2016-03-20T09:23:29Z</time>
      </trkpt>
      <trkpt lat="45.59712" lon="4.83267">
        <ele>231.9</ele>
        <time>2016-03-20T09:23:31Z</time>
      </trkpt>
      <trkpt lat="45.59704" lon="4.8326">
        <ele>232</ele>
        <time>2016-03-20T09:23:33Z</time>
      </trkpt>
      <trkpt lat="45.59695" lon="4.83257">
        <ele>232</ele>
        <time>2016-03-20T09:23:35Z</time>
      </trkpt>
      <trkpt lat="45.59685" lon="4.83254">
        <ele>232</ele>
        <time>2016-03-20T09:23:37Z</time>
      </trkpt>
      <trkpt lat="45.59675" lon="4.8325">
        <ele>232</ele>
        <time>2016-03-20T09:23:39Z</time>
      </trkpt>
      <trkpt lat="45.59664" lon="4.83248">
        <ele>232.1</ele>
        <time>2016-03-20T09:23:41Z</time>
      </trkpt>
      <trkpt lat="45.59654" lon="4.83249">
        <ele>232.1</ele>
        <time>2016-03-20T09:23:43Z</time>
      </trkpt>
      <trkpt lat="45.59644" lon="4.83251">
        <ele>232.2</ele>
        <time>2016-03-20T09:23:45Z</time>
      </trkpt>
      <trkpt lat="45.59634" lon="4.83254">
        <ele>232.2</ele>
        <time>2016-03-20T09:23:47Z</time>
      </trkpt>
      <trkpt lat="45.59625" lon="4.83257">
        <ele>232.2</ele>
        <time>2016-03-20T09:23:49Z</time>
      </trkpt>
      <trkpt lat="45.59615" lon="4.83261">
        <ele>232.3</ele>
        <time>2016-03-20T09:23:51Z</time>
      </trkpt>
      <trkpt lat="45.59606" lon="4.83263">
        <ele>232.5</ele>
        <time>2016-03-20T09:23:53Z</time>
      </trkpt>
      <trkpt lat="45.59597" lon="4.83265">
        <ele>232.8</ele>
        <time>2016-03-20T09:23:55Z</time>
      </trkpt>
      <trkpt lat="45.59588" lon="4.83268">
        <ele>233.1</ele>
        <time>2016-03-20T09:23:57Z</time>
      </trkpt>
      <trkpt lat="45.5958" lon="4.83271">
        <ele>233.4</ele>
        <time>2016-03-20T09:23:59Z</time>
      </trkpt>
      <trkpt lat="45.59571" lon="4.83276">
        <ele>233.6</ele>
        <time>2016-03-20T09:24:01Z</time>
      </trkpt>
      <trkpt lat="45.59563" lon="4.8328">
        <ele>233.7</ele>
        <time>2016-03-20T09:24:03Z</time>
      </trkpt>
      <trkpt lat="45.59555" lon="4.83284">
        <ele>233.8</ele>
        <time>2016-03-20T09:24:05Z</time>
      </trkpt>
      <trkpt lat="45.59547" lon="4.83288">
        <ele>233.9</ele>
        <time>2016-03-20T09:24:07Z</time>
      </trkpt>
      <trkpt lat="45.59539" lon="4.83293">
        <ele>233.9</ele>
        <time>2016-03-20T09:24:09Z</time>
      </trkpt>
      <trkpt lat="45.59531" lon="4.83297">
        <ele>234</ele>
        <time>2016-03-20T09:24:11Z</time>
      </trkpt>
      <trkpt lat="45.59522" lon="4.83296">
        <ele>234</ele>
        <time>2016-03-20T09:24:13Z</time>
      </trkpt>
      <trkpt lat="45.59517" lon="4.83288">
        <ele>234</ele>
        <time>2016-03-20T09:24:15Z</time>
      </trkpt>
      <trkpt lat="45.59514" lon="4.83277">
        <ele>234.1</ele>
        <time>2016-03-20T09:24:17Z</time>
      </trkpt>
      <trkpt lat="45.5951" lon="4.83265">
        <ele>234.1</ele>
        <time>2016-03-20T09:24:19Z</time>
      </trkpt>
      <trkpt lat="45.59507" lon="4.83252">
        <ele>234.1</ele>
        <time>2016-03-20T09:24:21Z</time>
      </trkpt>
      <trkpt lat="45.59504" lon="4.83241">
        <ele>234.2</ele>
        <time>2016-03-20T09:24:23Z</time>
      </trkpt>
      <trkpt lat="45.59501" lon="4.8323">
        <ele>234</ele>
        <time>2016-03-20T09:24:25Z</time>
      </trkpt>
      <trkpt lat="45.59499" lon="4.83217">
        <ele>233.7</ele>
        <time>2016-03-20T09:24:27Z</time>
      </trkpt>
      <trkpt lat="45.59497" lon="4.83204">
        <ele>233.1</ele>
        <time>2016-03-20T09:24:29Z</time>
      </trkpt>
      <trkpt lat="45.59494" lon="4.83191">
        <ele>232.5</ele>
        <time>2016-03-20T09:24:31Z</time>
      </trkpt>
      <trkpt lat="45.59491" lon="4.83178">
        <ele>232.3</ele>
        <time>2016-03-20T09:24:33Z</time>
      </trkpt>
      <trkpt lat="45.59487" lon="4.83166">
        <ele>232.4</ele>
        <time>2016-03-20T09:24:35Z</time>
      </trkpt>
      <trkpt lat="45.59483" lon="4.83153">
        <ele>232.6</ele>
        <time>2016-03-20T09:24:37Z</time>
      </trkpt>
      <trkpt lat="45.5948" lon="4.83141">
        <ele>232.7</ele>
        <time>2016-03-20T09:24:39Z</time>
      </trkpt>
      <trkpt lat="45.59477" lon="4.83128">
        <ele>232.8</ele>
        <time>2016-03-20T09:24:41Z</time>
      </trkpt>
      <trkpt lat="45.59474" lon="4.83115">
        <ele>233.1</ele>
        <time>2016-03-20T09:24:43Z</time>
      </trkpt>
      <trkpt lat="45.59471" lon="4.83103">
        <ele>233.4</ele>
        <time>2016-03-20T09:24:45Z</time>
      </trkpt>
      <trkpt lat="45.59468" lon="4.8309">
        <ele>233.8</ele>
        <time>2016-03-20T09:24:47Z</time>
      </trkpt>
      <trkpt lat="45.59464" lon="4.83078">
        <ele>234</ele>
        <time>2016-03-20T09:24:49Z</time>
      </trkpt>
      <trkpt lat="45.59461" lon="4.83066">
        <ele>234.3</ele>
        <time>2016-03-20T09:24:51Z</time>
      </trkpt>
      <trkpt lat="45.59457" lon="4.83053">
        <ele>234.9</ele>
        <time>2016-03-20T09:24:53Z</time>
      </trkpt>
      <trkpt lat="45.59454" lon="4.8304">
        <ele>236.1</ele>
        <time>2016-03-20T09:24:55Z</time>
      </trkpt>
      <trkpt lat="45.5945" lon="4.83027">
        <ele>237.3</ele>
        <time>2016-03-20T09:24:57Z</time>
      </trkpt>
      <trkpt lat="45.59446" lon="4.83013">
        <ele>238</ele>
        <time>2016-03-20T09:24:59Z</time>
      </trkpt>
      <trkpt lat="45.59443" lon="4.82999">
        <ele>238.2</ele>
        <time>2016-03-20T09:25:01Z</time>
      </trkpt>
      <trkpt lat="45.59439" lon="4.82984">
        <ele>239.1</ele>
        <time>2016-03-20T09:25:03Z</time>
      </trkpt>
      <trkpt lat="45.59435" lon="4.8297">
        <ele>240.1</ele>
        <time>2016-03-20T09:25:05Z</time>
      </trkpt>
      <trkpt lat="45.59433" lon="4.82955">
        <ele>240.5</ele>
        <time>2016-03-20T09:25:07Z</time>
      </trkpt>
      <trkpt lat="45.59429" lon="4.8294">
        <ele>240.2</ele>
        <time>2016-03-20T09:25:09Z</time>
      </trkpt>
      <trkpt lat="45.59426" lon="4.82925">
        <ele>239.6</ele>
        <time>2016-03-20T09:25:11Z</time>
      </trkpt>
      <trkpt lat="45.59422" lon="4.8291">
        <ele>239</ele>
        <time>2016-03-20T09:25:13Z</time>
      </trkpt>
      <trkpt lat="45.59419" lon="4.82894">
        <ele>238.8</ele>
        <time>2016-03-20T09:25:15Z</time>
      </trkpt>
      <trkpt lat="45.59414" lon="4.82879">
        <ele>239</ele>
        <time>2016-03-20T09:25:17Z</time>
      </trkpt>
      <trkpt lat="45.5941" lon="4.82863">
        <ele>239.6</ele>
        <time>2016-03-20T09:25:19Z</time>
      </trkpt>
      <trkpt lat="45.59406" lon="4.82848">
        <ele>240.9</ele>
        <time>2016-03-20T09:25:21Z</time>
      </trkpt>
      <trkpt lat="45.59401" lon="4.82834">
        <ele>242.1</ele>
        <time>2016-03-20T09:25:23Z</time>
      </trkpt>
      <trkpt lat="45.59396" lon="4.82821">
        <ele>243</ele>
        <time>2016-03-20T09:25:25Z</time>
      </trkpt>
      <trkpt lat="45.5939" lon="4.82809">
        <ele>243.2</ele>
        <time>2016-03-20T09:25:27Z</time>
      </trkpt>
      <trkpt lat="45.59383" lon="4.82798">
        <ele>243.5</ele>
        <time>2016-03-20T09:25:29Z</time>
      </trkpt>
      <trkpt lat="45.59375" lon="4.82788">
        <ele>243.5</ele>
        <time>2016-03-20T09:25:31Z</time>
      </trkpt>
      <trkpt lat="45.59366" lon="4.82777">
        <ele>243.1</ele>
        <time>2016-03-20T09:25:33Z</time>
      </trkpt>
      <trkpt lat="45.59358" lon="4.82767">
        <ele>242.7</ele>
        <time>2016-03-20T09:25:35Z</time>
      </trkpt>
      <trkpt lat="45.59349" lon="4.82757">
        <ele>243</ele>
        <time>2016-03-20T09:25:37Z</time>
      </trkpt>
      <trkpt lat="45.59341" lon="4.82748">
        <ele>243.8</ele>
        <time>2016-03-20T09:25:39Z</time>
      </trkpt>
      <trkpt lat="45.59332" lon="4.82739">
        <ele>244.9</ele>
        <time>2016-03-20T09:25:41Z</time>
      </trkpt>
      <trkpt lat="45.59324" lon="4.8273">
        <ele>246</ele>
        <time>2016-03-20T09:25:43Z</time>
      </trkpt>
      <trkpt lat="45.59314" lon="4.82722">
        <ele>247.6</ele>
        <time>2016-03-20T09:25:45Z</time>
      </trkpt>
      <trkpt lat="45.59306" lon="4.82714">
        <ele>248.7</ele>
        <time>2016-03-20T09:25:47Z</time>
      </trkpt>
      <trkpt lat="45.59297" lon="4.82705">
        <ele>249.6</ele>
        <time>2016-03-20T09:25:49Z</time>
      </trkpt>
      <trkpt lat="45.59288" lon="4.82695">
        <ele>249.3</ele>
        <time>2016-03-20T09:25:51Z</time>
      </trkpt>
      <trkpt lat="45.5928" lon="4.82686">
        <ele>249.8</ele>
        <time>2016-03-20T09:25:53Z</time>
      </trkpt>
      <trkpt lat="45.59272" lon="4.82675">
        <ele>249.7</ele>
        <time>2016-03-20T09:25:55Z</time>
      </trkpt>
      <trkpt lat="45.59264" lon="4.82665">
        <ele>248.3</ele>
        <time>2016-03-20T09:25:57Z</time>
      </trkpt>
      <trkpt lat="45.59258" lon="4.82653">
        <ele>246.7</ele>
        <time>2016-03-20T09:25:59Z</time>
      </trkpt>
      <trkpt lat="45.59251" lon="4.82642">
        <ele>246</ele>
        <time>2016-03-20T09:26:01Z</time>
      </trkpt>
      <trkpt lat="45.59247" lon="4.82629">
        <ele>246</ele>
        <time>2016-03-20T09:26:03Z</time>
      </trkpt>
      <trkpt lat="45.59248" lon="4.82618">
        <ele>246</ele>
        <time>2016-03-20T09:26:05Z</time>
      </trkpt>
      <trkpt lat="45.59252" lon="4.8261">
        <ele>246.1</ele>
        <time>2016-03-20T09:26:07Z</time>
      </trkpt>
      <trkpt lat="45.59256" lon="4.82601">
        <ele>246.2</ele>
        <time>2016-03-20T09:26:09Z</time>
      </trkpt>
      <trkpt lat="45.59259" lon="4.82591">
        <ele>246.6</ele>
        <time>2016-03-20T09:26:11Z</time>
      </trkpt>
      <trkpt lat="45.59263" lon="4.8258">
        <ele>246.5</ele>
        <time>2016-03-20T09:26:13Z</time>
      </trkpt>
      <trkpt lat="45.59266" lon="4.82569">
        <ele>246.7</ele>
        <time>2016-03-20T09:26:15Z</time>
      </trkpt>
      <trkpt lat="45.5927" lon="4.82559">
        <ele>246.7</ele>
        <time>2016-03-20T09:26:17Z</time>
      </trkpt>
      <trkpt lat="45.59273" lon="4.82548">
        <ele>246.6</ele>
        <time>2016-03-20T09:26:19Z</time>
      </trkpt>
      <trkpt lat="45.59277" lon="4.82537">
        <ele>246.7</ele>
        <time>2016-03-20T09:26:21Z</time>
      </trkpt>
      <trkpt lat="45.5928" lon="4.82526">
        <ele>246.9</ele>
        <time>2016-03-20T09:26:23Z</time>
      </trkpt>
      <trkpt lat="45.59283" lon="4.82515">
        <ele>247.3</ele>
        <time>2016-03-20T09:26:25Z</time>
      </trkpt>
      <trkpt lat="45.59287" lon="4.82505">
        <ele>247.9</ele>
        <time>2016-03-20T09:26:27Z</time>
      </trkpt>
      <trkpt lat="45.5929" lon="4.82494">
        <ele>247.8</ele>
        <time>2016-03-20T09:26:29Z</time>
      </trkpt>
      <trkpt lat="45.59294" lon="4.82482">
        <ele>247.6</ele>
        <time>2016-03-20T09:26:31Z</time>
      </trkpt>
      <trkpt lat="45.59299" lon="4.8247">
        <ele>248</ele>
        <time>2016-03-20T09:26:33Z</time>
      </trkpt>
      <trkpt lat="45.59306" lon="4.82459">
        <ele>248.1</ele>
        <time>2016-03-20T09:26:35Z</time>
      </trkpt>
      <trkpt lat="45.59313" lon="4.82449">
        <ele>248</ele>
        <time>2016-03-20T09:26:37Z</time>
      </trkpt>
      <trkpt lat="45.59321" lon="4.8244">
        <ele>248.6</ele>
        <time>2016-03-20T09:26:39Z</time>
      </trkpt>
      <trkpt lat="45.59329" lon="4.82432">
        <ele>249.8</ele>
        <time>2016-03-20T09:26:41Z</time>
      </trkpt>
      <trkpt lat="45.59337" lon="4.82423">
        <ele>250.6</ele>
        <time>2016-03-20T09:26:43Z</time>
      </trkpt>
      <trkpt lat="45.59346" lon="4.82415">
        <ele>251.2</ele>
        <time>2016-03-20T09:26:45Z</time>
      </trkpt>
      <trkpt lat="45.59354" lon="4.82407">
        <ele>251.4</ele>
        <time>2016-03-20T09:26:47Z</time>
      </trkpt>
      <trkpt lat="45.59362" lon="4.824">
        <ele>251.5</ele>
        <time>2016-03-20T09:26:49Z</time>
      </trkpt>
      <trkpt lat="45.5937" lon="4.82393">
        <ele>251.4</ele>
        <time>2016-03-20T09:26:51Z</time>
      </trkpt>
      <trkpt lat="45.59378" lon="4.82387">
        <ele>250.7</ele>
        <time>2016-03-20T09:26:53Z</time>
      </trkpt>
      <trkpt lat="45.59386" lon="4.82382">
        <ele>250</ele>
        <time>2016-03-20T09:26:55Z</time>
      </trkpt>
      <trkpt lat="45.59395" lon="4.82377">
        <ele>249.4</ele>
        <time>2016-03-20T09:26:57Z</time>
      </trkpt>
      <trkpt lat="45.59405" lon="4.82373">
        <ele>249</ele>
        <time>2016-03-20T09:26:59Z</time>
      </trkpt>
      <trkpt lat="45.59417" lon="4.82368">
        <ele>248.4</ele>
        <time>2016-03-20T09:27:01Z</time>
      </trkpt>
      <trkpt lat="45.59428" lon="4.82364">
        <ele>247.2</ele>
        <time>2016-03-20T09:27:03Z</time>
      </trkpt>
      <trkpt lat="45.59442" lon="4.8236">
        <ele>246.2</ele>
        <time>2016-03-20T09:27:05Z</time>
      </trkpt>
      <trkpt lat="45.59456" lon="4.82359">
        <ele>245.9</ele>
        <time>2016-03-20T09:27:07Z</time>
      </trkpt>
      <trkpt lat="45.59472" lon="4.82362">
        <ele>245.8</ele>
        <time>2016-03-20T09:27:09Z</time>
      </trkpt>
      <trkpt lat="45.59485" lon="4.82365">
        <ele>245.1</ele>
        <time>2016-03-20T09:27:11Z</time>
      </trkpt>
      <trkpt lat="45.59499" lon="4.82365">
        <ele>244.1</ele>
        <time>2016-03-20T09:27:13Z</time>
      </trkpt>
      <trkpt lat="45.59511" lon="4.82362">
        <ele>243</ele>
        <time>2016-03-20T09:27:15Z</time>
      </trkpt>
      <trkpt lat="45.59522" lon="4.82356">
        <ele>242.8</ele>
        <time>2016-03-20T09:27:17Z</time>
      </trkpt>
      <trkpt lat="45.59533" lon="4.82349">
        <ele>242.6</ele>
        <time>2016-03-20T09:27:19Z</time>
      </trkpt>
      <trkpt lat="45.59542" lon="4.82344">
        <ele>242.5</ele>
        <time>2016-03-20T09:27:21Z</time>
      </trkpt>
      <trkpt lat="45.59551" lon="4.8234">
        <ele>242.9</ele>
        <time>2016-03-20T09:27:23Z</time>
      </trkpt>
      <trkpt lat="45.59561" lon="4.82336">
        <ele>243.8</ele>
        <time>2016-03-20T09:27:25Z</time>
      </trkpt>
      <trkpt lat="45.5957" lon="4.82332">
        <ele>244.5</ele>
        <time>2016-03-20T09:27:27Z</time>
      </trkpt>
      <trkpt lat="45.5958" lon="4.82329">
        <ele>244.8</ele>
        <time>2016-03-20T09:27:29Z</time>
      </trkpt>
      <trkpt lat="45.59586" lon="4.82328">
        <ele>244.4</ele>
        <time>2016-03-20T09:27:31Z</time>
      </trkpt>
      <trkpt lat="45.59593" lon="4.82325">
        <ele>244.1</ele>
        <time>2016-03-20T09:27:33Z</time>
      </trkpt>
      <trkpt lat="45.59602" lon="4.82324">
        <ele>243.5</ele>
        <time>2016-03-20T09:27:35Z</time>
      </trkpt>
      <trkpt lat="45.59612" lon="4.82321">
        <ele>242.4</ele>
        <time>2016-03-20T09:27:37Z</time>
      </trkpt>
      <trkpt lat="45.59623" lon="4.82315">
        <ele>241.5</ele>
        <time>2016-03-20T09:27:39Z</time>
      </trkpt>
      <trkpt lat="45.59635" lon="4.82305">
        <ele>240.4</ele>
        <time>2016-03-20T09:27:41Z</time>
      </trkpt>
      <trkpt lat="45.59646" lon="4.82286">
        <ele>239</ele>
        <time>2016-03-20T09:27:43Z</time>
      </trkpt>
      <trkpt lat="45.59658" lon="4.82266">
        <ele>237.5</ele>
        <time>2016-03-20T09:27:45Z</time>
      </trkpt>
      <trkpt lat="45.59672" lon="4.82251">
        <ele>236.7</ele>
        <time>2016-03-20T09:27:47Z</time>
      </trkpt>
      <trkpt lat="45.59687" lon="4.82239">
        <ele>236.1</ele>
        <time>2016-03-20T09:27:49Z</time>
      </trkpt>
      <trkpt lat="45.59702" lon="4.82229">
        <ele>236.8</ele>
        <time>2016-03-20T09:27:51Z</time>
      </trkpt>
      <trkpt lat="45.59716" lon="4.82219">
        <ele>237.6</ele>
        <time>2016-03-20T09:27:53Z</time>
      </trkpt>
      <trkpt lat="45.5973" lon="4.8221">
        <ele>237.4</ele>
        <time>2016-03-20T09:27:55Z</time>
      </trkpt>
      <trkpt lat="45.59743" lon="4.82202">
        <ele>236.8</ele>
        <time>2016-03-20T09:27:57Z</time>
      </trkpt>
      <trkpt lat="45.59755" lon="4.82195">
        <ele>236.2</ele>
        <time>2016-03-20T09:27:59Z</time>
      </trkpt>
      <trkpt lat="45.59766" lon="4.82193">
        <ele>235.3</ele>
        <time>2016-03-20T09:28:01Z</time>
      </trkpt>
      <trkpt lat="45.59773" lon="4.82198">
        <ele>235</ele>
        <time>2016-03-20T09:28:03Z</time>
      </trkpt>
      <trkpt lat="45.59777" lon="4.82208">
        <ele>235.4</ele>
        <time>2016-03-20T09:28:05Z</time>
      </trkpt>
      <trkpt lat="45.59779" lon="4.82218">
        <ele>235.7</ele>
        <time>2016-03-20T09:28:07Z</time>
      </trkpt>
      <trkpt lat="45.59781" lon="4.82228">
        <ele>235.9</ele>
        <time>2016-03-20T09:28:09Z</time>
      </trkpt>
      <trkpt lat="45.59784" lon="4.82239">
        <ele>236.2</ele>
        <time>2016-03-20T09:28:11Z</time>
      </trkpt>
      <trkpt lat="45.59786" lon="4.82249">
        <ele>236.6</ele>
        <time>2016-03-20T09:28:13Z</time>
      </trkpt>
      <trkpt lat="45.59789" lon="4.8226">
        <ele>237.3</ele>
        <time>2016-03-20T09:28:15Z</time>
      </trkpt>
      <trkpt lat="45.59791" lon="4.82271">
        <ele>237.9</ele>
        <time>2016-03-20T09:28:17Z</time>
      </trkpt>
      <trkpt lat="45.59793" lon="4.8228">
        <ele>238.5</ele>
        <time>2016-03-20T09:28:19Z</time>
      </trkpt>
      <trkpt lat="45.59794" lon="4.82289">
        <ele>239</ele>
        <time>2016-03-20T09:28:21Z</time>
      </trkpt>
      <trkpt lat="45.59794" lon="4.82298">
        <ele>239.6</ele>
        <time>2016-03-20T09:28:23Z</time>
      </trkpt>
      <trkpt lat="45.59795" lon="4.82306">
        <ele>240.2</ele>
        <time>2016-03-20T09:28:25Z</time>
      </trkpt>
      <trkpt lat="45.59796" lon="4.82313">
        <ele>241</ele>
        <time>2016-03-20T09:28:27Z</time>
      </trkpt>
      <trkpt lat="45.59798" lon="4.82321">
        <ele>241.9</ele>
        <time>2016-03-20T09:28:29Z</time>
      </trkpt>
      <trkpt lat="45.59798" lon="4.82329">
        <ele>242.6</ele>
        <time>2016-03-20T09:28:31Z</time>
      </trkpt>
      <trkpt lat="45.598" lon="4.82336">
        <ele>243.3</ele>
        <time>2016-03-20T09:28:33Z</time>
      </trkpt>
      <trkpt lat="45.59801" lon="4.82344">
        <ele>244.2</ele>
        <time>2016-03-20T09:28:35Z</time>
      </trkpt>
      <trkpt lat="45.59802" lon="4.82351">
        <ele>244.7</ele>
        <time>2016-03-20T09:28:37Z</time>
      </trkpt>
      <trkpt lat="45.59803" lon="4.82359">
        <ele>245.4</ele>
        <time>2016-03-20T09:28:39Z</time>
      </trkpt>
      <trkpt lat="45.59803" lon="4.82365">
        <ele>245.9</ele>
        <time>2016-03-20T09:28:41Z</time>
      </trkpt>
      <trkpt lat="45.59804" lon="4.82373">
        <ele>246.4</ele>
        <time>2016-03-20T09:28:43Z</time>
      </trkpt>
      <trkpt lat="45.59804" lon="4.82381">
        <ele>246.7</ele>
        <time>2016-03-20T09:28:45Z</time>
      </trkpt>
      <trkpt lat="45.59806" lon="4.82388">
        <ele>247</ele>
        <time>2016-03-20T09:28:47Z</time>
      </trkpt>
      <trkpt lat="45.59807" lon="4.82396">
        <ele>247</ele>
        <time>2016-03-20T09:28:49Z</time>
      </trkpt>
      <trkpt lat="45.59808" lon="4.82405">
        <ele>246.6</ele>
        <time>2016-03-20T09:28:51Z</time>
      </trkpt>
      <trkpt lat="45.59811" lon="4.82419">
        <ele>245.9</ele>
        <time>2016-03-20T09:28:53Z</time>
      </trkpt>
      <trkpt lat="45.59814" lon="4.82435">
        <ele>244.9</ele>
        <time>2016-03-20T09:28:55Z</time>
      </trkpt>
      <trkpt lat="45.59816" lon="4.82452">
        <ele>244.1</ele>
        <time>2016-03-20T09:28:57Z</time>
      </trkpt>
      <trkpt lat="45.59818" lon="4.82468">
        <ele>243.5</ele>
        <time>2016-03-20T09:28:59Z</time>
      </trkpt>
      <trkpt lat="45.5982" lon="4.82482">
        <ele>243.2</ele>
        <time>2016-03-20T09:29:01Z</time>
      </trkpt>
      <trkpt lat="45.59823" lon="4.82493">
        <ele>243.1</ele>
        <time>2016-03-20T09:29:03Z</time>
      </trkpt>
      <trkpt lat="45.59825" lon="4.82504">
        <ele>243.2</ele>
        <time>2016-03-20T09:29:05Z</time>
      </trkpt>
      <trkpt lat="45.59828" lon="4.82515">
        <ele>243.4</ele>
        <time>2016-03-20T09:29:07Z</time>
      </trkpt>
      <trkpt lat="45.59831" lon="4.82525">
        <ele>243.6</ele>
        <time>2016-03-20T09:29:09Z</time>
      </trkpt>
      <trkpt lat="45.59834" lon="4.82535">
        <ele>243.9</ele>
        <time>2016-03-20T09:29:11Z</time>
      </trkpt>
      <trkpt lat="45.59836" lon="4.82545">
        <ele>244.1</ele>
        <time>2016-03-20T09:29:13Z</time>
      </trkpt>
      <trkpt lat="45.59839" lon="4.82554">
        <ele>244.3</ele>
        <time>2016-03-20T09:29:15Z</time>
      </trkpt>
      <trkpt lat="45.59842" lon="4.82564">
        <ele>244.5</ele>
        <time>2016-03-20T09:29:17Z</time>
      </trkpt>
      <trkpt lat="45.59845" lon="4.82574">
        <ele>244.7</ele>
        <time>2016-03-20T09:29:19Z</time>
      </trkpt>
      <trkpt lat="45.59848" lon="4.82583">
        <ele>244.8</ele>
        <time>2016-03-20T09:29:21Z</time>
      </trkpt>
      <trkpt lat="45.5985" lon="4.82592">
        <ele>244.9</ele>
        <time>2016-03-20T09:29:23Z</time>
      </trkpt>
      <trkpt lat="45.59855" lon="4.82599">
        <ele>245</ele>
        <time>2016-03-20T09:29:25Z</time>
      </trkpt>
      <trkpt lat="45.59861" lon="4.82601">
        <ele>245.4</ele>
        <time>2016-03-20T09:29:27Z</time>
      </trkpt>
      <trkpt lat="45.59867" lon="4.82599">
        <ele>245.7</ele>
        <time>2016-03-20T09:29:29Z</time>
      </trkpt>
      <trkpt lat="45.59874" lon="4.82597">
        <ele>246.1</ele>
        <time>2016-03-20T09:29:31Z</time>
      </trkpt>
      <trkpt lat="45.5988" lon="4.82597">
        <ele>246.5</ele>
        <time>2016-03-20T09:29:33Z</time>
      </trkpt>
      <trkpt lat="45.59886" lon="4.82596">
        <ele>246.9</ele>
        <time>2016-03-20T09:29:35Z</time>
      </trkpt>
      <trkpt lat="45.59892" lon="4.82595">
        <ele>247.4</ele>
        <time>2016-03-20T09:29:37Z</time>
      </trkpt>
      <trkpt lat="45.59898" lon="4.82595">
        <ele>247.9</ele>
        <time>2016-03-20T09:29:39Z</time>
      </trkpt>
      <trkpt lat="45.59903" lon="4.82593">
        <ele>248.5</ele>
        <time>2016-03-20T09:29:41Z</time>
      </trkpt>
      <trkpt lat="45.59909" lon="4.82592">
        <ele>249</ele>
        <time>2016-03-20T09:29:43Z</time>
      </trkpt>
      <trkpt lat="45.59915" lon="4.8259">
        <ele>249.5</ele>
        <time>2016-03-20T09:29:45Z</time>
      </trkpt>
      <trkpt lat="45.5992" lon="4.82588">
        <ele>249.7</ele>
        <time>2016-03-20T09:29:47Z</time>
      </trkpt>
      <trkpt lat="45.59926" lon="4.82586">
        <ele>249.9</ele>
        <time>2016-03-20T09:29:49Z</time>
      </trkpt>
      <trkpt lat="45.59932" lon="4.82585">
        <ele>250.1</ele>
        <time>2016-03-20T09:29:51Z</time>
      </trkpt>
      <trkpt lat="45.59938" lon="4.82583">
        <ele>250.3</ele>
        <time>2016-03-20T09:29:53Z</time>
      </trkpt>
      <trkpt lat="45.59944" lon="4.82581">
        <ele>250.3</ele>
        <time>2016-03-20T09:29:55Z</time>
      </trkpt>
      <trkpt lat="45.59951" lon="4.82578">
        <ele>250.3</ele>
        <time>2016-03-20T09:29:57Z</time>
      </trkpt>
      <trkpt lat="45.59959" lon="4.82576">
        <ele>250.2</ele>
        <time>2016-03-20T09:29:59Z</time>
      </trkpt>
      <trkpt lat="45.59968" lon="4.82573">
        <ele>250</ele>
        <time>2016-03-20T09:30:01Z</time>
      </trkpt>
      <trkpt lat="45.59977" lon="4.8257">
        <ele>249.7</ele>
        <time>2016-03-20T09:30:03Z</time>
      </trkpt>
      <trkpt lat="45.59987" lon="4.82568">
        <ele>249.5</ele>
        <time>2016-03-20T09:30:05Z</time>
      </trkpt>
      <trkpt lat="45.59997" lon="4.82564">
        <ele>249.4</ele>
        <time>2016-03-20T09:30:07Z</time>
      </trkpt>
      <trkpt lat="45.60006" lon="4.82561">
        <ele>249.4</ele>
        <time>2016-03-20T09:30:09Z</time>
      </trkpt>
      <trkpt lat="45.60016" lon="4.82558">
        <ele>249.5</ele>
        <time>2016-03-20T09:30:11Z</time>
      </trkpt>
      <trkpt lat="45.60025" lon="4.82554">
        <ele>249.6</ele>
        <time>2016-03-20T09:30:13Z</time>
      </trkpt>
      <trkpt lat="45.60034" lon="4.8255">
        <ele>249.7</ele>
        <time>2016-03-20T09:30:15Z</time>
      </trkpt>
      <trkpt lat="45.60044" lon="4.82546">
        <ele>249.8</ele>
        <time>2016-03-20T09:30:17Z</time>
      </trkpt>
      <trkpt lat="45.60062" lon="4.82536">
        <ele>249.9</ele>
        <time>2016-03-20T09:30:21Z</time>
      </trkpt>
      <trkpt lat="45.60071" lon="4.82532">
        <ele>250</ele>
        <time>2016-03-20T09:30:23Z</time>
      </trkpt>
      <trkpt lat="45.6008" lon="4.82528">
        <ele>250.2</ele>
        <time>2016-03-20T09:30:25Z</time>
      </trkpt>
      <trkpt lat="45.60088" lon="4.82524">
        <ele>250.4</ele>
        <time>2016-03-20T09:30:27Z</time>
      </trkpt>
      <trkpt lat="45.60098" lon="4.8252">
        <ele>250.5</ele>
        <time>2016-03-20T09:30:29Z</time>
      </trkpt>
      <trkpt lat="45.60106" lon="4.82517">
        <ele>250.5</ele>
        <time>2016-03-20T09:30:31Z</time>
      </trkpt>
      <trkpt lat="45.60115" lon="4.82514">
        <ele>250.5</ele>
        <time>2016-03-20T09:30:33Z</time>
      </trkpt>
      <trkpt lat="45.60123" lon="4.8251">
        <ele>250.3</ele>
        <time>2016-03-20T09:30:35Z</time>
      </trkpt>
      <trkpt lat="45.60132" lon="4.82507">
        <ele>250.1</ele>
        <time>2016-03-20T09:30:37Z</time>
      </trkpt>
      <trkpt lat="45.60141" lon="4.82504">
        <ele>249.8</ele>
        <time>2016-03-20T09:30:39Z</time>
      </trkpt>
      <trkpt lat="45.6015" lon="4.82501">
        <ele>249.4</ele>
        <time>2016-03-20T09:30:41Z</time>
      </trkpt>
      <trkpt lat="45.6016" lon="4.825">
        <ele>248.9</ele>
        <time>2016-03-20T09:30:43Z</time>
      </trkpt>
      <trkpt lat="45.60171" lon="4.82502">
        <ele>248.2</ele>
        <time>2016-03-20T09:30:45Z</time>
      </trkpt>
      <trkpt lat="45.60183" lon="4.82505">
        <ele>247</ele>
        <time>2016-03-20T09:30:47Z</time>
      </trkpt>
      <trkpt lat="45.60196" lon="4.82507">
        <ele>245.6</ele>
        <time>2016-03-20T09:30:49Z</time>
      </trkpt>
      <trkpt lat="45.60213" lon="4.82509">
        <ele>244</ele>
        <time>2016-03-20T09:30:51Z</time>
      </trkpt>
      <trkpt lat="45.60231" lon="4.82504">
        <ele>242</ele>
        <time>2016-03-20T09:30:53Z</time>
      </trkpt>
      <trkpt lat="45.60251" lon="4.82497">
        <ele>239.5</ele>
        <time>2016-03-20T09:30:55Z</time>
      </trkpt>
      <trkpt lat="45.60272" lon="4.82488">
        <ele>237.5</ele>
        <time>2016-03-20T09:30:57Z</time>
      </trkpt>
      <trkpt lat="45.60292" lon="4.8248">
        <ele>235.5</ele>
        <time>2016-03-20T09:30:59Z</time>
      </trkpt>
      <trkpt lat="45.60313" lon="4.82473">
        <ele>234</ele>
        <time>2016-03-20T09:31:01Z</time>
      </trkpt>
      <trkpt lat="45.60333" lon="4.82467">
        <ele>233</ele>
        <time>2016-03-20T09:31:03Z</time>
      </trkpt>
      <trkpt lat="45.60352" lon="4.82461">
        <ele>232.3</ele>
        <time>2016-03-20T09:31:05Z</time>
      </trkpt>
      <trkpt lat="45.60369" lon="4.82456">
        <ele>231.8</ele>
        <time>2016-03-20T09:31:07Z</time>
      </trkpt>
      <trkpt lat="45.60385" lon="4.82451">
        <ele>231.4</ele>
        <time>2016-03-20T09:31:09Z</time>
      </trkpt>
      <trkpt lat="45.604" lon="4.82445">
        <ele>231.1</ele>
        <time>2016-03-20T09:31:11Z</time>
      </trkpt>
      <trkpt lat="45.60413" lon="4.82439">
        <ele>231</ele>
        <time>2016-03-20T09:31:13Z</time>
      </trkpt>
      <trkpt lat="45.60426" lon="4.82433">
        <ele>230.9</ele>
        <time>2016-03-20T09:31:15Z</time>
      </trkpt>
      <trkpt lat="45.60438" lon="4.82427">
        <ele>230.8</ele>
        <time>2016-03-20T09:31:17Z</time>
      </trkpt>
      <trkpt lat="45.60449" lon="4.82422">
        <ele>230.9</ele>
        <time>2016-03-20T09:31:19Z</time>
      </trkpt>
      <trkpt lat="45.60458" lon="4.82416">
        <ele>230.9</ele>
        <time>2016-03-20T09:31:21Z</time>
      </trkpt>
      <trkpt lat="45.60465" lon="4.8241">
        <ele>231</ele>
        <time>2016-03-20T09:31:23Z</time>
      </trkpt>
      <trkpt lat="45.6047" lon="4.82402">
        <ele>231</ele>
        <time>2016-03-20T09:31:25Z</time>
      </trkpt>
      <trkpt lat="45.60471" lon="4.82393">
        <ele>231</ele>
        <time>2016-03-20T09:31:27Z</time>
      </trkpt>
      <trkpt lat="45.60471" lon="4.82382">
        <ele>231.1</ele>
        <time>2016-03-20T09:31:29Z</time>
      </trkpt>
      <trkpt lat="45.6047" lon="4.82371">
        <ele>231.4</ele>
        <time>2016-03-20T09:31:31Z</time>
      </trkpt>
      <trkpt lat="45.60468" lon="4.82361">
        <ele>231.5</ele>
        <time>2016-03-20T09:31:33Z</time>
      </trkpt>
      <trkpt lat="45.60468" lon="4.8235">
        <ele>231.3</ele>
        <time>2016-03-20T09:31:35Z</time>
      </trkpt>
      <trkpt lat="45.60469" lon="4.82337">
        <ele>231.6</ele>
        <time>2016-03-20T09:31:37Z</time>
      </trkpt>
      <trkpt lat="45.60467" lon="4.82325">
        <ele>232</ele>
        <time>2016-03-20T09:31:39Z</time>
      </trkpt>
      <trkpt lat="45.60461" lon="4.82314">
        <ele>232</ele>
        <time>2016-03-20T09:31:41Z</time>
      </trkpt>
      <trkpt lat="45.60452" lon="4.8231">
        <ele>232</ele>
        <time>2016-03-20T09:31:43Z</time>
      </trkpt>
      <trkpt lat="45.60441" lon="4.82308">
        <ele>232</ele>
        <time>2016-03-20T09:31:45Z</time>
      </trkpt>
      <trkpt lat="45.60432" lon="4.823">
        <ele>232</ele>
        <time>2016-03-20T09:31:47Z</time>
      </trkpt>
      <trkpt lat="45.60425" lon="4.82288">
        <ele>232.2</ele>
        <time>2016-03-20T09:31:49Z</time>
      </trkpt>
      <trkpt lat="45.60418" lon="4.82276">
        <ele>232.7</ele>
        <time>2016-03-20T09:31:51Z</time>
      </trkpt>
      <trkpt lat="45.6041" lon="4.82263">
        <ele>232.8</ele>
        <time>2016-03-20T09:31:53Z</time>
      </trkpt>
      <trkpt lat="45.60403" lon="4.8225">
        <ele>231.7</ele>
        <time>2016-03-20T09:31:55Z</time>
      </trkpt>
      <trkpt lat="45.60395" lon="4.82236">
        <ele>230</ele>
        <time>2016-03-20T09:31:57Z</time>
      </trkpt>
      <trkpt lat="45.60387" lon="4.82222">
        <ele>228.6</ele>
        <time>2016-03-20T09:31:59Z</time>
      </trkpt>
      <trkpt lat="45.60385" lon="4.8221">
        <ele>228.8</ele>
        <time>2016-03-20T09:32:01Z</time>
      </trkpt>
      <trkpt lat="45.60391" lon="4.82204">
        <ele>229</ele>
        <time>2016-03-20T09:32:03Z</time>
      </trkpt>
      <trkpt lat="45.604" lon="4.82202">
        <ele>229.3</ele>
        <time>2016-03-20T09:32:05Z</time>
      </trkpt>
      <trkpt lat="45.6041" lon="4.82202">
        <ele>231.5</ele>
        <time>2016-03-20T09:32:07Z</time>
      </trkpt>
      <trkpt lat="45.60419" lon="4.82201">
        <ele>233.8</ele>
        <time>2016-03-20T09:32:09Z</time>
      </trkpt>
      <trkpt lat="45.60426" lon="4.82194">
        <ele>235.2</ele>
        <time>2016-03-20T09:32:11Z</time>
      </trkpt>
      <trkpt lat="45.60425" lon="4.82181">
        <ele>236.5</ele>
        <time>2016-03-20T09:32:13Z</time>
      </trkpt>
      <trkpt lat="45.60422" lon="4.82167">
        <ele>237</ele>
        <time>2016-03-20T09:32:15Z</time>
      </trkpt>
      <trkpt lat="45.60419" lon="4.82154">
        <ele>235.9</ele>
        <time>2016-03-20T09:32:17Z</time>
      </trkpt>
      <trkpt lat="45.60416" lon="4.82141">
        <ele>234.6</ele>
        <time>2016-03-20T09:32:19Z</time>
      </trkpt>
      <trkpt lat="45.60414" lon="4.82128">
        <ele>233.3</ele>
        <time>2016-03-20T09:32:21Z</time>
      </trkpt>
      <trkpt lat="45.60413" lon="4.82116">
        <ele>232</ele>
        <time>2016-03-20T09:32:23Z</time>
      </trkpt>
      <trkpt lat="45.60415" lon="4.82104">
        <ele>232.2</ele>
        <time>2016-03-20T09:32:25Z</time>
      </trkpt>
      <trkpt lat="45.60422" lon="4.82097">
        <ele>232.4</ele>
        <time>2016-03-20T09:32:27Z</time>
      </trkpt>
      <trkpt lat="45.6043" lon="4.82093">
        <ele>232.6</ele>
        <time>2016-03-20T09:32:29Z</time>
      </trkpt>
      <trkpt lat="45.60438" lon="4.82091">
        <ele>232.7</ele>
        <time>2016-03-20T09:32:31Z</time>
      </trkpt>
      <trkpt lat="45.60446" lon="4.82089">
        <ele>232.9</ele>
        <time>2016-03-20T09:32:33Z</time>
      </trkpt>
      <trkpt lat="45.60454" lon="4.82088">
        <ele>233</ele>
        <time>2016-03-20T09:32:35Z</time>
      </trkpt>
      <trkpt lat="45.60461" lon="4.82086">
        <ele>233.1</ele>
        <time>2016-03-20T09:32:37Z</time>
      </trkpt>
      <trkpt lat="45.60469" lon="4.82084">
        <ele>233.3</ele>
        <time>2016-03-20T09:32:39Z</time>
      </trkpt>
      <trkpt lat="45.60477" lon="4.82083">
        <ele>233.5</ele>
        <time>2016-03-20T09:32:41Z</time>
      </trkpt>
      <trkpt lat="45.60484" lon="4.82082">
        <ele>233.7</ele>
        <time>2016-03-20T09:32:43Z</time>
      </trkpt>
      <trkpt lat="45.60492" lon="4.82083">
        <ele>233.8</ele>
        <time>2016-03-20T09:32:45Z</time>
      </trkpt>
      <trkpt lat="45.60499" lon="4.82088">
        <ele>234.2</ele>
        <time>2016-03-20T09:32:47Z</time>
      </trkpt>
      <trkpt lat="45.60504" lon="4.82096">
        <ele>234.6</ele>
        <time>2016-03-20T09:32:49Z</time>
      </trkpt>
      <trkpt lat="45.60508" lon="4.82106">
        <ele>235.2</ele>
        <time>2016-03-20T09:32:51Z</time>
      </trkpt>
      <trkpt lat="45.60512" lon="4.82114">
        <ele>235.8</ele>
        <time>2016-03-20T09:32:53Z</time>
      </trkpt>
      <trkpt lat="45.60519" lon="4.82119">
        <ele>236.2</ele>
        <time>2016-03-20T09:32:55Z</time>
      </trkpt>
      <trkpt lat="45.60526" lon="4.82119">
        <ele>236.4</ele>
        <time>2016-03-20T09:32:57Z</time>
      </trkpt>
      <trkpt lat="45.60534" lon="4.82118">
        <ele>236.6</ele>
        <time>2016-03-20T09:32:59Z</time>
      </trkpt>
      <trkpt lat="45.60541" lon="4.82116">
        <ele>236.8</ele>
        <time>2016-03-20T09:33:01Z</time>
      </trkpt>
      <trkpt lat="45.60548" lon="4.82115">
        <ele>237</ele>
        <time>2016-03-20T09:33:03Z</time>
      </trkpt>
      <trkpt lat="45.60555" lon="4.82114">
        <ele>237.2</ele>
        <time>2016-03-20T09:33:05Z</time>
      </trkpt>
      <trkpt lat="45.60563" lon="4.82112">
        <ele>237.4</ele>
        <time>2016-03-20T09:33:07Z</time>
      </trkpt>
      <trkpt lat="45.60571" lon="4.8211">
        <ele>237.7</ele>
        <time>2016-03-20T09:33:09Z</time>
      </trkpt>
      <trkpt lat="45.60578" lon="4.82109">
        <ele>237.9</ele>
        <time>2016-03-20T09:33:11Z</time>
      </trkpt>
      <trkpt lat="45.60586" lon="4.82108">
        <ele>238.2</ele>
        <time>2016-03-20T09:33:13Z</time>
      </trkpt>
      <trkpt lat="45.60593" lon="4.82107">
        <ele>238.6</ele>
        <time>2016-03-20T09:33:15Z</time>
      </trkpt>
      <trkpt lat="45.60601" lon="4.82106">
        <ele>239.3</ele>
        <time>2016-03-20T09:33:17Z</time>
      </trkpt>
      <trkpt lat="45.60609" lon="4.82106">
        <ele>239.9</ele>
        <time>2016-03-20T09:33:19Z</time>
      </trkpt>
      <trkpt lat="45.60616" lon="4.82105">
        <ele>240.4</ele>
        <time>2016-03-20T09:33:21Z</time>
      </trkpt>
      <trkpt lat="45.60624" lon="4.82105">
        <ele>240.9</ele>
        <time>2016-03-20T09:33:23Z</time>
      </trkpt>
      <trkpt lat="45.60631" lon="4.82106">
        <ele>241.4</ele>
        <time>2016-03-20T09:33:25Z</time>
      </trkpt>
      <trkpt lat="45.60639" lon="4.82108">
        <ele>242.1</ele>
        <time>2016-03-20T09:33:27Z</time>
      </trkpt>
      <trkpt lat="45.60647" lon="4.82109">
        <ele>242.9</ele>
        <time>2016-03-20T09:33:29Z</time>
      </trkpt>
      <trkpt lat="45.60655" lon="4.8211">
        <ele>243.7</ele>
        <time>2016-03-20T09:33:31Z</time>
      </trkpt>
      <trkpt lat="45.60663" lon="4.82111">
        <ele>244.1</ele>
        <time>2016-03-20T09:33:33Z</time>
      </trkpt>
      <trkpt lat="45.60671" lon="4.82112">
        <ele>244.4</ele>
        <time>2016-03-20T09:33:35Z</time>
      </trkpt>
      <trkpt lat="45.60679" lon="4.82114">
        <ele>244.7</ele>
        <time>2016-03-20T09:33:37Z</time>
      </trkpt>
      <trkpt lat="45.60687" lon="4.82115">
        <ele>245.2</ele>
        <time>2016-03-20T09:33:39Z</time>
      </trkpt>
      <trkpt lat="45.60694" lon="4.82117">
        <ele>245.9</ele>
        <time>2016-03-20T09:33:41Z</time>
      </trkpt>
      <trkpt lat="45.60701" lon="4.82119">
        <ele>246.6</ele>
        <time>2016-03-20T09:33:43Z</time>
      </trkpt>
      <trkpt lat="45.60708" lon="4.82121">
        <ele>247</ele>
        <time>2016-03-20T09:33:45Z</time>
      </trkpt>
      <trkpt lat="45.60716" lon="4.82122">
        <ele>247.3</ele>
        <time>2016-03-20T09:33:47Z</time>
      </trkpt>
      <trkpt lat="45.60724" lon="4.82124">
        <ele>247.6</ele>
        <time>2016-03-20T09:33:49Z</time>
      </trkpt>
      <trkpt lat="45.60732" lon="4.82125">
        <ele>248</ele>
        <time>2016-03-20T09:33:51Z</time>
      </trkpt>
      <trkpt lat="45.60739" lon="4.82127">
        <ele>248.4</ele>
        <time>2016-03-20T09:33:53Z</time>
      </trkpt>
      <trkpt lat="45.60747" lon="4.82128">
        <ele>249</ele>
        <time>2016-03-20T09:33:55Z</time>
      </trkpt>
      <trkpt lat="45.60754" lon="4.82129">
        <ele>249.4</ele>
        <time>2016-03-20T09:33:57Z</time>
      </trkpt>
      <trkpt lat="45.60761" lon="4.82131">
        <ele>250.3</ele>
        <time>2016-03-20T09:33:59Z</time>
      </trkpt>
      <trkpt lat="45.60768" lon="4.82132">
        <ele>251.2</ele>
        <time>2016-03-20T09:34:01Z</time>
      </trkpt>
      <trkpt lat="45.60775" lon="4.82132">
        <ele>251.9</ele>
        <time>2016-03-20T09:34:03Z</time>
      </trkpt>
      <trkpt lat="45.60781" lon="4.82132">
        <ele>252.3</ele>
        <time>2016-03-20T09:34:05Z</time>
      </trkpt>
      <trkpt lat="45.60787" lon="4.82133">
        <ele>252.7</ele>
        <time>2016-03-20T09:34:07Z</time>
      </trkpt>
      <trkpt lat="45.60793" lon="4.82134">
        <ele>253</ele>
        <time>2016-03-20T09:34:09Z</time>
      </trkpt>
      <trkpt lat="45.60799" lon="4.82136">
        <ele>253</ele>
        <time>2016-03-20T09:34:11Z</time>
      </trkpt>
      <trkpt lat="45.60806" lon="4.82137">
        <ele>253.2</ele>
        <time>2016-03-20T09:34:13Z</time>
      </trkpt>
      <trkpt lat="45.60812" lon="4.82139">
        <ele>253.3</ele>
        <time>2016-03-20T09:34:15Z</time>
      </trkpt>
      <trkpt lat="45.60819" lon="4.82142">
        <ele>253.3</ele>
        <time>2016-03-20T09:34:17Z</time>
      </trkpt>
      <trkpt lat="45.60825" lon="4.82145">
        <ele>253.4</ele>
        <time>2016-03-20T09:34:19Z</time>
      </trkpt>
      <trkpt lat="45.60832" lon="4.82149">
        <ele>253.4</ele>
        <time>2016-03-20T09:34:21Z</time>
      </trkpt>
      <trkpt lat="45.60838" lon="4.82153">
        <ele>253.4</ele>
        <time>2016-03-20T09:34:23Z</time>
      </trkpt>
      <trkpt lat="45.60844" lon="4.82158">
        <ele>253.5</ele>
        <time>2016-03-20T09:34:25Z</time>
      </trkpt>
      <trkpt lat="45.6085" lon="4.82165">
        <ele>253.7</ele>
        <time>2016-03-20T09:34:27Z</time>
      </trkpt>
      <trkpt lat="45.60855" lon="4.82171">
        <ele>254.1</ele>
        <time>2016-03-20T09:34:29Z</time>
      </trkpt>
      <trkpt lat="45.6086" lon="4.82178">
        <ele>254.5</ele>
        <time>2016-03-20T09:34:31Z</time>
      </trkpt>
      <trkpt lat="45.60865" lon="4.82185">
        <ele>254.9</ele>
        <time>2016-03-20T09:34:33Z</time>
      </trkpt>
      <trkpt lat="45.6087" lon="4.82192">
        <ele>255</ele>
        <time>2016-03-20T09:34:35Z</time>
      </trkpt>
      <trkpt lat="45.60875" lon="4.82199">
        <ele>255</ele>
        <time>2016-03-20T09:34:37Z</time>
      </trkpt>
      <trkpt lat="45.6088" lon="4.82207">
        <ele>255.1</ele>
        <time>2016-03-20T09:34:39Z</time>
      </trkpt>
      <trkpt lat="45.60884" lon="4.82214">
        <ele>255.3</ele>
        <time>2016-03-20T09:34:41Z</time>
      </trkpt>
      <trkpt lat="45.60889" lon="4.82222">
        <ele>255.7</ele>
        <time>2016-03-20T09:34:43Z</time>
      </trkpt>
      <trkpt lat="45.60894" lon="4.8223">
        <ele>256.1</ele>
        <time>2016-03-20T09:34:45Z</time>
      </trkpt>
      <trkpt lat="45.609" lon="4.82237">
        <ele>256.3</ele>
        <time>2016-03-20T09:34:47Z</time>
      </trkpt>
      <trkpt lat="45.60905" lon="4.82245">
        <ele>256.4</ele>
        <time>2016-03-20T09:34:49Z</time>
      </trkpt>
      <trkpt lat="45.6091" lon="4.82252">
        <ele>256</ele>
        <time>2016-03-20T09:34:51Z</time>
      </trkpt>
      <trkpt lat="45.60916" lon="4.82259">
        <ele>255.8</ele>
        <time>2016-03-20T09:34:53Z</time>
      </trkpt>
      <trkpt lat="45.60921" lon="4.82266">
        <ele>255.6</ele>
        <time>2016-03-20T09:34:55Z</time>
      </trkpt>
      <trkpt lat="45.60926" lon="4.82273">
        <ele>255.5</ele>
        <time>2016-03-20T09:34:57Z</time>
      </trkpt>
      <trkpt lat="45.60931" lon="4.82281">
        <ele>255.4</ele>
        <time>2016-03-20T09:34:59Z</time>
      </trkpt>
      <trkpt lat="45.60936" lon="4.82289">
        <ele>255.2</ele>
        <time>2016-03-20T09:35:01Z</time>
      </trkpt>
      <trkpt lat="45.6094" lon="4.82297">
        <ele>255.1</ele>
        <time>2016-03-20T09:35:03Z</time>
      </trkpt>
      <trkpt lat="45.60945" lon="4.82305">
        <ele>255.8</ele>
        <time>2016-03-20T09:35:05Z</time>
      </trkpt>
      <trkpt lat="45.6095" lon="4.82312">
        <ele>256.2</ele>
        <time>2016-03-20T09:35:07Z</time>
      </trkpt>
      <trkpt lat="45.60954" lon="4.8232">
        <ele>256.9</ele>
        <time>2016-03-20T09:35:09Z</time>
      </trkpt>
      <trkpt lat="45.60959" lon="4.82328">
        <ele>257.3</ele>
        <time>2016-03-20T09:35:11Z</time>
      </trkpt>
      <trkpt lat="45.60964" lon="4.82336">
        <ele>257.7</ele>
        <time>2016-03-20T09:35:13Z</time>
      </trkpt>
      <trkpt lat="45.60968" lon="4.82344">
        <ele>257.8</ele>
        <time>2016-03-20T09:35:15Z</time>
      </trkpt>
      <trkpt lat="45.60973" lon="4.82351">
        <ele>258</ele>
        <time>2016-03-20T09:35:17Z</time>
      </trkpt>
      <trkpt lat="45.60978" lon="4.82359">
        <ele>258.3</ele>
        <time>2016-03-20T09:35:19Z</time>
      </trkpt>
      <trkpt lat="45.60982" lon="4.82367">
        <ele>258.7</ele>
        <time>2016-03-20T09:35:21Z</time>
      </trkpt>
      <trkpt lat="45.60986" lon="4.82374">
        <ele>259</ele>
        <time>2016-03-20T09:35:23Z</time>
      </trkpt>
      <trkpt lat="45.6099" lon="4.82382">
        <ele>259.1</ele>
        <time>2016-03-20T09:35:25Z</time>
      </trkpt>
      <trkpt lat="45.60994" lon="4.8239">
        <ele>259.2</ele>
        <time>2016-03-20T09:35:27Z</time>
      </trkpt>
      <trkpt lat="45.60999" lon="4.82397">
        <ele>259.3</ele>
        <time>2016-03-20T09:35:29Z</time>
      </trkpt>
      <trkpt lat="45.61003" lon="4.82404">
        <ele>259.5</ele>
        <time>2016-03-20T09:35:31Z</time>
      </trkpt>
      <trkpt lat="45.61008" lon="4.82412">
        <ele>260.3</ele>
        <time>2016-03-20T09:35:33Z</time>
      </trkpt>
      <trkpt lat="45.61013" lon="4.82419">
        <ele>260.8</ele>
        <time>2016-03-20T09:35:35Z</time>
      </trkpt>
      <trkpt lat="45.61017" lon="4.82427">
        <ele>261.7</ele>
        <time>2016-03-20T09:35:37Z</time>
      </trkpt>
      <trkpt lat="45.61022" lon="4.82434">
        <ele>262.1</ele>
        <time>2016-03-20T09:35:39Z</time>
      </trkpt>
      <trkpt lat="45.61027" lon="4.82441">
        <ele>262.7</ele>
        <time>2016-03-20T09:35:41Z</time>
      </trkpt>
      <trkpt lat="45.61032" lon="4.82448">
        <ele>263.4</ele>
        <time>2016-03-20T09:35:43Z</time>
      </trkpt>
      <trkpt lat="45.61037" lon="4.82455">
        <ele>263.8</ele>
        <time>2016-03-20T09:35:45Z</time>
      </trkpt>
      <trkpt lat="45.61042" lon="4.82461">
        <ele>264.3</ele>
        <time>2016-03-20T09:35:47Z</time>
      </trkpt>
      <trkpt lat="45.61047" lon="4.82468">
        <ele>264.7</ele>
        <time>2016-03-20T09:35:49Z</time>
      </trkpt>
      <trkpt lat="45.61053" lon="4.82475">
        <ele>265</ele>
        <time>2016-03-20T09:35:51Z</time>
      </trkpt>
      <trkpt lat="45.61059" lon="4.82482">
        <ele>265.3</ele>
        <time>2016-03-20T09:35:53Z</time>
      </trkpt>
      <trkpt lat="45.61065" lon="4.82488">
        <ele>265.5</ele>
        <time>2016-03-20T09:35:55Z</time>
      </trkpt>
      <trkpt lat="45.6107" lon="4.82495">
        <ele>265.9</ele>
        <time>2016-03-20T09:35:57Z</time>
      </trkpt>
      <trkpt lat="45.61076" lon="4.82501">
        <ele>266.2</ele>
        <time>2016-03-20T09:35:59Z</time>
      </trkpt>
      <trkpt lat="45.61082" lon="4.82507">
        <ele>266.6</ele>
        <time>2016-03-20T09:36:01Z</time>
      </trkpt>
      <trkpt lat="45.61088" lon="4.82513">
        <ele>266.8</ele>
        <time>2016-03-20T09:36:03Z</time>
      </trkpt>
      <trkpt lat="45.61094" lon="4.82518">
        <ele>267.1</ele>
        <time>2016-03-20T09:36:05Z</time>
      </trkpt>
      <trkpt lat="45.611" lon="4.82523">
        <ele>267.4</ele>
        <time>2016-03-20T09:36:07Z</time>
      </trkpt>
      <trkpt lat="45.61107" lon="4.82528">
        <ele>267.8</ele>
        <time>2016-03-20T09:36:09Z</time>
      </trkpt>
      <trkpt lat="45.61113" lon="4.82533">
        <ele>267.9</ele>
        <time>2016-03-20T09:36:11Z</time>
      </trkpt>
      <trkpt lat="45.6112" lon="4.82539">
        <ele>268.1</ele>
        <time>2016-03-20T09:36:13Z</time>
      </trkpt>
      <trkpt lat="45.61127" lon="4.82544">
        <ele>268.4</ele>
        <time>2016-03-20T09:36:15Z</time>
      </trkpt>
      <trkpt lat="45.61134" lon="4.82549">
        <ele>268.8</ele>
        <time>2016-03-20T09:36:17Z</time>
      </trkpt>
      <trkpt lat="45.6114" lon="4.82555">
        <ele>268.9</ele>
        <time>2016-03-20T09:36:19Z</time>
      </trkpt>
      <trkpt lat="45.61147" lon="4.8256">
        <ele>269</ele>
        <time>2016-03-20T09:36:21Z</time>
      </trkpt>
      <trkpt lat="45.61153" lon="4.82566">
        <ele>269.4</ele>
        <time>2016-03-20T09:36:23Z</time>
      </trkpt>
      <trkpt lat="45.61159" lon="4.82572">
        <ele>269.6</ele>
        <time>2016-03-20T09:36:25Z</time>
      </trkpt>
      <trkpt lat="45.61165" lon="4.82578">
        <ele>269.9</ele>
        <time>2016-03-20T09:36:27Z</time>
      </trkpt>
      <trkpt lat="45.61171" lon="4.82584">
        <ele>270.4</ele>
        <time>2016-03-20T09:36:29Z</time>
      </trkpt>
      <trkpt lat="45.61177" lon="4.8259">
        <ele>270.7</ele>
        <time>2016-03-20T09:36:31Z</time>
      </trkpt>
      <trkpt lat="45.61182" lon="4.82596">
        <ele>271.2</ele>
        <time>2016-03-20T09:36:33Z</time>
      </trkpt>
      <trkpt lat="45.61188" lon="4.82602">
        <ele>271.9</ele>
        <time>2016-03-20T09:36:35Z</time>
      </trkpt>
      <trkpt lat="45.61194" lon="4.82608">
        <ele>272.4</ele>
        <time>2016-03-20T09:36:37Z</time>
      </trkpt>
      <trkpt lat="45.612" lon="4.82614">
        <ele>272.8</ele>
        <time>2016-03-20T09:36:39Z</time>
      </trkpt>
      <trkpt lat="45.61205" lon="4.82621">
        <ele>273.2</ele>
        <time>2016-03-20T09:36:41Z</time>
      </trkpt>
      <trkpt lat="45.61211" lon="4.82626">
        <ele>273.5</ele>
        <time>2016-03-20T09:36:43Z</time>
      </trkpt>
      <trkpt lat="45.61217" lon="4.82632">
        <ele>273.6</ele>
        <time>2016-03-20T09:36:45Z</time>
      </trkpt>
      <trkpt lat="45.61223" lon="4.82637">
        <ele>273.8</ele>
        <time>2016-03-20T09:36:47Z</time>
      </trkpt>
      <trkpt lat="45.61229" lon="4.82641">
        <ele>274.1</ele>
        <time>2016-03-20T09:36:49Z</time>
      </trkpt>
      <trkpt lat="45.61235" lon="4.82646">
        <ele>274.5</ele>
        <time>2016-03-20T09:36:51Z</time>
      </trkpt>
      <trkpt lat="45.61242" lon="4.8265">
        <ele>274.9</ele>
        <time>2016-03-20T09:36:53Z</time>
      </trkpt>
      <trkpt lat="45.61248" lon="4.82655">
        <ele>275.2</ele>
        <time>2016-03-20T09:36:55Z</time>
      </trkpt>
      <trkpt lat="45.61254" lon="4.82658">
        <ele>275.3</ele>
        <time>2016-03-20T09:36:57Z</time>
      </trkpt>
      <trkpt lat="45.61261" lon="4.82661">
        <ele>275.3</ele>
        <time>2016-03-20T09:36:59Z</time>
      </trkpt>
      <trkpt lat="45.61267" lon="4.82664">
        <ele>275.3</ele>
        <time>2016-03-20T09:37:01Z</time>
      </trkpt>
      <trkpt lat="45.61274" lon="4.82667">
        <ele>275.3</ele>
        <time>2016-03-20T09:37:03Z</time>
      </trkpt>
      <trkpt lat="45.61281" lon="4.82669">
        <ele>275.3</ele>
        <time>2016-03-20T09:37:05Z</time>
      </trkpt>
      <trkpt lat="45.61289" lon="4.82672">
        <ele>275.4</ele>
        <time>2016-03-20T09:37:07Z</time>
      </trkpt>
      <trkpt lat="45.61295" lon="4.82676">
        <ele>275.4</ele>
        <time>2016-03-20T09:37:09Z</time>
      </trkpt>
      <trkpt lat="45.61302" lon="4.82678">
        <ele>275.4</ele>
        <time>2016-03-20T09:37:11Z</time>
      </trkpt>
      <trkpt lat="45.6131" lon="4.8268">
        <ele>275.5</ele>
        <time>2016-03-20T09:37:13Z</time>
      </trkpt>
      <trkpt lat="45.61317" lon="4.82683">
        <ele>275.6</ele>
        <time>2016-03-20T09:37:15Z</time>
      </trkpt>
      <trkpt lat="45.61324" lon="4.82687">
        <ele>275.7</ele>
        <time>2016-03-20T09:37:17Z</time>
      </trkpt>
      <trkpt lat="45.61331" lon="4.8269">
        <ele>275.9</ele>
        <time>2016-03-20T09:37:19Z</time>
      </trkpt>
      <trkpt lat="45.61338" lon="4.82694">
        <ele>276</ele>
        <time>2016-03-20T09:37:21Z</time>
      </trkpt>
      <trkpt lat="45.61345" lon="4.827">
        <ele>276</ele>
        <time>2016-03-20T09:37:23Z</time>
      </trkpt>
      <trkpt lat="45.61351" lon="4.82708">
        <ele>276.1</ele>
        <time>2016-03-20T09:37:25Z</time>
      </trkpt>
      <trkpt lat="45.61356" lon="4.82717">
        <ele>276</ele>
        <time>2016-03-20T09:37:27Z</time>
      </trkpt>
      <trkpt lat="45.6136" lon="4.82727">
        <ele>275.9</ele>
        <time>2016-03-20T09:37:29Z</time>
      </trkpt>
      <trkpt lat="45.61364" lon="4.82737">
        <ele>275.7</ele>
        <time>2016-03-20T09:37:31Z</time>
      </trkpt>
      <trkpt lat="45.61368" lon="4.82747">
        <ele>275.7</ele>
        <time>2016-03-20T09:37:33Z</time>
      </trkpt>
      <trkpt lat="45.61372" lon="4.82756">
        <ele>275.7</ele>
        <time>2016-03-20T09:37:35Z</time>
      </trkpt>
      <trkpt lat="45.61375" lon="4.82765">
        <ele>275.7</ele>
        <time>2016-03-20T09:37:37Z</time>
      </trkpt>
      <trkpt lat="45.61379" lon="4.82774">
        <ele>275.8</ele>
        <time>2016-03-20T09:37:39Z</time>
      </trkpt>
      <trkpt lat="45.6138" lon="4.82783">
        <ele>276.1</ele>
        <time>2016-03-20T09:37:41Z</time>
      </trkpt>
      <trkpt lat="45.61383" lon="4.82793">
        <ele>276.6</ele>
        <time>2016-03-20T09:37:43Z</time>
      </trkpt>
      <trkpt lat="45.61385" lon="4.82804">
        <ele>277.4</ele>
        <time>2016-03-20T09:37:45Z</time>
      </trkpt>
      <trkpt lat="45.61388" lon="4.82814">
        <ele>277.8</ele>
        <time>2016-03-20T09:37:47Z</time>
      </trkpt>
      <trkpt lat="45.6139" lon="4.82825">
        <ele>277.9</ele>
        <time>2016-03-20T09:37:49Z</time>
      </trkpt>
      <trkpt lat="45.61393" lon="4.82835">
        <ele>277.9</ele>
        <time>2016-03-20T09:37:51Z</time>
      </trkpt>
      <trkpt lat="45.61394" lon="4.82846">
        <ele>277.4</ele>
        <time>2016-03-20T09:37:53Z</time>
      </trkpt>
      <trkpt lat="45.61396" lon="4.82856">
        <ele>277.2</ele>
        <time>2016-03-20T09:37:55Z</time>
      </trkpt>
      <trkpt lat="45.61399" lon="4.82867">
        <ele>276.9</ele>
        <time>2016-03-20T09:37:57Z</time>
      </trkpt>
      <trkpt lat="45.61401" lon="4.82877">
        <ele>277.1</ele>
        <time>2016-03-20T09:37:59Z</time>
      </trkpt>
      <trkpt lat="45.61404" lon="4.82888">
        <ele>277.4</ele>
        <time>2016-03-20T09:38:01Z</time>
      </trkpt>
      <trkpt lat="45.61407" lon="4.82896">
        <ele>277.4</ele>
        <time>2016-03-20T09:38:03Z</time>
      </trkpt>
      <trkpt lat="45.61411" lon="4.82902">
        <ele>277.4</ele>
        <time>2016-03-20T09:38:05Z</time>
      </trkpt>
      <trkpt lat="45.61415" lon="4.82903">
        <ele>277.4</ele>
        <time>2016-03-20T09:38:07Z</time>
      </trkpt>
      <trkpt lat="45.61421" lon="4.82902">
        <ele>277.4</ele>
        <time>2016-03-20T09:38:09Z</time>
      </trkpt>
      <trkpt lat="45.61426" lon="4.82898">
        <ele>277.4</ele>
        <time>2016-03-20T09:38:11Z</time>
      </trkpt>
      <trkpt lat="45.61431" lon="4.82895">
        <ele>277.4</ele>
        <time>2016-03-20T09:38:13Z</time>
      </trkpt>
      <trkpt lat="45.61435" lon="4.82893">
        <ele>277.3</ele>
        <time>2016-03-20T09:38:15Z</time>
      </trkpt>
      <trkpt lat="45.61439" lon="4.82891">
        <ele>277.3</ele>
        <time>2016-03-20T09:38:17Z</time>
      </trkpt>
      <trkpt lat="45.61442" lon="4.82889">
        <ele>277.3</ele>
        <time>2016-03-20T09:38:19Z</time>
      </trkpt>
      <trkpt lat="45.61446" lon="4.82887">
        <ele>277.3</ele>
        <time>2016-03-20T09:38:21Z</time>
      </trkpt>
      <trkpt lat="45.6145" lon="4.82884">
        <ele>277.3</ele>
        <time>2016-03-20T09:38:23Z</time>
      </trkpt>
      <trkpt lat="45.61454" lon="4.82882">
        <ele>277.3</ele>
        <time>2016-03-20T09:38:25Z</time>
      </trkpt>
      <trkpt lat="45.61458" lon="4.8288">
        <ele>277.3</ele>
        <time>2016-03-20T09:38:27Z</time>
      </trkpt>
      <trkpt lat="45.61461" lon="4.82878">
        <ele>277.3</ele>
        <time>2016-03-20T09:38:29Z</time>
      </trkpt>
      <trkpt lat="45.61465" lon="4.82875">
        <ele>277.3</ele>
        <time>2016-03-20T09:38:31Z</time>
      </trkpt>
      <trkpt lat="45.6147" lon="4.82871">
        <ele>277.2</ele>
        <time>2016-03-20T09:38:33Z</time>
      </trkpt>
      <trkpt lat="45.61475" lon="4.82868">
        <ele>277.2</ele>
        <time>2016-03-20T09:38:35Z</time>
      </trkpt>
      <trkpt lat="45.6148" lon="4.82865">
        <ele>277.2</ele>
        <time>2016-03-20T09:38:37Z</time>
      </trkpt>
      <trkpt lat="45.61486" lon="4.82863">
        <ele>277.2</ele>
        <time>2016-03-20T09:38:39Z</time>
      </trkpt>
      <trkpt lat="45.61492" lon="4.82862">
        <ele>277.2</ele>
        <time>2016-03-20T09:38:41Z</time>
      </trkpt>
      <trkpt lat="45.61497" lon="4.82862">
        <ele>277.1</ele>
        <time>2016-03-20T09:38:43Z</time>
      </trkpt>
      <trkpt lat="45.61501" lon="4.8286">
        <ele>277.1</ele>
        <time>2016-03-20T09:38:45Z</time>
      </trkpt>
      <trkpt lat="45.61505" lon="4.82858">
        <ele>277.1</ele>
        <time>2016-03-20T09:38:47Z</time>
      </trkpt>
      <trkpt lat="45.61509" lon="4.82854">
        <ele>277.1</ele>
        <time>2016-03-20T09:38:49Z</time>
      </trkpt>
      <trkpt lat="45.6151" lon="4.82847">
        <ele>277</ele>
        <time>2016-03-20T09:38:51Z</time>
      </trkpt>
      <trkpt lat="45.61509" lon="4.8284">
        <ele>277</ele>
        <time>2016-03-20T09:38:53Z</time>
      </trkpt>
      <trkpt lat="45.61507" lon="4.82834">
        <ele>277</ele>
        <time>2016-03-20T09:38:55Z</time>
      </trkpt>
      <trkpt lat="45.61506" lon="4.82828">
        <ele>277</ele>
        <time>2016-03-20T09:38:57Z</time>
      </trkpt>
      <trkpt lat="45.61503" lon="4.82825">
        <ele>276.9</ele>
        <time>2016-03-20T09:38:59Z</time>
      </trkpt>
      <trkpt lat="45.61501" lon="4.82821">
        <ele>276.8</ele>
        <time>2016-03-20T09:39:01Z</time>
      </trkpt>
      <trkpt lat="45.61499" lon="4.82818">
        <ele>276.8</ele>
        <time>2016-03-20T09:39:03Z</time>
      </trkpt>
      <trkpt lat="45.61496" lon="4.82817">
        <ele>276.7</ele>
        <time>2016-03-20T09:39:20Z</time>
      </trkpt>
      <trkpt lat="45.61494" lon="4.82814">
        <ele>276.7</ele>
        <time>2016-03-20T09:39:22Z</time>
      </trkpt>
      <trkpt lat="45.61491" lon="4.82809">
        <ele>276.7</ele>
        <time>2016-03-20T09:39:24Z</time>
      </trkpt>
      <trkpt lat="45.61489" lon="4.82802">
        <ele>276.8</ele>
        <time>2016-03-20T09:39:26Z</time>
      </trkpt>
      <trkpt lat="45.61486" lon="4.82797">
        <ele>276.8</ele>
        <time>2016-03-20T09:39:28Z</time>
      </trkpt>
      <trkpt lat="45.61483" lon="4.82791">
        <ele>276.7</ele>
        <time>2016-03-20T09:39:30Z</time>
      </trkpt>
      <trkpt lat="45.61482" lon="4.82785">
        <ele>276.7</ele>
        <time>2016-03-20T09:39:32Z</time>
      </trkpt>
      <trkpt lat="45.6148" lon="4.8278">
        <ele>276.8</ele>
        <time>2016-03-20T09:39:34Z</time>
      </trkpt>
      <trkpt lat="45.61479" lon="4.82775">
        <ele>276.9</ele>
        <time>2016-03-20T09:39:36Z</time>
      </trkpt>
      <trkpt lat="45.61477" lon="4.82769">
        <ele>276.9</ele>
        <time>2016-03-20T09:39:38Z</time>
      </trkpt>
      <trkpt lat="45.61475" lon="4.82764">
        <ele>277</ele>
        <time>2016-03-20T09:39:40Z</time>
      </trkpt>
      <trkpt lat="45.61473" lon="4.82757">
        <ele>277.5</ele>
        <time>2016-03-20T09:39:42Z</time>
      </trkpt>
      <trkpt lat="45.61471" lon="4.82751">
        <ele>277.9</ele>
        <time>2016-03-20T09:39:44Z</time>
      </trkpt>
      <trkpt lat="45.61469" lon="4.82745">
        <ele>278.1</ele>
        <time>2016-03-20T09:39:46Z</time>
      </trkpt>
      <trkpt lat="45.61467" lon="4.82739">
        <ele>278.3</ele>
        <time>2016-03-20T09:39:48Z</time>
      </trkpt>
      <trkpt lat="45.61464" lon="4.82732">
        <ele>278.3</ele>
        <time>2016-03-20T09:39:50Z</time>
      </trkpt>
      <trkpt lat="45.61462" lon="4.82725">
        <ele>278.3</ele>
        <time>2016-03-20T09:39:52Z</time>
      </trkpt>
      <trkpt lat="45.61459" lon="4.82718">
        <ele>278.3</ele>
        <time>2016-03-20T09:39:54Z</time>
      </trkpt>
      <trkpt lat="45.61457" lon="4.82711">
        <ele>278.3</ele>
        <time>2016-03-20T09:39:56Z</time>
      </trkpt>
      <trkpt lat="45.61454" lon="4.82705">
        <ele>278.3</ele>
        <time>2016-03-20T09:39:58Z</time>
      </trkpt>
      <trkpt lat="45.61452" lon="4.82701">
        <ele>278.2</ele>
        <time>2016-03-20T09:40:00Z</time>
      </trkpt>
      <trkpt lat="45.61449" lon="4.82696">
        <ele>278</ele>
        <time>2016-03-20T09:40:02Z</time>
      </trkpt>
      <trkpt lat="45.61446" lon="4.82691">
        <ele>277.8</ele>
        <time>2016-03-20T09:40:04Z</time>
      </trkpt>
      <trkpt lat="45.61443" lon="4.82685">
        <ele>277.3</ele>
        <time>2016-03-20T09:40:06Z</time>
      </trkpt>
      <trkpt lat="45.6144" lon="4.82679">
        <ele>276.7</ele>
        <time>2016-03-20T09:40:08Z</time>
      </trkpt>
      <trkpt lat="45.61437" lon="4.82672">
        <ele>276.4</ele>
        <time>2016-03-20T09:40:10Z</time>
      </trkpt>
      <trkpt lat="45.61433" lon="4.82665">
        <ele>276.2</ele>
        <time>2016-03-20T09:40:12Z</time>
      </trkpt>
      <trkpt lat="45.61429" lon="4.82657">
        <ele>275.9</ele>
        <time>2016-03-20T09:40:14Z</time>
      </trkpt>
      <trkpt lat="45.61425" lon="4.82648">
        <ele>275.2</ele>
        <time>2016-03-20T09:40:16Z</time>
      </trkpt>
      <trkpt lat="45.6142" lon="4.82636">
        <ele>274.7</ele>
        <time>2016-03-20T09:40:18Z</time>
      </trkpt>
      <trkpt lat="45.61413" lon="4.82624">
        <ele>274.3</ele>
        <time>2016-03-20T09:40:20Z</time>
      </trkpt>
      <trkpt lat="45.61406" lon="4.82612">
        <ele>274.3</ele>
        <time>2016-03-20T09:40:22Z</time>
      </trkpt>
      <trkpt lat="45.61399" lon="4.82598">
        <ele>274.1</ele>
        <time>2016-03-20T09:40:24Z</time>
      </trkpt>
      <trkpt lat="45.61391" lon="4.82584">
        <ele>273.8</ele>
        <time>2016-03-20T09:40:26Z</time>
      </trkpt>
      <trkpt lat="45.61383" lon="4.8257">
        <ele>273</ele>
        <time>2016-03-20T09:40:28Z</time>
      </trkpt>
      <trkpt lat="45.61374" lon="4.82554">
        <ele>272.7</ele>
        <time>2016-03-20T09:40:30Z</time>
      </trkpt>
      <trkpt lat="45.61366" lon="4.82537">
        <ele>272.4</ele>
        <time>2016-03-20T09:40:32Z</time>
      </trkpt>
      <trkpt lat="45.61358" lon="4.8252">
        <ele>271.6</ele>
        <time>2016-03-20T09:40:34Z</time>
      </trkpt>
      <trkpt lat="45.61351" lon="4.82503">
        <ele>270.8</ele>
        <time>2016-03-20T09:40:36Z</time>
      </trkpt>
      <trkpt lat="45.61342" lon="4.82486">
        <ele>270</ele>
        <time>2016-03-20T09:40:38Z</time>
      </trkpt>
      <trkpt lat="45.61332" lon="4.82468">
        <ele>268.7</ele>
        <time>2016-03-20T09:40:40Z</time>
      </trkpt>
      <trkpt lat="45.61322" lon="4.82448">
        <ele>267.8</ele>
        <time>2016-03-20T09:40:42Z</time>
      </trkpt>
      <trkpt lat="45.61313" lon="4.82429">
        <ele>267.7</ele>
        <time>2016-03-20T09:40:44Z</time>
      </trkpt>
      <trkpt lat="45.61302" lon="4.8241">
        <ele>268</ele>
        <time>2016-03-20T09:40:46Z</time>
      </trkpt>
      <trkpt lat="45.61291" lon="4.8239">
        <ele>267.5</ele>
        <time>2016-03-20T09:40:48Z</time>
      </trkpt>
      <trkpt lat="45.6128" lon="4.8237">
        <ele>267.1</ele>
        <time>2016-03-20T09:40:50Z</time>
      </trkpt>
      <trkpt lat="45.61272" lon="4.82347">
        <ele>265.2</ele>
        <time>2016-03-20T09:40:52Z</time>
      </trkpt>
      <trkpt lat="45.61266" lon="4.82321">
        <ele>261.9</ele>
        <time>2016-03-20T09:40:54Z</time>
      </trkpt>
      <trkpt lat="45.61262" lon="4.82295">
        <ele>260</ele>
        <time>2016-03-20T09:40:56Z</time>
      </trkpt>
      <trkpt lat="45.61258" lon="4.82267">
        <ele>259.4</ele>
        <time>2016-03-20T09:40:58Z</time>
      </trkpt>
      <trkpt lat="45.61255" lon="4.82238">
        <ele>258.5</ele>
        <time>2016-03-20T09:41:00Z</time>
      </trkpt>
      <trkpt lat="45.61253" lon="4.82208">
        <ele>257.1</ele>
        <time>2016-03-20T09:41:02Z</time>
      </trkpt>
      <trkpt lat="45.61249" lon="4.82178">
        <ele>257</ele>
        <time>2016-03-20T09:41:04Z</time>
      </trkpt>
      <trkpt lat="45.61245" lon="4.82148">
        <ele>255.7</ele>
        <time>2016-03-20T09:41:06Z</time>
      </trkpt>
      <trkpt lat="45.61239" lon="4.82118">
        <ele>254.1</ele>
        <time>2016-03-20T09:41:08Z</time>
      </trkpt>
      <trkpt lat="45.61232" lon="4.82088">
        <ele>253.7</ele>
        <time>2016-03-20T09:41:10Z</time>
      </trkpt>
      <trkpt lat="45.61225" lon="4.82059">
        <ele>253.1</ele>
        <time>2016-03-20T09:41:12Z</time>
      </trkpt>
      <trkpt lat="45.61218" lon="4.82035">
        <ele>251.4</ele>
        <time>2016-03-20T09:41:14Z</time>
      </trkpt>
      <trkpt lat="45.61214" lon="4.82017">
        <ele>250.2</ele>
        <time>2016-03-20T09:41:16Z</time>
      </trkpt>
      <trkpt lat="45.61219" lon="4.82001">
        <ele>248.9</ele>
        <time>2016-03-20T09:41:18Z</time>
      </trkpt>
      <trkpt lat="45.61226" lon="4.81986">
        <ele>248.5</ele>
        <time>2016-03-20T09:41:20Z</time>
      </trkpt>
      <trkpt lat="45.61233" lon="4.81969">
        <ele>248.5</ele>
        <time>2016-03-20T09:41:22Z</time>
      </trkpt>
      <trkpt lat="45.61239" lon="4.81951">
        <ele>248.4</ele>
        <time>2016-03-20T09:41:24Z</time>
      </trkpt>
      <trkpt lat="45.61247" lon="4.81932">
        <ele>248.3</ele>
        <time>2016-03-20T09:41:26Z</time>
      </trkpt>
      <trkpt lat="45.61253" lon="4.81913">
        <ele>248.2</ele>
        <time>2016-03-20T09:41:28Z</time>
      </trkpt>
      <trkpt lat="45.61261" lon="4.81892">
        <ele>248</ele>
        <time>2016-03-20T09:41:30Z</time>
      </trkpt>
      <trkpt lat="45.61264" lon="4.81868">
        <ele>247.5</ele>
        <time>2016-03-20T09:41:32Z</time>
      </trkpt>
      <trkpt lat="45.61265" lon="4.81843">
        <ele>247.5</ele>
        <time>2016-03-20T09:41:34Z</time>
      </trkpt>
      <trkpt lat="45.61266" lon="4.81817">
        <ele>247.5</ele>
        <time>2016-03-20T09:41:36Z</time>
      </trkpt>
      <trkpt lat="45.61267" lon="4.81793">
        <ele>247</ele>
        <time>2016-03-20T09:41:38Z</time>
      </trkpt>
      <trkpt lat="45.61268" lon="4.81769">
        <ele>246.7</ele>
        <time>2016-03-20T09:41:40Z</time>
      </trkpt>
      <trkpt lat="45.61268" lon="4.81749">
        <ele>246.6</ele>
        <time>2016-03-20T09:41:42Z</time>
      </trkpt>
      <trkpt lat="45.61263" lon="4.81735">
        <ele>246</ele>
        <time>2016-03-20T09:41:44Z</time>
      </trkpt>
      <trkpt lat="45.61258" lon="4.81724">
        <ele>246</ele>
        <time>2016-03-20T09:41:46Z</time>
      </trkpt>
      <trkpt lat="45.61258" lon="4.8171">
        <ele>246.4</ele>
        <time>2016-03-20T09:41:48Z</time>
      </trkpt>
      <trkpt lat="45.61259" lon="4.81694">
        <ele>247.2</ele>
        <time>2016-03-20T09:41:50Z</time>
      </trkpt>
      <trkpt lat="45.6126" lon="4.81677">
        <ele>247.1</ele>
        <time>2016-03-20T09:41:52Z</time>
      </trkpt>
      <trkpt lat="45.61264" lon="4.8166">
        <ele>246.7</ele>
        <time>2016-03-20T09:41:54Z</time>
      </trkpt>
      <trkpt lat="45.61265" lon="4.81642">
        <ele>246.5</ele>
        <time>2016-03-20T09:41:56Z</time>
      </trkpt>
      <trkpt lat="45.61258" lon="4.81625">
        <ele>246.1</ele>
        <time>2016-03-20T09:41:58Z</time>
      </trkpt>
      <trkpt lat="45.61249" lon="4.81609">
        <ele>244.7</ele>
        <time>2016-03-20T09:42:00Z</time>
      </trkpt>
      <trkpt lat="45.61239" lon="4.81594">
        <ele>243.1</ele>
        <time>2016-03-20T09:42:02Z</time>
      </trkpt>
      <trkpt lat="45.61226" lon="4.81581">
        <ele>242.2</ele>
        <time>2016-03-20T09:42:04Z</time>
      </trkpt>
      <trkpt lat="45.61214" lon="4.81566">
        <ele>242.1</ele>
        <time>2016-03-20T09:42:06Z</time>
      </trkpt>
      <trkpt lat="45.61202" lon="4.81553">
        <ele>241.2</ele>
        <time>2016-03-20T09:42:08Z</time>
      </trkpt>
      <trkpt lat="45.6119" lon="4.81538">
        <ele>241.2</ele>
        <time>2016-03-20T09:42:10Z</time>
      </trkpt>
      <trkpt lat="45.61178" lon="4.81527">
        <ele>241.9</ele>
        <time>2016-03-20T09:42:12Z</time>
      </trkpt>
      <trkpt lat="45.61165" lon="4.81518">
        <ele>241.5</ele>
        <time>2016-03-20T09:42:14Z</time>
      </trkpt>
      <trkpt lat="45.61154" lon="4.81503">
        <ele>241.3</ele>
        <time>2016-03-20T09:42:16Z</time>
      </trkpt>
      <trkpt lat="45.61145" lon="4.81485">
        <ele>240.5</ele>
        <time>2016-03-20T09:42:18Z</time>
      </trkpt>
      <trkpt lat="45.61142" lon="4.81469">
        <ele>239.2</ele>
        <time>2016-03-20T09:42:20Z</time>
      </trkpt>
      <trkpt lat="45.61147" lon="4.81454">
        <ele>238.8</ele>
        <time>2016-03-20T09:42:22Z</time>
      </trkpt>
      <trkpt lat="45.61154" lon="4.81442">
        <ele>238.6</ele>
        <time>2016-03-20T09:42:24Z</time>
      </trkpt>
      <trkpt lat="45.61163" lon="4.81433">
        <ele>238.3</ele>
        <time>2016-03-20T09:42:26Z</time>
      </trkpt>
      <trkpt lat="45.61169" lon="4.81422">
        <ele>238.8</ele>
        <time>2016-03-20T09:42:28Z</time>
      </trkpt>
      <trkpt lat="45.61173" lon="4.81417">
        <ele>239.1</ele>
        <time>2016-03-20T09:42:30Z</time>
      </trkpt>
      <trkpt lat="45.61175" lon="4.8142">
        <ele>239.5</ele>
        <time>2016-03-20T09:42:32Z</time>
      </trkpt>
      <trkpt lat="45.61181" lon="4.81424">
        <ele>239.9</ele>
        <time>2016-03-20T09:42:34Z</time>
      </trkpt>
      <trkpt lat="45.6119" lon="4.81428">
        <ele>239.7</ele>
        <time>2016-03-20T09:42:36Z</time>
      </trkpt>
      <trkpt lat="45.61201" lon="4.81436">
        <ele>239.1</ele>
        <time>2016-03-20T09:42:38Z</time>
      </trkpt>
      <trkpt lat="45.61212" lon="4.81443">
        <ele>238</ele>
        <time>2016-03-20T09:42:40Z</time>
      </trkpt>
      <trkpt lat="45.61217" lon="4.81449">
        <ele>236.8</ele>
        <time>2016-03-20T09:42:42Z</time>
      </trkpt>
      <trkpt lat="45.61219" lon="4.81452">
        <ele>236</ele>
        <time>2016-03-20T09:42:44Z</time>
      </trkpt>
      <trkpt lat="45.61223" lon="4.81456">
        <ele>234.7</ele>
        <time>2016-03-20T09:42:46Z</time>
      </trkpt>
      <trkpt lat="45.61229" lon="4.8146">
        <ele>233.4</ele>
        <time>2016-03-20T09:42:48Z</time>
      </trkpt>
      <trkpt lat="45.61237" lon="4.81467">
        <ele>231.7</ele>
        <time>2016-03-20T09:42:50Z</time>
      </trkpt>
      <trkpt lat="45.61247" lon="4.81474">
        <ele>229.7</ele>
        <time>2016-03-20T09:42:52Z</time>
      </trkpt>
      <trkpt lat="45.61254" lon="4.81479">
        <ele>229.6</ele>
        <time>2016-03-20T09:42:54Z</time>
      </trkpt>
      <trkpt lat="45.61254" lon="4.81474">
        <ele>229.9</ele>
        <time>2016-03-20T09:42:56Z</time>
      </trkpt>
      <trkpt lat="45.61251" lon="4.81464">
        <ele>228.3</ele>
        <time>2016-03-20T09:42:58Z</time>
      </trkpt>
      <trkpt lat="45.61246" lon="4.8145">
        <ele>227.6</ele>
        <time>2016-03-20T09:43:00Z</time>
      </trkpt>
      <trkpt lat="45.61239" lon="4.81436">
        <ele>228.7</ele>
        <time>2016-03-20T09:43:02Z</time>
      </trkpt>
      <trkpt lat="45.61229" lon="4.8142">
        <ele>229.3</ele>
        <time>2016-03-20T09:43:04Z</time>
      </trkpt>
      <trkpt lat="45.61223" lon="4.81401">
        <ele>228.8</ele>
        <time>2016-03-20T09:43:06Z</time>
      </trkpt>
      <trkpt lat="45.61224" lon="4.81383">
        <ele>227</ele>
        <time>2016-03-20T09:43:08Z</time>
      </trkpt>
      <trkpt lat="45.61227" lon="4.81366">
        <ele>224.3</ele>
        <time>2016-03-20T09:43:10Z</time>
      </trkpt>
      <trkpt lat="45.61226" lon="4.81348">
        <ele>220.2</ele>
        <time>2016-03-20T09:43:12Z</time>
      </trkpt>
      <trkpt lat="45.61221" lon="4.8133">
        <ele>217</ele>
        <time>2016-03-20T09:43:14Z</time>
      </trkpt>
      <trkpt lat="45.61214" lon="4.8131">
        <ele>212.6</ele>
        <time>2016-03-20T09:43:16Z</time>
      </trkpt>
      <trkpt lat="45.61209" lon="4.81292">
        <ele>209.8</ele>
        <time>2016-03-20T09:43:18Z</time>
      </trkpt>
      <trkpt lat="45.61203" lon="4.81275">
        <ele>207.9</ele>
        <time>2016-03-20T09:43:20Z</time>
      </trkpt>
      <trkpt lat="45.61195" lon="4.81264">
        <ele>206.1</ele>
        <time>2016-03-20T09:43:22Z</time>
      </trkpt>
      <trkpt lat="45.61185" lon="4.81261">
        <ele>205.6</ele>
        <time>2016-03-20T09:43:24Z</time>
      </trkpt>
      <trkpt lat="45.61175" lon="4.81264">
        <ele>206.4</ele>
        <time>2016-03-20T09:43:26Z</time>
      </trkpt>
      <trkpt lat="45.61166" lon="4.81265">
        <ele>207.4</ele>
        <time>2016-03-20T09:43:28Z</time>
      </trkpt>
      <trkpt lat="45.61159" lon="4.8126">
        <ele>207.5</ele>
        <time>2016-03-20T09:43:30Z</time>
      </trkpt>
      <trkpt lat="45.61153" lon="4.81252">
        <ele>207.1</ele>
        <time>2016-03-20T09:43:32Z</time>
      </trkpt>
      <trkpt lat="45.6115" lon="4.81245">
        <ele>206.7</ele>
        <time>2016-03-20T09:43:34Z</time>
      </trkpt>
      <trkpt lat="45.61147" lon="4.81241">
        <ele>206.6</ele>
        <time>2016-03-20T09:43:36Z</time>
      </trkpt>
      <trkpt lat="45.61145" lon="4.81238">
        <ele>206.6</ele>
        <time>2016-03-20T09:43:40Z</time>
      </trkpt>
      <trkpt lat="45.61144" lon="4.81234">
        <ele>206.6</ele>
        <time>2016-03-20T09:43:42Z</time>
      </trkpt>
      <trkpt lat="45.61144" lon="4.81227">
        <ele>206.8</ele>
        <time>2016-03-20T09:43:44Z</time>
      </trkpt>
      <trkpt lat="45.61148" lon="4.81217">
        <ele>207.2</ele>
        <time>2016-03-20T09:43:46Z</time>
      </trkpt>
      <trkpt lat="45.61152" lon="4.81206">
        <ele>206.4</ele>
        <time>2016-03-20T09:43:48Z</time>
      </trkpt>
      <trkpt lat="45.61157" lon="4.81194">
        <ele>204.9</ele>
        <time>2016-03-20T09:43:50Z</time>
      </trkpt>
      <trkpt lat="45.61164" lon="4.81179">
        <ele>203.9</ele>
        <time>2016-03-20T09:43:52Z</time>
      </trkpt>
      <trkpt lat="45.61171" lon="4.81161">
        <ele>202.2</ele>
        <time>2016-03-20T09:43:54Z</time>
      </trkpt>
      <trkpt lat="45.61179" lon="4.81141">
        <ele>199.7</ele>
        <time>2016-03-20T09:43:56Z</time>
      </trkpt>
      <trkpt lat="45.61187" lon="4.81122">
        <ele>197.2</ele>
        <time>2016-03-20T09:43:58Z</time>
      </trkpt>
      <trkpt lat="45.61197" lon="4.81106">
        <ele>194.9</ele>
        <time>2016-03-20T09:44:00Z</time>
      </trkpt>
      <trkpt lat="45.61207" lon="4.81091">
        <ele>193.5</ele>
        <time>2016-03-20T09:44:02Z</time>
      </trkpt>
      <trkpt lat="45.61219" lon="4.81083">
        <ele>192.3</ele>
        <time>2016-03-20T09:44:04Z</time>
      </trkpt>
      <trkpt lat="45.6123" lon="4.81088">
        <ele>190.5</ele>
        <time>2016-03-20T09:44:06Z</time>
      </trkpt>
      <trkpt lat="45.6124" lon="4.81098">
        <ele>190</ele>
        <time>2016-03-20T09:44:08Z</time>
      </trkpt>
      <trkpt lat="45.61248" lon="4.81113">
        <ele>189.9</ele>
        <time>2016-03-20T09:44:10Z</time>
      </trkpt>
      <trkpt lat="45.61257" lon="4.81128">
        <ele>190.9</ele>
        <time>2016-03-20T09:44:12Z</time>
      </trkpt>
      <trkpt lat="45.61267" lon="4.81141">
        <ele>191.2</ele>
        <time>2016-03-20T09:44:14Z</time>
      </trkpt>
      <trkpt lat="45.61276" lon="4.81156">
        <ele>191.8</ele>
        <time>2016-03-20T09:44:16Z</time>
      </trkpt>
      <trkpt lat="45.61282" lon="4.81172">
        <ele>193</ele>
        <time>2016-03-20T09:44:18Z</time>
      </trkpt>
      <trkpt lat="45.61286" lon="4.81188">
        <ele>193.3</ele>
        <time>2016-03-20T09:44:20Z</time>
      </trkpt>
      <trkpt lat="45.61291" lon="4.81202">
        <ele>193.6</ele>
        <time>2016-03-20T09:44:22Z</time>
      </trkpt>
      <trkpt lat="45.61297" lon="4.81213">
        <ele>194.3</ele>
        <time>2016-03-20T09:44:24Z</time>
      </trkpt>
      <trkpt lat="45.61304" lon="4.81225">
        <ele>195.1</ele>
        <time>2016-03-20T09:44:26Z</time>
      </trkpt>
      <trkpt lat="45.61309" lon="4.81235">
        <ele>195.8</ele>
        <time>2016-03-20T09:44:28Z</time>
      </trkpt>
      <trkpt lat="45.61315" lon="4.81246">
        <ele>196.4</ele>
        <time>2016-03-20T09:44:30Z</time>
      </trkpt>
      <trkpt lat="45.61319" lon="4.81256">
        <ele>197</ele>
        <time>2016-03-20T09:44:32Z</time>
      </trkpt>
      <trkpt lat="45.61325" lon="4.81264">
        <ele>197.7</ele>
        <time>2016-03-20T09:44:34Z</time>
      </trkpt>
      <trkpt lat="45.61331" lon="4.81273">
        <ele>198.4</ele>
        <time>2016-03-20T09:44:36Z</time>
      </trkpt>
      <trkpt lat="45.61338" lon="4.8128">
        <ele>198.5</ele>
        <time>2016-03-20T09:44:38Z</time>
      </trkpt>
      <trkpt lat="45.61346" lon="4.81287">
        <ele>198.7</ele>
        <time>2016-03-20T09:44:40Z</time>
      </trkpt>
      <trkpt lat="45.61357" lon="4.81293">
        <ele>198.2</ele>
        <time>2016-03-20T09:44:42Z</time>
      </trkpt>
      <trkpt lat="45.61367" lon="4.81302">
        <ele>197.5</ele>
        <time>2016-03-20T09:44:44Z</time>
      </trkpt>
      <trkpt lat="45.6138" lon="4.8131">
        <ele>197.4</ele>
        <time>2016-03-20T09:44:46Z</time>
      </trkpt>
      <trkpt lat="45.61393" lon="4.81319">
        <ele>197.3</ele>
        <time>2016-03-20T09:44:48Z</time>
      </trkpt>
      <trkpt lat="45.61407" lon="4.81328">
        <ele>197.2</ele>
        <time>2016-03-20T09:44:50Z</time>
      </trkpt>
      <trkpt lat="45.6142" lon="4.81336">
        <ele>196.4</ele>
        <time>2016-03-20T09:44:52Z</time>
      </trkpt>
      <trkpt lat="45.61427" lon="4.81341">
        <ele>195.8</ele>
        <time>2016-03-20T09:44:54Z</time>
      </trkpt>
      <trkpt lat="45.61432" lon="4.81344">
        <ele>195.2</ele>
        <time>2016-03-20T09:45:06Z</time>
      </trkpt>
      <trkpt lat="45.61434" lon="4.81346">
        <ele>194.9</ele>
        <time>2016-03-20T09:45:10Z</time>
      </trkpt>
      <trkpt lat="45.61437" lon="4.81351">
        <ele>194.6</ele>
        <time>2016-03-20T09:51:00Z</time>
      </trkpt>
      <trkpt lat="45.61442" lon="4.81356">
        <ele>194.5</ele>
        <time>2016-03-20T09:51:02Z</time>
      </trkpt>
      <trkpt lat="45.61454" lon="4.81368">
        <ele>195.1</ele>
        <time>2016-03-20T09:51:04Z</time>
      </trkpt>
      <trkpt lat="45.61457" lon="4.81371">
        <ele>195.6</ele>
        <time>2016-03-20T09:51:06Z</time>
      </trkpt>
      <trkpt lat="45.61459" lon="4.81374">
        <ele>196.1</ele>
        <time>2016-03-20T09:51:08Z</time>
      </trkpt>
      <trkpt lat="45.6146" lon="4.81378">
        <ele>196.8</ele>
        <time>2016-03-20T09:51:10Z</time>
      </trkpt>
      <trkpt lat="45.6146" lon="4.81383">
        <ele>197.8</ele>
        <time>2016-03-20T09:51:12Z</time>
      </trkpt>
      <trkpt lat="45.61462" lon="4.81388">
        <ele>198.5</ele>
        <time>2016-03-20T09:51:14Z</time>
      </trkpt>
      <trkpt lat="45.61462" lon="4.81393">
        <ele>199</ele>
        <time>2016-03-20T09:51:16Z</time>
      </trkpt>
      <trkpt lat="45.61461" lon="4.81399">
        <ele>199.4</ele>
        <time>2016-03-20T09:51:18Z</time>
      </trkpt>
      <trkpt lat="45.61461" lon="4.81404">
        <ele>199.8</ele>
        <time>2016-03-20T09:51:20Z</time>
      </trkpt>
      <trkpt lat="45.61462" lon="4.8141">
        <ele>200.2</ele>
        <time>2016-03-20T09:51:22Z</time>
      </trkpt>
      <trkpt lat="45.61464" lon="4.81413">
        <ele>200.5</ele>
        <time>2016-03-20T09:51:24Z</time>
      </trkpt>
      <trkpt lat="45.61466" lon="4.81417">
        <ele>200.8</ele>
        <time>2016-03-20T09:51:26Z</time>
      </trkpt>
      <trkpt lat="45.61468" lon="4.81423">
        <ele>201.2</ele>
        <time>2016-03-20T09:51:28Z</time>
      </trkpt>
      <trkpt lat="45.6147" lon="4.81428">
        <ele>201.7</ele>
        <time>2016-03-20T09:51:30Z</time>
      </trkpt>
      <trkpt lat="45.61473" lon="4.81434">
        <ele>202.3</ele>
        <time>2016-03-20T09:51:32Z</time>
      </trkpt>
      <trkpt lat="45.61476" lon="4.81439">
        <ele>202.6</ele>
        <time>2016-03-20T09:51:34Z</time>
      </trkpt>
      <trkpt lat="45.61478" lon="4.81444">
        <ele>203</ele>
        <time>2016-03-20T09:51:36Z</time>
      </trkpt>
      <trkpt lat="45.61479" lon="4.8145">
        <ele>203.5</ele>
        <time>2016-03-20T09:51:38Z</time>
      </trkpt>
      <trkpt lat="45.61482" lon="4.81455">
        <ele>204</ele>
        <time>2016-03-20T09:51:40Z</time>
      </trkpt>
      <trkpt lat="45.61485" lon="4.8146">
        <ele>204.2</ele>
        <time>2016-03-20T09:51:42Z</time>
      </trkpt>
      <trkpt lat="45.61487" lon="4.81465">
        <ele>204.4</ele>
        <time>2016-03-20T09:51:44Z</time>
      </trkpt>
      <trkpt lat="45.6149" lon="4.81469">
        <ele>204.2</ele>
        <time>2016-03-20T09:51:46Z</time>
      </trkpt>
      <trkpt lat="45.61493" lon="4.81474">
        <ele>204.2</ele>
        <time>2016-03-20T09:51:48Z</time>
      </trkpt>
      <trkpt lat="45.61496" lon="4.81479">
        <ele>204.3</ele>
        <time>2016-03-20T09:51:50Z</time>
      </trkpt>
      <trkpt lat="45.61499" lon="4.81483">
        <ele>204.2</ele>
        <time>2016-03-20T09:51:52Z</time>
      </trkpt>
      <trkpt lat="45.61501" lon="4.81486">
        <ele>204.2</ele>
        <time>2016-03-20T09:51:54Z</time>
      </trkpt>
      <trkpt lat="45.61505" lon="4.81489">
        <ele>204.3</ele>
        <time>2016-03-20T09:51:56Z</time>
      </trkpt>
      <trkpt lat="45.6151" lon="4.81491">
        <ele>204.4</ele>
        <time>2016-03-20T09:51:58Z</time>
      </trkpt>
      <trkpt lat="45.61518" lon="4.81492">
        <ele>204.1</ele>
        <time>2016-03-20T09:52:00Z</time>
      </trkpt>
      <trkpt lat="45.61524" lon="4.81497">
        <ele>203.8</ele>
        <time>2016-03-20T09:52:02Z</time>
      </trkpt>
      <trkpt lat="45.61527" lon="4.81503">
        <ele>203.6</ele>
        <time>2016-03-20T09:52:04Z</time>
      </trkpt>
      <trkpt lat="45.6153" lon="4.81508">
        <ele>203.7</ele>
        <time>2016-03-20T09:52:06Z</time>
      </trkpt>
      <trkpt lat="45.61532" lon="4.81513">
        <ele>204.1</ele>
        <time>2016-03-20T09:52:08Z</time>
      </trkpt>
      <trkpt lat="45.61535" lon="4.81518">
        <ele>204.4</ele>
        <time>2016-03-20T09:52:10Z</time>
      </trkpt>
      <trkpt lat="45.61538" lon="4.81523">
        <ele>205.1</ele>
        <time>2016-03-20T09:52:12Z</time>
      </trkpt>
      <trkpt lat="45.6154" lon="4.81527">
        <ele>205.7</ele>
        <time>2016-03-20T09:52:14Z</time>
      </trkpt>
      <trkpt lat="45.61541" lon="4.8153">
        <ele>206</ele>
        <time>2016-03-20T09:52:16Z</time>
      </trkpt>
      <trkpt lat="45.61542" lon="4.81535">
        <ele>206.5</ele>
        <time>2016-03-20T09:52:18Z</time>
      </trkpt>
      <trkpt lat="45.61544" lon="4.81539">
        <ele>207</ele>
        <time>2016-03-20T09:52:20Z</time>
      </trkpt>
      <trkpt lat="45.61546" lon="4.81543">
        <ele>207.6</ele>
        <time>2016-03-20T09:52:22Z</time>
      </trkpt>
      <trkpt lat="45.61548" lon="4.81547">
        <ele>208.2</ele>
        <time>2016-03-20T09:52:24Z</time>
      </trkpt>
      <trkpt lat="45.6155" lon="4.81551">
        <ele>208.6</ele>
        <time>2016-03-20T09:52:26Z</time>
      </trkpt>
      <trkpt lat="45.61552" lon="4.81555">
        <ele>208.9</ele>
        <time>2016-03-20T09:52:28Z</time>
      </trkpt>
      <trkpt lat="45.61553" lon="4.81558">
        <ele>209.2</ele>
        <time>2016-03-20T09:52:30Z</time>
      </trkpt>
      <trkpt lat="45.61554" lon="4.81562">
        <ele>209.4</ele>
        <time>2016-03-20T09:52:32Z</time>
      </trkpt>
      <trkpt lat="45.61555" lon="4.81566">
        <ele>209.7</ele>
        <time>2016-03-20T09:52:34Z</time>
      </trkpt>
      <trkpt lat="45.61556" lon="4.8157">
        <ele>209.8</ele>
        <time>2016-03-20T09:52:36Z</time>
      </trkpt>
      <trkpt lat="45.61558" lon="4.81574">
        <ele>210.2</ele>
        <time>2016-03-20T09:52:38Z</time>
      </trkpt>
      <trkpt lat="45.61561" lon="4.81578">
        <ele>210.6</ele>
        <time>2016-03-20T09:52:40Z</time>
      </trkpt>
      <trkpt lat="45.61563" lon="4.81583">
        <ele>210.7</ele>
        <time>2016-03-20T09:52:42Z</time>
      </trkpt>
      <trkpt lat="45.61565" lon="4.81588">
        <ele>211.1</ele>
        <time>2016-03-20T09:52:44Z</time>
      </trkpt>
      <trkpt lat="45.61567" lon="4.81592">
        <ele>211.5</ele>
        <time>2016-03-20T09:52:46Z</time>
      </trkpt>
      <trkpt lat="45.61568" lon="4.81596">
        <ele>212.1</ele>
        <time>2016-03-20T09:52:48Z</time>
      </trkpt>
      <trkpt lat="45.6157" lon="4.81599">
        <ele>212.8</ele>
        <time>2016-03-20T09:52:50Z</time>
      </trkpt>
      <trkpt lat="45.61572" lon="4.81603">
        <ele>213.6</ele>
        <time>2016-03-20T09:52:52Z</time>
      </trkpt>
      <trkpt lat="45.61573" lon="4.81607">
        <ele>214</ele>
        <time>2016-03-20T09:52:54Z</time>
      </trkpt>
      <trkpt lat="45.61574" lon="4.81612">
        <ele>214.3</ele>
        <time>2016-03-20T09:52:56Z</time>
      </trkpt>
      <trkpt lat="45.61574" lon="4.81616">
        <ele>214.7</ele>
        <time>2016-03-20T09:52:58Z</time>
      </trkpt>
      <trkpt lat="45.61573" lon="4.81619">
        <ele>215.1</ele>
        <time>2016-03-20T09:53:00Z</time>
      </trkpt>
      <trkpt lat="45.61573" lon="4.81622">
        <ele>215.5</ele>
        <time>2016-03-20T09:53:02Z</time>
      </trkpt>
      <trkpt lat="45.61573" lon="4.81625">
        <ele>215.8</ele>
        <time>2016-03-20T09:53:04Z</time>
      </trkpt>
      <trkpt lat="45.61575" lon="4.81628">
        <ele>216.4</ele>
        <time>2016-03-20T09:53:06Z</time>
      </trkpt>
      <trkpt lat="45.61577" lon="4.8163">
        <ele>216.8</ele>
        <time>2016-03-20T09:53:08Z</time>
      </trkpt>
      <trkpt lat="45.61577" lon="4.81632">
        <ele>217</ele>
        <time>2016-03-20T09:53:10Z</time>
      </trkpt>
      <trkpt lat="45.61578" lon="4.81634">
        <ele>217.2</ele>
        <time>2016-03-20T09:53:12Z</time>
      </trkpt>
      <trkpt lat="45.61581" lon="4.81641">
        <ele>217.5</ele>
        <time>2016-03-20T09:53:20Z</time>
      </trkpt>
      <trkpt lat="45.61582" lon="4.81644">
        <ele>217.6</ele>
        <time>2016-03-20T09:53:22Z</time>
      </trkpt>
      <trkpt lat="45.61583" lon="4.81646">
        <ele>217.7</ele>
        <time>2016-03-20T09:53:24Z</time>
      </trkpt>
      <trkpt lat="45.61584" lon="4.81651">
        <ele>218</ele>
        <time>2016-03-20T09:53:36Z</time>
      </trkpt>
      <trkpt lat="45.61586" lon="4.81657">
        <ele>218.3</ele>
        <time>2016-03-20T09:53:44Z</time>
      </trkpt>
      <trkpt lat="45.61585" lon="4.8166">
        <ele>218.5</ele>
        <time>2016-03-20T09:53:46Z</time>
      </trkpt>
      <trkpt lat="45.61585" lon="4.81663">
        <ele>218.1</ele>
        <time>2016-03-20T09:53:48Z</time>
      </trkpt>
      <trkpt lat="45.61586" lon="4.81667">
        <ele>217.6</ele>
        <time>2016-03-20T09:53:50Z</time>
      </trkpt>
      <trkpt lat="45.61586" lon="4.81672">
        <ele>217.1</ele>
        <time>2016-03-20T09:53:52Z</time>
      </trkpt>
      <trkpt lat="45.61587" lon="4.81676">
        <ele>216.8</ele>
        <time>2016-03-20T09:53:54Z</time>
      </trkpt>
      <trkpt lat="45.61587" lon="4.81679">
        <ele>216.6</ele>
        <time>2016-03-20T09:53:56Z</time>
      </trkpt>
      <trkpt lat="45.61588" lon="4.81683">
        <ele>216.3</ele>
        <time>2016-03-20T09:53:58Z</time>
      </trkpt>
      <trkpt lat="45.61589" lon="4.81687">
        <ele>216.1</ele>
        <time>2016-03-20T09:54:00Z</time>
      </trkpt>
      <trkpt lat="45.61589" lon="4.81692">
        <ele>216.4</ele>
        <time>2016-03-20T09:54:02Z</time>
      </trkpt>
      <trkpt lat="45.61589" lon="4.81697">
        <ele>216.7</ele>
        <time>2016-03-20T09:54:04Z</time>
      </trkpt>
      <trkpt lat="45.61591" lon="4.81702">
        <ele>216.6</ele>
        <time>2016-03-20T09:54:06Z</time>
      </trkpt>
      <trkpt lat="45.61591" lon="4.81706">
        <ele>217</ele>
        <time>2016-03-20T09:54:08Z</time>
      </trkpt>
      <trkpt lat="45.61592" lon="4.81711">
        <ele>217.7</ele>
        <time>2016-03-20T09:54:10Z</time>
      </trkpt>
      <trkpt lat="45.61593" lon="4.81715">
        <ele>218.4</ele>
        <time>2016-03-20T09:54:12Z</time>
      </trkpt>
      <trkpt lat="45.61593" lon="4.81719">
        <ele>218.9</ele>
        <time>2016-03-20T09:54:14Z</time>
      </trkpt>
      <trkpt lat="45.61594" lon="4.81724">
        <ele>219.6</ele>
        <time>2016-03-20T09:54:16Z</time>
      </trkpt>
      <trkpt lat="45.61594" lon="4.81728">
        <ele>220.3</ele>
        <time>2016-03-20T09:54:18Z</time>
      </trkpt>
      <trkpt lat="45.61595" lon="4.81734">
        <ele>221.1</ele>
        <time>2016-03-20T09:54:20Z</time>
      </trkpt>
      <trkpt lat="45.61596" lon="4.81737">
        <ele>221.7</ele>
        <time>2016-03-20T09:54:22Z</time>
      </trkpt>
      <trkpt lat="45.61597" lon="4.81739">
        <ele>221.9</ele>
        <time>2016-03-20T09:54:24Z</time>
      </trkpt>
      <trkpt lat="45.61596" lon="4.81742">
        <ele>222.2</ele>
        <time>2016-03-20T09:54:26Z</time>
      </trkpt>
      <trkpt lat="45.61597" lon="4.81745">
        <ele>222.5</ele>
        <time>2016-03-20T09:54:28Z</time>
      </trkpt>
      <trkpt lat="45.61597" lon="4.81747">
        <ele>222.8</ele>
        <time>2016-03-20T09:54:30Z</time>
      </trkpt>
      <trkpt lat="45.61597" lon="4.8175">
        <ele>223.3</ele>
        <time>2016-03-20T09:54:32Z</time>
      </trkpt>
      <trkpt lat="45.61597" lon="4.81755">
        <ele>223.9</ele>
        <time>2016-03-20T09:54:34Z</time>
      </trkpt>
      <trkpt lat="45.61597" lon="4.8176">
        <ele>224.7</ele>
        <time>2016-03-20T09:54:36Z</time>
      </trkpt>
      <trkpt lat="45.61596" lon="4.81766">
        <ele>225.3</ele>
        <time>2016-03-20T09:54:38Z</time>
      </trkpt>
      <trkpt lat="45.61596" lon="4.8177">
        <ele>225.8</ele>
        <time>2016-03-20T09:54:40Z</time>
      </trkpt>
      <trkpt lat="45.61596" lon="4.81777">
        <ele>226.7</ele>
        <time>2016-03-20T09:54:42Z</time>
      </trkpt>
      <trkpt lat="45.61597" lon="4.81784">
        <ele>228</ele>
        <time>2016-03-20T09:54:44Z</time>
      </trkpt>
      <trkpt lat="45.61597" lon="4.81792">
        <ele>229.4</ele>
        <time>2016-03-20T09:54:46Z</time>
      </trkpt>
      <trkpt lat="45.61598" lon="4.81799">
        <ele>230.1</ele>
        <time>2016-03-20T09:54:48Z</time>
      </trkpt>
      <trkpt lat="45.61598" lon="4.81807">
        <ele>230.6</ele>
        <time>2016-03-20T09:54:50Z</time>
      </trkpt>
      <trkpt lat="45.61599" lon="4.81813">
        <ele>231</ele>
        <time>2016-03-20T09:54:52Z</time>
      </trkpt>
      <trkpt lat="45.61599" lon="4.8182">
        <ele>231.2</ele>
        <time>2016-03-20T09:54:54Z</time>
      </trkpt>
      <trkpt lat="45.61599" lon="4.81828">
        <ele>231.4</ele>
        <time>2016-03-20T09:54:56Z</time>
      </trkpt>
      <trkpt lat="45.61601" lon="4.81834">
        <ele>231.7</ele>
        <time>2016-03-20T09:54:58Z</time>
      </trkpt>
      <trkpt lat="45.61603" lon="4.81841">
        <ele>232.2</ele>
        <time>2016-03-20T09:55:00Z</time>
      </trkpt>
      <trkpt lat="45.61605" lon="4.81848">
        <ele>232.2</ele>
        <time>2016-03-20T09:55:02Z</time>
      </trkpt>
      <trkpt lat="45.61608" lon="4.81856">
        <ele>232</ele>
        <time>2016-03-20T09:55:04Z</time>
      </trkpt>
      <trkpt lat="45.61611" lon="4.81862">
        <ele>231.7</ele>
        <time>2016-03-20T09:55:06Z</time>
      </trkpt>
      <trkpt lat="45.61613" lon="4.8187">
        <ele>231.1</ele>
        <time>2016-03-20T09:55:08Z</time>
      </trkpt>
      <trkpt lat="45.61615" lon="4.81879">
        <ele>231.1</ele>
        <time>2016-03-20T09:55:10Z</time>
      </trkpt>
      <trkpt lat="45.61616" lon="4.81886">
        <ele>231.4</ele>
        <time>2016-03-20T09:55:12Z</time>
      </trkpt>
      <trkpt lat="45.61618" lon="4.81894">
        <ele>231.7</ele>
        <time>2016-03-20T09:55:14Z</time>
      </trkpt>
      <trkpt lat="45.61621" lon="4.81902">
        <ele>231.9</ele>
        <time>2016-03-20T09:55:16Z</time>
      </trkpt>
      <trkpt lat="45.61623" lon="4.81909">
        <ele>231.8</ele>
        <time>2016-03-20T09:55:18Z</time>
      </trkpt>
      <trkpt lat="45.61626" lon="4.81915">
        <ele>231</ele>
        <time>2016-03-20T09:55:20Z</time>
      </trkpt>
      <trkpt lat="45.61629" lon="4.8192">
        <ele>230.6</ele>
        <time>2016-03-20T09:55:22Z</time>
      </trkpt>
      <trkpt lat="45.61631" lon="4.81924">
        <ele>230.3</ele>
        <time>2016-03-20T09:55:24Z</time>
      </trkpt>
      <trkpt lat="45.61632" lon="4.81929">
        <ele>229.8</ele>
        <time>2016-03-20T09:55:26Z</time>
      </trkpt>
      <trkpt lat="45.61635" lon="4.81933">
        <ele>229.2</ele>
        <time>2016-03-20T09:55:28Z</time>
      </trkpt>
      <trkpt lat="45.61637" lon="4.81938">
        <ele>228.5</ele>
        <time>2016-03-20T09:55:30Z</time>
      </trkpt>
      <trkpt lat="45.61639" lon="4.81943">
        <ele>227.8</ele>
        <time>2016-03-20T09:55:32Z</time>
      </trkpt>
      <trkpt lat="45.61641" lon="4.81949">
        <ele>227.2</ele>
        <time>2016-03-20T09:55:34Z</time>
      </trkpt>
      <trkpt lat="45.61643" lon="4.81953">
        <ele>227.5</ele>
        <time>2016-03-20T09:55:36Z</time>
      </trkpt>
      <trkpt lat="45.61644" lon="4.81958">
        <ele>228</ele>
        <time>2016-03-20T09:55:38Z</time>
      </trkpt>
      <trkpt lat="45.61646" lon="4.81964">
        <ele>228.9</ele>
        <time>2016-03-20T09:55:40Z</time>
      </trkpt>
      <trkpt lat="45.61646" lon="4.81969">
        <ele>229.1</ele>
        <time>2016-03-20T09:55:42Z</time>
      </trkpt>
      <trkpt lat="45.61645" lon="4.81974">
        <ele>229.3</ele>
        <time>2016-03-20T09:55:44Z</time>
      </trkpt>
      <trkpt lat="45.61644" lon="4.81979">
        <ele>229.9</ele>
        <time>2016-03-20T09:55:46Z</time>
      </trkpt>
      <trkpt lat="45.61646" lon="4.81984">
        <ele>230.4</ele>
        <time>2016-03-20T09:55:48Z</time>
      </trkpt>
      <trkpt lat="45.61646" lon="4.81988">
        <ele>230.6</ele>
        <time>2016-03-20T09:55:50Z</time>
      </trkpt>
      <trkpt lat="45.61646" lon="4.81994">
        <ele>230.9</ele>
        <time>2016-03-20T09:55:52Z</time>
      </trkpt>
      <trkpt lat="45.61646" lon="4.81999">
        <ele>231.4</ele>
        <time>2016-03-20T09:55:54Z</time>
      </trkpt>
      <trkpt lat="45.61646" lon="4.82006">
        <ele>232.1</ele>
        <time>2016-03-20T09:55:56Z</time>
      </trkpt>
      <trkpt lat="45.61644" lon="4.82012">
        <ele>233.5</ele>
        <time>2016-03-20T09:55:58Z</time>
      </trkpt>
      <trkpt lat="45.61643" lon="4.82017">
        <ele>234.5</ele>
        <time>2016-03-20T09:56:00Z</time>
      </trkpt>
      <trkpt lat="45.61643" lon="4.82022">
        <ele>235.3</ele>
        <time>2016-03-20T09:56:02Z</time>
      </trkpt>
      <trkpt lat="45.61644" lon="4.82025">
        <ele>235.9</ele>
        <time>2016-03-20T09:56:04Z</time>
      </trkpt>
      <trkpt lat="45.61647" lon="4.82032">
        <ele>236.9</ele>
        <time>2016-03-20T09:56:06Z</time>
      </trkpt>
      <trkpt lat="45.6165" lon="4.82041">
        <ele>236.8</ele>
        <time>2016-03-20T09:56:08Z</time>
      </trkpt>
      <trkpt lat="45.61654" lon="4.82046">
        <ele>235.7</ele>
        <time>2016-03-20T09:56:10Z</time>
      </trkpt>
      <trkpt lat="45.61657" lon="4.82044">
        <ele>234.7</ele>
        <time>2016-03-20T09:56:12Z</time>
      </trkpt>
      <trkpt lat="45.6166" lon="4.82043">
        <ele>234</ele>
        <time>2016-03-20T09:56:14Z</time>
      </trkpt>
      <trkpt lat="45.61662" lon="4.82042">
        <ele>233.9</ele>
        <time>2016-03-20T09:56:16Z</time>
      </trkpt>
      <trkpt lat="45.61663" lon="4.82042">
        <ele>233.7</ele>
        <time>2016-03-20T09:56:18Z</time>
      </trkpt>
      <trkpt lat="45.61665" lon="4.82044">
        <ele>233.4</ele>
        <time>2016-03-20T09:56:30Z</time>
      </trkpt>
      <trkpt lat="45.61667" lon="4.82043">
        <ele>233.2</ele>
        <time>2016-03-20T09:56:32Z</time>
      </trkpt>
      <trkpt lat="45.61667" lon="4.82043">
        <ele>233.2</ele>
        <time>2016-03-20T09:56:34Z</time>
      </trkpt>
      <trkpt lat="45.61668" lon="4.82041">
        <ele>233.1</ele>
        <time>2016-03-20T09:56:36Z</time>
      </trkpt>
      <trkpt lat="45.61668" lon="4.82038">
        <ele>233</ele>
        <time>2016-03-20T09:56:40Z</time>
      </trkpt>
      <trkpt lat="45.61669" lon="4.82035">
        <ele>233.1</ele>
        <time>2016-03-20T09:56:42Z</time>
      </trkpt>
      <trkpt lat="45.6167" lon="4.82032">
        <ele>233.1</ele>
        <time>2016-03-20T09:56:44Z</time>
      </trkpt>
      <trkpt lat="45.61671" lon="4.8203">
        <ele>233.2</ele>
        <time>2016-03-20T09:56:46Z</time>
      </trkpt>
      <trkpt lat="45.61672" lon="4.82028">
        <ele>233.3</ele>
        <time>2016-03-20T09:56:48Z</time>
      </trkpt>
      <trkpt lat="45.61673" lon="4.82026">
        <ele>233.4</ele>
        <time>2016-03-20T09:56:50Z</time>
      </trkpt>
      <trkpt lat="45.61675" lon="4.82024">
        <ele>233.4</ele>
        <time>2016-03-20T09:56:52Z</time>
      </trkpt>
      <trkpt lat="45.61676" lon="4.82024">
        <ele>233.5</ele>
        <time>2016-03-20T09:56:54Z</time>
      </trkpt>
      <trkpt lat="45.61678" lon="4.82023">
        <ele>233.9</ele>
        <time>2016-03-20T09:56:56Z</time>
      </trkpt>
      <trkpt lat="45.6168" lon="4.82023">
        <ele>234.4</ele>
        <time>2016-03-20T09:57:07Z</time>
      </trkpt>
      <trkpt lat="45.61681" lon="4.82022">
        <ele>234.9</ele>
        <time>2016-03-20T09:57:09Z</time>
      </trkpt>
      <trkpt lat="45.61684" lon="4.8202">
        <ele>235.5</ele>
        <time>2016-03-20T09:57:11Z</time>
      </trkpt>
      <trkpt lat="45.61686" lon="4.82019">
        <ele>235.7</ele>
        <time>2016-03-20T09:57:13Z</time>
      </trkpt>
      <trkpt lat="45.61688" lon="4.82017">
        <ele>236</ele>
        <time>2016-03-20T09:57:15Z</time>
      </trkpt>
      <trkpt lat="45.61689" lon="4.82016">
        <ele>236.2</ele>
        <time>2016-03-20T09:57:17Z</time>
      </trkpt>
      <trkpt lat="45.61692" lon="4.82015">
        <ele>236.7</ele>
        <time>2016-03-20T09:57:19Z</time>
      </trkpt>
      <trkpt lat="45.61696" lon="4.82013">
        <ele>237.3</ele>
        <time>2016-03-20T09:57:21Z</time>
      </trkpt>
      <trkpt lat="45.61699" lon="4.8201">
        <ele>237.9</ele>
        <time>2016-03-20T09:57:23Z</time>
      </trkpt>
      <trkpt lat="45.61703" lon="4.82008">
        <ele>238.5</ele>
        <time>2016-03-20T09:57:27Z</time>
      </trkpt>
      <trkpt lat="45.61706" lon="4.82005">
        <ele>239.5</ele>
        <time>2016-03-20T09:57:31Z</time>
      </trkpt>
      <trkpt lat="45.61708" lon="4.82004">
        <ele>240.1</ele>
        <time>2016-03-20T09:57:33Z</time>
      </trkpt>
      <trkpt lat="45.6171" lon="4.82003">
        <ele>240.7</ele>
        <time>2016-03-20T09:57:35Z</time>
      </trkpt>
      <trkpt lat="45.61712" lon="4.82001">
        <ele>241.3</ele>
        <time>2016-03-20T09:57:37Z</time>
      </trkpt>
      <trkpt lat="45.61715" lon="4.82001">
        <ele>241.9</ele>
        <time>2016-03-20T09:57:39Z</time>
      </trkpt>
      <trkpt lat="45.61717" lon="4.82">
        <ele>242.4</ele>
        <time>2016-03-20T09:57:41Z</time>
      </trkpt>
      <trkpt lat="45.61719" lon="4.81999">
        <ele>242.9</ele>
        <time>2016-03-20T09:57:43Z</time>
      </trkpt>
      <trkpt lat="45.61722" lon="4.81999">
        <ele>243.6</ele>
        <time>2016-03-20T09:57:45Z</time>
      </trkpt>
      <trkpt lat="45.61725" lon="4.81998">
        <ele>244.3</ele>
        <time>2016-03-20T09:57:47Z</time>
      </trkpt>
      <trkpt lat="45.61729" lon="4.81996">
        <ele>245.4</ele>
        <time>2016-03-20T09:57:51Z</time>
      </trkpt>
      <trkpt lat="45.61731" lon="4.81994">
        <ele>245.9</ele>
        <time>2016-03-20T09:57:53Z</time>
      </trkpt>
      <trkpt lat="45.61734" lon="4.81991">
        <ele>246.5</ele>
        <time>2016-03-20T09:57:55Z</time>
      </trkpt>
      <trkpt lat="45.61737" lon="4.81987">
        <ele>246.4</ele>
        <time>2016-03-20T09:57:57Z</time>
      </trkpt>
      <trkpt lat="45.61739" lon="4.81983">
        <ele>245.8</ele>
        <time>2016-03-20T09:57:59Z</time>
      </trkpt>
      <trkpt lat="45.61741" lon="4.81978">
        <ele>245.4</ele>
        <time>2016-03-20T09:58:01Z</time>
      </trkpt>
      <trkpt lat="45.61743" lon="4.81973">
        <ele>245.3</ele>
        <time>2016-03-20T09:58:03Z</time>
      </trkpt>
      <trkpt lat="45.61745" lon="4.81966">
        <ele>245.4</ele>
        <time>2016-03-20T09:58:05Z</time>
      </trkpt>
      <trkpt lat="45.61746" lon="4.8196">
        <ele>245.5</ele>
        <time>2016-03-20T09:58:07Z</time>
      </trkpt>
      <trkpt lat="45.61747" lon="4.81955">
        <ele>245</ele>
        <time>2016-03-20T09:58:09Z</time>
      </trkpt>
      <trkpt lat="45.6175" lon="4.8195">
        <ele>244.5</ele>
        <time>2016-03-20T09:58:11Z</time>
      </trkpt>
      <trkpt lat="45.61751" lon="4.81945">
        <ele>244</ele>
        <time>2016-03-20T09:58:13Z</time>
      </trkpt>
      <trkpt lat="45.61752" lon="4.81939">
        <ele>243.5</ele>
        <time>2016-03-20T09:58:15Z</time>
      </trkpt>
      <trkpt lat="45.61755" lon="4.81932">
        <ele>242.8</ele>
        <time>2016-03-20T09:58:17Z</time>
      </trkpt>
      <trkpt lat="45.61758" lon="4.81929">
        <ele>242.2</ele>
        <time>2016-03-20T09:58:19Z</time>
      </trkpt>
      <trkpt lat="45.61763" lon="4.81929">
        <ele>242.7</ele>
        <time>2016-03-20T09:58:21Z</time>
      </trkpt>
      <trkpt lat="45.61768" lon="4.8193">
        <ele>243.2</ele>
        <time>2016-03-20T09:58:23Z</time>
      </trkpt>
      <trkpt lat="45.61773" lon="4.81931">
        <ele>243.2</ele>
        <time>2016-03-20T09:58:25Z</time>
      </trkpt>
      <trkpt lat="45.61776" lon="4.81932">
        <ele>243.1</ele>
        <time>2016-03-20T09:58:27Z</time>
      </trkpt>
      <trkpt lat="45.6178" lon="4.81933">
        <ele>243.1</ele>
        <time>2016-03-20T09:58:29Z</time>
      </trkpt>
      <trkpt lat="45.61785" lon="4.81933">
        <ele>243.2</ele>
        <time>2016-03-20T09:58:31Z</time>
      </trkpt>
      <trkpt lat="45.61789" lon="4.81933">
        <ele>243.5</ele>
        <time>2016-03-20T09:58:33Z</time>
      </trkpt>
      <trkpt lat="45.61793" lon="4.81934">
        <ele>243.4</ele>
        <time>2016-03-20T09:58:35Z</time>
      </trkpt>
      <trkpt lat="45.61797" lon="4.81935">
        <ele>243.1</ele>
        <time>2016-03-20T09:58:37Z</time>
      </trkpt>
      <trkpt lat="45.618" lon="4.81935">
        <ele>242.9</ele>
        <time>2016-03-20T09:58:39Z</time>
      </trkpt>
      <trkpt lat="45.61804" lon="4.8193">
        <ele>242.6</ele>
        <time>2016-03-20T09:58:41Z</time>
      </trkpt>
      <trkpt lat="45.61807" lon="4.81919">
        <ele>241.3</ele>
        <time>2016-03-20T09:58:43Z</time>
      </trkpt>
      <trkpt lat="45.6181" lon="4.81903">
        <ele>239.9</ele>
        <time>2016-03-20T09:58:45Z</time>
      </trkpt>
      <trkpt lat="45.61813" lon="4.81883">
        <ele>237.9</ele>
        <time>2016-03-20T09:58:47Z</time>
      </trkpt>
      <trkpt lat="45.61818" lon="4.81872">
        <ele>236</ele>
        <time>2016-03-20T09:58:49Z</time>
      </trkpt>
      <trkpt lat="45.61826" lon="4.81873">
        <ele>234.9</ele>
        <time>2016-03-20T09:58:51Z</time>
      </trkpt>
      <trkpt lat="45.61833" lon="4.81878">
        <ele>234.9</ele>
        <time>2016-03-20T09:58:53Z</time>
      </trkpt>
      <trkpt lat="45.61839" lon="4.81883">
        <ele>235.4</ele>
        <time>2016-03-20T09:58:55Z</time>
      </trkpt>
      <trkpt lat="45.61845" lon="4.81889">
        <ele>236.4</ele>
        <time>2016-03-20T09:58:57Z</time>
      </trkpt>
      <trkpt lat="45.6185" lon="4.81894">
        <ele>237.1</ele>
        <time>2016-03-20T09:58:59Z</time>
      </trkpt>
      <trkpt lat="45.61856" lon="4.81898">
        <ele>237.3</ele>
        <time>2016-03-20T09:59:01Z</time>
      </trkpt>
      <trkpt lat="45.61861" lon="4.81903">
        <ele>237.7</ele>
        <time>2016-03-20T09:59:03Z</time>
      </trkpt>
      <trkpt lat="45.61867" lon="4.81909">
        <ele>238.1</ele>
        <time>2016-03-20T09:59:05Z</time>
      </trkpt>
      <trkpt lat="45.61874" lon="4.81916">
        <ele>238.1</ele>
        <time>2016-03-20T09:59:07Z</time>
      </trkpt>
      <trkpt lat="45.6188" lon="4.81921">
        <ele>237.9</ele>
        <time>2016-03-20T09:59:09Z</time>
      </trkpt>
      <trkpt lat="45.61886" lon="4.81927">
        <ele>237.6</ele>
        <time>2016-03-20T09:59:11Z</time>
      </trkpt>
      <trkpt lat="45.61892" lon="4.81934">
        <ele>237.4</ele>
        <time>2016-03-20T09:59:13Z</time>
      </trkpt>
      <trkpt lat="45.61898" lon="4.81941">
        <ele>237.4</ele>
        <time>2016-03-20T09:59:15Z</time>
      </trkpt>
      <trkpt lat="45.61905" lon="4.81948">
        <ele>237.9</ele>
        <time>2016-03-20T09:59:17Z</time>
      </trkpt>
      <trkpt lat="45.61911" lon="4.81955">
        <ele>238.1</ele>
        <time>2016-03-20T09:59:19Z</time>
      </trkpt>
      <trkpt lat="45.61917" lon="4.81962">
        <ele>238.4</ele>
        <time>2016-03-20T09:59:21Z</time>
      </trkpt>
      <trkpt lat="45.61923" lon="4.81972">
        <ele>238.4</ele>
        <time>2016-03-20T09:59:23Z</time>
      </trkpt>
      <trkpt lat="45.61928" lon="4.81984">
        <ele>238.7</ele>
        <time>2016-03-20T09:59:25Z</time>
      </trkpt>
      <trkpt lat="45.61934" lon="4.81997">
        <ele>237.9</ele>
        <time>2016-03-20T09:59:27Z</time>
      </trkpt>
      <trkpt lat="45.61939" lon="4.82008">
        <ele>237.4</ele>
        <time>2016-03-20T09:59:29Z</time>
      </trkpt>
      <trkpt lat="45.61943" lon="4.82019">
        <ele>237</ele>
        <time>2016-03-20T09:59:31Z</time>
      </trkpt>
      <trkpt lat="45.6195" lon="4.8203">
        <ele>237.5</ele>
        <time>2016-03-20T09:59:33Z</time>
      </trkpt>
      <trkpt lat="45.61956" lon="4.82043">
        <ele>236.5</ele>
        <time>2016-03-20T09:59:35Z</time>
      </trkpt>
      <trkpt lat="45.61964" lon="4.82057">
        <ele>235.7</ele>
        <time>2016-03-20T09:59:37Z</time>
      </trkpt>
      <trkpt lat="45.61972" lon="4.82072">
        <ele>236</ele>
        <time>2016-03-20T09:59:39Z</time>
      </trkpt>
      <trkpt lat="45.6198" lon="4.82085">
        <ele>236.1</ele>
        <time>2016-03-20T09:59:41Z</time>
      </trkpt>
      <trkpt lat="45.61993" lon="4.82091">
        <ele>235.1</ele>
        <time>2016-03-20T09:59:43Z</time>
      </trkpt>
      <trkpt lat="45.62007" lon="4.82098">
        <ele>225.4</ele>
        <time>2016-03-20T09:59:45Z</time>
      </trkpt>
      <trkpt lat="45.62019" lon="4.82106">
        <ele>221</ele>
        <time>2016-03-20T09:59:47Z</time>
      </trkpt>
      <trkpt lat="45.62028" lon="4.82116">
        <ele>221</ele>
        <time>2016-03-20T09:59:49Z</time>
      </trkpt>
      <trkpt lat="45.62029" lon="4.82127">
        <ele>221.9</ele>
        <time>2016-03-20T09:59:51Z</time>
      </trkpt>
      <trkpt lat="45.62027" lon="4.82134">
        <ele>222.3</ele>
        <time>2016-03-20T09:59:53Z</time>
      </trkpt>
      <trkpt lat="45.62024" lon="4.82142">
        <ele>222.7</ele>
        <time>2016-03-20T09:59:55Z</time>
      </trkpt>
      <trkpt lat="45.62021" lon="4.82151">
        <ele>223.2</ele>
        <time>2016-03-20T09:59:57Z</time>
      </trkpt>
      <trkpt lat="45.62017" lon="4.8216">
        <ele>223.6</ele>
        <time>2016-03-20T09:59:59Z</time>
      </trkpt>
      <trkpt lat="45.62015" lon="4.82169">
        <ele>223.9</ele>
        <time>2016-03-20T10:00:01Z</time>
      </trkpt>
      <trkpt lat="45.62014" lon="4.82178">
        <ele>224.2</ele>
        <time>2016-03-20T10:00:03Z</time>
      </trkpt>
      <trkpt lat="45.62011" lon="4.82187">
        <ele>224.5</ele>
        <time>2016-03-20T10:00:05Z</time>
      </trkpt>
      <trkpt lat="45.62009" lon="4.82195">
        <ele>224.7</ele>
        <time>2016-03-20T10:00:07Z</time>
      </trkpt>
      <trkpt lat="45.62008" lon="4.82204">
        <ele>224.8</ele>
        <time>2016-03-20T10:00:09Z</time>
      </trkpt>
      <trkpt lat="45.62008" lon="4.82211">
        <ele>224.9</ele>
        <time>2016-03-20T10:00:11Z</time>
      </trkpt>
      <trkpt lat="45.62008" lon="4.82218">
        <ele>225</ele>
        <time>2016-03-20T10:00:13Z</time>
      </trkpt>
      <trkpt lat="45.62007" lon="4.82224">
        <ele>225</ele>
        <time>2016-03-20T10:00:15Z</time>
      </trkpt>
      <trkpt lat="45.62006" lon="4.82231">
        <ele>225</ele>
        <time>2016-03-20T10:00:17Z</time>
      </trkpt>
      <trkpt lat="45.62005" lon="4.82237">
        <ele>225</ele>
        <time>2016-03-20T10:00:19Z</time>
      </trkpt>
      <trkpt lat="45.62007" lon="4.82243">
        <ele>225</ele>
        <time>2016-03-20T10:00:21Z</time>
      </trkpt>
      <trkpt lat="45.62009" lon="4.82248">
        <ele>225</ele>
        <time>2016-03-20T10:00:23Z</time>
      </trkpt>
      <trkpt lat="45.62011" lon="4.82254">
        <ele>224.9</ele>
        <time>2016-03-20T10:00:25Z</time>
      </trkpt>
      <trkpt lat="45.62014" lon="4.82261">
        <ele>224.7</ele>
        <time>2016-03-20T10:00:27Z</time>
      </trkpt>
      <trkpt lat="45.62017" lon="4.8227">
        <ele>224.8</ele>
        <time>2016-03-20T10:00:29Z</time>
      </trkpt>
      <trkpt lat="45.62021" lon="4.8228">
        <ele>224.4</ele>
        <time>2016-03-20T10:00:31Z</time>
      </trkpt>
      <trkpt lat="45.62024" lon="4.82291">
        <ele>224.2</ele>
        <time>2016-03-20T10:00:33Z</time>
      </trkpt>
      <trkpt lat="45.62029" lon="4.82302">
        <ele>224.3</ele>
        <time>2016-03-20T10:00:35Z</time>
      </trkpt>
      <trkpt lat="45.62034" lon="4.82314">
        <ele>224</ele>
        <time>2016-03-20T10:00:37Z</time>
      </trkpt>
      <trkpt lat="45.62038" lon="4.82325">
        <ele>224.2</ele>
        <time>2016-03-20T10:00:39Z</time>
      </trkpt>
      <trkpt lat="45.62042" lon="4.82336">
        <ele>224.1</ele>
        <time>2016-03-20T10:00:41Z</time>
      </trkpt>
      <trkpt lat="45.62046" lon="4.82348">
        <ele>224</ele>
        <time>2016-03-20T10:00:43Z</time>
      </trkpt>
      <trkpt lat="45.6205" lon="4.82359">
        <ele>224</ele>
        <time>2016-03-20T10:00:45Z</time>
      </trkpt>
      <trkpt lat="45.62054" lon="4.8237">
        <ele>224.2</ele>
        <time>2016-03-20T10:00:47Z</time>
      </trkpt>
      <trkpt lat="45.62058" lon="4.82381">
        <ele>224.4</ele>
        <time>2016-03-20T10:00:49Z</time>
      </trkpt>
      <trkpt lat="45.62062" lon="4.82391">
        <ele>224.8</ele>
        <time>2016-03-20T10:00:51Z</time>
      </trkpt>
      <trkpt lat="45.62066" lon="4.82401">
        <ele>225.3</ele>
        <time>2016-03-20T10:00:53Z</time>
      </trkpt>
      <trkpt lat="45.62067" lon="4.8241">
        <ele>225.6</ele>
        <time>2016-03-20T10:00:55Z</time>
      </trkpt>
      <trkpt lat="45.6207" lon="4.82416">
        <ele>225.9</ele>
        <time>2016-03-20T10:00:57Z</time>
      </trkpt>
      <trkpt lat="45.62073" lon="4.82423">
        <ele>226.2</ele>
        <time>2016-03-20T10:00:59Z</time>
      </trkpt>
      <trkpt lat="45.62075" lon="4.82427">
        <ele>226.3</ele>
        <time>2016-03-20T10:01:01Z</time>
      </trkpt>
      <trkpt lat="45.62079" lon="4.8243">
        <ele>226.3</ele>
        <time>2016-03-20T10:01:03Z</time>
      </trkpt>
      <trkpt lat="45.62082" lon="4.82433">
        <ele>226.2</ele>
        <time>2016-03-20T10:01:05Z</time>
      </trkpt>
      <trkpt lat="45.62086" lon="4.82434">
        <ele>226.1</ele>
        <time>2016-03-20T10:01:07Z</time>
      </trkpt>
      <trkpt lat="45.62089" lon="4.82431">
        <ele>226</ele>
        <time>2016-03-20T10:01:09Z</time>
      </trkpt>
      <trkpt lat="45.62093" lon="4.8243">
        <ele>225.8</ele>
        <time>2016-03-20T10:01:11Z</time>
      </trkpt>
      <trkpt lat="45.62097" lon="4.82428">
        <ele>225.5</ele>
        <time>2016-03-20T10:01:13Z</time>
      </trkpt>
      <trkpt lat="45.62103" lon="4.82425">
        <ele>225.2</ele>
        <time>2016-03-20T10:01:15Z</time>
      </trkpt>
      <trkpt lat="45.62106" lon="4.82423">
        <ele>225</ele>
        <time>2016-03-20T10:01:17Z</time>
      </trkpt>
      <trkpt lat="45.62112" lon="4.8242">
        <ele>224.6</ele>
        <time>2016-03-20T10:01:19Z</time>
      </trkpt>
      <trkpt lat="45.6212" lon="4.82416">
        <ele>223.8</ele>
        <time>2016-03-20T10:01:21Z</time>
      </trkpt>
      <trkpt lat="45.62129" lon="4.8241">
        <ele>222.8</ele>
        <time>2016-03-20T10:01:23Z</time>
      </trkpt>
      <trkpt lat="45.6214" lon="4.82404">
        <ele>221.9</ele>
        <time>2016-03-20T10:01:25Z</time>
      </trkpt>
      <trkpt lat="45.6215" lon="4.82398">
        <ele>221.4</ele>
        <time>2016-03-20T10:01:27Z</time>
      </trkpt>
      <trkpt lat="45.6216" lon="4.82391">
        <ele>221.4</ele>
        <time>2016-03-20T10:01:29Z</time>
      </trkpt>
      <trkpt lat="45.6217" lon="4.82381">
        <ele>222</ele>
        <time>2016-03-20T10:01:31Z</time>
      </trkpt>
      <trkpt lat="45.62181" lon="4.82372">
        <ele>222.5</ele>
        <time>2016-03-20T10:01:33Z</time>
      </trkpt>
      <trkpt lat="45.62188" lon="4.82366">
        <ele>222.7</ele>
        <time>2016-03-20T10:01:35Z</time>
      </trkpt>
      <trkpt lat="45.62194" lon="4.82361">
        <ele>222.8</ele>
        <time>2016-03-20T10:01:37Z</time>
      </trkpt>
      <trkpt lat="45.62198" lon="4.82354">
        <ele>223.1</ele>
        <time>2016-03-20T10:01:39Z</time>
      </trkpt>
      <trkpt lat="45.62199" lon="4.82345">
        <ele>223.4</ele>
        <time>2016-03-20T10:01:41Z</time>
      </trkpt>
      <trkpt lat="45.62201" lon="4.82331">
        <ele>223.5</ele>
        <time>2016-03-20T10:01:43Z</time>
      </trkpt>
      <trkpt lat="45.62207" lon="4.8232">
        <ele>223.1</ele>
        <time>2016-03-20T10:01:45Z</time>
      </trkpt>
      <trkpt lat="45.62214" lon="4.82313">
        <ele>222.6</ele>
        <time>2016-03-20T10:01:47Z</time>
      </trkpt>
      <trkpt lat="45.62221" lon="4.82308">
        <ele>220.9</ele>
        <time>2016-03-20T10:01:49Z</time>
      </trkpt>
      <trkpt lat="45.62231" lon="4.8231">
        <ele>219.3</ele>
        <time>2016-03-20T10:01:51Z</time>
      </trkpt>
      <trkpt lat="45.62242" lon="4.82311">
        <ele>217.9</ele>
        <time>2016-03-20T10:01:53Z</time>
      </trkpt>
      <trkpt lat="45.62251" lon="4.82312">
        <ele>216.8</ele>
        <time>2016-03-20T10:01:55Z</time>
      </trkpt>
      <trkpt lat="45.62258" lon="4.82311">
        <ele>215.6</ele>
        <time>2016-03-20T10:01:57Z</time>
      </trkpt>
      <trkpt lat="45.62262" lon="4.82312">
        <ele>214.7</ele>
        <time>2016-03-20T10:01:59Z</time>
      </trkpt>
      <trkpt lat="45.62263" lon="4.82309">
        <ele>214.1</ele>
        <time>2016-03-20T10:02:01Z</time>
      </trkpt>
      <trkpt lat="45.6226" lon="4.82304">
        <ele>213</ele>
        <time>2016-03-20T10:02:03Z</time>
      </trkpt>
      <trkpt lat="45.62253" lon="4.82297">
        <ele>211.6</ele>
        <time>2016-03-20T10:02:05Z</time>
      </trkpt>
      <trkpt lat="45.62245" lon="4.82289">
        <ele>211</ele>
        <time>2016-03-20T10:02:07Z</time>
      </trkpt>
      <trkpt lat="45.62237" lon="4.82281">
        <ele>211.1</ele>
        <time>2016-03-20T10:02:09Z</time>
      </trkpt>
      <trkpt lat="45.62231" lon="4.82275">
        <ele>211.4</ele>
        <time>2016-03-20T10:02:11Z</time>
      </trkpt>
      <trkpt lat="45.62231" lon="4.8227">
        <ele>211.9</ele>
        <time>2016-03-20T10:02:13Z</time>
      </trkpt>
      <trkpt lat="45.62235" lon="4.82266">
        <ele>212.2</ele>
        <time>2016-03-20T10:02:15Z</time>
      </trkpt>
      <trkpt lat="45.62236" lon="4.82261">
        <ele>212.5</ele>
        <time>2016-03-20T10:02:17Z</time>
      </trkpt>
      <trkpt lat="45.62234" lon="4.82258">
        <ele>212.3</ele>
        <time>2016-03-20T10:02:19Z</time>
      </trkpt>
      <trkpt lat="45.62231" lon="4.82255">
        <ele>212.2</ele>
        <time>2016-03-20T10:02:21Z</time>
      </trkpt>
      <trkpt lat="45.62229" lon="4.8225">
        <ele>211.6</ele>
        <time>2016-03-20T10:02:23Z</time>
      </trkpt>
      <trkpt lat="45.62225" lon="4.82245">
        <ele>210.2</ele>
        <time>2016-03-20T10:02:25Z</time>
      </trkpt>
      <trkpt lat="45.62219" lon="4.82238">
        <ele>208.5</ele>
        <time>2016-03-20T10:02:27Z</time>
      </trkpt>
      <trkpt lat="45.62212" lon="4.82229">
        <ele>206.7</ele>
        <time>2016-03-20T10:02:29Z</time>
      </trkpt>
      <trkpt lat="45.62205" lon="4.82222">
        <ele>205.4</ele>
        <time>2016-03-20T10:02:31Z</time>
      </trkpt>
      <trkpt lat="45.622" lon="4.82215">
        <ele>205.2</ele>
        <time>2016-03-20T10:02:33Z</time>
      </trkpt>
      <trkpt lat="45.62199" lon="4.82208">
        <ele>204.6</ele>
        <time>2016-03-20T10:02:35Z</time>
      </trkpt>
      <trkpt lat="45.62203" lon="4.82203">
        <ele>204.1</ele>
        <time>2016-03-20T10:02:37Z</time>
      </trkpt>
      <trkpt lat="45.6221" lon="4.82201">
        <ele>204.1</ele>
        <time>2016-03-20T10:02:39Z</time>
      </trkpt>
      <trkpt lat="45.62217" lon="4.82206">
        <ele>204.7</ele>
        <time>2016-03-20T10:02:41Z</time>
      </trkpt>
      <trkpt lat="45.62227" lon="4.82212">
        <ele>205.4</ele>
        <time>2016-03-20T10:02:43Z</time>
      </trkpt>
      <trkpt lat="45.62235" lon="4.82219">
        <ele>206.8</ele>
        <time>2016-03-20T10:02:45Z</time>
      </trkpt>
      <trkpt lat="45.62244" lon="4.82227">
        <ele>204.7</ele>
        <time>2016-03-20T10:02:47Z</time>
      </trkpt>
      <trkpt lat="45.62251" lon="4.82236">
        <ele>201.3</ele>
        <time>2016-03-20T10:02:49Z</time>
      </trkpt>
      <trkpt lat="45.62259" lon="4.8224">
        <ele>197.9</ele>
        <time>2016-03-20T10:02:51Z</time>
      </trkpt>
      <trkpt lat="45.62268" lon="4.82232">
        <ele>194.9</ele>
        <time>2016-03-20T10:02:53Z</time>
      </trkpt>
      <trkpt lat="45.62275" lon="4.82218">
        <ele>192.1</ele>
        <time>2016-03-20T10:02:55Z</time>
      </trkpt>
      <trkpt lat="45.62285" lon="4.8221">
        <ele>191.5</ele>
        <time>2016-03-20T10:02:57Z</time>
      </trkpt>
      <trkpt lat="45.62296" lon="4.82208">
        <ele>192.4</ele>
        <time>2016-03-20T10:02:59Z</time>
      </trkpt>
      <trkpt lat="45.62304" lon="4.82212">
        <ele>193.2</ele>
        <time>2016-03-20T10:03:01Z</time>
      </trkpt>
      <trkpt lat="45.62314" lon="4.8221">
        <ele>193.3</ele>
        <time>2016-03-20T10:03:03Z</time>
      </trkpt>
      <trkpt lat="45.62323" lon="4.82204">
        <ele>193.8</ele>
        <time>2016-03-20T10:03:05Z</time>
      </trkpt>
      <trkpt lat="45.62335" lon="4.82205">
        <ele>194.2</ele>
        <time>2016-03-20T10:03:07Z</time>
      </trkpt>
      <trkpt lat="45.62346" lon="4.82201">
        <ele>193.5</ele>
        <time>2016-03-20T10:03:09Z</time>
      </trkpt>
      <trkpt lat="45.62355" lon="4.8219">
        <ele>191.5</ele>
        <time>2016-03-20T10:03:11Z</time>
      </trkpt>
      <trkpt lat="45.62359" lon="4.82173">
        <ele>189.9</ele>
        <time>2016-03-20T10:03:13Z</time>
      </trkpt>
      <trkpt lat="45.62362" lon="4.82156">
        <ele>188.9</ele>
        <time>2016-03-20T10:03:15Z</time>
      </trkpt>
      <trkpt lat="45.62359" lon="4.82143">
        <ele>188.2</ele>
        <time>2016-03-20T10:03:17Z</time>
      </trkpt>
      <trkpt lat="45.62355" lon="4.82133">
        <ele>187.2</ele>
        <time>2016-03-20T10:03:19Z</time>
      </trkpt>
      <trkpt lat="45.6236" lon="4.82129">
        <ele>187</ele>
        <time>2016-03-20T10:03:21Z</time>
      </trkpt>
      <trkpt lat="45.62368" lon="4.82129">
        <ele>187</ele>
        <time>2016-03-20T10:03:23Z</time>
      </trkpt>
      <trkpt lat="45.62374" lon="4.82127">
        <ele>187</ele>
        <time>2016-03-20T10:03:25Z</time>
      </trkpt>
      <trkpt lat="45.62381" lon="4.82123">
        <ele>187</ele>
        <time>2016-03-20T10:03:27Z</time>
      </trkpt>
      <trkpt lat="45.62388" lon="4.82118">
        <ele>187</ele>
        <time>2016-03-20T10:03:29Z</time>
      </trkpt>
      <trkpt lat="45.62396" lon="4.82111">
        <ele>187</ele>
        <time>2016-03-20T10:03:31Z</time>
      </trkpt>
      <trkpt lat="45.62404" lon="4.82103">
        <ele>187</ele>
        <time>2016-03-20T10:03:33Z</time>
      </trkpt>
      <trkpt lat="45.62412" lon="4.82093">
        <ele>187</ele>
        <time>2016-03-20T10:03:35Z</time>
      </trkpt>
      <trkpt lat="45.62418" lon="4.82081">
        <ele>186.9</ele>
        <time>2016-03-20T10:03:37Z</time>
      </trkpt>
      <trkpt lat="45.62424" lon="4.82068">
        <ele>186.9</ele>
        <time>2016-03-20T10:03:39Z</time>
      </trkpt>
      <trkpt lat="45.62426" lon="4.82052">
        <ele>186.7</ele>
        <time>2016-03-20T10:03:41Z</time>
      </trkpt>
      <trkpt lat="45.62427" lon="4.82038">
        <ele>186.6</ele>
        <time>2016-03-20T10:03:43Z</time>
      </trkpt>
      <trkpt lat="45.62427" lon="4.82024">
        <ele>186.1</ele>
        <time>2016-03-20T10:03:45Z</time>
      </trkpt>
      <trkpt lat="45.62427" lon="4.8201">
        <ele>185.7</ele>
        <time>2016-03-20T10:03:47Z</time>
      </trkpt>
      <trkpt lat="45.62426" lon="4.81996">
        <ele>185.6</ele>
        <time>2016-03-20T10:03:49Z</time>
      </trkpt>
      <trkpt lat="45.62425" lon="4.81982">
        <ele>185.4</ele>
        <time>2016-03-20T10:03:51Z</time>
      </trkpt>
      <trkpt lat="45.62425" lon="4.81969">
        <ele>185.3</ele>
        <time>2016-03-20T10:03:53Z</time>
      </trkpt>
      <trkpt lat="45.62426" lon="4.81956">
        <ele>185.2</ele>
        <time>2016-03-20T10:03:55Z</time>
      </trkpt>
      <trkpt lat="45.62434" lon="4.8195">
        <ele>184.8</ele>
        <time>2016-03-20T10:03:57Z</time>
      </trkpt>
      <trkpt lat="45.62443" lon="4.81949">
        <ele>184.6</ele>
        <time>2016-03-20T10:03:59Z</time>
      </trkpt>
      <trkpt lat="45.62453" lon="4.81948">
        <ele>184.3</ele>
        <time>2016-03-20T10:04:01Z</time>
      </trkpt>
      <trkpt lat="45.62463" lon="4.81946">
        <ele>184.1</ele>
        <time>2016-03-20T10:04:03Z</time>
      </trkpt>
      <trkpt lat="45.62473" lon="4.81944">
        <ele>184</ele>
        <time>2016-03-20T10:04:05Z</time>
      </trkpt>
      <trkpt lat="45.62483" lon="4.8194">
        <ele>183.9</ele>
        <time>2016-03-20T10:04:07Z</time>
      </trkpt>
      <trkpt lat="45.62492" lon="4.81934">
        <ele>183.9</ele>
        <time>2016-03-20T10:04:09Z</time>
      </trkpt>
      <trkpt lat="45.62503" lon="4.81933">
        <ele>184</ele>
        <time>2016-03-20T10:04:11Z</time>
      </trkpt>
      <trkpt lat="45.62513" lon="4.81937">
        <ele>184</ele>
        <time>2016-03-20T10:04:13Z</time>
      </trkpt>
      <trkpt lat="45.62523" lon="4.81929">
        <ele>182.7</ele>
        <time>2016-03-20T10:04:15Z</time>
      </trkpt>
      <trkpt lat="45.62531" lon="4.81914">
        <ele>181.1</ele>
        <time>2016-03-20T10:04:17Z</time>
      </trkpt>
      <trkpt lat="45.62539" lon="4.81895">
        <ele>180.2</ele>
        <time>2016-03-20T10:04:19Z</time>
      </trkpt>
      <trkpt lat="45.62549" lon="4.81873">
        <ele>179.1</ele>
        <time>2016-03-20T10:04:21Z</time>
      </trkpt>
      <trkpt lat="45.62561" lon="4.81849">
        <ele>176.7</ele>
        <time>2016-03-20T10:04:23Z</time>
      </trkpt>
      <trkpt lat="45.62575" lon="4.81826">
        <ele>173.9</ele>
        <time>2016-03-20T10:04:25Z</time>
      </trkpt>
      <trkpt lat="45.62593" lon="4.81806">
        <ele>172.5</ele>
        <time>2016-03-20T10:04:27Z</time>
      </trkpt>
      <trkpt lat="45.62613" lon="4.81789">
        <ele>171</ele>
        <time>2016-03-20T10:04:29Z</time>
      </trkpt>
      <trkpt lat="45.62633" lon="4.81777">
        <ele>169.3</ele>
        <time>2016-03-20T10:04:31Z</time>
      </trkpt>
      <trkpt lat="45.62651" lon="4.81773">
        <ele>168.1</ele>
        <time>2016-03-20T10:04:33Z</time>
      </trkpt>
      <trkpt lat="45.6267" lon="4.81784">
        <ele>168.7</ele>
        <time>2016-03-20T10:04:35Z</time>
      </trkpt>
      <trkpt lat="45.62684" lon="4.81804">
        <ele>169.6</ele>
        <time>2016-03-20T10:04:37Z</time>
      </trkpt>
      <trkpt lat="45.62695" lon="4.81825">
        <ele>171.3</ele>
        <time>2016-03-20T10:04:39Z</time>
      </trkpt>
      <trkpt lat="45.62707" lon="4.81842">
        <ele>173</ele>
        <time>2016-03-20T10:04:41Z</time>
      </trkpt>
      <trkpt lat="45.62719" lon="4.81856">
        <ele>172.9</ele>
        <time>2016-03-20T10:04:43Z</time>
      </trkpt>
      <trkpt lat="45.62733" lon="4.81866">
        <ele>172.7</ele>
        <time>2016-03-20T10:04:45Z</time>
      </trkpt>
      <trkpt lat="45.62746" lon="4.81875">
        <ele>172.5</ele>
        <time>2016-03-20T10:04:47Z</time>
      </trkpt>
      <trkpt lat="45.62759" lon="4.81884">
        <ele>172.1</ele>
        <time>2016-03-20T10:04:49Z</time>
      </trkpt>
      <trkpt lat="45.62771" lon="4.81893">
        <ele>171.3</ele>
        <time>2016-03-20T10:04:51Z</time>
      </trkpt>
      <trkpt lat="45.62783" lon="4.81902">
        <ele>170.7</ele>
        <time>2016-03-20T10:04:53Z</time>
      </trkpt>
      <trkpt lat="45.62795" lon="4.8191">
        <ele>170.3</ele>
        <time>2016-03-20T10:04:55Z</time>
      </trkpt>
      <trkpt lat="45.62806" lon="4.81922">
        <ele>170.1</ele>
        <time>2016-03-20T10:04:57Z</time>
      </trkpt>
      <trkpt lat="45.62814" lon="4.81938">
        <ele>169.5</ele>
        <time>2016-03-20T10:04:59Z</time>
      </trkpt>
      <trkpt lat="45.6282" lon="4.81955">
        <ele>169.2</ele>
        <time>2016-03-20T10:05:01Z</time>
      </trkpt>
      <trkpt lat="45.62825" lon="4.81972">
        <ele>168.8</ele>
        <time>2016-03-20T10:05:03Z</time>
      </trkpt>
      <trkpt lat="45.6283" lon="4.81989">
        <ele>168.5</ele>
        <time>2016-03-20T10:05:05Z</time>
      </trkpt>
      <trkpt lat="45.62835" lon="4.82005">
        <ele>168.1</ele>
        <time>2016-03-20T10:05:07Z</time>
      </trkpt>
      <trkpt lat="45.62841" lon="4.82021">
        <ele>167.6</ele>
        <time>2016-03-20T10:05:09Z</time>
      </trkpt>
      <trkpt lat="45.62846" lon="4.82037">
        <ele>167</ele>
        <time>2016-03-20T10:05:11Z</time>
      </trkpt>
      <trkpt lat="45.62851" lon="4.82053">
        <ele>167.1</ele>
        <time>2016-03-20T10:05:13Z</time>
      </trkpt>
      <trkpt lat="45.62856" lon="4.82069">
        <ele>167.1</ele>
        <time>2016-03-20T10:05:15Z</time>
      </trkpt>
      <trkpt lat="45.62861" lon="4.82085">
        <ele>167.3</ele>
        <time>2016-03-20T10:05:17Z</time>
      </trkpt>
      <trkpt lat="45.62866" lon="4.82101">
        <ele>167.6</ele>
        <time>2016-03-20T10:05:19Z</time>
      </trkpt>
      <trkpt lat="45.6287" lon="4.82117">
        <ele>167.7</ele>
        <time>2016-03-20T10:05:21Z</time>
      </trkpt>
      <trkpt lat="45.62875" lon="4.82132">
        <ele>167.8</ele>
        <time>2016-03-20T10:05:23Z</time>
      </trkpt>
      <trkpt lat="45.6288" lon="4.82147">
        <ele>167.9</ele>
        <time>2016-03-20T10:05:25Z</time>
      </trkpt>
      <trkpt lat="45.62886" lon="4.82155">
        <ele>168</ele>
        <time>2016-03-20T10:05:27Z</time>
      </trkpt>
      <trkpt lat="45.62895" lon="4.82147">
        <ele>168</ele>
        <time>2016-03-20T10:05:29Z</time>
      </trkpt>
      <trkpt lat="45.62906" lon="4.82141">
        <ele>167.4</ele>
        <time>2016-03-20T10:05:31Z</time>
      </trkpt>
      <trkpt lat="45.6292" lon="4.82142">
        <ele>167.1</ele>
        <time>2016-03-20T10:05:33Z</time>
      </trkpt>
      <trkpt lat="45.62935" lon="4.82147">
        <ele>167</ele>
        <time>2016-03-20T10:05:35Z</time>
      </trkpt>
      <trkpt lat="45.6295" lon="4.82152">
        <ele>166.9</ele>
        <time>2016-03-20T10:05:37Z</time>
      </trkpt>
      <trkpt lat="45.62966" lon="4.82157">
        <ele>166.6</ele>
        <time>2016-03-20T10:05:39Z</time>
      </trkpt>
      <trkpt lat="45.62981" lon="4.82162">
        <ele>166.4</ele>
        <time>2016-03-20T10:05:41Z</time>
      </trkpt>
      <trkpt lat="45.62995" lon="4.82168">
        <ele>166.2</ele>
        <time>2016-03-20T10:05:43Z</time>
      </trkpt>
      <trkpt lat="45.63009" lon="4.82175">
        <ele>165.7</ele>
        <time>2016-03-20T10:05:45Z</time>
      </trkpt>
      <trkpt lat="45.63021" lon="4.8218">
        <ele>165.2</ele>
        <time>2016-03-20T10:05:47Z</time>
      </trkpt>
      <trkpt lat="45.63034" lon="4.82186">
        <ele>164.8</ele>
        <time>2016-03-20T10:05:49Z</time>
      </trkpt>
      <trkpt lat="45.63041" lon="4.82199">
        <ele>164.6</ele>
        <time>2016-03-20T10:05:51Z</time>
      </trkpt>
      <trkpt lat="45.63041" lon="4.82216">
        <ele>164.5</ele>
        <time>2016-03-20T10:05:53Z</time>
      </trkpt>
      <trkpt lat="45.63038" lon="4.82234">
        <ele>164.4</ele>
        <time>2016-03-20T10:05:55Z</time>
      </trkpt>
      <trkpt lat="45.63035" lon="4.82253">
        <ele>164.3</ele>
        <time>2016-03-20T10:05:57Z</time>
      </trkpt>
      <trkpt lat="45.63033" lon="4.82273">
        <ele>164.3</ele>
        <time>2016-03-20T10:05:59Z</time>
      </trkpt>
      <trkpt lat="45.6303" lon="4.82292">
        <ele>164.2</ele>
        <time>2016-03-20T10:06:01Z</time>
      </trkpt>
      <trkpt lat="45.63027" lon="4.82309">
        <ele>164.2</ele>
        <time>2016-03-20T10:06:03Z</time>
      </trkpt>
      <trkpt lat="45.63023" lon="4.82326">
        <ele>164.1</ele>
        <time>2016-03-20T10:06:05Z</time>
      </trkpt>
      <trkpt lat="45.6302" lon="4.82341">
        <ele>164.1</ele>
        <time>2016-03-20T10:06:07Z</time>
      </trkpt>
      <trkpt lat="45.63018" lon="4.82353">
        <ele>164</ele>
        <time>2016-03-20T10:06:09Z</time>
      </trkpt>
      <trkpt lat="45.63017" lon="4.82361">
        <ele>164</ele>
        <time>2016-03-20T10:06:11Z</time>
      </trkpt>
      <trkpt lat="45.63019" lon="4.82367">
        <ele>164</ele>
        <time>2016-03-20T10:06:13Z</time>
      </trkpt>
      <trkpt lat="45.63025" lon="4.82371">
        <ele>163.9</ele>
        <time>2016-03-20T10:06:15Z</time>
      </trkpt>
      <trkpt lat="45.63034" lon="4.82373">
        <ele>163.9</ele>
        <time>2016-03-20T10:06:17Z</time>
      </trkpt>
      <trkpt lat="45.63046" lon="4.82375">
        <ele>163.8</ele>
        <time>2016-03-20T10:06:19Z</time>
      </trkpt>
      <trkpt lat="45.63057" lon="4.82379">
        <ele>163.7</ele>
        <time>2016-03-20T10:06:21Z</time>
      </trkpt>
      <trkpt lat="45.63068" lon="4.82381">
        <ele>163.6</ele>
        <time>2016-03-20T10:06:23Z</time>
      </trkpt>
      <trkpt lat="45.6308" lon="4.82384">
        <ele>163.6</ele>
        <time>2016-03-20T10:06:25Z</time>
      </trkpt>
      <trkpt lat="45.63093" lon="4.82385">
        <ele>163.5</ele>
        <time>2016-03-20T10:06:27Z</time>
      </trkpt>
      <trkpt lat="45.63105" lon="4.82387">
        <ele>163.4</ele>
        <time>2016-03-20T10:06:29Z</time>
      </trkpt>
      <trkpt lat="45.63117" lon="4.82388">
        <ele>163.3</ele>
        <time>2016-03-20T10:06:31Z</time>
      </trkpt>
      <trkpt lat="45.63129" lon="4.8239">
        <ele>163.3</ele>
        <time>2016-03-20T10:06:33Z</time>
      </trkpt>
      <trkpt lat="45.6314" lon="4.82392">
        <ele>163.2</ele>
        <time>2016-03-20T10:06:35Z</time>
      </trkpt>
      <trkpt lat="45.63151" lon="4.82393">
        <ele>163.1</ele>
        <time>2016-03-20T10:06:37Z</time>
      </trkpt>
      <trkpt lat="45.63161" lon="4.82395">
        <ele>163.1</ele>
        <time>2016-03-20T10:06:39Z</time>
      </trkpt>
      <trkpt lat="45.63171" lon="4.82396">
        <ele>163</ele>
        <time>2016-03-20T10:06:41Z</time>
      </trkpt>
      <trkpt lat="45.63182" lon="4.82398">
        <ele>163</ele>
        <time>2016-03-20T10:06:43Z</time>
      </trkpt>
      <trkpt lat="45.63193" lon="4.824">
        <ele>163.3</ele>
        <time>2016-03-20T10:06:45Z</time>
      </trkpt>
      <trkpt lat="45.63204" lon="4.82401">
        <ele>163.6</ele>
        <time>2016-03-20T10:06:47Z</time>
      </trkpt>
      <trkpt lat="45.63215" lon="4.82403">
        <ele>163.6</ele>
        <time>2016-03-20T10:06:49Z</time>
      </trkpt>
      <trkpt lat="45.63226" lon="4.82405">
        <ele>163</ele>
        <time>2016-03-20T10:06:51Z</time>
      </trkpt>
      <trkpt lat="45.63236" lon="4.82407">
        <ele>162.4</ele>
        <time>2016-03-20T10:06:53Z</time>
      </trkpt>
      <trkpt lat="45.63246" lon="4.82408">
        <ele>162</ele>
        <time>2016-03-20T10:06:55Z</time>
      </trkpt>
      <trkpt lat="45.63254" lon="4.82409">
        <ele>161.9</ele>
        <time>2016-03-20T10:06:57Z</time>
      </trkpt>
      <trkpt lat="45.63261" lon="4.8241">
        <ele>162.2</ele>
        <time>2016-03-20T10:06:59Z</time>
      </trkpt>
      <trkpt lat="45.63268" lon="4.8241">
        <ele>162.9</ele>
        <time>2016-03-20T10:07:01Z</time>
      </trkpt>
      <trkpt lat="45.63274" lon="4.82411">
        <ele>163</ele>
        <time>2016-03-20T10:07:03Z</time>
      </trkpt>
      <trkpt lat="45.63281" lon="4.82412">
        <ele>163</ele>
        <time>2016-03-20T10:07:05Z</time>
      </trkpt>
      <trkpt lat="45.63286" lon="4.82413">
        <ele>163</ele>
        <time>2016-03-20T10:07:07Z</time>
      </trkpt>
      <trkpt lat="45.63288" lon="4.82416">
        <ele>163.7</ele>
        <time>2016-03-20T10:07:09Z</time>
      </trkpt>
      <trkpt lat="45.63289" lon="4.82419">
        <ele>163.8</ele>
        <time>2016-03-20T10:07:11Z</time>
      </trkpt>
      <trkpt lat="45.63289" lon="4.82425">
        <ele>164</ele>
        <time>2016-03-20T10:07:13Z</time>
      </trkpt>
      <trkpt lat="45.63286" lon="4.82432">
        <ele>164.3</ele>
        <time>2016-03-20T10:07:15Z</time>
      </trkpt>
      <trkpt lat="45.63285" lon="4.82443">
        <ele>163.6</ele>
        <time>2016-03-20T10:07:17Z</time>
      </trkpt>
      <trkpt lat="45.63284" lon="4.82457">
        <ele>163.2</ele>
        <time>2016-03-20T10:07:19Z</time>
      </trkpt>
      <trkpt lat="45.63282" lon="4.82472">
        <ele>161.9</ele>
        <time>2016-03-20T10:07:21Z</time>
      </trkpt>
      <trkpt lat="45.63279" lon="4.82489">
        <ele>160.8</ele>
        <time>2016-03-20T10:07:23Z</time>
      </trkpt>
      <trkpt lat="45.63274" lon="4.82508">
        <ele>159.6</ele>
        <time>2016-03-20T10:07:25Z</time>
      </trkpt>
      <trkpt lat="45.63271" lon="4.82527">
        <ele>159.3</ele>
        <time>2016-03-20T10:07:27Z</time>
      </trkpt>
      <trkpt lat="45.63268" lon="4.82546">
        <ele>159.9</ele>
        <time>2016-03-20T10:07:29Z</time>
      </trkpt>
      <trkpt lat="45.63265" lon="4.82566">
        <ele>160.3</ele>
        <time>2016-03-20T10:07:31Z</time>
      </trkpt>
      <trkpt lat="45.63261" lon="4.82586">
        <ele>160.2</ele>
        <time>2016-03-20T10:07:33Z</time>
      </trkpt>
      <trkpt lat="45.63255" lon="4.82606">
        <ele>159.6</ele>
        <time>2016-03-20T10:07:35Z</time>
      </trkpt>
      <trkpt lat="45.63247" lon="4.82623">
        <ele>158.5</ele>
        <time>2016-03-20T10:07:37Z</time>
      </trkpt>
      <trkpt lat="45.63237" lon="4.8264">
        <ele>158.6</ele>
        <time>2016-03-20T10:07:39Z</time>
      </trkpt>
      <trkpt lat="45.63229" lon="4.82658">
        <ele>159</ele>
        <time>2016-03-20T10:07:41Z</time>
      </trkpt>
      <trkpt lat="45.63222" lon="4.82676">
        <ele>160.3</ele>
        <time>2016-03-20T10:07:43Z</time>
      </trkpt>
      <trkpt lat="45.63214" lon="4.82695">
        <ele>161.6</ele>
        <time>2016-03-20T10:07:45Z</time>
      </trkpt>
      <trkpt lat="45.63206" lon="4.82712">
        <ele>162.2</ele>
        <time>2016-03-20T10:07:47Z</time>
      </trkpt>
      <trkpt lat="45.63198" lon="4.82729">
        <ele>162.5</ele>
        <time>2016-03-20T10:07:49Z</time>
      </trkpt>
      <trkpt lat="45.63191" lon="4.82745">
        <ele>162.3</ele>
        <time>2016-03-20T10:07:51Z</time>
      </trkpt>
      <trkpt lat="45.63185" lon="4.82762">
        <ele>162.6</ele>
        <time>2016-03-20T10:07:53Z</time>
      </trkpt>
      <trkpt lat="45.63183" lon="4.8278">
        <ele>162.9</ele>
        <time>2016-03-20T10:07:55Z</time>
      </trkpt>
      <trkpt lat="45.63184" lon="4.82796">
        <ele>163</ele>
        <time>2016-03-20T10:07:57Z</time>
      </trkpt>
      <trkpt lat="45.63186" lon="4.82811">
        <ele>163.3</ele>
        <time>2016-03-20T10:07:59Z</time>
      </trkpt>
      <trkpt lat="45.63186" lon="4.82825">
        <ele>164.1</ele>
        <time>2016-03-20T10:08:01Z</time>
      </trkpt>
      <trkpt lat="45.63187" lon="4.82839">
        <ele>164.5</ele>
        <time>2016-03-20T10:08:03Z</time>
      </trkpt>
      <trkpt lat="45.63189" lon="4.82854">
        <ele>164.8</ele>
        <time>2016-03-20T10:08:05Z</time>
      </trkpt>
      <trkpt lat="45.6319" lon="4.82866">
        <ele>165.1</ele>
        <time>2016-03-20T10:08:07Z</time>
      </trkpt>
      <trkpt lat="45.63191" lon="4.82878">
        <ele>165.4</ele>
        <time>2016-03-20T10:08:09Z</time>
      </trkpt>
      <trkpt lat="45.63195" lon="4.82889">
        <ele>165.9</ele>
        <time>2016-03-20T10:08:11Z</time>
      </trkpt>
      <trkpt lat="45.63197" lon="4.82901">
        <ele>166.5</ele>
        <time>2016-03-20T10:08:13Z</time>
      </trkpt>
      <trkpt lat="45.632" lon="4.82915">
        <ele>166.9</ele>
        <time>2016-03-20T10:08:15Z</time>
      </trkpt>
      <trkpt lat="45.63202" lon="4.8293">
        <ele>166.9</ele>
        <time>2016-03-20T10:08:17Z</time>
      </trkpt>
      <trkpt lat="45.63205" lon="4.82945">
        <ele>167</ele>
        <time>2016-03-20T10:08:19Z</time>
      </trkpt>
      <trkpt lat="45.63207" lon="4.8296">
        <ele>167.1</ele>
        <time>2016-03-20T10:08:21Z</time>
      </trkpt>
      <trkpt lat="45.6321" lon="4.82974">
        <ele>166.8</ele>
        <time>2016-03-20T10:08:23Z</time>
      </trkpt>
      <trkpt lat="45.63211" lon="4.82988">
        <ele>166.2</ele>
        <time>2016-03-20T10:08:25Z</time>
      </trkpt>
      <trkpt lat="45.63212" lon="4.83003">
        <ele>165.3</ele>
        <time>2016-03-20T10:08:27Z</time>
      </trkpt>
      <trkpt lat="45.63213" lon="4.83018">
        <ele>164</ele>
        <time>2016-03-20T10:08:29Z</time>
      </trkpt>
      <trkpt lat="45.63215" lon="4.83032">
        <ele>163.9</ele>
        <time>2016-03-20T10:08:31Z</time>
      </trkpt>
      <trkpt lat="45.63215" lon="4.83047">
        <ele>163.6</ele>
        <time>2016-03-20T10:08:33Z</time>
      </trkpt>
      <trkpt lat="45.63216" lon="4.83061">
        <ele>164.2</ele>
        <time>2016-03-20T10:08:35Z</time>
      </trkpt>
      <trkpt lat="45.63216" lon="4.83076">
        <ele>164.4</ele>
        <time>2016-03-20T10:08:37Z</time>
      </trkpt>
      <trkpt lat="45.63216" lon="4.8309">
        <ele>164</ele>
        <time>2016-03-20T10:08:39Z</time>
      </trkpt>
      <trkpt lat="45.63217" lon="4.83104">
        <ele>164.7</ele>
        <time>2016-03-20T10:08:41Z</time>
      </trkpt>
      <trkpt lat="45.63216" lon="4.83119">
        <ele>164.8</ele>
        <time>2016-03-20T10:08:43Z</time>
      </trkpt>
      <trkpt lat="45.63213" lon="4.83135">
        <ele>165.6</ele>
        <time>2016-03-20T10:08:45Z</time>
      </trkpt>
      <trkpt lat="45.63211" lon="4.83151">
        <ele>167.2</ele>
        <time>2016-03-20T10:08:47Z</time>
      </trkpt>
      <trkpt lat="45.63209" lon="4.83167">
        <ele>167.7</ele>
        <time>2016-03-20T10:08:49Z</time>
      </trkpt>
      <trkpt lat="45.63207" lon="4.83182">
        <ele>168</ele>
        <time>2016-03-20T10:08:51Z</time>
      </trkpt>
      <trkpt lat="45.63205" lon="4.83197">
        <ele>168.1</ele>
        <time>2016-03-20T10:08:53Z</time>
      </trkpt>
      <trkpt lat="45.63202" lon="4.83212">
        <ele>167.7</ele>
        <time>2016-03-20T10:08:55Z</time>
      </trkpt>
      <trkpt lat="45.632" lon="4.83226">
        <ele>167.6</ele>
        <time>2016-03-20T10:08:57Z</time>
      </trkpt>
      <trkpt lat="45.63198" lon="4.8324">
        <ele>167.1</ele>
        <time>2016-03-20T10:08:59Z</time>
      </trkpt>
      <trkpt lat="45.63195" lon="4.83254">
        <ele>167.1</ele>
        <time>2016-03-20T10:09:01Z</time>
      </trkpt>
      <trkpt lat="45.63194" lon="4.83268">
        <ele>168.2</ele>
        <time>2016-03-20T10:09:03Z</time>
      </trkpt>
      <trkpt lat="45.63193" lon="4.83283">
        <ele>168.8</ele>
        <time>2016-03-20T10:09:05Z</time>
      </trkpt>
      <trkpt lat="45.63192" lon="4.83297">
        <ele>169</ele>
        <time>2016-03-20T10:09:07Z</time>
      </trkpt>
      <trkpt lat="45.63191" lon="4.83308">
        <ele>169</ele>
        <time>2016-03-20T10:09:09Z</time>
      </trkpt>
      <trkpt lat="45.63191" lon="4.83318">
        <ele>169.2</ele>
        <time>2016-03-20T10:09:11Z</time>
      </trkpt>
      <trkpt lat="45.63191" lon="4.83328">
        <ele>169.4</ele>
        <time>2016-03-20T10:09:13Z</time>
      </trkpt>
      <trkpt lat="45.63192" lon="4.83337">
        <ele>169.6</ele>
        <time>2016-03-20T10:09:15Z</time>
      </trkpt>
      <trkpt lat="45.63192" lon="4.83347">
        <ele>170</ele>
        <time>2016-03-20T10:09:17Z</time>
      </trkpt>
      <trkpt lat="45.63194" lon="4.83357">
        <ele>169.7</ele>
        <time>2016-03-20T10:09:19Z</time>
      </trkpt>
      <trkpt lat="45.63194" lon="4.83368">
        <ele>169.8</ele>
        <time>2016-03-20T10:09:21Z</time>
      </trkpt>
      <trkpt lat="45.63195" lon="4.83377">
        <ele>169.6</ele>
        <time>2016-03-20T10:09:23Z</time>
      </trkpt>
      <trkpt lat="45.63195" lon="4.83388">
        <ele>169.3</ele>
        <time>2016-03-20T10:09:25Z</time>
      </trkpt>
      <trkpt lat="45.63196" lon="4.83398">
        <ele>169</ele>
        <time>2016-03-20T10:09:27Z</time>
      </trkpt>
      <trkpt lat="45.63195" lon="4.83408">
        <ele>168.7</ele>
        <time>2016-03-20T10:09:29Z</time>
      </trkpt>
      <trkpt lat="45.63195" lon="4.83418">
        <ele>168.5</ele>
        <time>2016-03-20T10:09:31Z</time>
      </trkpt>
      <trkpt lat="45.63194" lon="4.83428">
        <ele>168.4</ele>
        <time>2016-03-20T10:09:33Z</time>
      </trkpt>
      <trkpt lat="45.63194" lon="4.83438">
        <ele>168</ele>
        <time>2016-03-20T10:09:35Z</time>
      </trkpt>
      <trkpt lat="45.63192" lon="4.83449">
        <ele>167.4</ele>
        <time>2016-03-20T10:09:37Z</time>
      </trkpt>
      <trkpt lat="45.63192" lon="4.8346">
        <ele>167.1</ele>
        <time>2016-03-20T10:09:39Z</time>
      </trkpt>
      <trkpt lat="45.63192" lon="4.8347">
        <ele>166.9</ele>
        <time>2016-03-20T10:09:41Z</time>
      </trkpt>
      <trkpt lat="45.63192" lon="4.8348">
        <ele>167.2</ele>
        <time>2016-03-20T10:09:43Z</time>
      </trkpt>
      <trkpt lat="45.63191" lon="4.83491">
        <ele>167.9</ele>
        <time>2016-03-20T10:09:45Z</time>
      </trkpt>
      <trkpt lat="45.6319" lon="4.83501">
        <ele>167.8</ele>
        <time>2016-03-20T10:09:47Z</time>
      </trkpt>
      <trkpt lat="45.63189" lon="4.83512">
        <ele>167.8</ele>
        <time>2016-03-20T10:09:49Z</time>
      </trkpt>
      <trkpt lat="45.63187" lon="4.83522">
        <ele>167.9</ele>
        <time>2016-03-20T10:09:51Z</time>
      </trkpt>
      <trkpt lat="45.63185" lon="4.83533">
        <ele>167.9</ele>
        <time>2016-03-20T10:09:53Z</time>
      </trkpt>
      <trkpt lat="45.63183" lon="4.83544">
        <ele>168.1</ele>
        <time>2016-03-20T10:09:55Z</time>
      </trkpt>
      <trkpt lat="45.63182" lon="4.83554">
        <ele>168.7</ele>
        <time>2016-03-20T10:09:57Z</time>
      </trkpt>
      <trkpt lat="45.6318" lon="4.83564">
        <ele>168.5</ele>
        <time>2016-03-20T10:09:59Z</time>
      </trkpt>
      <trkpt lat="45.63178" lon="4.83575">
        <ele>167.8</ele>
        <time>2016-03-20T10:10:01Z</time>
      </trkpt>
      <trkpt lat="45.63176" lon="4.83586">
        <ele>167.5</ele>
        <time>2016-03-20T10:10:03Z</time>
      </trkpt>
      <trkpt lat="45.63174" lon="4.83598">
        <ele>166.8</ele>
        <time>2016-03-20T10:10:05Z</time>
      </trkpt>
      <trkpt lat="45.63171" lon="4.83609">
        <ele>167.1</ele>
        <time>2016-03-20T10:10:07Z</time>
      </trkpt>
      <trkpt lat="45.6317" lon="4.83621">
        <ele>167.6</ele>
        <time>2016-03-20T10:10:09Z</time>
      </trkpt>
      <trkpt lat="45.63168" lon="4.83632">
        <ele>168.6</ele>
        <time>2016-03-20T10:10:11Z</time>
      </trkpt>
      <trkpt lat="45.63166" lon="4.83643">
        <ele>169</ele>
        <time>2016-03-20T10:10:13Z</time>
      </trkpt>
      <trkpt lat="45.63165" lon="4.83652">
        <ele>169.1</ele>
        <time>2016-03-20T10:10:15Z</time>
      </trkpt>
      <trkpt lat="45.63165" lon="4.8366">
        <ele>169.3</ele>
        <time>2016-03-20T10:10:17Z</time>
      </trkpt>
      <trkpt lat="45.63161" lon="4.83664">
        <ele>169.6</ele>
        <time>2016-03-20T10:10:19Z</time>
      </trkpt>
      <trkpt lat="45.63158" lon="4.83673">
        <ele>169.8</ele>
        <time>2016-03-20T10:10:21Z</time>
      </trkpt>
      <trkpt lat="45.63154" lon="4.83683">
        <ele>169.6</ele>
        <time>2016-03-20T10:10:23Z</time>
      </trkpt>
      <trkpt lat="45.6315" lon="4.83693">
        <ele>170.1</ele>
        <time>2016-03-20T10:10:25Z</time>
      </trkpt>
      <trkpt lat="45.63146" lon="4.83702">
        <ele>170.3</ele>
        <time>2016-03-20T10:10:27Z</time>
      </trkpt>
      <trkpt lat="45.63142" lon="4.8371">
        <ele>171.1</ele>
        <time>2016-03-20T10:10:29Z</time>
      </trkpt>
      <trkpt lat="45.63139" lon="4.83718">
        <ele>171.7</ele>
        <time>2016-03-20T10:10:31Z</time>
      </trkpt>
      <trkpt lat="45.63136" lon="4.83725">
        <ele>172.1</ele>
        <time>2016-03-20T10:10:33Z</time>
      </trkpt>
      <trkpt lat="45.63133" lon="4.83731">
        <ele>172.7</ele>
        <time>2016-03-20T10:10:35Z</time>
      </trkpt>
      <trkpt lat="45.63129" lon="4.83737">
        <ele>173.1</ele>
        <time>2016-03-20T10:10:37Z</time>
      </trkpt>
      <trkpt lat="45.63126" lon="4.83743">
        <ele>173.5</ele>
        <time>2016-03-20T10:10:39Z</time>
      </trkpt>
      <trkpt lat="45.63121" lon="4.83749">
        <ele>174</ele>
        <time>2016-03-20T10:10:41Z</time>
      </trkpt>
      <trkpt lat="45.63118" lon="4.83755">
        <ele>174.4</ele>
        <time>2016-03-20T10:10:43Z</time>
      </trkpt>
      <trkpt lat="45.63114" lon="4.8376">
        <ele>174.7</ele>
        <time>2016-03-20T10:10:45Z</time>
      </trkpt>
      <trkpt lat="45.63112" lon="4.83765">
        <ele>174.9</ele>
        <time>2016-03-20T10:10:47Z</time>
      </trkpt>
      <trkpt lat="45.63108" lon="4.83767">
        <ele>175.1</ele>
        <time>2016-03-20T10:10:49Z</time>
      </trkpt>
      <trkpt lat="45.63102" lon="4.83771">
        <ele>175.1</ele>
        <time>2016-03-20T10:10:51Z</time>
      </trkpt>
      <trkpt lat="45.63095" lon="4.83778">
        <ele>175</ele>
        <time>2016-03-20T10:10:53Z</time>
      </trkpt>
      <trkpt lat="45.63086" lon="4.83786">
        <ele>175</ele>
        <time>2016-03-20T10:10:55Z</time>
      </trkpt>
      <trkpt lat="45.63077" lon="4.83793">
        <ele>174.4</ele>
        <time>2016-03-20T10:10:57Z</time>
      </trkpt>
      <trkpt lat="45.63068" lon="4.83798">
        <ele>173.1</ele>
        <time>2016-03-20T10:10:59Z</time>
      </trkpt>
      <trkpt lat="45.63059" lon="4.83802">
        <ele>172.7</ele>
        <time>2016-03-20T10:11:01Z</time>
      </trkpt>
      <trkpt lat="45.6305" lon="4.83806">
        <ele>172.5</ele>
        <time>2016-03-20T10:11:03Z</time>
      </trkpt>
      <trkpt lat="45.63043" lon="4.83811">
        <ele>171.9</ele>
        <time>2016-03-20T10:11:05Z</time>
      </trkpt>
      <trkpt lat="45.63035" lon="4.83817">
        <ele>171</ele>
        <time>2016-03-20T10:11:07Z</time>
      </trkpt>
      <trkpt lat="45.63027" lon="4.83826">
        <ele>170</ele>
        <time>2016-03-20T10:11:09Z</time>
      </trkpt>
      <trkpt lat="45.63021" lon="4.83836">
        <ele>169.9</ele>
        <time>2016-03-20T10:11:11Z</time>
      </trkpt>
      <trkpt lat="45.6302" lon="4.83847">
        <ele>170.9</ele>
        <time>2016-03-20T10:11:13Z</time>
      </trkpt>
      <trkpt lat="45.6302" lon="4.83858">
        <ele>171.9</ele>
        <time>2016-03-20T10:11:15Z</time>
      </trkpt>
      <trkpt lat="45.63021" lon="4.83869">
        <ele>172.6</ele>
        <time>2016-03-20T10:11:17Z</time>
      </trkpt>
      <trkpt lat="45.63023" lon="4.8388">
        <ele>172.5</ele>
        <time>2016-03-20T10:11:19Z</time>
      </trkpt>
      <trkpt lat="45.63027" lon="4.83891">
        <ele>173</ele>
        <time>2016-03-20T10:11:21Z</time>
      </trkpt>
      <trkpt lat="45.63032" lon="4.83903">
        <ele>174.1</ele>
        <time>2016-03-20T10:11:23Z</time>
      </trkpt>
      <trkpt lat="45.63037" lon="4.83916">
        <ele>175.8</ele>
        <time>2016-03-20T10:11:25Z</time>
      </trkpt>
      <trkpt lat="45.63043" lon="4.83927">
        <ele>176.5</ele>
        <time>2016-03-20T10:11:27Z</time>
      </trkpt>
      <trkpt lat="45.63049" lon="4.83937">
        <ele>177.5</ele>
        <time>2016-03-20T10:11:29Z</time>
      </trkpt>
      <trkpt lat="45.63055" lon="4.83949">
        <ele>179</ele>
        <time>2016-03-20T10:11:31Z</time>
      </trkpt>
      <trkpt lat="45.6306" lon="4.83959">
        <ele>180</ele>
        <time>2016-03-20T10:11:33Z</time>
      </trkpt>
      <trkpt lat="45.63066" lon="4.83969">
        <ele>181.2</ele>
        <time>2016-03-20T10:11:35Z</time>
      </trkpt>
      <trkpt lat="45.63072" lon="4.83978">
        <ele>182.3</ele>
        <time>2016-03-20T10:11:37Z</time>
      </trkpt>
      <trkpt lat="45.63077" lon="4.83988">
        <ele>183.9</ele>
        <time>2016-03-20T10:11:39Z</time>
      </trkpt>
      <trkpt lat="45.63083" lon="4.83998">
        <ele>186.4</ele>
        <time>2016-03-20T10:11:41Z</time>
      </trkpt>
      <trkpt lat="45.63089" lon="4.84008">
        <ele>188</ele>
        <time>2016-03-20T10:11:43Z</time>
      </trkpt>
      <trkpt lat="45.63096" lon="4.84018">
        <ele>189.3</ele>
        <time>2016-03-20T10:11:45Z</time>
      </trkpt>
      <trkpt lat="45.63102" lon="4.84029">
        <ele>190.8</ele>
        <time>2016-03-20T10:11:47Z</time>
      </trkpt>
      <trkpt lat="45.63108" lon="4.8404">
        <ele>192.5</ele>
        <time>2016-03-20T10:11:49Z</time>
      </trkpt>
      <trkpt lat="45.63114" lon="4.84049">
        <ele>194.8</ele>
        <time>2016-03-20T10:11:51Z</time>
      </trkpt>
      <trkpt lat="45.6312" lon="4.84058">
        <ele>195.7</ele>
        <time>2016-03-20T10:11:53Z</time>
      </trkpt>
      <trkpt lat="45.63126" lon="4.84066">
        <ele>196.9</ele>
        <time>2016-03-20T10:11:55Z</time>
      </trkpt>
      <trkpt lat="45.63133" lon="4.84071">
        <ele>197.3</ele>
        <time>2016-03-20T10:11:57Z</time>
      </trkpt>
      <trkpt lat="45.6314" lon="4.84074">
        <ele>197</ele>
        <time>2016-03-20T10:11:59Z</time>
      </trkpt>
      <trkpt lat="45.63147" lon="4.84076">
        <ele>198.3</ele>
        <time>2016-03-20T10:12:01Z</time>
      </trkpt>
      <trkpt lat="45.63155" lon="4.84076">
        <ele>199</ele>
        <time>2016-03-20T10:12:03Z</time>
      </trkpt>
      <trkpt lat="45.63163" lon="4.84076">
        <ele>199.5</ele>
        <time>2016-03-20T10:12:05Z</time>
      </trkpt>
      <trkpt lat="45.63171" lon="4.84078">
        <ele>199.9</ele>
        <time>2016-03-20T10:12:07Z</time>
      </trkpt>
      <trkpt lat="45.63179" lon="4.8408">
        <ele>200.6</ele>
        <time>2016-03-20T10:12:09Z</time>
      </trkpt>
      <trkpt lat="45.63186" lon="4.84082">
        <ele>201.7</ele>
        <time>2016-03-20T10:12:11Z</time>
      </trkpt>
      <trkpt lat="45.63193" lon="4.84085">
        <ele>203</ele>
        <time>2016-03-20T10:12:13Z</time>
      </trkpt>
      <trkpt lat="45.632" lon="4.84089">
        <ele>203.5</ele>
        <time>2016-03-20T10:12:15Z</time>
      </trkpt>
      <trkpt lat="45.63207" lon="4.84093">
        <ele>204.6</ele>
        <time>2016-03-20T10:12:17Z</time>
      </trkpt>
      <trkpt lat="45.63214" lon="4.84099">
        <ele>204.5</ele>
        <time>2016-03-20T10:12:19Z</time>
      </trkpt>
      <trkpt lat="45.6322" lon="4.84107">
        <ele>203.5</ele>
        <time>2016-03-20T10:12:21Z</time>
      </trkpt>
      <trkpt lat="45.63225" lon="4.84115">
        <ele>203.6</ele>
        <time>2016-03-20T10:12:23Z</time>
      </trkpt>
      <trkpt lat="45.63229" lon="4.84123">
        <ele>203.3</ele>
        <time>2016-03-20T10:12:25Z</time>
      </trkpt>
      <trkpt lat="45.63235" lon="4.84132">
        <ele>202.9</ele>
        <time>2016-03-20T10:12:27Z</time>
      </trkpt>
      <trkpt lat="45.63239" lon="4.84142">
        <ele>202.4</ele>
        <time>2016-03-20T10:12:29Z</time>
      </trkpt>
      <trkpt lat="45.63243" lon="4.84154">
        <ele>201.9</ele>
        <time>2016-03-20T10:12:31Z</time>
      </trkpt>
      <trkpt lat="45.63245" lon="4.84167">
        <ele>201.1</ele>
        <time>2016-03-20T10:12:33Z</time>
      </trkpt>
      <trkpt lat="45.63246" lon="4.84181">
        <ele>199.7</ele>
        <time>2016-03-20T10:12:35Z</time>
      </trkpt>
      <trkpt lat="45.63246" lon="4.84196">
        <ele>198.4</ele>
        <time>2016-03-20T10:12:37Z</time>
      </trkpt>
      <trkpt lat="45.63247" lon="4.84211">
        <ele>196.6</ele>
        <time>2016-03-20T10:12:39Z</time>
      </trkpt>
      <trkpt lat="45.63248" lon="4.84226">
        <ele>194.8</ele>
        <time>2016-03-20T10:12:41Z</time>
      </trkpt>
      <trkpt lat="45.63247" lon="4.84239">
        <ele>194.5</ele>
        <time>2016-03-20T10:12:43Z</time>
      </trkpt>
      <trkpt lat="45.63246" lon="4.84251">
        <ele>195</ele>
        <time>2016-03-20T10:12:45Z</time>
      </trkpt>
      <trkpt lat="45.63244" lon="4.84261">
        <ele>195.4</ele>
        <time>2016-03-20T10:12:47Z</time>
      </trkpt>
      <trkpt lat="45.63241" lon="4.84271">
        <ele>195.5</ele>
        <time>2016-03-20T10:12:49Z</time>
      </trkpt>
      <trkpt lat="45.63238" lon="4.8428">
        <ele>195.5</ele>
        <time>2016-03-20T10:12:51Z</time>
      </trkpt>
      <trkpt lat="45.63233" lon="4.84289">
        <ele>195.5</ele>
        <time>2016-03-20T10:12:53Z</time>
      </trkpt>
      <trkpt lat="45.63228" lon="4.84298">
        <ele>194.7</ele>
        <time>2016-03-20T10:12:55Z</time>
      </trkpt>
      <trkpt lat="45.63221" lon="4.84308">
        <ele>194.3</ele>
        <time>2016-03-20T10:12:57Z</time>
      </trkpt>
      <trkpt lat="45.63213" lon="4.84321">
        <ele>192.8</ele>
        <time>2016-03-20T10:12:59Z</time>
      </trkpt>
      <trkpt lat="45.63206" lon="4.84338">
        <ele>190.3</ele>
        <time>2016-03-20T10:13:01Z</time>
      </trkpt>
      <trkpt lat="45.63202" lon="4.84357">
        <ele>189.3</ele>
        <time>2016-03-20T10:13:03Z</time>
      </trkpt>
      <trkpt lat="45.632" lon="4.84375">
        <ele>187.5</ele>
        <time>2016-03-20T10:13:05Z</time>
      </trkpt>
      <trkpt lat="45.632" lon="4.84392">
        <ele>186.1</ele>
        <time>2016-03-20T10:13:07Z</time>
      </trkpt>
      <trkpt lat="45.632" lon="4.84408">
        <ele>184.8</ele>
        <time>2016-03-20T10:13:09Z</time>
      </trkpt>
      <trkpt lat="45.63201" lon="4.84425">
        <ele>183.9</ele>
        <time>2016-03-20T10:13:11Z</time>
      </trkpt>
      <trkpt lat="45.63203" lon="4.8444">
        <ele>182.6</ele>
        <time>2016-03-20T10:13:13Z</time>
      </trkpt>
      <trkpt lat="45.63207" lon="4.84455">
        <ele>181.3</ele>
        <time>2016-03-20T10:13:15Z</time>
      </trkpt>
      <trkpt lat="45.6321" lon="4.8447">
        <ele>180.7</ele>
        <time>2016-03-20T10:13:17Z</time>
      </trkpt>
      <trkpt lat="45.63215" lon="4.84483">
        <ele>179</ele>
        <time>2016-03-20T10:13:19Z</time>
      </trkpt>
      <trkpt lat="45.6322" lon="4.84497">
        <ele>177.6</ele>
        <time>2016-03-20T10:13:21Z</time>
      </trkpt>
      <trkpt lat="45.63225" lon="4.8451">
        <ele>176.6</ele>
        <time>2016-03-20T10:13:23Z</time>
      </trkpt>
      <trkpt lat="45.63231" lon="4.84521">
        <ele>176.7</ele>
        <time>2016-03-20T10:13:25Z</time>
      </trkpt>
      <trkpt lat="45.63237" lon="4.84533">
        <ele>176.9</ele>
        <time>2016-03-20T10:13:27Z</time>
      </trkpt>
      <trkpt lat="45.63243" lon="4.84545">
        <ele>176.4</ele>
        <time>2016-03-20T10:13:29Z</time>
      </trkpt>
      <trkpt lat="45.63249" lon="4.84558">
        <ele>176</ele>
        <time>2016-03-20T10:13:31Z</time>
      </trkpt>
      <trkpt lat="45.63254" lon="4.84571">
        <ele>175.8</ele>
        <time>2016-03-20T10:13:33Z</time>
      </trkpt>
      <trkpt lat="45.6326" lon="4.84584">
        <ele>175.2</ele>
        <time>2016-03-20T10:13:35Z</time>
      </trkpt>
      <trkpt lat="45.63266" lon="4.84596">
        <ele>174.7</ele>
        <time>2016-03-20T10:13:37Z</time>
      </trkpt>
      <trkpt lat="45.63273" lon="4.84608">
        <ele>174.3</ele>
        <time>2016-03-20T10:13:39Z</time>
      </trkpt>
      <trkpt lat="45.63279" lon="4.84621">
        <ele>173.7</ele>
        <time>2016-03-20T10:13:41Z</time>
      </trkpt>
      <trkpt lat="45.63285" lon="4.84635">
        <ele>172.7</ele>
        <time>2016-03-20T10:13:43Z</time>
      </trkpt>
      <trkpt lat="45.63291" lon="4.84649">
        <ele>172</ele>
        <time>2016-03-20T10:13:45Z</time>
      </trkpt>
      <trkpt lat="45.63297" lon="4.84663">
        <ele>172.4</ele>
        <time>2016-03-20T10:13:47Z</time>
      </trkpt>
      <trkpt lat="45.63303" lon="4.84677">
        <ele>172.9</ele>
        <time>2016-03-20T10:13:49Z</time>
      </trkpt>
      <trkpt lat="45.63309" lon="4.84692">
        <ele>173.3</ele>
        <time>2016-03-20T10:13:51Z</time>
      </trkpt>
      <trkpt lat="45.63314" lon="4.84706">
        <ele>174.6</ele>
        <time>2016-03-20T10:13:53Z</time>
      </trkpt>
      <trkpt lat="45.63319" lon="4.84721">
        <ele>175.1</ele>
        <time>2016-03-20T10:13:55Z</time>
      </trkpt>
      <trkpt lat="45.63325" lon="4.84737">
        <ele>174.9</ele>
        <time>2016-03-20T10:13:57Z</time>
      </trkpt>
      <trkpt lat="45.63332" lon="4.84752">
        <ele>174.9</ele>
        <time>2016-03-20T10:13:59Z</time>
      </trkpt>
      <trkpt lat="45.6334" lon="4.84767">
        <ele>175.3</ele>
        <time>2016-03-20T10:14:01Z</time>
      </trkpt>
      <trkpt lat="45.63347" lon="4.84781">
        <ele>175.6</ele>
        <time>2016-03-20T10:14:03Z</time>
      </trkpt>
      <trkpt lat="45.63354" lon="4.84795">
        <ele>176</ele>
        <time>2016-03-20T10:14:05Z</time>
      </trkpt>
      <trkpt lat="45.63361" lon="4.84808">
        <ele>176</ele>
        <time>2016-03-20T10:14:07Z</time>
      </trkpt>
      <trkpt lat="45.63366" lon="4.84822">
        <ele>175.8</ele>
        <time>2016-03-20T10:14:09Z</time>
      </trkpt>
      <trkpt lat="45.63373" lon="4.84833">
        <ele>175.2</ele>
        <time>2016-03-20T10:14:11Z</time>
      </trkpt>
      <trkpt lat="45.63378" lon="4.84844">
        <ele>174.7</ele>
        <time>2016-03-20T10:14:13Z</time>
      </trkpt>
      <trkpt lat="45.63384" lon="4.84854">
        <ele>174.3</ele>
        <time>2016-03-20T10:14:15Z</time>
      </trkpt>
      <trkpt lat="45.63389" lon="4.84864">
        <ele>174.1</ele>
        <time>2016-03-20T10:14:17Z</time>
      </trkpt>
      <trkpt lat="45.63392" lon="4.84875">
        <ele>174</ele>
        <time>2016-03-20T10:14:19Z</time>
      </trkpt>
      <trkpt lat="45.63397" lon="4.84885">
        <ele>174</ele>
        <time>2016-03-20T10:14:21Z</time>
      </trkpt>
      <trkpt lat="45.634" lon="4.84894">
        <ele>174</ele>
        <time>2016-03-20T10:14:23Z</time>
      </trkpt>
      <trkpt lat="45.63402" lon="4.84903">
        <ele>174</ele>
        <time>2016-03-20T10:14:25Z</time>
      </trkpt>
      <trkpt lat="45.63405" lon="4.84913">
        <ele>174</ele>
        <time>2016-03-20T10:14:27Z</time>
      </trkpt>
      <trkpt lat="45.63406" lon="4.84923">
        <ele>174</ele>
        <time>2016-03-20T10:14:29Z</time>
      </trkpt>
      <trkpt lat="45.63405" lon="4.84934">
        <ele>174</ele>
        <time>2016-03-20T10:14:31Z</time>
      </trkpt>
      <trkpt lat="45.634" lon="4.84943">
        <ele>174</ele>
        <time>2016-03-20T10:14:33Z</time>
      </trkpt>
      <trkpt lat="45.63393" lon="4.84946">
        <ele>174.3</ele>
        <time>2016-03-20T10:14:35Z</time>
      </trkpt>
      <trkpt lat="45.63385" lon="4.84946">
        <ele>174.5</ele>
        <time>2016-03-20T10:14:37Z</time>
      </trkpt>
      <trkpt lat="45.63377" lon="4.84945">
        <ele>174.8</ele>
        <time>2016-03-20T10:14:39Z</time>
      </trkpt>
      <trkpt lat="45.63369" lon="4.84944">
        <ele>175.2</ele>
        <time>2016-03-20T10:14:41Z</time>
      </trkpt>
      <trkpt lat="45.6336" lon="4.84941">
        <ele>175.7</ele>
        <time>2016-03-20T10:14:43Z</time>
      </trkpt>
      <trkpt lat="45.63351" lon="4.84939">
        <ele>176</ele>
        <time>2016-03-20T10:14:45Z</time>
      </trkpt>
      <trkpt lat="45.63342" lon="4.84937">
        <ele>176.4</ele>
        <time>2016-03-20T10:14:47Z</time>
      </trkpt>
      <trkpt lat="45.63334" lon="4.84935">
        <ele>176.7</ele>
        <time>2016-03-20T10:14:49Z</time>
      </trkpt>
      <trkpt lat="45.63325" lon="4.84933">
        <ele>177</ele>
        <time>2016-03-20T10:14:51Z</time>
      </trkpt>
      <trkpt lat="45.63317" lon="4.84931">
        <ele>177.5</ele>
        <time>2016-03-20T10:14:53Z</time>
      </trkpt>
      <trkpt lat="45.6331" lon="4.8493">
        <ele>178</ele>
        <time>2016-03-20T10:14:55Z</time>
      </trkpt>
      <trkpt lat="45.63302" lon="4.84926">
        <ele>178</ele>
        <time>2016-03-20T10:14:57Z</time>
      </trkpt>
      <trkpt lat="45.63295" lon="4.84924">
        <ele>178</ele>
        <time>2016-03-20T10:14:59Z</time>
      </trkpt>
      <trkpt lat="45.63289" lon="4.84926">
        <ele>178</ele>
        <time>2016-03-20T10:15:01Z</time>
      </trkpt>
      <trkpt lat="45.63284" lon="4.84928">
        <ele>178</ele>
        <time>2016-03-20T10:15:03Z</time>
      </trkpt>
      <trkpt lat="45.63278" lon="4.84933">
        <ele>178</ele>
        <time>2016-03-20T10:15:05Z</time>
      </trkpt>
      <trkpt lat="45.63273" lon="4.84939">
        <ele>178</ele>
        <time>2016-03-20T10:15:07Z</time>
      </trkpt>
      <trkpt lat="45.63267" lon="4.84944">
        <ele>178</ele>
        <time>2016-03-20T10:15:09Z</time>
      </trkpt>
      <trkpt lat="45.63263" lon="4.84942">
        <ele>178</ele>
        <time>2016-03-20T10:15:11Z</time>
      </trkpt>
      <trkpt lat="45.63259" lon="4.84934">
        <ele>177.9</ele>
        <time>2016-03-20T10:15:13Z</time>
      </trkpt>
      <trkpt lat="45.63255" lon="4.84926">
        <ele>177.7</ele>
        <time>2016-03-20T10:15:15Z</time>
      </trkpt>
      <trkpt lat="45.6325" lon="4.84917">
        <ele>177.6</ele>
        <time>2016-03-20T10:15:17Z</time>
      </trkpt>
      <trkpt lat="45.63246" lon="4.84907">
        <ele>177.5</ele>
        <time>2016-03-20T10:15:19Z</time>
      </trkpt>
      <trkpt lat="45.63242" lon="4.84896">
        <ele>177.4</ele>
        <time>2016-03-20T10:15:21Z</time>
      </trkpt>
      <trkpt lat="45.63238" lon="4.84885">
        <ele>177.3</ele>
        <time>2016-03-20T10:15:23Z</time>
      </trkpt>
      <trkpt lat="45.63234" lon="4.84874">
        <ele>177.2</ele>
        <time>2016-03-20T10:15:25Z</time>
      </trkpt>
      <trkpt lat="45.6323" lon="4.84863">
        <ele>177.1</ele>
        <time>2016-03-20T10:15:27Z</time>
      </trkpt>
      <trkpt lat="45.63226" lon="4.84853">
        <ele>177</ele>
        <time>2016-03-20T10:15:29Z</time>
      </trkpt>
      <trkpt lat="45.63222" lon="4.84842">
        <ele>176.8</ele>
        <time>2016-03-20T10:15:31Z</time>
      </trkpt>
      <trkpt lat="45.63218" lon="4.8483">
        <ele>176.7</ele>
        <time>2016-03-20T10:15:33Z</time>
      </trkpt>
      <trkpt lat="45.63213" lon="4.84818">
        <ele>176.6</ele>
        <time>2016-03-20T10:15:35Z</time>
      </trkpt>
      <trkpt lat="45.63209" lon="4.84807">
        <ele>176.5</ele>
        <time>2016-03-20T10:15:37Z</time>
      </trkpt>
      <trkpt lat="45.63204" lon="4.84795">
        <ele>176.4</ele>
        <time>2016-03-20T10:15:39Z</time>
      </trkpt>
      <trkpt lat="45.632" lon="4.84784">
        <ele>176.3</ele>
        <time>2016-03-20T10:15:41Z</time>
      </trkpt>
      <trkpt lat="45.63196" lon="4.84772">
        <ele>176.2</ele>
        <time>2016-03-20T10:15:43Z</time>
      </trkpt>
      <trkpt lat="45.63192" lon="4.84762">
        <ele>176.1</ele>
        <time>2016-03-20T10:15:45Z</time>
      </trkpt>
      <trkpt lat="45.63187" lon="4.84757">
        <ele>176</ele>
        <time>2016-03-20T10:15:47Z</time>
      </trkpt>
      <trkpt lat="45.63182" lon="4.84759">
        <ele>176</ele>
        <time>2016-03-20T10:15:49Z</time>
      </trkpt>
      <trkpt lat="45.63177" lon="4.84758">
        <ele>176.2</ele>
        <time>2016-03-20T10:15:51Z</time>
      </trkpt>
      <trkpt lat="45.63171" lon="4.84755">
        <ele>177</ele>
        <time>2016-03-20T10:15:53Z</time>
      </trkpt>
      <trkpt lat="45.63165" lon="4.84752">
        <ele>177.6</ele>
        <time>2016-03-20T10:15:55Z</time>
      </trkpt>
      <trkpt lat="45.6316" lon="4.8475">
        <ele>178.4</ele>
        <time>2016-03-20T10:15:57Z</time>
      </trkpt>
      <trkpt lat="45.63155" lon="4.84748">
        <ele>179.2</ele>
        <time>2016-03-20T10:15:59Z</time>
      </trkpt>
      <trkpt lat="45.63149" lon="4.84745">
        <ele>179.9</ele>
        <time>2016-03-20T10:16:01Z</time>
      </trkpt>
      <trkpt lat="45.63141" lon="4.84741">
        <ele>181.2</ele>
        <time>2016-03-20T10:16:03Z</time>
      </trkpt>
      <trkpt lat="45.63134" lon="4.84737">
        <ele>181.7</ele>
        <time>2016-03-20T10:16:05Z</time>
      </trkpt>
      <trkpt lat="45.63126" lon="4.84733">
        <ele>182.6</ele>
        <time>2016-03-20T10:16:07Z</time>
      </trkpt>
      <trkpt lat="45.63118" lon="4.84728">
        <ele>183.2</ele>
        <time>2016-03-20T10:16:09Z</time>
      </trkpt>
      <trkpt lat="45.6311" lon="4.84723">
        <ele>183.6</ele>
        <time>2016-03-20T10:16:11Z</time>
      </trkpt>
      <trkpt lat="45.63102" lon="4.84717">
        <ele>183.8</ele>
        <time>2016-03-20T10:16:13Z</time>
      </trkpt>
      <trkpt lat="45.63096" lon="4.84712">
        <ele>183.9</ele>
        <time>2016-03-20T10:16:15Z</time>
      </trkpt>
      <trkpt lat="45.63089" lon="4.84707">
        <ele>184.1</ele>
        <time>2016-03-20T10:16:17Z</time>
      </trkpt>
      <trkpt lat="45.63082" lon="4.84703">
        <ele>184.5</ele>
        <time>2016-03-20T10:16:19Z</time>
      </trkpt>
      <trkpt lat="45.63076" lon="4.84698">
        <ele>185.3</ele>
        <time>2016-03-20T10:16:21Z</time>
      </trkpt>
      <trkpt lat="45.6307" lon="4.84695">
        <ele>185.9</ele>
        <time>2016-03-20T10:16:23Z</time>
      </trkpt>
      <trkpt lat="45.63065" lon="4.84692">
        <ele>186</ele>
        <time>2016-03-20T10:16:25Z</time>
      </trkpt>
      <trkpt lat="45.6306" lon="4.84692">
        <ele>186</ele>
        <time>2016-03-20T10:16:27Z</time>
      </trkpt>
      <trkpt lat="45.63056" lon="4.84693">
        <ele>186</ele>
        <time>2016-03-20T10:16:29Z</time>
      </trkpt>
      <trkpt lat="45.63052" lon="4.84691">
        <ele>186</ele>
        <time>2016-03-20T10:16:31Z</time>
      </trkpt>
      <trkpt lat="45.63049" lon="4.84686">
        <ele>186</ele>
        <time>2016-03-20T10:16:33Z</time>
      </trkpt>
      <trkpt lat="45.63046" lon="4.8468">
        <ele>186.1</ele>
        <time>2016-03-20T10:16:35Z</time>
      </trkpt>
      <trkpt lat="45.63044" lon="4.84673">
        <ele>186.3</ele>
        <time>2016-03-20T10:16:37Z</time>
      </trkpt>
      <trkpt lat="45.63042" lon="4.84667">
        <ele>186.4</ele>
        <time>2016-03-20T10:16:39Z</time>
      </trkpt>
      <trkpt lat="45.6304" lon="4.84661">
        <ele>186.6</ele>
        <time>2016-03-20T10:16:41Z</time>
      </trkpt>
      <trkpt lat="45.63038" lon="4.84654">
        <ele>186.7</ele>
        <time>2016-03-20T10:16:43Z</time>
      </trkpt>
      <trkpt lat="45.63036" lon="4.84648">
        <ele>186.8</ele>
        <time>2016-03-20T10:16:45Z</time>
      </trkpt>
      <trkpt lat="45.63035" lon="4.84642">
        <ele>186.9</ele>
        <time>2016-03-20T10:16:47Z</time>
      </trkpt>
      <trkpt lat="45.63033" lon="4.84636">
        <ele>187</ele>
        <time>2016-03-20T10:16:49Z</time>
      </trkpt>
      <trkpt lat="45.63031" lon="4.84631">
        <ele>187.3</ele>
        <time>2016-03-20T10:16:51Z</time>
      </trkpt>
      <trkpt lat="45.6303" lon="4.84625">
        <ele>187.6</ele>
        <time>2016-03-20T10:16:53Z</time>
      </trkpt>
      <trkpt lat="45.63028" lon="4.8462">
        <ele>188</ele>
        <time>2016-03-20T10:16:55Z</time>
      </trkpt>
      <trkpt lat="45.63025" lon="4.84614">
        <ele>188.6</ele>
        <time>2016-03-20T10:16:57Z</time>
      </trkpt>
      <trkpt lat="45.63023" lon="4.84609">
        <ele>189</ele>
        <time>2016-03-20T10:16:59Z</time>
      </trkpt>
      <trkpt lat="45.63022" lon="4.84604">
        <ele>189.3</ele>
        <time>2016-03-20T10:17:01Z</time>
      </trkpt>
      <trkpt lat="45.6302" lon="4.84598">
        <ele>189.7</ele>
        <time>2016-03-20T10:17:03Z</time>
      </trkpt>
      <trkpt lat="45.63018" lon="4.84593">
        <ele>190.1</ele>
        <time>2016-03-20T10:17:05Z</time>
      </trkpt>
      <trkpt lat="45.63017" lon="4.84589">
        <ele>190.6</ele>
        <time>2016-03-20T10:17:07Z</time>
      </trkpt>
      <trkpt lat="45.63015" lon="4.84584">
        <ele>191.1</ele>
        <time>2016-03-20T10:17:09Z</time>
      </trkpt>
      <trkpt lat="45.63013" lon="4.84579">
        <ele>191.6</ele>
        <time>2016-03-20T10:17:11Z</time>
      </trkpt>
      <trkpt lat="45.63011" lon="4.84575">
        <ele>192.1</ele>
        <time>2016-03-20T10:17:13Z</time>
      </trkpt>
      <trkpt lat="45.63009" lon="4.84571">
        <ele>192.6</ele>
        <time>2016-03-20T10:17:15Z</time>
      </trkpt>
      <trkpt lat="45.63007" lon="4.84567">
        <ele>193.2</ele>
        <time>2016-03-20T10:17:17Z</time>
      </trkpt>
      <trkpt lat="45.63004" lon="4.84563">
        <ele>193.7</ele>
        <time>2016-03-20T10:17:19Z</time>
      </trkpt>
      <trkpt lat="45.63002" lon="4.84559">
        <ele>194.1</ele>
        <time>2016-03-20T10:17:21Z</time>
      </trkpt>
      <trkpt lat="45.63001" lon="4.84556">
        <ele>194.5</ele>
        <time>2016-03-20T10:17:23Z</time>
      </trkpt>
      <trkpt lat="45.62998" lon="4.84554">
        <ele>194.9</ele>
        <time>2016-03-20T10:17:25Z</time>
      </trkpt>
      <trkpt lat="45.62996" lon="4.84551">
        <ele>195.3</ele>
        <time>2016-03-20T10:17:27Z</time>
      </trkpt>
      <trkpt lat="45.62993" lon="4.84549">
        <ele>195.9</ele>
        <time>2016-03-20T10:17:29Z</time>
      </trkpt>
      <trkpt lat="45.6299" lon="4.84546">
        <ele>196.7</ele>
        <time>2016-03-20T10:17:31Z</time>
      </trkpt>
      <trkpt lat="45.62987" lon="4.84544">
        <ele>197.6</ele>
        <time>2016-03-20T10:17:33Z</time>
      </trkpt>
      <trkpt lat="45.62985" lon="4.84542">
        <ele>198.1</ele>
        <time>2016-03-20T10:17:35Z</time>
      </trkpt>
      <trkpt lat="45.62983" lon="4.84539">
        <ele>198.6</ele>
        <time>2016-03-20T10:17:37Z</time>
      </trkpt>
      <trkpt lat="45.6298" lon="4.84537">
        <ele>199.1</ele>
        <time>2016-03-20T10:17:39Z</time>
      </trkpt>
      <trkpt lat="45.62978" lon="4.84535">
        <ele>199.6</ele>
        <time>2016-03-20T10:17:41Z</time>
      </trkpt>
      <trkpt lat="45.62975" lon="4.84533">
        <ele>200</ele>
        <time>2016-03-20T10:17:43Z</time>
      </trkpt>
      <trkpt lat="45.62973" lon="4.84531">
        <ele>200.4</ele>
        <time>2016-03-20T10:17:45Z</time>
      </trkpt>
      <trkpt lat="45.6297" lon="4.84528">
        <ele>200.7</ele>
        <time>2016-03-20T10:17:47Z</time>
      </trkpt>
      <trkpt lat="45.62967" lon="4.84526">
        <ele>201</ele>
        <time>2016-03-20T10:17:49Z</time>
      </trkpt>
      <trkpt lat="45.62964" lon="4.84524">
        <ele>201.5</ele>
        <time>2016-03-20T10:17:51Z</time>
      </trkpt>
      <trkpt lat="45.62962" lon="4.84523">
        <ele>202.1</ele>
        <time>2016-03-20T10:17:53Z</time>
      </trkpt>
      <trkpt lat="45.62959" lon="4.84521">
        <ele>202.6</ele>
        <time>2016-03-20T10:17:55Z</time>
      </trkpt>
      <trkpt lat="45.62956" lon="4.84519">
        <ele>203.1</ele>
        <time>2016-03-20T10:17:57Z</time>
      </trkpt>
      <trkpt lat="45.62953" lon="4.84518">
        <ele>203.6</ele>
        <time>2016-03-20T10:17:59Z</time>
      </trkpt>
      <trkpt lat="45.6295" lon="4.84517">
        <ele>204.1</ele>
        <time>2016-03-20T10:18:01Z</time>
      </trkpt>
      <trkpt lat="45.62948" lon="4.84515">
        <ele>204.5</ele>
        <time>2016-03-20T10:18:03Z</time>
      </trkpt>
      <trkpt lat="45.62945" lon="4.84514">
        <ele>204.8</ele>
        <time>2016-03-20T10:18:05Z</time>
      </trkpt>
      <trkpt lat="45.62942" lon="4.84513">
        <ele>205.2</ele>
        <time>2016-03-20T10:18:07Z</time>
      </trkpt>
      <trkpt lat="45.62939" lon="4.84511">
        <ele>205.6</ele>
        <time>2016-03-20T10:18:09Z</time>
      </trkpt>
      <trkpt lat="45.62936" lon="4.8451">
        <ele>206</ele>
        <time>2016-03-20T10:18:11Z</time>
      </trkpt>
      <trkpt lat="45.62933" lon="4.84508">
        <ele>206.4</ele>
        <time>2016-03-20T10:18:13Z</time>
      </trkpt>
      <trkpt lat="45.62931" lon="4.84507">
        <ele>206.6</ele>
        <time>2016-03-20T10:18:15Z</time>
      </trkpt>
      <trkpt lat="45.62928" lon="4.84505">
        <ele>206.8</ele>
        <time>2016-03-20T10:18:17Z</time>
      </trkpt>
      <trkpt lat="45.62925" lon="4.84504">
        <ele>206.9</ele>
        <time>2016-03-20T10:18:19Z</time>
      </trkpt>
      <trkpt lat="45.62922" lon="4.84503">
        <ele>207.2</ele>
        <time>2016-03-20T10:18:21Z</time>
      </trkpt>
      <trkpt lat="45.62919" lon="4.84501">
        <ele>207.4</ele>
        <time>2016-03-20T10:18:23Z</time>
      </trkpt>
      <trkpt lat="45.62915" lon="4.845">
        <ele>207.5</ele>
        <time>2016-03-20T10:18:25Z</time>
      </trkpt>
      <trkpt lat="45.62912" lon="4.84498">
        <ele>207.6</ele>
        <time>2016-03-20T10:18:27Z</time>
      </trkpt>
      <trkpt lat="45.62908" lon="4.84496">
        <ele>207.7</ele>
        <time>2016-03-20T10:18:29Z</time>
      </trkpt>
      <trkpt lat="45.62905" lon="4.84495">
        <ele>207.8</ele>
        <time>2016-03-20T10:18:31Z</time>
      </trkpt>
      <trkpt lat="45.62902" lon="4.84493">
        <ele>207.9</ele>
        <time>2016-03-20T10:18:33Z</time>
      </trkpt>
      <trkpt lat="45.62898" lon="4.84491">
        <ele>208.1</ele>
        <time>2016-03-20T10:18:35Z</time>
      </trkpt>
      <trkpt lat="45.62895" lon="4.8449">
        <ele>208.3</ele>
        <time>2016-03-20T10:18:37Z</time>
      </trkpt>
      <trkpt lat="45.62891" lon="4.84488">
        <ele>208.6</ele>
        <time>2016-03-20T10:18:39Z</time>
      </trkpt>
      <trkpt lat="45.62888" lon="4.84485">
        <ele>208.7</ele>
        <time>2016-03-20T10:18:41Z</time>
      </trkpt>
      <trkpt lat="45.62884" lon="4.84483">
        <ele>208.9</ele>
        <time>2016-03-20T10:18:43Z</time>
      </trkpt>
      <trkpt lat="45.6288" lon="4.84481">
        <ele>209.3</ele>
        <time>2016-03-20T10:18:45Z</time>
      </trkpt>
      <trkpt lat="45.62875" lon="4.84479">
        <ele>209.7</ele>
        <time>2016-03-20T10:18:47Z</time>
      </trkpt>
      <trkpt lat="45.62872" lon="4.84477">
        <ele>209.6</ele>
        <time>2016-03-20T10:18:49Z</time>
      </trkpt>
      <trkpt lat="45.62867" lon="4.84474">
        <ele>209.7</ele>
        <time>2016-03-20T10:18:51Z</time>
      </trkpt>
      <trkpt lat="45.62864" lon="4.84472">
        <ele>209.9</ele>
        <time>2016-03-20T10:18:53Z</time>
      </trkpt>
      <trkpt lat="45.6286" lon="4.8447">
        <ele>210.2</ele>
        <time>2016-03-20T10:18:55Z</time>
      </trkpt>
      <trkpt lat="45.62856" lon="4.84467">
        <ele>210.3</ele>
        <time>2016-03-20T10:18:57Z</time>
      </trkpt>
      <trkpt lat="45.62853" lon="4.84465">
        <ele>210.5</ele>
        <time>2016-03-20T10:18:59Z</time>
      </trkpt>
      <trkpt lat="45.62848" lon="4.84462">
        <ele>210.8</ele>
        <time>2016-03-20T10:19:01Z</time>
      </trkpt>
      <trkpt lat="45.62844" lon="4.8446">
        <ele>211.1</ele>
        <time>2016-03-20T10:19:03Z</time>
      </trkpt>
      <trkpt lat="45.62841" lon="4.84457">
        <ele>211.1</ele>
        <time>2016-03-20T10:19:05Z</time>
      </trkpt>
      <trkpt lat="45.62837" lon="4.84455">
        <ele>211.2</ele>
        <time>2016-03-20T10:19:07Z</time>
      </trkpt>
      <trkpt lat="45.62833" lon="4.84452">
        <ele>211.2</ele>
        <time>2016-03-20T10:19:09Z</time>
      </trkpt>
      <trkpt lat="45.62829" lon="4.8445">
        <ele>211.2</ele>
        <time>2016-03-20T10:19:11Z</time>
      </trkpt>
      <trkpt lat="45.62825" lon="4.84447">
        <ele>211</ele>
        <time>2016-03-20T10:19:13Z</time>
      </trkpt>
      <trkpt lat="45.62821" lon="4.84444">
        <ele>211.3</ele>
        <time>2016-03-20T10:19:15Z</time>
      </trkpt>
      <trkpt lat="45.62817" lon="4.84441">
        <ele>211.8</ele>
        <time>2016-03-20T10:19:17Z</time>
      </trkpt>
      <trkpt lat="45.62813" lon="4.84438">
        <ele>212.2</ele>
        <time>2016-03-20T10:19:19Z</time>
      </trkpt>
      <trkpt lat="45.62809" lon="4.84436">
        <ele>212.5</ele>
        <time>2016-03-20T10:19:21Z</time>
      </trkpt>
      <trkpt lat="45.62806" lon="4.84433">
        <ele>213</ele>
        <time>2016-03-20T10:19:23Z</time>
      </trkpt>
      <trkpt lat="45.62802" lon="4.84431">
        <ele>213.5</ele>
        <time>2016-03-20T10:19:25Z</time>
      </trkpt>
      <trkpt lat="45.62798" lon="4.84429">
        <ele>214</ele>
        <time>2016-03-20T10:19:27Z</time>
      </trkpt>
      <trkpt lat="45.62794" lon="4.84427">
        <ele>214.5</ele>
        <time>2016-03-20T10:19:29Z</time>
      </trkpt>
      <trkpt lat="45.6279" lon="4.84426">
        <ele>215.1</ele>
        <time>2016-03-20T10:19:31Z</time>
      </trkpt>
      <trkpt lat="45.62786" lon="4.84425">
        <ele>215.8</ele>
        <time>2016-03-20T10:19:33Z</time>
      </trkpt>
      <trkpt lat="45.62782" lon="4.84425">
        <ele>216.3</ele>
        <time>2016-03-20T10:19:35Z</time>
      </trkpt>
      <trkpt lat="45.62777" lon="4.84425">
        <ele>216.7</ele>
        <time>2016-03-20T10:19:37Z</time>
      </trkpt>
      <trkpt lat="45.62773" lon="4.84425">
        <ele>217.3</ele>
        <time>2016-03-20T10:19:39Z</time>
      </trkpt>
      <trkpt lat="45.62769" lon="4.84425">
        <ele>217.7</ele>
        <time>2016-03-20T10:19:41Z</time>
      </trkpt>
      <trkpt lat="45.62765" lon="4.84425">
        <ele>218.3</ele>
        <time>2016-03-20T10:19:43Z</time>
      </trkpt>
      <trkpt lat="45.62761" lon="4.84425">
        <ele>218.8</ele>
        <time>2016-03-20T10:19:45Z</time>
      </trkpt>
      <trkpt lat="45.62757" lon="4.84425">
        <ele>219.2</ele>
        <time>2016-03-20T10:19:47Z</time>
      </trkpt>
      <trkpt lat="45.62753" lon="4.84425">
        <ele>219.6</ele>
        <time>2016-03-20T10:19:49Z</time>
      </trkpt>
      <trkpt lat="45.62749" lon="4.84425">
        <ele>219.9</ele>
        <time>2016-03-20T10:19:51Z</time>
      </trkpt>
      <trkpt lat="45.62745" lon="4.84426">
        <ele>220.1</ele>
        <time>2016-03-20T10:19:53Z</time>
      </trkpt>
      <trkpt lat="45.62741" lon="4.84426">
        <ele>220.4</ele>
        <time>2016-03-20T10:19:55Z</time>
      </trkpt>
      <trkpt lat="45.62738" lon="4.84426">
        <ele>220.7</ele>
        <time>2016-03-20T10:19:57Z</time>
      </trkpt>
      <trkpt lat="45.62734" lon="4.84425">
        <ele>221</ele>
        <time>2016-03-20T10:19:59Z</time>
      </trkpt>
      <trkpt lat="45.62731" lon="4.84426">
        <ele>221.2</ele>
        <time>2016-03-20T10:20:01Z</time>
      </trkpt>
      <trkpt lat="45.62727" lon="4.84425">
        <ele>221.5</ele>
        <time>2016-03-20T10:20:03Z</time>
      </trkpt>
      <trkpt lat="45.62725" lon="4.84425">
        <ele>221.7</ele>
        <time>2016-03-20T10:20:05Z</time>
      </trkpt>
      <trkpt lat="45.62722" lon="4.84424">
        <ele>221.8</ele>
        <time>2016-03-20T10:20:07Z</time>
      </trkpt>
      <trkpt lat="45.62719" lon="4.84423">
        <ele>222</ele>
        <time>2016-03-20T10:20:09Z</time>
      </trkpt>
      <trkpt lat="45.62717" lon="4.84421">
        <ele>222</ele>
        <time>2016-03-20T10:20:11Z</time>
      </trkpt>
      <trkpt lat="45.62714" lon="4.84418">
        <ele>222.1</ele>
        <time>2016-03-20T10:20:13Z</time>
      </trkpt>
      <trkpt lat="45.62712" lon="4.84415">
        <ele>222</ele>
        <time>2016-03-20T10:20:15Z</time>
      </trkpt>
      <trkpt lat="45.62709" lon="4.84412">
        <ele>221.9</ele>
        <time>2016-03-20T10:20:17Z</time>
      </trkpt>
      <trkpt lat="45.62705" lon="4.8441">
        <ele>222</ele>
        <time>2016-03-20T10:20:19Z</time>
      </trkpt>
      <trkpt lat="45.62701" lon="4.84408">
        <ele>222.1</ele>
        <time>2016-03-20T10:20:21Z</time>
      </trkpt>
      <trkpt lat="45.62698" lon="4.84406">
        <ele>222.2</ele>
        <time>2016-03-20T10:20:23Z</time>
      </trkpt>
      <trkpt lat="45.62694" lon="4.84405">
        <ele>222.2</ele>
        <time>2016-03-20T10:20:25Z</time>
      </trkpt>
      <trkpt lat="45.6269" lon="4.84404">
        <ele>222.3</ele>
        <time>2016-03-20T10:20:27Z</time>
      </trkpt>
      <trkpt lat="45.62685" lon="4.84404">
        <ele>222.5</ele>
        <time>2016-03-20T10:20:29Z</time>
      </trkpt>
      <trkpt lat="45.6268" lon="4.84404">
        <ele>222.7</ele>
        <time>2016-03-20T10:20:31Z</time>
      </trkpt>
      <trkpt lat="45.62675" lon="4.84404">
        <ele>222.7</ele>
        <time>2016-03-20T10:20:33Z</time>
      </trkpt>
      <trkpt lat="45.6267" lon="4.84405">
        <ele>222.6</ele>
        <time>2016-03-20T10:20:35Z</time>
      </trkpt>
      <trkpt lat="45.62665" lon="4.84405">
        <ele>222.5</ele>
        <time>2016-03-20T10:20:37Z</time>
      </trkpt>
      <trkpt lat="45.62661" lon="4.84406">
        <ele>222.5</ele>
        <time>2016-03-20T10:20:39Z</time>
      </trkpt>
      <trkpt lat="45.62656" lon="4.84407">
        <ele>222.5</ele>
        <time>2016-03-20T10:20:41Z</time>
      </trkpt>
      <trkpt lat="45.62651" lon="4.84407">
        <ele>222.5</ele>
        <time>2016-03-20T10:20:43Z</time>
      </trkpt>
      <trkpt lat="45.62646" lon="4.84408">
        <ele>222.3</ele>
        <time>2016-03-20T10:20:45Z</time>
      </trkpt>
      <trkpt lat="45.62641" lon="4.8441">
        <ele>222.2</ele>
        <time>2016-03-20T10:20:47Z</time>
      </trkpt>
      <trkpt lat="45.62635" lon="4.84411">
        <ele>221.8</ele>
        <time>2016-03-20T10:20:49Z</time>
      </trkpt>
      <trkpt lat="45.6263" lon="4.84413">
        <ele>221.5</ele>
        <time>2016-03-20T10:20:51Z</time>
      </trkpt>
      <trkpt lat="45.62624" lon="4.84414">
        <ele>221.1</ele>
        <time>2016-03-20T10:20:53Z</time>
      </trkpt>
      <trkpt lat="45.62619" lon="4.84415">
        <ele>220.9</ele>
        <time>2016-03-20T10:20:55Z</time>
      </trkpt>
      <trkpt lat="45.62614" lon="4.84417">
        <ele>220.7</ele>
        <time>2016-03-20T10:20:57Z</time>
      </trkpt>
      <trkpt lat="45.62608" lon="4.84418">
        <ele>220.6</ele>
        <time>2016-03-20T10:20:59Z</time>
      </trkpt>
      <trkpt lat="45.62603" lon="4.8442">
        <ele>220.5</ele>
        <time>2016-03-20T10:21:01Z</time>
      </trkpt>
      <trkpt lat="45.62597" lon="4.84421">
        <ele>220.7</ele>
        <time>2016-03-20T10:21:03Z</time>
      </trkpt>
      <trkpt lat="45.62592" lon="4.84422">
        <ele>220.9</ele>
        <time>2016-03-20T10:21:05Z</time>
      </trkpt>
      <trkpt lat="45.62586" lon="4.84419">
        <ele>221.1</ele>
        <time>2016-03-20T10:21:07Z</time>
      </trkpt>
      <trkpt lat="45.62581" lon="4.84413">
        <ele>221.1</ele>
        <time>2016-03-20T10:21:09Z</time>
      </trkpt>
      <trkpt lat="45.62579" lon="4.84405">
        <ele>221</ele>
        <time>2016-03-20T10:21:11Z</time>
      </trkpt>
      <trkpt lat="45.62577" lon="4.84396">
        <ele>221</ele>
        <time>2016-03-20T10:21:13Z</time>
      </trkpt>
      <trkpt lat="45.62574" lon="4.84388">
        <ele>221.2</ele>
        <time>2016-03-20T10:21:15Z</time>
      </trkpt>
      <trkpt lat="45.62572" lon="4.8438">
        <ele>221.5</ele>
        <time>2016-03-20T10:21:17Z</time>
      </trkpt>
      <trkpt lat="45.6257" lon="4.84372">
        <ele>221.7</ele>
        <time>2016-03-20T10:21:19Z</time>
      </trkpt>
      <trkpt lat="45.62568" lon="4.84365">
        <ele>221.7</ele>
        <time>2016-03-20T10:21:21Z</time>
      </trkpt>
      <trkpt lat="45.62566" lon="4.84357">
        <ele>221.5</ele>
        <time>2016-03-20T10:21:23Z</time>
      </trkpt>
      <trkpt lat="45.62564" lon="4.8435">
        <ele>221.2</ele>
        <time>2016-03-20T10:21:25Z</time>
      </trkpt>
      <trkpt lat="45.62562" lon="4.84342">
        <ele>220.7</ele>
        <time>2016-03-20T10:21:27Z</time>
      </trkpt>
      <trkpt lat="45.62558" lon="4.84336">
        <ele>220.1</ele>
        <time>2016-03-20T10:21:29Z</time>
      </trkpt>
      <trkpt lat="45.62554" lon="4.84331">
        <ele>220</ele>
        <time>2016-03-20T10:21:31Z</time>
      </trkpt>
      <trkpt lat="45.62549" lon="4.84331">
        <ele>221.3</ele>
        <time>2016-03-20T10:21:33Z</time>
      </trkpt>
      <trkpt lat="45.62543" lon="4.84335">
        <ele>222.7</ele>
        <time>2016-03-20T10:21:35Z</time>
      </trkpt>
      <trkpt lat="45.62537" lon="4.84339">
        <ele>223.6</ele>
        <time>2016-03-20T10:21:37Z</time>
      </trkpt>
      <trkpt lat="45.62531" lon="4.84344">
        <ele>224.2</ele>
        <time>2016-03-20T10:21:39Z</time>
      </trkpt>
      <trkpt lat="45.62525" lon="4.84349">
        <ele>224.8</ele>
        <time>2016-03-20T10:21:41Z</time>
      </trkpt>
      <trkpt lat="45.62519" lon="4.84354">
        <ele>225.3</ele>
        <time>2016-03-20T10:21:43Z</time>
      </trkpt>
      <trkpt lat="45.62513" lon="4.84358">
        <ele>225.8</ele>
        <time>2016-03-20T10:21:45Z</time>
      </trkpt>
      <trkpt lat="45.62507" lon="4.84363">
        <ele>226.5</ele>
        <time>2016-03-20T10:21:47Z</time>
      </trkpt>
      <trkpt lat="45.62502" lon="4.84367">
        <ele>227.3</ele>
        <time>2016-03-20T10:21:49Z</time>
      </trkpt>
      <trkpt lat="45.62496" lon="4.84371">
        <ele>227.8</ele>
        <time>2016-03-20T10:21:51Z</time>
      </trkpt>
      <trkpt lat="45.62491" lon="4.84376">
        <ele>228.4</ele>
        <time>2016-03-20T10:21:53Z</time>
      </trkpt>
      <trkpt lat="45.62484" lon="4.8438">
        <ele>229</ele>
        <time>2016-03-20T10:21:55Z</time>
      </trkpt>
      <trkpt lat="45.62478" lon="4.84381">
        <ele>229</ele>
        <time>2016-03-20T10:21:57Z</time>
      </trkpt>
      <trkpt lat="45.62473" lon="4.84377">
        <ele>228.8</ele>
        <time>2016-03-20T10:21:59Z</time>
      </trkpt>
      <trkpt lat="45.62469" lon="4.84369">
        <ele>228.7</ele>
        <time>2016-03-20T10:22:01Z</time>
      </trkpt>
      <trkpt lat="45.62465" lon="4.8436">
        <ele>228.7</ele>
        <time>2016-03-20T10:22:03Z</time>
      </trkpt>
      <trkpt lat="45.62461" lon="4.84351">
        <ele>228.7</ele>
        <time>2016-03-20T10:22:05Z</time>
      </trkpt>
      <trkpt lat="45.62457" lon="4.84341">
        <ele>228.8</ele>
        <time>2016-03-20T10:22:07Z</time>
      </trkpt>
      <trkpt lat="45.62453" lon="4.84331">
        <ele>228.6</ele>
        <time>2016-03-20T10:22:09Z</time>
      </trkpt>
      <trkpt lat="45.62449" lon="4.8432">
        <ele>228.2</ele>
        <time>2016-03-20T10:22:11Z</time>
      </trkpt>
      <trkpt lat="45.62445" lon="4.84309">
        <ele>228.5</ele>
        <time>2016-03-20T10:22:13Z</time>
      </trkpt>
      <trkpt lat="45.62441" lon="4.84297">
        <ele>228.9</ele>
        <time>2016-03-20T10:22:15Z</time>
      </trkpt>
      <trkpt lat="45.62437" lon="4.84285">
        <ele>229.1</ele>
        <time>2016-03-20T10:22:17Z</time>
      </trkpt>
      <trkpt lat="45.62433" lon="4.84274">
        <ele>228.7</ele>
        <time>2016-03-20T10:22:19Z</time>
      </trkpt>
      <trkpt lat="45.62429" lon="4.84262">
        <ele>228.5</ele>
        <time>2016-03-20T10:22:21Z</time>
      </trkpt>
      <trkpt lat="45.62425" lon="4.84251">
        <ele>228.1</ele>
        <time>2016-03-20T10:22:23Z</time>
      </trkpt>
      <trkpt lat="45.6242" lon="4.84239">
        <ele>227.8</ele>
        <time>2016-03-20T10:22:25Z</time>
      </trkpt>
      <trkpt lat="45.62415" lon="4.84227">
        <ele>227.7</ele>
        <time>2016-03-20T10:22:27Z</time>
      </trkpt>
      <trkpt lat="45.6241" lon="4.84216">
        <ele>228.2</ele>
        <time>2016-03-20T10:22:29Z</time>
      </trkpt>
      <trkpt lat="45.62405" lon="4.84205">
        <ele>229.5</ele>
        <time>2016-03-20T10:22:31Z</time>
      </trkpt>
      <trkpt lat="45.624" lon="4.84195">
        <ele>231.1</ele>
        <time>2016-03-20T10:22:33Z</time>
      </trkpt>
      <trkpt lat="45.62394" lon="4.84184">
        <ele>232</ele>
        <time>2016-03-20T10:22:35Z</time>
      </trkpt>
      <trkpt lat="45.62389" lon="4.84173">
        <ele>232.6</ele>
        <time>2016-03-20T10:22:37Z</time>
      </trkpt>
      <trkpt lat="45.62384" lon="4.84162">
        <ele>233.2</ele>
        <time>2016-03-20T10:22:39Z</time>
      </trkpt>
      <trkpt lat="45.6238" lon="4.84152">
        <ele>233.9</ele>
        <time>2016-03-20T10:22:41Z</time>
      </trkpt>
      <trkpt lat="45.62375" lon="4.84142">
        <ele>234.7</ele>
        <time>2016-03-20T10:22:43Z</time>
      </trkpt>
      <trkpt lat="45.62371" lon="4.84132">
        <ele>235.2</ele>
        <time>2016-03-20T10:22:45Z</time>
      </trkpt>
      <trkpt lat="45.62367" lon="4.84123">
        <ele>235.7</ele>
        <time>2016-03-20T10:22:47Z</time>
      </trkpt>
      <trkpt lat="45.62362" lon="4.84114">
        <ele>235.8</ele>
        <time>2016-03-20T10:22:49Z</time>
      </trkpt>
      <trkpt lat="45.62358" lon="4.84105">
        <ele>235.6</ele>
        <time>2016-03-20T10:22:51Z</time>
      </trkpt>
      <trkpt lat="45.62354" lon="4.84098">
        <ele>235.7</ele>
        <time>2016-03-20T10:22:53Z</time>
      </trkpt>
      <trkpt lat="45.6235" lon="4.84092">
        <ele>235.9</ele>
        <time>2016-03-20T10:22:55Z</time>
      </trkpt>
      <trkpt lat="45.62346" lon="4.84088">
        <ele>236.2</ele>
        <time>2016-03-20T10:22:57Z</time>
      </trkpt>
      <trkpt lat="45.62341" lon="4.84087">
        <ele>236.6</ele>
        <time>2016-03-20T10:22:59Z</time>
      </trkpt>
      <trkpt lat="45.62336" lon="4.84087">
        <ele>236.8</ele>
        <time>2016-03-20T10:23:01Z</time>
      </trkpt>
      <trkpt lat="45.6233" lon="4.84089">
        <ele>237.2</ele>
        <time>2016-03-20T10:23:03Z</time>
      </trkpt>
      <trkpt lat="45.62325" lon="4.8409">
        <ele>237.9</ele>
        <time>2016-03-20T10:23:05Z</time>
      </trkpt>
      <trkpt lat="45.62319" lon="4.84091">
        <ele>238.4</ele>
        <time>2016-03-20T10:23:07Z</time>
      </trkpt>
      <trkpt lat="45.62314" lon="4.84093">
        <ele>239</ele>
        <time>2016-03-20T10:23:09Z</time>
      </trkpt>
      <trkpt lat="45.62307" lon="4.84094">
        <ele>239.8</ele>
        <time>2016-03-20T10:23:11Z</time>
      </trkpt>
      <trkpt lat="45.62302" lon="4.84095">
        <ele>240.5</ele>
        <time>2016-03-20T10:23:13Z</time>
      </trkpt>
      <trkpt lat="45.62296" lon="4.84096">
        <ele>241.2</ele>
        <time>2016-03-20T10:23:15Z</time>
      </trkpt>
      <trkpt lat="45.62291" lon="4.84098">
        <ele>241.8</ele>
        <time>2016-03-20T10:23:17Z</time>
      </trkpt>
      <trkpt lat="45.62285" lon="4.84099">
        <ele>242.2</ele>
        <time>2016-03-20T10:23:19Z</time>
      </trkpt>
      <trkpt lat="45.6228" lon="4.84101">
        <ele>242.8</ele>
        <time>2016-03-20T10:23:21Z</time>
      </trkpt>
      <trkpt lat="45.62275" lon="4.84102">
        <ele>243.6</ele>
        <time>2016-03-20T10:23:23Z</time>
      </trkpt>
      <trkpt lat="45.6227" lon="4.84104">
        <ele>244.5</ele>
        <time>2016-03-20T10:23:25Z</time>
      </trkpt>
      <trkpt lat="45.62265" lon="4.84105">
        <ele>245.4</ele>
        <time>2016-03-20T10:23:27Z</time>
      </trkpt>
      <trkpt lat="45.6226" lon="4.84106">
        <ele>246.3</ele>
        <time>2016-03-20T10:23:29Z</time>
      </trkpt>
      <trkpt lat="45.62255" lon="4.84108">
        <ele>246.7</ele>
        <time>2016-03-20T10:23:31Z</time>
      </trkpt>
      <trkpt lat="45.62251" lon="4.84109">
        <ele>247.1</ele>
        <time>2016-03-20T10:23:33Z</time>
      </trkpt>
      <trkpt lat="45.62246" lon="4.8411">
        <ele>247.6</ele>
        <time>2016-03-20T10:23:35Z</time>
      </trkpt>
      <trkpt lat="45.62241" lon="4.8411">
        <ele>248</ele>
        <time>2016-03-20T10:23:37Z</time>
      </trkpt>
      <trkpt lat="45.62236" lon="4.84111">
        <ele>248.3</ele>
        <time>2016-03-20T10:23:39Z</time>
      </trkpt>
      <trkpt lat="45.62232" lon="4.8411">
        <ele>248.6</ele>
        <time>2016-03-20T10:23:41Z</time>
      </trkpt>
      <trkpt lat="45.62227" lon="4.84109">
        <ele>248.8</ele>
        <time>2016-03-20T10:23:43Z</time>
      </trkpt>
      <trkpt lat="45.62224" lon="4.84107">
        <ele>248.8</ele>
        <time>2016-03-20T10:23:45Z</time>
      </trkpt>
      <trkpt lat="45.6222" lon="4.84105">
        <ele>248.9</ele>
        <time>2016-03-20T10:23:47Z</time>
      </trkpt>
      <trkpt lat="45.62217" lon="4.84103">
        <ele>248.9</ele>
        <time>2016-03-20T10:23:49Z</time>
      </trkpt>
      <trkpt lat="45.62214" lon="4.841">
        <ele>249</ele>
        <time>2016-03-20T10:23:51Z</time>
      </trkpt>
      <trkpt lat="45.62211" lon="4.84097">
        <ele>249.1</ele>
        <time>2016-03-20T10:23:53Z</time>
      </trkpt>
      <trkpt lat="45.62208" lon="4.84093">
        <ele>249.3</ele>
        <time>2016-03-20T10:23:55Z</time>
      </trkpt>
      <trkpt lat="45.62205" lon="4.8409">
        <ele>249.6</ele>
        <time>2016-03-20T10:23:57Z</time>
      </trkpt>
      <trkpt lat="45.62202" lon="4.84087">
        <ele>249.6</ele>
        <time>2016-03-20T10:23:59Z</time>
      </trkpt>
      <trkpt lat="45.62198" lon="4.84084">
        <ele>249.5</ele>
        <time>2016-03-20T10:24:01Z</time>
      </trkpt>
      <trkpt lat="45.62195" lon="4.84081">
        <ele>249.5</ele>
        <time>2016-03-20T10:24:03Z</time>
      </trkpt>
      <trkpt lat="45.62191" lon="4.84077">
        <ele>249.4</ele>
        <time>2016-03-20T10:24:05Z</time>
      </trkpt>
      <trkpt lat="45.62188" lon="4.84073">
        <ele>249.3</ele>
        <time>2016-03-20T10:24:07Z</time>
      </trkpt>
      <trkpt lat="45.62184" lon="4.84068">
        <ele>249.2</ele>
        <time>2016-03-20T10:24:09Z</time>
      </trkpt>
      <trkpt lat="45.6218" lon="4.84064">
        <ele>249.3</ele>
        <time>2016-03-20T10:24:11Z</time>
      </trkpt>
      <trkpt lat="45.62176" lon="4.8406">
        <ele>249.3</ele>
        <time>2016-03-20T10:24:13Z</time>
      </trkpt>
      <trkpt lat="45.62172" lon="4.84056">
        <ele>249.2</ele>
        <time>2016-03-20T10:24:15Z</time>
      </trkpt>
      <trkpt lat="45.62169" lon="4.84051">
        <ele>249.2</ele>
        <time>2016-03-20T10:24:17Z</time>
      </trkpt>
      <trkpt lat="45.62165" lon="4.84047">
        <ele>249.3</ele>
        <time>2016-03-20T10:24:19Z</time>
      </trkpt>
      <trkpt lat="45.6216" lon="4.84043">
        <ele>249.7</ele>
        <time>2016-03-20T10:24:21Z</time>
      </trkpt>
      <trkpt lat="45.62156" lon="4.8404">
        <ele>250.1</ele>
        <time>2016-03-20T10:24:23Z</time>
      </trkpt>
      <trkpt lat="45.62151" lon="4.84038">
        <ele>251</ele>
        <time>2016-03-20T10:24:25Z</time>
      </trkpt>
      <trkpt lat="45.62146" lon="4.84038">
        <ele>251.5</ele>
        <time>2016-03-20T10:24:27Z</time>
      </trkpt>
      <trkpt lat="45.62141" lon="4.84039">
        <ele>252.1</ele>
        <time>2016-03-20T10:24:29Z</time>
      </trkpt>
      <trkpt lat="45.62136" lon="4.84041">
        <ele>252.5</ele>
        <time>2016-03-20T10:24:31Z</time>
      </trkpt>
      <trkpt lat="45.62132" lon="4.84044">
        <ele>253.1</ele>
        <time>2016-03-20T10:24:33Z</time>
      </trkpt>
      <trkpt lat="45.62128" lon="4.84046">
        <ele>253.3</ele>
        <time>2016-03-20T10:24:35Z</time>
      </trkpt>
      <trkpt lat="45.62124" lon="4.84048">
        <ele>253.5</ele>
        <time>2016-03-20T10:24:37Z</time>
      </trkpt>
      <trkpt lat="45.62119" lon="4.84051">
        <ele>253.8</ele>
        <time>2016-03-20T10:24:39Z</time>
      </trkpt>
      <trkpt lat="45.62114" lon="4.84053">
        <ele>254.1</ele>
        <time>2016-03-20T10:24:41Z</time>
      </trkpt>
      <trkpt lat="45.62109" lon="4.84054">
        <ele>254.6</ele>
        <time>2016-03-20T10:24:43Z</time>
      </trkpt>
      <trkpt lat="45.62105" lon="4.84055">
        <ele>254.9</ele>
        <time>2016-03-20T10:24:45Z</time>
      </trkpt>
      <trkpt lat="45.621" lon="4.84056">
        <ele>255.5</ele>
        <time>2016-03-20T10:24:47Z</time>
      </trkpt>
      <trkpt lat="45.62095" lon="4.84057">
        <ele>256.1</ele>
        <time>2016-03-20T10:24:49Z</time>
      </trkpt>
      <trkpt lat="45.6209" lon="4.84058">
        <ele>256.5</ele>
        <time>2016-03-20T10:24:51Z</time>
      </trkpt>
      <trkpt lat="45.62085" lon="4.8406">
        <ele>257.1</ele>
        <time>2016-03-20T10:24:53Z</time>
      </trkpt>
      <trkpt lat="45.62081" lon="4.84061">
        <ele>257.6</ele>
        <time>2016-03-20T10:24:55Z</time>
      </trkpt>
      <trkpt lat="45.62077" lon="4.84063">
        <ele>258.2</ele>
        <time>2016-03-20T10:24:57Z</time>
      </trkpt>
      <trkpt lat="45.62072" lon="4.84064">
        <ele>258.8</ele>
        <time>2016-03-20T10:24:59Z</time>
      </trkpt>
      <trkpt lat="45.62068" lon="4.84066">
        <ele>259.2</ele>
        <time>2016-03-20T10:25:01Z</time>
      </trkpt>
      <trkpt lat="45.62064" lon="4.84067">
        <ele>259.6</ele>
        <time>2016-03-20T10:25:03Z</time>
      </trkpt>
      <trkpt lat="45.6206" lon="4.84068">
        <ele>260</ele>
        <time>2016-03-20T10:25:05Z</time>
      </trkpt>
      <trkpt lat="45.62055" lon="4.8407">
        <ele>260.5</ele>
        <time>2016-03-20T10:25:07Z</time>
      </trkpt>
      <trkpt lat="45.62051" lon="4.84072">
        <ele>261</ele>
        <time>2016-03-20T10:25:09Z</time>
      </trkpt>
      <trkpt lat="45.62046" lon="4.84074">
        <ele>261.5</ele>
        <time>2016-03-20T10:25:11Z</time>
      </trkpt>
      <trkpt lat="45.62042" lon="4.84075">
        <ele>262.1</ele>
        <time>2016-03-20T10:25:13Z</time>
      </trkpt>
      <trkpt lat="45.62037" lon="4.84076">
        <ele>262.5</ele>
        <time>2016-03-20T10:25:15Z</time>
      </trkpt>
      <trkpt lat="45.62032" lon="4.84078">
        <ele>262.8</ele>
        <time>2016-03-20T10:25:17Z</time>
      </trkpt>
      <trkpt lat="45.62028" lon="4.84079">
        <ele>263</ele>
        <time>2016-03-20T10:25:19Z</time>
      </trkpt>
      <trkpt lat="45.62023" lon="4.8408">
        <ele>263.3</ele>
        <time>2016-03-20T10:25:21Z</time>
      </trkpt>
      <trkpt lat="45.62019" lon="4.84082">
        <ele>263.3</ele>
        <time>2016-03-20T10:25:23Z</time>
      </trkpt>
      <trkpt lat="45.62014" lon="4.84083">
        <ele>263.3</ele>
        <time>2016-03-20T10:25:25Z</time>
      </trkpt>
      <trkpt lat="45.6201" lon="4.84085">
        <ele>263.3</ele>
        <time>2016-03-20T10:25:27Z</time>
      </trkpt>
      <trkpt lat="45.62006" lon="4.84087">
        <ele>263.3</ele>
        <time>2016-03-20T10:25:29Z</time>
      </trkpt>
      <trkpt lat="45.62002" lon="4.8409">
        <ele>263.3</ele>
        <time>2016-03-20T10:25:31Z</time>
      </trkpt>
      <trkpt lat="45.61999" lon="4.84093">
        <ele>263.3</ele>
        <time>2016-03-20T10:25:33Z</time>
      </trkpt>
      <trkpt lat="45.61997" lon="4.84096">
        <ele>263.4</ele>
        <time>2016-03-20T10:25:35Z</time>
      </trkpt>
      <trkpt lat="45.61994" lon="4.84099">
        <ele>263.5</ele>
        <time>2016-03-20T10:25:37Z</time>
      </trkpt>
      <trkpt lat="45.61991" lon="4.84102">
        <ele>263.7</ele>
        <time>2016-03-20T10:25:39Z</time>
      </trkpt>
      <trkpt lat="45.61988" lon="4.84106">
        <ele>263.9</ele>
        <time>2016-03-20T10:25:41Z</time>
      </trkpt>
      <trkpt lat="45.61984" lon="4.84109">
        <ele>264.1</ele>
        <time>2016-03-20T10:25:43Z</time>
      </trkpt>
      <trkpt lat="45.6198" lon="4.84112">
        <ele>264.2</ele>
        <time>2016-03-20T10:25:45Z</time>
      </trkpt>
      <trkpt lat="45.61976" lon="4.84115">
        <ele>264.3</ele>
        <time>2016-03-20T10:25:47Z</time>
      </trkpt>
      <trkpt lat="45.61972" lon="4.84118">
        <ele>264.5</ele>
        <time>2016-03-20T10:25:49Z</time>
      </trkpt>
      <trkpt lat="45.61968" lon="4.8412">
        <ele>264.6</ele>
        <time>2016-03-20T10:25:51Z</time>
      </trkpt>
      <trkpt lat="45.61963" lon="4.8412">
        <ele>264.8</ele>
        <time>2016-03-20T10:25:53Z</time>
      </trkpt>
      <trkpt lat="45.61959" lon="4.8412">
        <ele>265</ele>
        <time>2016-03-20T10:25:55Z</time>
      </trkpt>
      <trkpt lat="45.61955" lon="4.8412">
        <ele>265.3</ele>
        <time>2016-03-20T10:25:57Z</time>
      </trkpt>
      <trkpt lat="45.61952" lon="4.8412">
        <ele>265.6</ele>
        <time>2016-03-20T10:25:59Z</time>
      </trkpt>
      <trkpt lat="45.61949" lon="4.8412">
        <ele>265.9</ele>
        <time>2016-03-20T10:26:01Z</time>
      </trkpt>
      <trkpt lat="45.61945" lon="4.84119">
        <ele>266.3</ele>
        <time>2016-03-20T10:26:03Z</time>
      </trkpt>
      <trkpt lat="45.61941" lon="4.84116">
        <ele>266.9</ele>
        <time>2016-03-20T10:26:05Z</time>
      </trkpt>
      <trkpt lat="45.61937" lon="4.84111">
        <ele>267.6</ele>
        <time>2016-03-20T10:26:07Z</time>
      </trkpt>
      <trkpt lat="45.61934" lon="4.84104">
        <ele>268.3</ele>
        <time>2016-03-20T10:26:09Z</time>
      </trkpt>
      <trkpt lat="45.61931" lon="4.84098">
        <ele>269</ele>
        <time>2016-03-20T10:26:11Z</time>
      </trkpt>
      <trkpt lat="45.61929" lon="4.84091">
        <ele>269.6</ele>
        <time>2016-03-20T10:26:13Z</time>
      </trkpt>
      <trkpt lat="45.61926" lon="4.84085">
        <ele>270.1</ele>
        <time>2016-03-20T10:26:15Z</time>
      </trkpt>
      <trkpt lat="45.61923" lon="4.84078">
        <ele>270.5</ele>
        <time>2016-03-20T10:26:17Z</time>
      </trkpt>
      <trkpt lat="45.6192" lon="4.84072">
        <ele>270.9</ele>
        <time>2016-03-20T10:26:19Z</time>
      </trkpt>
      <trkpt lat="45.61916" lon="4.84066">
        <ele>271.2</ele>
        <time>2016-03-20T10:26:21Z</time>
      </trkpt>
      <trkpt lat="45.61912" lon="4.8406">
        <ele>271.2</ele>
        <time>2016-03-20T10:26:23Z</time>
      </trkpt>
      <trkpt lat="45.61908" lon="4.84054">
        <ele>271.2</ele>
        <time>2016-03-20T10:26:25Z</time>
      </trkpt>
      <trkpt lat="45.61904" lon="4.84049">
        <ele>271.1</ele>
        <time>2016-03-20T10:26:27Z</time>
      </trkpt>
      <trkpt lat="45.619" lon="4.84043">
        <ele>271</ele>
        <time>2016-03-20T10:26:29Z</time>
      </trkpt>
      <trkpt lat="45.61896" lon="4.84037">
        <ele>271.1</ele>
        <time>2016-03-20T10:26:31Z</time>
      </trkpt>
      <trkpt lat="45.61893" lon="4.84031">
        <ele>271.5</ele>
        <time>2016-03-20T10:26:33Z</time>
      </trkpt>
      <trkpt lat="45.61889" lon="4.84024">
        <ele>271.8</ele>
        <time>2016-03-20T10:26:35Z</time>
      </trkpt>
      <trkpt lat="45.61887" lon="4.84015">
        <ele>272.1</ele>
        <time>2016-03-20T10:26:37Z</time>
      </trkpt>
      <trkpt lat="45.61885" lon="4.84006">
        <ele>272.3</ele>
        <time>2016-03-20T10:26:39Z</time>
      </trkpt>
      <trkpt lat="45.61883" lon="4.83997">
        <ele>272.2</ele>
        <time>2016-03-20T10:26:41Z</time>
      </trkpt>
      <trkpt lat="45.61882" lon="4.83988">
        <ele>271.8</ele>
        <time>2016-03-20T10:26:43Z</time>
      </trkpt>
      <trkpt lat="45.61881" lon="4.8398">
        <ele>271.6</ele>
        <time>2016-03-20T10:26:45Z</time>
      </trkpt>
      <trkpt lat="45.6188" lon="4.83971">
        <ele>271.4</ele>
        <time>2016-03-20T10:26:47Z</time>
      </trkpt>
      <trkpt lat="45.61879" lon="4.83961">
        <ele>271.2</ele>
        <time>2016-03-20T10:26:49Z</time>
      </trkpt>
      <trkpt lat="45.61878" lon="4.83948">
        <ele>271.1</ele>
        <time>2016-03-20T10:26:51Z</time>
      </trkpt>
      <trkpt lat="45.61876" lon="4.83933">
        <ele>270.8</ele>
        <time>2016-03-20T10:26:53Z</time>
      </trkpt>
      <trkpt lat="45.61875" lon="4.83917">
        <ele>270.1</ele>
        <time>2016-03-20T10:26:55Z</time>
      </trkpt>
      <trkpt lat="45.61873" lon="4.83898">
        <ele>268.9</ele>
        <time>2016-03-20T10:26:57Z</time>
      </trkpt>
      <trkpt lat="45.61871" lon="4.83876">
        <ele>267.6</ele>
        <time>2016-03-20T10:26:59Z</time>
      </trkpt>
      <trkpt lat="45.61871" lon="4.83854">
        <ele>267</ele>
        <time>2016-03-20T10:27:01Z</time>
      </trkpt>
      <trkpt lat="45.61871" lon="4.83831">
        <ele>267</ele>
        <time>2016-03-20T10:27:03Z</time>
      </trkpt>
      <trkpt lat="45.61874" lon="4.8381">
        <ele>267</ele>
        <time>2016-03-20T10:27:05Z</time>
      </trkpt>
      <trkpt lat="45.61877" lon="4.83792">
        <ele>266.5</ele>
        <time>2016-03-20T10:27:07Z</time>
      </trkpt>
      <trkpt lat="45.6188" lon="4.83776">
        <ele>266.1</ele>
        <time>2016-03-20T10:27:09Z</time>
      </trkpt>
      <trkpt lat="45.61882" lon="4.83761">
        <ele>265.8</ele>
        <time>2016-03-20T10:27:11Z</time>
      </trkpt>
      <trkpt lat="45.61884" lon="4.83747">
        <ele>265.3</ele>
        <time>2016-03-20T10:27:13Z</time>
      </trkpt>
      <trkpt lat="45.61884" lon="4.83733">
        <ele>264.9</ele>
        <time>2016-03-20T10:27:15Z</time>
      </trkpt>
      <trkpt lat="45.61883" lon="4.83717">
        <ele>264.6</ele>
        <time>2016-03-20T10:27:17Z</time>
      </trkpt>
      <trkpt lat="45.61881" lon="4.837">
        <ele>263.8</ele>
        <time>2016-03-20T10:27:19Z</time>
      </trkpt>
      <trkpt lat="45.61878" lon="4.83683">
        <ele>263.7</ele>
        <time>2016-03-20T10:27:21Z</time>
      </trkpt>
      <trkpt lat="45.61874" lon="4.83666">
        <ele>264</ele>
        <time>2016-03-20T10:27:23Z</time>
      </trkpt>
      <trkpt lat="45.61869" lon="4.83649">
        <ele>263.7</ele>
        <time>2016-03-20T10:27:25Z</time>
      </trkpt>
      <trkpt lat="45.61865" lon="4.83633">
        <ele>263.4</ele>
        <time>2016-03-20T10:27:27Z</time>
      </trkpt>
      <trkpt lat="45.6186" lon="4.83616">
        <ele>263.6</ele>
        <time>2016-03-20T10:27:29Z</time>
      </trkpt>
      <trkpt lat="45.61855" lon="4.836">
        <ele>263.4</ele>
        <time>2016-03-20T10:27:31Z</time>
      </trkpt>
      <trkpt lat="45.6185" lon="4.83585">
        <ele>263.2</ele>
        <time>2016-03-20T10:27:33Z</time>
      </trkpt>
      <trkpt lat="45.61846" lon="4.83572">
        <ele>263.4</ele>
        <time>2016-03-20T10:27:35Z</time>
      </trkpt>
      <trkpt lat="45.61842" lon="4.83559">
        <ele>263.6</ele>
        <time>2016-03-20T10:27:37Z</time>
      </trkpt>
      <trkpt lat="45.61837" lon="4.83547">
        <ele>263.6</ele>
        <time>2016-03-20T10:27:39Z</time>
      </trkpt>
      <trkpt lat="45.61834" lon="4.83536">
        <ele>263.7</ele>
        <time>2016-03-20T10:27:41Z</time>
      </trkpt>
      <trkpt lat="45.61829" lon="4.83524">
        <ele>263.4</ele>
        <time>2016-03-20T10:27:43Z</time>
      </trkpt>
      <trkpt lat="45.61825" lon="4.83513">
        <ele>263.8</ele>
        <time>2016-03-20T10:27:45Z</time>
      </trkpt>
      <trkpt lat="45.61817" lon="4.83492">
        <ele>265</ele>
        <time>2016-03-20T10:27:49Z</time>
      </trkpt>
      <trkpt lat="45.61813" lon="4.83483">
        <ele>265.7</ele>
        <time>2016-03-20T10:27:51Z</time>
      </trkpt>
      <trkpt lat="45.61809" lon="4.83473">
        <ele>265.9</ele>
        <time>2016-03-20T10:27:53Z</time>
      </trkpt>
      <trkpt lat="45.61805" lon="4.83464">
        <ele>266.2</ele>
        <time>2016-03-20T10:27:55Z</time>
      </trkpt>
      <trkpt lat="45.61801" lon="4.83455">
        <ele>266.3</ele>
        <time>2016-03-20T10:27:57Z</time>
      </trkpt>
      <trkpt lat="45.61797" lon="4.83445">
        <ele>266.4</ele>
        <time>2016-03-20T10:27:59Z</time>
      </trkpt>
      <trkpt lat="45.61794" lon="4.83436">
        <ele>267</ele>
        <time>2016-03-20T10:28:01Z</time>
      </trkpt>
      <trkpt lat="45.61792" lon="4.83425">
        <ele>267.5</ele>
        <time>2016-03-20T10:28:03Z</time>
      </trkpt>
      <trkpt lat="45.6179" lon="4.83415">
        <ele>268.2</ele>
        <time>2016-03-20T10:28:05Z</time>
      </trkpt>
      <trkpt lat="45.61789" lon="4.83405">
        <ele>268.4</ele>
        <time>2016-03-20T10:28:07Z</time>
      </trkpt>
      <trkpt lat="45.61788" lon="4.83395">
        <ele>269.1</ele>
        <time>2016-03-20T10:28:09Z</time>
      </trkpt>
      <trkpt lat="45.61786" lon="4.83386">
        <ele>269.4</ele>
        <time>2016-03-20T10:28:11Z</time>
      </trkpt>
      <trkpt lat="45.61785" lon="4.83377">
        <ele>270</ele>
        <time>2016-03-20T10:28:13Z</time>
      </trkpt>
      <trkpt lat="45.61784" lon="4.83369">
        <ele>270.4</ele>
        <time>2016-03-20T10:28:15Z</time>
      </trkpt>
      <trkpt lat="45.61781" lon="4.83361">
        <ele>270.8</ele>
        <time>2016-03-20T10:28:17Z</time>
      </trkpt>
      <trkpt lat="45.6178" lon="4.83354">
        <ele>270.8</ele>
        <time>2016-03-20T10:28:19Z</time>
      </trkpt>
      <trkpt lat="45.61779" lon="4.83347">
        <ele>270.8</ele>
        <time>2016-03-20T10:28:21Z</time>
      </trkpt>
      <trkpt lat="45.61778" lon="4.8334">
        <ele>270.9</ele>
        <time>2016-03-20T10:28:23Z</time>
      </trkpt>
      <trkpt lat="45.61776" lon="4.83332">
        <ele>271.3</ele>
        <time>2016-03-20T10:28:25Z</time>
      </trkpt>
      <trkpt lat="45.61775" lon="4.83326">
        <ele>271.7</ele>
        <time>2016-03-20T10:28:27Z</time>
      </trkpt>
      <trkpt lat="45.61774" lon="4.83319">
        <ele>272.1</ele>
        <time>2016-03-20T10:28:29Z</time>
      </trkpt>
      <trkpt lat="45.61773" lon="4.83313">
        <ele>272.4</ele>
        <time>2016-03-20T10:28:31Z</time>
      </trkpt>
      <trkpt lat="45.61771" lon="4.83307">
        <ele>272.7</ele>
        <time>2016-03-20T10:28:33Z</time>
      </trkpt>
      <trkpt lat="45.6177" lon="4.83304">
        <ele>272.9</ele>
        <time>2016-03-20T10:28:35Z</time>
      </trkpt>
      <trkpt lat="45.61768" lon="4.83305">
        <ele>273</ele>
        <time>2016-03-20T10:28:37Z</time>
      </trkpt>
      <trkpt lat="45.61767" lon="4.83308">
        <ele>274.2</ele>
        <time>2016-03-20T10:28:39Z</time>
      </trkpt>
      <trkpt lat="45.61766" lon="4.8331">
        <ele>274.5</ele>
        <time>2016-03-20T10:28:41Z</time>
      </trkpt>
      <trkpt lat="45.61763" lon="4.83312">
        <ele>274.8</ele>
        <time>2016-03-20T10:28:43Z</time>
      </trkpt>
      <trkpt lat="45.6176" lon="4.83314">
        <ele>275.2</ele>
        <time>2016-03-20T10:28:45Z</time>
      </trkpt>
      <trkpt lat="45.61758" lon="4.83317">
        <ele>275.5</ele>
        <time>2016-03-20T10:28:47Z</time>
      </trkpt>
      <trkpt lat="45.61755" lon="4.8332">
        <ele>275.7</ele>
        <time>2016-03-20T10:28:49Z</time>
      </trkpt>
      <trkpt lat="45.61751" lon="4.83323">
        <ele>275.9</ele>
        <time>2016-03-20T10:28:51Z</time>
      </trkpt>
      <trkpt lat="45.61748" lon="4.83327">
        <ele>276</ele>
        <time>2016-03-20T10:28:53Z</time>
      </trkpt>
      <trkpt lat="45.61744" lon="4.83331">
        <ele>276.2</ele>
        <time>2016-03-20T10:28:55Z</time>
      </trkpt>
      <trkpt lat="45.61741" lon="4.83334">
        <ele>276.2</ele>
        <time>2016-03-20T10:28:57Z</time>
      </trkpt>
      <trkpt lat="45.61737" lon="4.83338">
        <ele>276.3</ele>
        <time>2016-03-20T10:28:59Z</time>
      </trkpt>
      <trkpt lat="45.61734" lon="4.83342">
        <ele>276.4</ele>
        <time>2016-03-20T10:29:01Z</time>
      </trkpt>
      <trkpt lat="45.6173" lon="4.83345">
        <ele>276.4</ele>
        <time>2016-03-20T10:29:03Z</time>
      </trkpt>
      <trkpt lat="45.61727" lon="4.83349">
        <ele>276.4</ele>
        <time>2016-03-20T10:29:05Z</time>
      </trkpt>
      <trkpt lat="45.61724" lon="4.83353">
        <ele>276.5</ele>
        <time>2016-03-20T10:29:07Z</time>
      </trkpt>
      <trkpt lat="45.6172" lon="4.83357">
        <ele>276.6</ele>
        <time>2016-03-20T10:29:09Z</time>
      </trkpt>
      <trkpt lat="45.61716" lon="4.8336">
        <ele>276.8</ele>
        <time>2016-03-20T10:29:11Z</time>
      </trkpt>
      <trkpt lat="45.61712" lon="4.83365">
        <ele>277.1</ele>
        <time>2016-03-20T10:29:13Z</time>
      </trkpt>
      <trkpt lat="45.61708" lon="4.8337">
        <ele>277.4</ele>
        <time>2016-03-20T10:29:15Z</time>
      </trkpt>
      <trkpt lat="45.61703" lon="4.83375">
        <ele>277.7</ele>
        <time>2016-03-20T10:29:17Z</time>
      </trkpt>
      <trkpt lat="45.61698" lon="4.8338">
        <ele>278</ele>
        <time>2016-03-20T10:29:19Z</time>
      </trkpt>
      <trkpt lat="45.61693" lon="4.83384">
        <ele>278.4</ele>
        <time>2016-03-20T10:29:21Z</time>
      </trkpt>
      <trkpt lat="45.61689" lon="4.83389">
        <ele>278.8</ele>
        <time>2016-03-20T10:29:23Z</time>
      </trkpt>
      <trkpt lat="45.61684" lon="4.83393">
        <ele>279.1</ele>
        <time>2016-03-20T10:29:25Z</time>
      </trkpt>
      <trkpt lat="45.6168" lon="4.83396">
        <ele>279.5</ele>
        <time>2016-03-20T10:29:27Z</time>
      </trkpt>
      <trkpt lat="45.61675" lon="4.834">
        <ele>279.9</ele>
        <time>2016-03-20T10:29:29Z</time>
      </trkpt>
      <trkpt lat="45.61671" lon="4.83404">
        <ele>280.3</ele>
        <time>2016-03-20T10:29:31Z</time>
      </trkpt>
      <trkpt lat="45.61666" lon="4.83407">
        <ele>280.7</ele>
        <time>2016-03-20T10:29:33Z</time>
      </trkpt>
      <trkpt lat="45.61661" lon="4.83411">
        <ele>281</ele>
        <time>2016-03-20T10:29:35Z</time>
      </trkpt>
      <trkpt lat="45.61657" lon="4.83414">
        <ele>281.2</ele>
        <time>2016-03-20T10:29:37Z</time>
      </trkpt>
      <trkpt lat="45.61652" lon="4.83417">
        <ele>281.5</ele>
        <time>2016-03-20T10:29:39Z</time>
      </trkpt>
      <trkpt lat="45.61647" lon="4.8342">
        <ele>281.9</ele>
        <time>2016-03-20T10:29:41Z</time>
      </trkpt>
      <trkpt lat="45.61643" lon="4.83423">
        <ele>282.3</ele>
        <time>2016-03-20T10:29:43Z</time>
      </trkpt>
      <trkpt lat="45.61638" lon="4.83425">
        <ele>282.9</ele>
        <time>2016-03-20T10:29:45Z</time>
      </trkpt>
      <trkpt lat="45.61634" lon="4.83428">
        <ele>283.3</ele>
        <time>2016-03-20T10:29:47Z</time>
      </trkpt>
      <trkpt lat="45.6163" lon="4.83431">
        <ele>283.7</ele>
        <time>2016-03-20T10:29:49Z</time>
      </trkpt>
      <trkpt lat="45.61626" lon="4.83433">
        <ele>284.1</ele>
        <time>2016-03-20T10:29:51Z</time>
      </trkpt>
      <trkpt lat="45.61623" lon="4.83436">
        <ele>284.5</ele>
        <time>2016-03-20T10:29:53Z</time>
      </trkpt>
      <trkpt lat="45.61618" lon="4.83439">
        <ele>284.7</ele>
        <time>2016-03-20T10:29:55Z</time>
      </trkpt>
      <trkpt lat="45.61615" lon="4.83442">
        <ele>284.8</ele>
        <time>2016-03-20T10:29:57Z</time>
      </trkpt>
      <trkpt lat="45.61612" lon="4.83444">
        <ele>284.8</ele>
        <time>2016-03-20T10:29:59Z</time>
      </trkpt>
      <trkpt lat="45.61608" lon="4.83447">
        <ele>284.9</ele>
        <time>2016-03-20T10:30:01Z</time>
      </trkpt>
      <trkpt lat="45.61605" lon="4.8345">
        <ele>285</ele>
        <time>2016-03-20T10:30:03Z</time>
      </trkpt>
      <trkpt lat="45.61602" lon="4.83454">
        <ele>285.1</ele>
        <time>2016-03-20T10:30:05Z</time>
      </trkpt>
      <trkpt lat="45.61598" lon="4.83461">
        <ele>285.2</ele>
        <time>2016-03-20T10:30:07Z</time>
      </trkpt>
      <trkpt lat="45.61597" lon="4.8347">
        <ele>285.1</ele>
        <time>2016-03-20T10:30:09Z</time>
      </trkpt>
      <trkpt lat="45.61599" lon="4.8348">
        <ele>284.9</ele>
        <time>2016-03-20T10:30:11Z</time>
      </trkpt>
      <trkpt lat="45.61602" lon="4.8349">
        <ele>284.8</ele>
        <time>2016-03-20T10:30:13Z</time>
      </trkpt>
      <trkpt lat="45.61605" lon="4.83499">
        <ele>284.8</ele>
        <time>2016-03-20T10:30:15Z</time>
      </trkpt>
      <trkpt lat="45.61608" lon="4.8351">
        <ele>285</ele>
        <time>2016-03-20T10:30:17Z</time>
      </trkpt>
      <trkpt lat="45.61611" lon="4.8352">
        <ele>285</ele>
        <time>2016-03-20T10:30:19Z</time>
      </trkpt>
      <trkpt lat="45.61614" lon="4.83531">
        <ele>285.1</ele>
        <time>2016-03-20T10:30:21Z</time>
      </trkpt>
      <trkpt lat="45.61615" lon="4.83541">
        <ele>285.1</ele>
        <time>2016-03-20T10:30:23Z</time>
      </trkpt>
      <trkpt lat="45.61614" lon="4.8355">
        <ele>285.1</ele>
        <time>2016-03-20T10:30:25Z</time>
      </trkpt>
      <trkpt lat="45.6161" lon="4.83559">
        <ele>285.1</ele>
        <time>2016-03-20T10:30:27Z</time>
      </trkpt>
      <trkpt lat="45.61603" lon="4.83565">
        <ele>285.1</ele>
        <time>2016-03-20T10:30:29Z</time>
      </trkpt>
      <trkpt lat="45.61596" lon="4.8357">
        <ele>285</ele>
        <time>2016-03-20T10:30:31Z</time>
      </trkpt>
      <trkpt lat="45.61588" lon="4.83575">
        <ele>284.9</ele>
        <time>2016-03-20T10:30:33Z</time>
      </trkpt>
      <trkpt lat="45.61579" lon="4.8358">
        <ele>284.9</ele>
        <time>2016-03-20T10:30:35Z</time>
      </trkpt>
      <trkpt lat="45.61571" lon="4.83585">
        <ele>284.8</ele>
        <time>2016-03-20T10:30:37Z</time>
      </trkpt>
      <trkpt lat="45.61562" lon="4.8359">
        <ele>284.6</ele>
        <time>2016-03-20T10:30:39Z</time>
      </trkpt>
      <trkpt lat="45.61554" lon="4.83595">
        <ele>284.5</ele>
        <time>2016-03-20T10:30:41Z</time>
      </trkpt>
      <trkpt lat="45.61546" lon="4.836">
        <ele>284.7</ele>
        <time>2016-03-20T10:30:43Z</time>
      </trkpt>
      <trkpt lat="45.61537" lon="4.83605">
        <ele>285.1</ele>
        <time>2016-03-20T10:30:45Z</time>
      </trkpt>
      <trkpt lat="45.61529" lon="4.83611">
        <ele>285.6</ele>
        <time>2016-03-20T10:30:47Z</time>
      </trkpt>
      <trkpt lat="45.61522" lon="4.83617">
        <ele>286</ele>
        <time>2016-03-20T10:30:49Z</time>
      </trkpt>
      <trkpt lat="45.61514" lon="4.83624">
        <ele>286.4</ele>
        <time>2016-03-20T10:30:51Z</time>
      </trkpt>
      <trkpt lat="45.61507" lon="4.8363">
        <ele>287</ele>
        <time>2016-03-20T10:30:53Z</time>
      </trkpt>
      <trkpt lat="45.615" lon="4.83635">
        <ele>287.5</ele>
        <time>2016-03-20T10:30:55Z</time>
      </trkpt>
      <trkpt lat="45.61493" lon="4.83641">
        <ele>287.8</ele>
        <time>2016-03-20T10:30:57Z</time>
      </trkpt>
      <trkpt lat="45.61487" lon="4.83646">
        <ele>287.9</ele>
        <time>2016-03-20T10:30:59Z</time>
      </trkpt>
      <trkpt lat="45.61483" lon="4.83654">
        <ele>288</ele>
        <time>2016-03-20T10:31:01Z</time>
      </trkpt>
      <trkpt lat="45.61479" lon="4.8366">
        <ele>288</ele>
        <time>2016-03-20T10:31:03Z</time>
      </trkpt>
      <trkpt lat="45.61475" lon="4.83667">
        <ele>288</ele>
        <time>2016-03-20T10:31:05Z</time>
      </trkpt>
      <trkpt lat="45.61471" lon="4.83675">
        <ele>288</ele>
        <time>2016-03-20T10:31:07Z</time>
      </trkpt>
      <trkpt lat="45.61467" lon="4.83684">
        <ele>285.1</ele>
        <time>2016-03-20T10:31:09Z</time>
      </trkpt>
      <trkpt lat="45.61462" lon="4.83693">
        <ele>285</ele>
        <time>2016-03-20T10:31:11Z</time>
      </trkpt>
      <trkpt lat="45.61459" lon="4.83702">
        <ele>285</ele>
        <time>2016-03-20T10:31:13Z</time>
      </trkpt>
      <trkpt lat="45.61456" lon="4.8371">
        <ele>285</ele>
        <time>2016-03-20T10:31:15Z</time>
      </trkpt>
      <trkpt lat="45.61454" lon="4.83718">
        <ele>285</ele>
        <time>2016-03-20T10:31:17Z</time>
      </trkpt>
      <trkpt lat="45.61456" lon="4.83725">
        <ele>285</ele>
        <time>2016-03-20T10:31:19Z</time>
      </trkpt>
      <trkpt lat="45.61458" lon="4.83732">
        <ele>284.9</ele>
        <time>2016-03-20T10:31:21Z</time>
      </trkpt>
      <trkpt lat="45.61461" lon="4.83739">
        <ele>284.8</ele>
        <time>2016-03-20T10:31:23Z</time>
      </trkpt>
      <trkpt lat="45.61463" lon="4.83747">
        <ele>284.9</ele>
        <time>2016-03-20T10:31:25Z</time>
      </trkpt>
      <trkpt lat="45.61466" lon="4.83753">
        <ele>285.1</ele>
        <time>2016-03-20T10:31:27Z</time>
      </trkpt>
      <trkpt lat="45.61468" lon="4.83758">
        <ele>285.3</ele>
        <time>2016-03-20T10:31:29Z</time>
      </trkpt>
      <trkpt lat="45.6147" lon="4.83763">
        <ele>285.4</ele>
        <time>2016-03-20T10:31:31Z</time>
      </trkpt>
      <trkpt lat="45.61473" lon="4.83769">
        <ele>285.6</ele>
        <time>2016-03-20T10:31:33Z</time>
      </trkpt>
      <trkpt lat="45.61474" lon="4.83775">
        <ele>285.8</ele>
        <time>2016-03-20T10:31:35Z</time>
      </trkpt>
      <trkpt lat="45.61477" lon="4.8378">
        <ele>285.9</ele>
        <time>2016-03-20T10:31:37Z</time>
      </trkpt>
      <trkpt lat="45.61479" lon="4.83787">
        <ele>285.8</ele>
        <time>2016-03-20T10:31:39Z</time>
      </trkpt>
      <trkpt lat="45.61482" lon="4.83795">
        <ele>285.7</ele>
        <time>2016-03-20T10:31:41Z</time>
      </trkpt>
      <trkpt lat="45.61484" lon="4.83803">
        <ele>285.4</ele>
        <time>2016-03-20T10:31:43Z</time>
      </trkpt>
      <trkpt lat="45.61487" lon="4.8381">
        <ele>285</ele>
        <time>2016-03-20T10:31:45Z</time>
      </trkpt>
      <trkpt lat="45.6149" lon="4.83818">
        <ele>284.5</ele>
        <time>2016-03-20T10:31:47Z</time>
      </trkpt>
      <trkpt lat="45.61493" lon="4.83826">
        <ele>284</ele>
        <time>2016-03-20T10:31:49Z</time>
      </trkpt>
      <trkpt lat="45.61496" lon="4.83833">
        <ele>284</ele>
        <time>2016-03-20T10:31:51Z</time>
      </trkpt>
      <trkpt lat="45.61499" lon="4.83841">
        <ele>283.9</ele>
        <time>2016-03-20T10:31:53Z</time>
      </trkpt>
      <trkpt lat="45.61502" lon="4.83847">
        <ele>283.8</ele>
        <time>2016-03-20T10:31:55Z</time>
      </trkpt>
      <trkpt lat="45.61505" lon="4.83854">
        <ele>284</ele>
        <time>2016-03-20T10:31:57Z</time>
      </trkpt>
      <trkpt lat="45.61507" lon="4.83861">
        <ele>284.3</ele>
        <time>2016-03-20T10:31:59Z</time>
      </trkpt>
      <trkpt lat="45.61511" lon="4.83868">
        <ele>284.8</ele>
        <time>2016-03-20T10:32:01Z</time>
      </trkpt>
      <trkpt lat="45.61515" lon="4.83877">
        <ele>285.4</ele>
        <time>2016-03-20T10:32:03Z</time>
      </trkpt>
      <trkpt lat="45.61519" lon="4.83889">
        <ele>286</ele>
        <time>2016-03-20T10:32:05Z</time>
      </trkpt>
      <trkpt lat="45.61525" lon="4.83902">
        <ele>285.6</ele>
        <time>2016-03-20T10:32:07Z</time>
      </trkpt>
      <trkpt lat="45.61531" lon="4.83918">
        <ele>284.7</ele>
        <time>2016-03-20T10:32:09Z</time>
      </trkpt>
      <trkpt lat="45.61537" lon="4.83935">
        <ele>284.6</ele>
        <time>2016-03-20T10:32:11Z</time>
      </trkpt>
      <trkpt lat="45.61545" lon="4.83955">
        <ele>284.2</ele>
        <time>2016-03-20T10:32:13Z</time>
      </trkpt>
      <trkpt lat="45.61552" lon="4.83976">
        <ele>283.3</ele>
        <time>2016-03-20T10:32:15Z</time>
      </trkpt>
      <trkpt lat="45.61559" lon="4.83996">
        <ele>282.6</ele>
        <time>2016-03-20T10:32:17Z</time>
      </trkpt>
      <trkpt lat="45.61564" lon="4.84016">
        <ele>282.5</ele>
        <time>2016-03-20T10:32:19Z</time>
      </trkpt>
      <trkpt lat="45.61567" lon="4.84033">
        <ele>282.6</ele>
        <time>2016-03-20T10:32:21Z</time>
      </trkpt>
      <trkpt lat="45.61573" lon="4.84045">
        <ele>283</ele>
        <time>2016-03-20T10:32:23Z</time>
      </trkpt>
      <trkpt lat="45.61582" lon="4.84049">
        <ele>283.4</ele>
        <time>2016-03-20T10:32:25Z</time>
      </trkpt>
      <trkpt lat="45.61591" lon="4.84047">
        <ele>283.7</ele>
        <time>2016-03-20T10:32:27Z</time>
      </trkpt>
      <trkpt lat="45.61599" lon="4.84052">
        <ele>284.8</ele>
        <time>2016-03-20T10:32:29Z</time>
      </trkpt>
      <trkpt lat="45.61603" lon="4.84062">
        <ele>285.7</ele>
        <time>2016-03-20T10:32:31Z</time>
      </trkpt>
      <trkpt lat="45.61607" lon="4.84074">
        <ele>286.7</ele>
        <time>2016-03-20T10:32:33Z</time>
      </trkpt>
      <trkpt lat="45.61609" lon="4.84085">
        <ele>287.4</ele>
        <time>2016-03-20T10:32:35Z</time>
      </trkpt>
      <trkpt lat="45.61612" lon="4.84096">
        <ele>287.9</ele>
        <time>2016-03-20T10:32:37Z</time>
      </trkpt>
      <trkpt lat="45.61615" lon="4.84107">
        <ele>288.3</ele>
        <time>2016-03-20T10:32:39Z</time>
      </trkpt>
      <trkpt lat="45.61618" lon="4.84116">
        <ele>288.6</ele>
        <time>2016-03-20T10:32:41Z</time>
      </trkpt>
      <trkpt lat="45.6162" lon="4.84125">
        <ele>288.9</ele>
        <time>2016-03-20T10:32:43Z</time>
      </trkpt>
      <trkpt lat="45.61623" lon="4.84134">
        <ele>289.4</ele>
        <time>2016-03-20T10:32:45Z</time>
      </trkpt>
      <trkpt lat="45.61625" lon="4.84142">
        <ele>289.8</ele>
        <time>2016-03-20T10:32:47Z</time>
      </trkpt>
      <trkpt lat="45.61627" lon="4.84151">
        <ele>290.3</ele>
        <time>2016-03-20T10:32:49Z</time>
      </trkpt>
      <trkpt lat="45.61629" lon="4.84159">
        <ele>291.2</ele>
        <time>2016-03-20T10:32:51Z</time>
      </trkpt>
      <trkpt lat="45.61631" lon="4.84168">
        <ele>291.8</ele>
        <time>2016-03-20T10:32:53Z</time>
      </trkpt>
      <trkpt lat="45.61632" lon="4.84176">
        <ele>292.3</ele>
        <time>2016-03-20T10:32:55Z</time>
      </trkpt>
      <trkpt lat="45.61634" lon="4.84185">
        <ele>292.7</ele>
        <time>2016-03-20T10:32:57Z</time>
      </trkpt>
      <trkpt lat="45.61636" lon="4.84193">
        <ele>292.9</ele>
        <time>2016-03-20T10:32:59Z</time>
      </trkpt>
      <trkpt lat="45.61638" lon="4.84201">
        <ele>293.2</ele>
        <time>2016-03-20T10:33:01Z</time>
      </trkpt>
      <trkpt lat="45.61639" lon="4.84208">
        <ele>293.5</ele>
        <time>2016-03-20T10:33:03Z</time>
      </trkpt>
      <trkpt lat="45.61641" lon="4.84215">
        <ele>293.7</ele>
        <time>2016-03-20T10:33:05Z</time>
      </trkpt>
      <trkpt lat="45.61643" lon="4.84222">
        <ele>293.9</ele>
        <time>2016-03-20T10:33:07Z</time>
      </trkpt>
      <trkpt lat="45.61644" lon="4.84228">
        <ele>293.9</ele>
        <time>2016-03-20T10:33:09Z</time>
      </trkpt>
      <trkpt lat="45.61647" lon="4.84235">
        <ele>293.8</ele>
        <time>2016-03-20T10:33:11Z</time>
      </trkpt>
      <trkpt lat="45.61649" lon="4.84241">
        <ele>293.7</ele>
        <time>2016-03-20T10:33:13Z</time>
      </trkpt>
      <trkpt lat="45.61651" lon="4.84247">
        <ele>293.6</ele>
        <time>2016-03-20T10:33:15Z</time>
      </trkpt>
      <trkpt lat="45.61652" lon="4.84252">
        <ele>293.5</ele>
        <time>2016-03-20T10:33:17Z</time>
      </trkpt>
      <trkpt lat="45.61654" lon="4.84257">
        <ele>293.5</ele>
        <time>2016-03-20T10:33:19Z</time>
      </trkpt>
      <trkpt lat="45.61655" lon="4.84262">
        <ele>293.5</ele>
        <time>2016-03-20T10:33:21Z</time>
      </trkpt>
      <trkpt lat="45.61658" lon="4.84267">
        <ele>293.5</ele>
        <time>2016-03-20T10:33:23Z</time>
      </trkpt>
      <trkpt lat="45.61659" lon="4.84272">
        <ele>293.4</ele>
        <time>2016-03-20T10:33:25Z</time>
      </trkpt>
      <trkpt lat="45.6166" lon="4.84275">
        <ele>293.3</ele>
        <time>2016-03-20T10:33:27Z</time>
      </trkpt>
      <trkpt lat="45.61662" lon="4.84279">
        <ele>293.2</ele>
        <time>2016-03-20T10:33:29Z</time>
      </trkpt>
      <trkpt lat="45.61663" lon="4.84284">
        <ele>293</ele>
        <time>2016-03-20T10:33:31Z</time>
      </trkpt>
      <trkpt lat="45.61665" lon="4.84288">
        <ele>292.8</ele>
        <time>2016-03-20T10:33:33Z</time>
      </trkpt>
      <trkpt lat="45.61667" lon="4.84292">
        <ele>292.6</ele>
        <time>2016-03-20T10:33:35Z</time>
      </trkpt>
      <trkpt lat="45.61668" lon="4.84295">
        <ele>292.3</ele>
        <time>2016-03-20T10:33:37Z</time>
      </trkpt>
      <trkpt lat="45.61668" lon="4.84297">
        <ele>292.1</ele>
        <time>2016-03-20T10:33:39Z</time>
      </trkpt>
      <trkpt lat="45.6167" lon="4.84303">
        <ele>291.6</ele>
        <time>2016-03-20T10:34:31Z</time>
      </trkpt>
      <trkpt lat="45.61674" lon="4.84316">
        <ele>290.3</ele>
        <time>2016-03-20T10:34:33Z</time>
      </trkpt>
      <trkpt lat="45.61678" lon="4.84329">
        <ele>289.2</ele>
        <time>2016-03-20T10:34:35Z</time>
      </trkpt>
      <trkpt lat="45.61683" lon="4.84345">
        <ele>287.4</ele>
        <time>2016-03-20T10:34:37Z</time>
      </trkpt>
      <trkpt lat="45.61689" lon="4.84364">
        <ele>285.7</ele>
        <time>2016-03-20T10:34:39Z</time>
      </trkpt>
      <trkpt lat="45.61695" lon="4.84386">
        <ele>283.9</ele>
        <time>2016-03-20T10:34:41Z</time>
      </trkpt>
      <trkpt lat="45.61701" lon="4.84409">
        <ele>282.5</ele>
        <time>2016-03-20T10:34:43Z</time>
      </trkpt>
      <trkpt lat="45.61708" lon="4.84434">
        <ele>281.2</ele>
        <time>2016-03-20T10:34:45Z</time>
      </trkpt>
      <trkpt lat="45.61714" lon="4.84461">
        <ele>279.9</ele>
        <time>2016-03-20T10:34:47Z</time>
      </trkpt>
      <trkpt lat="45.61721" lon="4.84487">
        <ele>277.1</ele>
        <time>2016-03-20T10:34:49Z</time>
      </trkpt>
      <trkpt lat="45.61728" lon="4.84511">
        <ele>276.2</ele>
        <time>2016-03-20T10:34:51Z</time>
      </trkpt>
      <trkpt lat="45.61732" lon="4.84528">
        <ele>276.8</ele>
        <time>2016-03-20T10:34:53Z</time>
      </trkpt>
      <trkpt lat="45.61728" lon="4.84533">
        <ele>276.7</ele>
        <time>2016-03-20T10:34:55Z</time>
      </trkpt>
      <trkpt lat="45.61721" lon="4.84532">
        <ele>275.6</ele>
        <time>2016-03-20T10:34:57Z</time>
      </trkpt>
      <trkpt lat="45.61711" lon="4.84531">
        <ele>273.8</ele>
        <time>2016-03-20T10:34:59Z</time>
      </trkpt>
      <trkpt lat="45.61699" lon="4.8453">
        <ele>272</ele>
        <time>2016-03-20T10:35:01Z</time>
      </trkpt>
      <trkpt lat="45.61685" lon="4.8453">
        <ele>270.6</ele>
        <time>2016-03-20T10:35:03Z</time>
      </trkpt>
      <trkpt lat="45.61668" lon="4.84532">
        <ele>269.4</ele>
        <time>2016-03-20T10:35:05Z</time>
      </trkpt>
      <trkpt lat="45.6165" lon="4.84532">
        <ele>268.1</ele>
        <time>2016-03-20T10:35:07Z</time>
      </trkpt>
      <trkpt lat="45.6163" lon="4.84532">
        <ele>265.6</ele>
        <time>2016-03-20T10:35:09Z</time>
      </trkpt>
      <trkpt lat="45.61609" lon="4.84533">
        <ele>262.9</ele>
        <time>2016-03-20T10:35:11Z</time>
      </trkpt>
      <trkpt lat="45.61588" lon="4.84533">
        <ele>261.1</ele>
        <time>2016-03-20T10:35:13Z</time>
      </trkpt>
      <trkpt lat="45.61569" lon="4.84534">
        <ele>261</ele>
        <time>2016-03-20T10:35:15Z</time>
      </trkpt>
      <trkpt lat="45.61552" lon="4.8454">
        <ele>259.5</ele>
        <time>2016-03-20T10:35:17Z</time>
      </trkpt>
      <trkpt lat="45.61536" lon="4.84553">
        <ele>255.6</ele>
        <time>2016-03-20T10:35:19Z</time>
      </trkpt>
      <trkpt lat="45.6152" lon="4.8457">
        <ele>254.2</ele>
        <time>2016-03-20T10:35:21Z</time>
      </trkpt>
      <trkpt lat="45.615" lon="4.84581">
        <ele>252.3</ele>
        <time>2016-03-20T10:35:23Z</time>
      </trkpt>
      <trkpt lat="45.6148" lon="4.84589">
        <ele>250.7</ele>
        <time>2016-03-20T10:35:25Z</time>
      </trkpt>
      <trkpt lat="45.6146" lon="4.84591">
        <ele>248.3</ele>
        <time>2016-03-20T10:35:27Z</time>
      </trkpt>
      <trkpt lat="45.6144" lon="4.8458">
        <ele>246</ele>
        <time>2016-03-20T10:35:29Z</time>
      </trkpt>
      <trkpt lat="45.61417" lon="4.84568">
        <ele>243</ele>
        <time>2016-03-20T10:35:31Z</time>
      </trkpt>
      <trkpt lat="45.61393" lon="4.84561">
        <ele>241.7</ele>
        <time>2016-03-20T10:35:33Z</time>
      </trkpt>
      <trkpt lat="45.61367" lon="4.84558">
        <ele>241.3</ele>
        <time>2016-03-20T10:35:35Z</time>
      </trkpt>
      <trkpt lat="45.61341" lon="4.84552">
        <ele>239.6</ele>
        <time>2016-03-20T10:35:37Z</time>
      </trkpt>
      <trkpt lat="45.61315" lon="4.84545">
        <ele>236.9</ele>
        <time>2016-03-20T10:35:39Z</time>
      </trkpt>
      <trkpt lat="45.61289" lon="4.8454">
        <ele>235.9</ele>
        <time>2016-03-20T10:35:41Z</time>
      </trkpt>
      <trkpt lat="45.61264" lon="4.84538">
        <ele>234.8</ele>
        <time>2016-03-20T10:35:43Z</time>
      </trkpt>
      <trkpt lat="45.6124" lon="4.84546">
        <ele>233.1</ele>
        <time>2016-03-20T10:35:45Z</time>
      </trkpt>
      <trkpt lat="45.61218" lon="4.84559">
        <ele>232.3</ele>
        <time>2016-03-20T10:35:47Z</time>
      </trkpt>
      <trkpt lat="45.61199" lon="4.84569">
        <ele>231.7</ele>
        <time>2016-03-20T10:35:49Z</time>
      </trkpt>
      <trkpt lat="45.61187" lon="4.84575">
        <ele>231.3</ele>
        <time>2016-03-20T10:35:51Z</time>
      </trkpt>
      <trkpt lat="45.61179" lon="4.8458">
        <ele>231</ele>
        <time>2016-03-20T10:35:53Z</time>
      </trkpt>
      <trkpt lat="45.61176" lon="4.84588">
        <ele>230.4</ele>
        <time>2016-03-20T10:35:55Z</time>
      </trkpt>
      <trkpt lat="45.61174" lon="4.84599">
        <ele>229.7</ele>
        <time>2016-03-20T10:35:57Z</time>
      </trkpt>
      <trkpt lat="45.61173" lon="4.84611">
        <ele>229</ele>
        <time>2016-03-20T10:35:59Z</time>
      </trkpt>
      <trkpt lat="45.61169" lon="4.84622">
        <ele>229</ele>
        <time>2016-03-20T10:36:01Z</time>
      </trkpt>
      <trkpt lat="45.61163" lon="4.84629">
        <ele>229</ele>
        <time>2016-03-20T10:36:03Z</time>
      </trkpt>
      <trkpt lat="45.61154" lon="4.84634">
        <ele>228.8</ele>
        <time>2016-03-20T10:36:05Z</time>
      </trkpt>
      <trkpt lat="45.61147" lon="4.8464">
        <ele>228.4</ele>
        <time>2016-03-20T10:36:07Z</time>
      </trkpt>
      <trkpt lat="45.61138" lon="4.84646">
        <ele>227.9</ele>
        <time>2016-03-20T10:36:09Z</time>
      </trkpt>
      <trkpt lat="45.61128" lon="4.84653">
        <ele>227.3</ele>
        <time>2016-03-20T10:36:11Z</time>
      </trkpt>
      <trkpt lat="45.61117" lon="4.8466">
        <ele>226.8</ele>
        <time>2016-03-20T10:36:13Z</time>
      </trkpt>
      <trkpt lat="45.61107" lon="4.84665">
        <ele>226.1</ele>
        <time>2016-03-20T10:36:15Z</time>
      </trkpt>
      <trkpt lat="45.61095" lon="4.8467">
        <ele>225.3</ele>
        <time>2016-03-20T10:36:17Z</time>
      </trkpt>
      <trkpt lat="45.61082" lon="4.84673">
        <ele>224.8</ele>
        <time>2016-03-20T10:36:19Z</time>
      </trkpt>
      <trkpt lat="45.61069" lon="4.84676">
        <ele>224.3</ele>
        <time>2016-03-20T10:36:21Z</time>
      </trkpt>
      <trkpt lat="45.61055" lon="4.84679">
        <ele>223.8</ele>
        <time>2016-03-20T10:36:23Z</time>
      </trkpt>
      <trkpt lat="45.61041" lon="4.84682">
        <ele>223.4</ele>
        <time>2016-03-20T10:36:25Z</time>
      </trkpt>
      <trkpt lat="45.61028" lon="4.84684">
        <ele>222.8</ele>
        <time>2016-03-20T10:36:27Z</time>
      </trkpt>
      <trkpt lat="45.61013" lon="4.84687">
        <ele>222</ele>
        <time>2016-03-20T10:36:29Z</time>
      </trkpt>
      <trkpt lat="45.60998" lon="4.8469">
        <ele>221.1</ele>
        <time>2016-03-20T10:36:31Z</time>
      </trkpt>
      <trkpt lat="45.60984" lon="4.84693">
        <ele>220.3</ele>
        <time>2016-03-20T10:36:33Z</time>
      </trkpt>
      <trkpt lat="45.60969" lon="4.84696">
        <ele>219.9</ele>
        <time>2016-03-20T10:36:35Z</time>
      </trkpt>
      <trkpt lat="45.60954" lon="4.84699">
        <ele>219.8</ele>
        <time>2016-03-20T10:36:37Z</time>
      </trkpt>
      <trkpt lat="45.60939" lon="4.84702">
        <ele>219.8</ele>
        <time>2016-03-20T10:36:39Z</time>
      </trkpt>
      <trkpt lat="45.60925" lon="4.84705">
        <ele>219.6</ele>
        <time>2016-03-20T10:36:41Z</time>
      </trkpt>
      <trkpt lat="45.60911" lon="4.84708">
        <ele>219.5</ele>
        <time>2016-03-20T10:36:43Z</time>
      </trkpt>
      <trkpt lat="45.60897" lon="4.8471">
        <ele>219.5</ele>
        <time>2016-03-20T10:36:45Z</time>
      </trkpt>
      <trkpt lat="45.60886" lon="4.84714">
        <ele>219.3</ele>
        <time>2016-03-20T10:36:47Z</time>
      </trkpt>
      <trkpt lat="45.60882" lon="4.84724">
        <ele>218.9</ele>
        <time>2016-03-20T10:36:49Z</time>
      </trkpt>
      <trkpt lat="45.60881" lon="4.84737">
        <ele>218.5</ele>
        <time>2016-03-20T10:36:51Z</time>
      </trkpt>
      <trkpt lat="45.60882" lon="4.84752">
        <ele>218</ele>
        <time>2016-03-20T10:36:53Z</time>
      </trkpt>
      <trkpt lat="45.60882" lon="4.84768">
        <ele>217.4</ele>
        <time>2016-03-20T10:36:55Z</time>
      </trkpt>
      <trkpt lat="45.60883" lon="4.84785">
        <ele>216.9</ele>
        <time>2016-03-20T10:36:57Z</time>
      </trkpt>
      <trkpt lat="45.60883" lon="4.84802">
        <ele>216.9</ele>
        <time>2016-03-20T10:36:59Z</time>
      </trkpt>
      <trkpt lat="45.60885" lon="4.84819">
        <ele>216.6</ele>
        <time>2016-03-20T10:37:01Z</time>
      </trkpt>
      <trkpt lat="45.60885" lon="4.84837">
        <ele>216</ele>
        <time>2016-03-20T10:37:03Z</time>
      </trkpt>
      <trkpt lat="45.60886" lon="4.84854">
        <ele>215.7</ele>
        <time>2016-03-20T10:37:05Z</time>
      </trkpt>
      <trkpt lat="45.60887" lon="4.84872">
        <ele>216.1</ele>
        <time>2016-03-20T10:37:07Z</time>
      </trkpt>
      <trkpt lat="45.60888" lon="4.84889">
        <ele>216.7</ele>
        <time>2016-03-20T10:37:09Z</time>
      </trkpt>
      <trkpt lat="45.60889" lon="4.84907">
        <ele>217</ele>
        <time>2016-03-20T10:37:11Z</time>
      </trkpt>
      <trkpt lat="45.6089" lon="4.84925">
        <ele>216.9</ele>
        <time>2016-03-20T10:37:13Z</time>
      </trkpt>
      <trkpt lat="45.60891" lon="4.84943">
        <ele>216.9</ele>
        <time>2016-03-20T10:37:15Z</time>
      </trkpt>
      <trkpt lat="45.60892" lon="4.8496">
        <ele>217</ele>
        <time>2016-03-20T10:37:17Z</time>
      </trkpt>
      <trkpt lat="45.60893" lon="4.84977">
        <ele>216.9</ele>
        <time>2016-03-20T10:37:19Z</time>
      </trkpt>
      <trkpt lat="45.60894" lon="4.84994">
        <ele>216.4</ele>
        <time>2016-03-20T10:37:21Z</time>
      </trkpt>
      <trkpt lat="45.60894" lon="4.85011">
        <ele>215.6</ele>
        <time>2016-03-20T10:37:23Z</time>
      </trkpt>
      <trkpt lat="45.60894" lon="4.85028">
        <ele>215.1</ele>
        <time>2016-03-20T10:37:25Z</time>
      </trkpt>
      <trkpt lat="45.60894" lon="4.85045">
        <ele>214.9</ele>
        <time>2016-03-20T10:37:27Z</time>
      </trkpt>
      <trkpt lat="45.60893" lon="4.85063">
        <ele>214.9</ele>
        <time>2016-03-20T10:37:29Z</time>
      </trkpt>
      <trkpt lat="45.60892" lon="4.85082">
        <ele>214.5</ele>
        <time>2016-03-20T10:37:31Z</time>
      </trkpt>
      <trkpt lat="45.60892" lon="4.85101">
        <ele>213.3</ele>
        <time>2016-03-20T10:37:33Z</time>
      </trkpt>
      <trkpt lat="45.60891" lon="4.85119">
        <ele>211.9</ele>
        <time>2016-03-20T10:37:35Z</time>
      </trkpt>
      <trkpt lat="45.60891" lon="4.85135">
        <ele>211.1</ele>
        <time>2016-03-20T10:37:37Z</time>
      </trkpt>
      <trkpt lat="45.6089" lon="4.85149">
        <ele>210.9</ele>
        <time>2016-03-20T10:37:39Z</time>
      </trkpt>
      <trkpt lat="45.60889" lon="4.85161">
        <ele>210.9</ele>
        <time>2016-03-20T10:37:41Z</time>
      </trkpt>
      <trkpt lat="45.60887" lon="4.85169">
        <ele>210.9</ele>
        <time>2016-03-20T10:37:43Z</time>
      </trkpt>
      <trkpt lat="45.60882" lon="4.85169">
        <ele>210.9</ele>
        <time>2016-03-20T10:37:45Z</time>
      </trkpt>
      <trkpt lat="45.60876" lon="4.85166">
        <ele>211</ele>
        <time>2016-03-20T10:37:47Z</time>
      </trkpt>
      <trkpt lat="45.60869" lon="4.85162">
        <ele>211.1</ele>
        <time>2016-03-20T10:37:49Z</time>
      </trkpt>
      <trkpt lat="45.60862" lon="4.85157">
        <ele>211.5</ele>
        <time>2016-03-20T10:37:51Z</time>
      </trkpt>
      <trkpt lat="45.60854" lon="4.85153">
        <ele>211.8</ele>
        <time>2016-03-20T10:37:53Z</time>
      </trkpt>
      <trkpt lat="45.60847" lon="4.85148">
        <ele>212</ele>
        <time>2016-03-20T10:37:55Z</time>
      </trkpt>
      <trkpt lat="45.6084" lon="4.85144">
        <ele>212.1</ele>
        <time>2016-03-20T10:37:57Z</time>
      </trkpt>
      <trkpt lat="45.60833" lon="4.8514">
        <ele>212.3</ele>
        <time>2016-03-20T10:37:59Z</time>
      </trkpt>
      <trkpt lat="45.60826" lon="4.85135">
        <ele>212.6</ele>
        <time>2016-03-20T10:38:01Z</time>
      </trkpt>
      <trkpt lat="45.60819" lon="4.85131">
        <ele>213.1</ele>
        <time>2016-03-20T10:38:03Z</time>
      </trkpt>
      <trkpt lat="45.60811" lon="4.85127">
        <ele>213.7</ele>
        <time>2016-03-20T10:38:05Z</time>
      </trkpt>
      <trkpt lat="45.60804" lon="4.85122">
        <ele>214</ele>
        <time>2016-03-20T10:38:07Z</time>
      </trkpt>
      <trkpt lat="45.60796" lon="4.85118">
        <ele>214.3</ele>
        <time>2016-03-20T10:38:09Z</time>
      </trkpt>
      <trkpt lat="45.60789" lon="4.85113">
        <ele>214.5</ele>
        <time>2016-03-20T10:38:11Z</time>
      </trkpt>
      <trkpt lat="45.60784" lon="4.85105">
        <ele>214.7</ele>
        <time>2016-03-20T10:38:13Z</time>
      </trkpt>
      <trkpt lat="45.60782" lon="4.85096">
        <ele>214.7</ele>
        <time>2016-03-20T10:38:15Z</time>
      </trkpt>
      <trkpt lat="45.60781" lon="4.85085">
        <ele>214.8</ele>
        <time>2016-03-20T10:38:17Z</time>
      </trkpt>
      <trkpt lat="45.60782" lon="4.85074">
        <ele>215</ele>
        <time>2016-03-20T10:38:19Z</time>
      </trkpt>
      <trkpt lat="45.60783" lon="4.85063">
        <ele>215.5</ele>
        <time>2016-03-20T10:38:21Z</time>
      </trkpt>
      <trkpt lat="45.60782" lon="4.85054">
        <ele>215.9</ele>
        <time>2016-03-20T10:38:23Z</time>
      </trkpt>
      <trkpt lat="45.60783" lon="4.85044">
        <ele>216.2</ele>
        <time>2016-03-20T10:38:25Z</time>
      </trkpt>
      <trkpt lat="45.60782" lon="4.8504">
        <ele>216.5</ele>
        <time>2016-03-20T10:38:27Z</time>
      </trkpt>
      <trkpt lat="45.60779" lon="4.85041">
        <ele>216.7</ele>
        <time>2016-03-20T10:38:29Z</time>
      </trkpt>
      <trkpt lat="45.60774" lon="4.8504">
        <ele>216.9</ele>
        <time>2016-03-20T10:38:31Z</time>
      </trkpt>
      <trkpt lat="45.60768" lon="4.85037">
        <ele>217.4</ele>
        <time>2016-03-20T10:38:33Z</time>
      </trkpt>
      <trkpt lat="45.60762" lon="4.85033">
        <ele>218.1</ele>
        <time>2016-03-20T10:38:35Z</time>
      </trkpt>
      <trkpt lat="45.60758" lon="4.85026">
        <ele>218.7</ele>
        <time>2016-03-20T10:38:37Z</time>
      </trkpt>
      <trkpt lat="45.60753" lon="4.85021">
        <ele>219.1</ele>
        <time>2016-03-20T10:38:39Z</time>
      </trkpt>
      <trkpt lat="45.60749" lon="4.85014">
        <ele>219.6</ele>
        <time>2016-03-20T10:38:41Z</time>
      </trkpt>
      <trkpt lat="45.60746" lon="4.85006">
        <ele>219.6</ele>
        <time>2016-03-20T10:38:43Z</time>
      </trkpt>
      <trkpt lat="45.60745" lon="4.84999">
        <ele>219.7</ele>
        <time>2016-03-20T10:38:45Z</time>
      </trkpt>
      <trkpt lat="45.60744" lon="4.8499">
        <ele>219.3</ele>
        <time>2016-03-20T10:38:47Z</time>
      </trkpt>
      <trkpt lat="45.60743" lon="4.84981">
        <ele>218.9</ele>
        <time>2016-03-20T10:38:49Z</time>
      </trkpt>
      <trkpt lat="45.60743" lon="4.8497">
        <ele>218.7</ele>
        <time>2016-03-20T10:38:51Z</time>
      </trkpt>
      <trkpt lat="45.60741" lon="4.8496">
        <ele>218.7</ele>
        <time>2016-03-20T10:38:53Z</time>
      </trkpt>
      <trkpt lat="45.60741" lon="4.8495">
        <ele>218.9</ele>
        <time>2016-03-20T10:38:55Z</time>
      </trkpt>
      <trkpt lat="45.60741" lon="4.8494">
        <ele>219</ele>
        <time>2016-03-20T10:38:57Z</time>
      </trkpt>
      <trkpt lat="45.6074" lon="4.84931">
        <ele>219</ele>
        <time>2016-03-20T10:38:59Z</time>
      </trkpt>
      <trkpt lat="45.6074" lon="4.84921">
        <ele>219</ele>
        <time>2016-03-20T10:39:01Z</time>
      </trkpt>
      <trkpt lat="45.6074" lon="4.84912">
        <ele>219.3</ele>
        <time>2016-03-20T10:39:03Z</time>
      </trkpt>
      <trkpt lat="45.6074" lon="4.84903">
        <ele>219.5</ele>
        <time>2016-03-20T10:39:05Z</time>
      </trkpt>
      <trkpt lat="45.60739" lon="4.84894">
        <ele>219.7</ele>
        <time>2016-03-20T10:39:07Z</time>
      </trkpt>
      <trkpt lat="45.60738" lon="4.84885">
        <ele>219.8</ele>
        <time>2016-03-20T10:39:09Z</time>
      </trkpt>
      <trkpt lat="45.60738" lon="4.84877">
        <ele>219.8</ele>
        <time>2016-03-20T10:39:11Z</time>
      </trkpt>
      <trkpt lat="45.60736" lon="4.84869">
        <ele>219.9</ele>
        <time>2016-03-20T10:39:13Z</time>
      </trkpt>
      <trkpt lat="45.60733" lon="4.84861">
        <ele>219.8</ele>
        <time>2016-03-20T10:39:15Z</time>
      </trkpt>
      <trkpt lat="45.6073" lon="4.84853">
        <ele>219.6</ele>
        <time>2016-03-20T10:39:17Z</time>
      </trkpt>
      <trkpt lat="45.60728" lon="4.84845">
        <ele>219.5</ele>
        <time>2016-03-20T10:39:19Z</time>
      </trkpt>
      <trkpt lat="45.60726" lon="4.84836">
        <ele>219.3</ele>
        <time>2016-03-20T10:39:21Z</time>
      </trkpt>
      <trkpt lat="45.60724" lon="4.84828">
        <ele>219.3</ele>
        <time>2016-03-20T10:39:23Z</time>
      </trkpt>
      <trkpt lat="45.60722" lon="4.8482">
        <ele>219.3</ele>
        <time>2016-03-20T10:39:25Z</time>
      </trkpt>
      <trkpt lat="45.60719" lon="4.84818">
        <ele>219.4</ele>
        <time>2016-03-20T10:39:27Z</time>
      </trkpt>
      <trkpt lat="45.60719" lon="4.84821">
        <ele>219.4</ele>
        <time>2016-03-20T10:39:29Z</time>
      </trkpt>
      <trkpt lat="45.60719" lon="4.84828">
        <ele>219.4</ele>
        <time>2016-03-20T10:39:31Z</time>
      </trkpt>
      <trkpt lat="45.60716" lon="4.84834">
        <ele>219.4</ele>
        <time>2016-03-20T10:39:33Z</time>
      </trkpt>
      <trkpt lat="45.60711" lon="4.84839">
        <ele>219.5</ele>
        <time>2016-03-20T10:39:35Z</time>
      </trkpt>
      <trkpt lat="45.60706" lon="4.84841">
        <ele>219.7</ele>
        <time>2016-03-20T10:39:37Z</time>
      </trkpt>
      <trkpt lat="45.60701" lon="4.84841">
        <ele>219.9</ele>
        <time>2016-03-20T10:39:39Z</time>
      </trkpt>
      <trkpt lat="45.60695" lon="4.8484">
        <ele>219.9</ele>
        <time>2016-03-20T10:39:41Z</time>
      </trkpt>
      <trkpt lat="45.60689" lon="4.84842">
        <ele>220.4</ele>
        <time>2016-03-20T10:39:43Z</time>
      </trkpt>
      <trkpt lat="45.60683" lon="4.84842">
        <ele>220.5</ele>
        <time>2016-03-20T10:39:45Z</time>
      </trkpt>
      <trkpt lat="45.60678" lon="4.84844">
        <ele>220.9</ele>
        <time>2016-03-20T10:39:47Z</time>
      </trkpt>
      <trkpt lat="45.60672" lon="4.84844">
        <ele>221.2</ele>
        <time>2016-03-20T10:39:49Z</time>
      </trkpt>
      <trkpt lat="45.60667" lon="4.84843">
        <ele>221.3</ele>
        <time>2016-03-20T10:39:51Z</time>
      </trkpt>
      <trkpt lat="45.60663" lon="4.84844">
        <ele>221.4</ele>
        <time>2016-03-20T10:39:53Z</time>
      </trkpt>
      <trkpt lat="45.60658" lon="4.84845">
        <ele>221.6</ele>
        <time>2016-03-20T10:39:55Z</time>
      </trkpt>
      <trkpt lat="45.60653" lon="4.84846">
        <ele>221.5</ele>
        <time>2016-03-20T10:39:57Z</time>
      </trkpt>
      <trkpt lat="45.60646" lon="4.84846">
        <ele>221.4</ele>
        <time>2016-03-20T10:39:59Z</time>
      </trkpt>
      <trkpt lat="45.60639" lon="4.84845">
        <ele>221.2</ele>
        <time>2016-03-20T10:40:01Z</time>
      </trkpt>
      <trkpt lat="45.60633" lon="4.84846">
        <ele>221.1</ele>
        <time>2016-03-20T10:40:03Z</time>
      </trkpt>
      <trkpt lat="45.60626" lon="4.84846">
        <ele>221.1</ele>
        <time>2016-03-20T10:40:05Z</time>
      </trkpt>
      <trkpt lat="45.60619" lon="4.84846">
        <ele>221.2</ele>
        <time>2016-03-20T10:40:07Z</time>
      </trkpt>
      <trkpt lat="45.60612" lon="4.84846">
        <ele>221.4</ele>
        <time>2016-03-20T10:40:09Z</time>
      </trkpt>
      <trkpt lat="45.60606" lon="4.84849">
        <ele>221.6</ele>
        <time>2016-03-20T10:40:11Z</time>
      </trkpt>
      <trkpt lat="45.60602" lon="4.84854">
        <ele>221.6</ele>
        <time>2016-03-20T10:40:13Z</time>
      </trkpt>
      <trkpt lat="45.60598" lon="4.84858">
        <ele>221.6</ele>
        <time>2016-03-20T10:40:15Z</time>
      </trkpt>
      <trkpt lat="45.60596" lon="4.84862">
        <ele>221.6</ele>
        <time>2016-03-20T10:40:17Z</time>
      </trkpt>
      <trkpt lat="45.60593" lon="4.84869">
        <ele>221.7</ele>
        <time>2016-03-20T10:40:39Z</time>
      </trkpt>
      <trkpt lat="45.60594" lon="4.84871">
        <ele>221.7</ele>
        <time>2016-03-20T10:40:41Z</time>
      </trkpt>
      <trkpt lat="45.60592" lon="4.84874">
        <ele>221.7</ele>
        <time>2016-03-20T10:42:59Z</time>
      </trkpt>
      <trkpt lat="45.60592" lon="4.84871">
        <ele>221.7</ele>
        <time>2016-03-20T10:43:01Z</time>
      </trkpt>
      <trkpt lat="45.60592" lon="4.84869">
        <ele>221.7</ele>
        <time>2016-03-20T10:43:05Z</time>
      </trkpt>
      <trkpt lat="45.60592" lon="4.84864">
        <ele>221.7</ele>
        <time>2016-03-20T10:43:11Z</time>
      </trkpt>
      <trkpt lat="45.60593" lon="4.8486">
        <ele>221.6</ele>
        <time>2016-03-20T10:43:13Z</time>
      </trkpt>
      <trkpt lat="45.60593" lon="4.84856">
        <ele>221.6</ele>
        <time>2016-03-20T10:43:15Z</time>
      </trkpt>
      <trkpt lat="45.60596" lon="4.84853">
        <ele>221.6</ele>
        <time>2016-03-20T10:43:17Z</time>
      </trkpt>
      <trkpt lat="45.606" lon="4.84851">
        <ele>221.6</ele>
        <time>2016-03-20T10:43:19Z</time>
      </trkpt>
      <trkpt lat="45.60605" lon="4.84848">
        <ele>221.6</ele>
        <time>2016-03-20T10:43:21Z</time>
      </trkpt>
      <trkpt lat="45.60609" lon="4.84847">
        <ele>221.4</ele>
        <time>2016-03-20T10:43:23Z</time>
      </trkpt>
      <trkpt lat="45.60614" lon="4.84845">
        <ele>221.3</ele>
        <time>2016-03-20T10:43:25Z</time>
      </trkpt>
      <trkpt lat="45.6062" lon="4.84844">
        <ele>221.2</ele>
        <time>2016-03-20T10:43:27Z</time>
      </trkpt>
      <trkpt lat="45.60626" lon="4.84845">
        <ele>221.2</ele>
        <time>2016-03-20T10:43:29Z</time>
      </trkpt>
      <trkpt lat="45.60629" lon="4.84847">
        <ele>221.1</ele>
        <time>2016-03-20T10:43:31Z</time>
      </trkpt>
      <trkpt lat="45.60631" lon="4.84845">
        <ele>221.2</ele>
        <time>2016-03-20T10:43:33Z</time>
      </trkpt>
      <trkpt lat="45.60629" lon="4.84844">
        <ele>221.2</ele>
        <time>2016-03-20T10:43:35Z</time>
      </trkpt>
      <trkpt lat="45.60626" lon="4.84843">
        <ele>221.2</ele>
        <time>2016-03-20T10:43:37Z</time>
      </trkpt>
      <trkpt lat="45.60622" lon="4.84839">
        <ele>221.2</ele>
        <time>2016-03-20T10:43:39Z</time>
      </trkpt>
      <trkpt lat="45.60619" lon="4.84835">
        <ele>221.2</ele>
        <time>2016-03-20T10:43:41Z</time>
      </trkpt>
      <trkpt lat="45.60616" lon="4.84829">
        <ele>221.2</ele>
        <time>2016-03-20T10:43:43Z</time>
      </trkpt>
      <trkpt lat="45.60614" lon="4.84823">
        <ele>221.1</ele>
        <time>2016-03-20T10:43:45Z</time>
      </trkpt>
      <trkpt lat="45.60614" lon="4.84816">
        <ele>221.2</ele>
        <time>2016-03-20T10:43:47Z</time>
      </trkpt>
      <trkpt lat="45.60614" lon="4.84811">
        <ele>221.1</ele>
        <time>2016-03-20T10:43:49Z</time>
      </trkpt>
      <trkpt lat="45.60614" lon="4.84809">
        <ele>221.2</ele>
        <time>2016-03-20T10:43:51Z</time>
      </trkpt>
    </trkseg>
  </trk>
</gpx>